<?xml version="1.0" encoding="UTF-8" standalone="no" ?>
<gpx xmlns="http://www.topografix.com/GPX/1/1" xmlns:xsi="http://www.w3.org/2001/XMLSchema-instance" xsi:schemaLocation="http://www.topografix.com/GPX/1/1 http://www.topografix.com/GPX/1/1/gpx.xsd" version="1.1" creator="VisuGPX - https://www.visugpx.com">
  <metadata>
    <name>S 908</name>
  </metadata>
  <trk>
    <name><![CDATA[Sortie riz au lait..merci Arnaud..👍🎂]]></name>
    <trkseg>
      <trkpt lat="49.28647" lon="-0.1191">
        <ele>5.2</ele>
        <time>2023-10-11T11:55:04Z</time>
      </trkpt>
      <trkpt lat="49.2865" lon="-0.11916">
        <ele>5.1</ele>
        <time>2023-10-11T11:55:05Z</time>
      </trkpt>
      <trkpt lat="49.28647" lon="-0.11915">
        <ele>5.1</ele>
        <time>2023-10-11T11:55:07Z</time>
      </trkpt>
      <trkpt lat="49.28648" lon="-0.11915">
        <ele>5.1</ele>
        <time>2023-10-11T11:55:08Z</time>
      </trkpt>
      <trkpt lat="49.28648" lon="-0.11915">
        <ele>5.1</ele>
        <time>2023-10-11T11:55:09Z</time>
      </trkpt>
      <trkpt lat="49.28647" lon="-0.11915">
        <ele>5.1</ele>
        <time>2023-10-11T11:55:10Z</time>
      </trkpt>
      <trkpt lat="49.28647" lon="-0.11914">
        <ele>5.1</ele>
        <time>2023-10-11T11:55:11Z</time>
      </trkpt>
      <trkpt lat="49.28646" lon="-0.11914">
        <ele>5.1</ele>
        <time>2023-10-11T11:55:12Z</time>
      </trkpt>
      <trkpt lat="49.28646" lon="-0.11913">
        <ele>5.1</ele>
        <time>2023-10-11T11:55:13Z</time>
      </trkpt>
      <trkpt lat="49.28645" lon="-0.11913">
        <ele>5.1</ele>
        <time>2023-10-11T11:55:14Z</time>
      </trkpt>
      <trkpt lat="49.28645" lon="-0.11913">
        <ele>5.1</ele>
        <time>2023-10-11T11:55:15Z</time>
      </trkpt>
      <trkpt lat="49.28645" lon="-0.11912">
        <ele>5.1</ele>
        <time>2023-10-11T11:55:16Z</time>
      </trkpt>
      <trkpt lat="49.28644" lon="-0.11912">
        <ele>5</ele>
        <time>2023-10-11T11:55:17Z</time>
      </trkpt>
      <trkpt lat="49.28644" lon="-0.11912">
        <ele>5</ele>
        <time>2023-10-11T11:55:18Z</time>
      </trkpt>
      <trkpt lat="49.28643" lon="-0.11911">
        <ele>5</ele>
        <time>2023-10-11T11:55:19Z</time>
      </trkpt>
      <trkpt lat="49.28643" lon="-0.11911">
        <ele>5</ele>
        <time>2023-10-11T12:02:27Z</time>
      </trkpt>
      <trkpt lat="49.28643" lon="-0.1191">
        <ele>5</ele>
        <time>2023-10-11T12:02:28Z</time>
      </trkpt>
      <trkpt lat="49.28642" lon="-0.1191">
        <ele>5</ele>
        <time>2023-10-11T12:02:29Z</time>
      </trkpt>
      <trkpt lat="49.2864" lon="-0.11907">
        <ele>5</ele>
        <time>2023-10-11T12:02:30Z</time>
      </trkpt>
      <trkpt lat="49.2864" lon="-0.11905">
        <ele>5</ele>
        <time>2023-10-11T12:02:31Z</time>
      </trkpt>
      <trkpt lat="49.2864" lon="-0.11903">
        <ele>5</ele>
        <time>2023-10-11T12:02:32Z</time>
      </trkpt>
      <trkpt lat="49.2864" lon="-0.119">
        <ele>4.8</ele>
        <time>2023-10-11T12:02:33Z</time>
      </trkpt>
      <trkpt lat="49.28641" lon="-0.11895">
        <ele>4.8</ele>
        <time>2023-10-11T12:02:34Z</time>
      </trkpt>
      <trkpt lat="49.28641" lon="-0.11893">
        <ele>4.8</ele>
        <time>2023-10-11T12:02:35Z</time>
      </trkpt>
      <trkpt lat="49.28641" lon="-0.11888">
        <ele>4.7</ele>
        <time>2023-10-11T12:02:36Z</time>
      </trkpt>
      <trkpt lat="49.28641" lon="-0.11886">
        <ele>4.7</ele>
        <time>2023-10-11T12:02:37Z</time>
      </trkpt>
      <trkpt lat="49.2864" lon="-0.11881">
        <ele>4.6</ele>
        <time>2023-10-11T12:02:38Z</time>
      </trkpt>
      <trkpt lat="49.28638" lon="-0.11877">
        <ele>4.6</ele>
        <time>2023-10-11T12:02:39Z</time>
      </trkpt>
      <trkpt lat="49.28636" lon="-0.11873">
        <ele>4.6</ele>
        <time>2023-10-11T12:02:40Z</time>
      </trkpt>
      <trkpt lat="49.28633" lon="-0.11868">
        <ele>4.6</ele>
        <time>2023-10-11T12:02:41Z</time>
      </trkpt>
      <trkpt lat="49.2863" lon="-0.11863">
        <ele>4.5</ele>
        <time>2023-10-11T12:02:42Z</time>
      </trkpt>
      <trkpt lat="49.28628" lon="-0.11858">
        <ele>4.5</ele>
        <time>2023-10-11T12:02:43Z</time>
      </trkpt>
      <trkpt lat="49.28626" lon="-0.11851">
        <ele>4.6</ele>
        <time>2023-10-11T12:02:44Z</time>
      </trkpt>
      <trkpt lat="49.28625" lon="-0.11845">
        <ele>4.6</ele>
        <time>2023-10-11T12:02:45Z</time>
      </trkpt>
      <trkpt lat="49.28625" lon="-0.11837">
        <ele>4.6</ele>
        <time>2023-10-11T12:02:46Z</time>
      </trkpt>
      <trkpt lat="49.28625" lon="-0.1183">
        <ele>4.6</ele>
        <time>2023-10-11T12:02:47Z</time>
      </trkpt>
      <trkpt lat="49.28626" lon="-0.11824">
        <ele>4.6</ele>
        <time>2023-10-11T12:02:48Z</time>
      </trkpt>
      <trkpt lat="49.28628" lon="-0.11817">
        <ele>4.6</ele>
        <time>2023-10-11T12:02:49Z</time>
      </trkpt>
      <trkpt lat="49.2863" lon="-0.1181">
        <ele>4.7</ele>
        <time>2023-10-11T12:02:50Z</time>
      </trkpt>
      <trkpt lat="49.28632" lon="-0.11803">
        <ele>4.7</ele>
        <time>2023-10-11T12:02:51Z</time>
      </trkpt>
      <trkpt lat="49.28633" lon="-0.11795">
        <ele>4.7</ele>
        <time>2023-10-11T12:02:52Z</time>
      </trkpt>
      <trkpt lat="49.28635" lon="-0.11788">
        <ele>4.7</ele>
        <time>2023-10-11T12:02:53Z</time>
      </trkpt>
      <trkpt lat="49.28636" lon="-0.11781">
        <ele>4.8</ele>
        <time>2023-10-11T12:02:54Z</time>
      </trkpt>
      <trkpt lat="49.28638" lon="-0.11773">
        <ele>4.8</ele>
        <time>2023-10-11T12:02:55Z</time>
      </trkpt>
      <trkpt lat="49.28639" lon="-0.11767">
        <ele>4.8</ele>
        <time>2023-10-11T12:02:56Z</time>
      </trkpt>
      <trkpt lat="49.28641" lon="-0.11759">
        <ele>4.9</ele>
        <time>2023-10-11T12:02:57Z</time>
      </trkpt>
      <trkpt lat="49.28643" lon="-0.11752">
        <ele>4.9</ele>
        <time>2023-10-11T12:02:58Z</time>
      </trkpt>
      <trkpt lat="49.28644" lon="-0.11744">
        <ele>4.9</ele>
        <time>2023-10-11T12:02:59Z</time>
      </trkpt>
      <trkpt lat="49.28646" lon="-0.11736">
        <ele>4.9</ele>
        <time>2023-10-11T12:03:00Z</time>
      </trkpt>
      <trkpt lat="49.28648" lon="-0.11728">
        <ele>5</ele>
        <time>2023-10-11T12:03:01Z</time>
      </trkpt>
      <trkpt lat="49.28649" lon="-0.1172">
        <ele>5</ele>
        <time>2023-10-11T12:03:02Z</time>
      </trkpt>
      <trkpt lat="49.28651" lon="-0.11713">
        <ele>5</ele>
        <time>2023-10-11T12:03:03Z</time>
      </trkpt>
      <trkpt lat="49.28652" lon="-0.11706">
        <ele>5</ele>
        <time>2023-10-11T12:03:04Z</time>
      </trkpt>
      <trkpt lat="49.28654" lon="-0.11699">
        <ele>5</ele>
        <time>2023-10-11T12:03:05Z</time>
      </trkpt>
      <trkpt lat="49.28654" lon="-0.11694">
        <ele>5</ele>
        <time>2023-10-11T12:03:06Z</time>
      </trkpt>
      <trkpt lat="49.28654" lon="-0.11688">
        <ele>5.1</ele>
        <time>2023-10-11T12:03:07Z</time>
      </trkpt>
      <trkpt lat="49.28652" lon="-0.11682">
        <ele>5.1</ele>
        <time>2023-10-11T12:03:08Z</time>
      </trkpt>
      <trkpt lat="49.28648" lon="-0.11678">
        <ele>5.2</ele>
        <time>2023-10-11T12:03:09Z</time>
      </trkpt>
      <trkpt lat="49.28643" lon="-0.11676">
        <ele>5.2</ele>
        <time>2023-10-11T12:03:10Z</time>
      </trkpt>
      <trkpt lat="49.28638" lon="-0.11678">
        <ele>5.2</ele>
        <time>2023-10-11T12:03:11Z</time>
      </trkpt>
      <trkpt lat="49.28633" lon="-0.11681">
        <ele>5.2</ele>
        <time>2023-10-11T12:03:12Z</time>
      </trkpt>
      <trkpt lat="49.28628" lon="-0.11683">
        <ele>5.3</ele>
        <time>2023-10-11T12:03:13Z</time>
      </trkpt>
      <trkpt lat="49.28623" lon="-0.11684">
        <ele>5.3</ele>
        <time>2023-10-11T12:03:14Z</time>
      </trkpt>
      <trkpt lat="49.28618" lon="-0.11686">
        <ele>5.3</ele>
        <time>2023-10-11T12:03:15Z</time>
      </trkpt>
      <trkpt lat="49.28613" lon="-0.11687">
        <ele>5.3</ele>
        <time>2023-10-11T12:03:16Z</time>
      </trkpt>
      <trkpt lat="49.28608" lon="-0.11689">
        <ele>5.3</ele>
        <time>2023-10-11T12:03:17Z</time>
      </trkpt>
      <trkpt lat="49.28603" lon="-0.11691">
        <ele>5.4</ele>
        <time>2023-10-11T12:03:18Z</time>
      </trkpt>
      <trkpt lat="49.28598" lon="-0.11693">
        <ele>5.4</ele>
        <time>2023-10-11T12:03:19Z</time>
      </trkpt>
      <trkpt lat="49.28593" lon="-0.11694">
        <ele>5.4</ele>
        <time>2023-10-11T12:03:20Z</time>
      </trkpt>
      <trkpt lat="49.28587" lon="-0.11696">
        <ele>5.4</ele>
        <time>2023-10-11T12:03:21Z</time>
      </trkpt>
      <trkpt lat="49.28581" lon="-0.11698">
        <ele>5.4</ele>
        <time>2023-10-11T12:03:22Z</time>
      </trkpt>
      <trkpt lat="49.28575" lon="-0.117">
        <ele>5.4</ele>
        <time>2023-10-11T12:03:23Z</time>
      </trkpt>
      <trkpt lat="49.28569" lon="-0.11701">
        <ele>5.3</ele>
        <time>2023-10-11T12:03:24Z</time>
      </trkpt>
      <trkpt lat="49.28563" lon="-0.11702">
        <ele>5.3</ele>
        <time>2023-10-11T12:03:25Z</time>
      </trkpt>
      <trkpt lat="49.28557" lon="-0.11703">
        <ele>5.3</ele>
        <time>2023-10-11T12:03:26Z</time>
      </trkpt>
      <trkpt lat="49.28552" lon="-0.11704">
        <ele>5.3</ele>
        <time>2023-10-11T12:03:27Z</time>
      </trkpt>
      <trkpt lat="49.28546" lon="-0.11704">
        <ele>5.3</ele>
        <time>2023-10-11T12:03:28Z</time>
      </trkpt>
      <trkpt lat="49.28541" lon="-0.11704">
        <ele>5.3</ele>
        <time>2023-10-11T12:03:29Z</time>
      </trkpt>
      <trkpt lat="49.28534" lon="-0.11704">
        <ele>5.3</ele>
        <time>2023-10-11T12:03:30Z</time>
      </trkpt>
      <trkpt lat="49.28528" lon="-0.11704">
        <ele>5.3</ele>
        <time>2023-10-11T12:03:31Z</time>
      </trkpt>
      <trkpt lat="49.28522" lon="-0.11704">
        <ele>5.3</ele>
        <time>2023-10-11T12:03:32Z</time>
      </trkpt>
      <trkpt lat="49.28515" lon="-0.11703">
        <ele>5.2</ele>
        <time>2023-10-11T12:03:33Z</time>
      </trkpt>
      <trkpt lat="49.28509" lon="-0.11702">
        <ele>5.2</ele>
        <time>2023-10-11T12:03:34Z</time>
      </trkpt>
      <trkpt lat="49.28503" lon="-0.11701">
        <ele>5.2</ele>
        <time>2023-10-11T12:03:35Z</time>
      </trkpt>
      <trkpt lat="49.28498" lon="-0.11699">
        <ele>5.2</ele>
        <time>2023-10-11T12:03:36Z</time>
      </trkpt>
      <trkpt lat="49.28492" lon="-0.11697">
        <ele>5.2</ele>
        <time>2023-10-11T12:03:37Z</time>
      </trkpt>
      <trkpt lat="49.28486" lon="-0.11696">
        <ele>5.2</ele>
        <time>2023-10-11T12:03:38Z</time>
      </trkpt>
      <trkpt lat="49.2848" lon="-0.11694">
        <ele>5.2</ele>
        <time>2023-10-11T12:03:39Z</time>
      </trkpt>
      <trkpt lat="49.28475" lon="-0.11693">
        <ele>5.2</ele>
        <time>2023-10-11T12:03:40Z</time>
      </trkpt>
      <trkpt lat="49.2847" lon="-0.11691">
        <ele>5.2</ele>
        <time>2023-10-11T12:03:41Z</time>
      </trkpt>
      <trkpt lat="49.28464" lon="-0.11689">
        <ele>5.2</ele>
        <time>2023-10-11T12:03:42Z</time>
      </trkpt>
      <trkpt lat="49.28458" lon="-0.11688">
        <ele>5.2</ele>
        <time>2023-10-11T12:03:43Z</time>
      </trkpt>
      <trkpt lat="49.28451" lon="-0.11687">
        <ele>5.1</ele>
        <time>2023-10-11T12:03:44Z</time>
      </trkpt>
      <trkpt lat="49.28445" lon="-0.11686">
        <ele>5.1</ele>
        <time>2023-10-11T12:03:45Z</time>
      </trkpt>
      <trkpt lat="49.2844" lon="-0.11685">
        <ele>5.1</ele>
        <time>2023-10-11T12:03:46Z</time>
      </trkpt>
      <trkpt lat="49.28434" lon="-0.11683">
        <ele>5.1</ele>
        <time>2023-10-11T12:03:47Z</time>
      </trkpt>
      <trkpt lat="49.28428" lon="-0.11682">
        <ele>5.1</ele>
        <time>2023-10-11T12:03:48Z</time>
      </trkpt>
      <trkpt lat="49.28422" lon="-0.11681">
        <ele>5.1</ele>
        <time>2023-10-11T12:03:49Z</time>
      </trkpt>
      <trkpt lat="49.28416" lon="-0.1168">
        <ele>5.1</ele>
        <time>2023-10-11T12:03:50Z</time>
      </trkpt>
      <trkpt lat="49.2841" lon="-0.11678">
        <ele>5</ele>
        <time>2023-10-11T12:03:51Z</time>
      </trkpt>
      <trkpt lat="49.28404" lon="-0.11677">
        <ele>5</ele>
        <time>2023-10-11T12:03:52Z</time>
      </trkpt>
      <trkpt lat="49.28398" lon="-0.11676">
        <ele>5</ele>
        <time>2023-10-11T12:03:53Z</time>
      </trkpt>
      <trkpt lat="49.28392" lon="-0.11674">
        <ele>5</ele>
        <time>2023-10-11T12:03:54Z</time>
      </trkpt>
      <trkpt lat="49.28386" lon="-0.11673">
        <ele>5</ele>
        <time>2023-10-11T12:03:55Z</time>
      </trkpt>
      <trkpt lat="49.28379" lon="-0.11671">
        <ele>5</ele>
        <time>2023-10-11T12:03:56Z</time>
      </trkpt>
      <trkpt lat="49.28373" lon="-0.1167">
        <ele>5</ele>
        <time>2023-10-11T12:03:57Z</time>
      </trkpt>
      <trkpt lat="49.28367" lon="-0.11668">
        <ele>5</ele>
        <time>2023-10-11T12:03:58Z</time>
      </trkpt>
      <trkpt lat="49.28361" lon="-0.11667">
        <ele>4.9</ele>
        <time>2023-10-11T12:03:59Z</time>
      </trkpt>
      <trkpt lat="49.28355" lon="-0.11666">
        <ele>4.9</ele>
        <time>2023-10-11T12:04:00Z</time>
      </trkpt>
      <trkpt lat="49.28349" lon="-0.11664">
        <ele>4.9</ele>
        <time>2023-10-11T12:04:01Z</time>
      </trkpt>
      <trkpt lat="49.28344" lon="-0.11663">
        <ele>4.9</ele>
        <time>2023-10-11T12:04:02Z</time>
      </trkpt>
      <trkpt lat="49.28338" lon="-0.11661">
        <ele>4.9</ele>
        <time>2023-10-11T12:04:03Z</time>
      </trkpt>
      <trkpt lat="49.28331" lon="-0.1166">
        <ele>4.9</ele>
        <time>2023-10-11T12:04:04Z</time>
      </trkpt>
      <trkpt lat="49.28326" lon="-0.11658">
        <ele>4.9</ele>
        <time>2023-10-11T12:04:05Z</time>
      </trkpt>
      <trkpt lat="49.2832" lon="-0.11657">
        <ele>4.8</ele>
        <time>2023-10-11T12:04:06Z</time>
      </trkpt>
      <trkpt lat="49.28314" lon="-0.11656">
        <ele>4.8</ele>
        <time>2023-10-11T12:04:07Z</time>
      </trkpt>
      <trkpt lat="49.28308" lon="-0.11657">
        <ele>4.9</ele>
        <time>2023-10-11T12:04:08Z</time>
      </trkpt>
      <trkpt lat="49.28302" lon="-0.11659">
        <ele>4.9</ele>
        <time>2023-10-11T12:04:09Z</time>
      </trkpt>
      <trkpt lat="49.28297" lon="-0.11663">
        <ele>4.9</ele>
        <time>2023-10-11T12:04:10Z</time>
      </trkpt>
      <trkpt lat="49.28291" lon="-0.11667">
        <ele>4.9</ele>
        <time>2023-10-11T12:04:11Z</time>
      </trkpt>
      <trkpt lat="49.28287" lon="-0.11669">
        <ele>5</ele>
        <time>2023-10-11T12:04:12Z</time>
      </trkpt>
      <trkpt lat="49.28281" lon="-0.11671">
        <ele>5.2</ele>
        <time>2023-10-11T12:04:13Z</time>
      </trkpt>
      <trkpt lat="49.28275" lon="-0.11671">
        <ele>5.4</ele>
        <time>2023-10-11T12:04:14Z</time>
      </trkpt>
      <trkpt lat="49.28269" lon="-0.11669">
        <ele>5.6</ele>
        <time>2023-10-11T12:04:15Z</time>
      </trkpt>
      <trkpt lat="49.28263" lon="-0.11666">
        <ele>5.9</ele>
        <time>2023-10-11T12:04:16Z</time>
      </trkpt>
      <trkpt lat="49.28258" lon="-0.11662">
        <ele>6</ele>
        <time>2023-10-11T12:04:17Z</time>
      </trkpt>
      <trkpt lat="49.28253" lon="-0.11658">
        <ele>6</ele>
        <time>2023-10-11T12:04:18Z</time>
      </trkpt>
      <trkpt lat="49.28247" lon="-0.11654">
        <ele>5.9</ele>
        <time>2023-10-11T12:04:19Z</time>
      </trkpt>
      <trkpt lat="49.28242" lon="-0.1165">
        <ele>5.9</ele>
        <time>2023-10-11T12:04:20Z</time>
      </trkpt>
      <trkpt lat="49.28236" lon="-0.11647">
        <ele>5.9</ele>
        <time>2023-10-11T12:04:21Z</time>
      </trkpt>
      <trkpt lat="49.28231" lon="-0.11645">
        <ele>5.9</ele>
        <time>2023-10-11T12:04:22Z</time>
      </trkpt>
      <trkpt lat="49.28225" lon="-0.11645">
        <ele>6</ele>
        <time>2023-10-11T12:04:23Z</time>
      </trkpt>
      <trkpt lat="49.28219" lon="-0.11645">
        <ele>6</ele>
        <time>2023-10-11T12:04:24Z</time>
      </trkpt>
      <trkpt lat="49.28212" lon="-0.11645">
        <ele>6</ele>
        <time>2023-10-11T12:04:25Z</time>
      </trkpt>
      <trkpt lat="49.28206" lon="-0.11645">
        <ele>6</ele>
        <time>2023-10-11T12:04:26Z</time>
      </trkpt>
      <trkpt lat="49.282" lon="-0.11644">
        <ele>6</ele>
        <time>2023-10-11T12:04:27Z</time>
      </trkpt>
      <trkpt lat="49.28194" lon="-0.11644">
        <ele>6</ele>
        <time>2023-10-11T12:04:28Z</time>
      </trkpt>
      <trkpt lat="49.28187" lon="-0.11644">
        <ele>6</ele>
        <time>2023-10-11T12:04:29Z</time>
      </trkpt>
      <trkpt lat="49.28181" lon="-0.11644">
        <ele>6</ele>
        <time>2023-10-11T12:04:30Z</time>
      </trkpt>
      <trkpt lat="49.28175" lon="-0.11644">
        <ele>5.9</ele>
        <time>2023-10-11T12:04:31Z</time>
      </trkpt>
      <trkpt lat="49.28169" lon="-0.11644">
        <ele>5.9</ele>
        <time>2023-10-11T12:04:32Z</time>
      </trkpt>
      <trkpt lat="49.28162" lon="-0.11643">
        <ele>5.8</ele>
        <time>2023-10-11T12:04:33Z</time>
      </trkpt>
      <trkpt lat="49.28156" lon="-0.11643">
        <ele>5.8</ele>
        <time>2023-10-11T12:04:34Z</time>
      </trkpt>
      <trkpt lat="49.2815" lon="-0.11643">
        <ele>5.7</ele>
        <time>2023-10-11T12:04:35Z</time>
      </trkpt>
      <trkpt lat="49.28144" lon="-0.11642">
        <ele>5.6</ele>
        <time>2023-10-11T12:04:36Z</time>
      </trkpt>
      <trkpt lat="49.28138" lon="-0.11642">
        <ele>5.6</ele>
        <time>2023-10-11T12:04:37Z</time>
      </trkpt>
      <trkpt lat="49.28132" lon="-0.11641">
        <ele>5.5</ele>
        <time>2023-10-11T12:04:38Z</time>
      </trkpt>
      <trkpt lat="49.28125" lon="-0.11641">
        <ele>5.4</ele>
        <time>2023-10-11T12:04:39Z</time>
      </trkpt>
      <trkpt lat="49.28119" lon="-0.11641">
        <ele>5.3</ele>
        <time>2023-10-11T12:04:40Z</time>
      </trkpt>
      <trkpt lat="49.28113" lon="-0.11641">
        <ele>5.3</ele>
        <time>2023-10-11T12:04:41Z</time>
      </trkpt>
      <trkpt lat="49.28106" lon="-0.11641">
        <ele>5.2</ele>
        <time>2023-10-11T12:04:42Z</time>
      </trkpt>
      <trkpt lat="49.281" lon="-0.11641">
        <ele>5.1</ele>
        <time>2023-10-11T12:04:43Z</time>
      </trkpt>
      <trkpt lat="49.28094" lon="-0.11641">
        <ele>5</ele>
        <time>2023-10-11T12:04:44Z</time>
      </trkpt>
      <trkpt lat="49.28087" lon="-0.1164">
        <ele>4.9</ele>
        <time>2023-10-11T12:04:45Z</time>
      </trkpt>
      <trkpt lat="49.28081" lon="-0.1164">
        <ele>4.9</ele>
        <time>2023-10-11T12:04:46Z</time>
      </trkpt>
      <trkpt lat="49.28075" lon="-0.11639">
        <ele>4.8</ele>
        <time>2023-10-11T12:04:47Z</time>
      </trkpt>
      <trkpt lat="49.28068" lon="-0.11639">
        <ele>4.7</ele>
        <time>2023-10-11T12:04:48Z</time>
      </trkpt>
      <trkpt lat="49.28062" lon="-0.11639">
        <ele>4.7</ele>
        <time>2023-10-11T12:04:49Z</time>
      </trkpt>
      <trkpt lat="49.28055" lon="-0.1164">
        <ele>4.6</ele>
        <time>2023-10-11T12:04:50Z</time>
      </trkpt>
      <trkpt lat="49.28048" lon="-0.1164">
        <ele>4.6</ele>
        <time>2023-10-11T12:04:51Z</time>
      </trkpt>
      <trkpt lat="49.28042" lon="-0.1164">
        <ele>4.5</ele>
        <time>2023-10-11T12:04:52Z</time>
      </trkpt>
      <trkpt lat="49.28035" lon="-0.1164">
        <ele>4.5</ele>
        <time>2023-10-11T12:04:53Z</time>
      </trkpt>
      <trkpt lat="49.28029" lon="-0.1164">
        <ele>4.5</ele>
        <time>2023-10-11T12:04:54Z</time>
      </trkpt>
      <trkpt lat="49.28022" lon="-0.1164">
        <ele>4.5</ele>
        <time>2023-10-11T12:04:55Z</time>
      </trkpt>
      <trkpt lat="49.28015" lon="-0.11641">
        <ele>4.4</ele>
        <time>2023-10-11T12:04:56Z</time>
      </trkpt>
      <trkpt lat="49.28009" lon="-0.11641">
        <ele>4.4</ele>
        <time>2023-10-11T12:04:57Z</time>
      </trkpt>
      <trkpt lat="49.28002" lon="-0.11642">
        <ele>4.4</ele>
        <time>2023-10-11T12:04:58Z</time>
      </trkpt>
      <trkpt lat="49.27995" lon="-0.11642">
        <ele>4.4</ele>
        <time>2023-10-11T12:04:59Z</time>
      </trkpt>
      <trkpt lat="49.27989" lon="-0.11643">
        <ele>4.5</ele>
        <time>2023-10-11T12:05:00Z</time>
      </trkpt>
      <trkpt lat="49.27982" lon="-0.11644">
        <ele>4.5</ele>
        <time>2023-10-11T12:05:01Z</time>
      </trkpt>
      <trkpt lat="49.27975" lon="-0.11644">
        <ele>4.5</ele>
        <time>2023-10-11T12:05:02Z</time>
      </trkpt>
      <trkpt lat="49.27968" lon="-0.11644">
        <ele>4.5</ele>
        <time>2023-10-11T12:05:03Z</time>
      </trkpt>
      <trkpt lat="49.27962" lon="-0.11643">
        <ele>4.6</ele>
        <time>2023-10-11T12:05:04Z</time>
      </trkpt>
      <trkpt lat="49.27955" lon="-0.11644">
        <ele>4.6</ele>
        <time>2023-10-11T12:05:05Z</time>
      </trkpt>
      <trkpt lat="49.27949" lon="-0.11644">
        <ele>4.6</ele>
        <time>2023-10-11T12:05:06Z</time>
      </trkpt>
      <trkpt lat="49.27943" lon="-0.11644">
        <ele>4.6</ele>
        <time>2023-10-11T12:05:07Z</time>
      </trkpt>
      <trkpt lat="49.27936" lon="-0.11644">
        <ele>4.6</ele>
        <time>2023-10-11T12:05:08Z</time>
      </trkpt>
      <trkpt lat="49.2793" lon="-0.11644">
        <ele>4.6</ele>
        <time>2023-10-11T12:05:09Z</time>
      </trkpt>
      <trkpt lat="49.27923" lon="-0.11644">
        <ele>4.6</ele>
        <time>2023-10-11T12:05:10Z</time>
      </trkpt>
      <trkpt lat="49.27917" lon="-0.11644">
        <ele>4.6</ele>
        <time>2023-10-11T12:05:11Z</time>
      </trkpt>
      <trkpt lat="49.27911" lon="-0.11644">
        <ele>4.6</ele>
        <time>2023-10-11T12:05:12Z</time>
      </trkpt>
      <trkpt lat="49.27904" lon="-0.11644">
        <ele>4.6</ele>
        <time>2023-10-11T12:05:13Z</time>
      </trkpt>
      <trkpt lat="49.27898" lon="-0.11645">
        <ele>4.6</ele>
        <time>2023-10-11T12:05:14Z</time>
      </trkpt>
      <trkpt lat="49.27891" lon="-0.11645">
        <ele>4.6</ele>
        <time>2023-10-11T12:05:15Z</time>
      </trkpt>
      <trkpt lat="49.27884" lon="-0.11645">
        <ele>4.6</ele>
        <time>2023-10-11T12:05:16Z</time>
      </trkpt>
      <trkpt lat="49.27878" lon="-0.11646">
        <ele>4.6</ele>
        <time>2023-10-11T12:05:17Z</time>
      </trkpt>
      <trkpt lat="49.27871" lon="-0.11646">
        <ele>4.6</ele>
        <time>2023-10-11T12:05:18Z</time>
      </trkpt>
      <trkpt lat="49.27865" lon="-0.11647">
        <ele>4.6</ele>
        <time>2023-10-11T12:05:19Z</time>
      </trkpt>
      <trkpt lat="49.27858" lon="-0.11648">
        <ele>4.5</ele>
        <time>2023-10-11T12:05:20Z</time>
      </trkpt>
      <trkpt lat="49.27852" lon="-0.11649">
        <ele>4.5</ele>
        <time>2023-10-11T12:05:21Z</time>
      </trkpt>
      <trkpt lat="49.27846" lon="-0.11651">
        <ele>4.5</ele>
        <time>2023-10-11T12:05:22Z</time>
      </trkpt>
      <trkpt lat="49.27841" lon="-0.11654">
        <ele>4.4</ele>
        <time>2023-10-11T12:05:23Z</time>
      </trkpt>
      <trkpt lat="49.27835" lon="-0.11656">
        <ele>4.4</ele>
        <time>2023-10-11T12:05:24Z</time>
      </trkpt>
      <trkpt lat="49.27829" lon="-0.11658">
        <ele>4.3</ele>
        <time>2023-10-11T12:05:25Z</time>
      </trkpt>
      <trkpt lat="49.27822" lon="-0.11662">
        <ele>4.3</ele>
        <time>2023-10-11T12:05:26Z</time>
      </trkpt>
      <trkpt lat="49.27816" lon="-0.11667">
        <ele>4.2</ele>
        <time>2023-10-11T12:05:27Z</time>
      </trkpt>
      <trkpt lat="49.27809" lon="-0.11671">
        <ele>4.1</ele>
        <time>2023-10-11T12:05:28Z</time>
      </trkpt>
      <trkpt lat="49.27802" lon="-0.11675">
        <ele>4</ele>
        <time>2023-10-11T12:05:29Z</time>
      </trkpt>
      <trkpt lat="49.27796" lon="-0.11678">
        <ele>4</ele>
        <time>2023-10-11T12:05:30Z</time>
      </trkpt>
      <trkpt lat="49.27789" lon="-0.11682">
        <ele>3.9</ele>
        <time>2023-10-11T12:05:31Z</time>
      </trkpt>
      <trkpt lat="49.27782" lon="-0.11686">
        <ele>3.8</ele>
        <time>2023-10-11T12:05:32Z</time>
      </trkpt>
      <trkpt lat="49.27775" lon="-0.11689">
        <ele>3.8</ele>
        <time>2023-10-11T12:05:33Z</time>
      </trkpt>
      <trkpt lat="49.27769" lon="-0.11692">
        <ele>3.8</ele>
        <time>2023-10-11T12:05:34Z</time>
      </trkpt>
      <trkpt lat="49.27762" lon="-0.11695">
        <ele>3.7</ele>
        <time>2023-10-11T12:05:35Z</time>
      </trkpt>
      <trkpt lat="49.27755" lon="-0.11699">
        <ele>3.7</ele>
        <time>2023-10-11T12:05:36Z</time>
      </trkpt>
      <trkpt lat="49.27748" lon="-0.11703">
        <ele>3.7</ele>
        <time>2023-10-11T12:05:37Z</time>
      </trkpt>
      <trkpt lat="49.27742" lon="-0.11706">
        <ele>3.7</ele>
        <time>2023-10-11T12:05:38Z</time>
      </trkpt>
      <trkpt lat="49.27736" lon="-0.11709">
        <ele>3.7</ele>
        <time>2023-10-11T12:05:39Z</time>
      </trkpt>
      <trkpt lat="49.27729" lon="-0.11711">
        <ele>3.7</ele>
        <time>2023-10-11T12:05:40Z</time>
      </trkpt>
      <trkpt lat="49.27723" lon="-0.11713">
        <ele>3.7</ele>
        <time>2023-10-11T12:05:41Z</time>
      </trkpt>
      <trkpt lat="49.27717" lon="-0.11714">
        <ele>3.7</ele>
        <time>2023-10-11T12:05:42Z</time>
      </trkpt>
      <trkpt lat="49.2771" lon="-0.11714">
        <ele>3.7</ele>
        <time>2023-10-11T12:05:43Z</time>
      </trkpt>
      <trkpt lat="49.27703" lon="-0.11714">
        <ele>3.7</ele>
        <time>2023-10-11T12:05:44Z</time>
      </trkpt>
      <trkpt lat="49.27696" lon="-0.11713">
        <ele>3.7</ele>
        <time>2023-10-11T12:05:45Z</time>
      </trkpt>
      <trkpt lat="49.2769" lon="-0.11711">
        <ele>3.7</ele>
        <time>2023-10-11T12:05:46Z</time>
      </trkpt>
      <trkpt lat="49.27683" lon="-0.1171">
        <ele>3.7</ele>
        <time>2023-10-11T12:05:47Z</time>
      </trkpt>
      <trkpt lat="49.27676" lon="-0.11708">
        <ele>3.8</ele>
        <time>2023-10-11T12:05:48Z</time>
      </trkpt>
      <trkpt lat="49.2767" lon="-0.11705">
        <ele>3.8</ele>
        <time>2023-10-11T12:05:49Z</time>
      </trkpt>
      <trkpt lat="49.27663" lon="-0.11703">
        <ele>3.8</ele>
        <time>2023-10-11T12:05:50Z</time>
      </trkpt>
      <trkpt lat="49.27657" lon="-0.11699">
        <ele>3.9</ele>
        <time>2023-10-11T12:05:51Z</time>
      </trkpt>
      <trkpt lat="49.2765" lon="-0.11696">
        <ele>3.9</ele>
        <time>2023-10-11T12:05:52Z</time>
      </trkpt>
      <trkpt lat="49.27643" lon="-0.11693">
        <ele>3.9</ele>
        <time>2023-10-11T12:05:53Z</time>
      </trkpt>
      <trkpt lat="49.27637" lon="-0.1169">
        <ele>4</ele>
        <time>2023-10-11T12:05:54Z</time>
      </trkpt>
      <trkpt lat="49.2763" lon="-0.11686">
        <ele>4</ele>
        <time>2023-10-11T12:05:55Z</time>
      </trkpt>
      <trkpt lat="49.27624" lon="-0.11683">
        <ele>4</ele>
        <time>2023-10-11T12:05:56Z</time>
      </trkpt>
      <trkpt lat="49.27618" lon="-0.1168">
        <ele>4</ele>
        <time>2023-10-11T12:05:57Z</time>
      </trkpt>
      <trkpt lat="49.27611" lon="-0.11677">
        <ele>4</ele>
        <time>2023-10-11T12:05:58Z</time>
      </trkpt>
      <trkpt lat="49.27605" lon="-0.11674">
        <ele>4</ele>
        <time>2023-10-11T12:05:59Z</time>
      </trkpt>
      <trkpt lat="49.27598" lon="-0.11671">
        <ele>4</ele>
        <time>2023-10-11T12:06:00Z</time>
      </trkpt>
      <trkpt lat="49.27592" lon="-0.11668">
        <ele>4</ele>
        <time>2023-10-11T12:06:01Z</time>
      </trkpt>
      <trkpt lat="49.27586" lon="-0.11666">
        <ele>4</ele>
        <time>2023-10-11T12:06:02Z</time>
      </trkpt>
      <trkpt lat="49.27579" lon="-0.11664">
        <ele>4</ele>
        <time>2023-10-11T12:06:03Z</time>
      </trkpt>
      <trkpt lat="49.27573" lon="-0.11663">
        <ele>4</ele>
        <time>2023-10-11T12:06:04Z</time>
      </trkpt>
      <trkpt lat="49.27567" lon="-0.11662">
        <ele>4</ele>
        <time>2023-10-11T12:06:05Z</time>
      </trkpt>
      <trkpt lat="49.2756" lon="-0.11661">
        <ele>4</ele>
        <time>2023-10-11T12:06:06Z</time>
      </trkpt>
      <trkpt lat="49.27554" lon="-0.11661">
        <ele>4</ele>
        <time>2023-10-11T12:06:07Z</time>
      </trkpt>
      <trkpt lat="49.27548" lon="-0.11661">
        <ele>4</ele>
        <time>2023-10-11T12:06:08Z</time>
      </trkpt>
      <trkpt lat="49.27542" lon="-0.11662">
        <ele>4</ele>
        <time>2023-10-11T12:06:09Z</time>
      </trkpt>
      <trkpt lat="49.27536" lon="-0.11663">
        <ele>3.9</ele>
        <time>2023-10-11T12:06:10Z</time>
      </trkpt>
      <trkpt lat="49.2753" lon="-0.11663">
        <ele>3.9</ele>
        <time>2023-10-11T12:06:11Z</time>
      </trkpt>
      <trkpt lat="49.27523" lon="-0.11663">
        <ele>3.9</ele>
        <time>2023-10-11T12:06:12Z</time>
      </trkpt>
      <trkpt lat="49.27516" lon="-0.11663">
        <ele>3.9</ele>
        <time>2023-10-11T12:06:13Z</time>
      </trkpt>
      <trkpt lat="49.2751" lon="-0.11663">
        <ele>3.9</ele>
        <time>2023-10-11T12:06:14Z</time>
      </trkpt>
      <trkpt lat="49.27503" lon="-0.11664">
        <ele>4</ele>
        <time>2023-10-11T12:06:15Z</time>
      </trkpt>
      <trkpt lat="49.27497" lon="-0.11664">
        <ele>4</ele>
        <time>2023-10-11T12:06:16Z</time>
      </trkpt>
      <trkpt lat="49.27491" lon="-0.11664">
        <ele>4</ele>
        <time>2023-10-11T12:06:17Z</time>
      </trkpt>
      <trkpt lat="49.27485" lon="-0.11665">
        <ele>4.1</ele>
        <time>2023-10-11T12:06:18Z</time>
      </trkpt>
      <trkpt lat="49.27478" lon="-0.11665">
        <ele>4.1</ele>
        <time>2023-10-11T12:06:19Z</time>
      </trkpt>
      <trkpt lat="49.27471" lon="-0.11666">
        <ele>4.1</ele>
        <time>2023-10-11T12:06:20Z</time>
      </trkpt>
      <trkpt lat="49.27465" lon="-0.11666">
        <ele>4.2</ele>
        <time>2023-10-11T12:06:21Z</time>
      </trkpt>
      <trkpt lat="49.27459" lon="-0.11667">
        <ele>4.3</ele>
        <time>2023-10-11T12:06:22Z</time>
      </trkpt>
      <trkpt lat="49.27453" lon="-0.11667">
        <ele>4.3</ele>
        <time>2023-10-11T12:06:23Z</time>
      </trkpt>
      <trkpt lat="49.27448" lon="-0.11668">
        <ele>4.4</ele>
        <time>2023-10-11T12:06:24Z</time>
      </trkpt>
      <trkpt lat="49.27443" lon="-0.11668">
        <ele>4.5</ele>
        <time>2023-10-11T12:06:25Z</time>
      </trkpt>
      <trkpt lat="49.27438" lon="-0.11669">
        <ele>4.6</ele>
        <time>2023-10-11T12:06:26Z</time>
      </trkpt>
      <trkpt lat="49.27433" lon="-0.11669">
        <ele>4.7</ele>
        <time>2023-10-11T12:06:27Z</time>
      </trkpt>
      <trkpt lat="49.2743" lon="-0.11669">
        <ele>4.8</ele>
        <time>2023-10-11T12:06:28Z</time>
      </trkpt>
      <trkpt lat="49.27427" lon="-0.11669">
        <ele>4.9</ele>
        <time>2023-10-11T12:06:29Z</time>
      </trkpt>
      <trkpt lat="49.27424" lon="-0.11668">
        <ele>4.9</ele>
        <time>2023-10-11T12:06:30Z</time>
      </trkpt>
      <trkpt lat="49.27423" lon="-0.11668">
        <ele>4.9</ele>
        <time>2023-10-11T12:06:31Z</time>
      </trkpt>
      <trkpt lat="49.2742" lon="-0.11665">
        <ele>4.9</ele>
        <time>2023-10-11T12:06:32Z</time>
      </trkpt>
      <trkpt lat="49.27418" lon="-0.11664">
        <ele>4.9</ele>
        <time>2023-10-11T12:06:33Z</time>
      </trkpt>
      <trkpt lat="49.27416" lon="-0.1166">
        <ele>5</ele>
        <time>2023-10-11T12:06:34Z</time>
      </trkpt>
      <trkpt lat="49.27415" lon="-0.11655">
        <ele>5</ele>
        <time>2023-10-11T12:06:35Z</time>
      </trkpt>
      <trkpt lat="49.27415" lon="-0.11648">
        <ele>5</ele>
        <time>2023-10-11T12:06:36Z</time>
      </trkpt>
      <trkpt lat="49.27415" lon="-0.1164">
        <ele>5</ele>
        <time>2023-10-11T12:06:37Z</time>
      </trkpt>
      <trkpt lat="49.27415" lon="-0.11632">
        <ele>4.9</ele>
        <time>2023-10-11T12:06:38Z</time>
      </trkpt>
      <trkpt lat="49.27415" lon="-0.11624">
        <ele>4.9</ele>
        <time>2023-10-11T12:06:39Z</time>
      </trkpt>
      <trkpt lat="49.27416" lon="-0.11616">
        <ele>4.9</ele>
        <time>2023-10-11T12:06:40Z</time>
      </trkpt>
      <trkpt lat="49.27416" lon="-0.11609">
        <ele>4.9</ele>
        <time>2023-10-11T12:06:41Z</time>
      </trkpt>
      <trkpt lat="49.27416" lon="-0.11602">
        <ele>5</ele>
        <time>2023-10-11T12:06:42Z</time>
      </trkpt>
      <trkpt lat="49.27416" lon="-0.11595">
        <ele>5</ele>
        <time>2023-10-11T12:06:43Z</time>
      </trkpt>
      <trkpt lat="49.27416" lon="-0.11588">
        <ele>5</ele>
        <time>2023-10-11T12:06:44Z</time>
      </trkpt>
      <trkpt lat="49.27416" lon="-0.11581">
        <ele>5</ele>
        <time>2023-10-11T12:06:45Z</time>
      </trkpt>
      <trkpt lat="49.27416" lon="-0.11574">
        <ele>5</ele>
        <time>2023-10-11T12:06:46Z</time>
      </trkpt>
      <trkpt lat="49.27416" lon="-0.11566">
        <ele>5</ele>
        <time>2023-10-11T12:06:47Z</time>
      </trkpt>
      <trkpt lat="49.27416" lon="-0.11558">
        <ele>5</ele>
        <time>2023-10-11T12:06:48Z</time>
      </trkpt>
      <trkpt lat="49.27416" lon="-0.1155">
        <ele>5</ele>
        <time>2023-10-11T12:06:49Z</time>
      </trkpt>
      <trkpt lat="49.27416" lon="-0.11541">
        <ele>5</ele>
        <time>2023-10-11T12:06:50Z</time>
      </trkpt>
      <trkpt lat="49.27416" lon="-0.11533">
        <ele>4.9</ele>
        <time>2023-10-11T12:06:51Z</time>
      </trkpt>
      <trkpt lat="49.27416" lon="-0.11524">
        <ele>4.9</ele>
        <time>2023-10-11T12:06:52Z</time>
      </trkpt>
      <trkpt lat="49.27416" lon="-0.11515">
        <ele>4.9</ele>
        <time>2023-10-11T12:06:53Z</time>
      </trkpt>
      <trkpt lat="49.27416" lon="-0.11506">
        <ele>4.9</ele>
        <time>2023-10-11T12:06:54Z</time>
      </trkpt>
      <trkpt lat="49.27417" lon="-0.11497">
        <ele>4.9</ele>
        <time>2023-10-11T12:06:55Z</time>
      </trkpt>
      <trkpt lat="49.27417" lon="-0.11488">
        <ele>4.9</ele>
        <time>2023-10-11T12:06:56Z</time>
      </trkpt>
      <trkpt lat="49.27417" lon="-0.11479">
        <ele>4.9</ele>
        <time>2023-10-11T12:06:57Z</time>
      </trkpt>
      <trkpt lat="49.27417" lon="-0.1147">
        <ele>5</ele>
        <time>2023-10-11T12:06:58Z</time>
      </trkpt>
      <trkpt lat="49.27418" lon="-0.11461">
        <ele>5</ele>
        <time>2023-10-11T12:06:59Z</time>
      </trkpt>
      <trkpt lat="49.27418" lon="-0.11453">
        <ele>5</ele>
        <time>2023-10-11T12:07:00Z</time>
      </trkpt>
      <trkpt lat="49.27418" lon="-0.11444">
        <ele>5</ele>
        <time>2023-10-11T12:07:01Z</time>
      </trkpt>
      <trkpt lat="49.27419" lon="-0.11436">
        <ele>5</ele>
        <time>2023-10-11T12:07:02Z</time>
      </trkpt>
      <trkpt lat="49.27419" lon="-0.11427">
        <ele>5.1</ele>
        <time>2023-10-11T12:07:03Z</time>
      </trkpt>
      <trkpt lat="49.27419" lon="-0.11418">
        <ele>5.1</ele>
        <time>2023-10-11T12:07:04Z</time>
      </trkpt>
      <trkpt lat="49.27419" lon="-0.11409">
        <ele>5.1</ele>
        <time>2023-10-11T12:07:05Z</time>
      </trkpt>
      <trkpt lat="49.27419" lon="-0.114">
        <ele>5.2</ele>
        <time>2023-10-11T12:07:06Z</time>
      </trkpt>
      <trkpt lat="49.2742" lon="-0.11391">
        <ele>5.2</ele>
        <time>2023-10-11T12:07:07Z</time>
      </trkpt>
      <trkpt lat="49.2742" lon="-0.11382">
        <ele>5.2</ele>
        <time>2023-10-11T12:07:08Z</time>
      </trkpt>
      <trkpt lat="49.2742" lon="-0.11373">
        <ele>5.2</ele>
        <time>2023-10-11T12:07:09Z</time>
      </trkpt>
      <trkpt lat="49.2742" lon="-0.11364">
        <ele>5.3</ele>
        <time>2023-10-11T12:07:10Z</time>
      </trkpt>
      <trkpt lat="49.2742" lon="-0.11354">
        <ele>5.3</ele>
        <time>2023-10-11T12:07:11Z</time>
      </trkpt>
      <trkpt lat="49.27421" lon="-0.11345">
        <ele>5.4</ele>
        <time>2023-10-11T12:07:12Z</time>
      </trkpt>
      <trkpt lat="49.27421" lon="-0.11336">
        <ele>5.4</ele>
        <time>2023-10-11T12:07:13Z</time>
      </trkpt>
      <trkpt lat="49.27421" lon="-0.11327">
        <ele>5.5</ele>
        <time>2023-10-11T12:07:14Z</time>
      </trkpt>
      <trkpt lat="49.27421" lon="-0.11318">
        <ele>5.6</ele>
        <time>2023-10-11T12:07:15Z</time>
      </trkpt>
      <trkpt lat="49.27421" lon="-0.11309">
        <ele>5.6</ele>
        <time>2023-10-11T12:07:16Z</time>
      </trkpt>
      <trkpt lat="49.27422" lon="-0.113">
        <ele>5.7</ele>
        <time>2023-10-11T12:07:17Z</time>
      </trkpt>
      <trkpt lat="49.27422" lon="-0.11291">
        <ele>5.7</ele>
        <time>2023-10-11T12:07:18Z</time>
      </trkpt>
      <trkpt lat="49.27422" lon="-0.11282">
        <ele>5.8</ele>
        <time>2023-10-11T12:07:19Z</time>
      </trkpt>
      <trkpt lat="49.27422" lon="-0.11273">
        <ele>5.8</ele>
        <time>2023-10-11T12:07:20Z</time>
      </trkpt>
      <trkpt lat="49.27422" lon="-0.11264">
        <ele>5.9</ele>
        <time>2023-10-11T12:07:21Z</time>
      </trkpt>
      <trkpt lat="49.27422" lon="-0.11254">
        <ele>5.9</ele>
        <time>2023-10-11T12:07:22Z</time>
      </trkpt>
      <trkpt lat="49.27422" lon="-0.11245">
        <ele>5.9</ele>
        <time>2023-10-11T12:07:23Z</time>
      </trkpt>
      <trkpt lat="49.27423" lon="-0.11235">
        <ele>5.9</ele>
        <time>2023-10-11T12:07:24Z</time>
      </trkpt>
      <trkpt lat="49.27423" lon="-0.11226">
        <ele>6</ele>
        <time>2023-10-11T12:07:25Z</time>
      </trkpt>
      <trkpt lat="49.27423" lon="-0.11216">
        <ele>6</ele>
        <time>2023-10-11T12:07:26Z</time>
      </trkpt>
      <trkpt lat="49.27424" lon="-0.11206">
        <ele>6.1</ele>
        <time>2023-10-11T12:07:27Z</time>
      </trkpt>
      <trkpt lat="49.27424" lon="-0.11197">
        <ele>6.1</ele>
        <time>2023-10-11T12:07:28Z</time>
      </trkpt>
      <trkpt lat="49.27424" lon="-0.11187">
        <ele>6.1</ele>
        <time>2023-10-11T12:07:29Z</time>
      </trkpt>
      <trkpt lat="49.27424" lon="-0.11178">
        <ele>6.2</ele>
        <time>2023-10-11T12:07:30Z</time>
      </trkpt>
      <trkpt lat="49.27425" lon="-0.11168">
        <ele>6.2</ele>
        <time>2023-10-11T12:07:31Z</time>
      </trkpt>
      <trkpt lat="49.27425" lon="-0.11159">
        <ele>6.2</ele>
        <time>2023-10-11T12:07:32Z</time>
      </trkpt>
      <trkpt lat="49.27425" lon="-0.1115">
        <ele>6.3</ele>
        <time>2023-10-11T12:07:33Z</time>
      </trkpt>
      <trkpt lat="49.27426" lon="-0.1114">
        <ele>6.3</ele>
        <time>2023-10-11T12:07:34Z</time>
      </trkpt>
      <trkpt lat="49.27426" lon="-0.11131">
        <ele>6.4</ele>
        <time>2023-10-11T12:07:35Z</time>
      </trkpt>
      <trkpt lat="49.27426" lon="-0.11121">
        <ele>6.4</ele>
        <time>2023-10-11T12:07:36Z</time>
      </trkpt>
      <trkpt lat="49.27426" lon="-0.11112">
        <ele>6.4</ele>
        <time>2023-10-11T12:07:37Z</time>
      </trkpt>
      <trkpt lat="49.27426" lon="-0.11102">
        <ele>6.4</ele>
        <time>2023-10-11T12:07:38Z</time>
      </trkpt>
      <trkpt lat="49.27427" lon="-0.11093">
        <ele>6.4</ele>
        <time>2023-10-11T12:07:39Z</time>
      </trkpt>
      <trkpt lat="49.27427" lon="-0.11083">
        <ele>6.4</ele>
        <time>2023-10-11T12:07:40Z</time>
      </trkpt>
      <trkpt lat="49.27427" lon="-0.11073">
        <ele>6.4</ele>
        <time>2023-10-11T12:07:41Z</time>
      </trkpt>
      <trkpt lat="49.27427" lon="-0.11063">
        <ele>6.4</ele>
        <time>2023-10-11T12:07:42Z</time>
      </trkpt>
      <trkpt lat="49.27427" lon="-0.11053">
        <ele>6.3</ele>
        <time>2023-10-11T12:07:43Z</time>
      </trkpt>
      <trkpt lat="49.27427" lon="-0.11043">
        <ele>6.3</ele>
        <time>2023-10-11T12:07:44Z</time>
      </trkpt>
      <trkpt lat="49.27427" lon="-0.11033">
        <ele>6.3</ele>
        <time>2023-10-11T12:07:45Z</time>
      </trkpt>
      <trkpt lat="49.27427" lon="-0.11023">
        <ele>6.3</ele>
        <time>2023-10-11T12:07:46Z</time>
      </trkpt>
      <trkpt lat="49.27428" lon="-0.11012">
        <ele>6.3</ele>
        <time>2023-10-11T12:07:47Z</time>
      </trkpt>
      <trkpt lat="49.27428" lon="-0.11002">
        <ele>6.3</ele>
        <time>2023-10-11T12:07:48Z</time>
      </trkpt>
      <trkpt lat="49.27428" lon="-0.10992">
        <ele>6.3</ele>
        <time>2023-10-11T12:07:49Z</time>
      </trkpt>
      <trkpt lat="49.27429" lon="-0.10982">
        <ele>6.3</ele>
        <time>2023-10-11T12:07:50Z</time>
      </trkpt>
      <trkpt lat="49.27429" lon="-0.10972">
        <ele>6.3</ele>
        <time>2023-10-11T12:07:51Z</time>
      </trkpt>
      <trkpt lat="49.27429" lon="-0.10962">
        <ele>6.2</ele>
        <time>2023-10-11T12:07:52Z</time>
      </trkpt>
      <trkpt lat="49.27429" lon="-0.10952">
        <ele>6.2</ele>
        <time>2023-10-11T12:07:53Z</time>
      </trkpt>
      <trkpt lat="49.27429" lon="-0.10942">
        <ele>6.2</ele>
        <time>2023-10-11T12:07:54Z</time>
      </trkpt>
      <trkpt lat="49.27429" lon="-0.10932">
        <ele>6.2</ele>
        <time>2023-10-11T12:07:55Z</time>
      </trkpt>
      <trkpt lat="49.27429" lon="-0.10921">
        <ele>6.2</ele>
        <time>2023-10-11T12:07:56Z</time>
      </trkpt>
      <trkpt lat="49.27429" lon="-0.10912">
        <ele>6.2</ele>
        <time>2023-10-11T12:07:57Z</time>
      </trkpt>
      <trkpt lat="49.27429" lon="-0.10902">
        <ele>6.1</ele>
        <time>2023-10-11T12:07:58Z</time>
      </trkpt>
      <trkpt lat="49.27429" lon="-0.10892">
        <ele>6.1</ele>
        <time>2023-10-11T12:07:59Z</time>
      </trkpt>
      <trkpt lat="49.27428" lon="-0.10882">
        <ele>6</ele>
        <time>2023-10-11T12:08:00Z</time>
      </trkpt>
      <trkpt lat="49.27427" lon="-0.10872">
        <ele>6</ele>
        <time>2023-10-11T12:08:01Z</time>
      </trkpt>
      <trkpt lat="49.27426" lon="-0.10862">
        <ele>5.9</ele>
        <time>2023-10-11T12:08:02Z</time>
      </trkpt>
      <trkpt lat="49.27425" lon="-0.10852">
        <ele>5.9</ele>
        <time>2023-10-11T12:08:03Z</time>
      </trkpt>
      <trkpt lat="49.27425" lon="-0.10842">
        <ele>5.9</ele>
        <time>2023-10-11T12:08:04Z</time>
      </trkpt>
      <trkpt lat="49.27423" lon="-0.10832">
        <ele>5.9</ele>
        <time>2023-10-11T12:08:05Z</time>
      </trkpt>
      <trkpt lat="49.27422" lon="-0.10822">
        <ele>5.8</ele>
        <time>2023-10-11T12:08:06Z</time>
      </trkpt>
      <trkpt lat="49.27421" lon="-0.10813">
        <ele>5.8</ele>
        <time>2023-10-11T12:08:07Z</time>
      </trkpt>
      <trkpt lat="49.27419" lon="-0.10803">
        <ele>5.8</ele>
        <time>2023-10-11T12:08:08Z</time>
      </trkpt>
      <trkpt lat="49.27417" lon="-0.10793">
        <ele>5.8</ele>
        <time>2023-10-11T12:08:09Z</time>
      </trkpt>
      <trkpt lat="49.27416" lon="-0.10783">
        <ele>5.7</ele>
        <time>2023-10-11T12:08:10Z</time>
      </trkpt>
      <trkpt lat="49.27414" lon="-0.10773">
        <ele>5.7</ele>
        <time>2023-10-11T12:08:11Z</time>
      </trkpt>
      <trkpt lat="49.27413" lon="-0.10764">
        <ele>5.6</ele>
        <time>2023-10-11T12:08:12Z</time>
      </trkpt>
      <trkpt lat="49.27411" lon="-0.10754">
        <ele>5.6</ele>
        <time>2023-10-11T12:08:13Z</time>
      </trkpt>
      <trkpt lat="49.27408" lon="-0.10744">
        <ele>5.5</ele>
        <time>2023-10-11T12:08:14Z</time>
      </trkpt>
      <trkpt lat="49.27406" lon="-0.10735">
        <ele>5.5</ele>
        <time>2023-10-11T12:08:15Z</time>
      </trkpt>
      <trkpt lat="49.27404" lon="-0.10725">
        <ele>5.5</ele>
        <time>2023-10-11T12:08:16Z</time>
      </trkpt>
      <trkpt lat="49.27401" lon="-0.10716">
        <ele>5.5</ele>
        <time>2023-10-11T12:08:17Z</time>
      </trkpt>
      <trkpt lat="49.27399" lon="-0.10706">
        <ele>5.4</ele>
        <time>2023-10-11T12:08:18Z</time>
      </trkpt>
      <trkpt lat="49.27396" lon="-0.10697">
        <ele>5.4</ele>
        <time>2023-10-11T12:08:19Z</time>
      </trkpt>
      <trkpt lat="49.27394" lon="-0.10688">
        <ele>5.4</ele>
        <time>2023-10-11T12:08:20Z</time>
      </trkpt>
      <trkpt lat="49.27391" lon="-0.10678">
        <ele>5.4</ele>
        <time>2023-10-11T12:08:21Z</time>
      </trkpt>
      <trkpt lat="49.27388" lon="-0.10669">
        <ele>5.4</ele>
        <time>2023-10-11T12:08:22Z</time>
      </trkpt>
      <trkpt lat="49.27385" lon="-0.1066">
        <ele>5.3</ele>
        <time>2023-10-11T12:08:23Z</time>
      </trkpt>
      <trkpt lat="49.27381" lon="-0.10651">
        <ele>5.3</ele>
        <time>2023-10-11T12:08:24Z</time>
      </trkpt>
      <trkpt lat="49.27378" lon="-0.10642">
        <ele>5.3</ele>
        <time>2023-10-11T12:08:25Z</time>
      </trkpt>
      <trkpt lat="49.27375" lon="-0.10633">
        <ele>5.3</ele>
        <time>2023-10-11T12:08:26Z</time>
      </trkpt>
      <trkpt lat="49.27372" lon="-0.10624">
        <ele>5.2</ele>
        <time>2023-10-11T12:08:27Z</time>
      </trkpt>
      <trkpt lat="49.27368" lon="-0.10615">
        <ele>5.2</ele>
        <time>2023-10-11T12:08:28Z</time>
      </trkpt>
      <trkpt lat="49.27365" lon="-0.10607">
        <ele>5.2</ele>
        <time>2023-10-11T12:08:29Z</time>
      </trkpt>
      <trkpt lat="49.27361" lon="-0.10598">
        <ele>5.2</ele>
        <time>2023-10-11T12:08:30Z</time>
      </trkpt>
      <trkpt lat="49.27357" lon="-0.1059">
        <ele>5.1</ele>
        <time>2023-10-11T12:08:31Z</time>
      </trkpt>
      <trkpt lat="49.27354" lon="-0.10581">
        <ele>5.1</ele>
        <time>2023-10-11T12:08:32Z</time>
      </trkpt>
      <trkpt lat="49.2735" lon="-0.10573">
        <ele>5</ele>
        <time>2023-10-11T12:08:33Z</time>
      </trkpt>
      <trkpt lat="49.27346" lon="-0.10565">
        <ele>5</ele>
        <time>2023-10-11T12:08:34Z</time>
      </trkpt>
      <trkpt lat="49.27342" lon="-0.10557">
        <ele>5</ele>
        <time>2023-10-11T12:08:35Z</time>
      </trkpt>
      <trkpt lat="49.27338" lon="-0.10548">
        <ele>5</ele>
        <time>2023-10-11T12:08:36Z</time>
      </trkpt>
      <trkpt lat="49.27333" lon="-0.1054">
        <ele>5</ele>
        <time>2023-10-11T12:08:37Z</time>
      </trkpt>
      <trkpt lat="49.27329" lon="-0.10533">
        <ele>5</ele>
        <time>2023-10-11T12:08:38Z</time>
      </trkpt>
      <trkpt lat="49.27324" lon="-0.10525">
        <ele>5</ele>
        <time>2023-10-11T12:08:39Z</time>
      </trkpt>
      <trkpt lat="49.2732" lon="-0.10517">
        <ele>4.9</ele>
        <time>2023-10-11T12:08:40Z</time>
      </trkpt>
      <trkpt lat="49.27315" lon="-0.1051">
        <ele>4.9</ele>
        <time>2023-10-11T12:08:41Z</time>
      </trkpt>
      <trkpt lat="49.2731" lon="-0.10503">
        <ele>4.9</ele>
        <time>2023-10-11T12:08:42Z</time>
      </trkpt>
      <trkpt lat="49.27305" lon="-0.10496">
        <ele>4.9</ele>
        <time>2023-10-11T12:08:43Z</time>
      </trkpt>
      <trkpt lat="49.27299" lon="-0.1049">
        <ele>4.8</ele>
        <time>2023-10-11T12:08:44Z</time>
      </trkpt>
      <trkpt lat="49.27294" lon="-0.10483">
        <ele>4.8</ele>
        <time>2023-10-11T12:08:45Z</time>
      </trkpt>
      <trkpt lat="49.27289" lon="-0.10476">
        <ele>4.7</ele>
        <time>2023-10-11T12:08:46Z</time>
      </trkpt>
      <trkpt lat="49.27284" lon="-0.1047">
        <ele>4.7</ele>
        <time>2023-10-11T12:08:47Z</time>
      </trkpt>
      <trkpt lat="49.27278" lon="-0.10463">
        <ele>4.7</ele>
        <time>2023-10-11T12:08:48Z</time>
      </trkpt>
      <trkpt lat="49.27273" lon="-0.10457">
        <ele>4.7</ele>
        <time>2023-10-11T12:08:49Z</time>
      </trkpt>
      <trkpt lat="49.27267" lon="-0.10451">
        <ele>4.7</ele>
        <time>2023-10-11T12:08:50Z</time>
      </trkpt>
      <trkpt lat="49.27262" lon="-0.10445">
        <ele>4.6</ele>
        <time>2023-10-11T12:08:51Z</time>
      </trkpt>
      <trkpt lat="49.27256" lon="-0.1044">
        <ele>4.6</ele>
        <time>2023-10-11T12:08:52Z</time>
      </trkpt>
      <trkpt lat="49.2725" lon="-0.10434">
        <ele>4.6</ele>
        <time>2023-10-11T12:08:53Z</time>
      </trkpt>
      <trkpt lat="49.27244" lon="-0.10429">
        <ele>4.6</ele>
        <time>2023-10-11T12:08:54Z</time>
      </trkpt>
      <trkpt lat="49.27238" lon="-0.10424">
        <ele>4.6</ele>
        <time>2023-10-11T12:08:55Z</time>
      </trkpt>
      <trkpt lat="49.27232" lon="-0.10419">
        <ele>4.6</ele>
        <time>2023-10-11T12:08:56Z</time>
      </trkpt>
      <trkpt lat="49.27226" lon="-0.10414">
        <ele>4.6</ele>
        <time>2023-10-11T12:08:57Z</time>
      </trkpt>
      <trkpt lat="49.2722" lon="-0.10408">
        <ele>4.6</ele>
        <time>2023-10-11T12:08:58Z</time>
      </trkpt>
      <trkpt lat="49.27214" lon="-0.10404">
        <ele>4.6</ele>
        <time>2023-10-11T12:08:59Z</time>
      </trkpt>
      <trkpt lat="49.27208" lon="-0.10399">
        <ele>4.6</ele>
        <time>2023-10-11T12:09:00Z</time>
      </trkpt>
      <trkpt lat="49.27202" lon="-0.10395">
        <ele>4.7</ele>
        <time>2023-10-11T12:09:01Z</time>
      </trkpt>
      <trkpt lat="49.27196" lon="-0.10391">
        <ele>4.7</ele>
        <time>2023-10-11T12:09:02Z</time>
      </trkpt>
      <trkpt lat="49.2719" lon="-0.10387">
        <ele>4.7</ele>
        <time>2023-10-11T12:09:03Z</time>
      </trkpt>
      <trkpt lat="49.27184" lon="-0.10383">
        <ele>4.7</ele>
        <time>2023-10-11T12:09:04Z</time>
      </trkpt>
      <trkpt lat="49.27178" lon="-0.10379">
        <ele>4.7</ele>
        <time>2023-10-11T12:09:05Z</time>
      </trkpt>
      <trkpt lat="49.27172" lon="-0.10376">
        <ele>4.7</ele>
        <time>2023-10-11T12:09:06Z</time>
      </trkpt>
      <trkpt lat="49.27166" lon="-0.10372">
        <ele>4.7</ele>
        <time>2023-10-11T12:09:07Z</time>
      </trkpt>
      <trkpt lat="49.2716" lon="-0.10369">
        <ele>4.8</ele>
        <time>2023-10-11T12:09:08Z</time>
      </trkpt>
      <trkpt lat="49.27154" lon="-0.10366">
        <ele>4.8</ele>
        <time>2023-10-11T12:09:09Z</time>
      </trkpt>
      <trkpt lat="49.27147" lon="-0.10362">
        <ele>4.8</ele>
        <time>2023-10-11T12:09:10Z</time>
      </trkpt>
      <trkpt lat="49.27141" lon="-0.10359">
        <ele>4.8</ele>
        <time>2023-10-11T12:09:11Z</time>
      </trkpt>
      <trkpt lat="49.27134" lon="-0.10356">
        <ele>4.8</ele>
        <time>2023-10-11T12:09:12Z</time>
      </trkpt>
      <trkpt lat="49.27128" lon="-0.10354">
        <ele>4.9</ele>
        <time>2023-10-11T12:09:13Z</time>
      </trkpt>
      <trkpt lat="49.27121" lon="-0.10352">
        <ele>4.9</ele>
        <time>2023-10-11T12:09:14Z</time>
      </trkpt>
      <trkpt lat="49.27115" lon="-0.1035">
        <ele>4.9</ele>
        <time>2023-10-11T12:09:15Z</time>
      </trkpt>
      <trkpt lat="49.27108" lon="-0.10348">
        <ele>5</ele>
        <time>2023-10-11T12:09:16Z</time>
      </trkpt>
      <trkpt lat="49.27102" lon="-0.10346">
        <ele>5</ele>
        <time>2023-10-11T12:09:17Z</time>
      </trkpt>
      <trkpt lat="49.27096" lon="-0.10343">
        <ele>5.1</ele>
        <time>2023-10-11T12:09:18Z</time>
      </trkpt>
      <trkpt lat="49.27089" lon="-0.10342">
        <ele>5.2</ele>
        <time>2023-10-11T12:09:19Z</time>
      </trkpt>
      <trkpt lat="49.27083" lon="-0.1034">
        <ele>5.3</ele>
        <time>2023-10-11T12:09:20Z</time>
      </trkpt>
      <trkpt lat="49.27077" lon="-0.10339">
        <ele>5.4</ele>
        <time>2023-10-11T12:09:21Z</time>
      </trkpt>
      <trkpt lat="49.27071" lon="-0.10338">
        <ele>5.6</ele>
        <time>2023-10-11T12:09:22Z</time>
      </trkpt>
      <trkpt lat="49.27064" lon="-0.10337">
        <ele>5.7</ele>
        <time>2023-10-11T12:09:23Z</time>
      </trkpt>
      <trkpt lat="49.27058" lon="-0.10336">
        <ele>5.8</ele>
        <time>2023-10-11T12:09:24Z</time>
      </trkpt>
      <trkpt lat="49.27052" lon="-0.10335">
        <ele>5.9</ele>
        <time>2023-10-11T12:09:25Z</time>
      </trkpt>
      <trkpt lat="49.27046" lon="-0.10334">
        <ele>6</ele>
        <time>2023-10-11T12:09:26Z</time>
      </trkpt>
      <trkpt lat="49.27039" lon="-0.10333">
        <ele>6.1</ele>
        <time>2023-10-11T12:09:27Z</time>
      </trkpt>
      <trkpt lat="49.27033" lon="-0.10333">
        <ele>6.2</ele>
        <time>2023-10-11T12:09:28Z</time>
      </trkpt>
      <trkpt lat="49.27027" lon="-0.10333">
        <ele>6.3</ele>
        <time>2023-10-11T12:09:29Z</time>
      </trkpt>
      <trkpt lat="49.2702" lon="-0.10333">
        <ele>6.4</ele>
        <time>2023-10-11T12:09:30Z</time>
      </trkpt>
      <trkpt lat="49.27014" lon="-0.10333">
        <ele>6.5</ele>
        <time>2023-10-11T12:09:31Z</time>
      </trkpt>
      <trkpt lat="49.27007" lon="-0.10333">
        <ele>6.5</ele>
        <time>2023-10-11T12:09:32Z</time>
      </trkpt>
      <trkpt lat="49.27001" lon="-0.10333">
        <ele>6.6</ele>
        <time>2023-10-11T12:09:33Z</time>
      </trkpt>
      <trkpt lat="49.26994" lon="-0.10334">
        <ele>6.7</ele>
        <time>2023-10-11T12:09:34Z</time>
      </trkpt>
      <trkpt lat="49.26988" lon="-0.10334">
        <ele>6.7</ele>
        <time>2023-10-11T12:09:35Z</time>
      </trkpt>
      <trkpt lat="49.26981" lon="-0.10335">
        <ele>6.8</ele>
        <time>2023-10-11T12:09:36Z</time>
      </trkpt>
      <trkpt lat="49.26974" lon="-0.10337">
        <ele>6.8</ele>
        <time>2023-10-11T12:09:37Z</time>
      </trkpt>
      <trkpt lat="49.26968" lon="-0.10338">
        <ele>6.9</ele>
        <time>2023-10-11T12:09:38Z</time>
      </trkpt>
      <trkpt lat="49.26961" lon="-0.10339">
        <ele>6.9</ele>
        <time>2023-10-11T12:09:39Z</time>
      </trkpt>
      <trkpt lat="49.26954" lon="-0.10341">
        <ele>6.9</ele>
        <time>2023-10-11T12:09:40Z</time>
      </trkpt>
      <trkpt lat="49.26947" lon="-0.10342">
        <ele>6.9</ele>
        <time>2023-10-11T12:09:41Z</time>
      </trkpt>
      <trkpt lat="49.26941" lon="-0.10344">
        <ele>6.9</ele>
        <time>2023-10-11T12:09:42Z</time>
      </trkpt>
      <trkpt lat="49.26934" lon="-0.10345">
        <ele>6.9</ele>
        <time>2023-10-11T12:09:43Z</time>
      </trkpt>
      <trkpt lat="49.26928" lon="-0.10347">
        <ele>6.9</ele>
        <time>2023-10-11T12:09:44Z</time>
      </trkpt>
      <trkpt lat="49.26921" lon="-0.10348">
        <ele>7</ele>
        <time>2023-10-11T12:09:45Z</time>
      </trkpt>
      <trkpt lat="49.26914" lon="-0.10349">
        <ele>7</ele>
        <time>2023-10-11T12:09:46Z</time>
      </trkpt>
      <trkpt lat="49.26907" lon="-0.10351">
        <ele>7</ele>
        <time>2023-10-11T12:09:47Z</time>
      </trkpt>
      <trkpt lat="49.26901" lon="-0.10353">
        <ele>6.9</ele>
        <time>2023-10-11T12:09:48Z</time>
      </trkpt>
      <trkpt lat="49.26894" lon="-0.10356">
        <ele>6.9</ele>
        <time>2023-10-11T12:09:49Z</time>
      </trkpt>
      <trkpt lat="49.26887" lon="-0.10358">
        <ele>6.9</ele>
        <time>2023-10-11T12:09:50Z</time>
      </trkpt>
      <trkpt lat="49.2688" lon="-0.1036">
        <ele>6.8</ele>
        <time>2023-10-11T12:09:51Z</time>
      </trkpt>
      <trkpt lat="49.26874" lon="-0.10362">
        <ele>6.8</ele>
        <time>2023-10-11T12:09:52Z</time>
      </trkpt>
      <trkpt lat="49.26867" lon="-0.10364">
        <ele>6.8</ele>
        <time>2023-10-11T12:09:53Z</time>
      </trkpt>
      <trkpt lat="49.26861" lon="-0.10366">
        <ele>6.7</ele>
        <time>2023-10-11T12:09:54Z</time>
      </trkpt>
      <trkpt lat="49.26854" lon="-0.10368">
        <ele>6.7</ele>
        <time>2023-10-11T12:09:55Z</time>
      </trkpt>
      <trkpt lat="49.26847" lon="-0.10371">
        <ele>6.7</ele>
        <time>2023-10-11T12:09:56Z</time>
      </trkpt>
      <trkpt lat="49.26841" lon="-0.10373">
        <ele>6.6</ele>
        <time>2023-10-11T12:09:57Z</time>
      </trkpt>
      <trkpt lat="49.26834" lon="-0.10376">
        <ele>6.6</ele>
        <time>2023-10-11T12:09:58Z</time>
      </trkpt>
      <trkpt lat="49.26828" lon="-0.10378">
        <ele>6.6</ele>
        <time>2023-10-11T12:09:59Z</time>
      </trkpt>
      <trkpt lat="49.26821" lon="-0.10381">
        <ele>6.6</ele>
        <time>2023-10-11T12:10:00Z</time>
      </trkpt>
      <trkpt lat="49.26814" lon="-0.10383">
        <ele>6.5</ele>
        <time>2023-10-11T12:10:01Z</time>
      </trkpt>
      <trkpt lat="49.26808" lon="-0.10385">
        <ele>6.5</ele>
        <time>2023-10-11T12:10:02Z</time>
      </trkpt>
      <trkpt lat="49.26801" lon="-0.10387">
        <ele>6.5</ele>
        <time>2023-10-11T12:10:03Z</time>
      </trkpt>
      <trkpt lat="49.26795" lon="-0.1039">
        <ele>6.6</ele>
        <time>2023-10-11T12:10:04Z</time>
      </trkpt>
      <trkpt lat="49.26788" lon="-0.10392">
        <ele>6.6</ele>
        <time>2023-10-11T12:10:05Z</time>
      </trkpt>
      <trkpt lat="49.26781" lon="-0.10394">
        <ele>6.6</ele>
        <time>2023-10-11T12:10:06Z</time>
      </trkpt>
      <trkpt lat="49.26775" lon="-0.10397">
        <ele>6.5</ele>
        <time>2023-10-11T12:10:07Z</time>
      </trkpt>
      <trkpt lat="49.26768" lon="-0.10399">
        <ele>6.5</ele>
        <time>2023-10-11T12:10:08Z</time>
      </trkpt>
      <trkpt lat="49.26762" lon="-0.10401">
        <ele>6.4</ele>
        <time>2023-10-11T12:10:09Z</time>
      </trkpt>
      <trkpt lat="49.26755" lon="-0.10404">
        <ele>6.4</ele>
        <time>2023-10-11T12:10:10Z</time>
      </trkpt>
      <trkpt lat="49.26749" lon="-0.10406">
        <ele>6.3</ele>
        <time>2023-10-11T12:10:11Z</time>
      </trkpt>
      <trkpt lat="49.26742" lon="-0.10409">
        <ele>6.3</ele>
        <time>2023-10-11T12:10:12Z</time>
      </trkpt>
      <trkpt lat="49.26735" lon="-0.10411">
        <ele>6.2</ele>
        <time>2023-10-11T12:10:13Z</time>
      </trkpt>
      <trkpt lat="49.26729" lon="-0.10413">
        <ele>6.2</ele>
        <time>2023-10-11T12:10:14Z</time>
      </trkpt>
      <trkpt lat="49.26722" lon="-0.10415">
        <ele>6.1</ele>
        <time>2023-10-11T12:10:15Z</time>
      </trkpt>
      <trkpt lat="49.26715" lon="-0.10418">
        <ele>6.1</ele>
        <time>2023-10-11T12:10:16Z</time>
      </trkpt>
      <trkpt lat="49.26708" lon="-0.1042">
        <ele>6</ele>
        <time>2023-10-11T12:10:17Z</time>
      </trkpt>
      <trkpt lat="49.26702" lon="-0.10422">
        <ele>6</ele>
        <time>2023-10-11T12:10:18Z</time>
      </trkpt>
      <trkpt lat="49.26695" lon="-0.10425">
        <ele>6</ele>
        <time>2023-10-11T12:10:19Z</time>
      </trkpt>
      <trkpt lat="49.26688" lon="-0.10427">
        <ele>5.9</ele>
        <time>2023-10-11T12:10:20Z</time>
      </trkpt>
      <trkpt lat="49.26681" lon="-0.10429">
        <ele>5.9</ele>
        <time>2023-10-11T12:10:21Z</time>
      </trkpt>
      <trkpt lat="49.26674" lon="-0.10431">
        <ele>5.9</ele>
        <time>2023-10-11T12:10:22Z</time>
      </trkpt>
      <trkpt lat="49.26667" lon="-0.10433">
        <ele>5.9</ele>
        <time>2023-10-11T12:10:23Z</time>
      </trkpt>
      <trkpt lat="49.2666" lon="-0.10435">
        <ele>5.9</ele>
        <time>2023-10-11T12:10:24Z</time>
      </trkpt>
      <trkpt lat="49.26653" lon="-0.10437">
        <ele>5.8</ele>
        <time>2023-10-11T12:10:25Z</time>
      </trkpt>
      <trkpt lat="49.26646" lon="-0.1044">
        <ele>5.8</ele>
        <time>2023-10-11T12:10:26Z</time>
      </trkpt>
      <trkpt lat="49.26639" lon="-0.10442">
        <ele>5.7</ele>
        <time>2023-10-11T12:10:27Z</time>
      </trkpt>
      <trkpt lat="49.26632" lon="-0.10444">
        <ele>5.7</ele>
        <time>2023-10-11T12:10:28Z</time>
      </trkpt>
      <trkpt lat="49.26625" lon="-0.10446">
        <ele>5.6</ele>
        <time>2023-10-11T12:10:29Z</time>
      </trkpt>
      <trkpt lat="49.26618" lon="-0.10447">
        <ele>5.6</ele>
        <time>2023-10-11T12:10:30Z</time>
      </trkpt>
      <trkpt lat="49.26611" lon="-0.10449">
        <ele>5.6</ele>
        <time>2023-10-11T12:10:31Z</time>
      </trkpt>
      <trkpt lat="49.26605" lon="-0.10451">
        <ele>5.6</ele>
        <time>2023-10-11T12:10:32Z</time>
      </trkpt>
      <trkpt lat="49.26598" lon="-0.10452">
        <ele>5.5</ele>
        <time>2023-10-11T12:10:33Z</time>
      </trkpt>
      <trkpt lat="49.26591" lon="-0.10453">
        <ele>5.5</ele>
        <time>2023-10-11T12:10:34Z</time>
      </trkpt>
      <trkpt lat="49.26584" lon="-0.10454">
        <ele>5.5</ele>
        <time>2023-10-11T12:10:35Z</time>
      </trkpt>
      <trkpt lat="49.26577" lon="-0.10455">
        <ele>5.4</ele>
        <time>2023-10-11T12:10:36Z</time>
      </trkpt>
      <trkpt lat="49.2657" lon="-0.10456">
        <ele>5.4</ele>
        <time>2023-10-11T12:10:37Z</time>
      </trkpt>
      <trkpt lat="49.26563" lon="-0.10457">
        <ele>5.3</ele>
        <time>2023-10-11T12:10:38Z</time>
      </trkpt>
      <trkpt lat="49.26555" lon="-0.10457">
        <ele>5.3</ele>
        <time>2023-10-11T12:10:39Z</time>
      </trkpt>
      <trkpt lat="49.26548" lon="-0.10458">
        <ele>5.3</ele>
        <time>2023-10-11T12:10:40Z</time>
      </trkpt>
      <trkpt lat="49.26541" lon="-0.10459">
        <ele>5.4</ele>
        <time>2023-10-11T12:10:41Z</time>
      </trkpt>
      <trkpt lat="49.26534" lon="-0.10459">
        <ele>5.4</ele>
        <time>2023-10-11T12:10:42Z</time>
      </trkpt>
      <trkpt lat="49.26527" lon="-0.1046">
        <ele>5.4</ele>
        <time>2023-10-11T12:10:43Z</time>
      </trkpt>
      <trkpt lat="49.2652" lon="-0.10461">
        <ele>5.4</ele>
        <time>2023-10-11T12:10:44Z</time>
      </trkpt>
      <trkpt lat="49.26513" lon="-0.10462">
        <ele>5.4</ele>
        <time>2023-10-11T12:10:45Z</time>
      </trkpt>
      <trkpt lat="49.26506" lon="-0.10462">
        <ele>5.4</ele>
        <time>2023-10-11T12:10:46Z</time>
      </trkpt>
      <trkpt lat="49.26499" lon="-0.10463">
        <ele>5.5</ele>
        <time>2023-10-11T12:10:47Z</time>
      </trkpt>
      <trkpt lat="49.26493" lon="-0.10464">
        <ele>5.5</ele>
        <time>2023-10-11T12:10:48Z</time>
      </trkpt>
      <trkpt lat="49.26486" lon="-0.10464">
        <ele>5.5</ele>
        <time>2023-10-11T12:10:49Z</time>
      </trkpt>
      <trkpt lat="49.26479" lon="-0.10464">
        <ele>5.6</ele>
        <time>2023-10-11T12:10:50Z</time>
      </trkpt>
      <trkpt lat="49.26472" lon="-0.10464">
        <ele>5.6</ele>
        <time>2023-10-11T12:10:51Z</time>
      </trkpt>
      <trkpt lat="49.26465" lon="-0.10464">
        <ele>5.7</ele>
        <time>2023-10-11T12:10:52Z</time>
      </trkpt>
      <trkpt lat="49.26458" lon="-0.10463">
        <ele>5.7</ele>
        <time>2023-10-11T12:10:53Z</time>
      </trkpt>
      <trkpt lat="49.26451" lon="-0.10463">
        <ele>5.7</ele>
        <time>2023-10-11T12:10:54Z</time>
      </trkpt>
      <trkpt lat="49.26444" lon="-0.10463">
        <ele>5.8</ele>
        <time>2023-10-11T12:10:55Z</time>
      </trkpt>
      <trkpt lat="49.26437" lon="-0.10463">
        <ele>5.8</ele>
        <time>2023-10-11T12:10:56Z</time>
      </trkpt>
      <trkpt lat="49.2643" lon="-0.10462">
        <ele>5.8</ele>
        <time>2023-10-11T12:10:57Z</time>
      </trkpt>
      <trkpt lat="49.26423" lon="-0.10461">
        <ele>5.9</ele>
        <time>2023-10-11T12:10:58Z</time>
      </trkpt>
      <trkpt lat="49.26416" lon="-0.1046">
        <ele>5.9</ele>
        <time>2023-10-11T12:10:59Z</time>
      </trkpt>
      <trkpt lat="49.26409" lon="-0.10459">
        <ele>5.9</ele>
        <time>2023-10-11T12:11:00Z</time>
      </trkpt>
      <trkpt lat="49.26403" lon="-0.10458">
        <ele>5.9</ele>
        <time>2023-10-11T12:11:01Z</time>
      </trkpt>
      <trkpt lat="49.26396" lon="-0.10458">
        <ele>6</ele>
        <time>2023-10-11T12:11:02Z</time>
      </trkpt>
      <trkpt lat="49.26389" lon="-0.10457">
        <ele>6</ele>
        <time>2023-10-11T12:11:03Z</time>
      </trkpt>
      <trkpt lat="49.26382" lon="-0.10457">
        <ele>6</ele>
        <time>2023-10-11T12:11:04Z</time>
      </trkpt>
      <trkpt lat="49.26375" lon="-0.10456">
        <ele>6</ele>
        <time>2023-10-11T12:11:05Z</time>
      </trkpt>
      <trkpt lat="49.26368" lon="-0.10455">
        <ele>6</ele>
        <time>2023-10-11T12:11:06Z</time>
      </trkpt>
      <trkpt lat="49.2636" lon="-0.10454">
        <ele>6</ele>
        <time>2023-10-11T12:11:07Z</time>
      </trkpt>
      <trkpt lat="49.26353" lon="-0.10454">
        <ele>6.1</ele>
        <time>2023-10-11T12:11:08Z</time>
      </trkpt>
      <trkpt lat="49.26347" lon="-0.10453">
        <ele>6.1</ele>
        <time>2023-10-11T12:11:09Z</time>
      </trkpt>
      <trkpt lat="49.26339" lon="-0.10452">
        <ele>6.1</ele>
        <time>2023-10-11T12:11:10Z</time>
      </trkpt>
      <trkpt lat="49.26332" lon="-0.10452">
        <ele>6.1</ele>
        <time>2023-10-11T12:11:11Z</time>
      </trkpt>
      <trkpt lat="49.26326" lon="-0.10451">
        <ele>6.1</ele>
        <time>2023-10-11T12:11:12Z</time>
      </trkpt>
      <trkpt lat="49.26319" lon="-0.10451">
        <ele>6.2</ele>
        <time>2023-10-11T12:11:13Z</time>
      </trkpt>
      <trkpt lat="49.26312" lon="-0.1045">
        <ele>6.2</ele>
        <time>2023-10-11T12:11:14Z</time>
      </trkpt>
      <trkpt lat="49.26305" lon="-0.10449">
        <ele>6.2</ele>
        <time>2023-10-11T12:11:15Z</time>
      </trkpt>
      <trkpt lat="49.26299" lon="-0.10448">
        <ele>6.2</ele>
        <time>2023-10-11T12:11:16Z</time>
      </trkpt>
      <trkpt lat="49.26292" lon="-0.10447">
        <ele>6.2</ele>
        <time>2023-10-11T12:11:17Z</time>
      </trkpt>
      <trkpt lat="49.26285" lon="-0.10446">
        <ele>6.3</ele>
        <time>2023-10-11T12:11:18Z</time>
      </trkpt>
      <trkpt lat="49.26278" lon="-0.10446">
        <ele>6.3</ele>
        <time>2023-10-11T12:11:19Z</time>
      </trkpt>
      <trkpt lat="49.26272" lon="-0.10445">
        <ele>6.3</ele>
        <time>2023-10-11T12:11:20Z</time>
      </trkpt>
      <trkpt lat="49.26265" lon="-0.10444">
        <ele>6.3</ele>
        <time>2023-10-11T12:11:21Z</time>
      </trkpt>
      <trkpt lat="49.26259" lon="-0.10443">
        <ele>6.4</ele>
        <time>2023-10-11T12:11:22Z</time>
      </trkpt>
      <trkpt lat="49.26252" lon="-0.10443">
        <ele>6.4</ele>
        <time>2023-10-11T12:11:23Z</time>
      </trkpt>
      <trkpt lat="49.26245" lon="-0.10442">
        <ele>6.4</ele>
        <time>2023-10-11T12:11:24Z</time>
      </trkpt>
      <trkpt lat="49.26238" lon="-0.10441">
        <ele>6.4</ele>
        <time>2023-10-11T12:11:25Z</time>
      </trkpt>
      <trkpt lat="49.26232" lon="-0.1044">
        <ele>6.4</ele>
        <time>2023-10-11T12:11:26Z</time>
      </trkpt>
      <trkpt lat="49.26225" lon="-0.1044">
        <ele>6.4</ele>
        <time>2023-10-11T12:11:27Z</time>
      </trkpt>
      <trkpt lat="49.26218" lon="-0.10439">
        <ele>6.4</ele>
        <time>2023-10-11T12:11:28Z</time>
      </trkpt>
      <trkpt lat="49.26211" lon="-0.10439">
        <ele>6.4</ele>
        <time>2023-10-11T12:11:29Z</time>
      </trkpt>
      <trkpt lat="49.26205" lon="-0.10438">
        <ele>6.4</ele>
        <time>2023-10-11T12:11:30Z</time>
      </trkpt>
      <trkpt lat="49.26198" lon="-0.10437">
        <ele>6.4</ele>
        <time>2023-10-11T12:11:31Z</time>
      </trkpt>
      <trkpt lat="49.26191" lon="-0.10437">
        <ele>6.4</ele>
        <time>2023-10-11T12:11:32Z</time>
      </trkpt>
      <trkpt lat="49.26184" lon="-0.10436">
        <ele>6.4</ele>
        <time>2023-10-11T12:11:33Z</time>
      </trkpt>
      <trkpt lat="49.26177" lon="-0.10436">
        <ele>6.5</ele>
        <time>2023-10-11T12:11:34Z</time>
      </trkpt>
      <trkpt lat="49.2617" lon="-0.10435">
        <ele>6.5</ele>
        <time>2023-10-11T12:11:35Z</time>
      </trkpt>
      <trkpt lat="49.26163" lon="-0.10434">
        <ele>6.5</ele>
        <time>2023-10-11T12:11:36Z</time>
      </trkpt>
      <trkpt lat="49.26156" lon="-0.10434">
        <ele>6.5</ele>
        <time>2023-10-11T12:11:37Z</time>
      </trkpt>
      <trkpt lat="49.26149" lon="-0.10433">
        <ele>6.5</ele>
        <time>2023-10-11T12:11:38Z</time>
      </trkpt>
      <trkpt lat="49.26142" lon="-0.10432">
        <ele>6.5</ele>
        <time>2023-10-11T12:11:39Z</time>
      </trkpt>
      <trkpt lat="49.26135" lon="-0.10432">
        <ele>6.5</ele>
        <time>2023-10-11T12:11:40Z</time>
      </trkpt>
      <trkpt lat="49.26128" lon="-0.10431">
        <ele>6.5</ele>
        <time>2023-10-11T12:11:41Z</time>
      </trkpt>
      <trkpt lat="49.26121" lon="-0.1043">
        <ele>6.4</ele>
        <time>2023-10-11T12:11:42Z</time>
      </trkpt>
      <trkpt lat="49.26114" lon="-0.10429">
        <ele>6.4</ele>
        <time>2023-10-11T12:11:43Z</time>
      </trkpt>
      <trkpt lat="49.26106" lon="-0.10429">
        <ele>6.3</ele>
        <time>2023-10-11T12:11:44Z</time>
      </trkpt>
      <trkpt lat="49.26099" lon="-0.10428">
        <ele>6.3</ele>
        <time>2023-10-11T12:11:45Z</time>
      </trkpt>
      <trkpt lat="49.26092" lon="-0.10428">
        <ele>6.3</ele>
        <time>2023-10-11T12:11:46Z</time>
      </trkpt>
      <trkpt lat="49.26085" lon="-0.10427">
        <ele>6.2</ele>
        <time>2023-10-11T12:11:47Z</time>
      </trkpt>
      <trkpt lat="49.26078" lon="-0.10427">
        <ele>6.2</ele>
        <time>2023-10-11T12:11:48Z</time>
      </trkpt>
      <trkpt lat="49.26071" lon="-0.10427">
        <ele>6.1</ele>
        <time>2023-10-11T12:11:49Z</time>
      </trkpt>
      <trkpt lat="49.26064" lon="-0.10426">
        <ele>6.1</ele>
        <time>2023-10-11T12:11:50Z</time>
      </trkpt>
      <trkpt lat="49.26057" lon="-0.10426">
        <ele>6.1</ele>
        <time>2023-10-11T12:11:51Z</time>
      </trkpt>
      <trkpt lat="49.2605" lon="-0.10425">
        <ele>6</ele>
        <time>2023-10-11T12:11:52Z</time>
      </trkpt>
      <trkpt lat="49.26043" lon="-0.10425">
        <ele>6</ele>
        <time>2023-10-11T12:11:53Z</time>
      </trkpt>
      <trkpt lat="49.26036" lon="-0.10424">
        <ele>6</ele>
        <time>2023-10-11T12:11:54Z</time>
      </trkpt>
      <trkpt lat="49.26028" lon="-0.10424">
        <ele>5.9</ele>
        <time>2023-10-11T12:11:55Z</time>
      </trkpt>
      <trkpt lat="49.26021" lon="-0.10423">
        <ele>5.9</ele>
        <time>2023-10-11T12:11:56Z</time>
      </trkpt>
      <trkpt lat="49.26013" lon="-0.10423">
        <ele>5.9</ele>
        <time>2023-10-11T12:11:57Z</time>
      </trkpt>
      <trkpt lat="49.26006" lon="-0.10422">
        <ele>5.8</ele>
        <time>2023-10-11T12:11:58Z</time>
      </trkpt>
      <trkpt lat="49.25999" lon="-0.10422">
        <ele>5.8</ele>
        <time>2023-10-11T12:11:59Z</time>
      </trkpt>
      <trkpt lat="49.25992" lon="-0.10422">
        <ele>5.7</ele>
        <time>2023-10-11T12:12:00Z</time>
      </trkpt>
      <trkpt lat="49.25985" lon="-0.10421">
        <ele>5.6</ele>
        <time>2023-10-11T12:12:01Z</time>
      </trkpt>
      <trkpt lat="49.25978" lon="-0.10421">
        <ele>5.6</ele>
        <time>2023-10-11T12:12:02Z</time>
      </trkpt>
      <trkpt lat="49.25971" lon="-0.1042">
        <ele>5.6</ele>
        <time>2023-10-11T12:12:03Z</time>
      </trkpt>
      <trkpt lat="49.25964" lon="-0.1042">
        <ele>5.6</ele>
        <time>2023-10-11T12:12:04Z</time>
      </trkpt>
      <trkpt lat="49.25957" lon="-0.10419">
        <ele>5.5</ele>
        <time>2023-10-11T12:12:05Z</time>
      </trkpt>
      <trkpt lat="49.2595" lon="-0.10419">
        <ele>5.5</ele>
        <time>2023-10-11T12:12:06Z</time>
      </trkpt>
      <trkpt lat="49.25943" lon="-0.10418">
        <ele>5.5</ele>
        <time>2023-10-11T12:12:07Z</time>
      </trkpt>
      <trkpt lat="49.25936" lon="-0.10418">
        <ele>5.5</ele>
        <time>2023-10-11T12:12:08Z</time>
      </trkpt>
      <trkpt lat="49.25929" lon="-0.10417">
        <ele>5.4</ele>
        <time>2023-10-11T12:12:09Z</time>
      </trkpt>
      <trkpt lat="49.25922" lon="-0.10415">
        <ele>5.4</ele>
        <time>2023-10-11T12:12:10Z</time>
      </trkpt>
      <trkpt lat="49.25915" lon="-0.10414">
        <ele>5.4</ele>
        <time>2023-10-11T12:12:11Z</time>
      </trkpt>
      <trkpt lat="49.25908" lon="-0.10412">
        <ele>5.3</ele>
        <time>2023-10-11T12:12:12Z</time>
      </trkpt>
      <trkpt lat="49.25901" lon="-0.10411">
        <ele>5.3</ele>
        <time>2023-10-11T12:12:13Z</time>
      </trkpt>
      <trkpt lat="49.25894" lon="-0.1041">
        <ele>5.3</ele>
        <time>2023-10-11T12:12:14Z</time>
      </trkpt>
      <trkpt lat="49.25888" lon="-0.10408">
        <ele>5.3</ele>
        <time>2023-10-11T12:12:15Z</time>
      </trkpt>
      <trkpt lat="49.25881" lon="-0.10407">
        <ele>5.2</ele>
        <time>2023-10-11T12:12:16Z</time>
      </trkpt>
      <trkpt lat="49.25874" lon="-0.10407">
        <ele>5.2</ele>
        <time>2023-10-11T12:12:17Z</time>
      </trkpt>
      <trkpt lat="49.25867" lon="-0.10406">
        <ele>5.2</ele>
        <time>2023-10-11T12:12:18Z</time>
      </trkpt>
      <trkpt lat="49.2586" lon="-0.10406">
        <ele>5.2</ele>
        <time>2023-10-11T12:12:19Z</time>
      </trkpt>
      <trkpt lat="49.25853" lon="-0.10405">
        <ele>5.2</ele>
        <time>2023-10-11T12:12:20Z</time>
      </trkpt>
      <trkpt lat="49.25846" lon="-0.10404">
        <ele>5.2</ele>
        <time>2023-10-11T12:12:21Z</time>
      </trkpt>
      <trkpt lat="49.2584" lon="-0.10403">
        <ele>5.2</ele>
        <time>2023-10-11T12:12:22Z</time>
      </trkpt>
      <trkpt lat="49.25833" lon="-0.10402">
        <ele>5.2</ele>
        <time>2023-10-11T12:12:23Z</time>
      </trkpt>
      <trkpt lat="49.25827" lon="-0.10401">
        <ele>5.2</ele>
        <time>2023-10-11T12:12:24Z</time>
      </trkpt>
      <trkpt lat="49.2582" lon="-0.10401">
        <ele>5.3</ele>
        <time>2023-10-11T12:12:25Z</time>
      </trkpt>
      <trkpt lat="49.25814" lon="-0.104">
        <ele>5.3</ele>
        <time>2023-10-11T12:12:26Z</time>
      </trkpt>
      <trkpt lat="49.25808" lon="-0.10401">
        <ele>5.3</ele>
        <time>2023-10-11T12:12:27Z</time>
      </trkpt>
      <trkpt lat="49.25802" lon="-0.10402">
        <ele>5.4</ele>
        <time>2023-10-11T12:12:28Z</time>
      </trkpt>
      <trkpt lat="49.25796" lon="-0.10405">
        <ele>5.3</ele>
        <time>2023-10-11T12:12:29Z</time>
      </trkpt>
      <trkpt lat="49.25791" lon="-0.1041">
        <ele>5.3</ele>
        <time>2023-10-11T12:12:30Z</time>
      </trkpt>
      <trkpt lat="49.25786" lon="-0.10415">
        <ele>5.2</ele>
        <time>2023-10-11T12:12:31Z</time>
      </trkpt>
      <trkpt lat="49.2578" lon="-0.10418">
        <ele>5.1</ele>
        <time>2023-10-11T12:12:32Z</time>
      </trkpt>
      <trkpt lat="49.25775" lon="-0.1042">
        <ele>5</ele>
        <time>2023-10-11T12:12:33Z</time>
      </trkpt>
      <trkpt lat="49.25769" lon="-0.10419">
        <ele>4.9</ele>
        <time>2023-10-11T12:12:34Z</time>
      </trkpt>
      <trkpt lat="49.25764" lon="-0.10416">
        <ele>4.8</ele>
        <time>2023-10-11T12:12:35Z</time>
      </trkpt>
      <trkpt lat="49.25759" lon="-0.10411">
        <ele>4.7</ele>
        <time>2023-10-11T12:12:36Z</time>
      </trkpt>
      <trkpt lat="49.25756" lon="-0.10403">
        <ele>4.8</ele>
        <time>2023-10-11T12:12:37Z</time>
      </trkpt>
      <trkpt lat="49.25754" lon="-0.10395">
        <ele>4.8</ele>
        <time>2023-10-11T12:12:38Z</time>
      </trkpt>
      <trkpt lat="49.25754" lon="-0.10386">
        <ele>4.7</ele>
        <time>2023-10-11T12:12:39Z</time>
      </trkpt>
      <trkpt lat="49.25756" lon="-0.10378">
        <ele>4.7</ele>
        <time>2023-10-11T12:12:40Z</time>
      </trkpt>
      <trkpt lat="49.25759" lon="-0.10371">
        <ele>4.7</ele>
        <time>2023-10-11T12:12:41Z</time>
      </trkpt>
      <trkpt lat="49.25762" lon="-0.10366">
        <ele>4.7</ele>
        <time>2023-10-11T12:12:42Z</time>
      </trkpt>
      <trkpt lat="49.25765" lon="-0.10361">
        <ele>4.7</ele>
        <time>2023-10-11T12:12:43Z</time>
      </trkpt>
      <trkpt lat="49.25769" lon="-0.10358">
        <ele>4.7</ele>
        <time>2023-10-11T12:12:44Z</time>
      </trkpt>
      <trkpt lat="49.25772" lon="-0.10354">
        <ele>4.7</ele>
        <time>2023-10-11T12:12:45Z</time>
      </trkpt>
      <trkpt lat="49.25775" lon="-0.1035">
        <ele>4.7</ele>
        <time>2023-10-11T12:12:46Z</time>
      </trkpt>
      <trkpt lat="49.25778" lon="-0.10345">
        <ele>4.7</ele>
        <time>2023-10-11T12:12:47Z</time>
      </trkpt>
      <trkpt lat="49.25779" lon="-0.10341">
        <ele>4.7</ele>
        <time>2023-10-11T12:12:48Z</time>
      </trkpt>
      <trkpt lat="49.25781" lon="-0.10335">
        <ele>4.7</ele>
        <time>2023-10-11T12:12:49Z</time>
      </trkpt>
      <trkpt lat="49.25782" lon="-0.10329">
        <ele>4.7</ele>
        <time>2023-10-11T12:12:50Z</time>
      </trkpt>
      <trkpt lat="49.25783" lon="-0.10322">
        <ele>4.7</ele>
        <time>2023-10-11T12:12:51Z</time>
      </trkpt>
      <trkpt lat="49.25784" lon="-0.10316">
        <ele>4.8</ele>
        <time>2023-10-11T12:12:52Z</time>
      </trkpt>
      <trkpt lat="49.25785" lon="-0.10309">
        <ele>4.9</ele>
        <time>2023-10-11T12:12:53Z</time>
      </trkpt>
      <trkpt lat="49.25786" lon="-0.10302">
        <ele>4.9</ele>
        <time>2023-10-11T12:12:54Z</time>
      </trkpt>
      <trkpt lat="49.25787" lon="-0.10296">
        <ele>5</ele>
        <time>2023-10-11T12:12:55Z</time>
      </trkpt>
      <trkpt lat="49.25788" lon="-0.10289">
        <ele>5</ele>
        <time>2023-10-11T12:12:56Z</time>
      </trkpt>
      <trkpt lat="49.25789" lon="-0.10283">
        <ele>5</ele>
        <time>2023-10-11T12:12:57Z</time>
      </trkpt>
      <trkpt lat="49.2579" lon="-0.10276">
        <ele>5.1</ele>
        <time>2023-10-11T12:12:58Z</time>
      </trkpt>
      <trkpt lat="49.25791" lon="-0.1027">
        <ele>5.1</ele>
        <time>2023-10-11T12:12:59Z</time>
      </trkpt>
      <trkpt lat="49.25792" lon="-0.10263">
        <ele>5.1</ele>
        <time>2023-10-11T12:13:00Z</time>
      </trkpt>
      <trkpt lat="49.25793" lon="-0.10256">
        <ele>5.1</ele>
        <time>2023-10-11T12:13:01Z</time>
      </trkpt>
      <trkpt lat="49.25794" lon="-0.10248">
        <ele>5.1</ele>
        <time>2023-10-11T12:13:02Z</time>
      </trkpt>
      <trkpt lat="49.25794" lon="-0.10241">
        <ele>5.1</ele>
        <time>2023-10-11T12:13:03Z</time>
      </trkpt>
      <trkpt lat="49.25795" lon="-0.10233">
        <ele>5.2</ele>
        <time>2023-10-11T12:13:04Z</time>
      </trkpt>
      <trkpt lat="49.25795" lon="-0.10225">
        <ele>5.2</ele>
        <time>2023-10-11T12:13:05Z</time>
      </trkpt>
      <trkpt lat="49.25796" lon="-0.10218">
        <ele>5.2</ele>
        <time>2023-10-11T12:13:06Z</time>
      </trkpt>
      <trkpt lat="49.25796" lon="-0.10211">
        <ele>5.2</ele>
        <time>2023-10-11T12:13:07Z</time>
      </trkpt>
      <trkpt lat="49.25796" lon="-0.10204">
        <ele>5.2</ele>
        <time>2023-10-11T12:13:08Z</time>
      </trkpt>
      <trkpt lat="49.25797" lon="-0.10196">
        <ele>5.3</ele>
        <time>2023-10-11T12:13:09Z</time>
      </trkpt>
      <trkpt lat="49.25797" lon="-0.10188">
        <ele>5.3</ele>
        <time>2023-10-11T12:13:10Z</time>
      </trkpt>
      <trkpt lat="49.25797" lon="-0.1018">
        <ele>5.4</ele>
        <time>2023-10-11T12:13:11Z</time>
      </trkpt>
      <trkpt lat="49.25798" lon="-0.10172">
        <ele>5.4</ele>
        <time>2023-10-11T12:13:12Z</time>
      </trkpt>
      <trkpt lat="49.25798" lon="-0.10164">
        <ele>5.4</ele>
        <time>2023-10-11T12:13:13Z</time>
      </trkpt>
      <trkpt lat="49.25799" lon="-0.10155">
        <ele>5.5</ele>
        <time>2023-10-11T12:13:14Z</time>
      </trkpt>
      <trkpt lat="49.25799" lon="-0.10147">
        <ele>5.5</ele>
        <time>2023-10-11T12:13:15Z</time>
      </trkpt>
      <trkpt lat="49.258" lon="-0.10138">
        <ele>5.5</ele>
        <time>2023-10-11T12:13:16Z</time>
      </trkpt>
      <trkpt lat="49.25801" lon="-0.1013">
        <ele>5.5</ele>
        <time>2023-10-11T12:13:17Z</time>
      </trkpt>
      <trkpt lat="49.25801" lon="-0.10122">
        <ele>5.6</ele>
        <time>2023-10-11T12:13:18Z</time>
      </trkpt>
      <trkpt lat="49.25801" lon="-0.10114">
        <ele>5.6</ele>
        <time>2023-10-11T12:13:19Z</time>
      </trkpt>
      <trkpt lat="49.25801" lon="-0.10105">
        <ele>5.6</ele>
        <time>2023-10-11T12:13:20Z</time>
      </trkpt>
      <trkpt lat="49.25802" lon="-0.10097">
        <ele>5.6</ele>
        <time>2023-10-11T12:13:21Z</time>
      </trkpt>
      <trkpt lat="49.25803" lon="-0.10089">
        <ele>5.6</ele>
        <time>2023-10-11T12:13:22Z</time>
      </trkpt>
      <trkpt lat="49.25803" lon="-0.10081">
        <ele>5.6</ele>
        <time>2023-10-11T12:13:23Z</time>
      </trkpt>
      <trkpt lat="49.25804" lon="-0.10073">
        <ele>5.6</ele>
        <time>2023-10-11T12:13:24Z</time>
      </trkpt>
      <trkpt lat="49.25805" lon="-0.10065">
        <ele>5.6</ele>
        <time>2023-10-11T12:13:25Z</time>
      </trkpt>
      <trkpt lat="49.25806" lon="-0.10056">
        <ele>5.6</ele>
        <time>2023-10-11T12:13:26Z</time>
      </trkpt>
      <trkpt lat="49.25807" lon="-0.10048">
        <ele>5.6</ele>
        <time>2023-10-11T12:13:27Z</time>
      </trkpt>
      <trkpt lat="49.25808" lon="-0.10039">
        <ele>5.6</ele>
        <time>2023-10-11T12:13:28Z</time>
      </trkpt>
      <trkpt lat="49.25809" lon="-0.1003">
        <ele>5.6</ele>
        <time>2023-10-11T12:13:29Z</time>
      </trkpt>
      <trkpt lat="49.25809" lon="-0.10021">
        <ele>5.5</ele>
        <time>2023-10-11T12:13:30Z</time>
      </trkpt>
      <trkpt lat="49.2581" lon="-0.10013">
        <ele>5.5</ele>
        <time>2023-10-11T12:13:31Z</time>
      </trkpt>
      <trkpt lat="49.25811" lon="-0.10004">
        <ele>5.5</ele>
        <time>2023-10-11T12:13:32Z</time>
      </trkpt>
      <trkpt lat="49.25811" lon="-0.09996">
        <ele>5.5</ele>
        <time>2023-10-11T12:13:33Z</time>
      </trkpt>
      <trkpt lat="49.25812" lon="-0.09988">
        <ele>5.4</ele>
        <time>2023-10-11T12:13:34Z</time>
      </trkpt>
      <trkpt lat="49.25813" lon="-0.09979">
        <ele>5.4</ele>
        <time>2023-10-11T12:13:35Z</time>
      </trkpt>
      <trkpt lat="49.25814" lon="-0.09971">
        <ele>5.4</ele>
        <time>2023-10-11T12:13:36Z</time>
      </trkpt>
      <trkpt lat="49.25815" lon="-0.09963">
        <ele>5.4</ele>
        <time>2023-10-11T12:13:37Z</time>
      </trkpt>
      <trkpt lat="49.25815" lon="-0.09954">
        <ele>5.3</ele>
        <time>2023-10-11T12:13:38Z</time>
      </trkpt>
      <trkpt lat="49.25816" lon="-0.09946">
        <ele>5.3</ele>
        <time>2023-10-11T12:13:39Z</time>
      </trkpt>
      <trkpt lat="49.25816" lon="-0.09937">
        <ele>5.3</ele>
        <time>2023-10-11T12:13:40Z</time>
      </trkpt>
      <trkpt lat="49.25816" lon="-0.09928">
        <ele>5.3</ele>
        <time>2023-10-11T12:13:41Z</time>
      </trkpt>
      <trkpt lat="49.25817" lon="-0.09919">
        <ele>5.3</ele>
        <time>2023-10-11T12:13:42Z</time>
      </trkpt>
      <trkpt lat="49.25817" lon="-0.0991">
        <ele>5.3</ele>
        <time>2023-10-11T12:13:43Z</time>
      </trkpt>
      <trkpt lat="49.25818" lon="-0.09901">
        <ele>5.3</ele>
        <time>2023-10-11T12:13:44Z</time>
      </trkpt>
      <trkpt lat="49.25818" lon="-0.09891">
        <ele>5.3</ele>
        <time>2023-10-11T12:13:45Z</time>
      </trkpt>
      <trkpt lat="49.25819" lon="-0.0988">
        <ele>5.3</ele>
        <time>2023-10-11T12:13:46Z</time>
      </trkpt>
      <trkpt lat="49.2582" lon="-0.0987">
        <ele>5.3</ele>
        <time>2023-10-11T12:13:47Z</time>
      </trkpt>
      <trkpt lat="49.25821" lon="-0.09858">
        <ele>5.3</ele>
        <time>2023-10-11T12:13:48Z</time>
      </trkpt>
      <trkpt lat="49.25822" lon="-0.09847">
        <ele>5.4</ele>
        <time>2023-10-11T12:13:49Z</time>
      </trkpt>
      <trkpt lat="49.25822" lon="-0.09836">
        <ele>5.4</ele>
        <time>2023-10-11T12:13:50Z</time>
      </trkpt>
      <trkpt lat="49.25823" lon="-0.09825">
        <ele>5.4</ele>
        <time>2023-10-11T12:13:51Z</time>
      </trkpt>
      <trkpt lat="49.25824" lon="-0.09814">
        <ele>5.4</ele>
        <time>2023-10-11T12:13:52Z</time>
      </trkpt>
      <trkpt lat="49.25825" lon="-0.09804">
        <ele>5.4</ele>
        <time>2023-10-11T12:13:53Z</time>
      </trkpt>
      <trkpt lat="49.25826" lon="-0.09793">
        <ele>5.4</ele>
        <time>2023-10-11T12:13:54Z</time>
      </trkpt>
      <trkpt lat="49.25827" lon="-0.09783">
        <ele>5.4</ele>
        <time>2023-10-11T12:13:55Z</time>
      </trkpt>
      <trkpt lat="49.25827" lon="-0.09773">
        <ele>5.4</ele>
        <time>2023-10-11T12:13:56Z</time>
      </trkpt>
      <trkpt lat="49.25828" lon="-0.09763">
        <ele>5.4</ele>
        <time>2023-10-11T12:13:57Z</time>
      </trkpt>
      <trkpt lat="49.25829" lon="-0.09753">
        <ele>5.4</ele>
        <time>2023-10-11T12:13:58Z</time>
      </trkpt>
      <trkpt lat="49.2583" lon="-0.09743">
        <ele>5.4</ele>
        <time>2023-10-11T12:13:59Z</time>
      </trkpt>
      <trkpt lat="49.25831" lon="-0.09733">
        <ele>5.4</ele>
        <time>2023-10-11T12:14:00Z</time>
      </trkpt>
      <trkpt lat="49.25831" lon="-0.09723">
        <ele>5.4</ele>
        <time>2023-10-11T12:14:01Z</time>
      </trkpt>
      <trkpt lat="49.25832" lon="-0.09712">
        <ele>5.5</ele>
        <time>2023-10-11T12:14:02Z</time>
      </trkpt>
      <trkpt lat="49.25832" lon="-0.09702">
        <ele>5.5</ele>
        <time>2023-10-11T12:14:03Z</time>
      </trkpt>
      <trkpt lat="49.25832" lon="-0.09692">
        <ele>5.6</ele>
        <time>2023-10-11T12:14:04Z</time>
      </trkpt>
      <trkpt lat="49.25833" lon="-0.09682">
        <ele>5.6</ele>
        <time>2023-10-11T12:14:05Z</time>
      </trkpt>
      <trkpt lat="49.25833" lon="-0.09672">
        <ele>5.7</ele>
        <time>2023-10-11T12:14:06Z</time>
      </trkpt>
      <trkpt lat="49.25833" lon="-0.09663">
        <ele>5.8</ele>
        <time>2023-10-11T12:14:07Z</time>
      </trkpt>
      <trkpt lat="49.25832" lon="-0.09653">
        <ele>5.8</ele>
        <time>2023-10-11T12:14:08Z</time>
      </trkpt>
      <trkpt lat="49.25832" lon="-0.09644">
        <ele>5.9</ele>
        <time>2023-10-11T12:14:09Z</time>
      </trkpt>
      <trkpt lat="49.25831" lon="-0.09634">
        <ele>6</ele>
        <time>2023-10-11T12:14:10Z</time>
      </trkpt>
      <trkpt lat="49.25831" lon="-0.09625">
        <ele>6.1</ele>
        <time>2023-10-11T12:14:11Z</time>
      </trkpt>
      <trkpt lat="49.25831" lon="-0.09615">
        <ele>6.2</ele>
        <time>2023-10-11T12:14:12Z</time>
      </trkpt>
      <trkpt lat="49.25831" lon="-0.09606">
        <ele>6.3</ele>
        <time>2023-10-11T12:14:13Z</time>
      </trkpt>
      <trkpt lat="49.25831" lon="-0.09596">
        <ele>6.5</ele>
        <time>2023-10-11T12:14:14Z</time>
      </trkpt>
      <trkpt lat="49.2583" lon="-0.09587">
        <ele>6.6</ele>
        <time>2023-10-11T12:14:15Z</time>
      </trkpt>
      <trkpt lat="49.2583" lon="-0.09577">
        <ele>6.7</ele>
        <time>2023-10-11T12:14:16Z</time>
      </trkpt>
      <trkpt lat="49.2583" lon="-0.09568">
        <ele>6.8</ele>
        <time>2023-10-11T12:14:17Z</time>
      </trkpt>
      <trkpt lat="49.2583" lon="-0.09558">
        <ele>6.9</ele>
        <time>2023-10-11T12:14:18Z</time>
      </trkpt>
      <trkpt lat="49.2583" lon="-0.09549">
        <ele>7.1</ele>
        <time>2023-10-11T12:14:19Z</time>
      </trkpt>
      <trkpt lat="49.25831" lon="-0.09539">
        <ele>7.2</ele>
        <time>2023-10-11T12:14:20Z</time>
      </trkpt>
      <trkpt lat="49.25831" lon="-0.0953">
        <ele>7.3</ele>
        <time>2023-10-11T12:14:21Z</time>
      </trkpt>
      <trkpt lat="49.25832" lon="-0.0952">
        <ele>7.5</ele>
        <time>2023-10-11T12:14:22Z</time>
      </trkpt>
      <trkpt lat="49.25832" lon="-0.09512">
        <ele>7.7</ele>
        <time>2023-10-11T12:14:23Z</time>
      </trkpt>
      <trkpt lat="49.25832" lon="-0.09504">
        <ele>7.9</ele>
        <time>2023-10-11T12:14:24Z</time>
      </trkpt>
      <trkpt lat="49.2583" lon="-0.09496">
        <ele>8.1</ele>
        <time>2023-10-11T12:14:25Z</time>
      </trkpt>
      <trkpt lat="49.25827" lon="-0.09489">
        <ele>8.3</ele>
        <time>2023-10-11T12:14:26Z</time>
      </trkpt>
      <trkpt lat="49.25822" lon="-0.09485">
        <ele>8.5</ele>
        <time>2023-10-11T12:14:27Z</time>
      </trkpt>
      <trkpt lat="49.25817" lon="-0.09482">
        <ele>8.5</ele>
        <time>2023-10-11T12:14:28Z</time>
      </trkpt>
      <trkpt lat="49.25811" lon="-0.09482">
        <ele>8.5</ele>
        <time>2023-10-11T12:14:29Z</time>
      </trkpt>
      <trkpt lat="49.25806" lon="-0.09482">
        <ele>8.5</ele>
        <time>2023-10-11T12:14:30Z</time>
      </trkpt>
      <trkpt lat="49.25801" lon="-0.09483">
        <ele>8.5</ele>
        <time>2023-10-11T12:14:31Z</time>
      </trkpt>
      <trkpt lat="49.25794" lon="-0.09484">
        <ele>8.5</ele>
        <time>2023-10-11T12:14:32Z</time>
      </trkpt>
      <trkpt lat="49.25788" lon="-0.09485">
        <ele>8.5</ele>
        <time>2023-10-11T12:14:33Z</time>
      </trkpt>
      <trkpt lat="49.25782" lon="-0.09487">
        <ele>8.5</ele>
        <time>2023-10-11T12:14:34Z</time>
      </trkpt>
      <trkpt lat="49.25776" lon="-0.09489">
        <ele>8.5</ele>
        <time>2023-10-11T12:14:35Z</time>
      </trkpt>
      <trkpt lat="49.2577" lon="-0.09491">
        <ele>8.3</ele>
        <time>2023-10-11T12:14:36Z</time>
      </trkpt>
      <trkpt lat="49.25764" lon="-0.09494">
        <ele>8.2</ele>
        <time>2023-10-11T12:14:37Z</time>
      </trkpt>
      <trkpt lat="49.25758" lon="-0.09498">
        <ele>8.1</ele>
        <time>2023-10-11T12:14:38Z</time>
      </trkpt>
      <trkpt lat="49.25752" lon="-0.09503">
        <ele>8</ele>
        <time>2023-10-11T12:14:39Z</time>
      </trkpt>
      <trkpt lat="49.25747" lon="-0.09508">
        <ele>7.9</ele>
        <time>2023-10-11T12:14:40Z</time>
      </trkpt>
      <trkpt lat="49.25741" lon="-0.09513">
        <ele>7.9</ele>
        <time>2023-10-11T12:14:41Z</time>
      </trkpt>
      <trkpt lat="49.25734" lon="-0.09519">
        <ele>7.8</ele>
        <time>2023-10-11T12:14:42Z</time>
      </trkpt>
      <trkpt lat="49.25728" lon="-0.09524">
        <ele>7.7</ele>
        <time>2023-10-11T12:14:43Z</time>
      </trkpt>
      <trkpt lat="49.25722" lon="-0.09529">
        <ele>7.7</ele>
        <time>2023-10-11T12:14:44Z</time>
      </trkpt>
      <trkpt lat="49.25716" lon="-0.09534">
        <ele>7.6</ele>
        <time>2023-10-11T12:14:45Z</time>
      </trkpt>
      <trkpt lat="49.2571" lon="-0.09539">
        <ele>7.6</ele>
        <time>2023-10-11T12:14:46Z</time>
      </trkpt>
      <trkpt lat="49.25704" lon="-0.09544">
        <ele>7.6</ele>
        <time>2023-10-11T12:14:47Z</time>
      </trkpt>
      <trkpt lat="49.25698" lon="-0.09548">
        <ele>7.5</ele>
        <time>2023-10-11T12:14:48Z</time>
      </trkpt>
      <trkpt lat="49.25691" lon="-0.09553">
        <ele>7.5</ele>
        <time>2023-10-11T12:14:49Z</time>
      </trkpt>
      <trkpt lat="49.25685" lon="-0.09557">
        <ele>7.5</ele>
        <time>2023-10-11T12:14:50Z</time>
      </trkpt>
      <trkpt lat="49.25679" lon="-0.09561">
        <ele>7.4</ele>
        <time>2023-10-11T12:14:51Z</time>
      </trkpt>
      <trkpt lat="49.25673" lon="-0.09566">
        <ele>7.4</ele>
        <time>2023-10-11T12:14:52Z</time>
      </trkpt>
      <trkpt lat="49.25666" lon="-0.0957">
        <ele>7.4</ele>
        <time>2023-10-11T12:14:53Z</time>
      </trkpt>
      <trkpt lat="49.2566" lon="-0.09574">
        <ele>7.3</ele>
        <time>2023-10-11T12:14:54Z</time>
      </trkpt>
      <trkpt lat="49.25654" lon="-0.09578">
        <ele>7.3</ele>
        <time>2023-10-11T12:14:55Z</time>
      </trkpt>
      <trkpt lat="49.25647" lon="-0.09583">
        <ele>7.3</ele>
        <time>2023-10-11T12:14:56Z</time>
      </trkpt>
      <trkpt lat="49.2564" lon="-0.09587">
        <ele>7.3</ele>
        <time>2023-10-11T12:14:57Z</time>
      </trkpt>
      <trkpt lat="49.25633" lon="-0.0959">
        <ele>7.3</ele>
        <time>2023-10-11T12:14:58Z</time>
      </trkpt>
      <trkpt lat="49.25626" lon="-0.09592">
        <ele>7.2</ele>
        <time>2023-10-11T12:14:59Z</time>
      </trkpt>
      <trkpt lat="49.25619" lon="-0.09594">
        <ele>7.2</ele>
        <time>2023-10-11T12:15:00Z</time>
      </trkpt>
      <trkpt lat="49.25612" lon="-0.09595">
        <ele>7.1</ele>
        <time>2023-10-11T12:15:01Z</time>
      </trkpt>
      <trkpt lat="49.25605" lon="-0.09596">
        <ele>7.1</ele>
        <time>2023-10-11T12:15:02Z</time>
      </trkpt>
      <trkpt lat="49.25597" lon="-0.09597">
        <ele>7.1</ele>
        <time>2023-10-11T12:15:03Z</time>
      </trkpt>
      <trkpt lat="49.25591" lon="-0.09597">
        <ele>7</ele>
        <time>2023-10-11T12:15:04Z</time>
      </trkpt>
      <trkpt lat="49.25583" lon="-0.09597">
        <ele>7</ele>
        <time>2023-10-11T12:15:05Z</time>
      </trkpt>
      <trkpt lat="49.25576" lon="-0.09597">
        <ele>6.9</ele>
        <time>2023-10-11T12:15:06Z</time>
      </trkpt>
      <trkpt lat="49.2557" lon="-0.09596">
        <ele>6.8</ele>
        <time>2023-10-11T12:15:07Z</time>
      </trkpt>
      <trkpt lat="49.25563" lon="-0.09596">
        <ele>6.7</ele>
        <time>2023-10-11T12:15:08Z</time>
      </trkpt>
      <trkpt lat="49.25555" lon="-0.09596">
        <ele>6.7</ele>
        <time>2023-10-11T12:15:09Z</time>
      </trkpt>
      <trkpt lat="49.25548" lon="-0.09596">
        <ele>6.6</ele>
        <time>2023-10-11T12:15:10Z</time>
      </trkpt>
      <trkpt lat="49.2554" lon="-0.09596">
        <ele>6.5</ele>
        <time>2023-10-11T12:15:11Z</time>
      </trkpt>
      <trkpt lat="49.25533" lon="-0.09595">
        <ele>6.4</ele>
        <time>2023-10-11T12:15:12Z</time>
      </trkpt>
      <trkpt lat="49.25526" lon="-0.09595">
        <ele>6.3</ele>
        <time>2023-10-11T12:15:13Z</time>
      </trkpt>
      <trkpt lat="49.25518" lon="-0.09595">
        <ele>6.2</ele>
        <time>2023-10-11T12:15:14Z</time>
      </trkpt>
      <trkpt lat="49.25511" lon="-0.09595">
        <ele>6.1</ele>
        <time>2023-10-11T12:15:15Z</time>
      </trkpt>
      <trkpt lat="49.25504" lon="-0.09595">
        <ele>6</ele>
        <time>2023-10-11T12:15:16Z</time>
      </trkpt>
      <trkpt lat="49.25496" lon="-0.09596">
        <ele>5.9</ele>
        <time>2023-10-11T12:15:17Z</time>
      </trkpt>
      <trkpt lat="49.25489" lon="-0.09596">
        <ele>5.9</ele>
        <time>2023-10-11T12:15:18Z</time>
      </trkpt>
      <trkpt lat="49.25482" lon="-0.09597">
        <ele>5.8</ele>
        <time>2023-10-11T12:15:19Z</time>
      </trkpt>
      <trkpt lat="49.25474" lon="-0.09598">
        <ele>5.8</ele>
        <time>2023-10-11T12:15:20Z</time>
      </trkpt>
      <trkpt lat="49.25467" lon="-0.096">
        <ele>5.7</ele>
        <time>2023-10-11T12:15:21Z</time>
      </trkpt>
      <trkpt lat="49.2546" lon="-0.09601">
        <ele>5.6</ele>
        <time>2023-10-11T12:15:22Z</time>
      </trkpt>
      <trkpt lat="49.25453" lon="-0.09602">
        <ele>5.5</ele>
        <time>2023-10-11T12:15:23Z</time>
      </trkpt>
      <trkpt lat="49.25446" lon="-0.09603">
        <ele>5.4</ele>
        <time>2023-10-11T12:15:24Z</time>
      </trkpt>
      <trkpt lat="49.25439" lon="-0.09605">
        <ele>5.4</ele>
        <time>2023-10-11T12:15:25Z</time>
      </trkpt>
      <trkpt lat="49.25432" lon="-0.09606">
        <ele>5.3</ele>
        <time>2023-10-11T12:15:26Z</time>
      </trkpt>
      <trkpt lat="49.25425" lon="-0.09607">
        <ele>5.3</ele>
        <time>2023-10-11T12:15:27Z</time>
      </trkpt>
      <trkpt lat="49.25418" lon="-0.09608">
        <ele>5.2</ele>
        <time>2023-10-11T12:15:28Z</time>
      </trkpt>
      <trkpt lat="49.25412" lon="-0.0961">
        <ele>5.2</ele>
        <time>2023-10-11T12:15:29Z</time>
      </trkpt>
      <trkpt lat="49.25405" lon="-0.09611">
        <ele>5.2</ele>
        <time>2023-10-11T12:15:30Z</time>
      </trkpt>
      <trkpt lat="49.25399" lon="-0.09613">
        <ele>5.1</ele>
        <time>2023-10-11T12:15:31Z</time>
      </trkpt>
      <trkpt lat="49.25392" lon="-0.09614">
        <ele>5.1</ele>
        <time>2023-10-11T12:15:32Z</time>
      </trkpt>
      <trkpt lat="49.25386" lon="-0.09615">
        <ele>5.1</ele>
        <time>2023-10-11T12:15:33Z</time>
      </trkpt>
      <trkpt lat="49.25379" lon="-0.09616">
        <ele>5.1</ele>
        <time>2023-10-11T12:15:34Z</time>
      </trkpt>
      <trkpt lat="49.25372" lon="-0.09618">
        <ele>5.1</ele>
        <time>2023-10-11T12:15:35Z</time>
      </trkpt>
      <trkpt lat="49.25366" lon="-0.09619">
        <ele>5.1</ele>
        <time>2023-10-11T12:15:36Z</time>
      </trkpt>
      <trkpt lat="49.25359" lon="-0.0962">
        <ele>5.1</ele>
        <time>2023-10-11T12:15:37Z</time>
      </trkpt>
      <trkpt lat="49.25353" lon="-0.09621">
        <ele>5.1</ele>
        <time>2023-10-11T12:15:38Z</time>
      </trkpt>
      <trkpt lat="49.25347" lon="-0.09622">
        <ele>5.1</ele>
        <time>2023-10-11T12:15:39Z</time>
      </trkpt>
      <trkpt lat="49.2534" lon="-0.09623">
        <ele>5.1</ele>
        <time>2023-10-11T12:15:40Z</time>
      </trkpt>
      <trkpt lat="49.25334" lon="-0.09625">
        <ele>5.2</ele>
        <time>2023-10-11T12:15:41Z</time>
      </trkpt>
      <trkpt lat="49.25328" lon="-0.09627">
        <ele>5.2</ele>
        <time>2023-10-11T12:15:42Z</time>
      </trkpt>
      <trkpt lat="49.25322" lon="-0.09629">
        <ele>5.2</ele>
        <time>2023-10-11T12:15:43Z</time>
      </trkpt>
      <trkpt lat="49.25316" lon="-0.09632">
        <ele>5.2</ele>
        <time>2023-10-11T12:15:44Z</time>
      </trkpt>
      <trkpt lat="49.2531" lon="-0.09635">
        <ele>5.3</ele>
        <time>2023-10-11T12:15:45Z</time>
      </trkpt>
      <trkpt lat="49.25304" lon="-0.09639">
        <ele>5.3</ele>
        <time>2023-10-11T12:15:46Z</time>
      </trkpt>
      <trkpt lat="49.25298" lon="-0.09643">
        <ele>5.3</ele>
        <time>2023-10-11T12:15:47Z</time>
      </trkpt>
      <trkpt lat="49.25292" lon="-0.09648">
        <ele>5.4</ele>
        <time>2023-10-11T12:15:48Z</time>
      </trkpt>
      <trkpt lat="49.25287" lon="-0.09654">
        <ele>5.4</ele>
        <time>2023-10-11T12:15:49Z</time>
      </trkpt>
      <trkpt lat="49.25282" lon="-0.0966">
        <ele>5.4</ele>
        <time>2023-10-11T12:15:50Z</time>
      </trkpt>
      <trkpt lat="49.25277" lon="-0.09666">
        <ele>5.4</ele>
        <time>2023-10-11T12:15:51Z</time>
      </trkpt>
      <trkpt lat="49.25272" lon="-0.09672">
        <ele>5.4</ele>
        <time>2023-10-11T12:15:52Z</time>
      </trkpt>
      <trkpt lat="49.25266" lon="-0.09677">
        <ele>5.4</ele>
        <time>2023-10-11T12:15:53Z</time>
      </trkpt>
      <trkpt lat="49.25261" lon="-0.09682">
        <ele>5.5</ele>
        <time>2023-10-11T12:15:54Z</time>
      </trkpt>
      <trkpt lat="49.25256" lon="-0.09686">
        <ele>5.5</ele>
        <time>2023-10-11T12:15:55Z</time>
      </trkpt>
      <trkpt lat="49.2525" lon="-0.0969">
        <ele>5.5</ele>
        <time>2023-10-11T12:15:56Z</time>
      </trkpt>
      <trkpt lat="49.25244" lon="-0.09693">
        <ele>5.4</ele>
        <time>2023-10-11T12:15:57Z</time>
      </trkpt>
      <trkpt lat="49.25237" lon="-0.09696">
        <ele>5.4</ele>
        <time>2023-10-11T12:15:58Z</time>
      </trkpt>
      <trkpt lat="49.25231" lon="-0.09698">
        <ele>5.4</ele>
        <time>2023-10-11T12:15:59Z</time>
      </trkpt>
      <trkpt lat="49.25224" lon="-0.09701">
        <ele>5.4</ele>
        <time>2023-10-11T12:16:00Z</time>
      </trkpt>
      <trkpt lat="49.25218" lon="-0.09704">
        <ele>5.4</ele>
        <time>2023-10-11T12:16:01Z</time>
      </trkpt>
      <trkpt lat="49.25211" lon="-0.09707">
        <ele>5.3</ele>
        <time>2023-10-11T12:16:02Z</time>
      </trkpt>
      <trkpt lat="49.25204" lon="-0.0971">
        <ele>5.2</ele>
        <time>2023-10-11T12:16:03Z</time>
      </trkpt>
      <trkpt lat="49.25197" lon="-0.09712">
        <ele>5.2</ele>
        <time>2023-10-11T12:16:04Z</time>
      </trkpt>
      <trkpt lat="49.2519" lon="-0.09715">
        <ele>5.1</ele>
        <time>2023-10-11T12:16:05Z</time>
      </trkpt>
      <trkpt lat="49.25184" lon="-0.09717">
        <ele>5</ele>
        <time>2023-10-11T12:16:06Z</time>
      </trkpt>
      <trkpt lat="49.25177" lon="-0.09719">
        <ele>4.9</ele>
        <time>2023-10-11T12:16:07Z</time>
      </trkpt>
      <trkpt lat="49.2517" lon="-0.09722">
        <ele>4.9</ele>
        <time>2023-10-11T12:16:08Z</time>
      </trkpt>
      <trkpt lat="49.25163" lon="-0.09725">
        <ele>4.8</ele>
        <time>2023-10-11T12:16:09Z</time>
      </trkpt>
      <trkpt lat="49.25157" lon="-0.09728">
        <ele>4.8</ele>
        <time>2023-10-11T12:16:10Z</time>
      </trkpt>
      <trkpt lat="49.2515" lon="-0.09731">
        <ele>4.7</ele>
        <time>2023-10-11T12:16:11Z</time>
      </trkpt>
      <trkpt lat="49.25143" lon="-0.09736">
        <ele>4.7</ele>
        <time>2023-10-11T12:16:12Z</time>
      </trkpt>
      <trkpt lat="49.25137" lon="-0.09741">
        <ele>4.7</ele>
        <time>2023-10-11T12:16:13Z</time>
      </trkpt>
      <trkpt lat="49.25131" lon="-0.09747">
        <ele>4.6</ele>
        <time>2023-10-11T12:16:14Z</time>
      </trkpt>
      <trkpt lat="49.25126" lon="-0.09755">
        <ele>4.6</ele>
        <time>2023-10-11T12:16:15Z</time>
      </trkpt>
      <trkpt lat="49.25121" lon="-0.09764">
        <ele>4.5</ele>
        <time>2023-10-11T12:16:16Z</time>
      </trkpt>
      <trkpt lat="49.25117" lon="-0.09773">
        <ele>4.4</ele>
        <time>2023-10-11T12:16:17Z</time>
      </trkpt>
      <trkpt lat="49.25113" lon="-0.09782">
        <ele>4.4</ele>
        <time>2023-10-11T12:16:18Z</time>
      </trkpt>
      <trkpt lat="49.25109" lon="-0.09792">
        <ele>4.4</ele>
        <time>2023-10-11T12:16:19Z</time>
      </trkpt>
      <trkpt lat="49.25105" lon="-0.09802">
        <ele>4.3</ele>
        <time>2023-10-11T12:16:20Z</time>
      </trkpt>
      <trkpt lat="49.25101" lon="-0.09813">
        <ele>4.3</ele>
        <time>2023-10-11T12:16:21Z</time>
      </trkpt>
      <trkpt lat="49.25097" lon="-0.09822">
        <ele>4.3</ele>
        <time>2023-10-11T12:16:22Z</time>
      </trkpt>
      <trkpt lat="49.25094" lon="-0.09832">
        <ele>4.3</ele>
        <time>2023-10-11T12:16:23Z</time>
      </trkpt>
      <trkpt lat="49.25091" lon="-0.09842">
        <ele>4.3</ele>
        <time>2023-10-11T12:16:24Z</time>
      </trkpt>
      <trkpt lat="49.25087" lon="-0.09852">
        <ele>4.2</ele>
        <time>2023-10-11T12:16:25Z</time>
      </trkpt>
      <trkpt lat="49.25083" lon="-0.09861">
        <ele>4.2</ele>
        <time>2023-10-11T12:16:26Z</time>
      </trkpt>
      <trkpt lat="49.2508" lon="-0.09871">
        <ele>4.2</ele>
        <time>2023-10-11T12:16:27Z</time>
      </trkpt>
      <trkpt lat="49.25076" lon="-0.0988">
        <ele>4.3</ele>
        <time>2023-10-11T12:16:28Z</time>
      </trkpt>
      <trkpt lat="49.25072" lon="-0.09889">
        <ele>4.3</ele>
        <time>2023-10-11T12:16:29Z</time>
      </trkpt>
      <trkpt lat="49.25069" lon="-0.09899">
        <ele>4.3</ele>
        <time>2023-10-11T12:16:30Z</time>
      </trkpt>
      <trkpt lat="49.25066" lon="-0.09908">
        <ele>4.3</ele>
        <time>2023-10-11T12:16:31Z</time>
      </trkpt>
      <trkpt lat="49.25062" lon="-0.09918">
        <ele>4.4</ele>
        <time>2023-10-11T12:16:32Z</time>
      </trkpt>
      <trkpt lat="49.25059" lon="-0.09927">
        <ele>4.4</ele>
        <time>2023-10-11T12:16:33Z</time>
      </trkpt>
      <trkpt lat="49.25055" lon="-0.09936">
        <ele>4.4</ele>
        <time>2023-10-11T12:16:34Z</time>
      </trkpt>
      <trkpt lat="49.25052" lon="-0.09945">
        <ele>4.4</ele>
        <time>2023-10-11T12:16:35Z</time>
      </trkpt>
      <trkpt lat="49.25049" lon="-0.09954">
        <ele>4.5</ele>
        <time>2023-10-11T12:16:36Z</time>
      </trkpt>
      <trkpt lat="49.25045" lon="-0.09963">
        <ele>4.5</ele>
        <time>2023-10-11T12:16:37Z</time>
      </trkpt>
      <trkpt lat="49.25042" lon="-0.09972">
        <ele>4.5</ele>
        <time>2023-10-11T12:16:38Z</time>
      </trkpt>
      <trkpt lat="49.25038" lon="-0.09982">
        <ele>4.5</ele>
        <time>2023-10-11T12:16:39Z</time>
      </trkpt>
      <trkpt lat="49.25035" lon="-0.09991">
        <ele>4.6</ele>
        <time>2023-10-11T12:16:40Z</time>
      </trkpt>
      <trkpt lat="49.25032" lon="-0.09999">
        <ele>4.6</ele>
        <time>2023-10-11T12:16:41Z</time>
      </trkpt>
      <trkpt lat="49.25028" lon="-0.10008">
        <ele>4.7</ele>
        <time>2023-10-11T12:16:42Z</time>
      </trkpt>
      <trkpt lat="49.25025" lon="-0.10017">
        <ele>4.8</ele>
        <time>2023-10-11T12:16:43Z</time>
      </trkpt>
      <trkpt lat="49.25022" lon="-0.10026">
        <ele>4.8</ele>
        <time>2023-10-11T12:16:44Z</time>
      </trkpt>
      <trkpt lat="49.25018" lon="-0.10035">
        <ele>4.9</ele>
        <time>2023-10-11T12:16:45Z</time>
      </trkpt>
      <trkpt lat="49.25015" lon="-0.10044">
        <ele>4.9</ele>
        <time>2023-10-11T12:16:46Z</time>
      </trkpt>
      <trkpt lat="49.25011" lon="-0.10053">
        <ele>5</ele>
        <time>2023-10-11T12:16:47Z</time>
      </trkpt>
      <trkpt lat="49.25007" lon="-0.10063">
        <ele>5</ele>
        <time>2023-10-11T12:16:48Z</time>
      </trkpt>
      <trkpt lat="49.25004" lon="-0.10072">
        <ele>5</ele>
        <time>2023-10-11T12:16:49Z</time>
      </trkpt>
      <trkpt lat="49.25001" lon="-0.10081">
        <ele>5.1</ele>
        <time>2023-10-11T12:16:50Z</time>
      </trkpt>
      <trkpt lat="49.24998" lon="-0.1009">
        <ele>5.1</ele>
        <time>2023-10-11T12:16:51Z</time>
      </trkpt>
      <trkpt lat="49.24994" lon="-0.10099">
        <ele>5.2</ele>
        <time>2023-10-11T12:16:52Z</time>
      </trkpt>
      <trkpt lat="49.24991" lon="-0.10107">
        <ele>5.3</ele>
        <time>2023-10-11T12:16:53Z</time>
      </trkpt>
      <trkpt lat="49.24987" lon="-0.10116">
        <ele>5.4</ele>
        <time>2023-10-11T12:16:54Z</time>
      </trkpt>
      <trkpt lat="49.24984" lon="-0.10125">
        <ele>5.4</ele>
        <time>2023-10-11T12:16:55Z</time>
      </trkpt>
      <trkpt lat="49.24981" lon="-0.10133">
        <ele>5.5</ele>
        <time>2023-10-11T12:16:56Z</time>
      </trkpt>
      <trkpt lat="49.24978" lon="-0.10142">
        <ele>5.5</ele>
        <time>2023-10-11T12:16:57Z</time>
      </trkpt>
      <trkpt lat="49.24974" lon="-0.10151">
        <ele>5.6</ele>
        <time>2023-10-11T12:16:58Z</time>
      </trkpt>
      <trkpt lat="49.24971" lon="-0.10159">
        <ele>5.6</ele>
        <time>2023-10-11T12:16:59Z</time>
      </trkpt>
      <trkpt lat="49.24967" lon="-0.10168">
        <ele>5.6</ele>
        <time>2023-10-11T12:17:00Z</time>
      </trkpt>
      <trkpt lat="49.24964" lon="-0.10178">
        <ele>5.6</ele>
        <time>2023-10-11T12:17:01Z</time>
      </trkpt>
      <trkpt lat="49.24961" lon="-0.10187">
        <ele>5.6</ele>
        <time>2023-10-11T12:17:02Z</time>
      </trkpt>
      <trkpt lat="49.24958" lon="-0.10196">
        <ele>5.6</ele>
        <time>2023-10-11T12:17:03Z</time>
      </trkpt>
      <trkpt lat="49.24956" lon="-0.10205">
        <ele>5.6</ele>
        <time>2023-10-11T12:17:04Z</time>
      </trkpt>
      <trkpt lat="49.24953" lon="-0.10214">
        <ele>5.7</ele>
        <time>2023-10-11T12:17:05Z</time>
      </trkpt>
      <trkpt lat="49.24949" lon="-0.10223">
        <ele>5.7</ele>
        <time>2023-10-11T12:17:06Z</time>
      </trkpt>
      <trkpt lat="49.24945" lon="-0.10232">
        <ele>5.8</ele>
        <time>2023-10-11T12:17:07Z</time>
      </trkpt>
      <trkpt lat="49.24941" lon="-0.10241">
        <ele>5.8</ele>
        <time>2023-10-11T12:17:08Z</time>
      </trkpt>
      <trkpt lat="49.24937" lon="-0.10249">
        <ele>5.9</ele>
        <time>2023-10-11T12:17:09Z</time>
      </trkpt>
      <trkpt lat="49.24931" lon="-0.10257">
        <ele>6</ele>
        <time>2023-10-11T12:17:10Z</time>
      </trkpt>
      <trkpt lat="49.24926" lon="-0.10263">
        <ele>6</ele>
        <time>2023-10-11T12:17:11Z</time>
      </trkpt>
      <trkpt lat="49.24921" lon="-0.10268">
        <ele>6.1</ele>
        <time>2023-10-11T12:17:12Z</time>
      </trkpt>
      <trkpt lat="49.24915" lon="-0.10273">
        <ele>6.2</ele>
        <time>2023-10-11T12:17:13Z</time>
      </trkpt>
      <trkpt lat="49.24909" lon="-0.10277">
        <ele>6.2</ele>
        <time>2023-10-11T12:17:14Z</time>
      </trkpt>
      <trkpt lat="49.24903" lon="-0.10282">
        <ele>6.3</ele>
        <time>2023-10-11T12:17:15Z</time>
      </trkpt>
      <trkpt lat="49.24896" lon="-0.10286">
        <ele>6.3</ele>
        <time>2023-10-11T12:17:16Z</time>
      </trkpt>
      <trkpt lat="49.24889" lon="-0.10289">
        <ele>6.4</ele>
        <time>2023-10-11T12:17:17Z</time>
      </trkpt>
      <trkpt lat="49.24882" lon="-0.10292">
        <ele>6.4</ele>
        <time>2023-10-11T12:17:18Z</time>
      </trkpt>
      <trkpt lat="49.24875" lon="-0.10293">
        <ele>6.4</ele>
        <time>2023-10-11T12:17:19Z</time>
      </trkpt>
      <trkpt lat="49.24868" lon="-0.10294">
        <ele>6.4</ele>
        <time>2023-10-11T12:17:20Z</time>
      </trkpt>
      <trkpt lat="49.2486" lon="-0.10294">
        <ele>6.3</ele>
        <time>2023-10-11T12:17:21Z</time>
      </trkpt>
      <trkpt lat="49.24853" lon="-0.10294">
        <ele>6.3</ele>
        <time>2023-10-11T12:17:22Z</time>
      </trkpt>
      <trkpt lat="49.24845" lon="-0.10293">
        <ele>6.3</ele>
        <time>2023-10-11T12:17:23Z</time>
      </trkpt>
      <trkpt lat="49.24838" lon="-0.10291">
        <ele>6.2</ele>
        <time>2023-10-11T12:17:24Z</time>
      </trkpt>
      <trkpt lat="49.24831" lon="-0.10289">
        <ele>6.2</ele>
        <time>2023-10-11T12:17:25Z</time>
      </trkpt>
      <trkpt lat="49.24824" lon="-0.10286">
        <ele>6.2</ele>
        <time>2023-10-11T12:17:26Z</time>
      </trkpt>
      <trkpt lat="49.24817" lon="-0.10282">
        <ele>6.1</ele>
        <time>2023-10-11T12:17:27Z</time>
      </trkpt>
      <trkpt lat="49.2481" lon="-0.10279">
        <ele>6</ele>
        <time>2023-10-11T12:17:28Z</time>
      </trkpt>
      <trkpt lat="49.24803" lon="-0.10274">
        <ele>6</ele>
        <time>2023-10-11T12:17:29Z</time>
      </trkpt>
      <trkpt lat="49.24797" lon="-0.1027">
        <ele>5.9</ele>
        <time>2023-10-11T12:17:30Z</time>
      </trkpt>
      <trkpt lat="49.2479" lon="-0.10265">
        <ele>5.8</ele>
        <time>2023-10-11T12:17:31Z</time>
      </trkpt>
      <trkpt lat="49.24784" lon="-0.1026">
        <ele>5.8</ele>
        <time>2023-10-11T12:17:32Z</time>
      </trkpt>
      <trkpt lat="49.24778" lon="-0.10255">
        <ele>5.7</ele>
        <time>2023-10-11T12:17:33Z</time>
      </trkpt>
      <trkpt lat="49.24771" lon="-0.1025">
        <ele>5.6</ele>
        <time>2023-10-11T12:17:34Z</time>
      </trkpt>
      <trkpt lat="49.24765" lon="-0.10245">
        <ele>5.4</ele>
        <time>2023-10-11T12:17:35Z</time>
      </trkpt>
      <trkpt lat="49.24759" lon="-0.1024">
        <ele>5.3</ele>
        <time>2023-10-11T12:17:36Z</time>
      </trkpt>
      <trkpt lat="49.24752" lon="-0.10234">
        <ele>5.2</ele>
        <time>2023-10-11T12:17:37Z</time>
      </trkpt>
      <trkpt lat="49.24746" lon="-0.10229">
        <ele>5.1</ele>
        <time>2023-10-11T12:17:38Z</time>
      </trkpt>
      <trkpt lat="49.24739" lon="-0.10223">
        <ele>5</ele>
        <time>2023-10-11T12:17:39Z</time>
      </trkpt>
      <trkpt lat="49.24733" lon="-0.10218">
        <ele>5</ele>
        <time>2023-10-11T12:17:40Z</time>
      </trkpt>
      <trkpt lat="49.24727" lon="-0.10214">
        <ele>4.9</ele>
        <time>2023-10-11T12:17:41Z</time>
      </trkpt>
      <trkpt lat="49.24721" lon="-0.10209">
        <ele>4.8</ele>
        <time>2023-10-11T12:17:42Z</time>
      </trkpt>
      <trkpt lat="49.24714" lon="-0.10203">
        <ele>4.8</ele>
        <time>2023-10-11T12:17:43Z</time>
      </trkpt>
      <trkpt lat="49.24708" lon="-0.10198">
        <ele>4.7</ele>
        <time>2023-10-11T12:17:44Z</time>
      </trkpt>
      <trkpt lat="49.24702" lon="-0.10193">
        <ele>4.7</ele>
        <time>2023-10-11T12:17:45Z</time>
      </trkpt>
      <trkpt lat="49.24695" lon="-0.10188">
        <ele>4.7</ele>
        <time>2023-10-11T12:17:46Z</time>
      </trkpt>
      <trkpt lat="49.24689" lon="-0.10183">
        <ele>4.6</ele>
        <time>2023-10-11T12:17:47Z</time>
      </trkpt>
      <trkpt lat="49.24682" lon="-0.10179">
        <ele>4.6</ele>
        <time>2023-10-11T12:17:48Z</time>
      </trkpt>
      <trkpt lat="49.24676" lon="-0.10174">
        <ele>4.6</ele>
        <time>2023-10-11T12:17:49Z</time>
      </trkpt>
      <trkpt lat="49.2467" lon="-0.10169">
        <ele>4.6</ele>
        <time>2023-10-11T12:17:50Z</time>
      </trkpt>
      <trkpt lat="49.24664" lon="-0.10164">
        <ele>4.5</ele>
        <time>2023-10-11T12:17:51Z</time>
      </trkpt>
      <trkpt lat="49.24657" lon="-0.10159">
        <ele>4.5</ele>
        <time>2023-10-11T12:17:52Z</time>
      </trkpt>
      <trkpt lat="49.24651" lon="-0.10154">
        <ele>4.5</ele>
        <time>2023-10-11T12:17:53Z</time>
      </trkpt>
      <trkpt lat="49.24645" lon="-0.10149">
        <ele>4.6</ele>
        <time>2023-10-11T12:17:54Z</time>
      </trkpt>
      <trkpt lat="49.24638" lon="-0.10145">
        <ele>4.6</ele>
        <time>2023-10-11T12:17:55Z</time>
      </trkpt>
      <trkpt lat="49.24632" lon="-0.1014">
        <ele>4.7</ele>
        <time>2023-10-11T12:17:56Z</time>
      </trkpt>
      <trkpt lat="49.24626" lon="-0.10136">
        <ele>4.8</ele>
        <time>2023-10-11T12:17:57Z</time>
      </trkpt>
      <trkpt lat="49.2462" lon="-0.10131">
        <ele>4.9</ele>
        <time>2023-10-11T12:17:58Z</time>
      </trkpt>
      <trkpt lat="49.24614" lon="-0.10126">
        <ele>5</ele>
        <time>2023-10-11T12:17:59Z</time>
      </trkpt>
      <trkpt lat="49.24608" lon="-0.10122">
        <ele>5.1</ele>
        <time>2023-10-11T12:18:00Z</time>
      </trkpt>
      <trkpt lat="49.24602" lon="-0.10117">
        <ele>5.3</ele>
        <time>2023-10-11T12:18:01Z</time>
      </trkpt>
      <trkpt lat="49.24596" lon="-0.10113">
        <ele>5.4</ele>
        <time>2023-10-11T12:18:02Z</time>
      </trkpt>
      <trkpt lat="49.2459" lon="-0.10108">
        <ele>5.6</ele>
        <time>2023-10-11T12:18:03Z</time>
      </trkpt>
      <trkpt lat="49.24584" lon="-0.10104">
        <ele>5.8</ele>
        <time>2023-10-11T12:18:04Z</time>
      </trkpt>
      <trkpt lat="49.24579" lon="-0.10099">
        <ele>6</ele>
        <time>2023-10-11T12:18:05Z</time>
      </trkpt>
      <trkpt lat="49.24573" lon="-0.10095">
        <ele>6.2</ele>
        <time>2023-10-11T12:18:06Z</time>
      </trkpt>
      <trkpt lat="49.24567" lon="-0.1009">
        <ele>6.4</ele>
        <time>2023-10-11T12:18:07Z</time>
      </trkpt>
      <trkpt lat="49.24562" lon="-0.10086">
        <ele>6.3</ele>
        <time>2023-10-11T12:18:08Z</time>
      </trkpt>
      <trkpt lat="49.24556" lon="-0.10083">
        <ele>6.5</ele>
        <time>2023-10-11T12:18:09Z</time>
      </trkpt>
      <trkpt lat="49.24551" lon="-0.10079">
        <ele>6.7</ele>
        <time>2023-10-11T12:18:10Z</time>
      </trkpt>
      <trkpt lat="49.24546" lon="-0.10075">
        <ele>6.9</ele>
        <time>2023-10-11T12:18:11Z</time>
      </trkpt>
      <trkpt lat="49.24541" lon="-0.10071">
        <ele>7.1</ele>
        <time>2023-10-11T12:18:12Z</time>
      </trkpt>
      <trkpt lat="49.24536" lon="-0.10067">
        <ele>7.4</ele>
        <time>2023-10-11T12:18:13Z</time>
      </trkpt>
      <trkpt lat="49.24531" lon="-0.10063">
        <ele>7.6</ele>
        <time>2023-10-11T12:18:14Z</time>
      </trkpt>
      <trkpt lat="49.24526" lon="-0.10059">
        <ele>7.9</ele>
        <time>2023-10-11T12:18:15Z</time>
      </trkpt>
      <trkpt lat="49.24521" lon="-0.10055">
        <ele>8.2</ele>
        <time>2023-10-11T12:18:16Z</time>
      </trkpt>
      <trkpt lat="49.24515" lon="-0.10051">
        <ele>8.4</ele>
        <time>2023-10-11T12:18:17Z</time>
      </trkpt>
      <trkpt lat="49.2451" lon="-0.10047">
        <ele>8.7</ele>
        <time>2023-10-11T12:18:18Z</time>
      </trkpt>
      <trkpt lat="49.24505" lon="-0.10044">
        <ele>9</ele>
        <time>2023-10-11T12:18:19Z</time>
      </trkpt>
      <trkpt lat="49.245" lon="-0.1004">
        <ele>9.2</ele>
        <time>2023-10-11T12:18:20Z</time>
      </trkpt>
      <trkpt lat="49.24495" lon="-0.10035">
        <ele>9.4</ele>
        <time>2023-10-11T12:18:21Z</time>
      </trkpt>
      <trkpt lat="49.2449" lon="-0.10031">
        <ele>9.7</ele>
        <time>2023-10-11T12:18:22Z</time>
      </trkpt>
      <trkpt lat="49.24485" lon="-0.10027">
        <ele>9.9</ele>
        <time>2023-10-11T12:18:23Z</time>
      </trkpt>
      <trkpt lat="49.2448" lon="-0.10024">
        <ele>10.1</ele>
        <time>2023-10-11T12:18:24Z</time>
      </trkpt>
      <trkpt lat="49.24475" lon="-0.10019">
        <ele>10.3</ele>
        <time>2023-10-11T12:18:25Z</time>
      </trkpt>
      <trkpt lat="49.2447" lon="-0.10015">
        <ele>10.5</ele>
        <time>2023-10-11T12:18:26Z</time>
      </trkpt>
      <trkpt lat="49.24466" lon="-0.1001">
        <ele>10.7</ele>
        <time>2023-10-11T12:18:27Z</time>
      </trkpt>
      <trkpt lat="49.24461" lon="-0.10006">
        <ele>10.8</ele>
        <time>2023-10-11T12:18:28Z</time>
      </trkpt>
      <trkpt lat="49.24456" lon="-0.10001">
        <ele>11</ele>
        <time>2023-10-11T12:18:29Z</time>
      </trkpt>
      <trkpt lat="49.24452" lon="-0.09996">
        <ele>11.3</ele>
        <time>2023-10-11T12:18:30Z</time>
      </trkpt>
      <trkpt lat="49.24448" lon="-0.09991">
        <ele>11.5</ele>
        <time>2023-10-11T12:18:31Z</time>
      </trkpt>
      <trkpt lat="49.24444" lon="-0.09985">
        <ele>11.6</ele>
        <time>2023-10-11T12:18:32Z</time>
      </trkpt>
      <trkpt lat="49.2444" lon="-0.09979">
        <ele>11.8</ele>
        <time>2023-10-11T12:18:33Z</time>
      </trkpt>
      <trkpt lat="49.24436" lon="-0.09972">
        <ele>12</ele>
        <time>2023-10-11T12:18:34Z</time>
      </trkpt>
      <trkpt lat="49.24433" lon="-0.09964">
        <ele>12.2</ele>
        <time>2023-10-11T12:18:35Z</time>
      </trkpt>
      <trkpt lat="49.2443" lon="-0.09957">
        <ele>12.3</ele>
        <time>2023-10-11T12:18:36Z</time>
      </trkpt>
      <trkpt lat="49.24427" lon="-0.09949">
        <ele>12.4</ele>
        <time>2023-10-11T12:18:37Z</time>
      </trkpt>
      <trkpt lat="49.24424" lon="-0.0994">
        <ele>12.5</ele>
        <time>2023-10-11T12:18:38Z</time>
      </trkpt>
      <trkpt lat="49.24422" lon="-0.09931">
        <ele>12.5</ele>
        <time>2023-10-11T12:18:39Z</time>
      </trkpt>
      <trkpt lat="49.2442" lon="-0.09922">
        <ele>12.5</ele>
        <time>2023-10-11T12:18:40Z</time>
      </trkpt>
      <trkpt lat="49.24417" lon="-0.09912">
        <ele>12.5</ele>
        <time>2023-10-11T12:18:41Z</time>
      </trkpt>
      <trkpt lat="49.24415" lon="-0.09903">
        <ele>12.4</ele>
        <time>2023-10-11T12:18:42Z</time>
      </trkpt>
      <trkpt lat="49.24413" lon="-0.09893">
        <ele>12.3</ele>
        <time>2023-10-11T12:18:43Z</time>
      </trkpt>
      <trkpt lat="49.2441" lon="-0.09884">
        <ele>12.2</ele>
        <time>2023-10-11T12:18:44Z</time>
      </trkpt>
      <trkpt lat="49.24408" lon="-0.09874">
        <ele>12.1</ele>
        <time>2023-10-11T12:18:45Z</time>
      </trkpt>
      <trkpt lat="49.24405" lon="-0.09864">
        <ele>12</ele>
        <time>2023-10-11T12:18:46Z</time>
      </trkpt>
      <trkpt lat="49.24402" lon="-0.09853">
        <ele>11.8</ele>
        <time>2023-10-11T12:18:47Z</time>
      </trkpt>
      <trkpt lat="49.244" lon="-0.09843">
        <ele>11.6</ele>
        <time>2023-10-11T12:18:48Z</time>
      </trkpt>
      <trkpt lat="49.24397" lon="-0.09832">
        <ele>11.5</ele>
        <time>2023-10-11T12:18:49Z</time>
      </trkpt>
      <trkpt lat="49.24395" lon="-0.09821">
        <ele>11.3</ele>
        <time>2023-10-11T12:18:50Z</time>
      </trkpt>
      <trkpt lat="49.24392" lon="-0.0981">
        <ele>11.1</ele>
        <time>2023-10-11T12:18:51Z</time>
      </trkpt>
      <trkpt lat="49.24388" lon="-0.09799">
        <ele>10.9</ele>
        <time>2023-10-11T12:18:52Z</time>
      </trkpt>
      <trkpt lat="49.24385" lon="-0.09788">
        <ele>10.6</ele>
        <time>2023-10-11T12:18:53Z</time>
      </trkpt>
      <trkpt lat="49.24381" lon="-0.09778">
        <ele>10.4</ele>
        <time>2023-10-11T12:18:54Z</time>
      </trkpt>
      <trkpt lat="49.24376" lon="-0.09769">
        <ele>10.2</ele>
        <time>2023-10-11T12:18:55Z</time>
      </trkpt>
      <trkpt lat="49.24371" lon="-0.0976">
        <ele>9.9</ele>
        <time>2023-10-11T12:18:56Z</time>
      </trkpt>
      <trkpt lat="49.24365" lon="-0.09752">
        <ele>9.6</ele>
        <time>2023-10-11T12:18:57Z</time>
      </trkpt>
      <trkpt lat="49.24358" lon="-0.09744">
        <ele>9.4</ele>
        <time>2023-10-11T12:18:58Z</time>
      </trkpt>
      <trkpt lat="49.24352" lon="-0.09736">
        <ele>9.1</ele>
        <time>2023-10-11T12:18:59Z</time>
      </trkpt>
      <trkpt lat="49.24345" lon="-0.09728">
        <ele>8.9</ele>
        <time>2023-10-11T12:19:00Z</time>
      </trkpt>
      <trkpt lat="49.24337" lon="-0.09721">
        <ele>8.6</ele>
        <time>2023-10-11T12:19:01Z</time>
      </trkpt>
      <trkpt lat="49.2433" lon="-0.09713">
        <ele>8.4</ele>
        <time>2023-10-11T12:19:02Z</time>
      </trkpt>
      <trkpt lat="49.24323" lon="-0.09705">
        <ele>8.3</ele>
        <time>2023-10-11T12:19:03Z</time>
      </trkpt>
      <trkpt lat="49.24317" lon="-0.09697">
        <ele>8.1</ele>
        <time>2023-10-11T12:19:04Z</time>
      </trkpt>
      <trkpt lat="49.2431" lon="-0.0969">
        <ele>8.1</ele>
        <time>2023-10-11T12:19:05Z</time>
      </trkpt>
      <trkpt lat="49.24303" lon="-0.09683">
        <ele>8</ele>
        <time>2023-10-11T12:19:06Z</time>
      </trkpt>
      <trkpt lat="49.24297" lon="-0.09676">
        <ele>8</ele>
        <time>2023-10-11T12:19:07Z</time>
      </trkpt>
      <trkpt lat="49.2429" lon="-0.09669">
        <ele>8</ele>
        <time>2023-10-11T12:19:08Z</time>
      </trkpt>
      <trkpt lat="49.24283" lon="-0.09663">
        <ele>8</ele>
        <time>2023-10-11T12:19:09Z</time>
      </trkpt>
      <trkpt lat="49.24277" lon="-0.09656">
        <ele>8</ele>
        <time>2023-10-11T12:19:10Z</time>
      </trkpt>
      <trkpt lat="49.2427" lon="-0.09649">
        <ele>8.1</ele>
        <time>2023-10-11T12:19:11Z</time>
      </trkpt>
      <trkpt lat="49.24264" lon="-0.09642">
        <ele>8.1</ele>
        <time>2023-10-11T12:19:12Z</time>
      </trkpt>
      <trkpt lat="49.24257" lon="-0.09635">
        <ele>8.2</ele>
        <time>2023-10-11T12:19:13Z</time>
      </trkpt>
      <trkpt lat="49.24251" lon="-0.09628">
        <ele>8.2</ele>
        <time>2023-10-11T12:19:14Z</time>
      </trkpt>
      <trkpt lat="49.24245" lon="-0.09621">
        <ele>8.3</ele>
        <time>2023-10-11T12:19:15Z</time>
      </trkpt>
      <trkpt lat="49.24238" lon="-0.09614">
        <ele>8.4</ele>
        <time>2023-10-11T12:19:16Z</time>
      </trkpt>
      <trkpt lat="49.24232" lon="-0.09608">
        <ele>8.4</ele>
        <time>2023-10-11T12:19:17Z</time>
      </trkpt>
      <trkpt lat="49.24225" lon="-0.09601">
        <ele>8.4</ele>
        <time>2023-10-11T12:19:18Z</time>
      </trkpt>
      <trkpt lat="49.24219" lon="-0.09594">
        <ele>8.4</ele>
        <time>2023-10-11T12:19:19Z</time>
      </trkpt>
      <trkpt lat="49.24213" lon="-0.09587">
        <ele>8.4</ele>
        <time>2023-10-11T12:19:20Z</time>
      </trkpt>
      <trkpt lat="49.24207" lon="-0.0958">
        <ele>8.5</ele>
        <time>2023-10-11T12:19:21Z</time>
      </trkpt>
      <trkpt lat="49.24202" lon="-0.09572">
        <ele>8.5</ele>
        <time>2023-10-11T12:19:22Z</time>
      </trkpt>
      <trkpt lat="49.24196" lon="-0.09564">
        <ele>8.5</ele>
        <time>2023-10-11T12:19:23Z</time>
      </trkpt>
      <trkpt lat="49.24191" lon="-0.09556">
        <ele>8.6</ele>
        <time>2023-10-11T12:19:24Z</time>
      </trkpt>
      <trkpt lat="49.24186" lon="-0.09548">
        <ele>8.6</ele>
        <time>2023-10-11T12:19:25Z</time>
      </trkpt>
      <trkpt lat="49.24182" lon="-0.09539">
        <ele>8.5</ele>
        <time>2023-10-11T12:19:26Z</time>
      </trkpt>
      <trkpt lat="49.24177" lon="-0.09529">
        <ele>8.5</ele>
        <time>2023-10-11T12:19:27Z</time>
      </trkpt>
      <trkpt lat="49.24173" lon="-0.0952">
        <ele>8.5</ele>
        <time>2023-10-11T12:19:28Z</time>
      </trkpt>
      <trkpt lat="49.2417" lon="-0.09509">
        <ele>8.4</ele>
        <time>2023-10-11T12:19:29Z</time>
      </trkpt>
      <trkpt lat="49.24167" lon="-0.09498">
        <ele>8.4</ele>
        <time>2023-10-11T12:19:30Z</time>
      </trkpt>
      <trkpt lat="49.24164" lon="-0.09487">
        <ele>8.3</ele>
        <time>2023-10-11T12:19:31Z</time>
      </trkpt>
      <trkpt lat="49.24161" lon="-0.09475">
        <ele>8.2</ele>
        <time>2023-10-11T12:19:32Z</time>
      </trkpt>
      <trkpt lat="49.24159" lon="-0.09463">
        <ele>8.1</ele>
        <time>2023-10-11T12:19:33Z</time>
      </trkpt>
      <trkpt lat="49.24156" lon="-0.09452">
        <ele>8</ele>
        <time>2023-10-11T12:19:34Z</time>
      </trkpt>
      <trkpt lat="49.24154" lon="-0.0944">
        <ele>7.9</ele>
        <time>2023-10-11T12:19:35Z</time>
      </trkpt>
      <trkpt lat="49.24153" lon="-0.09428">
        <ele>7.9</ele>
        <time>2023-10-11T12:19:36Z</time>
      </trkpt>
      <trkpt lat="49.24151" lon="-0.09416">
        <ele>7.8</ele>
        <time>2023-10-11T12:19:37Z</time>
      </trkpt>
      <trkpt lat="49.2415" lon="-0.09404">
        <ele>7.8</ele>
        <time>2023-10-11T12:19:38Z</time>
      </trkpt>
      <trkpt lat="49.24148" lon="-0.09392">
        <ele>7.7</ele>
        <time>2023-10-11T12:19:39Z</time>
      </trkpt>
      <trkpt lat="49.24147" lon="-0.0938">
        <ele>7.7</ele>
        <time>2023-10-11T12:19:40Z</time>
      </trkpt>
      <trkpt lat="49.24145" lon="-0.09368">
        <ele>7.7</ele>
        <time>2023-10-11T12:19:41Z</time>
      </trkpt>
      <trkpt lat="49.24144" lon="-0.09356">
        <ele>7.6</ele>
        <time>2023-10-11T12:19:42Z</time>
      </trkpt>
      <trkpt lat="49.24142" lon="-0.09344">
        <ele>7.6</ele>
        <time>2023-10-11T12:19:43Z</time>
      </trkpt>
      <trkpt lat="49.24141" lon="-0.09333">
        <ele>7.5</ele>
        <time>2023-10-11T12:19:44Z</time>
      </trkpt>
      <trkpt lat="49.24139" lon="-0.09321">
        <ele>7.5</ele>
        <time>2023-10-11T12:19:45Z</time>
      </trkpt>
      <trkpt lat="49.24138" lon="-0.09309">
        <ele>7.4</ele>
        <time>2023-10-11T12:19:46Z</time>
      </trkpt>
      <trkpt lat="49.24137" lon="-0.09297">
        <ele>7.4</ele>
        <time>2023-10-11T12:19:47Z</time>
      </trkpt>
      <trkpt lat="49.24135" lon="-0.09285">
        <ele>7.3</ele>
        <time>2023-10-11T12:19:48Z</time>
      </trkpt>
      <trkpt lat="49.24134" lon="-0.09273">
        <ele>7.3</ele>
        <time>2023-10-11T12:19:49Z</time>
      </trkpt>
      <trkpt lat="49.24133" lon="-0.0926">
        <ele>7.3</ele>
        <time>2023-10-11T12:19:50Z</time>
      </trkpt>
      <trkpt lat="49.24131" lon="-0.09248">
        <ele>7.3</ele>
        <time>2023-10-11T12:19:51Z</time>
      </trkpt>
      <trkpt lat="49.2413" lon="-0.09236">
        <ele>7.3</ele>
        <time>2023-10-11T12:19:52Z</time>
      </trkpt>
      <trkpt lat="49.24128" lon="-0.09224">
        <ele>7.3</ele>
        <time>2023-10-11T12:19:53Z</time>
      </trkpt>
      <trkpt lat="49.24126" lon="-0.09212">
        <ele>7.2</ele>
        <time>2023-10-11T12:19:54Z</time>
      </trkpt>
      <trkpt lat="49.24124" lon="-0.09201">
        <ele>7.2</ele>
        <time>2023-10-11T12:19:55Z</time>
      </trkpt>
      <trkpt lat="49.24122" lon="-0.09189">
        <ele>7.2</ele>
        <time>2023-10-11T12:19:56Z</time>
      </trkpt>
      <trkpt lat="49.24119" lon="-0.09178">
        <ele>7.2</ele>
        <time>2023-10-11T12:19:57Z</time>
      </trkpt>
      <trkpt lat="49.24117" lon="-0.09167">
        <ele>7.1</ele>
        <time>2023-10-11T12:19:58Z</time>
      </trkpt>
      <trkpt lat="49.24114" lon="-0.09156">
        <ele>7.1</ele>
        <time>2023-10-11T12:19:59Z</time>
      </trkpt>
      <trkpt lat="49.24111" lon="-0.09145">
        <ele>7.1</ele>
        <time>2023-10-11T12:20:00Z</time>
      </trkpt>
      <trkpt lat="49.24107" lon="-0.09134">
        <ele>7.1</ele>
        <time>2023-10-11T12:20:01Z</time>
      </trkpt>
      <trkpt lat="49.24104" lon="-0.09123">
        <ele>7.1</ele>
        <time>2023-10-11T12:20:02Z</time>
      </trkpt>
      <trkpt lat="49.24101" lon="-0.09112">
        <ele>7.1</ele>
        <time>2023-10-11T12:20:03Z</time>
      </trkpt>
      <trkpt lat="49.24098" lon="-0.09102">
        <ele>7.1</ele>
        <time>2023-10-11T12:20:04Z</time>
      </trkpt>
      <trkpt lat="49.24094" lon="-0.09091">
        <ele>7.1</ele>
        <time>2023-10-11T12:20:05Z</time>
      </trkpt>
      <trkpt lat="49.2409" lon="-0.0908">
        <ele>7.1</ele>
        <time>2023-10-11T12:20:06Z</time>
      </trkpt>
      <trkpt lat="49.24086" lon="-0.0907">
        <ele>7.1</ele>
        <time>2023-10-11T12:20:07Z</time>
      </trkpt>
      <trkpt lat="49.24081" lon="-0.09062">
        <ele>7.1</ele>
        <time>2023-10-11T12:20:08Z</time>
      </trkpt>
      <trkpt lat="49.24075" lon="-0.09054">
        <ele>7.1</ele>
        <time>2023-10-11T12:20:09Z</time>
      </trkpt>
      <trkpt lat="49.24068" lon="-0.09047">
        <ele>7.1</ele>
        <time>2023-10-11T12:20:10Z</time>
      </trkpt>
      <trkpt lat="49.24061" lon="-0.09041">
        <ele>7.1</ele>
        <time>2023-10-11T12:20:11Z</time>
      </trkpt>
      <trkpt lat="49.24054" lon="-0.09037">
        <ele>7.1</ele>
        <time>2023-10-11T12:20:12Z</time>
      </trkpt>
      <trkpt lat="49.24047" lon="-0.09033">
        <ele>7.1</ele>
        <time>2023-10-11T12:20:13Z</time>
      </trkpt>
      <trkpt lat="49.2404" lon="-0.09029">
        <ele>7.1</ele>
        <time>2023-10-11T12:20:14Z</time>
      </trkpt>
      <trkpt lat="49.24033" lon="-0.09025">
        <ele>7.1</ele>
        <time>2023-10-11T12:20:15Z</time>
      </trkpt>
      <trkpt lat="49.24026" lon="-0.0902">
        <ele>7.1</ele>
        <time>2023-10-11T12:20:16Z</time>
      </trkpt>
      <trkpt lat="49.24019" lon="-0.09014">
        <ele>7.1</ele>
        <time>2023-10-11T12:20:17Z</time>
      </trkpt>
      <trkpt lat="49.24013" lon="-0.09007">
        <ele>7.1</ele>
        <time>2023-10-11T12:20:18Z</time>
      </trkpt>
      <trkpt lat="49.24007" lon="-0.08999">
        <ele>7.1</ele>
        <time>2023-10-11T12:20:19Z</time>
      </trkpt>
      <trkpt lat="49.24002" lon="-0.08991">
        <ele>7.1</ele>
        <time>2023-10-11T12:20:20Z</time>
      </trkpt>
      <trkpt lat="49.23996" lon="-0.08983">
        <ele>7.1</ele>
        <time>2023-10-11T12:20:21Z</time>
      </trkpt>
      <trkpt lat="49.23991" lon="-0.08975">
        <ele>7.1</ele>
        <time>2023-10-11T12:20:22Z</time>
      </trkpt>
      <trkpt lat="49.23986" lon="-0.08967">
        <ele>7.2</ele>
        <time>2023-10-11T12:20:23Z</time>
      </trkpt>
      <trkpt lat="49.23981" lon="-0.08958">
        <ele>7.2</ele>
        <time>2023-10-11T12:20:24Z</time>
      </trkpt>
      <trkpt lat="49.23976" lon="-0.08949">
        <ele>7.2</ele>
        <time>2023-10-11T12:20:25Z</time>
      </trkpt>
      <trkpt lat="49.23972" lon="-0.08939">
        <ele>7.2</ele>
        <time>2023-10-11T12:20:26Z</time>
      </trkpt>
      <trkpt lat="49.23968" lon="-0.08928">
        <ele>7.2</ele>
        <time>2023-10-11T12:20:27Z</time>
      </trkpt>
      <trkpt lat="49.23966" lon="-0.08917">
        <ele>7.3</ele>
        <time>2023-10-11T12:20:28Z</time>
      </trkpt>
      <trkpt lat="49.23964" lon="-0.08905">
        <ele>7.3</ele>
        <time>2023-10-11T12:20:29Z</time>
      </trkpt>
      <trkpt lat="49.23962" lon="-0.08893">
        <ele>7.3</ele>
        <time>2023-10-11T12:20:30Z</time>
      </trkpt>
      <trkpt lat="49.23961" lon="-0.08881">
        <ele>7.3</ele>
        <time>2023-10-11T12:20:31Z</time>
      </trkpt>
      <trkpt lat="49.2396" lon="-0.0887">
        <ele>7.4</ele>
        <time>2023-10-11T12:20:32Z</time>
      </trkpt>
      <trkpt lat="49.23959" lon="-0.08858">
        <ele>7.4</ele>
        <time>2023-10-11T12:20:33Z</time>
      </trkpt>
      <trkpt lat="49.23957" lon="-0.08846">
        <ele>7.4</ele>
        <time>2023-10-11T12:20:34Z</time>
      </trkpt>
      <trkpt lat="49.23956" lon="-0.08835">
        <ele>7.4</ele>
        <time>2023-10-11T12:20:35Z</time>
      </trkpt>
      <trkpt lat="49.23954" lon="-0.08823">
        <ele>7.5</ele>
        <time>2023-10-11T12:20:36Z</time>
      </trkpt>
      <trkpt lat="49.23952" lon="-0.08812">
        <ele>7.5</ele>
        <time>2023-10-11T12:20:37Z</time>
      </trkpt>
      <trkpt lat="49.2395" lon="-0.08801">
        <ele>7.5</ele>
        <time>2023-10-11T12:20:38Z</time>
      </trkpt>
      <trkpt lat="49.23947" lon="-0.08789">
        <ele>7.5</ele>
        <time>2023-10-11T12:20:39Z</time>
      </trkpt>
      <trkpt lat="49.23945" lon="-0.08778">
        <ele>7.5</ele>
        <time>2023-10-11T12:20:40Z</time>
      </trkpt>
      <trkpt lat="49.23942" lon="-0.08767">
        <ele>7.5</ele>
        <time>2023-10-11T12:20:41Z</time>
      </trkpt>
      <trkpt lat="49.2394" lon="-0.08756">
        <ele>7.5</ele>
        <time>2023-10-11T12:20:42Z</time>
      </trkpt>
      <trkpt lat="49.23937" lon="-0.08745">
        <ele>7.5</ele>
        <time>2023-10-11T12:20:43Z</time>
      </trkpt>
      <trkpt lat="49.23934" lon="-0.08734">
        <ele>7.5</ele>
        <time>2023-10-11T12:20:44Z</time>
      </trkpt>
      <trkpt lat="49.23932" lon="-0.08723">
        <ele>7.5</ele>
        <time>2023-10-11T12:20:45Z</time>
      </trkpt>
      <trkpt lat="49.23929" lon="-0.08711">
        <ele>7.5</ele>
        <time>2023-10-11T12:20:46Z</time>
      </trkpt>
      <trkpt lat="49.23927" lon="-0.087">
        <ele>7.5</ele>
        <time>2023-10-11T12:20:47Z</time>
      </trkpt>
      <trkpt lat="49.23925" lon="-0.08689">
        <ele>7.5</ele>
        <time>2023-10-11T12:20:48Z</time>
      </trkpt>
      <trkpt lat="49.23924" lon="-0.08677">
        <ele>7.5</ele>
        <time>2023-10-11T12:20:49Z</time>
      </trkpt>
      <trkpt lat="49.23922" lon="-0.08665">
        <ele>7.6</ele>
        <time>2023-10-11T12:20:50Z</time>
      </trkpt>
      <trkpt lat="49.23921" lon="-0.08653">
        <ele>7.6</ele>
        <time>2023-10-11T12:20:51Z</time>
      </trkpt>
      <trkpt lat="49.2392" lon="-0.08642">
        <ele>7.6</ele>
        <time>2023-10-11T12:20:52Z</time>
      </trkpt>
      <trkpt lat="49.23918" lon="-0.0863">
        <ele>7.6</ele>
        <time>2023-10-11T12:20:53Z</time>
      </trkpt>
      <trkpt lat="49.23917" lon="-0.08619">
        <ele>7.6</ele>
        <time>2023-10-11T12:20:54Z</time>
      </trkpt>
      <trkpt lat="49.23916" lon="-0.08607">
        <ele>7.6</ele>
        <time>2023-10-11T12:20:55Z</time>
      </trkpt>
      <trkpt lat="49.23914" lon="-0.08596">
        <ele>7.6</ele>
        <time>2023-10-11T12:20:56Z</time>
      </trkpt>
      <trkpt lat="49.23913" lon="-0.08584">
        <ele>7.6</ele>
        <time>2023-10-11T12:20:57Z</time>
      </trkpt>
      <trkpt lat="49.2391" lon="-0.08572">
        <ele>7.6</ele>
        <time>2023-10-11T12:20:58Z</time>
      </trkpt>
      <trkpt lat="49.23908" lon="-0.08561">
        <ele>7.7</ele>
        <time>2023-10-11T12:20:59Z</time>
      </trkpt>
      <trkpt lat="49.23905" lon="-0.0855">
        <ele>7.6</ele>
        <time>2023-10-11T12:21:00Z</time>
      </trkpt>
      <trkpt lat="49.23901" lon="-0.08539">
        <ele>7.6</ele>
        <time>2023-10-11T12:21:01Z</time>
      </trkpt>
      <trkpt lat="49.23898" lon="-0.08528">
        <ele>7.6</ele>
        <time>2023-10-11T12:21:02Z</time>
      </trkpt>
      <trkpt lat="49.23894" lon="-0.08518">
        <ele>7.6</ele>
        <time>2023-10-11T12:21:03Z</time>
      </trkpt>
      <trkpt lat="49.23891" lon="-0.08507">
        <ele>7.6</ele>
        <time>2023-10-11T12:21:04Z</time>
      </trkpt>
      <trkpt lat="49.23888" lon="-0.08496">
        <ele>7.6</ele>
        <time>2023-10-11T12:21:05Z</time>
      </trkpt>
      <trkpt lat="49.23885" lon="-0.08485">
        <ele>7.6</ele>
        <time>2023-10-11T12:21:06Z</time>
      </trkpt>
      <trkpt lat="49.23882" lon="-0.08474">
        <ele>7.6</ele>
        <time>2023-10-11T12:21:07Z</time>
      </trkpt>
      <trkpt lat="49.2388" lon="-0.08463">
        <ele>7.6</ele>
        <time>2023-10-11T12:21:08Z</time>
      </trkpt>
      <trkpt lat="49.23878" lon="-0.08452">
        <ele>7.6</ele>
        <time>2023-10-11T12:21:09Z</time>
      </trkpt>
      <trkpt lat="49.23876" lon="-0.0844">
        <ele>7.6</ele>
        <time>2023-10-11T12:21:10Z</time>
      </trkpt>
      <trkpt lat="49.23875" lon="-0.08429">
        <ele>7.7</ele>
        <time>2023-10-11T12:21:11Z</time>
      </trkpt>
      <trkpt lat="49.23875" lon="-0.08417">
        <ele>7.7</ele>
        <time>2023-10-11T12:21:12Z</time>
      </trkpt>
      <trkpt lat="49.23875" lon="-0.08405">
        <ele>7.7</ele>
        <time>2023-10-11T12:21:13Z</time>
      </trkpt>
      <trkpt lat="49.23875" lon="-0.08393">
        <ele>7.7</ele>
        <time>2023-10-11T12:21:14Z</time>
      </trkpt>
      <trkpt lat="49.23876" lon="-0.08381">
        <ele>7.7</ele>
        <time>2023-10-11T12:21:15Z</time>
      </trkpt>
      <trkpt lat="49.23877" lon="-0.08369">
        <ele>7.7</ele>
        <time>2023-10-11T12:21:16Z</time>
      </trkpt>
      <trkpt lat="49.23878" lon="-0.08357">
        <ele>7.7</ele>
        <time>2023-10-11T12:21:17Z</time>
      </trkpt>
      <trkpt lat="49.23879" lon="-0.08345">
        <ele>7.8</ele>
        <time>2023-10-11T12:21:18Z</time>
      </trkpt>
      <trkpt lat="49.23879" lon="-0.08333">
        <ele>7.9</ele>
        <time>2023-10-11T12:21:19Z</time>
      </trkpt>
      <trkpt lat="49.23879" lon="-0.08322">
        <ele>7.9</ele>
        <time>2023-10-11T12:21:20Z</time>
      </trkpt>
      <trkpt lat="49.23878" lon="-0.0831">
        <ele>8</ele>
        <time>2023-10-11T12:21:21Z</time>
      </trkpt>
      <trkpt lat="49.23877" lon="-0.08298">
        <ele>8.1</ele>
        <time>2023-10-11T12:21:22Z</time>
      </trkpt>
      <trkpt lat="49.23876" lon="-0.08287">
        <ele>8.2</ele>
        <time>2023-10-11T12:21:23Z</time>
      </trkpt>
      <trkpt lat="49.23873" lon="-0.08276">
        <ele>8.2</ele>
        <time>2023-10-11T12:21:24Z</time>
      </trkpt>
      <trkpt lat="49.2387" lon="-0.08266">
        <ele>8.2</ele>
        <time>2023-10-11T12:21:25Z</time>
      </trkpt>
      <trkpt lat="49.23866" lon="-0.08257">
        <ele>8.2</ele>
        <time>2023-10-11T12:21:26Z</time>
      </trkpt>
      <trkpt lat="49.2386" lon="-0.08248">
        <ele>8.2</ele>
        <time>2023-10-11T12:21:27Z</time>
      </trkpt>
      <trkpt lat="49.23854" lon="-0.0824">
        <ele>8</ele>
        <time>2023-10-11T12:21:28Z</time>
      </trkpt>
      <trkpt lat="49.23848" lon="-0.08232">
        <ele>7.8</ele>
        <time>2023-10-11T12:21:29Z</time>
      </trkpt>
      <trkpt lat="49.23842" lon="-0.08224">
        <ele>7.6</ele>
        <time>2023-10-11T12:21:30Z</time>
      </trkpt>
      <trkpt lat="49.23836" lon="-0.08215">
        <ele>7.5</ele>
        <time>2023-10-11T12:21:31Z</time>
      </trkpt>
      <trkpt lat="49.2383" lon="-0.08207">
        <ele>7.3</ele>
        <time>2023-10-11T12:21:32Z</time>
      </trkpt>
      <trkpt lat="49.23824" lon="-0.08198">
        <ele>7.2</ele>
        <time>2023-10-11T12:21:33Z</time>
      </trkpt>
      <trkpt lat="49.23818" lon="-0.08189">
        <ele>7</ele>
        <time>2023-10-11T12:21:34Z</time>
      </trkpt>
      <trkpt lat="49.23811" lon="-0.08181">
        <ele>6.9</ele>
        <time>2023-10-11T12:21:35Z</time>
      </trkpt>
      <trkpt lat="49.23804" lon="-0.08173">
        <ele>6.7</ele>
        <time>2023-10-11T12:21:36Z</time>
      </trkpt>
      <trkpt lat="49.23798" lon="-0.08164">
        <ele>6.7</ele>
        <time>2023-10-11T12:21:37Z</time>
      </trkpt>
      <trkpt lat="49.23791" lon="-0.08156">
        <ele>6.6</ele>
        <time>2023-10-11T12:21:38Z</time>
      </trkpt>
      <trkpt lat="49.23784" lon="-0.08148">
        <ele>6.5</ele>
        <time>2023-10-11T12:21:39Z</time>
      </trkpt>
      <trkpt lat="49.23777" lon="-0.0814">
        <ele>6.4</ele>
        <time>2023-10-11T12:21:40Z</time>
      </trkpt>
      <trkpt lat="49.2377" lon="-0.08133">
        <ele>6.3</ele>
        <time>2023-10-11T12:21:41Z</time>
      </trkpt>
      <trkpt lat="49.23763" lon="-0.08126">
        <ele>6.3</ele>
        <time>2023-10-11T12:21:42Z</time>
      </trkpt>
      <trkpt lat="49.23756" lon="-0.08119">
        <ele>6.2</ele>
        <time>2023-10-11T12:21:43Z</time>
      </trkpt>
      <trkpt lat="49.2375" lon="-0.08111">
        <ele>6.2</ele>
        <time>2023-10-11T12:21:44Z</time>
      </trkpt>
      <trkpt lat="49.23743" lon="-0.08104">
        <ele>6.2</ele>
        <time>2023-10-11T12:21:45Z</time>
      </trkpt>
      <trkpt lat="49.23736" lon="-0.08097">
        <ele>6.1</ele>
        <time>2023-10-11T12:21:46Z</time>
      </trkpt>
      <trkpt lat="49.2373" lon="-0.0809">
        <ele>6.2</ele>
        <time>2023-10-11T12:21:47Z</time>
      </trkpt>
      <trkpt lat="49.23723" lon="-0.08082">
        <ele>6.2</ele>
        <time>2023-10-11T12:21:48Z</time>
      </trkpt>
      <trkpt lat="49.23718" lon="-0.08073">
        <ele>6.3</ele>
        <time>2023-10-11T12:21:49Z</time>
      </trkpt>
      <trkpt lat="49.23714" lon="-0.08062">
        <ele>6.3</ele>
        <time>2023-10-11T12:21:50Z</time>
      </trkpt>
      <trkpt lat="49.23711" lon="-0.08051">
        <ele>6.4</ele>
        <time>2023-10-11T12:21:51Z</time>
      </trkpt>
      <trkpt lat="49.2371" lon="-0.08039">
        <ele>6.4</ele>
        <time>2023-10-11T12:21:52Z</time>
      </trkpt>
      <trkpt lat="49.2371" lon="-0.08027">
        <ele>6.4</ele>
        <time>2023-10-11T12:21:53Z</time>
      </trkpt>
      <trkpt lat="49.23712" lon="-0.08014">
        <ele>6.4</ele>
        <time>2023-10-11T12:21:54Z</time>
      </trkpt>
      <trkpt lat="49.23713" lon="-0.08002">
        <ele>6.4</ele>
        <time>2023-10-11T12:21:55Z</time>
      </trkpt>
      <trkpt lat="49.23714" lon="-0.0799">
        <ele>6.5</ele>
        <time>2023-10-11T12:21:56Z</time>
      </trkpt>
      <trkpt lat="49.23716" lon="-0.07978">
        <ele>6.5</ele>
        <time>2023-10-11T12:21:57Z</time>
      </trkpt>
      <trkpt lat="49.23717" lon="-0.07967">
        <ele>6.5</ele>
        <time>2023-10-11T12:21:58Z</time>
      </trkpt>
      <trkpt lat="49.23718" lon="-0.07955">
        <ele>6.5</ele>
        <time>2023-10-11T12:21:59Z</time>
      </trkpt>
      <trkpt lat="49.2372" lon="-0.07943">
        <ele>6.6</ele>
        <time>2023-10-11T12:22:00Z</time>
      </trkpt>
      <trkpt lat="49.23721" lon="-0.0793">
        <ele>6.6</ele>
        <time>2023-10-11T12:22:01Z</time>
      </trkpt>
      <trkpt lat="49.23723" lon="-0.07917">
        <ele>6.6</ele>
        <time>2023-10-11T12:22:02Z</time>
      </trkpt>
      <trkpt lat="49.23725" lon="-0.07905">
        <ele>6.6</ele>
        <time>2023-10-11T12:22:03Z</time>
      </trkpt>
      <trkpt lat="49.23726" lon="-0.07893">
        <ele>6.7</ele>
        <time>2023-10-11T12:22:04Z</time>
      </trkpt>
      <trkpt lat="49.23728" lon="-0.07881">
        <ele>6.8</ele>
        <time>2023-10-11T12:22:05Z</time>
      </trkpt>
      <trkpt lat="49.23729" lon="-0.0787">
        <ele>6.8</ele>
        <time>2023-10-11T12:22:06Z</time>
      </trkpt>
      <trkpt lat="49.2373" lon="-0.07858">
        <ele>6.9</ele>
        <time>2023-10-11T12:22:07Z</time>
      </trkpt>
      <trkpt lat="49.23732" lon="-0.07847">
        <ele>6.9</ele>
        <time>2023-10-11T12:22:08Z</time>
      </trkpt>
      <trkpt lat="49.23732" lon="-0.07834">
        <ele>6.9</ele>
        <time>2023-10-11T12:22:09Z</time>
      </trkpt>
      <trkpt lat="49.23732" lon="-0.07822">
        <ele>7</ele>
        <time>2023-10-11T12:22:10Z</time>
      </trkpt>
      <trkpt lat="49.2373" lon="-0.0781">
        <ele>7</ele>
        <time>2023-10-11T12:22:11Z</time>
      </trkpt>
      <trkpt lat="49.23727" lon="-0.07798">
        <ele>7.1</ele>
        <time>2023-10-11T12:22:12Z</time>
      </trkpt>
      <trkpt lat="49.23724" lon="-0.07787">
        <ele>7.1</ele>
        <time>2023-10-11T12:22:13Z</time>
      </trkpt>
      <trkpt lat="49.23721" lon="-0.07776">
        <ele>7.2</ele>
        <time>2023-10-11T12:22:14Z</time>
      </trkpt>
      <trkpt lat="49.23718" lon="-0.07766">
        <ele>7.2</ele>
        <time>2023-10-11T12:22:15Z</time>
      </trkpt>
      <trkpt lat="49.23715" lon="-0.07754">
        <ele>7.2</ele>
        <time>2023-10-11T12:22:16Z</time>
      </trkpt>
      <trkpt lat="49.23712" lon="-0.07744">
        <ele>7.2</ele>
        <time>2023-10-11T12:22:17Z</time>
      </trkpt>
      <trkpt lat="49.23709" lon="-0.07732">
        <ele>7.2</ele>
        <time>2023-10-11T12:22:18Z</time>
      </trkpt>
      <trkpt lat="49.23707" lon="-0.07721">
        <ele>7.3</ele>
        <time>2023-10-11T12:22:19Z</time>
      </trkpt>
      <trkpt lat="49.23707" lon="-0.07709">
        <ele>7.3</ele>
        <time>2023-10-11T12:22:20Z</time>
      </trkpt>
      <trkpt lat="49.23707" lon="-0.07697">
        <ele>7.3</ele>
        <time>2023-10-11T12:22:21Z</time>
      </trkpt>
      <trkpt lat="49.23707" lon="-0.07684">
        <ele>7.3</ele>
        <time>2023-10-11T12:22:22Z</time>
      </trkpt>
      <trkpt lat="49.23708" lon="-0.07673">
        <ele>7.3</ele>
        <time>2023-10-11T12:22:23Z</time>
      </trkpt>
      <trkpt lat="49.23708" lon="-0.07661">
        <ele>7.3</ele>
        <time>2023-10-11T12:22:24Z</time>
      </trkpt>
      <trkpt lat="49.23709" lon="-0.07648">
        <ele>7.4</ele>
        <time>2023-10-11T12:22:25Z</time>
      </trkpt>
      <trkpt lat="49.2371" lon="-0.07636">
        <ele>7.4</ele>
        <time>2023-10-11T12:22:26Z</time>
      </trkpt>
      <trkpt lat="49.23711" lon="-0.07623">
        <ele>7.4</ele>
        <time>2023-10-11T12:22:27Z</time>
      </trkpt>
      <trkpt lat="49.23712" lon="-0.07611">
        <ele>7.4</ele>
        <time>2023-10-11T12:22:28Z</time>
      </trkpt>
      <trkpt lat="49.23712" lon="-0.07599">
        <ele>7.5</ele>
        <time>2023-10-11T12:22:29Z</time>
      </trkpt>
      <trkpt lat="49.23712" lon="-0.07587">
        <ele>7.5</ele>
        <time>2023-10-11T12:22:30Z</time>
      </trkpt>
      <trkpt lat="49.23711" lon="-0.07575">
        <ele>7.5</ele>
        <time>2023-10-11T12:22:31Z</time>
      </trkpt>
      <trkpt lat="49.2371" lon="-0.07563">
        <ele>7.5</ele>
        <time>2023-10-11T12:22:32Z</time>
      </trkpt>
      <trkpt lat="49.23709" lon="-0.07551">
        <ele>7.5</ele>
        <time>2023-10-11T12:22:33Z</time>
      </trkpt>
      <trkpt lat="49.23709" lon="-0.07539">
        <ele>7.5</ele>
        <time>2023-10-11T12:22:34Z</time>
      </trkpt>
      <trkpt lat="49.2371" lon="-0.07527">
        <ele>7.5</ele>
        <time>2023-10-11T12:22:35Z</time>
      </trkpt>
      <trkpt lat="49.23712" lon="-0.07515">
        <ele>7.5</ele>
        <time>2023-10-11T12:22:36Z</time>
      </trkpt>
      <trkpt lat="49.23713" lon="-0.07503">
        <ele>7.5</ele>
        <time>2023-10-11T12:22:37Z</time>
      </trkpt>
      <trkpt lat="49.23715" lon="-0.07492">
        <ele>7.5</ele>
        <time>2023-10-11T12:22:38Z</time>
      </trkpt>
      <trkpt lat="49.23716" lon="-0.07479">
        <ele>7.5</ele>
        <time>2023-10-11T12:22:39Z</time>
      </trkpt>
      <trkpt lat="49.23717" lon="-0.07467">
        <ele>7.6</ele>
        <time>2023-10-11T12:22:40Z</time>
      </trkpt>
      <trkpt lat="49.23717" lon="-0.07455">
        <ele>7.6</ele>
        <time>2023-10-11T12:22:41Z</time>
      </trkpt>
      <trkpt lat="49.23717" lon="-0.07442">
        <ele>7.6</ele>
        <time>2023-10-11T12:22:42Z</time>
      </trkpt>
      <trkpt lat="49.23717" lon="-0.0743">
        <ele>7.6</ele>
        <time>2023-10-11T12:22:43Z</time>
      </trkpt>
      <trkpt lat="49.23716" lon="-0.07417">
        <ele>7.6</ele>
        <time>2023-10-11T12:22:44Z</time>
      </trkpt>
      <trkpt lat="49.23714" lon="-0.07405">
        <ele>7.6</ele>
        <time>2023-10-11T12:22:45Z</time>
      </trkpt>
      <trkpt lat="49.23713" lon="-0.07393">
        <ele>7.6</ele>
        <time>2023-10-11T12:22:46Z</time>
      </trkpt>
      <trkpt lat="49.23712" lon="-0.07381">
        <ele>7.5</ele>
        <time>2023-10-11T12:22:47Z</time>
      </trkpt>
      <trkpt lat="49.23711" lon="-0.07369">
        <ele>7.5</ele>
        <time>2023-10-11T12:22:48Z</time>
      </trkpt>
      <trkpt lat="49.23709" lon="-0.07357">
        <ele>7.5</ele>
        <time>2023-10-11T12:22:49Z</time>
      </trkpt>
      <trkpt lat="49.23707" lon="-0.07346">
        <ele>7.5</ele>
        <time>2023-10-11T12:22:50Z</time>
      </trkpt>
      <trkpt lat="49.23705" lon="-0.07334">
        <ele>7.5</ele>
        <time>2023-10-11T12:22:51Z</time>
      </trkpt>
      <trkpt lat="49.23703" lon="-0.07322">
        <ele>7.5</ele>
        <time>2023-10-11T12:22:52Z</time>
      </trkpt>
      <trkpt lat="49.23701" lon="-0.07311">
        <ele>7.5</ele>
        <time>2023-10-11T12:22:53Z</time>
      </trkpt>
      <trkpt lat="49.23699" lon="-0.073">
        <ele>7.5</ele>
        <time>2023-10-11T12:22:54Z</time>
      </trkpt>
      <trkpt lat="49.23698" lon="-0.07288">
        <ele>7.5</ele>
        <time>2023-10-11T12:22:55Z</time>
      </trkpt>
      <trkpt lat="49.23696" lon="-0.07276">
        <ele>7.5</ele>
        <time>2023-10-11T12:22:56Z</time>
      </trkpt>
      <trkpt lat="49.23695" lon="-0.07264">
        <ele>7.6</ele>
        <time>2023-10-11T12:22:57Z</time>
      </trkpt>
      <trkpt lat="49.23694" lon="-0.07252">
        <ele>7.6</ele>
        <time>2023-10-11T12:22:58Z</time>
      </trkpt>
      <trkpt lat="49.23693" lon="-0.07239">
        <ele>7.6</ele>
        <time>2023-10-11T12:22:59Z</time>
      </trkpt>
      <trkpt lat="49.23692" lon="-0.07227">
        <ele>7.6</ele>
        <time>2023-10-11T12:23:00Z</time>
      </trkpt>
      <trkpt lat="49.23691" lon="-0.07215">
        <ele>7.6</ele>
        <time>2023-10-11T12:23:01Z</time>
      </trkpt>
      <trkpt lat="49.23689" lon="-0.07204">
        <ele>7.6</ele>
        <time>2023-10-11T12:23:02Z</time>
      </trkpt>
      <trkpt lat="49.23686" lon="-0.07193">
        <ele>7.6</ele>
        <time>2023-10-11T12:23:03Z</time>
      </trkpt>
      <trkpt lat="49.23684" lon="-0.07181">
        <ele>7.6</ele>
        <time>2023-10-11T12:23:04Z</time>
      </trkpt>
      <trkpt lat="49.23681" lon="-0.0717">
        <ele>7.6</ele>
        <time>2023-10-11T12:23:05Z</time>
      </trkpt>
      <trkpt lat="49.23677" lon="-0.07159">
        <ele>7.6</ele>
        <time>2023-10-11T12:23:06Z</time>
      </trkpt>
      <trkpt lat="49.23673" lon="-0.07149">
        <ele>7.6</ele>
        <time>2023-10-11T12:23:07Z</time>
      </trkpt>
      <trkpt lat="49.23669" lon="-0.0714">
        <ele>7.6</ele>
        <time>2023-10-11T12:23:08Z</time>
      </trkpt>
      <trkpt lat="49.23664" lon="-0.07131">
        <ele>7.5</ele>
        <time>2023-10-11T12:23:09Z</time>
      </trkpt>
      <trkpt lat="49.23658" lon="-0.07123">
        <ele>7.5</ele>
        <time>2023-10-11T12:23:10Z</time>
      </trkpt>
      <trkpt lat="49.23653" lon="-0.07115">
        <ele>7.5</ele>
        <time>2023-10-11T12:23:11Z</time>
      </trkpt>
      <trkpt lat="49.23647" lon="-0.07108">
        <ele>7.5</ele>
        <time>2023-10-11T12:23:12Z</time>
      </trkpt>
      <trkpt lat="49.23642" lon="-0.071">
        <ele>7.5</ele>
        <time>2023-10-11T12:23:13Z</time>
      </trkpt>
      <trkpt lat="49.23636" lon="-0.07093">
        <ele>7.5</ele>
        <time>2023-10-11T12:23:14Z</time>
      </trkpt>
      <trkpt lat="49.23629" lon="-0.07087">
        <ele>7.5</ele>
        <time>2023-10-11T12:23:15Z</time>
      </trkpt>
      <trkpt lat="49.23623" lon="-0.0708">
        <ele>7.5</ele>
        <time>2023-10-11T12:23:16Z</time>
      </trkpt>
      <trkpt lat="49.23617" lon="-0.07075">
        <ele>7.5</ele>
        <time>2023-10-11T12:23:17Z</time>
      </trkpt>
      <trkpt lat="49.2361" lon="-0.0707">
        <ele>7.5</ele>
        <time>2023-10-11T12:23:18Z</time>
      </trkpt>
      <trkpt lat="49.23603" lon="-0.07065">
        <ele>7.5</ele>
        <time>2023-10-11T12:23:19Z</time>
      </trkpt>
      <trkpt lat="49.23596" lon="-0.0706">
        <ele>7.5</ele>
        <time>2023-10-11T12:23:20Z</time>
      </trkpt>
      <trkpt lat="49.2359" lon="-0.07055">
        <ele>7.5</ele>
        <time>2023-10-11T12:23:21Z</time>
      </trkpt>
      <trkpt lat="49.23583" lon="-0.0705">
        <ele>7.5</ele>
        <time>2023-10-11T12:23:22Z</time>
      </trkpt>
      <trkpt lat="49.23576" lon="-0.07046">
        <ele>7.5</ele>
        <time>2023-10-11T12:23:23Z</time>
      </trkpt>
      <trkpt lat="49.2357" lon="-0.07041">
        <ele>7.4</ele>
        <time>2023-10-11T12:23:24Z</time>
      </trkpt>
      <trkpt lat="49.23563" lon="-0.07037">
        <ele>7.4</ele>
        <time>2023-10-11T12:23:25Z</time>
      </trkpt>
      <trkpt lat="49.23556" lon="-0.07033">
        <ele>7.4</ele>
        <time>2023-10-11T12:23:26Z</time>
      </trkpt>
      <trkpt lat="49.23549" lon="-0.07028">
        <ele>7.4</ele>
        <time>2023-10-11T12:23:27Z</time>
      </trkpt>
      <trkpt lat="49.23542" lon="-0.07023">
        <ele>7.4</ele>
        <time>2023-10-11T12:23:28Z</time>
      </trkpt>
      <trkpt lat="49.23535" lon="-0.07019">
        <ele>7.4</ele>
        <time>2023-10-11T12:23:29Z</time>
      </trkpt>
      <trkpt lat="49.23527" lon="-0.07014">
        <ele>7.4</ele>
        <time>2023-10-11T12:23:30Z</time>
      </trkpt>
      <trkpt lat="49.2352" lon="-0.0701">
        <ele>7.4</ele>
        <time>2023-10-11T12:23:31Z</time>
      </trkpt>
      <trkpt lat="49.23512" lon="-0.07006">
        <ele>7.4</ele>
        <time>2023-10-11T12:23:32Z</time>
      </trkpt>
      <trkpt lat="49.23505" lon="-0.07001">
        <ele>7.4</ele>
        <time>2023-10-11T12:23:33Z</time>
      </trkpt>
      <trkpt lat="49.23498" lon="-0.06996">
        <ele>7.5</ele>
        <time>2023-10-11T12:23:34Z</time>
      </trkpt>
      <trkpt lat="49.23491" lon="-0.06992">
        <ele>7.5</ele>
        <time>2023-10-11T12:23:35Z</time>
      </trkpt>
      <trkpt lat="49.23483" lon="-0.06987">
        <ele>7.6</ele>
        <time>2023-10-11T12:23:36Z</time>
      </trkpt>
      <trkpt lat="49.23476" lon="-0.06982">
        <ele>7.6</ele>
        <time>2023-10-11T12:23:37Z</time>
      </trkpt>
      <trkpt lat="49.23468" lon="-0.06977">
        <ele>7.7</ele>
        <time>2023-10-11T12:23:38Z</time>
      </trkpt>
      <trkpt lat="49.2346" lon="-0.06973">
        <ele>7.8</ele>
        <time>2023-10-11T12:23:39Z</time>
      </trkpt>
      <trkpt lat="49.23453" lon="-0.06968">
        <ele>7.9</ele>
        <time>2023-10-11T12:23:40Z</time>
      </trkpt>
      <trkpt lat="49.23445" lon="-0.06964">
        <ele>8</ele>
        <time>2023-10-11T12:23:41Z</time>
      </trkpt>
      <trkpt lat="49.23438" lon="-0.06959">
        <ele>8.1</ele>
        <time>2023-10-11T12:23:42Z</time>
      </trkpt>
      <trkpt lat="49.2343" lon="-0.06955">
        <ele>8.2</ele>
        <time>2023-10-11T12:23:43Z</time>
      </trkpt>
      <trkpt lat="49.23423" lon="-0.06951">
        <ele>8.3</ele>
        <time>2023-10-11T12:23:44Z</time>
      </trkpt>
      <trkpt lat="49.23415" lon="-0.06947">
        <ele>8.5</ele>
        <time>2023-10-11T12:23:45Z</time>
      </trkpt>
      <trkpt lat="49.23408" lon="-0.06944">
        <ele>8.6</ele>
        <time>2023-10-11T12:23:46Z</time>
      </trkpt>
      <trkpt lat="49.23401" lon="-0.0694">
        <ele>8.8</ele>
        <time>2023-10-11T12:23:47Z</time>
      </trkpt>
      <trkpt lat="49.23393" lon="-0.06937">
        <ele>8.9</ele>
        <time>2023-10-11T12:23:48Z</time>
      </trkpt>
      <trkpt lat="49.23386" lon="-0.06933">
        <ele>9.1</ele>
        <time>2023-10-11T12:23:49Z</time>
      </trkpt>
      <trkpt lat="49.23379" lon="-0.06929">
        <ele>9.3</ele>
        <time>2023-10-11T12:23:50Z</time>
      </trkpt>
      <trkpt lat="49.23372" lon="-0.06925">
        <ele>9.4</ele>
        <time>2023-10-11T12:23:51Z</time>
      </trkpt>
      <trkpt lat="49.23366" lon="-0.06921">
        <ele>9.5</ele>
        <time>2023-10-11T12:23:52Z</time>
      </trkpt>
      <trkpt lat="49.23359" lon="-0.06917">
        <ele>9.7</ele>
        <time>2023-10-11T12:23:53Z</time>
      </trkpt>
      <trkpt lat="49.23352" lon="-0.06913">
        <ele>9.8</ele>
        <time>2023-10-11T12:23:54Z</time>
      </trkpt>
      <trkpt lat="49.23345" lon="-0.06909">
        <ele>10</ele>
        <time>2023-10-11T12:23:55Z</time>
      </trkpt>
      <trkpt lat="49.23338" lon="-0.06906">
        <ele>10.1</ele>
        <time>2023-10-11T12:23:56Z</time>
      </trkpt>
      <trkpt lat="49.23331" lon="-0.06902">
        <ele>10.2</ele>
        <time>2023-10-11T12:23:57Z</time>
      </trkpt>
      <trkpt lat="49.23324" lon="-0.06898">
        <ele>10.4</ele>
        <time>2023-10-11T12:23:58Z</time>
      </trkpt>
      <trkpt lat="49.23318" lon="-0.06894">
        <ele>10.5</ele>
        <time>2023-10-11T12:23:59Z</time>
      </trkpt>
      <trkpt lat="49.23311" lon="-0.0689">
        <ele>10.6</ele>
        <time>2023-10-11T12:24:00Z</time>
      </trkpt>
      <trkpt lat="49.23304" lon="-0.06887">
        <ele>10.7</ele>
        <time>2023-10-11T12:24:01Z</time>
      </trkpt>
      <trkpt lat="49.23298" lon="-0.06883">
        <ele>10.8</ele>
        <time>2023-10-11T12:24:02Z</time>
      </trkpt>
      <trkpt lat="49.23291" lon="-0.06879">
        <ele>10.9</ele>
        <time>2023-10-11T12:24:03Z</time>
      </trkpt>
      <trkpt lat="49.23284" lon="-0.06875">
        <ele>10.9</ele>
        <time>2023-10-11T12:24:04Z</time>
      </trkpt>
      <trkpt lat="49.23278" lon="-0.06872">
        <ele>11</ele>
        <time>2023-10-11T12:24:05Z</time>
      </trkpt>
      <trkpt lat="49.23271" lon="-0.06869">
        <ele>11.1</ele>
        <time>2023-10-11T12:24:06Z</time>
      </trkpt>
      <trkpt lat="49.23265" lon="-0.06866">
        <ele>11.1</ele>
        <time>2023-10-11T12:24:07Z</time>
      </trkpt>
      <trkpt lat="49.23258" lon="-0.06862">
        <ele>11.2</ele>
        <time>2023-10-11T12:24:08Z</time>
      </trkpt>
      <trkpt lat="49.23251" lon="-0.06859">
        <ele>11.2</ele>
        <time>2023-10-11T12:24:09Z</time>
      </trkpt>
      <trkpt lat="49.23245" lon="-0.06856">
        <ele>11.3</ele>
        <time>2023-10-11T12:24:10Z</time>
      </trkpt>
      <trkpt lat="49.23238" lon="-0.06853">
        <ele>11.3</ele>
        <time>2023-10-11T12:24:11Z</time>
      </trkpt>
      <trkpt lat="49.23231" lon="-0.0685">
        <ele>11.4</ele>
        <time>2023-10-11T12:24:12Z</time>
      </trkpt>
      <trkpt lat="49.23224" lon="-0.06846">
        <ele>11.4</ele>
        <time>2023-10-11T12:24:13Z</time>
      </trkpt>
      <trkpt lat="49.23218" lon="-0.06843">
        <ele>11.4</ele>
        <time>2023-10-11T12:24:14Z</time>
      </trkpt>
      <trkpt lat="49.23211" lon="-0.0684">
        <ele>11.4</ele>
        <time>2023-10-11T12:24:15Z</time>
      </trkpt>
      <trkpt lat="49.23204" lon="-0.06837">
        <ele>11.4</ele>
        <time>2023-10-11T12:24:16Z</time>
      </trkpt>
      <trkpt lat="49.23198" lon="-0.06834">
        <ele>11.4</ele>
        <time>2023-10-11T12:24:17Z</time>
      </trkpt>
      <trkpt lat="49.23191" lon="-0.06831">
        <ele>11.5</ele>
        <time>2023-10-11T12:24:18Z</time>
      </trkpt>
      <trkpt lat="49.23184" lon="-0.06827">
        <ele>11.5</ele>
        <time>2023-10-11T12:24:19Z</time>
      </trkpt>
      <trkpt lat="49.23176" lon="-0.06824">
        <ele>11.5</ele>
        <time>2023-10-11T12:24:20Z</time>
      </trkpt>
      <trkpt lat="49.23169" lon="-0.06821">
        <ele>11.5</ele>
        <time>2023-10-11T12:24:21Z</time>
      </trkpt>
      <trkpt lat="49.23162" lon="-0.06818">
        <ele>11.5</ele>
        <time>2023-10-11T12:24:22Z</time>
      </trkpt>
      <trkpt lat="49.23155" lon="-0.06814">
        <ele>11.6</ele>
        <time>2023-10-11T12:24:23Z</time>
      </trkpt>
      <trkpt lat="49.23148" lon="-0.0681">
        <ele>11.6</ele>
        <time>2023-10-11T12:24:24Z</time>
      </trkpt>
      <trkpt lat="49.23112" lon="-0.06792">
        <ele>12.1</ele>
        <time>2023-10-11T12:24:29Z</time>
      </trkpt>
      <trkpt lat="49.23105" lon="-0.06791">
        <ele>12.2</ele>
        <time>2023-10-11T12:24:30Z</time>
      </trkpt>
      <trkpt lat="49.23099" lon="-0.06786">
        <ele>12.3</ele>
        <time>2023-10-11T12:24:31Z</time>
      </trkpt>
      <trkpt lat="49.23092" lon="-0.06782">
        <ele>12.5</ele>
        <time>2023-10-11T12:24:32Z</time>
      </trkpt>
      <trkpt lat="49.23086" lon="-0.06779">
        <ele>12.7</ele>
        <time>2023-10-11T12:24:33Z</time>
      </trkpt>
      <trkpt lat="49.23079" lon="-0.06776">
        <ele>12.9</ele>
        <time>2023-10-11T12:24:34Z</time>
      </trkpt>
      <trkpt lat="49.23073" lon="-0.06773">
        <ele>13</ele>
        <time>2023-10-11T12:24:35Z</time>
      </trkpt>
      <trkpt lat="49.23067" lon="-0.0677">
        <ele>13.3</ele>
        <time>2023-10-11T12:24:36Z</time>
      </trkpt>
      <trkpt lat="49.2306" lon="-0.06767">
        <ele>13.5</ele>
        <time>2023-10-11T12:24:37Z</time>
      </trkpt>
      <trkpt lat="49.23054" lon="-0.06765">
        <ele>13.7</ele>
        <time>2023-10-11T12:24:38Z</time>
      </trkpt>
      <trkpt lat="49.23048" lon="-0.06762">
        <ele>13.9</ele>
        <time>2023-10-11T12:24:39Z</time>
      </trkpt>
      <trkpt lat="49.23041" lon="-0.06759">
        <ele>14.1</ele>
        <time>2023-10-11T12:24:40Z</time>
      </trkpt>
      <trkpt lat="49.23035" lon="-0.06757">
        <ele>14.3</ele>
        <time>2023-10-11T12:24:41Z</time>
      </trkpt>
      <trkpt lat="49.23028" lon="-0.06755">
        <ele>14.5</ele>
        <time>2023-10-11T12:24:42Z</time>
      </trkpt>
      <trkpt lat="49.23022" lon="-0.06754">
        <ele>14.7</ele>
        <time>2023-10-11T12:24:43Z</time>
      </trkpt>
      <trkpt lat="49.23016" lon="-0.06753">
        <ele>14.9</ele>
        <time>2023-10-11T12:24:44Z</time>
      </trkpt>
      <trkpt lat="49.23009" lon="-0.06752">
        <ele>15.1</ele>
        <time>2023-10-11T12:24:45Z</time>
      </trkpt>
      <trkpt lat="49.23003" lon="-0.06753">
        <ele>15.3</ele>
        <time>2023-10-11T12:24:46Z</time>
      </trkpt>
      <trkpt lat="49.22997" lon="-0.06755">
        <ele>15.5</ele>
        <time>2023-10-11T12:24:47Z</time>
      </trkpt>
      <trkpt lat="49.22991" lon="-0.06758">
        <ele>15.7</ele>
        <time>2023-10-11T12:24:48Z</time>
      </trkpt>
      <trkpt lat="49.22985" lon="-0.06761">
        <ele>15.9</ele>
        <time>2023-10-11T12:24:49Z</time>
      </trkpt>
      <trkpt lat="49.22979" lon="-0.06765">
        <ele>16.2</ele>
        <time>2023-10-11T12:24:50Z</time>
      </trkpt>
      <trkpt lat="49.22974" lon="-0.0677">
        <ele>16.4</ele>
        <time>2023-10-11T12:24:51Z</time>
      </trkpt>
      <trkpt lat="49.22969" lon="-0.06775">
        <ele>16.6</ele>
        <time>2023-10-11T12:24:52Z</time>
      </trkpt>
      <trkpt lat="49.22964" lon="-0.06781">
        <ele>16.8</ele>
        <time>2023-10-11T12:24:53Z</time>
      </trkpt>
      <trkpt lat="49.22959" lon="-0.06787">
        <ele>17</ele>
        <time>2023-10-11T12:24:54Z</time>
      </trkpt>
      <trkpt lat="49.22954" lon="-0.06794">
        <ele>17.2</ele>
        <time>2023-10-11T12:24:55Z</time>
      </trkpt>
      <trkpt lat="49.2295" lon="-0.06801">
        <ele>17.5</ele>
        <time>2023-10-11T12:24:56Z</time>
      </trkpt>
      <trkpt lat="49.22946" lon="-0.06808">
        <ele>17.7</ele>
        <time>2023-10-11T12:24:57Z</time>
      </trkpt>
      <trkpt lat="49.22942" lon="-0.06816">
        <ele>17.9</ele>
        <time>2023-10-11T12:24:58Z</time>
      </trkpt>
      <trkpt lat="49.22939" lon="-0.06824">
        <ele>18</ele>
        <time>2023-10-11T12:24:59Z</time>
      </trkpt>
      <trkpt lat="49.22936" lon="-0.06834">
        <ele>18.2</ele>
        <time>2023-10-11T12:25:00Z</time>
      </trkpt>
      <trkpt lat="49.22934" lon="-0.06843">
        <ele>18.4</ele>
        <time>2023-10-11T12:25:01Z</time>
      </trkpt>
      <trkpt lat="49.22931" lon="-0.06852">
        <ele>18.6</ele>
        <time>2023-10-11T12:25:02Z</time>
      </trkpt>
      <trkpt lat="49.22929" lon="-0.06861">
        <ele>18.8</ele>
        <time>2023-10-11T12:25:03Z</time>
      </trkpt>
      <trkpt lat="49.22926" lon="-0.0687">
        <ele>18.9</ele>
        <time>2023-10-11T12:25:04Z</time>
      </trkpt>
      <trkpt lat="49.22923" lon="-0.06879">
        <ele>19.1</ele>
        <time>2023-10-11T12:25:05Z</time>
      </trkpt>
      <trkpt lat="49.22921" lon="-0.06887">
        <ele>19.2</ele>
        <time>2023-10-11T12:25:06Z</time>
      </trkpt>
      <trkpt lat="49.22918" lon="-0.06896">
        <ele>19.4</ele>
        <time>2023-10-11T12:25:07Z</time>
      </trkpt>
      <trkpt lat="49.22914" lon="-0.06904">
        <ele>19.6</ele>
        <time>2023-10-11T12:25:08Z</time>
      </trkpt>
      <trkpt lat="49.2291" lon="-0.06912">
        <ele>19.8</ele>
        <time>2023-10-11T12:25:09Z</time>
      </trkpt>
      <trkpt lat="49.22906" lon="-0.06919">
        <ele>19.9</ele>
        <time>2023-10-11T12:25:10Z</time>
      </trkpt>
      <trkpt lat="49.22901" lon="-0.06925">
        <ele>20.1</ele>
        <time>2023-10-11T12:25:11Z</time>
      </trkpt>
      <trkpt lat="49.22895" lon="-0.0693">
        <ele>20.4</ele>
        <time>2023-10-11T12:25:12Z</time>
      </trkpt>
      <trkpt lat="49.2289" lon="-0.06935">
        <ele>20.6</ele>
        <time>2023-10-11T12:25:13Z</time>
      </trkpt>
      <trkpt lat="49.22884" lon="-0.06938">
        <ele>20.8</ele>
        <time>2023-10-11T12:25:14Z</time>
      </trkpt>
      <trkpt lat="49.22878" lon="-0.06941">
        <ele>21</ele>
        <time>2023-10-11T12:25:15Z</time>
      </trkpt>
      <trkpt lat="49.22872" lon="-0.06943">
        <ele>21.2</ele>
        <time>2023-10-11T12:25:16Z</time>
      </trkpt>
      <trkpt lat="49.22866" lon="-0.06944">
        <ele>21.4</ele>
        <time>2023-10-11T12:25:17Z</time>
      </trkpt>
      <trkpt lat="49.2286" lon="-0.06945">
        <ele>21.6</ele>
        <time>2023-10-11T12:25:18Z</time>
      </trkpt>
      <trkpt lat="49.22853" lon="-0.06945">
        <ele>21.9</ele>
        <time>2023-10-11T12:25:19Z</time>
      </trkpt>
      <trkpt lat="49.22847" lon="-0.06944">
        <ele>22.1</ele>
        <time>2023-10-11T12:25:20Z</time>
      </trkpt>
      <trkpt lat="49.22841" lon="-0.06943">
        <ele>22.3</ele>
        <time>2023-10-11T12:25:21Z</time>
      </trkpt>
      <trkpt lat="49.22835" lon="-0.06942">
        <ele>22.5</ele>
        <time>2023-10-11T12:25:22Z</time>
      </trkpt>
      <trkpt lat="49.22829" lon="-0.06941">
        <ele>22.7</ele>
        <time>2023-10-11T12:25:23Z</time>
      </trkpt>
      <trkpt lat="49.22823" lon="-0.06939">
        <ele>22.9</ele>
        <time>2023-10-11T12:25:24Z</time>
      </trkpt>
      <trkpt lat="49.22817" lon="-0.06938">
        <ele>23.1</ele>
        <time>2023-10-11T12:25:25Z</time>
      </trkpt>
      <trkpt lat="49.22811" lon="-0.06937">
        <ele>23.2</ele>
        <time>2023-10-11T12:25:26Z</time>
      </trkpt>
      <trkpt lat="49.22805" lon="-0.06935">
        <ele>23.4</ele>
        <time>2023-10-11T12:25:27Z</time>
      </trkpt>
      <trkpt lat="49.22798" lon="-0.06934">
        <ele>23.5</ele>
        <time>2023-10-11T12:25:28Z</time>
      </trkpt>
      <trkpt lat="49.22792" lon="-0.06932">
        <ele>23.6</ele>
        <time>2023-10-11T12:25:29Z</time>
      </trkpt>
      <trkpt lat="49.22786" lon="-0.0693">
        <ele>23.7</ele>
        <time>2023-10-11T12:25:30Z</time>
      </trkpt>
      <trkpt lat="49.2278" lon="-0.06929">
        <ele>23.8</ele>
        <time>2023-10-11T12:25:31Z</time>
      </trkpt>
      <trkpt lat="49.22774" lon="-0.06928">
        <ele>23.8</ele>
        <time>2023-10-11T12:25:32Z</time>
      </trkpt>
      <trkpt lat="49.22768" lon="-0.06926">
        <ele>23.8</ele>
        <time>2023-10-11T12:25:33Z</time>
      </trkpt>
      <trkpt lat="49.22761" lon="-0.06925">
        <ele>23.8</ele>
        <time>2023-10-11T12:25:34Z</time>
      </trkpt>
      <trkpt lat="49.22754" lon="-0.06924">
        <ele>23.7</ele>
        <time>2023-10-11T12:25:35Z</time>
      </trkpt>
      <trkpt lat="49.22747" lon="-0.06922">
        <ele>23.7</ele>
        <time>2023-10-11T12:25:36Z</time>
      </trkpt>
      <trkpt lat="49.22741" lon="-0.0692">
        <ele>23.6</ele>
        <time>2023-10-11T12:25:37Z</time>
      </trkpt>
      <trkpt lat="49.22734" lon="-0.06919">
        <ele>23.5</ele>
        <time>2023-10-11T12:25:38Z</time>
      </trkpt>
      <trkpt lat="49.22728" lon="-0.06917">
        <ele>23.4</ele>
        <time>2023-10-11T12:25:39Z</time>
      </trkpt>
      <trkpt lat="49.22721" lon="-0.06916">
        <ele>23.2</ele>
        <time>2023-10-11T12:25:40Z</time>
      </trkpt>
      <trkpt lat="49.22715" lon="-0.06914">
        <ele>23.1</ele>
        <time>2023-10-11T12:25:41Z</time>
      </trkpt>
      <trkpt lat="49.22708" lon="-0.06912">
        <ele>23</ele>
        <time>2023-10-11T12:25:42Z</time>
      </trkpt>
      <trkpt lat="49.22702" lon="-0.06911">
        <ele>22.9</ele>
        <time>2023-10-11T12:25:43Z</time>
      </trkpt>
      <trkpt lat="49.22697" lon="-0.06909">
        <ele>22.8</ele>
        <time>2023-10-11T12:25:44Z</time>
      </trkpt>
      <trkpt lat="49.22691" lon="-0.06908">
        <ele>22.7</ele>
        <time>2023-10-11T12:25:45Z</time>
      </trkpt>
      <trkpt lat="49.22684" lon="-0.06907">
        <ele>22.5</ele>
        <time>2023-10-11T12:25:46Z</time>
      </trkpt>
      <trkpt lat="49.22678" lon="-0.06906">
        <ele>22.3</ele>
        <time>2023-10-11T12:25:47Z</time>
      </trkpt>
      <trkpt lat="49.22671" lon="-0.06904">
        <ele>22.1</ele>
        <time>2023-10-11T12:25:48Z</time>
      </trkpt>
      <trkpt lat="49.22665" lon="-0.06902">
        <ele>21.9</ele>
        <time>2023-10-11T12:25:49Z</time>
      </trkpt>
      <trkpt lat="49.22658" lon="-0.06901">
        <ele>21.7</ele>
        <time>2023-10-11T12:25:50Z</time>
      </trkpt>
      <trkpt lat="49.22652" lon="-0.06899">
        <ele>21.4</ele>
        <time>2023-10-11T12:25:51Z</time>
      </trkpt>
      <trkpt lat="49.22645" lon="-0.06898">
        <ele>21.2</ele>
        <time>2023-10-11T12:25:52Z</time>
      </trkpt>
      <trkpt lat="49.22638" lon="-0.06896">
        <ele>20.9</ele>
        <time>2023-10-11T12:25:53Z</time>
      </trkpt>
      <trkpt lat="49.2263" lon="-0.06894">
        <ele>20.6</ele>
        <time>2023-10-11T12:25:54Z</time>
      </trkpt>
      <trkpt lat="49.22623" lon="-0.06893">
        <ele>20.2</ele>
        <time>2023-10-11T12:25:55Z</time>
      </trkpt>
      <trkpt lat="49.22615" lon="-0.06891">
        <ele>19.9</ele>
        <time>2023-10-11T12:25:56Z</time>
      </trkpt>
      <trkpt lat="49.22607" lon="-0.06889">
        <ele>19.6</ele>
        <time>2023-10-11T12:25:57Z</time>
      </trkpt>
      <trkpt lat="49.226" lon="-0.06887">
        <ele>19.4</ele>
        <time>2023-10-11T12:25:58Z</time>
      </trkpt>
      <trkpt lat="49.22592" lon="-0.06885">
        <ele>19.1</ele>
        <time>2023-10-11T12:25:59Z</time>
      </trkpt>
      <trkpt lat="49.22584" lon="-0.06883">
        <ele>18.8</ele>
        <time>2023-10-11T12:26:00Z</time>
      </trkpt>
      <trkpt lat="49.22577" lon="-0.06881">
        <ele>18.6</ele>
        <time>2023-10-11T12:26:01Z</time>
      </trkpt>
      <trkpt lat="49.2257" lon="-0.06879">
        <ele>18.3</ele>
        <time>2023-10-11T12:26:02Z</time>
      </trkpt>
      <trkpt lat="49.22562" lon="-0.06877">
        <ele>18</ele>
        <time>2023-10-11T12:26:03Z</time>
      </trkpt>
      <trkpt lat="49.22555" lon="-0.06875">
        <ele>17.8</ele>
        <time>2023-10-11T12:26:04Z</time>
      </trkpt>
      <trkpt lat="49.22547" lon="-0.06874">
        <ele>17.5</ele>
        <time>2023-10-11T12:26:05Z</time>
      </trkpt>
      <trkpt lat="49.2254" lon="-0.06872">
        <ele>17.3</ele>
        <time>2023-10-11T12:26:06Z</time>
      </trkpt>
      <trkpt lat="49.22532" lon="-0.06871">
        <ele>17.1</ele>
        <time>2023-10-11T12:26:07Z</time>
      </trkpt>
      <trkpt lat="49.22525" lon="-0.0687">
        <ele>16.9</ele>
        <time>2023-10-11T12:26:08Z</time>
      </trkpt>
      <trkpt lat="49.22517" lon="-0.06869">
        <ele>16.7</ele>
        <time>2023-10-11T12:26:09Z</time>
      </trkpt>
      <trkpt lat="49.2251" lon="-0.06867">
        <ele>16.6</ele>
        <time>2023-10-11T12:26:10Z</time>
      </trkpt>
      <trkpt lat="49.22502" lon="-0.06865">
        <ele>16.5</ele>
        <time>2023-10-11T12:26:11Z</time>
      </trkpt>
      <trkpt lat="49.22496" lon="-0.06864">
        <ele>16.4</ele>
        <time>2023-10-11T12:26:12Z</time>
      </trkpt>
      <trkpt lat="49.22489" lon="-0.06863">
        <ele>16.4</ele>
        <time>2023-10-11T12:26:13Z</time>
      </trkpt>
      <trkpt lat="49.22483" lon="-0.06862">
        <ele>16.3</ele>
        <time>2023-10-11T12:26:14Z</time>
      </trkpt>
      <trkpt lat="49.22476" lon="-0.06862">
        <ele>16.4</ele>
        <time>2023-10-11T12:26:15Z</time>
      </trkpt>
      <trkpt lat="49.2247" lon="-0.06861">
        <ele>16.4</ele>
        <time>2023-10-11T12:26:16Z</time>
      </trkpt>
      <trkpt lat="49.22463" lon="-0.06861">
        <ele>16.5</ele>
        <time>2023-10-11T12:26:17Z</time>
      </trkpt>
      <trkpt lat="49.22458" lon="-0.06861">
        <ele>16.6</ele>
        <time>2023-10-11T12:26:18Z</time>
      </trkpt>
      <trkpt lat="49.22455" lon="-0.06862">
        <ele>16.7</ele>
        <time>2023-10-11T12:26:19Z</time>
      </trkpt>
      <trkpt lat="49.22452" lon="-0.06864">
        <ele>16.7</ele>
        <time>2023-10-11T12:26:20Z</time>
      </trkpt>
      <trkpt lat="49.22451" lon="-0.06865">
        <ele>16.7</ele>
        <time>2023-10-11T12:26:21Z</time>
      </trkpt>
      <trkpt lat="49.2245" lon="-0.06866">
        <ele>16.7</ele>
        <time>2023-10-11T12:26:22Z</time>
      </trkpt>
      <trkpt lat="49.22448" lon="-0.06867">
        <ele>16.7</ele>
        <time>2023-10-11T12:26:23Z</time>
      </trkpt>
      <trkpt lat="49.22446" lon="-0.06867">
        <ele>16.7</ele>
        <time>2023-10-11T12:26:24Z</time>
      </trkpt>
      <trkpt lat="49.22446" lon="-0.06867">
        <ele>16.7</ele>
        <time>2023-10-11T12:26:25Z</time>
      </trkpt>
      <trkpt lat="49.22445" lon="-0.06867">
        <ele>16.7</ele>
        <time>2023-10-11T12:26:26Z</time>
      </trkpt>
      <trkpt lat="49.22445" lon="-0.06868">
        <ele>16.7</ele>
        <time>2023-10-11T12:26:27Z</time>
      </trkpt>
      <trkpt lat="49.22444" lon="-0.06868">
        <ele>16.7</ele>
        <time>2023-10-11T12:26:28Z</time>
      </trkpt>
      <trkpt lat="49.22444" lon="-0.06868">
        <ele>16.7</ele>
        <time>2023-10-11T12:26:29Z</time>
      </trkpt>
      <trkpt lat="49.22443" lon="-0.06868">
        <ele>16.7</ele>
        <time>2023-10-11T12:26:30Z</time>
      </trkpt>
      <trkpt lat="49.22443" lon="-0.06868">
        <ele>16.7</ele>
        <time>2023-10-11T12:26:31Z</time>
      </trkpt>
      <trkpt lat="49.22442" lon="-0.06868">
        <ele>16.7</ele>
        <time>2023-10-11T12:26:32Z</time>
      </trkpt>
      <trkpt lat="49.22442" lon="-0.06868">
        <ele>16.6</ele>
        <time>2023-10-11T12:26:33Z</time>
      </trkpt>
      <trkpt lat="49.22441" lon="-0.06868">
        <ele>16.6</ele>
        <time>2023-10-11T12:26:34Z</time>
      </trkpt>
      <trkpt lat="49.22441" lon="-0.06868">
        <ele>16.6</ele>
        <time>2023-10-11T12:26:35Z</time>
      </trkpt>
      <trkpt lat="49.2244" lon="-0.06868">
        <ele>16.6</ele>
        <time>2023-10-11T12:26:40Z</time>
      </trkpt>
      <trkpt lat="49.2244" lon="-0.06868">
        <ele>16.6</ele>
        <time>2023-10-11T12:26:41Z</time>
      </trkpt>
      <trkpt lat="49.22439" lon="-0.06868">
        <ele>16.6</ele>
        <time>2023-10-11T12:26:42Z</time>
      </trkpt>
      <trkpt lat="49.22436" lon="-0.06868">
        <ele>16.5</ele>
        <time>2023-10-11T12:26:43Z</time>
      </trkpt>
      <trkpt lat="49.22432" lon="-0.06867">
        <ele>16.3</ele>
        <time>2023-10-11T12:26:44Z</time>
      </trkpt>
      <trkpt lat="49.22428" lon="-0.06865">
        <ele>16.2</ele>
        <time>2023-10-11T12:26:45Z</time>
      </trkpt>
      <trkpt lat="49.22425" lon="-0.06862">
        <ele>16.1</ele>
        <time>2023-10-11T12:26:46Z</time>
      </trkpt>
      <trkpt lat="49.2242" lon="-0.0686">
        <ele>16</ele>
        <time>2023-10-11T12:26:47Z</time>
      </trkpt>
      <trkpt lat="49.22415" lon="-0.06859">
        <ele>15.8</ele>
        <time>2023-10-11T12:26:48Z</time>
      </trkpt>
      <trkpt lat="49.2241" lon="-0.06857">
        <ele>15.7</ele>
        <time>2023-10-11T12:26:49Z</time>
      </trkpt>
      <trkpt lat="49.22404" lon="-0.06856">
        <ele>15.6</ele>
        <time>2023-10-11T12:26:50Z</time>
      </trkpt>
      <trkpt lat="49.22398" lon="-0.06855">
        <ele>15.5</ele>
        <time>2023-10-11T12:26:51Z</time>
      </trkpt>
      <trkpt lat="49.22392" lon="-0.06855">
        <ele>15.4</ele>
        <time>2023-10-11T12:26:52Z</time>
      </trkpt>
      <trkpt lat="49.22386" lon="-0.06855">
        <ele>15.4</ele>
        <time>2023-10-11T12:26:53Z</time>
      </trkpt>
      <trkpt lat="49.2238" lon="-0.06854">
        <ele>15.2</ele>
        <time>2023-10-11T12:26:54Z</time>
      </trkpt>
      <trkpt lat="49.22373" lon="-0.06853">
        <ele>15</ele>
        <time>2023-10-11T12:26:55Z</time>
      </trkpt>
      <trkpt lat="49.22366" lon="-0.06853">
        <ele>14.8</ele>
        <time>2023-10-11T12:26:56Z</time>
      </trkpt>
      <trkpt lat="49.22359" lon="-0.06853">
        <ele>14.6</ele>
        <time>2023-10-11T12:26:57Z</time>
      </trkpt>
      <trkpt lat="49.22352" lon="-0.06853">
        <ele>14.5</ele>
        <time>2023-10-11T12:26:58Z</time>
      </trkpt>
      <trkpt lat="49.22345" lon="-0.06853">
        <ele>14.3</ele>
        <time>2023-10-11T12:26:59Z</time>
      </trkpt>
      <trkpt lat="49.22338" lon="-0.06853">
        <ele>14.2</ele>
        <time>2023-10-11T12:27:00Z</time>
      </trkpt>
      <trkpt lat="49.22331" lon="-0.06853">
        <ele>14.1</ele>
        <time>2023-10-11T12:27:01Z</time>
      </trkpt>
      <trkpt lat="49.22324" lon="-0.06853">
        <ele>14</ele>
        <time>2023-10-11T12:27:02Z</time>
      </trkpt>
      <trkpt lat="49.22318" lon="-0.06853">
        <ele>13.8</ele>
        <time>2023-10-11T12:27:03Z</time>
      </trkpt>
      <trkpt lat="49.22311" lon="-0.06853">
        <ele>13.7</ele>
        <time>2023-10-11T12:27:04Z</time>
      </trkpt>
      <trkpt lat="49.22305" lon="-0.06853">
        <ele>13.6</ele>
        <time>2023-10-11T12:27:05Z</time>
      </trkpt>
      <trkpt lat="49.22298" lon="-0.06853">
        <ele>13.5</ele>
        <time>2023-10-11T12:27:06Z</time>
      </trkpt>
      <trkpt lat="49.22292" lon="-0.06853">
        <ele>13.4</ele>
        <time>2023-10-11T12:27:07Z</time>
      </trkpt>
      <trkpt lat="49.22285" lon="-0.06853">
        <ele>13.2</ele>
        <time>2023-10-11T12:27:08Z</time>
      </trkpt>
      <trkpt lat="49.22279" lon="-0.06853">
        <ele>13.1</ele>
        <time>2023-10-11T12:27:09Z</time>
      </trkpt>
      <trkpt lat="49.22272" lon="-0.06853">
        <ele>13</ele>
        <time>2023-10-11T12:27:10Z</time>
      </trkpt>
      <trkpt lat="49.22265" lon="-0.06853">
        <ele>12.9</ele>
        <time>2023-10-11T12:27:11Z</time>
      </trkpt>
      <trkpt lat="49.22259" lon="-0.06853">
        <ele>12.8</ele>
        <time>2023-10-11T12:27:12Z</time>
      </trkpt>
      <trkpt lat="49.22252" lon="-0.06854">
        <ele>12.7</ele>
        <time>2023-10-11T12:27:13Z</time>
      </trkpt>
      <trkpt lat="49.22246" lon="-0.06854">
        <ele>12.6</ele>
        <time>2023-10-11T12:27:14Z</time>
      </trkpt>
      <trkpt lat="49.22239" lon="-0.06854">
        <ele>12.5</ele>
        <time>2023-10-11T12:27:15Z</time>
      </trkpt>
      <trkpt lat="49.22232" lon="-0.06854">
        <ele>12.5</ele>
        <time>2023-10-11T12:27:16Z</time>
      </trkpt>
      <trkpt lat="49.22225" lon="-0.06853">
        <ele>12.4</ele>
        <time>2023-10-11T12:27:17Z</time>
      </trkpt>
      <trkpt lat="49.22218" lon="-0.06853">
        <ele>12.4</ele>
        <time>2023-10-11T12:27:18Z</time>
      </trkpt>
      <trkpt lat="49.22211" lon="-0.06853">
        <ele>12.4</ele>
        <time>2023-10-11T12:27:19Z</time>
      </trkpt>
      <trkpt lat="49.22205" lon="-0.06852">
        <ele>12.4</ele>
        <time>2023-10-11T12:27:20Z</time>
      </trkpt>
      <trkpt lat="49.22198" lon="-0.06852">
        <ele>12.4</ele>
        <time>2023-10-11T12:27:21Z</time>
      </trkpt>
      <trkpt lat="49.22191" lon="-0.06853">
        <ele>12.5</ele>
        <time>2023-10-11T12:27:22Z</time>
      </trkpt>
      <trkpt lat="49.22185" lon="-0.06853">
        <ele>12.6</ele>
        <time>2023-10-11T12:27:23Z</time>
      </trkpt>
      <trkpt lat="49.22178" lon="-0.06854">
        <ele>12.7</ele>
        <time>2023-10-11T12:27:24Z</time>
      </trkpt>
      <trkpt lat="49.22171" lon="-0.06855">
        <ele>12.8</ele>
        <time>2023-10-11T12:27:25Z</time>
      </trkpt>
      <trkpt lat="49.22165" lon="-0.06855">
        <ele>12.9</ele>
        <time>2023-10-11T12:27:26Z</time>
      </trkpt>
      <trkpt lat="49.22159" lon="-0.06856">
        <ele>13.1</ele>
        <time>2023-10-11T12:27:27Z</time>
      </trkpt>
      <trkpt lat="49.22153" lon="-0.06857">
        <ele>13.3</ele>
        <time>2023-10-11T12:27:28Z</time>
      </trkpt>
      <trkpt lat="49.22147" lon="-0.06858">
        <ele>13.5</ele>
        <time>2023-10-11T12:27:29Z</time>
      </trkpt>
      <trkpt lat="49.22141" lon="-0.06858">
        <ele>13.7</ele>
        <time>2023-10-11T12:27:30Z</time>
      </trkpt>
      <trkpt lat="49.22135" lon="-0.06859">
        <ele>13.9</ele>
        <time>2023-10-11T12:27:31Z</time>
      </trkpt>
      <trkpt lat="49.22128" lon="-0.06861">
        <ele>14.2</ele>
        <time>2023-10-11T12:27:32Z</time>
      </trkpt>
      <trkpt lat="49.22122" lon="-0.06861">
        <ele>14.4</ele>
        <time>2023-10-11T12:27:33Z</time>
      </trkpt>
      <trkpt lat="49.22117" lon="-0.06862">
        <ele>14.6</ele>
        <time>2023-10-11T12:27:34Z</time>
      </trkpt>
      <trkpt lat="49.22111" lon="-0.06863">
        <ele>14.9</ele>
        <time>2023-10-11T12:27:35Z</time>
      </trkpt>
      <trkpt lat="49.22105" lon="-0.06864">
        <ele>15.1</ele>
        <time>2023-10-11T12:27:36Z</time>
      </trkpt>
      <trkpt lat="49.22099" lon="-0.06865">
        <ele>15.3</ele>
        <time>2023-10-11T12:27:37Z</time>
      </trkpt>
      <trkpt lat="49.22094" lon="-0.06867">
        <ele>15.6</ele>
        <time>2023-10-11T12:27:38Z</time>
      </trkpt>
      <trkpt lat="49.22088" lon="-0.06868">
        <ele>15.8</ele>
        <time>2023-10-11T12:27:39Z</time>
      </trkpt>
      <trkpt lat="49.22082" lon="-0.06869">
        <ele>16.1</ele>
        <time>2023-10-11T12:27:40Z</time>
      </trkpt>
      <trkpt lat="49.22076" lon="-0.0687">
        <ele>16.3</ele>
        <time>2023-10-11T12:27:41Z</time>
      </trkpt>
      <trkpt lat="49.2207" lon="-0.06871">
        <ele>16.6</ele>
        <time>2023-10-11T12:27:42Z</time>
      </trkpt>
      <trkpt lat="49.22064" lon="-0.06872">
        <ele>16.9</ele>
        <time>2023-10-11T12:27:43Z</time>
      </trkpt>
      <trkpt lat="49.22058" lon="-0.06873">
        <ele>17.1</ele>
        <time>2023-10-11T12:27:44Z</time>
      </trkpt>
      <trkpt lat="49.22052" lon="-0.06875">
        <ele>17.4</ele>
        <time>2023-10-11T12:27:45Z</time>
      </trkpt>
      <trkpt lat="49.22046" lon="-0.06876">
        <ele>17.7</ele>
        <time>2023-10-11T12:27:46Z</time>
      </trkpt>
      <trkpt lat="49.2204" lon="-0.06877">
        <ele>18</ele>
        <time>2023-10-11T12:27:47Z</time>
      </trkpt>
      <trkpt lat="49.22034" lon="-0.06878">
        <ele>18.3</ele>
        <time>2023-10-11T12:27:48Z</time>
      </trkpt>
      <trkpt lat="49.22029" lon="-0.06879">
        <ele>18.5</ele>
        <time>2023-10-11T12:27:49Z</time>
      </trkpt>
      <trkpt lat="49.22023" lon="-0.0688">
        <ele>18.8</ele>
        <time>2023-10-11T12:27:50Z</time>
      </trkpt>
      <trkpt lat="49.22017" lon="-0.06881">
        <ele>19.1</ele>
        <time>2023-10-11T12:27:51Z</time>
      </trkpt>
      <trkpt lat="49.22011" lon="-0.06882">
        <ele>19.4</ele>
        <time>2023-10-11T12:27:52Z</time>
      </trkpt>
      <trkpt lat="49.22005" lon="-0.06883">
        <ele>19.7</ele>
        <time>2023-10-11T12:27:53Z</time>
      </trkpt>
      <trkpt lat="49.21999" lon="-0.06884">
        <ele>20</ele>
        <time>2023-10-11T12:27:54Z</time>
      </trkpt>
      <trkpt lat="49.21993" lon="-0.06886">
        <ele>20.3</ele>
        <time>2023-10-11T12:27:55Z</time>
      </trkpt>
      <trkpt lat="49.21987" lon="-0.06887">
        <ele>20.6</ele>
        <time>2023-10-11T12:27:56Z</time>
      </trkpt>
      <trkpt lat="49.21981" lon="-0.06888">
        <ele>20.9</ele>
        <time>2023-10-11T12:27:57Z</time>
      </trkpt>
      <trkpt lat="49.21975" lon="-0.06889">
        <ele>21.1</ele>
        <time>2023-10-11T12:27:58Z</time>
      </trkpt>
      <trkpt lat="49.2197" lon="-0.0689">
        <ele>21.4</ele>
        <time>2023-10-11T12:27:59Z</time>
      </trkpt>
      <trkpt lat="49.21964" lon="-0.06891">
        <ele>21.7</ele>
        <time>2023-10-11T12:28:00Z</time>
      </trkpt>
      <trkpt lat="49.21958" lon="-0.06892">
        <ele>22.1</ele>
        <time>2023-10-11T12:28:01Z</time>
      </trkpt>
      <trkpt lat="49.21952" lon="-0.06893">
        <ele>22.4</ele>
        <time>2023-10-11T12:28:02Z</time>
      </trkpt>
      <trkpt lat="49.21946" lon="-0.06894">
        <ele>22.7</ele>
        <time>2023-10-11T12:28:03Z</time>
      </trkpt>
      <trkpt lat="49.2194" lon="-0.06894">
        <ele>23</ele>
        <time>2023-10-11T12:28:04Z</time>
      </trkpt>
      <trkpt lat="49.21934" lon="-0.06895">
        <ele>23.3</ele>
        <time>2023-10-11T12:28:05Z</time>
      </trkpt>
      <trkpt lat="49.21929" lon="-0.06894">
        <ele>23.6</ele>
        <time>2023-10-11T12:28:06Z</time>
      </trkpt>
      <trkpt lat="49.21923" lon="-0.06894">
        <ele>23.9</ele>
        <time>2023-10-11T12:28:07Z</time>
      </trkpt>
      <trkpt lat="49.21917" lon="-0.06892">
        <ele>24.3</ele>
        <time>2023-10-11T12:28:08Z</time>
      </trkpt>
      <trkpt lat="49.2191" lon="-0.06889">
        <ele>24.3</ele>
        <time>2023-10-11T12:28:09Z</time>
      </trkpt>
      <trkpt lat="49.21905" lon="-0.06886">
        <ele>24.5</ele>
        <time>2023-10-11T12:28:10Z</time>
      </trkpt>
      <trkpt lat="49.21899" lon="-0.06882">
        <ele>24.8</ele>
        <time>2023-10-11T12:28:11Z</time>
      </trkpt>
      <trkpt lat="49.21893" lon="-0.06878">
        <ele>25</ele>
        <time>2023-10-11T12:28:12Z</time>
      </trkpt>
      <trkpt lat="49.21888" lon="-0.06872">
        <ele>25.2</ele>
        <time>2023-10-11T12:28:13Z</time>
      </trkpt>
      <trkpt lat="49.21883" lon="-0.06867">
        <ele>25.5</ele>
        <time>2023-10-11T12:28:14Z</time>
      </trkpt>
      <trkpt lat="49.21878" lon="-0.06861">
        <ele>25.7</ele>
        <time>2023-10-11T12:28:15Z</time>
      </trkpt>
      <trkpt lat="49.21873" lon="-0.06854">
        <ele>25.9</ele>
        <time>2023-10-11T12:28:16Z</time>
      </trkpt>
      <trkpt lat="49.21869" lon="-0.06847">
        <ele>26.2</ele>
        <time>2023-10-11T12:28:17Z</time>
      </trkpt>
      <trkpt lat="49.21864" lon="-0.0684">
        <ele>26.4</ele>
        <time>2023-10-11T12:28:18Z</time>
      </trkpt>
      <trkpt lat="49.2186" lon="-0.06833">
        <ele>26.6</ele>
        <time>2023-10-11T12:28:19Z</time>
      </trkpt>
      <trkpt lat="49.21856" lon="-0.06826">
        <ele>26.8</ele>
        <time>2023-10-11T12:28:20Z</time>
      </trkpt>
      <trkpt lat="49.21851" lon="-0.06819">
        <ele>27</ele>
        <time>2023-10-11T12:28:21Z</time>
      </trkpt>
      <trkpt lat="49.21847" lon="-0.06812">
        <ele>27.2</ele>
        <time>2023-10-11T12:28:22Z</time>
      </trkpt>
      <trkpt lat="49.21843" lon="-0.06806">
        <ele>27.4</ele>
        <time>2023-10-11T12:28:23Z</time>
      </trkpt>
      <trkpt lat="49.21838" lon="-0.06799">
        <ele>27.6</ele>
        <time>2023-10-11T12:28:24Z</time>
      </trkpt>
      <trkpt lat="49.21833" lon="-0.06794">
        <ele>27.8</ele>
        <time>2023-10-11T12:28:25Z</time>
      </trkpt>
      <trkpt lat="49.21827" lon="-0.06789">
        <ele>28</ele>
        <time>2023-10-11T12:28:26Z</time>
      </trkpt>
      <trkpt lat="49.21822" lon="-0.06783">
        <ele>28.1</ele>
        <time>2023-10-11T12:28:27Z</time>
      </trkpt>
      <trkpt lat="49.21816" lon="-0.06779">
        <ele>28.2</ele>
        <time>2023-10-11T12:28:28Z</time>
      </trkpt>
      <trkpt lat="49.2181" lon="-0.06777">
        <ele>28.3</ele>
        <time>2023-10-11T12:28:29Z</time>
      </trkpt>
      <trkpt lat="49.21804" lon="-0.06776">
        <ele>28.5</ele>
        <time>2023-10-11T12:28:30Z</time>
      </trkpt>
      <trkpt lat="49.21798" lon="-0.06776">
        <ele>28.6</ele>
        <time>2023-10-11T12:28:31Z</time>
      </trkpt>
      <trkpt lat="49.21791" lon="-0.06776">
        <ele>28.7</ele>
        <time>2023-10-11T12:28:32Z</time>
      </trkpt>
      <trkpt lat="49.21785" lon="-0.06776">
        <ele>28.8</ele>
        <time>2023-10-11T12:28:33Z</time>
      </trkpt>
      <trkpt lat="49.21778" lon="-0.06776">
        <ele>28.9</ele>
        <time>2023-10-11T12:28:34Z</time>
      </trkpt>
      <trkpt lat="49.21772" lon="-0.06776">
        <ele>29</ele>
        <time>2023-10-11T12:28:35Z</time>
      </trkpt>
      <trkpt lat="49.21766" lon="-0.06776">
        <ele>29</ele>
        <time>2023-10-11T12:28:36Z</time>
      </trkpt>
      <trkpt lat="49.21759" lon="-0.06775">
        <ele>29.1</ele>
        <time>2023-10-11T12:28:37Z</time>
      </trkpt>
      <trkpt lat="49.21753" lon="-0.06775">
        <ele>29.1</ele>
        <time>2023-10-11T12:28:38Z</time>
      </trkpt>
      <trkpt lat="49.21748" lon="-0.06775">
        <ele>29.1</ele>
        <time>2023-10-11T12:28:39Z</time>
      </trkpt>
      <trkpt lat="49.21742" lon="-0.06775">
        <ele>29.1</ele>
        <time>2023-10-11T12:28:40Z</time>
      </trkpt>
      <trkpt lat="49.21737" lon="-0.06774">
        <ele>29.1</ele>
        <time>2023-10-11T12:28:41Z</time>
      </trkpt>
      <trkpt lat="49.21733" lon="-0.06773">
        <ele>29.1</ele>
        <time>2023-10-11T12:28:42Z</time>
      </trkpt>
      <trkpt lat="49.21728" lon="-0.06774">
        <ele>29.1</ele>
        <time>2023-10-11T12:28:43Z</time>
      </trkpt>
      <trkpt lat="49.21723" lon="-0.06775">
        <ele>29</ele>
        <time>2023-10-11T12:28:44Z</time>
      </trkpt>
      <trkpt lat="49.21719" lon="-0.06775">
        <ele>29</ele>
        <time>2023-10-11T12:28:45Z</time>
      </trkpt>
      <trkpt lat="49.21714" lon="-0.06774">
        <ele>29</ele>
        <time>2023-10-11T12:28:46Z</time>
      </trkpt>
      <trkpt lat="49.21709" lon="-0.06774">
        <ele>28.8</ele>
        <time>2023-10-11T12:28:47Z</time>
      </trkpt>
      <trkpt lat="49.21704" lon="-0.06774">
        <ele>28.6</ele>
        <time>2023-10-11T12:28:48Z</time>
      </trkpt>
      <trkpt lat="49.21698" lon="-0.06774">
        <ele>28.4</ele>
        <time>2023-10-11T12:28:49Z</time>
      </trkpt>
      <trkpt lat="49.21692" lon="-0.06774">
        <ele>28.1</ele>
        <time>2023-10-11T12:28:50Z</time>
      </trkpt>
      <trkpt lat="49.21686" lon="-0.06775">
        <ele>27.7</ele>
        <time>2023-10-11T12:28:51Z</time>
      </trkpt>
      <trkpt lat="49.2168" lon="-0.06778">
        <ele>27.3</ele>
        <time>2023-10-11T12:28:52Z</time>
      </trkpt>
      <trkpt lat="49.21672" lon="-0.06782">
        <ele>26.7</ele>
        <time>2023-10-11T12:28:53Z</time>
      </trkpt>
      <trkpt lat="49.21666" lon="-0.0679">
        <ele>26</ele>
        <time>2023-10-11T12:28:54Z</time>
      </trkpt>
      <trkpt lat="49.21662" lon="-0.06801">
        <ele>25.2</ele>
        <time>2023-10-11T12:28:55Z</time>
      </trkpt>
      <trkpt lat="49.2166" lon="-0.06812">
        <ele>24.5</ele>
        <time>2023-10-11T12:28:56Z</time>
      </trkpt>
      <trkpt lat="49.21657" lon="-0.06824">
        <ele>23.7</ele>
        <time>2023-10-11T12:28:57Z</time>
      </trkpt>
      <trkpt lat="49.21653" lon="-0.06835">
        <ele>22.8</ele>
        <time>2023-10-11T12:28:58Z</time>
      </trkpt>
      <trkpt lat="49.21648" lon="-0.06845">
        <ele>22.2</ele>
        <time>2023-10-11T12:28:59Z</time>
      </trkpt>
      <trkpt lat="49.21642" lon="-0.06854">
        <ele>21.5</ele>
        <time>2023-10-11T12:29:00Z</time>
      </trkpt>
      <trkpt lat="49.21635" lon="-0.06862">
        <ele>20.8</ele>
        <time>2023-10-11T12:29:01Z</time>
      </trkpt>
      <trkpt lat="49.21626" lon="-0.06868">
        <ele>20.1</ele>
        <time>2023-10-11T12:29:02Z</time>
      </trkpt>
      <trkpt lat="49.21617" lon="-0.06873">
        <ele>19.4</ele>
        <time>2023-10-11T12:29:03Z</time>
      </trkpt>
      <trkpt lat="49.21607" lon="-0.06876">
        <ele>18.7</ele>
        <time>2023-10-11T12:29:04Z</time>
      </trkpt>
      <trkpt lat="49.21597" lon="-0.06878">
        <ele>18.1</ele>
        <time>2023-10-11T12:29:05Z</time>
      </trkpt>
      <trkpt lat="49.21587" lon="-0.06879">
        <ele>17.6</ele>
        <time>2023-10-11T12:29:06Z</time>
      </trkpt>
      <trkpt lat="49.21576" lon="-0.0688">
        <ele>17</ele>
        <time>2023-10-11T12:29:07Z</time>
      </trkpt>
      <trkpt lat="49.21566" lon="-0.06881">
        <ele>16.5</ele>
        <time>2023-10-11T12:29:08Z</time>
      </trkpt>
      <trkpt lat="49.21556" lon="-0.06883">
        <ele>16</ele>
        <time>2023-10-11T12:29:09Z</time>
      </trkpt>
      <trkpt lat="49.21546" lon="-0.06884">
        <ele>15.5</ele>
        <time>2023-10-11T12:29:10Z</time>
      </trkpt>
      <trkpt lat="49.21536" lon="-0.06885">
        <ele>15.1</ele>
        <time>2023-10-11T12:29:11Z</time>
      </trkpt>
      <trkpt lat="49.21526" lon="-0.06886">
        <ele>14.8</ele>
        <time>2023-10-11T12:29:12Z</time>
      </trkpt>
      <trkpt lat="49.21516" lon="-0.06887">
        <ele>14.6</ele>
        <time>2023-10-11T12:29:13Z</time>
      </trkpt>
      <trkpt lat="49.21506" lon="-0.06888">
        <ele>14.4</ele>
        <time>2023-10-11T12:29:14Z</time>
      </trkpt>
      <trkpt lat="49.21497" lon="-0.06889">
        <ele>14.3</ele>
        <time>2023-10-11T12:29:15Z</time>
      </trkpt>
      <trkpt lat="49.21487" lon="-0.06891">
        <ele>14.2</ele>
        <time>2023-10-11T12:29:16Z</time>
      </trkpt>
      <trkpt lat="49.21477" lon="-0.06892">
        <ele>14.2</ele>
        <time>2023-10-11T12:29:17Z</time>
      </trkpt>
      <trkpt lat="49.21468" lon="-0.06893">
        <ele>14.2</ele>
        <time>2023-10-11T12:29:18Z</time>
      </trkpt>
      <trkpt lat="49.21459" lon="-0.06894">
        <ele>14.2</ele>
        <time>2023-10-11T12:29:19Z</time>
      </trkpt>
      <trkpt lat="49.2145" lon="-0.06895">
        <ele>14.3</ele>
        <time>2023-10-11T12:29:20Z</time>
      </trkpt>
      <trkpt lat="49.21441" lon="-0.06896">
        <ele>14.3</ele>
        <time>2023-10-11T12:29:21Z</time>
      </trkpt>
      <trkpt lat="49.21432" lon="-0.06897">
        <ele>14.4</ele>
        <time>2023-10-11T12:29:22Z</time>
      </trkpt>
      <trkpt lat="49.21423" lon="-0.06899">
        <ele>14.6</ele>
        <time>2023-10-11T12:29:23Z</time>
      </trkpt>
      <trkpt lat="49.21414" lon="-0.069">
        <ele>14.7</ele>
        <time>2023-10-11T12:29:24Z</time>
      </trkpt>
      <trkpt lat="49.21406" lon="-0.06902">
        <ele>14.8</ele>
        <time>2023-10-11T12:29:25Z</time>
      </trkpt>
      <trkpt lat="49.21397" lon="-0.06903">
        <ele>14.8</ele>
        <time>2023-10-11T12:29:26Z</time>
      </trkpt>
      <trkpt lat="49.21389" lon="-0.06904">
        <ele>14.8</ele>
        <time>2023-10-11T12:29:27Z</time>
      </trkpt>
      <trkpt lat="49.21381" lon="-0.06904">
        <ele>14.8</ele>
        <time>2023-10-11T12:29:28Z</time>
      </trkpt>
      <trkpt lat="49.21373" lon="-0.06904">
        <ele>14.7</ele>
        <time>2023-10-11T12:29:29Z</time>
      </trkpt>
      <trkpt lat="49.21364" lon="-0.06903">
        <ele>14.5</ele>
        <time>2023-10-11T12:29:30Z</time>
      </trkpt>
      <trkpt lat="49.21357" lon="-0.06902">
        <ele>14.3</ele>
        <time>2023-10-11T12:29:31Z</time>
      </trkpt>
      <trkpt lat="49.21349" lon="-0.069">
        <ele>14.1</ele>
        <time>2023-10-11T12:29:32Z</time>
      </trkpt>
      <trkpt lat="49.21341" lon="-0.06898">
        <ele>13.9</ele>
        <time>2023-10-11T12:29:33Z</time>
      </trkpt>
      <trkpt lat="49.21332" lon="-0.06897">
        <ele>13.6</ele>
        <time>2023-10-11T12:29:34Z</time>
      </trkpt>
      <trkpt lat="49.21324" lon="-0.06895">
        <ele>13.3</ele>
        <time>2023-10-11T12:29:35Z</time>
      </trkpt>
      <trkpt lat="49.21316" lon="-0.06894">
        <ele>12.9</ele>
        <time>2023-10-11T12:29:36Z</time>
      </trkpt>
      <trkpt lat="49.21307" lon="-0.06893">
        <ele>12.5</ele>
        <time>2023-10-11T12:29:37Z</time>
      </trkpt>
      <trkpt lat="49.21299" lon="-0.06892">
        <ele>12.2</ele>
        <time>2023-10-11T12:29:38Z</time>
      </trkpt>
      <trkpt lat="49.2129" lon="-0.0689">
        <ele>11.8</ele>
        <time>2023-10-11T12:29:39Z</time>
      </trkpt>
      <trkpt lat="49.21282" lon="-0.0689">
        <ele>11.5</ele>
        <time>2023-10-11T12:29:40Z</time>
      </trkpt>
      <trkpt lat="49.21273" lon="-0.06888">
        <ele>11.2</ele>
        <time>2023-10-11T12:29:41Z</time>
      </trkpt>
      <trkpt lat="49.21265" lon="-0.06888">
        <ele>10.9</ele>
        <time>2023-10-11T12:29:42Z</time>
      </trkpt>
      <trkpt lat="49.21256" lon="-0.06887">
        <ele>10.6</ele>
        <time>2023-10-11T12:29:43Z</time>
      </trkpt>
      <trkpt lat="49.21248" lon="-0.06886">
        <ele>10.4</ele>
        <time>2023-10-11T12:29:44Z</time>
      </trkpt>
      <trkpt lat="49.2124" lon="-0.06885">
        <ele>10.2</ele>
        <time>2023-10-11T12:29:45Z</time>
      </trkpt>
      <trkpt lat="49.21231" lon="-0.06884">
        <ele>10</ele>
        <time>2023-10-11T12:29:46Z</time>
      </trkpt>
      <trkpt lat="49.21223" lon="-0.06883">
        <ele>9.9</ele>
        <time>2023-10-11T12:29:47Z</time>
      </trkpt>
      <trkpt lat="49.21214" lon="-0.06882">
        <ele>9.7</ele>
        <time>2023-10-11T12:29:48Z</time>
      </trkpt>
      <trkpt lat="49.21206" lon="-0.06881">
        <ele>9.6</ele>
        <time>2023-10-11T12:29:49Z</time>
      </trkpt>
      <trkpt lat="49.21198" lon="-0.06879">
        <ele>9.5</ele>
        <time>2023-10-11T12:29:50Z</time>
      </trkpt>
      <trkpt lat="49.2119" lon="-0.06878">
        <ele>9.4</ele>
        <time>2023-10-11T12:29:51Z</time>
      </trkpt>
      <trkpt lat="49.21182" lon="-0.06877">
        <ele>9.2</ele>
        <time>2023-10-11T12:29:52Z</time>
      </trkpt>
      <trkpt lat="49.21174" lon="-0.06876">
        <ele>9.1</ele>
        <time>2023-10-11T12:29:53Z</time>
      </trkpt>
      <trkpt lat="49.21165" lon="-0.06875">
        <ele>9</ele>
        <time>2023-10-11T12:29:54Z</time>
      </trkpt>
      <trkpt lat="49.21157" lon="-0.06874">
        <ele>8.9</ele>
        <time>2023-10-11T12:29:55Z</time>
      </trkpt>
      <trkpt lat="49.21148" lon="-0.06873">
        <ele>8.8</ele>
        <time>2023-10-11T12:29:56Z</time>
      </trkpt>
      <trkpt lat="49.21139" lon="-0.06871">
        <ele>8.8</ele>
        <time>2023-10-11T12:29:57Z</time>
      </trkpt>
      <trkpt lat="49.21129" lon="-0.06871">
        <ele>8.8</ele>
        <time>2023-10-11T12:29:58Z</time>
      </trkpt>
      <trkpt lat="49.2112" lon="-0.0687">
        <ele>8.9</ele>
        <time>2023-10-11T12:29:59Z</time>
      </trkpt>
      <trkpt lat="49.21111" lon="-0.06868">
        <ele>9</ele>
        <time>2023-10-11T12:30:00Z</time>
      </trkpt>
      <trkpt lat="49.21102" lon="-0.06866">
        <ele>8.9</ele>
        <time>2023-10-11T12:30:01Z</time>
      </trkpt>
      <trkpt lat="49.21094" lon="-0.06863">
        <ele>8.9</ele>
        <time>2023-10-11T12:30:02Z</time>
      </trkpt>
      <trkpt lat="49.21086" lon="-0.06861">
        <ele>8.8</ele>
        <time>2023-10-11T12:30:03Z</time>
      </trkpt>
      <trkpt lat="49.21078" lon="-0.0686">
        <ele>8.8</ele>
        <time>2023-10-11T12:30:04Z</time>
      </trkpt>
      <trkpt lat="49.21069" lon="-0.06859">
        <ele>8.8</ele>
        <time>2023-10-11T12:30:05Z</time>
      </trkpt>
      <trkpt lat="49.21061" lon="-0.06859">
        <ele>8.8</ele>
        <time>2023-10-11T12:30:06Z</time>
      </trkpt>
      <trkpt lat="49.21052" lon="-0.06859">
        <ele>8.7</ele>
        <time>2023-10-11T12:30:07Z</time>
      </trkpt>
      <trkpt lat="49.21043" lon="-0.06859">
        <ele>8.7</ele>
        <time>2023-10-11T12:30:08Z</time>
      </trkpt>
      <trkpt lat="49.21035" lon="-0.0686">
        <ele>8.7</ele>
        <time>2023-10-11T12:30:09Z</time>
      </trkpt>
      <trkpt lat="49.21026" lon="-0.06861">
        <ele>8.6</ele>
        <time>2023-10-11T12:30:10Z</time>
      </trkpt>
      <trkpt lat="49.21018" lon="-0.06861">
        <ele>8.6</ele>
        <time>2023-10-11T12:30:11Z</time>
      </trkpt>
      <trkpt lat="49.21009" lon="-0.06862">
        <ele>8.5</ele>
        <time>2023-10-11T12:30:12Z</time>
      </trkpt>
      <trkpt lat="49.21001" lon="-0.06863">
        <ele>8.5</ele>
        <time>2023-10-11T12:30:13Z</time>
      </trkpt>
      <trkpt lat="49.20993" lon="-0.06863">
        <ele>8.4</ele>
        <time>2023-10-11T12:30:14Z</time>
      </trkpt>
      <trkpt lat="49.20985" lon="-0.06864">
        <ele>8.4</ele>
        <time>2023-10-11T12:30:15Z</time>
      </trkpt>
      <trkpt lat="49.20977" lon="-0.06865">
        <ele>8.4</ele>
        <time>2023-10-11T12:30:16Z</time>
      </trkpt>
      <trkpt lat="49.20969" lon="-0.06866">
        <ele>8.4</ele>
        <time>2023-10-11T12:30:17Z</time>
      </trkpt>
      <trkpt lat="49.2096" lon="-0.06867">
        <ele>8.3</ele>
        <time>2023-10-11T12:30:18Z</time>
      </trkpt>
      <trkpt lat="49.20952" lon="-0.06868">
        <ele>8.3</ele>
        <time>2023-10-11T12:30:19Z</time>
      </trkpt>
      <trkpt lat="49.20943" lon="-0.06869">
        <ele>8.3</ele>
        <time>2023-10-11T12:30:20Z</time>
      </trkpt>
      <trkpt lat="49.20935" lon="-0.06868">
        <ele>8.3</ele>
        <time>2023-10-11T12:30:21Z</time>
      </trkpt>
      <trkpt lat="49.20927" lon="-0.06868">
        <ele>8.3</ele>
        <time>2023-10-11T12:30:22Z</time>
      </trkpt>
      <trkpt lat="49.20919" lon="-0.06867">
        <ele>8.3</ele>
        <time>2023-10-11T12:30:23Z</time>
      </trkpt>
      <trkpt lat="49.20911" lon="-0.06866">
        <ele>8.3</ele>
        <time>2023-10-11T12:30:24Z</time>
      </trkpt>
      <trkpt lat="49.20903" lon="-0.06863">
        <ele>8.3</ele>
        <time>2023-10-11T12:30:25Z</time>
      </trkpt>
      <trkpt lat="49.20896" lon="-0.06858">
        <ele>8.3</ele>
        <time>2023-10-11T12:30:26Z</time>
      </trkpt>
      <trkpt lat="49.20889" lon="-0.06853">
        <ele>8.3</ele>
        <time>2023-10-11T12:30:27Z</time>
      </trkpt>
      <trkpt lat="49.20881" lon="-0.0685">
        <ele>8.3</ele>
        <time>2023-10-11T12:30:28Z</time>
      </trkpt>
      <trkpt lat="49.20873" lon="-0.06848">
        <ele>8.3</ele>
        <time>2023-10-11T12:30:29Z</time>
      </trkpt>
      <trkpt lat="49.20865" lon="-0.06847">
        <ele>8.4</ele>
        <time>2023-10-11T12:30:30Z</time>
      </trkpt>
      <trkpt lat="49.20857" lon="-0.06845">
        <ele>8.4</ele>
        <time>2023-10-11T12:30:31Z</time>
      </trkpt>
      <trkpt lat="49.20849" lon="-0.06843">
        <ele>8.4</ele>
        <time>2023-10-11T12:30:32Z</time>
      </trkpt>
      <trkpt lat="49.20841" lon="-0.06841">
        <ele>8.4</ele>
        <time>2023-10-11T12:30:33Z</time>
      </trkpt>
      <trkpt lat="49.20833" lon="-0.0684">
        <ele>8.4</ele>
        <time>2023-10-11T12:30:34Z</time>
      </trkpt>
      <trkpt lat="49.20825" lon="-0.06838">
        <ele>8.4</ele>
        <time>2023-10-11T12:30:35Z</time>
      </trkpt>
      <trkpt lat="49.20818" lon="-0.06837">
        <ele>8.4</ele>
        <time>2023-10-11T12:30:36Z</time>
      </trkpt>
      <trkpt lat="49.2081" lon="-0.06834">
        <ele>8.5</ele>
        <time>2023-10-11T12:30:37Z</time>
      </trkpt>
      <trkpt lat="49.20802" lon="-0.06831">
        <ele>8.5</ele>
        <time>2023-10-11T12:30:38Z</time>
      </trkpt>
      <trkpt lat="49.20795" lon="-0.06827">
        <ele>8.5</ele>
        <time>2023-10-11T12:30:39Z</time>
      </trkpt>
      <trkpt lat="49.20788" lon="-0.06823">
        <ele>8.5</ele>
        <time>2023-10-11T12:30:40Z</time>
      </trkpt>
      <trkpt lat="49.20781" lon="-0.06817">
        <ele>8.5</ele>
        <time>2023-10-11T12:30:41Z</time>
      </trkpt>
      <trkpt lat="49.20774" lon="-0.06811">
        <ele>8.6</ele>
        <time>2023-10-11T12:30:42Z</time>
      </trkpt>
      <trkpt lat="49.20767" lon="-0.06805">
        <ele>8.6</ele>
        <time>2023-10-11T12:30:43Z</time>
      </trkpt>
      <trkpt lat="49.20761" lon="-0.06798">
        <ele>8.7</ele>
        <time>2023-10-11T12:30:44Z</time>
      </trkpt>
      <trkpt lat="49.20755" lon="-0.06791">
        <ele>8.7</ele>
        <time>2023-10-11T12:30:45Z</time>
      </trkpt>
      <trkpt lat="49.20748" lon="-0.06784">
        <ele>8.8</ele>
        <time>2023-10-11T12:30:46Z</time>
      </trkpt>
      <trkpt lat="49.20742" lon="-0.06777">
        <ele>8.8</ele>
        <time>2023-10-11T12:30:47Z</time>
      </trkpt>
      <trkpt lat="49.20735" lon="-0.0677">
        <ele>8.9</ele>
        <time>2023-10-11T12:30:48Z</time>
      </trkpt>
      <trkpt lat="49.20729" lon="-0.06763">
        <ele>8.9</ele>
        <time>2023-10-11T12:30:49Z</time>
      </trkpt>
      <trkpt lat="49.20723" lon="-0.06756">
        <ele>8.9</ele>
        <time>2023-10-11T12:30:50Z</time>
      </trkpt>
      <trkpt lat="49.20716" lon="-0.06748">
        <ele>8.9</ele>
        <time>2023-10-11T12:30:51Z</time>
      </trkpt>
      <trkpt lat="49.2071" lon="-0.06741">
        <ele>8.9</ele>
        <time>2023-10-11T12:30:52Z</time>
      </trkpt>
      <trkpt lat="49.20703" lon="-0.06735">
        <ele>8.9</ele>
        <time>2023-10-11T12:30:53Z</time>
      </trkpt>
      <trkpt lat="49.20697" lon="-0.06727">
        <ele>9</ele>
        <time>2023-10-11T12:30:54Z</time>
      </trkpt>
      <trkpt lat="49.2069" lon="-0.0672">
        <ele>9</ele>
        <time>2023-10-11T12:30:55Z</time>
      </trkpt>
      <trkpt lat="49.20684" lon="-0.06713">
        <ele>9</ele>
        <time>2023-10-11T12:30:56Z</time>
      </trkpt>
      <trkpt lat="49.20678" lon="-0.06705">
        <ele>9</ele>
        <time>2023-10-11T12:30:57Z</time>
      </trkpt>
      <trkpt lat="49.20671" lon="-0.06698">
        <ele>9.1</ele>
        <time>2023-10-11T12:30:58Z</time>
      </trkpt>
      <trkpt lat="49.20665" lon="-0.06691">
        <ele>9.1</ele>
        <time>2023-10-11T12:30:59Z</time>
      </trkpt>
      <trkpt lat="49.20658" lon="-0.06684">
        <ele>9.1</ele>
        <time>2023-10-11T12:31:00Z</time>
      </trkpt>
      <trkpt lat="49.20652" lon="-0.06676">
        <ele>9.2</ele>
        <time>2023-10-11T12:31:01Z</time>
      </trkpt>
      <trkpt lat="49.20646" lon="-0.06669">
        <ele>9.2</ele>
        <time>2023-10-11T12:31:02Z</time>
      </trkpt>
      <trkpt lat="49.20639" lon="-0.0666">
        <ele>9.2</ele>
        <time>2023-10-11T12:31:03Z</time>
      </trkpt>
      <trkpt lat="49.20633" lon="-0.06652">
        <ele>9.2</ele>
        <time>2023-10-11T12:31:04Z</time>
      </trkpt>
      <trkpt lat="49.20627" lon="-0.06644">
        <ele>9.2</ele>
        <time>2023-10-11T12:31:05Z</time>
      </trkpt>
      <trkpt lat="49.20622" lon="-0.06635">
        <ele>9.3</ele>
        <time>2023-10-11T12:31:06Z</time>
      </trkpt>
      <trkpt lat="49.20616" lon="-0.06627">
        <ele>9.3</ele>
        <time>2023-10-11T12:31:07Z</time>
      </trkpt>
      <trkpt lat="49.20611" lon="-0.06618">
        <ele>9.3</ele>
        <time>2023-10-11T12:31:08Z</time>
      </trkpt>
      <trkpt lat="49.20605" lon="-0.0661">
        <ele>9.3</ele>
        <time>2023-10-11T12:31:09Z</time>
      </trkpt>
      <trkpt lat="49.206" lon="-0.06601">
        <ele>9.3</ele>
        <time>2023-10-11T12:31:10Z</time>
      </trkpt>
      <trkpt lat="49.20594" lon="-0.06592">
        <ele>9.3</ele>
        <time>2023-10-11T12:31:11Z</time>
      </trkpt>
      <trkpt lat="49.20588" lon="-0.06584">
        <ele>9.3</ele>
        <time>2023-10-11T12:31:12Z</time>
      </trkpt>
      <trkpt lat="49.20583" lon="-0.06576">
        <ele>9.2</ele>
        <time>2023-10-11T12:31:13Z</time>
      </trkpt>
      <trkpt lat="49.20577" lon="-0.06567">
        <ele>9.2</ele>
        <time>2023-10-11T12:31:14Z</time>
      </trkpt>
      <trkpt lat="49.20572" lon="-0.06559">
        <ele>9.2</ele>
        <time>2023-10-11T12:31:15Z</time>
      </trkpt>
      <trkpt lat="49.20566" lon="-0.06551">
        <ele>9.2</ele>
        <time>2023-10-11T12:31:16Z</time>
      </trkpt>
      <trkpt lat="49.20559" lon="-0.06544">
        <ele>9.2</ele>
        <time>2023-10-11T12:31:17Z</time>
      </trkpt>
      <trkpt lat="49.20553" lon="-0.06538">
        <ele>9.1</ele>
        <time>2023-10-11T12:31:18Z</time>
      </trkpt>
      <trkpt lat="49.20546" lon="-0.06532">
        <ele>9.1</ele>
        <time>2023-10-11T12:31:19Z</time>
      </trkpt>
      <trkpt lat="49.20539" lon="-0.06527">
        <ele>9.1</ele>
        <time>2023-10-11T12:31:20Z</time>
      </trkpt>
      <trkpt lat="49.20532" lon="-0.06522">
        <ele>9.1</ele>
        <time>2023-10-11T12:31:21Z</time>
      </trkpt>
      <trkpt lat="49.20526" lon="-0.06516">
        <ele>9.1</ele>
        <time>2023-10-11T12:31:22Z</time>
      </trkpt>
      <trkpt lat="49.20519" lon="-0.06511">
        <ele>9.1</ele>
        <time>2023-10-11T12:31:23Z</time>
      </trkpt>
      <trkpt lat="49.20512" lon="-0.06505">
        <ele>9.1</ele>
        <time>2023-10-11T12:31:24Z</time>
      </trkpt>
      <trkpt lat="49.20506" lon="-0.06498">
        <ele>9.1</ele>
        <time>2023-10-11T12:31:25Z</time>
      </trkpt>
      <trkpt lat="49.205" lon="-0.0649">
        <ele>9</ele>
        <time>2023-10-11T12:31:26Z</time>
      </trkpt>
      <trkpt lat="49.20494" lon="-0.06482">
        <ele>9</ele>
        <time>2023-10-11T12:31:27Z</time>
      </trkpt>
      <trkpt lat="49.20489" lon="-0.06474">
        <ele>9</ele>
        <time>2023-10-11T12:31:28Z</time>
      </trkpt>
      <trkpt lat="49.20483" lon="-0.06465">
        <ele>9</ele>
        <time>2023-10-11T12:31:29Z</time>
      </trkpt>
      <trkpt lat="49.20477" lon="-0.06457">
        <ele>9</ele>
        <time>2023-10-11T12:31:30Z</time>
      </trkpt>
      <trkpt lat="49.2047" lon="-0.0645">
        <ele>9</ele>
        <time>2023-10-11T12:31:31Z</time>
      </trkpt>
      <trkpt lat="49.20464" lon="-0.06443">
        <ele>9</ele>
        <time>2023-10-11T12:31:32Z</time>
      </trkpt>
      <trkpt lat="49.20456" lon="-0.06438">
        <ele>8.9</ele>
        <time>2023-10-11T12:31:33Z</time>
      </trkpt>
      <trkpt lat="49.20449" lon="-0.06432">
        <ele>8.9</ele>
        <time>2023-10-11T12:31:34Z</time>
      </trkpt>
      <trkpt lat="49.20441" lon="-0.06428">
        <ele>8.9</ele>
        <time>2023-10-11T12:31:35Z</time>
      </trkpt>
      <trkpt lat="49.20433" lon="-0.06424">
        <ele>8.9</ele>
        <time>2023-10-11T12:31:36Z</time>
      </trkpt>
      <trkpt lat="49.20426" lon="-0.0642">
        <ele>8.9</ele>
        <time>2023-10-11T12:31:37Z</time>
      </trkpt>
      <trkpt lat="49.20418" lon="-0.06417">
        <ele>8.9</ele>
        <time>2023-10-11T12:31:38Z</time>
      </trkpt>
      <trkpt lat="49.2041" lon="-0.06413">
        <ele>8.9</ele>
        <time>2023-10-11T12:31:39Z</time>
      </trkpt>
      <trkpt lat="49.20402" lon="-0.0641">
        <ele>8.9</ele>
        <time>2023-10-11T12:31:40Z</time>
      </trkpt>
      <trkpt lat="49.20395" lon="-0.06406">
        <ele>8.9</ele>
        <time>2023-10-11T12:31:41Z</time>
      </trkpt>
      <trkpt lat="49.20387" lon="-0.06402">
        <ele>8.9</ele>
        <time>2023-10-11T12:31:42Z</time>
      </trkpt>
      <trkpt lat="49.20379" lon="-0.06397">
        <ele>8.9</ele>
        <time>2023-10-11T12:31:43Z</time>
      </trkpt>
      <trkpt lat="49.20372" lon="-0.06393">
        <ele>8.8</ele>
        <time>2023-10-11T12:31:44Z</time>
      </trkpt>
      <trkpt lat="49.20364" lon="-0.06389">
        <ele>8.7</ele>
        <time>2023-10-11T12:31:45Z</time>
      </trkpt>
      <trkpt lat="49.20357" lon="-0.06384">
        <ele>8.7</ele>
        <time>2023-10-11T12:31:46Z</time>
      </trkpt>
      <trkpt lat="49.20349" lon="-0.0638">
        <ele>8.7</ele>
        <time>2023-10-11T12:31:47Z</time>
      </trkpt>
      <trkpt lat="49.20341" lon="-0.06376">
        <ele>8.6</ele>
        <time>2023-10-11T12:31:48Z</time>
      </trkpt>
      <trkpt lat="49.20334" lon="-0.06373">
        <ele>8.6</ele>
        <time>2023-10-11T12:31:49Z</time>
      </trkpt>
      <trkpt lat="49.20326" lon="-0.06369">
        <ele>8.6</ele>
        <time>2023-10-11T12:31:50Z</time>
      </trkpt>
      <trkpt lat="49.20318" lon="-0.06365">
        <ele>8.5</ele>
        <time>2023-10-11T12:31:51Z</time>
      </trkpt>
      <trkpt lat="49.2031" lon="-0.06361">
        <ele>8.5</ele>
        <time>2023-10-11T12:31:52Z</time>
      </trkpt>
      <trkpt lat="49.20303" lon="-0.06357">
        <ele>8.4</ele>
        <time>2023-10-11T12:31:53Z</time>
      </trkpt>
      <trkpt lat="49.20295" lon="-0.06354">
        <ele>8.4</ele>
        <time>2023-10-11T12:31:54Z</time>
      </trkpt>
      <trkpt lat="49.20287" lon="-0.0635">
        <ele>8.4</ele>
        <time>2023-10-11T12:31:55Z</time>
      </trkpt>
      <trkpt lat="49.20279" lon="-0.06347">
        <ele>8.4</ele>
        <time>2023-10-11T12:31:56Z</time>
      </trkpt>
      <trkpt lat="49.20271" lon="-0.06343">
        <ele>8.4</ele>
        <time>2023-10-11T12:31:57Z</time>
      </trkpt>
      <trkpt lat="49.20263" lon="-0.0634">
        <ele>8.3</ele>
        <time>2023-10-11T12:31:58Z</time>
      </trkpt>
      <trkpt lat="49.20255" lon="-0.06335">
        <ele>8.3</ele>
        <time>2023-10-11T12:31:59Z</time>
      </trkpt>
      <trkpt lat="49.20247" lon="-0.06331">
        <ele>8.2</ele>
        <time>2023-10-11T12:32:00Z</time>
      </trkpt>
      <trkpt lat="49.2024" lon="-0.06327">
        <ele>8.2</ele>
        <time>2023-10-11T12:32:01Z</time>
      </trkpt>
      <trkpt lat="49.20232" lon="-0.06323">
        <ele>8.2</ele>
        <time>2023-10-11T12:32:02Z</time>
      </trkpt>
      <trkpt lat="49.20224" lon="-0.06319">
        <ele>8.1</ele>
        <time>2023-10-11T12:32:03Z</time>
      </trkpt>
      <trkpt lat="49.20216" lon="-0.06316">
        <ele>8.1</ele>
        <time>2023-10-11T12:32:04Z</time>
      </trkpt>
      <trkpt lat="49.20209" lon="-0.06314">
        <ele>8</ele>
        <time>2023-10-11T12:32:05Z</time>
      </trkpt>
      <trkpt lat="49.20201" lon="-0.06313">
        <ele>8</ele>
        <time>2023-10-11T12:32:06Z</time>
      </trkpt>
      <trkpt lat="49.20193" lon="-0.06314">
        <ele>8</ele>
        <time>2023-10-11T12:32:07Z</time>
      </trkpt>
      <trkpt lat="49.20185" lon="-0.06318">
        <ele>7.9</ele>
        <time>2023-10-11T12:32:08Z</time>
      </trkpt>
      <trkpt lat="49.20178" lon="-0.06324">
        <ele>7.9</ele>
        <time>2023-10-11T12:32:09Z</time>
      </trkpt>
      <trkpt lat="49.20171" lon="-0.06331">
        <ele>7.9</ele>
        <time>2023-10-11T12:32:10Z</time>
      </trkpt>
      <trkpt lat="49.20165" lon="-0.06339">
        <ele>7.8</ele>
        <time>2023-10-11T12:32:11Z</time>
      </trkpt>
      <trkpt lat="49.20159" lon="-0.06346">
        <ele>7.8</ele>
        <time>2023-10-11T12:32:12Z</time>
      </trkpt>
      <trkpt lat="49.20153" lon="-0.06354">
        <ele>7.8</ele>
        <time>2023-10-11T12:32:13Z</time>
      </trkpt>
      <trkpt lat="49.20148" lon="-0.06363">
        <ele>7.7</ele>
        <time>2023-10-11T12:32:14Z</time>
      </trkpt>
      <trkpt lat="49.20142" lon="-0.06371">
        <ele>7.7</ele>
        <time>2023-10-11T12:32:15Z</time>
      </trkpt>
      <trkpt lat="49.20136" lon="-0.0638">
        <ele>7.7</ele>
        <time>2023-10-11T12:32:16Z</time>
      </trkpt>
      <trkpt lat="49.20131" lon="-0.06389">
        <ele>7.7</ele>
        <time>2023-10-11T12:32:17Z</time>
      </trkpt>
      <trkpt lat="49.20125" lon="-0.06398">
        <ele>7.7</ele>
        <time>2023-10-11T12:32:18Z</time>
      </trkpt>
      <trkpt lat="49.20121" lon="-0.06409">
        <ele>7.7</ele>
        <time>2023-10-11T12:32:19Z</time>
      </trkpt>
      <trkpt lat="49.20116" lon="-0.06419">
        <ele>7.7</ele>
        <time>2023-10-11T12:32:20Z</time>
      </trkpt>
      <trkpt lat="49.20111" lon="-0.0643">
        <ele>7.6</ele>
        <time>2023-10-11T12:32:21Z</time>
      </trkpt>
      <trkpt lat="49.20106" lon="-0.0644">
        <ele>7.6</ele>
        <time>2023-10-11T12:32:22Z</time>
      </trkpt>
      <trkpt lat="49.20101" lon="-0.0645">
        <ele>7.5</ele>
        <time>2023-10-11T12:32:23Z</time>
      </trkpt>
      <trkpt lat="49.20096" lon="-0.06459">
        <ele>7.5</ele>
        <time>2023-10-11T12:32:24Z</time>
      </trkpt>
      <trkpt lat="49.20089" lon="-0.06466">
        <ele>7.5</ele>
        <time>2023-10-11T12:32:25Z</time>
      </trkpt>
      <trkpt lat="49.20083" lon="-0.06472">
        <ele>7.5</ele>
        <time>2023-10-11T12:32:26Z</time>
      </trkpt>
      <trkpt lat="49.20076" lon="-0.06479">
        <ele>7.5</ele>
        <time>2023-10-11T12:32:27Z</time>
      </trkpt>
      <trkpt lat="49.20069" lon="-0.06485">
        <ele>7.4</ele>
        <time>2023-10-11T12:32:28Z</time>
      </trkpt>
      <trkpt lat="49.20062" lon="-0.06492">
        <ele>7.4</ele>
        <time>2023-10-11T12:32:29Z</time>
      </trkpt>
      <trkpt lat="49.20055" lon="-0.06498">
        <ele>7.4</ele>
        <time>2023-10-11T12:32:30Z</time>
      </trkpt>
      <trkpt lat="49.20048" lon="-0.06505">
        <ele>7.4</ele>
        <time>2023-10-11T12:32:31Z</time>
      </trkpt>
      <trkpt lat="49.20042" lon="-0.06511">
        <ele>7.4</ele>
        <time>2023-10-11T12:32:32Z</time>
      </trkpt>
      <trkpt lat="49.20036" lon="-0.06518">
        <ele>7.4</ele>
        <time>2023-10-11T12:32:33Z</time>
      </trkpt>
      <trkpt lat="49.2003" lon="-0.06524">
        <ele>7.4</ele>
        <time>2023-10-11T12:32:34Z</time>
      </trkpt>
      <trkpt lat="49.20024" lon="-0.06531">
        <ele>7.4</ele>
        <time>2023-10-11T12:32:35Z</time>
      </trkpt>
      <trkpt lat="49.20018" lon="-0.06537">
        <ele>7.4</ele>
        <time>2023-10-11T12:32:36Z</time>
      </trkpt>
      <trkpt lat="49.20012" lon="-0.06542">
        <ele>7.3</ele>
        <time>2023-10-11T12:32:37Z</time>
      </trkpt>
      <trkpt lat="49.20005" lon="-0.06547">
        <ele>7.3</ele>
        <time>2023-10-11T12:32:38Z</time>
      </trkpt>
      <trkpt lat="49.19998" lon="-0.06551">
        <ele>7.3</ele>
        <time>2023-10-11T12:32:39Z</time>
      </trkpt>
      <trkpt lat="49.19991" lon="-0.06554">
        <ele>7.3</ele>
        <time>2023-10-11T12:32:40Z</time>
      </trkpt>
      <trkpt lat="49.19984" lon="-0.06556">
        <ele>7.3</ele>
        <time>2023-10-11T12:32:41Z</time>
      </trkpt>
      <trkpt lat="49.19976" lon="-0.06557">
        <ele>7.3</ele>
        <time>2023-10-11T12:32:42Z</time>
      </trkpt>
      <trkpt lat="49.19969" lon="-0.06558">
        <ele>7.3</ele>
        <time>2023-10-11T12:32:43Z</time>
      </trkpt>
      <trkpt lat="49.19961" lon="-0.06558">
        <ele>7.3</ele>
        <time>2023-10-11T12:32:44Z</time>
      </trkpt>
      <trkpt lat="49.19954" lon="-0.06559">
        <ele>7.2</ele>
        <time>2023-10-11T12:32:45Z</time>
      </trkpt>
      <trkpt lat="49.19947" lon="-0.06559">
        <ele>7.2</ele>
        <time>2023-10-11T12:32:46Z</time>
      </trkpt>
      <trkpt lat="49.19939" lon="-0.06559">
        <ele>7.2</ele>
        <time>2023-10-11T12:32:47Z</time>
      </trkpt>
      <trkpt lat="49.19932" lon="-0.0656">
        <ele>7.2</ele>
        <time>2023-10-11T12:32:48Z</time>
      </trkpt>
      <trkpt lat="49.19924" lon="-0.0656">
        <ele>7.2</ele>
        <time>2023-10-11T12:32:49Z</time>
      </trkpt>
      <trkpt lat="49.19917" lon="-0.0656">
        <ele>7.2</ele>
        <time>2023-10-11T12:32:50Z</time>
      </trkpt>
      <trkpt lat="49.1991" lon="-0.0656">
        <ele>7.2</ele>
        <time>2023-10-11T12:32:51Z</time>
      </trkpt>
      <trkpt lat="49.19902" lon="-0.0656">
        <ele>7.2</ele>
        <time>2023-10-11T12:32:52Z</time>
      </trkpt>
      <trkpt lat="49.19895" lon="-0.0656">
        <ele>7.2</ele>
        <time>2023-10-11T12:32:53Z</time>
      </trkpt>
      <trkpt lat="49.19888" lon="-0.0656">
        <ele>7.2</ele>
        <time>2023-10-11T12:32:54Z</time>
      </trkpt>
      <trkpt lat="49.19881" lon="-0.0656">
        <ele>7.2</ele>
        <time>2023-10-11T12:32:55Z</time>
      </trkpt>
      <trkpt lat="49.19874" lon="-0.06559">
        <ele>7.2</ele>
        <time>2023-10-11T12:32:56Z</time>
      </trkpt>
      <trkpt lat="49.19867" lon="-0.06557">
        <ele>7.2</ele>
        <time>2023-10-11T12:32:57Z</time>
      </trkpt>
      <trkpt lat="49.1986" lon="-0.06555">
        <ele>7.2</ele>
        <time>2023-10-11T12:32:58Z</time>
      </trkpt>
      <trkpt lat="49.19853" lon="-0.06552">
        <ele>7.3</ele>
        <time>2023-10-11T12:32:59Z</time>
      </trkpt>
      <trkpt lat="49.19846" lon="-0.06549">
        <ele>7.3</ele>
        <time>2023-10-11T12:33:00Z</time>
      </trkpt>
      <trkpt lat="49.19839" lon="-0.06545">
        <ele>7.3</ele>
        <time>2023-10-11T12:33:01Z</time>
      </trkpt>
      <trkpt lat="49.19832" lon="-0.06541">
        <ele>7.4</ele>
        <time>2023-10-11T12:33:02Z</time>
      </trkpt>
      <trkpt lat="49.19825" lon="-0.06537">
        <ele>7.5</ele>
        <time>2023-10-11T12:33:03Z</time>
      </trkpt>
      <trkpt lat="49.19819" lon="-0.06533">
        <ele>7.6</ele>
        <time>2023-10-11T12:33:04Z</time>
      </trkpt>
      <trkpt lat="49.19812" lon="-0.06528">
        <ele>7.6</ele>
        <time>2023-10-11T12:33:05Z</time>
      </trkpt>
      <trkpt lat="49.19805" lon="-0.06524">
        <ele>7.6</ele>
        <time>2023-10-11T12:33:06Z</time>
      </trkpt>
      <trkpt lat="49.19798" lon="-0.0652">
        <ele>7.6</ele>
        <time>2023-10-11T12:33:07Z</time>
      </trkpt>
      <trkpt lat="49.19792" lon="-0.06516">
        <ele>7.6</ele>
        <time>2023-10-11T12:33:08Z</time>
      </trkpt>
      <trkpt lat="49.19785" lon="-0.06511">
        <ele>7.7</ele>
        <time>2023-10-11T12:33:09Z</time>
      </trkpt>
      <trkpt lat="49.19779" lon="-0.06507">
        <ele>7.7</ele>
        <time>2023-10-11T12:33:10Z</time>
      </trkpt>
      <trkpt lat="49.19772" lon="-0.06502">
        <ele>7.7</ele>
        <time>2023-10-11T12:33:11Z</time>
      </trkpt>
      <trkpt lat="49.19765" lon="-0.06498">
        <ele>7.8</ele>
        <time>2023-10-11T12:33:12Z</time>
      </trkpt>
      <trkpt lat="49.19758" lon="-0.06494">
        <ele>7.9</ele>
        <time>2023-10-11T12:33:13Z</time>
      </trkpt>
      <trkpt lat="49.19751" lon="-0.0649">
        <ele>8</ele>
        <time>2023-10-11T12:33:14Z</time>
      </trkpt>
      <trkpt lat="49.19745" lon="-0.06484">
        <ele>8</ele>
        <time>2023-10-11T12:33:15Z</time>
      </trkpt>
      <trkpt lat="49.1974" lon="-0.06478">
        <ele>8.1</ele>
        <time>2023-10-11T12:33:16Z</time>
      </trkpt>
      <trkpt lat="49.19734" lon="-0.06471">
        <ele>8.2</ele>
        <time>2023-10-11T12:33:17Z</time>
      </trkpt>
      <trkpt lat="49.19729" lon="-0.06463">
        <ele>8.3</ele>
        <time>2023-10-11T12:33:18Z</time>
      </trkpt>
      <trkpt lat="49.19724" lon="-0.06455">
        <ele>8.3</ele>
        <time>2023-10-11T12:33:19Z</time>
      </trkpt>
      <trkpt lat="49.1972" lon="-0.06445">
        <ele>8.4</ele>
        <time>2023-10-11T12:33:20Z</time>
      </trkpt>
      <trkpt lat="49.19717" lon="-0.06436">
        <ele>8.5</ele>
        <time>2023-10-11T12:33:21Z</time>
      </trkpt>
      <trkpt lat="49.19713" lon="-0.06427">
        <ele>8.5</ele>
        <time>2023-10-11T12:33:22Z</time>
      </trkpt>
      <trkpt lat="49.19709" lon="-0.06418">
        <ele>8.6</ele>
        <time>2023-10-11T12:33:23Z</time>
      </trkpt>
      <trkpt lat="49.19705" lon="-0.06408">
        <ele>8.7</ele>
        <time>2023-10-11T12:33:24Z</time>
      </trkpt>
      <trkpt lat="49.19701" lon="-0.064">
        <ele>8.8</ele>
        <time>2023-10-11T12:33:25Z</time>
      </trkpt>
      <trkpt lat="49.19696" lon="-0.06391">
        <ele>8.8</ele>
        <time>2023-10-11T12:33:26Z</time>
      </trkpt>
      <trkpt lat="49.19692" lon="-0.06382">
        <ele>8.9</ele>
        <time>2023-10-11T12:33:27Z</time>
      </trkpt>
      <trkpt lat="49.19687" lon="-0.06374">
        <ele>9</ele>
        <time>2023-10-11T12:33:28Z</time>
      </trkpt>
      <trkpt lat="49.19682" lon="-0.06367">
        <ele>9.1</ele>
        <time>2023-10-11T12:33:29Z</time>
      </trkpt>
      <trkpt lat="49.19677" lon="-0.0636">
        <ele>9.2</ele>
        <time>2023-10-11T12:33:30Z</time>
      </trkpt>
      <trkpt lat="49.19672" lon="-0.06353">
        <ele>9.3</ele>
        <time>2023-10-11T12:33:31Z</time>
      </trkpt>
      <trkpt lat="49.19666" lon="-0.06348">
        <ele>9.4</ele>
        <time>2023-10-11T12:33:32Z</time>
      </trkpt>
      <trkpt lat="49.1966" lon="-0.06343">
        <ele>9.4</ele>
        <time>2023-10-11T12:33:33Z</time>
      </trkpt>
      <trkpt lat="49.19654" lon="-0.06338">
        <ele>9.5</ele>
        <time>2023-10-11T12:33:34Z</time>
      </trkpt>
      <trkpt lat="49.19647" lon="-0.06333">
        <ele>9.6</ele>
        <time>2023-10-11T12:33:35Z</time>
      </trkpt>
      <trkpt lat="49.19641" lon="-0.06328">
        <ele>9.7</ele>
        <time>2023-10-11T12:33:36Z</time>
      </trkpt>
      <trkpt lat="49.19635" lon="-0.06323">
        <ele>9.7</ele>
        <time>2023-10-11T12:33:37Z</time>
      </trkpt>
      <trkpt lat="49.19629" lon="-0.06318">
        <ele>9.8</ele>
        <time>2023-10-11T12:33:38Z</time>
      </trkpt>
      <trkpt lat="49.19623" lon="-0.06314">
        <ele>9.9</ele>
        <time>2023-10-11T12:33:39Z</time>
      </trkpt>
      <trkpt lat="49.19617" lon="-0.0631">
        <ele>9.9</ele>
        <time>2023-10-11T12:33:40Z</time>
      </trkpt>
      <trkpt lat="49.19611" lon="-0.06305">
        <ele>10</ele>
        <time>2023-10-11T12:33:41Z</time>
      </trkpt>
      <trkpt lat="49.19604" lon="-0.063">
        <ele>10.1</ele>
        <time>2023-10-11T12:33:42Z</time>
      </trkpt>
      <trkpt lat="49.19598" lon="-0.06296">
        <ele>10.2</ele>
        <time>2023-10-11T12:33:43Z</time>
      </trkpt>
      <trkpt lat="49.19592" lon="-0.06291">
        <ele>10.2</ele>
        <time>2023-10-11T12:33:44Z</time>
      </trkpt>
      <trkpt lat="49.19586" lon="-0.06286">
        <ele>10.3</ele>
        <time>2023-10-11T12:33:45Z</time>
      </trkpt>
      <trkpt lat="49.1958" lon="-0.06281">
        <ele>10.4</ele>
        <time>2023-10-11T12:33:46Z</time>
      </trkpt>
      <trkpt lat="49.19574" lon="-0.06276">
        <ele>10.5</ele>
        <time>2023-10-11T12:33:47Z</time>
      </trkpt>
      <trkpt lat="49.19568" lon="-0.06271">
        <ele>10.6</ele>
        <time>2023-10-11T12:33:48Z</time>
      </trkpt>
      <trkpt lat="49.19562" lon="-0.06265">
        <ele>10.7</ele>
        <time>2023-10-11T12:33:49Z</time>
      </trkpt>
      <trkpt lat="49.19557" lon="-0.06259">
        <ele>10.8</ele>
        <time>2023-10-11T12:33:50Z</time>
      </trkpt>
      <trkpt lat="49.19551" lon="-0.06253">
        <ele>10.9</ele>
        <time>2023-10-11T12:33:51Z</time>
      </trkpt>
      <trkpt lat="49.19546" lon="-0.06246">
        <ele>11</ele>
        <time>2023-10-11T12:33:52Z</time>
      </trkpt>
      <trkpt lat="49.19542" lon="-0.06238">
        <ele>11.1</ele>
        <time>2023-10-11T12:33:53Z</time>
      </trkpt>
      <trkpt lat="49.19537" lon="-0.0623">
        <ele>11.2</ele>
        <time>2023-10-11T12:33:54Z</time>
      </trkpt>
      <trkpt lat="49.19533" lon="-0.06222">
        <ele>11.2</ele>
        <time>2023-10-11T12:33:55Z</time>
      </trkpt>
      <trkpt lat="49.19529" lon="-0.06213">
        <ele>11.3</ele>
        <time>2023-10-11T12:33:56Z</time>
      </trkpt>
      <trkpt lat="49.19525" lon="-0.06205">
        <ele>11.4</ele>
        <time>2023-10-11T12:33:57Z</time>
      </trkpt>
      <trkpt lat="49.19522" lon="-0.06195">
        <ele>11.5</ele>
        <time>2023-10-11T12:33:58Z</time>
      </trkpt>
      <trkpt lat="49.19519" lon="-0.06185">
        <ele>11.6</ele>
        <time>2023-10-11T12:33:59Z</time>
      </trkpt>
      <trkpt lat="49.19516" lon="-0.06175">
        <ele>11.8</ele>
        <time>2023-10-11T12:34:00Z</time>
      </trkpt>
      <trkpt lat="49.19514" lon="-0.06166">
        <ele>11.9</ele>
        <time>2023-10-11T12:34:01Z</time>
      </trkpt>
      <trkpt lat="49.19512" lon="-0.06156">
        <ele>12</ele>
        <time>2023-10-11T12:34:02Z</time>
      </trkpt>
      <trkpt lat="49.19511" lon="-0.06146">
        <ele>12.1</ele>
        <time>2023-10-11T12:34:03Z</time>
      </trkpt>
      <trkpt lat="49.19509" lon="-0.06136">
        <ele>12.1</ele>
        <time>2023-10-11T12:34:04Z</time>
      </trkpt>
      <trkpt lat="49.19508" lon="-0.06126">
        <ele>12.2</ele>
        <time>2023-10-11T12:34:05Z</time>
      </trkpt>
      <trkpt lat="49.19506" lon="-0.06116">
        <ele>12.2</ele>
        <time>2023-10-11T12:34:06Z</time>
      </trkpt>
      <trkpt lat="49.19505" lon="-0.06105">
        <ele>12.3</ele>
        <time>2023-10-11T12:34:07Z</time>
      </trkpt>
      <trkpt lat="49.19504" lon="-0.06094">
        <ele>12.4</ele>
        <time>2023-10-11T12:34:08Z</time>
      </trkpt>
      <trkpt lat="49.19503" lon="-0.06083">
        <ele>12.4</ele>
        <time>2023-10-11T12:34:09Z</time>
      </trkpt>
      <trkpt lat="49.19501" lon="-0.06073">
        <ele>12.5</ele>
        <time>2023-10-11T12:34:10Z</time>
      </trkpt>
      <trkpt lat="49.195" lon="-0.06062">
        <ele>12.6</ele>
        <time>2023-10-11T12:34:11Z</time>
      </trkpt>
      <trkpt lat="49.19498" lon="-0.06051">
        <ele>12.6</ele>
        <time>2023-10-11T12:34:12Z</time>
      </trkpt>
      <trkpt lat="49.19497" lon="-0.06041">
        <ele>12.7</ele>
        <time>2023-10-11T12:34:13Z</time>
      </trkpt>
      <trkpt lat="49.19495" lon="-0.0603">
        <ele>12.7</ele>
        <time>2023-10-11T12:34:14Z</time>
      </trkpt>
      <trkpt lat="49.19493" lon="-0.06019">
        <ele>12.7</ele>
        <time>2023-10-11T12:34:15Z</time>
      </trkpt>
      <trkpt lat="49.19492" lon="-0.06008">
        <ele>12.8</ele>
        <time>2023-10-11T12:34:16Z</time>
      </trkpt>
      <trkpt lat="49.1949" lon="-0.05998">
        <ele>12.8</ele>
        <time>2023-10-11T12:34:17Z</time>
      </trkpt>
      <trkpt lat="49.19489" lon="-0.05987">
        <ele>12.9</ele>
        <time>2023-10-11T12:34:18Z</time>
      </trkpt>
      <trkpt lat="49.19487" lon="-0.05976">
        <ele>12.9</ele>
        <time>2023-10-11T12:34:19Z</time>
      </trkpt>
      <trkpt lat="49.19486" lon="-0.05965">
        <ele>13</ele>
        <time>2023-10-11T12:34:20Z</time>
      </trkpt>
      <trkpt lat="49.19485" lon="-0.05954">
        <ele>13</ele>
        <time>2023-10-11T12:34:21Z</time>
      </trkpt>
      <trkpt lat="49.19484" lon="-0.05943">
        <ele>13.1</ele>
        <time>2023-10-11T12:34:22Z</time>
      </trkpt>
      <trkpt lat="49.19483" lon="-0.05932">
        <ele>13.1</ele>
        <time>2023-10-11T12:34:23Z</time>
      </trkpt>
      <trkpt lat="49.19483" lon="-0.05921">
        <ele>13.1</ele>
        <time>2023-10-11T12:34:24Z</time>
      </trkpt>
      <trkpt lat="49.19483" lon="-0.0591">
        <ele>13.2</ele>
        <time>2023-10-11T12:34:25Z</time>
      </trkpt>
      <trkpt lat="49.19483" lon="-0.059">
        <ele>13.2</ele>
        <time>2023-10-11T12:34:26Z</time>
      </trkpt>
      <trkpt lat="49.19484" lon="-0.05889">
        <ele>13.2</ele>
        <time>2023-10-11T12:34:27Z</time>
      </trkpt>
      <trkpt lat="49.19486" lon="-0.05877">
        <ele>13.3</ele>
        <time>2023-10-11T12:34:28Z</time>
      </trkpt>
      <trkpt lat="49.19487" lon="-0.05866">
        <ele>13.3</ele>
        <time>2023-10-11T12:34:29Z</time>
      </trkpt>
      <trkpt lat="49.19488" lon="-0.05855">
        <ele>13.3</ele>
        <time>2023-10-11T12:34:30Z</time>
      </trkpt>
      <trkpt lat="49.19489" lon="-0.05844">
        <ele>13.3</ele>
        <time>2023-10-11T12:34:31Z</time>
      </trkpt>
      <trkpt lat="49.19491" lon="-0.05833">
        <ele>13.3</ele>
        <time>2023-10-11T12:34:32Z</time>
      </trkpt>
      <trkpt lat="49.19492" lon="-0.05822">
        <ele>13.3</ele>
        <time>2023-10-11T12:34:33Z</time>
      </trkpt>
      <trkpt lat="49.19493" lon="-0.05811">
        <ele>13.3</ele>
        <time>2023-10-11T12:34:34Z</time>
      </trkpt>
      <trkpt lat="49.19495" lon="-0.058">
        <ele>13.4</ele>
        <time>2023-10-11T12:34:35Z</time>
      </trkpt>
      <trkpt lat="49.19496" lon="-0.05789">
        <ele>13.4</ele>
        <time>2023-10-11T12:34:36Z</time>
      </trkpt>
      <trkpt lat="49.19498" lon="-0.05777">
        <ele>13.4</ele>
        <time>2023-10-11T12:34:37Z</time>
      </trkpt>
      <trkpt lat="49.19499" lon="-0.05766">
        <ele>13.5</ele>
        <time>2023-10-11T12:34:38Z</time>
      </trkpt>
      <trkpt lat="49.19501" lon="-0.05755">
        <ele>13.5</ele>
        <time>2023-10-11T12:34:39Z</time>
      </trkpt>
      <trkpt lat="49.19502" lon="-0.05744">
        <ele>13.6</ele>
        <time>2023-10-11T12:34:40Z</time>
      </trkpt>
      <trkpt lat="49.19503" lon="-0.05733">
        <ele>13.6</ele>
        <time>2023-10-11T12:34:41Z</time>
      </trkpt>
      <trkpt lat="49.19504" lon="-0.05722">
        <ele>13.7</ele>
        <time>2023-10-11T12:34:42Z</time>
      </trkpt>
      <trkpt lat="49.19506" lon="-0.05711">
        <ele>13.8</ele>
        <time>2023-10-11T12:34:43Z</time>
      </trkpt>
      <trkpt lat="49.19507" lon="-0.057">
        <ele>13.9</ele>
        <time>2023-10-11T12:34:44Z</time>
      </trkpt>
      <trkpt lat="49.19508" lon="-0.05689">
        <ele>13.9</ele>
        <time>2023-10-11T12:34:45Z</time>
      </trkpt>
      <trkpt lat="49.1951" lon="-0.05678">
        <ele>14</ele>
        <time>2023-10-11T12:34:46Z</time>
      </trkpt>
      <trkpt lat="49.19511" lon="-0.05668">
        <ele>14.1</ele>
        <time>2023-10-11T12:34:47Z</time>
      </trkpt>
      <trkpt lat="49.19512" lon="-0.05657">
        <ele>14.2</ele>
        <time>2023-10-11T12:34:48Z</time>
      </trkpt>
      <trkpt lat="49.19513" lon="-0.05647">
        <ele>14.3</ele>
        <time>2023-10-11T12:34:49Z</time>
      </trkpt>
      <trkpt lat="49.19515" lon="-0.05636">
        <ele>14.5</ele>
        <time>2023-10-11T12:34:50Z</time>
      </trkpt>
      <trkpt lat="49.19516" lon="-0.05626">
        <ele>14.6</ele>
        <time>2023-10-11T12:34:51Z</time>
      </trkpt>
      <trkpt lat="49.19516" lon="-0.05615">
        <ele>14.8</ele>
        <time>2023-10-11T12:34:52Z</time>
      </trkpt>
      <trkpt lat="49.19517" lon="-0.05604">
        <ele>14.9</ele>
        <time>2023-10-11T12:34:53Z</time>
      </trkpt>
      <trkpt lat="49.19517" lon="-0.05594">
        <ele>15</ele>
        <time>2023-10-11T12:34:54Z</time>
      </trkpt>
      <trkpt lat="49.19517" lon="-0.05583">
        <ele>15.2</ele>
        <time>2023-10-11T12:34:55Z</time>
      </trkpt>
      <trkpt lat="49.19516" lon="-0.05571">
        <ele>15.3</ele>
        <time>2023-10-11T12:34:56Z</time>
      </trkpt>
      <trkpt lat="49.19515" lon="-0.0556">
        <ele>15.5</ele>
        <time>2023-10-11T12:34:57Z</time>
      </trkpt>
      <trkpt lat="49.19514" lon="-0.05548">
        <ele>15.6</ele>
        <time>2023-10-11T12:34:58Z</time>
      </trkpt>
      <trkpt lat="49.19512" lon="-0.05537">
        <ele>15.7</ele>
        <time>2023-10-11T12:34:59Z</time>
      </trkpt>
      <trkpt lat="49.1951" lon="-0.05527">
        <ele>15.8</ele>
        <time>2023-10-11T12:35:00Z</time>
      </trkpt>
      <trkpt lat="49.19508" lon="-0.05516">
        <ele>16</ele>
        <time>2023-10-11T12:35:01Z</time>
      </trkpt>
      <trkpt lat="49.19506" lon="-0.05505">
        <ele>16.1</ele>
        <time>2023-10-11T12:35:02Z</time>
      </trkpt>
      <trkpt lat="49.19503" lon="-0.05495">
        <ele>16.3</ele>
        <time>2023-10-11T12:35:03Z</time>
      </trkpt>
      <trkpt lat="49.19501" lon="-0.05485">
        <ele>16.4</ele>
        <time>2023-10-11T12:35:04Z</time>
      </trkpt>
      <trkpt lat="49.19499" lon="-0.05475">
        <ele>16.6</ele>
        <time>2023-10-11T12:35:05Z</time>
      </trkpt>
      <trkpt lat="49.19497" lon="-0.05465">
        <ele>16.7</ele>
        <time>2023-10-11T12:35:06Z</time>
      </trkpt>
      <trkpt lat="49.19495" lon="-0.05455">
        <ele>16.9</ele>
        <time>2023-10-11T12:35:07Z</time>
      </trkpt>
      <trkpt lat="49.19493" lon="-0.05445">
        <ele>17.1</ele>
        <time>2023-10-11T12:35:08Z</time>
      </trkpt>
      <trkpt lat="49.19492" lon="-0.05434">
        <ele>17.3</ele>
        <time>2023-10-11T12:35:09Z</time>
      </trkpt>
      <trkpt lat="49.1949" lon="-0.05424">
        <ele>17.5</ele>
        <time>2023-10-11T12:35:10Z</time>
      </trkpt>
      <trkpt lat="49.1949" lon="-0.05414">
        <ele>17.5</ele>
        <time>2023-10-11T12:35:11Z</time>
      </trkpt>
      <trkpt lat="49.1949" lon="-0.05403">
        <ele>17.7</ele>
        <time>2023-10-11T12:35:12Z</time>
      </trkpt>
      <trkpt lat="49.1949" lon="-0.05392">
        <ele>17.8</ele>
        <time>2023-10-11T12:35:13Z</time>
      </trkpt>
      <trkpt lat="49.19491" lon="-0.05382">
        <ele>17.9</ele>
        <time>2023-10-11T12:35:14Z</time>
      </trkpt>
      <trkpt lat="49.19492" lon="-0.05371">
        <ele>18</ele>
        <time>2023-10-11T12:35:15Z</time>
      </trkpt>
      <trkpt lat="49.19493" lon="-0.0536">
        <ele>18.1</ele>
        <time>2023-10-11T12:35:16Z</time>
      </trkpt>
      <trkpt lat="49.19494" lon="-0.05349">
        <ele>18.2</ele>
        <time>2023-10-11T12:35:17Z</time>
      </trkpt>
      <trkpt lat="49.19494" lon="-0.05339">
        <ele>18.3</ele>
        <time>2023-10-11T12:35:18Z</time>
      </trkpt>
      <trkpt lat="49.19495" lon="-0.05328">
        <ele>18.4</ele>
        <time>2023-10-11T12:35:19Z</time>
      </trkpt>
      <trkpt lat="49.19496" lon="-0.05318">
        <ele>18.6</ele>
        <time>2023-10-11T12:35:20Z</time>
      </trkpt>
      <trkpt lat="49.19496" lon="-0.05307">
        <ele>18.7</ele>
        <time>2023-10-11T12:35:21Z</time>
      </trkpt>
      <trkpt lat="49.19497" lon="-0.05297">
        <ele>18.8</ele>
        <time>2023-10-11T12:35:22Z</time>
      </trkpt>
      <trkpt lat="49.19498" lon="-0.05286">
        <ele>18.9</ele>
        <time>2023-10-11T12:35:23Z</time>
      </trkpt>
      <trkpt lat="49.19498" lon="-0.05275">
        <ele>19</ele>
        <time>2023-10-11T12:35:24Z</time>
      </trkpt>
      <trkpt lat="49.19499" lon="-0.05265">
        <ele>19.1</ele>
        <time>2023-10-11T12:35:25Z</time>
      </trkpt>
      <trkpt lat="49.19499" lon="-0.05254">
        <ele>19.2</ele>
        <time>2023-10-11T12:35:26Z</time>
      </trkpt>
      <trkpt lat="49.195" lon="-0.05244">
        <ele>19.3</ele>
        <time>2023-10-11T12:35:27Z</time>
      </trkpt>
      <trkpt lat="49.19501" lon="-0.05233">
        <ele>19.3</ele>
        <time>2023-10-11T12:35:28Z</time>
      </trkpt>
      <trkpt lat="49.19502" lon="-0.05223">
        <ele>19.4</ele>
        <time>2023-10-11T12:35:29Z</time>
      </trkpt>
      <trkpt lat="49.19502" lon="-0.05213">
        <ele>19.4</ele>
        <time>2023-10-11T12:35:30Z</time>
      </trkpt>
      <trkpt lat="49.19503" lon="-0.05202">
        <ele>19.6</ele>
        <time>2023-10-11T12:35:31Z</time>
      </trkpt>
      <trkpt lat="49.19504" lon="-0.05191">
        <ele>19.7</ele>
        <time>2023-10-11T12:35:32Z</time>
      </trkpt>
      <trkpt lat="49.19504" lon="-0.05181">
        <ele>19.8</ele>
        <time>2023-10-11T12:35:33Z</time>
      </trkpt>
      <trkpt lat="49.19505" lon="-0.0517">
        <ele>20</ele>
        <time>2023-10-11T12:35:34Z</time>
      </trkpt>
      <trkpt lat="49.19505" lon="-0.0516">
        <ele>20.1</ele>
        <time>2023-10-11T12:35:35Z</time>
      </trkpt>
      <trkpt lat="49.19506" lon="-0.05149">
        <ele>20.3</ele>
        <time>2023-10-11T12:35:36Z</time>
      </trkpt>
      <trkpt lat="49.19507" lon="-0.05139">
        <ele>20.4</ele>
        <time>2023-10-11T12:35:37Z</time>
      </trkpt>
      <trkpt lat="49.19507" lon="-0.05129">
        <ele>20.6</ele>
        <time>2023-10-11T12:35:38Z</time>
      </trkpt>
      <trkpt lat="49.19508" lon="-0.05119">
        <ele>20.7</ele>
        <time>2023-10-11T12:35:39Z</time>
      </trkpt>
      <trkpt lat="49.19509" lon="-0.05109">
        <ele>20.9</ele>
        <time>2023-10-11T12:35:40Z</time>
      </trkpt>
      <trkpt lat="49.19509" lon="-0.05099">
        <ele>21</ele>
        <time>2023-10-11T12:35:41Z</time>
      </trkpt>
      <trkpt lat="49.1951" lon="-0.05089">
        <ele>21.2</ele>
        <time>2023-10-11T12:35:42Z</time>
      </trkpt>
      <trkpt lat="49.19511" lon="-0.05079">
        <ele>21.4</ele>
        <time>2023-10-11T12:35:43Z</time>
      </trkpt>
      <trkpt lat="49.19511" lon="-0.05069">
        <ele>21.5</ele>
        <time>2023-10-11T12:35:44Z</time>
      </trkpt>
      <trkpt lat="49.19512" lon="-0.05059">
        <ele>21.7</ele>
        <time>2023-10-11T12:35:45Z</time>
      </trkpt>
      <trkpt lat="49.19512" lon="-0.05049">
        <ele>21.9</ele>
        <time>2023-10-11T12:35:46Z</time>
      </trkpt>
      <trkpt lat="49.19511" lon="-0.05039">
        <ele>22.1</ele>
        <time>2023-10-11T12:35:47Z</time>
      </trkpt>
      <trkpt lat="49.1951" lon="-0.05029">
        <ele>22.3</ele>
        <time>2023-10-11T12:35:48Z</time>
      </trkpt>
      <trkpt lat="49.19509" lon="-0.05019">
        <ele>22.5</ele>
        <time>2023-10-11T12:35:49Z</time>
      </trkpt>
      <trkpt lat="49.19507" lon="-0.0501">
        <ele>22.7</ele>
        <time>2023-10-11T12:35:50Z</time>
      </trkpt>
      <trkpt lat="49.19505" lon="-0.05001">
        <ele>22.9</ele>
        <time>2023-10-11T12:35:51Z</time>
      </trkpt>
      <trkpt lat="49.19503" lon="-0.04992">
        <ele>23.1</ele>
        <time>2023-10-11T12:35:52Z</time>
      </trkpt>
      <trkpt lat="49.19499" lon="-0.04983">
        <ele>23.3</ele>
        <time>2023-10-11T12:35:53Z</time>
      </trkpt>
      <trkpt lat="49.19496" lon="-0.04975">
        <ele>23.5</ele>
        <time>2023-10-11T12:35:54Z</time>
      </trkpt>
      <trkpt lat="49.19492" lon="-0.04967">
        <ele>23.7</ele>
        <time>2023-10-11T12:35:55Z</time>
      </trkpt>
      <trkpt lat="49.19489" lon="-0.04959">
        <ele>23.9</ele>
        <time>2023-10-11T12:35:56Z</time>
      </trkpt>
      <trkpt lat="49.19485" lon="-0.0495">
        <ele>24.2</ele>
        <time>2023-10-11T12:35:57Z</time>
      </trkpt>
      <trkpt lat="49.19481" lon="-0.04942">
        <ele>24.4</ele>
        <time>2023-10-11T12:35:58Z</time>
      </trkpt>
      <trkpt lat="49.19478" lon="-0.04934">
        <ele>24.6</ele>
        <time>2023-10-11T12:35:59Z</time>
      </trkpt>
      <trkpt lat="49.19474" lon="-0.04927">
        <ele>24.8</ele>
        <time>2023-10-11T12:36:00Z</time>
      </trkpt>
      <trkpt lat="49.1947" lon="-0.04919">
        <ele>25.1</ele>
        <time>2023-10-11T12:36:01Z</time>
      </trkpt>
      <trkpt lat="49.19467" lon="-0.04911">
        <ele>25.3</ele>
        <time>2023-10-11T12:36:02Z</time>
      </trkpt>
      <trkpt lat="49.19463" lon="-0.04904">
        <ele>25.5</ele>
        <time>2023-10-11T12:36:03Z</time>
      </trkpt>
      <trkpt lat="49.19459" lon="-0.04896">
        <ele>25.7</ele>
        <time>2023-10-11T12:36:04Z</time>
      </trkpt>
      <trkpt lat="49.19456" lon="-0.04888">
        <ele>25.9</ele>
        <time>2023-10-11T12:36:05Z</time>
      </trkpt>
      <trkpt lat="49.19452" lon="-0.04881">
        <ele>26.2</ele>
        <time>2023-10-11T12:36:06Z</time>
      </trkpt>
      <trkpt lat="49.19449" lon="-0.04873">
        <ele>26.4</ele>
        <time>2023-10-11T12:36:07Z</time>
      </trkpt>
      <trkpt lat="49.19445" lon="-0.04865">
        <ele>26.6</ele>
        <time>2023-10-11T12:36:08Z</time>
      </trkpt>
      <trkpt lat="49.19441" lon="-0.04858">
        <ele>26.8</ele>
        <time>2023-10-11T12:36:09Z</time>
      </trkpt>
      <trkpt lat="49.19438" lon="-0.0485">
        <ele>26.9</ele>
        <time>2023-10-11T12:36:10Z</time>
      </trkpt>
      <trkpt lat="49.19434" lon="-0.04842">
        <ele>27</ele>
        <time>2023-10-11T12:36:11Z</time>
      </trkpt>
      <trkpt lat="49.1943" lon="-0.04834">
        <ele>27.1</ele>
        <time>2023-10-11T12:36:12Z</time>
      </trkpt>
      <trkpt lat="49.19427" lon="-0.04827">
        <ele>27.3</ele>
        <time>2023-10-11T12:36:13Z</time>
      </trkpt>
      <trkpt lat="49.19423" lon="-0.04819">
        <ele>27.4</ele>
        <time>2023-10-11T12:36:14Z</time>
      </trkpt>
      <trkpt lat="49.19419" lon="-0.04811">
        <ele>27.5</ele>
        <time>2023-10-11T12:36:15Z</time>
      </trkpt>
      <trkpt lat="49.19415" lon="-0.04804">
        <ele>27.6</ele>
        <time>2023-10-11T12:36:16Z</time>
      </trkpt>
      <trkpt lat="49.19412" lon="-0.04796">
        <ele>27.8</ele>
        <time>2023-10-11T12:36:17Z</time>
      </trkpt>
      <trkpt lat="49.19408" lon="-0.04788">
        <ele>27.8</ele>
        <time>2023-10-11T12:36:18Z</time>
      </trkpt>
      <trkpt lat="49.19405" lon="-0.0478">
        <ele>27.9</ele>
        <time>2023-10-11T12:36:19Z</time>
      </trkpt>
      <trkpt lat="49.19401" lon="-0.04772">
        <ele>28</ele>
        <time>2023-10-11T12:36:20Z</time>
      </trkpt>
      <trkpt lat="49.19397" lon="-0.04764">
        <ele>28</ele>
        <time>2023-10-11T12:36:21Z</time>
      </trkpt>
      <trkpt lat="49.19394" lon="-0.04757">
        <ele>28</ele>
        <time>2023-10-11T12:36:22Z</time>
      </trkpt>
      <trkpt lat="49.1939" lon="-0.0475">
        <ele>27.9</ele>
        <time>2023-10-11T12:36:23Z</time>
      </trkpt>
      <trkpt lat="49.19385" lon="-0.04743">
        <ele>27.7</ele>
        <time>2023-10-11T12:36:24Z</time>
      </trkpt>
      <trkpt lat="49.19381" lon="-0.04736">
        <ele>27.4</ele>
        <time>2023-10-11T12:36:25Z</time>
      </trkpt>
      <trkpt lat="49.19375" lon="-0.0473">
        <ele>27.1</ele>
        <time>2023-10-11T12:36:26Z</time>
      </trkpt>
      <trkpt lat="49.19369" lon="-0.04726">
        <ele>26.7</ele>
        <time>2023-10-11T12:36:27Z</time>
      </trkpt>
      <trkpt lat="49.19362" lon="-0.04722">
        <ele>26.3</ele>
        <time>2023-10-11T12:36:28Z</time>
      </trkpt>
      <trkpt lat="49.19355" lon="-0.0472">
        <ele>25.8</ele>
        <time>2023-10-11T12:36:29Z</time>
      </trkpt>
      <trkpt lat="49.19347" lon="-0.04719">
        <ele>25.3</ele>
        <time>2023-10-11T12:36:30Z</time>
      </trkpt>
      <trkpt lat="49.19339" lon="-0.04719">
        <ele>24.8</ele>
        <time>2023-10-11T12:36:31Z</time>
      </trkpt>
      <trkpt lat="49.19331" lon="-0.04719">
        <ele>24.3</ele>
        <time>2023-10-11T12:36:32Z</time>
      </trkpt>
      <trkpt lat="49.19323" lon="-0.04718">
        <ele>23.7</ele>
        <time>2023-10-11T12:36:33Z</time>
      </trkpt>
      <trkpt lat="49.19314" lon="-0.04715">
        <ele>23.2</ele>
        <time>2023-10-11T12:36:34Z</time>
      </trkpt>
      <trkpt lat="49.19306" lon="-0.04712">
        <ele>22.6</ele>
        <time>2023-10-11T12:36:35Z</time>
      </trkpt>
      <trkpt lat="49.19297" lon="-0.04709">
        <ele>22</ele>
        <time>2023-10-11T12:36:36Z</time>
      </trkpt>
      <trkpt lat="49.19288" lon="-0.04706">
        <ele>21.4</ele>
        <time>2023-10-11T12:36:37Z</time>
      </trkpt>
      <trkpt lat="49.19279" lon="-0.04702">
        <ele>20.7</ele>
        <time>2023-10-11T12:36:38Z</time>
      </trkpt>
      <trkpt lat="49.1927" lon="-0.04698">
        <ele>20.1</ele>
        <time>2023-10-11T12:36:39Z</time>
      </trkpt>
      <trkpt lat="49.19261" lon="-0.04694">
        <ele>19.4</ele>
        <time>2023-10-11T12:36:40Z</time>
      </trkpt>
      <trkpt lat="49.19252" lon="-0.0469">
        <ele>18.7</ele>
        <time>2023-10-11T12:36:41Z</time>
      </trkpt>
      <trkpt lat="49.19243" lon="-0.04686">
        <ele>18</ele>
        <time>2023-10-11T12:36:42Z</time>
      </trkpt>
      <trkpt lat="49.19233" lon="-0.04681">
        <ele>17.3</ele>
        <time>2023-10-11T12:36:43Z</time>
      </trkpt>
      <trkpt lat="49.19224" lon="-0.04676">
        <ele>16.7</ele>
        <time>2023-10-11T12:36:44Z</time>
      </trkpt>
      <trkpt lat="49.19214" lon="-0.04671">
        <ele>16.1</ele>
        <time>2023-10-11T12:36:45Z</time>
      </trkpt>
      <trkpt lat="49.19204" lon="-0.04665">
        <ele>15.5</ele>
        <time>2023-10-11T12:36:46Z</time>
      </trkpt>
      <trkpt lat="49.19194" lon="-0.04659">
        <ele>15</ele>
        <time>2023-10-11T12:36:47Z</time>
      </trkpt>
      <trkpt lat="49.19185" lon="-0.04654">
        <ele>14.5</ele>
        <time>2023-10-11T12:36:48Z</time>
      </trkpt>
      <trkpt lat="49.19175" lon="-0.04649">
        <ele>14</ele>
        <time>2023-10-11T12:36:49Z</time>
      </trkpt>
      <trkpt lat="49.19165" lon="-0.04644">
        <ele>13.6</ele>
        <time>2023-10-11T12:36:50Z</time>
      </trkpt>
      <trkpt lat="49.19155" lon="-0.0464">
        <ele>13.2</ele>
        <time>2023-10-11T12:36:51Z</time>
      </trkpt>
      <trkpt lat="49.19145" lon="-0.04637">
        <ele>12.9</ele>
        <time>2023-10-11T12:36:52Z</time>
      </trkpt>
      <trkpt lat="49.19135" lon="-0.04635">
        <ele>12.6</ele>
        <time>2023-10-11T12:36:53Z</time>
      </trkpt>
      <trkpt lat="49.19126" lon="-0.04634">
        <ele>12.5</ele>
        <time>2023-10-11T12:36:54Z</time>
      </trkpt>
      <trkpt lat="49.19117" lon="-0.04633">
        <ele>12.4</ele>
        <time>2023-10-11T12:36:55Z</time>
      </trkpt>
      <trkpt lat="49.19108" lon="-0.04631">
        <ele>12.3</ele>
        <time>2023-10-11T12:36:56Z</time>
      </trkpt>
      <trkpt lat="49.191" lon="-0.04631">
        <ele>12.2</ele>
        <time>2023-10-11T12:36:57Z</time>
      </trkpt>
      <trkpt lat="49.19091" lon="-0.04629">
        <ele>12.1</ele>
        <time>2023-10-11T12:36:58Z</time>
      </trkpt>
      <trkpt lat="49.19083" lon="-0.04628">
        <ele>12</ele>
        <time>2023-10-11T12:36:59Z</time>
      </trkpt>
      <trkpt lat="49.19074" lon="-0.04627">
        <ele>12</ele>
        <time>2023-10-11T12:37:00Z</time>
      </trkpt>
      <trkpt lat="49.19066" lon="-0.04626">
        <ele>12</ele>
        <time>2023-10-11T12:37:01Z</time>
      </trkpt>
      <trkpt lat="49.19057" lon="-0.04625">
        <ele>12</ele>
        <time>2023-10-11T12:37:02Z</time>
      </trkpt>
      <trkpt lat="49.19048" lon="-0.04624">
        <ele>11.9</ele>
        <time>2023-10-11T12:37:03Z</time>
      </trkpt>
      <trkpt lat="49.1904" lon="-0.04623">
        <ele>11.9</ele>
        <time>2023-10-11T12:37:04Z</time>
      </trkpt>
      <trkpt lat="49.19032" lon="-0.04622">
        <ele>11.8</ele>
        <time>2023-10-11T12:37:05Z</time>
      </trkpt>
      <trkpt lat="49.19024" lon="-0.04622">
        <ele>11.7</ele>
        <time>2023-10-11T12:37:06Z</time>
      </trkpt>
      <trkpt lat="49.19016" lon="-0.04622">
        <ele>11.6</ele>
        <time>2023-10-11T12:37:07Z</time>
      </trkpt>
      <trkpt lat="49.19008" lon="-0.04621">
        <ele>11.5</ele>
        <time>2023-10-11T12:37:08Z</time>
      </trkpt>
      <trkpt lat="49.19001" lon="-0.0462">
        <ele>11.4</ele>
        <time>2023-10-11T12:37:09Z</time>
      </trkpt>
      <trkpt lat="49.18994" lon="-0.04619">
        <ele>11.4</ele>
        <time>2023-10-11T12:37:10Z</time>
      </trkpt>
      <trkpt lat="49.18987" lon="-0.04619">
        <ele>11.3</ele>
        <time>2023-10-11T12:37:11Z</time>
      </trkpt>
      <trkpt lat="49.18979" lon="-0.04619">
        <ele>11.2</ele>
        <time>2023-10-11T12:37:12Z</time>
      </trkpt>
      <trkpt lat="49.18972" lon="-0.04619">
        <ele>11.2</ele>
        <time>2023-10-11T12:37:13Z</time>
      </trkpt>
      <trkpt lat="49.18964" lon="-0.04619">
        <ele>11.1</ele>
        <time>2023-10-11T12:37:14Z</time>
      </trkpt>
      <trkpt lat="49.18957" lon="-0.04618">
        <ele>11</ele>
        <time>2023-10-11T12:37:15Z</time>
      </trkpt>
      <trkpt lat="49.18949" lon="-0.04618">
        <ele>10.9</ele>
        <time>2023-10-11T12:37:16Z</time>
      </trkpt>
      <trkpt lat="49.18941" lon="-0.04617">
        <ele>10.9</ele>
        <time>2023-10-11T12:37:17Z</time>
      </trkpt>
      <trkpt lat="49.18934" lon="-0.04617">
        <ele>10.8</ele>
        <time>2023-10-11T12:37:18Z</time>
      </trkpt>
      <trkpt lat="49.18926" lon="-0.04616">
        <ele>10.8</ele>
        <time>2023-10-11T12:37:19Z</time>
      </trkpt>
      <trkpt lat="49.18919" lon="-0.04614">
        <ele>10.8</ele>
        <time>2023-10-11T12:37:20Z</time>
      </trkpt>
      <trkpt lat="49.18912" lon="-0.04611">
        <ele>10.8</ele>
        <time>2023-10-11T12:37:21Z</time>
      </trkpt>
      <trkpt lat="49.18904" lon="-0.04608">
        <ele>10.8</ele>
        <time>2023-10-11T12:37:22Z</time>
      </trkpt>
      <trkpt lat="49.18897" lon="-0.04606">
        <ele>10.7</ele>
        <time>2023-10-11T12:37:23Z</time>
      </trkpt>
      <trkpt lat="49.1889" lon="-0.04603">
        <ele>10.7</ele>
        <time>2023-10-11T12:37:24Z</time>
      </trkpt>
      <trkpt lat="49.18883" lon="-0.04601">
        <ele>10.7</ele>
        <time>2023-10-11T12:37:25Z</time>
      </trkpt>
      <trkpt lat="49.18876" lon="-0.04599">
        <ele>10.7</ele>
        <time>2023-10-11T12:37:26Z</time>
      </trkpt>
      <trkpt lat="49.18869" lon="-0.04597">
        <ele>10.7</ele>
        <time>2023-10-11T12:37:27Z</time>
      </trkpt>
      <trkpt lat="49.18863" lon="-0.04595">
        <ele>10.6</ele>
        <time>2023-10-11T12:37:28Z</time>
      </trkpt>
      <trkpt lat="49.18857" lon="-0.04593">
        <ele>10.6</ele>
        <time>2023-10-11T12:37:29Z</time>
      </trkpt>
      <trkpt lat="49.18851" lon="-0.04592">
        <ele>10.5</ele>
        <time>2023-10-11T12:37:30Z</time>
      </trkpt>
      <trkpt lat="49.18844" lon="-0.04591">
        <ele>10.5</ele>
        <time>2023-10-11T12:37:31Z</time>
      </trkpt>
      <trkpt lat="49.18837" lon="-0.0459">
        <ele>10.5</ele>
        <time>2023-10-11T12:37:32Z</time>
      </trkpt>
      <trkpt lat="49.1883" lon="-0.04589">
        <ele>10.5</ele>
        <time>2023-10-11T12:37:33Z</time>
      </trkpt>
      <trkpt lat="49.18822" lon="-0.0459">
        <ele>10.4</ele>
        <time>2023-10-11T12:37:34Z</time>
      </trkpt>
      <trkpt lat="49.18816" lon="-0.0459">
        <ele>10.4</ele>
        <time>2023-10-11T12:37:35Z</time>
      </trkpt>
      <trkpt lat="49.18809" lon="-0.0459">
        <ele>10.4</ele>
        <time>2023-10-11T12:37:36Z</time>
      </trkpt>
      <trkpt lat="49.18802" lon="-0.04589">
        <ele>10.4</ele>
        <time>2023-10-11T12:37:37Z</time>
      </trkpt>
      <trkpt lat="49.18795" lon="-0.04588">
        <ele>10.4</ele>
        <time>2023-10-11T12:37:38Z</time>
      </trkpt>
      <trkpt lat="49.18788" lon="-0.04588">
        <ele>10.3</ele>
        <time>2023-10-11T12:37:39Z</time>
      </trkpt>
      <trkpt lat="49.18781" lon="-0.04588">
        <ele>10.3</ele>
        <time>2023-10-11T12:37:40Z</time>
      </trkpt>
      <trkpt lat="49.18774" lon="-0.04588">
        <ele>10.3</ele>
        <time>2023-10-11T12:37:41Z</time>
      </trkpt>
      <trkpt lat="49.18767" lon="-0.04588">
        <ele>10.3</ele>
        <time>2023-10-11T12:37:42Z</time>
      </trkpt>
      <trkpt lat="49.1876" lon="-0.04587">
        <ele>10.3</ele>
        <time>2023-10-11T12:37:43Z</time>
      </trkpt>
      <trkpt lat="49.18753" lon="-0.04585">
        <ele>10.3</ele>
        <time>2023-10-11T12:37:44Z</time>
      </trkpt>
      <trkpt lat="49.18746" lon="-0.04582">
        <ele>10.3</ele>
        <time>2023-10-11T12:37:45Z</time>
      </trkpt>
      <trkpt lat="49.18739" lon="-0.04578">
        <ele>10.4</ele>
        <time>2023-10-11T12:37:46Z</time>
      </trkpt>
      <trkpt lat="49.18732" lon="-0.04573">
        <ele>10.4</ele>
        <time>2023-10-11T12:37:47Z</time>
      </trkpt>
      <trkpt lat="49.18727" lon="-0.04568">
        <ele>10.4</ele>
        <time>2023-10-11T12:37:48Z</time>
      </trkpt>
      <trkpt lat="49.1872" lon="-0.04563">
        <ele>10.5</ele>
        <time>2023-10-11T12:37:49Z</time>
      </trkpt>
      <trkpt lat="49.18714" lon="-0.04558">
        <ele>10.5</ele>
        <time>2023-10-11T12:37:50Z</time>
      </trkpt>
      <trkpt lat="49.18708" lon="-0.04553">
        <ele>10.5</ele>
        <time>2023-10-11T12:37:51Z</time>
      </trkpt>
      <trkpt lat="49.18702" lon="-0.04548">
        <ele>10.6</ele>
        <time>2023-10-11T12:37:52Z</time>
      </trkpt>
      <trkpt lat="49.18695" lon="-0.04543">
        <ele>10.6</ele>
        <time>2023-10-11T12:37:53Z</time>
      </trkpt>
      <trkpt lat="49.18689" lon="-0.04538">
        <ele>10.6</ele>
        <time>2023-10-11T12:37:54Z</time>
      </trkpt>
      <trkpt lat="49.18683" lon="-0.04533">
        <ele>10.6</ele>
        <time>2023-10-11T12:37:55Z</time>
      </trkpt>
      <trkpt lat="49.18676" lon="-0.04528">
        <ele>10.6</ele>
        <time>2023-10-11T12:37:56Z</time>
      </trkpt>
      <trkpt lat="49.18669" lon="-0.04524">
        <ele>10.6</ele>
        <time>2023-10-11T12:37:57Z</time>
      </trkpt>
      <trkpt lat="49.18663" lon="-0.04519">
        <ele>10.7</ele>
        <time>2023-10-11T12:37:58Z</time>
      </trkpt>
      <trkpt lat="49.18656" lon="-0.04515">
        <ele>10.7</ele>
        <time>2023-10-11T12:37:59Z</time>
      </trkpt>
      <trkpt lat="49.1865" lon="-0.04511">
        <ele>10.7</ele>
        <time>2023-10-11T12:38:00Z</time>
      </trkpt>
      <trkpt lat="49.18643" lon="-0.04507">
        <ele>10.7</ele>
        <time>2023-10-11T12:38:01Z</time>
      </trkpt>
      <trkpt lat="49.18636" lon="-0.04504">
        <ele>10.7</ele>
        <time>2023-10-11T12:38:02Z</time>
      </trkpt>
      <trkpt lat="49.18629" lon="-0.04501">
        <ele>10.7</ele>
        <time>2023-10-11T12:38:03Z</time>
      </trkpt>
      <trkpt lat="49.18623" lon="-0.04498">
        <ele>10.7</ele>
        <time>2023-10-11T12:38:04Z</time>
      </trkpt>
      <trkpt lat="49.18616" lon="-0.04496">
        <ele>10.7</ele>
        <time>2023-10-11T12:38:05Z</time>
      </trkpt>
      <trkpt lat="49.18609" lon="-0.04494">
        <ele>10.7</ele>
        <time>2023-10-11T12:38:06Z</time>
      </trkpt>
      <trkpt lat="49.18601" lon="-0.04493">
        <ele>10.7</ele>
        <time>2023-10-11T12:38:07Z</time>
      </trkpt>
      <trkpt lat="49.18594" lon="-0.04491">
        <ele>10.6</ele>
        <time>2023-10-11T12:38:08Z</time>
      </trkpt>
      <trkpt lat="49.18587" lon="-0.0449">
        <ele>10.6</ele>
        <time>2023-10-11T12:38:09Z</time>
      </trkpt>
      <trkpt lat="49.1858" lon="-0.04488">
        <ele>10.6</ele>
        <time>2023-10-11T12:38:10Z</time>
      </trkpt>
      <trkpt lat="49.18573" lon="-0.04487">
        <ele>10.6</ele>
        <time>2023-10-11T12:38:11Z</time>
      </trkpt>
      <trkpt lat="49.18566" lon="-0.04486">
        <ele>10.5</ele>
        <time>2023-10-11T12:38:12Z</time>
      </trkpt>
      <trkpt lat="49.18558" lon="-0.04485">
        <ele>10.5</ele>
        <time>2023-10-11T12:38:13Z</time>
      </trkpt>
      <trkpt lat="49.18551" lon="-0.04484">
        <ele>10.5</ele>
        <time>2023-10-11T12:38:14Z</time>
      </trkpt>
      <trkpt lat="49.18543" lon="-0.04483">
        <ele>10.4</ele>
        <time>2023-10-11T12:38:15Z</time>
      </trkpt>
      <trkpt lat="49.18535" lon="-0.04483">
        <ele>10.4</ele>
        <time>2023-10-11T12:38:16Z</time>
      </trkpt>
      <trkpt lat="49.18527" lon="-0.04482">
        <ele>10.4</ele>
        <time>2023-10-11T12:38:17Z</time>
      </trkpt>
      <trkpt lat="49.1852" lon="-0.0448">
        <ele>10.4</ele>
        <time>2023-10-11T12:38:18Z</time>
      </trkpt>
      <trkpt lat="49.18512" lon="-0.04479">
        <ele>10.4</ele>
        <time>2023-10-11T12:38:19Z</time>
      </trkpt>
      <trkpt lat="49.18505" lon="-0.04477">
        <ele>10.5</ele>
        <time>2023-10-11T12:38:20Z</time>
      </trkpt>
      <trkpt lat="49.18497" lon="-0.04474">
        <ele>10.5</ele>
        <time>2023-10-11T12:38:21Z</time>
      </trkpt>
      <trkpt lat="49.1849" lon="-0.04472">
        <ele>10.4</ele>
        <time>2023-10-11T12:38:22Z</time>
      </trkpt>
      <trkpt lat="49.18482" lon="-0.0447">
        <ele>10.4</ele>
        <time>2023-10-11T12:38:23Z</time>
      </trkpt>
      <trkpt lat="49.18475" lon="-0.04467">
        <ele>10.4</ele>
        <time>2023-10-11T12:38:24Z</time>
      </trkpt>
      <trkpt lat="49.18467" lon="-0.04464">
        <ele>10.4</ele>
        <time>2023-10-11T12:38:25Z</time>
      </trkpt>
      <trkpt lat="49.1846" lon="-0.0446">
        <ele>10.4</ele>
        <time>2023-10-11T12:38:26Z</time>
      </trkpt>
      <trkpt lat="49.18452" lon="-0.04458">
        <ele>10.5</ele>
        <time>2023-10-11T12:38:27Z</time>
      </trkpt>
      <trkpt lat="49.18445" lon="-0.04455">
        <ele>10.5</ele>
        <time>2023-10-11T12:38:28Z</time>
      </trkpt>
      <trkpt lat="49.18437" lon="-0.04453">
        <ele>10.6</ele>
        <time>2023-10-11T12:38:29Z</time>
      </trkpt>
      <trkpt lat="49.1843" lon="-0.04451">
        <ele>10.7</ele>
        <time>2023-10-11T12:38:30Z</time>
      </trkpt>
      <trkpt lat="49.18423" lon="-0.04448">
        <ele>10.7</ele>
        <time>2023-10-11T12:38:31Z</time>
      </trkpt>
      <trkpt lat="49.18416" lon="-0.04446">
        <ele>10.7</ele>
        <time>2023-10-11T12:38:32Z</time>
      </trkpt>
      <trkpt lat="49.18408" lon="-0.04443">
        <ele>10.7</ele>
        <time>2023-10-11T12:38:33Z</time>
      </trkpt>
      <trkpt lat="49.18401" lon="-0.04441">
        <ele>10.7</ele>
        <time>2023-10-11T12:38:34Z</time>
      </trkpt>
      <trkpt lat="49.18394" lon="-0.04438">
        <ele>10.7</ele>
        <time>2023-10-11T12:38:35Z</time>
      </trkpt>
      <trkpt lat="49.18386" lon="-0.04436">
        <ele>10.7</ele>
        <time>2023-10-11T12:38:36Z</time>
      </trkpt>
      <trkpt lat="49.18379" lon="-0.04434">
        <ele>10.7</ele>
        <time>2023-10-11T12:38:37Z</time>
      </trkpt>
      <trkpt lat="49.18371" lon="-0.04432">
        <ele>10.7</ele>
        <time>2023-10-11T12:38:38Z</time>
      </trkpt>
      <trkpt lat="49.18364" lon="-0.04429">
        <ele>10.8</ele>
        <time>2023-10-11T12:38:39Z</time>
      </trkpt>
      <trkpt lat="49.18356" lon="-0.04427">
        <ele>10.8</ele>
        <time>2023-10-11T12:38:40Z</time>
      </trkpt>
      <trkpt lat="49.18348" lon="-0.04424">
        <ele>10.9</ele>
        <time>2023-10-11T12:38:41Z</time>
      </trkpt>
      <trkpt lat="49.18341" lon="-0.04422">
        <ele>10.9</ele>
        <time>2023-10-11T12:38:42Z</time>
      </trkpt>
      <trkpt lat="49.18333" lon="-0.04419">
        <ele>11</ele>
        <time>2023-10-11T12:38:43Z</time>
      </trkpt>
      <trkpt lat="49.18326" lon="-0.04417">
        <ele>11</ele>
        <time>2023-10-11T12:38:44Z</time>
      </trkpt>
      <trkpt lat="49.18318" lon="-0.04414">
        <ele>11.1</ele>
        <time>2023-10-11T12:38:45Z</time>
      </trkpt>
      <trkpt lat="49.18311" lon="-0.04411">
        <ele>11.2</ele>
        <time>2023-10-11T12:38:46Z</time>
      </trkpt>
      <trkpt lat="49.18303" lon="-0.04409">
        <ele>11.2</ele>
        <time>2023-10-11T12:38:47Z</time>
      </trkpt>
      <trkpt lat="49.18296" lon="-0.04406">
        <ele>11.2</ele>
        <time>2023-10-11T12:38:48Z</time>
      </trkpt>
      <trkpt lat="49.18289" lon="-0.04404">
        <ele>11.2</ele>
        <time>2023-10-11T12:38:49Z</time>
      </trkpt>
      <trkpt lat="49.18281" lon="-0.04401">
        <ele>11.2</ele>
        <time>2023-10-11T12:38:50Z</time>
      </trkpt>
      <trkpt lat="49.18274" lon="-0.04399">
        <ele>11.2</ele>
        <time>2023-10-11T12:38:51Z</time>
      </trkpt>
      <trkpt lat="49.18266" lon="-0.04397">
        <ele>11.2</ele>
        <time>2023-10-11T12:38:52Z</time>
      </trkpt>
      <trkpt lat="49.18259" lon="-0.04394">
        <ele>11.2</ele>
        <time>2023-10-11T12:38:53Z</time>
      </trkpt>
      <trkpt lat="49.18252" lon="-0.04392">
        <ele>11.2</ele>
        <time>2023-10-11T12:38:54Z</time>
      </trkpt>
      <trkpt lat="49.18244" lon="-0.04389">
        <ele>11.2</ele>
        <time>2023-10-11T12:38:55Z</time>
      </trkpt>
      <trkpt lat="49.18237" lon="-0.04387">
        <ele>11.2</ele>
        <time>2023-10-11T12:38:56Z</time>
      </trkpt>
      <trkpt lat="49.18229" lon="-0.04385">
        <ele>11.3</ele>
        <time>2023-10-11T12:38:57Z</time>
      </trkpt>
      <trkpt lat="49.18222" lon="-0.04382">
        <ele>11.3</ele>
        <time>2023-10-11T12:38:58Z</time>
      </trkpt>
      <trkpt lat="49.18214" lon="-0.0438">
        <ele>11.3</ele>
        <time>2023-10-11T12:38:59Z</time>
      </trkpt>
      <trkpt lat="49.18207" lon="-0.04377">
        <ele>11.3</ele>
        <time>2023-10-11T12:39:00Z</time>
      </trkpt>
      <trkpt lat="49.18199" lon="-0.04375">
        <ele>11.4</ele>
        <time>2023-10-11T12:39:01Z</time>
      </trkpt>
      <trkpt lat="49.18192" lon="-0.04372">
        <ele>11.4</ele>
        <time>2023-10-11T12:39:02Z</time>
      </trkpt>
      <trkpt lat="49.18184" lon="-0.0437">
        <ele>11.4</ele>
        <time>2023-10-11T12:39:03Z</time>
      </trkpt>
      <trkpt lat="49.18177" lon="-0.04367">
        <ele>11.5</ele>
        <time>2023-10-11T12:39:04Z</time>
      </trkpt>
      <trkpt lat="49.18169" lon="-0.04364">
        <ele>11.5</ele>
        <time>2023-10-11T12:39:05Z</time>
      </trkpt>
      <trkpt lat="49.18162" lon="-0.04362">
        <ele>11.5</ele>
        <time>2023-10-11T12:39:06Z</time>
      </trkpt>
      <trkpt lat="49.18155" lon="-0.04359">
        <ele>11.6</ele>
        <time>2023-10-11T12:39:07Z</time>
      </trkpt>
      <trkpt lat="49.18148" lon="-0.04356">
        <ele>11.7</ele>
        <time>2023-10-11T12:39:08Z</time>
      </trkpt>
      <trkpt lat="49.1814" lon="-0.04354">
        <ele>11.8</ele>
        <time>2023-10-11T12:39:09Z</time>
      </trkpt>
      <trkpt lat="49.18133" lon="-0.04351">
        <ele>11.9</ele>
        <time>2023-10-11T12:39:10Z</time>
      </trkpt>
      <trkpt lat="49.18125" lon="-0.04349">
        <ele>12</ele>
        <time>2023-10-11T12:39:11Z</time>
      </trkpt>
      <trkpt lat="49.18118" lon="-0.04347">
        <ele>12.2</ele>
        <time>2023-10-11T12:39:12Z</time>
      </trkpt>
      <trkpt lat="49.18111" lon="-0.04344">
        <ele>12.3</ele>
        <time>2023-10-11T12:39:13Z</time>
      </trkpt>
      <trkpt lat="49.18104" lon="-0.04341">
        <ele>12.5</ele>
        <time>2023-10-11T12:39:14Z</time>
      </trkpt>
      <trkpt lat="49.18097" lon="-0.04339">
        <ele>12.6</ele>
        <time>2023-10-11T12:39:15Z</time>
      </trkpt>
      <trkpt lat="49.1809" lon="-0.04337">
        <ele>12.8</ele>
        <time>2023-10-11T12:39:16Z</time>
      </trkpt>
      <trkpt lat="49.18083" lon="-0.04334">
        <ele>13</ele>
        <time>2023-10-11T12:39:17Z</time>
      </trkpt>
      <trkpt lat="49.18075" lon="-0.04332">
        <ele>13.2</ele>
        <time>2023-10-11T12:39:18Z</time>
      </trkpt>
      <trkpt lat="49.18069" lon="-0.04329">
        <ele>13.3</ele>
        <time>2023-10-11T12:39:19Z</time>
      </trkpt>
      <trkpt lat="49.18062" lon="-0.04326">
        <ele>13.5</ele>
        <time>2023-10-11T12:39:20Z</time>
      </trkpt>
      <trkpt lat="49.18055" lon="-0.04324">
        <ele>13.7</ele>
        <time>2023-10-11T12:39:21Z</time>
      </trkpt>
      <trkpt lat="49.18048" lon="-0.04321">
        <ele>13.9</ele>
        <time>2023-10-11T12:39:22Z</time>
      </trkpt>
      <trkpt lat="49.18042" lon="-0.04318">
        <ele>14.1</ele>
        <time>2023-10-11T12:39:23Z</time>
      </trkpt>
      <trkpt lat="49.18035" lon="-0.04316">
        <ele>14.4</ele>
        <time>2023-10-11T12:39:24Z</time>
      </trkpt>
      <trkpt lat="49.18029" lon="-0.04314">
        <ele>14.6</ele>
        <time>2023-10-11T12:39:25Z</time>
      </trkpt>
      <trkpt lat="49.18022" lon="-0.04312">
        <ele>14.9</ele>
        <time>2023-10-11T12:39:26Z</time>
      </trkpt>
      <trkpt lat="49.18016" lon="-0.0431">
        <ele>15.2</ele>
        <time>2023-10-11T12:39:27Z</time>
      </trkpt>
      <trkpt lat="49.1801" lon="-0.04309">
        <ele>15.4</ele>
        <time>2023-10-11T12:39:28Z</time>
      </trkpt>
      <trkpt lat="49.18004" lon="-0.04307">
        <ele>15.7</ele>
        <time>2023-10-11T12:39:29Z</time>
      </trkpt>
      <trkpt lat="49.17998" lon="-0.04305">
        <ele>15.9</ele>
        <time>2023-10-11T12:39:30Z</time>
      </trkpt>
      <trkpt lat="49.17992" lon="-0.04304">
        <ele>16.1</ele>
        <time>2023-10-11T12:39:31Z</time>
      </trkpt>
      <trkpt lat="49.17986" lon="-0.04302">
        <ele>16.4</ele>
        <time>2023-10-11T12:39:32Z</time>
      </trkpt>
      <trkpt lat="49.1798" lon="-0.043">
        <ele>16.6</ele>
        <time>2023-10-11T12:39:33Z</time>
      </trkpt>
      <trkpt lat="49.17975" lon="-0.04299">
        <ele>16.8</ele>
        <time>2023-10-11T12:39:34Z</time>
      </trkpt>
      <trkpt lat="49.17969" lon="-0.04297">
        <ele>17.1</ele>
        <time>2023-10-11T12:39:35Z</time>
      </trkpt>
      <trkpt lat="49.17964" lon="-0.04295">
        <ele>17.3</ele>
        <time>2023-10-11T12:39:36Z</time>
      </trkpt>
      <trkpt lat="49.17958" lon="-0.04294">
        <ele>17.5</ele>
        <time>2023-10-11T12:39:37Z</time>
      </trkpt>
      <trkpt lat="49.17953" lon="-0.04292">
        <ele>17.7</ele>
        <time>2023-10-11T12:39:38Z</time>
      </trkpt>
      <trkpt lat="49.17947" lon="-0.04291">
        <ele>17.9</ele>
        <time>2023-10-11T12:39:39Z</time>
      </trkpt>
      <trkpt lat="49.17941" lon="-0.04289">
        <ele>18.1</ele>
        <time>2023-10-11T12:39:40Z</time>
      </trkpt>
      <trkpt lat="49.17936" lon="-0.04287">
        <ele>18.4</ele>
        <time>2023-10-11T12:39:41Z</time>
      </trkpt>
      <trkpt lat="49.1793" lon="-0.04286">
        <ele>18.5</ele>
        <time>2023-10-11T12:39:42Z</time>
      </trkpt>
      <trkpt lat="49.17924" lon="-0.04284">
        <ele>18.7</ele>
        <time>2023-10-11T12:39:43Z</time>
      </trkpt>
      <trkpt lat="49.17918" lon="-0.04282">
        <ele>18.8</ele>
        <time>2023-10-11T12:39:44Z</time>
      </trkpt>
      <trkpt lat="49.17912" lon="-0.0428">
        <ele>18.9</ele>
        <time>2023-10-11T12:39:45Z</time>
      </trkpt>
      <trkpt lat="49.17907" lon="-0.04278">
        <ele>19.1</ele>
        <time>2023-10-11T12:39:46Z</time>
      </trkpt>
      <trkpt lat="49.17901" lon="-0.04276">
        <ele>19.2</ele>
        <time>2023-10-11T12:39:47Z</time>
      </trkpt>
      <trkpt lat="49.17896" lon="-0.04273">
        <ele>19.3</ele>
        <time>2023-10-11T12:39:48Z</time>
      </trkpt>
      <trkpt lat="49.1789" lon="-0.04271">
        <ele>19.5</ele>
        <time>2023-10-11T12:39:49Z</time>
      </trkpt>
      <trkpt lat="49.17885" lon="-0.04269">
        <ele>19.6</ele>
        <time>2023-10-11T12:39:50Z</time>
      </trkpt>
      <trkpt lat="49.17879" lon="-0.04267">
        <ele>19.7</ele>
        <time>2023-10-11T12:39:51Z</time>
      </trkpt>
      <trkpt lat="49.17873" lon="-0.04264">
        <ele>19.8</ele>
        <time>2023-10-11T12:39:52Z</time>
      </trkpt>
      <trkpt lat="49.17868" lon="-0.04261">
        <ele>19.9</ele>
        <time>2023-10-11T12:39:53Z</time>
      </trkpt>
      <trkpt lat="49.17862" lon="-0.04258">
        <ele>20</ele>
        <time>2023-10-11T12:39:54Z</time>
      </trkpt>
      <trkpt lat="49.17857" lon="-0.04255">
        <ele>20</ele>
        <time>2023-10-11T12:39:55Z</time>
      </trkpt>
      <trkpt lat="49.17851" lon="-0.04252">
        <ele>20.1</ele>
        <time>2023-10-11T12:39:56Z</time>
      </trkpt>
      <trkpt lat="49.17845" lon="-0.04249">
        <ele>20.1</ele>
        <time>2023-10-11T12:39:57Z</time>
      </trkpt>
      <trkpt lat="49.1784" lon="-0.04245">
        <ele>20.1</ele>
        <time>2023-10-11T12:39:58Z</time>
      </trkpt>
      <trkpt lat="49.17834" lon="-0.04241">
        <ele>20.1</ele>
        <time>2023-10-11T12:39:59Z</time>
      </trkpt>
      <trkpt lat="49.17828" lon="-0.04237">
        <ele>20.1</ele>
        <time>2023-10-11T12:40:00Z</time>
      </trkpt>
      <trkpt lat="49.17822" lon="-0.04233">
        <ele>20.1</ele>
        <time>2023-10-11T12:40:01Z</time>
      </trkpt>
      <trkpt lat="49.17817" lon="-0.04228">
        <ele>20.1</ele>
        <time>2023-10-11T12:40:02Z</time>
      </trkpt>
      <trkpt lat="49.17812" lon="-0.04222">
        <ele>20</ele>
        <time>2023-10-11T12:40:03Z</time>
      </trkpt>
      <trkpt lat="49.17807" lon="-0.04217">
        <ele>20</ele>
        <time>2023-10-11T12:40:04Z</time>
      </trkpt>
      <trkpt lat="49.17802" lon="-0.04212">
        <ele>19.9</ele>
        <time>2023-10-11T12:40:05Z</time>
      </trkpt>
      <trkpt lat="49.17797" lon="-0.04206">
        <ele>19.8</ele>
        <time>2023-10-11T12:40:06Z</time>
      </trkpt>
      <trkpt lat="49.17792" lon="-0.042">
        <ele>19.7</ele>
        <time>2023-10-11T12:40:07Z</time>
      </trkpt>
      <trkpt lat="49.17788" lon="-0.04194">
        <ele>19.6</ele>
        <time>2023-10-11T12:40:08Z</time>
      </trkpt>
      <trkpt lat="49.17783" lon="-0.04187">
        <ele>19.4</ele>
        <time>2023-10-11T12:40:09Z</time>
      </trkpt>
      <trkpt lat="49.17779" lon="-0.0418">
        <ele>19.3</ele>
        <time>2023-10-11T12:40:10Z</time>
      </trkpt>
      <trkpt lat="49.17774" lon="-0.04173">
        <ele>19.2</ele>
        <time>2023-10-11T12:40:11Z</time>
      </trkpt>
      <trkpt lat="49.1777" lon="-0.04165">
        <ele>19</ele>
        <time>2023-10-11T12:40:12Z</time>
      </trkpt>
      <trkpt lat="49.17765" lon="-0.04156">
        <ele>18.9</ele>
        <time>2023-10-11T12:40:13Z</time>
      </trkpt>
      <trkpt lat="49.1776" lon="-0.04148">
        <ele>18.8</ele>
        <time>2023-10-11T12:40:14Z</time>
      </trkpt>
      <trkpt lat="49.17756" lon="-0.04139">
        <ele>18.7</ele>
        <time>2023-10-11T12:40:15Z</time>
      </trkpt>
      <trkpt lat="49.17752" lon="-0.0413">
        <ele>18.5</ele>
        <time>2023-10-11T12:40:16Z</time>
      </trkpt>
      <trkpt lat="49.17748" lon="-0.04121">
        <ele>18.4</ele>
        <time>2023-10-11T12:40:17Z</time>
      </trkpt>
      <trkpt lat="49.17744" lon="-0.04111">
        <ele>18.2</ele>
        <time>2023-10-11T12:40:18Z</time>
      </trkpt>
      <trkpt lat="49.1774" lon="-0.04102">
        <ele>18.1</ele>
        <time>2023-10-11T12:40:19Z</time>
      </trkpt>
      <trkpt lat="49.17736" lon="-0.04093">
        <ele>18</ele>
        <time>2023-10-11T12:40:20Z</time>
      </trkpt>
      <trkpt lat="49.17732" lon="-0.04084">
        <ele>17.8</ele>
        <time>2023-10-11T12:40:21Z</time>
      </trkpt>
      <trkpt lat="49.17728" lon="-0.04075">
        <ele>17.7</ele>
        <time>2023-10-11T12:40:22Z</time>
      </trkpt>
      <trkpt lat="49.17723" lon="-0.04066">
        <ele>17.6</ele>
        <time>2023-10-11T12:40:23Z</time>
      </trkpt>
      <trkpt lat="49.17718" lon="-0.04057">
        <ele>17.5</ele>
        <time>2023-10-11T12:40:24Z</time>
      </trkpt>
      <trkpt lat="49.17713" lon="-0.04049">
        <ele>17.4</ele>
        <time>2023-10-11T12:40:25Z</time>
      </trkpt>
      <trkpt lat="49.17707" lon="-0.04042">
        <ele>17.4</ele>
        <time>2023-10-11T12:40:26Z</time>
      </trkpt>
      <trkpt lat="49.17701" lon="-0.04036">
        <ele>17.3</ele>
        <time>2023-10-11T12:40:27Z</time>
      </trkpt>
      <trkpt lat="49.17694" lon="-0.04031">
        <ele>17.2</ele>
        <time>2023-10-11T12:40:28Z</time>
      </trkpt>
      <trkpt lat="49.17687" lon="-0.04028">
        <ele>17.1</ele>
        <time>2023-10-11T12:40:29Z</time>
      </trkpt>
      <trkpt lat="49.17681" lon="-0.04023">
        <ele>16.9</ele>
        <time>2023-10-11T12:40:30Z</time>
      </trkpt>
      <trkpt lat="49.17674" lon="-0.04019">
        <ele>16.8</ele>
        <time>2023-10-11T12:40:31Z</time>
      </trkpt>
      <trkpt lat="49.17667" lon="-0.04015">
        <ele>16.7</ele>
        <time>2023-10-11T12:40:32Z</time>
      </trkpt>
      <trkpt lat="49.17659" lon="-0.04013">
        <ele>16.5</ele>
        <time>2023-10-11T12:40:33Z</time>
      </trkpt>
      <trkpt lat="49.17651" lon="-0.0401">
        <ele>16.4</ele>
        <time>2023-10-11T12:40:34Z</time>
      </trkpt>
      <trkpt lat="49.17644" lon="-0.04008">
        <ele>16.3</ele>
        <time>2023-10-11T12:40:35Z</time>
      </trkpt>
      <trkpt lat="49.17636" lon="-0.04006">
        <ele>16.3</ele>
        <time>2023-10-11T12:40:36Z</time>
      </trkpt>
      <trkpt lat="49.17629" lon="-0.04004">
        <ele>16.2</ele>
        <time>2023-10-11T12:40:37Z</time>
      </trkpt>
      <trkpt lat="49.17622" lon="-0.04002">
        <ele>16.2</ele>
        <time>2023-10-11T12:40:38Z</time>
      </trkpt>
      <trkpt lat="49.17615" lon="-0.04">
        <ele>16.2</ele>
        <time>2023-10-11T12:40:39Z</time>
      </trkpt>
      <trkpt lat="49.17608" lon="-0.03998">
        <ele>16.2</ele>
        <time>2023-10-11T12:40:40Z</time>
      </trkpt>
      <trkpt lat="49.17601" lon="-0.03996">
        <ele>16.2</ele>
        <time>2023-10-11T12:40:41Z</time>
      </trkpt>
      <trkpt lat="49.17594" lon="-0.03994">
        <ele>16.2</ele>
        <time>2023-10-11T12:40:42Z</time>
      </trkpt>
      <trkpt lat="49.17586" lon="-0.03993">
        <ele>16.3</ele>
        <time>2023-10-11T12:40:43Z</time>
      </trkpt>
      <trkpt lat="49.17578" lon="-0.03991">
        <ele>16.4</ele>
        <time>2023-10-11T12:40:44Z</time>
      </trkpt>
      <trkpt lat="49.1757" lon="-0.03989">
        <ele>16.5</ele>
        <time>2023-10-11T12:40:45Z</time>
      </trkpt>
      <trkpt lat="49.17563" lon="-0.03988">
        <ele>16.6</ele>
        <time>2023-10-11T12:40:46Z</time>
      </trkpt>
      <trkpt lat="49.17555" lon="-0.03986">
        <ele>16.7</ele>
        <time>2023-10-11T12:40:47Z</time>
      </trkpt>
      <trkpt lat="49.17548" lon="-0.03983">
        <ele>16.8</ele>
        <time>2023-10-11T12:40:48Z</time>
      </trkpt>
      <trkpt lat="49.17541" lon="-0.03981">
        <ele>17</ele>
        <time>2023-10-11T12:40:49Z</time>
      </trkpt>
      <trkpt lat="49.17534" lon="-0.03979">
        <ele>17.1</ele>
        <time>2023-10-11T12:40:50Z</time>
      </trkpt>
      <trkpt lat="49.17527" lon="-0.03977">
        <ele>17.2</ele>
        <time>2023-10-11T12:40:51Z</time>
      </trkpt>
      <trkpt lat="49.17519" lon="-0.03975">
        <ele>17.3</ele>
        <time>2023-10-11T12:40:52Z</time>
      </trkpt>
      <trkpt lat="49.17512" lon="-0.03973">
        <ele>17.4</ele>
        <time>2023-10-11T12:40:53Z</time>
      </trkpt>
      <trkpt lat="49.17505" lon="-0.03971">
        <ele>17.6</ele>
        <time>2023-10-11T12:40:54Z</time>
      </trkpt>
      <trkpt lat="49.17498" lon="-0.0397">
        <ele>17.7</ele>
        <time>2023-10-11T12:40:55Z</time>
      </trkpt>
      <trkpt lat="49.17491" lon="-0.03967">
        <ele>17.8</ele>
        <time>2023-10-11T12:40:56Z</time>
      </trkpt>
      <trkpt lat="49.17484" lon="-0.03965">
        <ele>18</ele>
        <time>2023-10-11T12:40:57Z</time>
      </trkpt>
      <trkpt lat="49.17477" lon="-0.03963">
        <ele>18.1</ele>
        <time>2023-10-11T12:40:58Z</time>
      </trkpt>
      <trkpt lat="49.1747" lon="-0.03961">
        <ele>18.3</ele>
        <time>2023-10-11T12:40:59Z</time>
      </trkpt>
      <trkpt lat="49.17463" lon="-0.03959">
        <ele>18.4</ele>
        <time>2023-10-11T12:41:00Z</time>
      </trkpt>
      <trkpt lat="49.17456" lon="-0.03957">
        <ele>18.6</ele>
        <time>2023-10-11T12:41:01Z</time>
      </trkpt>
      <trkpt lat="49.17449" lon="-0.03956">
        <ele>18.7</ele>
        <time>2023-10-11T12:41:02Z</time>
      </trkpt>
      <trkpt lat="49.17443" lon="-0.03953">
        <ele>18.9</ele>
        <time>2023-10-11T12:41:03Z</time>
      </trkpt>
      <trkpt lat="49.17436" lon="-0.03952">
        <ele>19.1</ele>
        <time>2023-10-11T12:41:04Z</time>
      </trkpt>
      <trkpt lat="49.17429" lon="-0.03949">
        <ele>19.2</ele>
        <time>2023-10-11T12:41:05Z</time>
      </trkpt>
      <trkpt lat="49.17422" lon="-0.03948">
        <ele>19.4</ele>
        <time>2023-10-11T12:41:06Z</time>
      </trkpt>
      <trkpt lat="49.17415" lon="-0.03946">
        <ele>19.6</ele>
        <time>2023-10-11T12:41:07Z</time>
      </trkpt>
      <trkpt lat="49.17408" lon="-0.03943">
        <ele>19.8</ele>
        <time>2023-10-11T12:41:08Z</time>
      </trkpt>
      <trkpt lat="49.17401" lon="-0.03941">
        <ele>20</ele>
        <time>2023-10-11T12:41:09Z</time>
      </trkpt>
      <trkpt lat="49.17395" lon="-0.03939">
        <ele>20.2</ele>
        <time>2023-10-11T12:41:10Z</time>
      </trkpt>
      <trkpt lat="49.17388" lon="-0.03936">
        <ele>20.4</ele>
        <time>2023-10-11T12:41:11Z</time>
      </trkpt>
      <trkpt lat="49.17381" lon="-0.03934">
        <ele>20.6</ele>
        <time>2023-10-11T12:41:12Z</time>
      </trkpt>
      <trkpt lat="49.17374" lon="-0.03932">
        <ele>20.9</ele>
        <time>2023-10-11T12:41:13Z</time>
      </trkpt>
      <trkpt lat="49.17368" lon="-0.0393">
        <ele>21.1</ele>
        <time>2023-10-11T12:41:14Z</time>
      </trkpt>
      <trkpt lat="49.17361" lon="-0.03928">
        <ele>21.4</ele>
        <time>2023-10-11T12:41:15Z</time>
      </trkpt>
      <trkpt lat="49.17354" lon="-0.03925">
        <ele>21.6</ele>
        <time>2023-10-11T12:41:16Z</time>
      </trkpt>
      <trkpt lat="49.17348" lon="-0.03923">
        <ele>21.9</ele>
        <time>2023-10-11T12:41:17Z</time>
      </trkpt>
      <trkpt lat="49.17341" lon="-0.03921">
        <ele>22.2</ele>
        <time>2023-10-11T12:41:18Z</time>
      </trkpt>
      <trkpt lat="49.17335" lon="-0.03918">
        <ele>22.4</ele>
        <time>2023-10-11T12:41:19Z</time>
      </trkpt>
      <trkpt lat="49.17329" lon="-0.03914">
        <ele>22.7</ele>
        <time>2023-10-11T12:41:20Z</time>
      </trkpt>
      <trkpt lat="49.17322" lon="-0.0391">
        <ele>22.9</ele>
        <time>2023-10-11T12:41:21Z</time>
      </trkpt>
      <trkpt lat="49.17316" lon="-0.03907">
        <ele>23.4</ele>
        <time>2023-10-11T12:41:22Z</time>
      </trkpt>
      <trkpt lat="49.1731" lon="-0.03906">
        <ele>23.4</ele>
        <time>2023-10-11T12:41:23Z</time>
      </trkpt>
      <trkpt lat="49.17304" lon="-0.03909">
        <ele>23.4</ele>
        <time>2023-10-11T12:41:24Z</time>
      </trkpt>
      <trkpt lat="49.17299" lon="-0.03914">
        <ele>23.5</ele>
        <time>2023-10-11T12:41:25Z</time>
      </trkpt>
      <trkpt lat="49.17294" lon="-0.03922">
        <ele>23.5</ele>
        <time>2023-10-11T12:41:26Z</time>
      </trkpt>
      <trkpt lat="49.17291" lon="-0.03932">
        <ele>23.6</ele>
        <time>2023-10-11T12:41:27Z</time>
      </trkpt>
      <trkpt lat="49.17287" lon="-0.03941">
        <ele>23.7</ele>
        <time>2023-10-11T12:41:28Z</time>
      </trkpt>
      <trkpt lat="49.17284" lon="-0.03949">
        <ele>23.8</ele>
        <time>2023-10-11T12:41:29Z</time>
      </trkpt>
      <trkpt lat="49.17281" lon="-0.03957">
        <ele>23.9</ele>
        <time>2023-10-11T12:41:30Z</time>
      </trkpt>
      <trkpt lat="49.17278" lon="-0.03966">
        <ele>24</ele>
        <time>2023-10-11T12:41:31Z</time>
      </trkpt>
      <trkpt lat="49.17275" lon="-0.03974">
        <ele>24</ele>
        <time>2023-10-11T12:41:32Z</time>
      </trkpt>
      <trkpt lat="49.17272" lon="-0.03983">
        <ele>24.1</ele>
        <time>2023-10-11T12:41:33Z</time>
      </trkpt>
      <trkpt lat="49.17269" lon="-0.03992">
        <ele>24.2</ele>
        <time>2023-10-11T12:41:34Z</time>
      </trkpt>
      <trkpt lat="49.17266" lon="-0.04002">
        <ele>24.3</ele>
        <time>2023-10-11T12:41:35Z</time>
      </trkpt>
      <trkpt lat="49.17262" lon="-0.04011">
        <ele>24.4</ele>
        <time>2023-10-11T12:41:36Z</time>
      </trkpt>
      <trkpt lat="49.17259" lon="-0.04021">
        <ele>24.5</ele>
        <time>2023-10-11T12:41:37Z</time>
      </trkpt>
      <trkpt lat="49.17256" lon="-0.0403">
        <ele>24.6</ele>
        <time>2023-10-11T12:41:38Z</time>
      </trkpt>
      <trkpt lat="49.17254" lon="-0.0404">
        <ele>24.7</ele>
        <time>2023-10-11T12:41:39Z</time>
      </trkpt>
      <trkpt lat="49.17251" lon="-0.0405">
        <ele>24.8</ele>
        <time>2023-10-11T12:41:40Z</time>
      </trkpt>
      <trkpt lat="49.17249" lon="-0.0406">
        <ele>24.9</ele>
        <time>2023-10-11T12:41:41Z</time>
      </trkpt>
      <trkpt lat="49.17246" lon="-0.0407">
        <ele>24.9</ele>
        <time>2023-10-11T12:41:42Z</time>
      </trkpt>
      <trkpt lat="49.17243" lon="-0.0408">
        <ele>24.9</ele>
        <time>2023-10-11T12:41:43Z</time>
      </trkpt>
      <trkpt lat="49.17241" lon="-0.0409">
        <ele>25</ele>
        <time>2023-10-11T12:41:44Z</time>
      </trkpt>
      <trkpt lat="49.17238" lon="-0.04101">
        <ele>24.9</ele>
        <time>2023-10-11T12:41:45Z</time>
      </trkpt>
      <trkpt lat="49.17235" lon="-0.04112">
        <ele>24.9</ele>
        <time>2023-10-11T12:41:46Z</time>
      </trkpt>
      <trkpt lat="49.17233" lon="-0.04122">
        <ele>24.9</ele>
        <time>2023-10-11T12:41:47Z</time>
      </trkpt>
      <trkpt lat="49.1723" lon="-0.04133">
        <ele>24.9</ele>
        <time>2023-10-11T12:41:48Z</time>
      </trkpt>
      <trkpt lat="49.17228" lon="-0.04144">
        <ele>24.9</ele>
        <time>2023-10-11T12:41:49Z</time>
      </trkpt>
      <trkpt lat="49.17225" lon="-0.04155">
        <ele>24.9</ele>
        <time>2023-10-11T12:41:50Z</time>
      </trkpt>
      <trkpt lat="49.17223" lon="-0.04166">
        <ele>24.9</ele>
        <time>2023-10-11T12:41:51Z</time>
      </trkpt>
      <trkpt lat="49.17221" lon="-0.04176">
        <ele>24.9</ele>
        <time>2023-10-11T12:41:52Z</time>
      </trkpt>
      <trkpt lat="49.17219" lon="-0.04186">
        <ele>25</ele>
        <time>2023-10-11T12:41:53Z</time>
      </trkpt>
      <trkpt lat="49.17216" lon="-0.04197">
        <ele>25</ele>
        <time>2023-10-11T12:41:54Z</time>
      </trkpt>
      <trkpt lat="49.17214" lon="-0.04208">
        <ele>25</ele>
        <time>2023-10-11T12:41:55Z</time>
      </trkpt>
      <trkpt lat="49.17212" lon="-0.04219">
        <ele>25</ele>
        <time>2023-10-11T12:41:56Z</time>
      </trkpt>
      <trkpt lat="49.17209" lon="-0.04229">
        <ele>25</ele>
        <time>2023-10-11T12:41:57Z</time>
      </trkpt>
      <trkpt lat="49.17207" lon="-0.0424">
        <ele>25.1</ele>
        <time>2023-10-11T12:41:58Z</time>
      </trkpt>
      <trkpt lat="49.17206" lon="-0.04251">
        <ele>25.1</ele>
        <time>2023-10-11T12:41:59Z</time>
      </trkpt>
      <trkpt lat="49.17203" lon="-0.04261">
        <ele>25.1</ele>
        <time>2023-10-11T12:42:00Z</time>
      </trkpt>
      <trkpt lat="49.17201" lon="-0.04272">
        <ele>25.1</ele>
        <time>2023-10-11T12:42:01Z</time>
      </trkpt>
      <trkpt lat="49.17199" lon="-0.04282">
        <ele>25.1</ele>
        <time>2023-10-11T12:42:02Z</time>
      </trkpt>
      <trkpt lat="49.17197" lon="-0.04293">
        <ele>25.2</ele>
        <time>2023-10-11T12:42:03Z</time>
      </trkpt>
      <trkpt lat="49.17195" lon="-0.04304">
        <ele>25.2</ele>
        <time>2023-10-11T12:42:04Z</time>
      </trkpt>
      <trkpt lat="49.17192" lon="-0.04314">
        <ele>25.2</ele>
        <time>2023-10-11T12:42:05Z</time>
      </trkpt>
      <trkpt lat="49.1719" lon="-0.04324">
        <ele>25.2</ele>
        <time>2023-10-11T12:42:06Z</time>
      </trkpt>
      <trkpt lat="49.17187" lon="-0.04335">
        <ele>25.3</ele>
        <time>2023-10-11T12:42:07Z</time>
      </trkpt>
      <trkpt lat="49.17184" lon="-0.04345">
        <ele>25.3</ele>
        <time>2023-10-11T12:42:08Z</time>
      </trkpt>
      <trkpt lat="49.1718" lon="-0.04354">
        <ele>25.3</ele>
        <time>2023-10-11T12:42:09Z</time>
      </trkpt>
      <trkpt lat="49.17176" lon="-0.04364">
        <ele>25.4</ele>
        <time>2023-10-11T12:42:10Z</time>
      </trkpt>
      <trkpt lat="49.17171" lon="-0.04373">
        <ele>25.4</ele>
        <time>2023-10-11T12:42:11Z</time>
      </trkpt>
      <trkpt lat="49.17166" lon="-0.04382">
        <ele>25.4</ele>
        <time>2023-10-11T12:42:12Z</time>
      </trkpt>
      <trkpt lat="49.1716" lon="-0.04391">
        <ele>25.5</ele>
        <time>2023-10-11T12:42:13Z</time>
      </trkpt>
      <trkpt lat="49.17155" lon="-0.04399">
        <ele>25.5</ele>
        <time>2023-10-11T12:42:14Z</time>
      </trkpt>
      <trkpt lat="49.1715" lon="-0.04407">
        <ele>25.6</ele>
        <time>2023-10-11T12:42:15Z</time>
      </trkpt>
      <trkpt lat="49.17144" lon="-0.04415">
        <ele>25.6</ele>
        <time>2023-10-11T12:42:16Z</time>
      </trkpt>
      <trkpt lat="49.17139" lon="-0.04423">
        <ele>25.7</ele>
        <time>2023-10-11T12:42:17Z</time>
      </trkpt>
      <trkpt lat="49.17134" lon="-0.04431">
        <ele>25.8</ele>
        <time>2023-10-11T12:42:18Z</time>
      </trkpt>
      <trkpt lat="49.17129" lon="-0.04439">
        <ele>25.8</ele>
        <time>2023-10-11T12:42:19Z</time>
      </trkpt>
      <trkpt lat="49.17124" lon="-0.04447">
        <ele>25.9</ele>
        <time>2023-10-11T12:42:20Z</time>
      </trkpt>
      <trkpt lat="49.17119" lon="-0.04456">
        <ele>26</ele>
        <time>2023-10-11T12:42:21Z</time>
      </trkpt>
      <trkpt lat="49.17114" lon="-0.04464">
        <ele>26</ele>
        <time>2023-10-11T12:42:22Z</time>
      </trkpt>
      <trkpt lat="49.1711" lon="-0.04472">
        <ele>26.1</ele>
        <time>2023-10-11T12:42:23Z</time>
      </trkpt>
      <trkpt lat="49.17105" lon="-0.04481">
        <ele>26.2</ele>
        <time>2023-10-11T12:42:24Z</time>
      </trkpt>
      <trkpt lat="49.17101" lon="-0.0449">
        <ele>26.3</ele>
        <time>2023-10-11T12:42:25Z</time>
      </trkpt>
      <trkpt lat="49.17097" lon="-0.04499">
        <ele>26.3</ele>
        <time>2023-10-11T12:42:26Z</time>
      </trkpt>
      <trkpt lat="49.17093" lon="-0.04509">
        <ele>26.4</ele>
        <time>2023-10-11T12:42:27Z</time>
      </trkpt>
      <trkpt lat="49.17089" lon="-0.04518">
        <ele>26.4</ele>
        <time>2023-10-11T12:42:28Z</time>
      </trkpt>
      <trkpt lat="49.17086" lon="-0.04528">
        <ele>26.5</ele>
        <time>2023-10-11T12:42:29Z</time>
      </trkpt>
      <trkpt lat="49.17083" lon="-0.04538">
        <ele>26.6</ele>
        <time>2023-10-11T12:42:30Z</time>
      </trkpt>
      <trkpt lat="49.1708" lon="-0.04548">
        <ele>26.7</ele>
        <time>2023-10-11T12:42:31Z</time>
      </trkpt>
      <trkpt lat="49.17078" lon="-0.04558">
        <ele>26.8</ele>
        <time>2023-10-11T12:42:32Z</time>
      </trkpt>
      <trkpt lat="49.17076" lon="-0.04568">
        <ele>26.9</ele>
        <time>2023-10-11T12:42:33Z</time>
      </trkpt>
      <trkpt lat="49.17074" lon="-0.04579">
        <ele>27</ele>
        <time>2023-10-11T12:42:34Z</time>
      </trkpt>
      <trkpt lat="49.17072" lon="-0.04589">
        <ele>27.1</ele>
        <time>2023-10-11T12:42:35Z</time>
      </trkpt>
      <trkpt lat="49.1707" lon="-0.04598">
        <ele>27.3</ele>
        <time>2023-10-11T12:42:36Z</time>
      </trkpt>
      <trkpt lat="49.17068" lon="-0.04609">
        <ele>27.4</ele>
        <time>2023-10-11T12:42:37Z</time>
      </trkpt>
      <trkpt lat="49.17066" lon="-0.04619">
        <ele>27.5</ele>
        <time>2023-10-11T12:42:38Z</time>
      </trkpt>
      <trkpt lat="49.17063" lon="-0.04629">
        <ele>27.7</ele>
        <time>2023-10-11T12:42:39Z</time>
      </trkpt>
      <trkpt lat="49.17061" lon="-0.04639">
        <ele>27.8</ele>
        <time>2023-10-11T12:42:40Z</time>
      </trkpt>
      <trkpt lat="49.17059" lon="-0.04649">
        <ele>28</ele>
        <time>2023-10-11T12:42:41Z</time>
      </trkpt>
      <trkpt lat="49.17056" lon="-0.04659">
        <ele>28.1</ele>
        <time>2023-10-11T12:42:42Z</time>
      </trkpt>
      <trkpt lat="49.17054" lon="-0.04669">
        <ele>28.3</ele>
        <time>2023-10-11T12:42:43Z</time>
      </trkpt>
      <trkpt lat="49.17052" lon="-0.0468">
        <ele>28.5</ele>
        <time>2023-10-11T12:42:44Z</time>
      </trkpt>
      <trkpt lat="49.1705" lon="-0.0469">
        <ele>28.7</ele>
        <time>2023-10-11T12:42:45Z</time>
      </trkpt>
      <trkpt lat="49.17048" lon="-0.047">
        <ele>28.9</ele>
        <time>2023-10-11T12:42:46Z</time>
      </trkpt>
      <trkpt lat="49.17046" lon="-0.0471">
        <ele>29</ele>
        <time>2023-10-11T12:42:47Z</time>
      </trkpt>
      <trkpt lat="49.17044" lon="-0.0472">
        <ele>29.2</ele>
        <time>2023-10-11T12:42:48Z</time>
      </trkpt>
      <trkpt lat="49.17041" lon="-0.0473">
        <ele>29.4</ele>
        <time>2023-10-11T12:42:49Z</time>
      </trkpt>
      <trkpt lat="49.17038" lon="-0.0474">
        <ele>29.5</ele>
        <time>2023-10-11T12:42:50Z</time>
      </trkpt>
      <trkpt lat="49.17036" lon="-0.04749">
        <ele>29.7</ele>
        <time>2023-10-11T12:42:51Z</time>
      </trkpt>
      <trkpt lat="49.17033" lon="-0.04759">
        <ele>29.9</ele>
        <time>2023-10-11T12:42:52Z</time>
      </trkpt>
      <trkpt lat="49.1703" lon="-0.04768">
        <ele>30.1</ele>
        <time>2023-10-11T12:42:53Z</time>
      </trkpt>
      <trkpt lat="49.17028" lon="-0.04778">
        <ele>30.3</ele>
        <time>2023-10-11T12:42:54Z</time>
      </trkpt>
      <trkpt lat="49.17025" lon="-0.04787">
        <ele>30.5</ele>
        <time>2023-10-11T12:42:55Z</time>
      </trkpt>
      <trkpt lat="49.17022" lon="-0.04795">
        <ele>30.7</ele>
        <time>2023-10-11T12:42:56Z</time>
      </trkpt>
      <trkpt lat="49.17019" lon="-0.04804">
        <ele>30.9</ele>
        <time>2023-10-11T12:42:57Z</time>
      </trkpt>
      <trkpt lat="49.17017" lon="-0.04813">
        <ele>31.1</ele>
        <time>2023-10-11T12:42:58Z</time>
      </trkpt>
      <trkpt lat="49.17014" lon="-0.04822">
        <ele>31.3</ele>
        <time>2023-10-11T12:42:59Z</time>
      </trkpt>
      <trkpt lat="49.17012" lon="-0.04831">
        <ele>31.4</ele>
        <time>2023-10-11T12:43:00Z</time>
      </trkpt>
      <trkpt lat="49.17009" lon="-0.0484">
        <ele>31.6</ele>
        <time>2023-10-11T12:43:01Z</time>
      </trkpt>
      <trkpt lat="49.17006" lon="-0.04849">
        <ele>31.8</ele>
        <time>2023-10-11T12:43:02Z</time>
      </trkpt>
      <trkpt lat="49.17004" lon="-0.04858">
        <ele>32</ele>
        <time>2023-10-11T12:43:03Z</time>
      </trkpt>
      <trkpt lat="49.17001" lon="-0.04866">
        <ele>32.1</ele>
        <time>2023-10-11T12:43:04Z</time>
      </trkpt>
      <trkpt lat="49.16998" lon="-0.04875">
        <ele>32.3</ele>
        <time>2023-10-11T12:43:05Z</time>
      </trkpt>
      <trkpt lat="49.16996" lon="-0.04884">
        <ele>32.4</ele>
        <time>2023-10-11T12:43:06Z</time>
      </trkpt>
      <trkpt lat="49.16993" lon="-0.04894">
        <ele>32.5</ele>
        <time>2023-10-11T12:43:07Z</time>
      </trkpt>
      <trkpt lat="49.16991" lon="-0.04903">
        <ele>32.6</ele>
        <time>2023-10-11T12:43:08Z</time>
      </trkpt>
      <trkpt lat="49.16988" lon="-0.04913">
        <ele>32.7</ele>
        <time>2023-10-11T12:43:09Z</time>
      </trkpt>
      <trkpt lat="49.16984" lon="-0.04922">
        <ele>32.7</ele>
        <time>2023-10-11T12:43:10Z</time>
      </trkpt>
      <trkpt lat="49.16982" lon="-0.04932">
        <ele>32.8</ele>
        <time>2023-10-11T12:43:11Z</time>
      </trkpt>
      <trkpt lat="49.16979" lon="-0.04941">
        <ele>32.9</ele>
        <time>2023-10-11T12:43:12Z</time>
      </trkpt>
      <trkpt lat="49.16976" lon="-0.0495">
        <ele>32.9</ele>
        <time>2023-10-11T12:43:13Z</time>
      </trkpt>
      <trkpt lat="49.16974" lon="-0.04959">
        <ele>33</ele>
        <time>2023-10-11T12:43:14Z</time>
      </trkpt>
      <trkpt lat="49.16972" lon="-0.04968">
        <ele>33</ele>
        <time>2023-10-11T12:43:15Z</time>
      </trkpt>
      <trkpt lat="49.1697" lon="-0.04977">
        <ele>33</ele>
        <time>2023-10-11T12:43:16Z</time>
      </trkpt>
      <trkpt lat="49.16967" lon="-0.04987">
        <ele>33.1</ele>
        <time>2023-10-11T12:43:17Z</time>
      </trkpt>
      <trkpt lat="49.16965" lon="-0.04995">
        <ele>33.1</ele>
        <time>2023-10-11T12:43:18Z</time>
      </trkpt>
      <trkpt lat="49.16964" lon="-0.05003">
        <ele>33.1</ele>
        <time>2023-10-11T12:43:19Z</time>
      </trkpt>
      <trkpt lat="49.16963" lon="-0.05012">
        <ele>33.1</ele>
        <time>2023-10-11T12:43:20Z</time>
      </trkpt>
      <trkpt lat="49.16961" lon="-0.0502">
        <ele>33.1</ele>
        <time>2023-10-11T12:43:21Z</time>
      </trkpt>
      <trkpt lat="49.16959" lon="-0.05028">
        <ele>33.1</ele>
        <time>2023-10-11T12:43:22Z</time>
      </trkpt>
      <trkpt lat="49.16957" lon="-0.05035">
        <ele>33.2</ele>
        <time>2023-10-11T12:43:23Z</time>
      </trkpt>
      <trkpt lat="49.16953" lon="-0.05041">
        <ele>33.2</ele>
        <time>2023-10-11T12:43:24Z</time>
      </trkpt>
      <trkpt lat="49.16949" lon="-0.05045">
        <ele>33.1</ele>
        <time>2023-10-11T12:43:25Z</time>
      </trkpt>
      <trkpt lat="49.16945" lon="-0.05049">
        <ele>33.1</ele>
        <time>2023-10-11T12:43:26Z</time>
      </trkpt>
      <trkpt lat="49.1694" lon="-0.05052">
        <ele>33.1</ele>
        <time>2023-10-11T12:43:27Z</time>
      </trkpt>
      <trkpt lat="49.16935" lon="-0.05055">
        <ele>33</ele>
        <time>2023-10-11T12:43:28Z</time>
      </trkpt>
      <trkpt lat="49.1693" lon="-0.05058">
        <ele>33</ele>
        <time>2023-10-11T12:43:29Z</time>
      </trkpt>
      <trkpt lat="49.16924" lon="-0.0506">
        <ele>33</ele>
        <time>2023-10-11T12:43:30Z</time>
      </trkpt>
      <trkpt lat="49.16918" lon="-0.05062">
        <ele>33</ele>
        <time>2023-10-11T12:43:31Z</time>
      </trkpt>
      <trkpt lat="49.16912" lon="-0.05063">
        <ele>33</ele>
        <time>2023-10-11T12:43:32Z</time>
      </trkpt>
      <trkpt lat="49.16906" lon="-0.05063">
        <ele>33.1</ele>
        <time>2023-10-11T12:43:33Z</time>
      </trkpt>
      <trkpt lat="49.16899" lon="-0.05063">
        <ele>33.1</ele>
        <time>2023-10-11T12:43:34Z</time>
      </trkpt>
      <trkpt lat="49.16892" lon="-0.05063">
        <ele>33.2</ele>
        <time>2023-10-11T12:43:35Z</time>
      </trkpt>
      <trkpt lat="49.16886" lon="-0.05063">
        <ele>33.3</ele>
        <time>2023-10-11T12:43:36Z</time>
      </trkpt>
      <trkpt lat="49.1688" lon="-0.05063">
        <ele>33.4</ele>
        <time>2023-10-11T12:43:37Z</time>
      </trkpt>
      <trkpt lat="49.16873" lon="-0.05065">
        <ele>33.4</ele>
        <time>2023-10-11T12:43:38Z</time>
      </trkpt>
      <trkpt lat="49.16867" lon="-0.05067">
        <ele>33.5</ele>
        <time>2023-10-11T12:43:39Z</time>
      </trkpt>
      <trkpt lat="49.16861" lon="-0.0507">
        <ele>33.6</ele>
        <time>2023-10-11T12:43:40Z</time>
      </trkpt>
      <trkpt lat="49.16855" lon="-0.05072">
        <ele>33.7</ele>
        <time>2023-10-11T12:43:41Z</time>
      </trkpt>
      <trkpt lat="49.16849" lon="-0.05075">
        <ele>33.7</ele>
        <time>2023-10-11T12:43:42Z</time>
      </trkpt>
      <trkpt lat="49.16843" lon="-0.05079">
        <ele>33.8</ele>
        <time>2023-10-11T12:43:43Z</time>
      </trkpt>
      <trkpt lat="49.16838" lon="-0.05082">
        <ele>33.8</ele>
        <time>2023-10-11T12:43:44Z</time>
      </trkpt>
      <trkpt lat="49.16832" lon="-0.05085">
        <ele>33.9</ele>
        <time>2023-10-11T12:43:45Z</time>
      </trkpt>
      <trkpt lat="49.16826" lon="-0.05089">
        <ele>33.9</ele>
        <time>2023-10-11T12:43:46Z</time>
      </trkpt>
      <trkpt lat="49.16821" lon="-0.05093">
        <ele>33.9</ele>
        <time>2023-10-11T12:43:47Z</time>
      </trkpt>
      <trkpt lat="49.16816" lon="-0.05098">
        <ele>33.9</ele>
        <time>2023-10-11T12:43:48Z</time>
      </trkpt>
      <trkpt lat="49.1681" lon="-0.05105">
        <ele>33.9</ele>
        <time>2023-10-11T12:43:49Z</time>
      </trkpt>
      <trkpt lat="49.16805" lon="-0.05113">
        <ele>33.9</ele>
        <time>2023-10-11T12:43:50Z</time>
      </trkpt>
      <trkpt lat="49.168" lon="-0.0512">
        <ele>33.9</ele>
        <time>2023-10-11T12:43:51Z</time>
      </trkpt>
      <trkpt lat="49.16795" lon="-0.05128">
        <ele>33.8</ele>
        <time>2023-10-11T12:43:52Z</time>
      </trkpt>
      <trkpt lat="49.1679" lon="-0.05134">
        <ele>33.8</ele>
        <time>2023-10-11T12:43:53Z</time>
      </trkpt>
      <trkpt lat="49.16784" lon="-0.05139">
        <ele>33.7</ele>
        <time>2023-10-11T12:43:54Z</time>
      </trkpt>
      <trkpt lat="49.16778" lon="-0.05144">
        <ele>33.6</ele>
        <time>2023-10-11T12:43:55Z</time>
      </trkpt>
      <trkpt lat="49.16771" lon="-0.05145">
        <ele>33.5</ele>
        <time>2023-10-11T12:43:56Z</time>
      </trkpt>
      <trkpt lat="49.16764" lon="-0.05147">
        <ele>33.4</ele>
        <time>2023-10-11T12:43:57Z</time>
      </trkpt>
      <trkpt lat="49.16756" lon="-0.05147">
        <ele>33.2</ele>
        <time>2023-10-11T12:43:58Z</time>
      </trkpt>
      <trkpt lat="49.16749" lon="-0.05147">
        <ele>33</ele>
        <time>2023-10-11T12:43:59Z</time>
      </trkpt>
      <trkpt lat="49.16742" lon="-0.05147">
        <ele>32.9</ele>
        <time>2023-10-11T12:44:00Z</time>
      </trkpt>
      <trkpt lat="49.16735" lon="-0.05147">
        <ele>32.7</ele>
        <time>2023-10-11T12:44:01Z</time>
      </trkpt>
      <trkpt lat="49.16728" lon="-0.05147">
        <ele>32.5</ele>
        <time>2023-10-11T12:44:02Z</time>
      </trkpt>
      <trkpt lat="49.16721" lon="-0.05147">
        <ele>32.3</ele>
        <time>2023-10-11T12:44:03Z</time>
      </trkpt>
      <trkpt lat="49.16713" lon="-0.05147">
        <ele>32.1</ele>
        <time>2023-10-11T12:44:04Z</time>
      </trkpt>
      <trkpt lat="49.16705" lon="-0.05148">
        <ele>32</ele>
        <time>2023-10-11T12:44:05Z</time>
      </trkpt>
      <trkpt lat="49.16698" lon="-0.05149">
        <ele>31.9</ele>
        <time>2023-10-11T12:44:06Z</time>
      </trkpt>
      <trkpt lat="49.16691" lon="-0.05153">
        <ele>31.8</ele>
        <time>2023-10-11T12:44:07Z</time>
      </trkpt>
      <trkpt lat="49.16685" lon="-0.05159">
        <ele>31.7</ele>
        <time>2023-10-11T12:44:08Z</time>
      </trkpt>
      <trkpt lat="49.16681" lon="-0.05167">
        <ele>31.6</ele>
        <time>2023-10-11T12:44:09Z</time>
      </trkpt>
      <trkpt lat="49.16677" lon="-0.05176">
        <ele>31.6</ele>
        <time>2023-10-11T12:44:10Z</time>
      </trkpt>
      <trkpt lat="49.16675" lon="-0.05186">
        <ele>31.5</ele>
        <time>2023-10-11T12:44:11Z</time>
      </trkpt>
      <trkpt lat="49.16673" lon="-0.05196">
        <ele>31.4</ele>
        <time>2023-10-11T12:44:12Z</time>
      </trkpt>
      <trkpt lat="49.16671" lon="-0.05207">
        <ele>31.3</ele>
        <time>2023-10-11T12:44:13Z</time>
      </trkpt>
      <trkpt lat="49.16669" lon="-0.05217">
        <ele>31.3</ele>
        <time>2023-10-11T12:44:14Z</time>
      </trkpt>
      <trkpt lat="49.16666" lon="-0.05227">
        <ele>31.2</ele>
        <time>2023-10-11T12:44:15Z</time>
      </trkpt>
      <trkpt lat="49.16664" lon="-0.05238">
        <ele>31.2</ele>
        <time>2023-10-11T12:44:16Z</time>
      </trkpt>
      <trkpt lat="49.1666" lon="-0.05247">
        <ele>31.2</ele>
        <time>2023-10-11T12:44:17Z</time>
      </trkpt>
      <trkpt lat="49.16655" lon="-0.05255">
        <ele>31.2</ele>
        <time>2023-10-11T12:44:18Z</time>
      </trkpt>
      <trkpt lat="49.16649" lon="-0.05262">
        <ele>31.1</ele>
        <time>2023-10-11T12:44:19Z</time>
      </trkpt>
      <trkpt lat="49.16642" lon="-0.05268">
        <ele>31</ele>
        <time>2023-10-11T12:44:20Z</time>
      </trkpt>
      <trkpt lat="49.16635" lon="-0.05273">
        <ele>30.9</ele>
        <time>2023-10-11T12:44:21Z</time>
      </trkpt>
      <trkpt lat="49.16628" lon="-0.05278">
        <ele>30.7</ele>
        <time>2023-10-11T12:44:22Z</time>
      </trkpt>
      <trkpt lat="49.16621" lon="-0.05283">
        <ele>30.5</ele>
        <time>2023-10-11T12:44:23Z</time>
      </trkpt>
      <trkpt lat="49.16613" lon="-0.05289">
        <ele>30.3</ele>
        <time>2023-10-11T12:44:24Z</time>
      </trkpt>
      <trkpt lat="49.16606" lon="-0.05296">
        <ele>30.1</ele>
        <time>2023-10-11T12:44:25Z</time>
      </trkpt>
      <trkpt lat="49.16598" lon="-0.05303">
        <ele>30</ele>
        <time>2023-10-11T12:44:26Z</time>
      </trkpt>
      <trkpt lat="49.16591" lon="-0.0531">
        <ele>29.9</ele>
        <time>2023-10-11T12:44:27Z</time>
      </trkpt>
      <trkpt lat="49.16585" lon="-0.05318">
        <ele>29.8</ele>
        <time>2023-10-11T12:44:28Z</time>
      </trkpt>
      <trkpt lat="49.16581" lon="-0.05329">
        <ele>29.7</ele>
        <time>2023-10-11T12:44:29Z</time>
      </trkpt>
      <trkpt lat="49.16578" lon="-0.0534">
        <ele>29.7</ele>
        <time>2023-10-11T12:44:30Z</time>
      </trkpt>
      <trkpt lat="49.16577" lon="-0.05352">
        <ele>29.6</ele>
        <time>2023-10-11T12:44:31Z</time>
      </trkpt>
      <trkpt lat="49.16576" lon="-0.05363">
        <ele>29.5</ele>
        <time>2023-10-11T12:44:32Z</time>
      </trkpt>
      <trkpt lat="49.16576" lon="-0.05373">
        <ele>29.3</ele>
        <time>2023-10-11T12:44:33Z</time>
      </trkpt>
      <trkpt lat="49.16576" lon="-0.05383">
        <ele>29.2</ele>
        <time>2023-10-11T12:44:34Z</time>
      </trkpt>
      <trkpt lat="49.16576" lon="-0.05394">
        <ele>29.1</ele>
        <time>2023-10-11T12:44:35Z</time>
      </trkpt>
      <trkpt lat="49.16577" lon="-0.05404">
        <ele>28.9</ele>
        <time>2023-10-11T12:44:36Z</time>
      </trkpt>
      <trkpt lat="49.16577" lon="-0.05415">
        <ele>28.8</ele>
        <time>2023-10-11T12:44:37Z</time>
      </trkpt>
      <trkpt lat="49.16578" lon="-0.05426">
        <ele>28.6</ele>
        <time>2023-10-11T12:44:38Z</time>
      </trkpt>
      <trkpt lat="49.16579" lon="-0.05437">
        <ele>28.4</ele>
        <time>2023-10-11T12:44:39Z</time>
      </trkpt>
      <trkpt lat="49.1658" lon="-0.05448">
        <ele>28.1</ele>
        <time>2023-10-11T12:44:40Z</time>
      </trkpt>
      <trkpt lat="49.16582" lon="-0.0546">
        <ele>27.8</ele>
        <time>2023-10-11T12:44:41Z</time>
      </trkpt>
      <trkpt lat="49.16584" lon="-0.05471">
        <ele>27.4</ele>
        <time>2023-10-11T12:44:42Z</time>
      </trkpt>
      <trkpt lat="49.16587" lon="-0.05483">
        <ele>27.3</ele>
        <time>2023-10-11T12:44:43Z</time>
      </trkpt>
      <trkpt lat="49.16588" lon="-0.05494">
        <ele>27.2</ele>
        <time>2023-10-11T12:44:44Z</time>
      </trkpt>
      <trkpt lat="49.16588" lon="-0.05505">
        <ele>27</ele>
        <time>2023-10-11T12:44:45Z</time>
      </trkpt>
      <trkpt lat="49.16588" lon="-0.05516">
        <ele>26.8</ele>
        <time>2023-10-11T12:44:46Z</time>
      </trkpt>
      <trkpt lat="49.16587" lon="-0.05528">
        <ele>26.5</ele>
        <time>2023-10-11T12:44:47Z</time>
      </trkpt>
      <trkpt lat="49.16586" lon="-0.05539">
        <ele>26.2</ele>
        <time>2023-10-11T12:44:48Z</time>
      </trkpt>
      <trkpt lat="49.16585" lon="-0.05551">
        <ele>25.9</ele>
        <time>2023-10-11T12:44:49Z</time>
      </trkpt>
      <trkpt lat="49.16584" lon="-0.05563">
        <ele>25.7</ele>
        <time>2023-10-11T12:44:50Z</time>
      </trkpt>
      <trkpt lat="49.16583" lon="-0.05575">
        <ele>25.5</ele>
        <time>2023-10-11T12:44:51Z</time>
      </trkpt>
      <trkpt lat="49.16583" lon="-0.05587">
        <ele>25.3</ele>
        <time>2023-10-11T12:44:52Z</time>
      </trkpt>
      <trkpt lat="49.16582" lon="-0.05599">
        <ele>25.1</ele>
        <time>2023-10-11T12:44:53Z</time>
      </trkpt>
      <trkpt lat="49.1658" lon="-0.05611">
        <ele>25</ele>
        <time>2023-10-11T12:44:54Z</time>
      </trkpt>
      <trkpt lat="49.16579" lon="-0.05624">
        <ele>24.9</ele>
        <time>2023-10-11T12:44:55Z</time>
      </trkpt>
      <trkpt lat="49.16577" lon="-0.05637">
        <ele>24.6</ele>
        <time>2023-10-11T12:44:56Z</time>
      </trkpt>
      <trkpt lat="49.16575" lon="-0.0565">
        <ele>24.4</ele>
        <time>2023-10-11T12:44:57Z</time>
      </trkpt>
      <trkpt lat="49.16573" lon="-0.05662">
        <ele>24.2</ele>
        <time>2023-10-11T12:44:58Z</time>
      </trkpt>
      <trkpt lat="49.16572" lon="-0.05674">
        <ele>24</ele>
        <time>2023-10-11T12:44:59Z</time>
      </trkpt>
      <trkpt lat="49.1657" lon="-0.05685">
        <ele>23.8</ele>
        <time>2023-10-11T12:45:00Z</time>
      </trkpt>
      <trkpt lat="49.16569" lon="-0.05694">
        <ele>23.7</ele>
        <time>2023-10-11T12:45:01Z</time>
      </trkpt>
      <trkpt lat="49.16569" lon="-0.05702">
        <ele>23.6</ele>
        <time>2023-10-11T12:45:02Z</time>
      </trkpt>
      <trkpt lat="49.16569" lon="-0.05708">
        <ele>23.6</ele>
        <time>2023-10-11T12:45:03Z</time>
      </trkpt>
      <trkpt lat="49.1657" lon="-0.05713">
        <ele>23.5</ele>
        <time>2023-10-11T12:45:04Z</time>
      </trkpt>
      <trkpt lat="49.1657" lon="-0.05719">
        <ele>23.5</ele>
        <time>2023-10-11T12:45:05Z</time>
      </trkpt>
      <trkpt lat="49.16569" lon="-0.05721">
        <ele>23.4</ele>
        <time>2023-10-11T12:45:06Z</time>
      </trkpt>
      <trkpt lat="49.16568" lon="-0.05725">
        <ele>23.4</ele>
        <time>2023-10-11T12:45:07Z</time>
      </trkpt>
      <trkpt lat="49.16566" lon="-0.05729">
        <ele>23.3</ele>
        <time>2023-10-11T12:45:08Z</time>
      </trkpt>
      <trkpt lat="49.16562" lon="-0.05732">
        <ele>23.3</ele>
        <time>2023-10-11T12:45:09Z</time>
      </trkpt>
      <trkpt lat="49.16556" lon="-0.05734">
        <ele>23.1</ele>
        <time>2023-10-11T12:45:10Z</time>
      </trkpt>
      <trkpt lat="49.16551" lon="-0.05736">
        <ele>23</ele>
        <time>2023-10-11T12:45:11Z</time>
      </trkpt>
      <trkpt lat="49.16545" lon="-0.05737">
        <ele>22.8</ele>
        <time>2023-10-11T12:45:12Z</time>
      </trkpt>
      <trkpt lat="49.1654" lon="-0.05739">
        <ele>22.7</ele>
        <time>2023-10-11T12:45:13Z</time>
      </trkpt>
      <trkpt lat="49.16535" lon="-0.05741">
        <ele>22.5</ele>
        <time>2023-10-11T12:45:14Z</time>
      </trkpt>
      <trkpt lat="49.16529" lon="-0.05743">
        <ele>22.4</ele>
        <time>2023-10-11T12:45:15Z</time>
      </trkpt>
      <trkpt lat="49.16523" lon="-0.05745">
        <ele>22.3</ele>
        <time>2023-10-11T12:45:16Z</time>
      </trkpt>
      <trkpt lat="49.16517" lon="-0.05747">
        <ele>22.1</ele>
        <time>2023-10-11T12:45:17Z</time>
      </trkpt>
      <trkpt lat="49.16511" lon="-0.05749">
        <ele>22</ele>
        <time>2023-10-11T12:45:18Z</time>
      </trkpt>
      <trkpt lat="49.16505" lon="-0.05752">
        <ele>21.9</ele>
        <time>2023-10-11T12:45:19Z</time>
      </trkpt>
      <trkpt lat="49.16498" lon="-0.05755">
        <ele>21.7</ele>
        <time>2023-10-11T12:45:20Z</time>
      </trkpt>
      <trkpt lat="49.16492" lon="-0.05758">
        <ele>21.6</ele>
        <time>2023-10-11T12:45:21Z</time>
      </trkpt>
      <trkpt lat="49.16485" lon="-0.05761">
        <ele>21.5</ele>
        <time>2023-10-11T12:45:22Z</time>
      </trkpt>
      <trkpt lat="49.16478" lon="-0.05764">
        <ele>21.4</ele>
        <time>2023-10-11T12:45:23Z</time>
      </trkpt>
      <trkpt lat="49.16471" lon="-0.05767">
        <ele>21.3</ele>
        <time>2023-10-11T12:45:24Z</time>
      </trkpt>
      <trkpt lat="49.16463" lon="-0.0577">
        <ele>21.2</ele>
        <time>2023-10-11T12:45:25Z</time>
      </trkpt>
      <trkpt lat="49.16455" lon="-0.05773">
        <ele>21.1</ele>
        <time>2023-10-11T12:45:26Z</time>
      </trkpt>
      <trkpt lat="49.16447" lon="-0.05777">
        <ele>21</ele>
        <time>2023-10-11T12:45:27Z</time>
      </trkpt>
      <trkpt lat="49.1644" lon="-0.0578">
        <ele>21</ele>
        <time>2023-10-11T12:45:28Z</time>
      </trkpt>
      <trkpt lat="49.16432" lon="-0.05783">
        <ele>20.9</ele>
        <time>2023-10-11T12:45:29Z</time>
      </trkpt>
      <trkpt lat="49.16424" lon="-0.05786">
        <ele>20.9</ele>
        <time>2023-10-11T12:45:30Z</time>
      </trkpt>
      <trkpt lat="49.16417" lon="-0.0579">
        <ele>20.8</ele>
        <time>2023-10-11T12:45:31Z</time>
      </trkpt>
      <trkpt lat="49.1641" lon="-0.05793">
        <ele>20.7</ele>
        <time>2023-10-11T12:45:32Z</time>
      </trkpt>
      <trkpt lat="49.16403" lon="-0.05796">
        <ele>20.7</ele>
        <time>2023-10-11T12:45:33Z</time>
      </trkpt>
      <trkpt lat="49.16396" lon="-0.05799">
        <ele>20.6</ele>
        <time>2023-10-11T12:45:34Z</time>
      </trkpt>
      <trkpt lat="49.16389" lon="-0.05802">
        <ele>20.5</ele>
        <time>2023-10-11T12:45:35Z</time>
      </trkpt>
      <trkpt lat="49.16382" lon="-0.05805">
        <ele>20.4</ele>
        <time>2023-10-11T12:45:36Z</time>
      </trkpt>
      <trkpt lat="49.16375" lon="-0.05808">
        <ele>20.3</ele>
        <time>2023-10-11T12:45:37Z</time>
      </trkpt>
      <trkpt lat="49.16368" lon="-0.05811">
        <ele>20.1</ele>
        <time>2023-10-11T12:45:38Z</time>
      </trkpt>
      <trkpt lat="49.1636" lon="-0.05814">
        <ele>20</ele>
        <time>2023-10-11T12:45:39Z</time>
      </trkpt>
      <trkpt lat="49.16353" lon="-0.05817">
        <ele>19.8</ele>
        <time>2023-10-11T12:45:40Z</time>
      </trkpt>
      <trkpt lat="49.16345" lon="-0.05821">
        <ele>19.7</ele>
        <time>2023-10-11T12:45:41Z</time>
      </trkpt>
      <trkpt lat="49.16338" lon="-0.05824">
        <ele>19.5</ele>
        <time>2023-10-11T12:45:42Z</time>
      </trkpt>
      <trkpt lat="49.16331" lon="-0.05826">
        <ele>19.3</ele>
        <time>2023-10-11T12:45:43Z</time>
      </trkpt>
      <trkpt lat="49.16324" lon="-0.05829">
        <ele>19.2</ele>
        <time>2023-10-11T12:45:44Z</time>
      </trkpt>
      <trkpt lat="49.16317" lon="-0.05832">
        <ele>19</ele>
        <time>2023-10-11T12:45:45Z</time>
      </trkpt>
      <trkpt lat="49.16309" lon="-0.05835">
        <ele>18.8</ele>
        <time>2023-10-11T12:45:46Z</time>
      </trkpt>
      <trkpt lat="49.16302" lon="-0.05839">
        <ele>18.7</ele>
        <time>2023-10-11T12:45:47Z</time>
      </trkpt>
      <trkpt lat="49.16295" lon="-0.05842">
        <ele>18.5</ele>
        <time>2023-10-11T12:45:48Z</time>
      </trkpt>
      <trkpt lat="49.16288" lon="-0.05845">
        <ele>18.3</ele>
        <time>2023-10-11T12:45:49Z</time>
      </trkpt>
      <trkpt lat="49.1628" lon="-0.05848">
        <ele>18.1</ele>
        <time>2023-10-11T12:45:50Z</time>
      </trkpt>
      <trkpt lat="49.16272" lon="-0.05851">
        <ele>18</ele>
        <time>2023-10-11T12:45:51Z</time>
      </trkpt>
      <trkpt lat="49.16265" lon="-0.05854">
        <ele>17.8</ele>
        <time>2023-10-11T12:45:52Z</time>
      </trkpt>
      <trkpt lat="49.16257" lon="-0.05857">
        <ele>17.6</ele>
        <time>2023-10-11T12:45:53Z</time>
      </trkpt>
      <trkpt lat="49.16249" lon="-0.05861">
        <ele>17.4</ele>
        <time>2023-10-11T12:45:54Z</time>
      </trkpt>
      <trkpt lat="49.16242" lon="-0.05864">
        <ele>17.2</ele>
        <time>2023-10-11T12:45:55Z</time>
      </trkpt>
      <trkpt lat="49.16234" lon="-0.05867">
        <ele>17</ele>
        <time>2023-10-11T12:45:56Z</time>
      </trkpt>
      <trkpt lat="49.16226" lon="-0.0587">
        <ele>16.7</ele>
        <time>2023-10-11T12:45:57Z</time>
      </trkpt>
      <trkpt lat="49.16218" lon="-0.05874">
        <ele>16.5</ele>
        <time>2023-10-11T12:45:58Z</time>
      </trkpt>
      <trkpt lat="49.16211" lon="-0.05877">
        <ele>16.2</ele>
        <time>2023-10-11T12:45:59Z</time>
      </trkpt>
      <trkpt lat="49.16203" lon="-0.0588">
        <ele>16</ele>
        <time>2023-10-11T12:46:00Z</time>
      </trkpt>
      <trkpt lat="49.16196" lon="-0.05883">
        <ele>15.7</ele>
        <time>2023-10-11T12:46:01Z</time>
      </trkpt>
      <trkpt lat="49.16188" lon="-0.05886">
        <ele>15.5</ele>
        <time>2023-10-11T12:46:02Z</time>
      </trkpt>
      <trkpt lat="49.1618" lon="-0.05889">
        <ele>15.2</ele>
        <time>2023-10-11T12:46:03Z</time>
      </trkpt>
      <trkpt lat="49.16172" lon="-0.05893">
        <ele>15</ele>
        <time>2023-10-11T12:46:04Z</time>
      </trkpt>
      <trkpt lat="49.16164" lon="-0.05896">
        <ele>14.7</ele>
        <time>2023-10-11T12:46:05Z</time>
      </trkpt>
      <trkpt lat="49.16156" lon="-0.05899">
        <ele>14.4</ele>
        <time>2023-10-11T12:46:06Z</time>
      </trkpt>
      <trkpt lat="49.16148" lon="-0.05902">
        <ele>14.1</ele>
        <time>2023-10-11T12:46:07Z</time>
      </trkpt>
      <trkpt lat="49.1614" lon="-0.05906">
        <ele>13.8</ele>
        <time>2023-10-11T12:46:08Z</time>
      </trkpt>
      <trkpt lat="49.16133" lon="-0.05909">
        <ele>13.5</ele>
        <time>2023-10-11T12:46:09Z</time>
      </trkpt>
      <trkpt lat="49.16125" lon="-0.05913">
        <ele>13.2</ele>
        <time>2023-10-11T12:46:10Z</time>
      </trkpt>
      <trkpt lat="49.16116" lon="-0.05916">
        <ele>12.9</ele>
        <time>2023-10-11T12:46:11Z</time>
      </trkpt>
      <trkpt lat="49.16108" lon="-0.0592">
        <ele>12.6</ele>
        <time>2023-10-11T12:46:12Z</time>
      </trkpt>
      <trkpt lat="49.161" lon="-0.05924">
        <ele>12.2</ele>
        <time>2023-10-11T12:46:13Z</time>
      </trkpt>
      <trkpt lat="49.16091" lon="-0.05927">
        <ele>11.9</ele>
        <time>2023-10-11T12:46:14Z</time>
      </trkpt>
      <trkpt lat="49.16082" lon="-0.05931">
        <ele>11.5</ele>
        <time>2023-10-11T12:46:15Z</time>
      </trkpt>
      <trkpt lat="49.16073" lon="-0.05935">
        <ele>11.2</ele>
        <time>2023-10-11T12:46:16Z</time>
      </trkpt>
      <trkpt lat="49.16064" lon="-0.05939">
        <ele>10.8</ele>
        <time>2023-10-11T12:46:17Z</time>
      </trkpt>
      <trkpt lat="49.16055" lon="-0.05942">
        <ele>10.5</ele>
        <time>2023-10-11T12:46:18Z</time>
      </trkpt>
      <trkpt lat="49.16046" lon="-0.05946">
        <ele>10.2</ele>
        <time>2023-10-11T12:46:19Z</time>
      </trkpt>
      <trkpt lat="49.16036" lon="-0.0595">
        <ele>9.8</ele>
        <time>2023-10-11T12:46:20Z</time>
      </trkpt>
      <trkpt lat="49.16027" lon="-0.05954">
        <ele>9.5</ele>
        <time>2023-10-11T12:46:21Z</time>
      </trkpt>
      <trkpt lat="49.16018" lon="-0.05957">
        <ele>9.2</ele>
        <time>2023-10-11T12:46:22Z</time>
      </trkpt>
      <trkpt lat="49.16009" lon="-0.05961">
        <ele>8.9</ele>
        <time>2023-10-11T12:46:23Z</time>
      </trkpt>
      <trkpt lat="49.16" lon="-0.05964">
        <ele>8.7</ele>
        <time>2023-10-11T12:46:24Z</time>
      </trkpt>
      <trkpt lat="49.15991" lon="-0.05968">
        <ele>8.5</ele>
        <time>2023-10-11T12:46:25Z</time>
      </trkpt>
      <trkpt lat="49.15983" lon="-0.05971">
        <ele>8.2</ele>
        <time>2023-10-11T12:46:26Z</time>
      </trkpt>
      <trkpt lat="49.15974" lon="-0.05974">
        <ele>8</ele>
        <time>2023-10-11T12:46:27Z</time>
      </trkpt>
      <trkpt lat="49.15966" lon="-0.05978">
        <ele>7.8</ele>
        <time>2023-10-11T12:46:28Z</time>
      </trkpt>
      <trkpt lat="49.15956" lon="-0.05982">
        <ele>7.6</ele>
        <time>2023-10-11T12:46:29Z</time>
      </trkpt>
      <trkpt lat="49.15947" lon="-0.05985">
        <ele>7.5</ele>
        <time>2023-10-11T12:46:30Z</time>
      </trkpt>
      <trkpt lat="49.15939" lon="-0.05989">
        <ele>7.4</ele>
        <time>2023-10-11T12:46:31Z</time>
      </trkpt>
      <trkpt lat="49.1593" lon="-0.05992">
        <ele>7.3</ele>
        <time>2023-10-11T12:46:32Z</time>
      </trkpt>
      <trkpt lat="49.15922" lon="-0.05996">
        <ele>7.2</ele>
        <time>2023-10-11T12:46:33Z</time>
      </trkpt>
      <trkpt lat="49.15913" lon="-0.06">
        <ele>7.1</ele>
        <time>2023-10-11T12:46:34Z</time>
      </trkpt>
      <trkpt lat="49.15904" lon="-0.06003">
        <ele>7</ele>
        <time>2023-10-11T12:46:35Z</time>
      </trkpt>
      <trkpt lat="49.15896" lon="-0.06007">
        <ele>6.9</ele>
        <time>2023-10-11T12:46:36Z</time>
      </trkpt>
      <trkpt lat="49.15887" lon="-0.06011">
        <ele>6.9</ele>
        <time>2023-10-11T12:46:37Z</time>
      </trkpt>
      <trkpt lat="49.15879" lon="-0.06014">
        <ele>6.9</ele>
        <time>2023-10-11T12:46:38Z</time>
      </trkpt>
      <trkpt lat="49.15871" lon="-0.06018">
        <ele>6.9</ele>
        <time>2023-10-11T12:46:39Z</time>
      </trkpt>
      <trkpt lat="49.15862" lon="-0.06022">
        <ele>6.9</ele>
        <time>2023-10-11T12:46:40Z</time>
      </trkpt>
      <trkpt lat="49.15854" lon="-0.06025">
        <ele>6.9</ele>
        <time>2023-10-11T12:46:41Z</time>
      </trkpt>
      <trkpt lat="49.15846" lon="-0.06029">
        <ele>7</ele>
        <time>2023-10-11T12:46:42Z</time>
      </trkpt>
      <trkpt lat="49.15838" lon="-0.06032">
        <ele>6.9</ele>
        <time>2023-10-11T12:46:43Z</time>
      </trkpt>
      <trkpt lat="49.1583" lon="-0.06035">
        <ele>6.9</ele>
        <time>2023-10-11T12:46:44Z</time>
      </trkpt>
      <trkpt lat="49.15822" lon="-0.06039">
        <ele>6.9</ele>
        <time>2023-10-11T12:46:45Z</time>
      </trkpt>
      <trkpt lat="49.15814" lon="-0.06042">
        <ele>6.8</ele>
        <time>2023-10-11T12:46:46Z</time>
      </trkpt>
      <trkpt lat="49.15806" lon="-0.06046">
        <ele>6.7</ele>
        <time>2023-10-11T12:46:47Z</time>
      </trkpt>
      <trkpt lat="49.15798" lon="-0.06049">
        <ele>6.6</ele>
        <time>2023-10-11T12:46:48Z</time>
      </trkpt>
      <trkpt lat="49.1579" lon="-0.06053">
        <ele>6.4</ele>
        <time>2023-10-11T12:46:49Z</time>
      </trkpt>
      <trkpt lat="49.15782" lon="-0.06057">
        <ele>6.3</ele>
        <time>2023-10-11T12:46:50Z</time>
      </trkpt>
      <trkpt lat="49.15773" lon="-0.06061">
        <ele>6.2</ele>
        <time>2023-10-11T12:46:51Z</time>
      </trkpt>
      <trkpt lat="49.15765" lon="-0.06064">
        <ele>6.1</ele>
        <time>2023-10-11T12:46:52Z</time>
      </trkpt>
      <trkpt lat="49.15757" lon="-0.06068">
        <ele>6</ele>
        <time>2023-10-11T12:46:53Z</time>
      </trkpt>
      <trkpt lat="49.15749" lon="-0.0607">
        <ele>6</ele>
        <time>2023-10-11T12:46:54Z</time>
      </trkpt>
      <trkpt lat="49.15741" lon="-0.06074">
        <ele>5.9</ele>
        <time>2023-10-11T12:46:55Z</time>
      </trkpt>
      <trkpt lat="49.15733" lon="-0.06077">
        <ele>5.8</ele>
        <time>2023-10-11T12:46:56Z</time>
      </trkpt>
      <trkpt lat="49.15725" lon="-0.0608">
        <ele>5.8</ele>
        <time>2023-10-11T12:46:57Z</time>
      </trkpt>
      <trkpt lat="49.15717" lon="-0.06084">
        <ele>5.7</ele>
        <time>2023-10-11T12:46:58Z</time>
      </trkpt>
      <trkpt lat="49.15708" lon="-0.06087">
        <ele>5.7</ele>
        <time>2023-10-11T12:46:59Z</time>
      </trkpt>
      <trkpt lat="49.157" lon="-0.0609">
        <ele>5.7</ele>
        <time>2023-10-11T12:47:00Z</time>
      </trkpt>
      <trkpt lat="49.15693" lon="-0.06094">
        <ele>5.7</ele>
        <time>2023-10-11T12:47:01Z</time>
      </trkpt>
      <trkpt lat="49.15685" lon="-0.06097">
        <ele>5.7</ele>
        <time>2023-10-11T12:47:02Z</time>
      </trkpt>
      <trkpt lat="49.15677" lon="-0.061">
        <ele>5.7</ele>
        <time>2023-10-11T12:47:03Z</time>
      </trkpt>
      <trkpt lat="49.1567" lon="-0.06103">
        <ele>5.7</ele>
        <time>2023-10-11T12:47:04Z</time>
      </trkpt>
      <trkpt lat="49.15662" lon="-0.06106">
        <ele>5.7</ele>
        <time>2023-10-11T12:47:05Z</time>
      </trkpt>
      <trkpt lat="49.15655" lon="-0.06109">
        <ele>5.7</ele>
        <time>2023-10-11T12:47:06Z</time>
      </trkpt>
      <trkpt lat="49.15647" lon="-0.06112">
        <ele>5.7</ele>
        <time>2023-10-11T12:47:07Z</time>
      </trkpt>
      <trkpt lat="49.15639" lon="-0.06116">
        <ele>5.7</ele>
        <time>2023-10-11T12:47:08Z</time>
      </trkpt>
      <trkpt lat="49.15632" lon="-0.06119">
        <ele>5.7</ele>
        <time>2023-10-11T12:47:09Z</time>
      </trkpt>
      <trkpt lat="49.15624" lon="-0.06122">
        <ele>5.7</ele>
        <time>2023-10-11T12:47:10Z</time>
      </trkpt>
      <trkpt lat="49.15617" lon="-0.06125">
        <ele>5.7</ele>
        <time>2023-10-11T12:47:11Z</time>
      </trkpt>
      <trkpt lat="49.1561" lon="-0.06129">
        <ele>5.7</ele>
        <time>2023-10-11T12:47:12Z</time>
      </trkpt>
      <trkpt lat="49.15603" lon="-0.06132">
        <ele>5.7</ele>
        <time>2023-10-11T12:47:13Z</time>
      </trkpt>
      <trkpt lat="49.15596" lon="-0.06135">
        <ele>5.7</ele>
        <time>2023-10-11T12:47:14Z</time>
      </trkpt>
      <trkpt lat="49.15588" lon="-0.06138">
        <ele>5.7</ele>
        <time>2023-10-11T12:47:15Z</time>
      </trkpt>
      <trkpt lat="49.15581" lon="-0.06141">
        <ele>5.7</ele>
        <time>2023-10-11T12:47:16Z</time>
      </trkpt>
      <trkpt lat="49.15574" lon="-0.06144">
        <ele>5.7</ele>
        <time>2023-10-11T12:47:17Z</time>
      </trkpt>
      <trkpt lat="49.15566" lon="-0.06147">
        <ele>5.7</ele>
        <time>2023-10-11T12:47:18Z</time>
      </trkpt>
      <trkpt lat="49.15559" lon="-0.0615">
        <ele>5.7</ele>
        <time>2023-10-11T12:47:19Z</time>
      </trkpt>
      <trkpt lat="49.15551" lon="-0.06154">
        <ele>5.7</ele>
        <time>2023-10-11T12:47:20Z</time>
      </trkpt>
      <trkpt lat="49.15544" lon="-0.06157">
        <ele>5.7</ele>
        <time>2023-10-11T12:47:21Z</time>
      </trkpt>
      <trkpt lat="49.15536" lon="-0.0616">
        <ele>5.6</ele>
        <time>2023-10-11T12:47:22Z</time>
      </trkpt>
      <trkpt lat="49.15529" lon="-0.06163">
        <ele>5.6</ele>
        <time>2023-10-11T12:47:23Z</time>
      </trkpt>
      <trkpt lat="49.15522" lon="-0.06166">
        <ele>5.6</ele>
        <time>2023-10-11T12:47:24Z</time>
      </trkpt>
      <trkpt lat="49.15514" lon="-0.06169">
        <ele>5.6</ele>
        <time>2023-10-11T12:47:25Z</time>
      </trkpt>
      <trkpt lat="49.15507" lon="-0.06172">
        <ele>5.7</ele>
        <time>2023-10-11T12:47:26Z</time>
      </trkpt>
      <trkpt lat="49.155" lon="-0.06175">
        <ele>5.7</ele>
        <time>2023-10-11T12:47:27Z</time>
      </trkpt>
      <trkpt lat="49.15493" lon="-0.06178">
        <ele>5.7</ele>
        <time>2023-10-11T12:47:28Z</time>
      </trkpt>
      <trkpt lat="49.15486" lon="-0.06181">
        <ele>5.7</ele>
        <time>2023-10-11T12:47:29Z</time>
      </trkpt>
      <trkpt lat="49.15478" lon="-0.06184">
        <ele>5.7</ele>
        <time>2023-10-11T12:47:30Z</time>
      </trkpt>
      <trkpt lat="49.15471" lon="-0.06187">
        <ele>5.7</ele>
        <time>2023-10-11T12:47:31Z</time>
      </trkpt>
      <trkpt lat="49.15464" lon="-0.0619">
        <ele>5.8</ele>
        <time>2023-10-11T12:47:32Z</time>
      </trkpt>
      <trkpt lat="49.15457" lon="-0.06192">
        <ele>5.8</ele>
        <time>2023-10-11T12:47:33Z</time>
      </trkpt>
      <trkpt lat="49.1545" lon="-0.06195">
        <ele>5.8</ele>
        <time>2023-10-11T12:47:34Z</time>
      </trkpt>
      <trkpt lat="49.15443" lon="-0.06198">
        <ele>5.7</ele>
        <time>2023-10-11T12:47:35Z</time>
      </trkpt>
      <trkpt lat="49.15436" lon="-0.06201">
        <ele>5.7</ele>
        <time>2023-10-11T12:47:36Z</time>
      </trkpt>
      <trkpt lat="49.15429" lon="-0.06204">
        <ele>5.7</ele>
        <time>2023-10-11T12:47:37Z</time>
      </trkpt>
      <trkpt lat="49.15422" lon="-0.06207">
        <ele>5.8</ele>
        <time>2023-10-11T12:47:38Z</time>
      </trkpt>
      <trkpt lat="49.15415" lon="-0.0621">
        <ele>5.8</ele>
        <time>2023-10-11T12:47:39Z</time>
      </trkpt>
      <trkpt lat="49.15408" lon="-0.06213">
        <ele>5.8</ele>
        <time>2023-10-11T12:47:40Z</time>
      </trkpt>
      <trkpt lat="49.15401" lon="-0.06216">
        <ele>5.8</ele>
        <time>2023-10-11T12:47:41Z</time>
      </trkpt>
      <trkpt lat="49.15394" lon="-0.06219">
        <ele>5.8</ele>
        <time>2023-10-11T12:47:42Z</time>
      </trkpt>
      <trkpt lat="49.15387" lon="-0.06222">
        <ele>5.8</ele>
        <time>2023-10-11T12:47:43Z</time>
      </trkpt>
      <trkpt lat="49.1538" lon="-0.06225">
        <ele>5.8</ele>
        <time>2023-10-11T12:47:44Z</time>
      </trkpt>
      <trkpt lat="49.15373" lon="-0.06228">
        <ele>5.8</ele>
        <time>2023-10-11T12:47:45Z</time>
      </trkpt>
      <trkpt lat="49.15366" lon="-0.06231">
        <ele>5.9</ele>
        <time>2023-10-11T12:47:46Z</time>
      </trkpt>
      <trkpt lat="49.15359" lon="-0.06234">
        <ele>5.9</ele>
        <time>2023-10-11T12:47:47Z</time>
      </trkpt>
      <trkpt lat="49.15351" lon="-0.06237">
        <ele>5.9</ele>
        <time>2023-10-11T12:47:48Z</time>
      </trkpt>
      <trkpt lat="49.15344" lon="-0.0624">
        <ele>5.9</ele>
        <time>2023-10-11T12:47:49Z</time>
      </trkpt>
      <trkpt lat="49.15337" lon="-0.06242">
        <ele>6</ele>
        <time>2023-10-11T12:47:50Z</time>
      </trkpt>
      <trkpt lat="49.15329" lon="-0.06245">
        <ele>6</ele>
        <time>2023-10-11T12:47:51Z</time>
      </trkpt>
      <trkpt lat="49.15322" lon="-0.06249">
        <ele>6</ele>
        <time>2023-10-11T12:47:52Z</time>
      </trkpt>
      <trkpt lat="49.15315" lon="-0.06251">
        <ele>6</ele>
        <time>2023-10-11T12:47:53Z</time>
      </trkpt>
      <trkpt lat="49.15307" lon="-0.06254">
        <ele>6</ele>
        <time>2023-10-11T12:47:54Z</time>
      </trkpt>
      <trkpt lat="49.153" lon="-0.06257">
        <ele>6</ele>
        <time>2023-10-11T12:47:55Z</time>
      </trkpt>
      <trkpt lat="49.15293" lon="-0.06261">
        <ele>6</ele>
        <time>2023-10-11T12:47:56Z</time>
      </trkpt>
      <trkpt lat="49.15286" lon="-0.06264">
        <ele>6</ele>
        <time>2023-10-11T12:47:57Z</time>
      </trkpt>
      <trkpt lat="49.15279" lon="-0.06268">
        <ele>6</ele>
        <time>2023-10-11T12:47:58Z</time>
      </trkpt>
      <trkpt lat="49.15272" lon="-0.0627">
        <ele>6</ele>
        <time>2023-10-11T12:47:59Z</time>
      </trkpt>
      <trkpt lat="49.15265" lon="-0.06273">
        <ele>6</ele>
        <time>2023-10-11T12:48:00Z</time>
      </trkpt>
      <trkpt lat="49.15257" lon="-0.06277">
        <ele>6</ele>
        <time>2023-10-11T12:48:01Z</time>
      </trkpt>
      <trkpt lat="49.15249" lon="-0.0628">
        <ele>6</ele>
        <time>2023-10-11T12:48:02Z</time>
      </trkpt>
      <trkpt lat="49.15242" lon="-0.06283">
        <ele>6</ele>
        <time>2023-10-11T12:48:03Z</time>
      </trkpt>
      <trkpt lat="49.15235" lon="-0.06286">
        <ele>6</ele>
        <time>2023-10-11T12:48:04Z</time>
      </trkpt>
      <trkpt lat="49.15227" lon="-0.06289">
        <ele>6.1</ele>
        <time>2023-10-11T12:48:05Z</time>
      </trkpt>
      <trkpt lat="49.1522" lon="-0.06292">
        <ele>6.1</ele>
        <time>2023-10-11T12:48:06Z</time>
      </trkpt>
      <trkpt lat="49.15213" lon="-0.06295">
        <ele>6.1</ele>
        <time>2023-10-11T12:48:07Z</time>
      </trkpt>
      <trkpt lat="49.15205" lon="-0.06298">
        <ele>6.1</ele>
        <time>2023-10-11T12:48:08Z</time>
      </trkpt>
      <trkpt lat="49.15198" lon="-0.06301">
        <ele>6.1</ele>
        <time>2023-10-11T12:48:09Z</time>
      </trkpt>
      <trkpt lat="49.15191" lon="-0.06304">
        <ele>6.2</ele>
        <time>2023-10-11T12:48:10Z</time>
      </trkpt>
      <trkpt lat="49.15184" lon="-0.06307">
        <ele>6.2</ele>
        <time>2023-10-11T12:48:11Z</time>
      </trkpt>
      <trkpt lat="49.15177" lon="-0.0631">
        <ele>6.2</ele>
        <time>2023-10-11T12:48:12Z</time>
      </trkpt>
      <trkpt lat="49.1517" lon="-0.06313">
        <ele>6.3</ele>
        <time>2023-10-11T12:48:13Z</time>
      </trkpt>
      <trkpt lat="49.15163" lon="-0.06316">
        <ele>6.3</ele>
        <time>2023-10-11T12:48:14Z</time>
      </trkpt>
      <trkpt lat="49.15156" lon="-0.06319">
        <ele>6.4</ele>
        <time>2023-10-11T12:48:15Z</time>
      </trkpt>
      <trkpt lat="49.15149" lon="-0.06322">
        <ele>6.4</ele>
        <time>2023-10-11T12:48:16Z</time>
      </trkpt>
      <trkpt lat="49.15142" lon="-0.06325">
        <ele>6.5</ele>
        <time>2023-10-11T12:48:17Z</time>
      </trkpt>
      <trkpt lat="49.15135" lon="-0.06327">
        <ele>6.5</ele>
        <time>2023-10-11T12:48:18Z</time>
      </trkpt>
      <trkpt lat="49.15128" lon="-0.0633">
        <ele>6.5</ele>
        <time>2023-10-11T12:48:19Z</time>
      </trkpt>
      <trkpt lat="49.15121" lon="-0.06333">
        <ele>6.6</ele>
        <time>2023-10-11T12:48:20Z</time>
      </trkpt>
      <trkpt lat="49.15114" lon="-0.06336">
        <ele>6.6</ele>
        <time>2023-10-11T12:48:21Z</time>
      </trkpt>
      <trkpt lat="49.15107" lon="-0.06339">
        <ele>6.7</ele>
        <time>2023-10-11T12:48:22Z</time>
      </trkpt>
      <trkpt lat="49.151" lon="-0.06341">
        <ele>6.7</ele>
        <time>2023-10-11T12:48:23Z</time>
      </trkpt>
      <trkpt lat="49.15093" lon="-0.06344">
        <ele>6.8</ele>
        <time>2023-10-11T12:48:24Z</time>
      </trkpt>
      <trkpt lat="49.15086" lon="-0.06347">
        <ele>6.8</ele>
        <time>2023-10-11T12:48:25Z</time>
      </trkpt>
      <trkpt lat="49.15079" lon="-0.0635">
        <ele>6.8</ele>
        <time>2023-10-11T12:48:26Z</time>
      </trkpt>
      <trkpt lat="49.15072" lon="-0.06353">
        <ele>6.9</ele>
        <time>2023-10-11T12:48:27Z</time>
      </trkpt>
      <trkpt lat="49.15064" lon="-0.06356">
        <ele>6.9</ele>
        <time>2023-10-11T12:48:28Z</time>
      </trkpt>
      <trkpt lat="49.15057" lon="-0.06359">
        <ele>7</ele>
        <time>2023-10-11T12:48:29Z</time>
      </trkpt>
      <trkpt lat="49.1505" lon="-0.06361">
        <ele>7.1</ele>
        <time>2023-10-11T12:48:30Z</time>
      </trkpt>
      <trkpt lat="49.15043" lon="-0.06364">
        <ele>7.1</ele>
        <time>2023-10-11T12:48:31Z</time>
      </trkpt>
      <trkpt lat="49.15036" lon="-0.06367">
        <ele>7.2</ele>
        <time>2023-10-11T12:48:32Z</time>
      </trkpt>
      <trkpt lat="49.15029" lon="-0.0637">
        <ele>7.3</ele>
        <time>2023-10-11T12:48:33Z</time>
      </trkpt>
      <trkpt lat="49.15022" lon="-0.06373">
        <ele>7.4</ele>
        <time>2023-10-11T12:48:34Z</time>
      </trkpt>
      <trkpt lat="49.15015" lon="-0.06376">
        <ele>7.5</ele>
        <time>2023-10-11T12:48:35Z</time>
      </trkpt>
      <trkpt lat="49.15008" lon="-0.0638">
        <ele>7.6</ele>
        <time>2023-10-11T12:48:36Z</time>
      </trkpt>
      <trkpt lat="49.15001" lon="-0.06383">
        <ele>7.7</ele>
        <time>2023-10-11T12:48:37Z</time>
      </trkpt>
      <trkpt lat="49.14994" lon="-0.06387">
        <ele>7.8</ele>
        <time>2023-10-11T12:48:38Z</time>
      </trkpt>
      <trkpt lat="49.14988" lon="-0.06392">
        <ele>8</ele>
        <time>2023-10-11T12:48:39Z</time>
      </trkpt>
      <trkpt lat="49.14981" lon="-0.06397">
        <ele>8.1</ele>
        <time>2023-10-11T12:48:40Z</time>
      </trkpt>
      <trkpt lat="49.14976" lon="-0.06402">
        <ele>8.3</ele>
        <time>2023-10-11T12:48:41Z</time>
      </trkpt>
      <trkpt lat="49.1497" lon="-0.06407">
        <ele>8.4</ele>
        <time>2023-10-11T12:48:42Z</time>
      </trkpt>
      <trkpt lat="49.14964" lon="-0.06412">
        <ele>8.5</ele>
        <time>2023-10-11T12:48:43Z</time>
      </trkpt>
      <trkpt lat="49.14958" lon="-0.06418">
        <ele>8.6</ele>
        <time>2023-10-11T12:48:44Z</time>
      </trkpt>
      <trkpt lat="49.14952" lon="-0.06423">
        <ele>8.6</ele>
        <time>2023-10-11T12:48:45Z</time>
      </trkpt>
      <trkpt lat="49.14946" lon="-0.06429">
        <ele>8.7</ele>
        <time>2023-10-11T12:48:46Z</time>
      </trkpt>
      <trkpt lat="49.1494" lon="-0.06435">
        <ele>8.7</ele>
        <time>2023-10-11T12:48:47Z</time>
      </trkpt>
      <trkpt lat="49.14935" lon="-0.06442">
        <ele>8.7</ele>
        <time>2023-10-11T12:48:48Z</time>
      </trkpt>
      <trkpt lat="49.1493" lon="-0.0645">
        <ele>8.7</ele>
        <time>2023-10-11T12:48:49Z</time>
      </trkpt>
      <trkpt lat="49.14925" lon="-0.06457">
        <ele>8.7</ele>
        <time>2023-10-11T12:48:50Z</time>
      </trkpt>
      <trkpt lat="49.14919" lon="-0.06465">
        <ele>8.7</ele>
        <time>2023-10-11T12:48:51Z</time>
      </trkpt>
      <trkpt lat="49.14914" lon="-0.06473">
        <ele>8.7</ele>
        <time>2023-10-11T12:48:52Z</time>
      </trkpt>
      <trkpt lat="49.14909" lon="-0.06481">
        <ele>8.7</ele>
        <time>2023-10-11T12:48:53Z</time>
      </trkpt>
      <trkpt lat="49.14903" lon="-0.06488">
        <ele>8.6</ele>
        <time>2023-10-11T12:48:54Z</time>
      </trkpt>
      <trkpt lat="49.14898" lon="-0.06496">
        <ele>8.6</ele>
        <time>2023-10-11T12:48:55Z</time>
      </trkpt>
      <trkpt lat="49.14893" lon="-0.06503">
        <ele>8.5</ele>
        <time>2023-10-11T12:48:56Z</time>
      </trkpt>
      <trkpt lat="49.14888" lon="-0.06511">
        <ele>8.5</ele>
        <time>2023-10-11T12:48:57Z</time>
      </trkpt>
      <trkpt lat="49.14883" lon="-0.06518">
        <ele>8.4</ele>
        <time>2023-10-11T12:48:58Z</time>
      </trkpt>
      <trkpt lat="49.14877" lon="-0.06525">
        <ele>8.4</ele>
        <time>2023-10-11T12:48:59Z</time>
      </trkpt>
      <trkpt lat="49.14871" lon="-0.06531">
        <ele>8.3</ele>
        <time>2023-10-11T12:49:00Z</time>
      </trkpt>
      <trkpt lat="49.14864" lon="-0.06536">
        <ele>8.3</ele>
        <time>2023-10-11T12:49:01Z</time>
      </trkpt>
      <trkpt lat="49.14856" lon="-0.0654">
        <ele>8.2</ele>
        <time>2023-10-11T12:49:02Z</time>
      </trkpt>
      <trkpt lat="49.14848" lon="-0.06543">
        <ele>8.2</ele>
        <time>2023-10-11T12:49:03Z</time>
      </trkpt>
      <trkpt lat="49.14839" lon="-0.06545">
        <ele>8.1</ele>
        <time>2023-10-11T12:49:04Z</time>
      </trkpt>
      <trkpt lat="49.14831" lon="-0.06548">
        <ele>8.1</ele>
        <time>2023-10-11T12:49:05Z</time>
      </trkpt>
      <trkpt lat="49.14823" lon="-0.0655">
        <ele>8.1</ele>
        <time>2023-10-11T12:49:06Z</time>
      </trkpt>
      <trkpt lat="49.14815" lon="-0.06551">
        <ele>8.1</ele>
        <time>2023-10-11T12:49:07Z</time>
      </trkpt>
      <trkpt lat="49.14808" lon="-0.06551">
        <ele>8.2</ele>
        <time>2023-10-11T12:49:08Z</time>
      </trkpt>
      <trkpt lat="49.14801" lon="-0.06553">
        <ele>8.2</ele>
        <time>2023-10-11T12:49:09Z</time>
      </trkpt>
      <trkpt lat="49.14793" lon="-0.06554">
        <ele>8.3</ele>
        <time>2023-10-11T12:49:10Z</time>
      </trkpt>
      <trkpt lat="49.14786" lon="-0.06556">
        <ele>8.4</ele>
        <time>2023-10-11T12:49:11Z</time>
      </trkpt>
      <trkpt lat="49.14778" lon="-0.06557">
        <ele>8.6</ele>
        <time>2023-10-11T12:49:12Z</time>
      </trkpt>
      <trkpt lat="49.14771" lon="-0.06558">
        <ele>8.7</ele>
        <time>2023-10-11T12:49:13Z</time>
      </trkpt>
      <trkpt lat="49.14764" lon="-0.06559">
        <ele>8.9</ele>
        <time>2023-10-11T12:49:14Z</time>
      </trkpt>
      <trkpt lat="49.14758" lon="-0.06561">
        <ele>9</ele>
        <time>2023-10-11T12:49:15Z</time>
      </trkpt>
      <trkpt lat="49.14751" lon="-0.06563">
        <ele>9.1</ele>
        <time>2023-10-11T12:49:16Z</time>
      </trkpt>
      <trkpt lat="49.14744" lon="-0.06566">
        <ele>9.3</ele>
        <time>2023-10-11T12:49:17Z</time>
      </trkpt>
      <trkpt lat="49.14738" lon="-0.06571">
        <ele>9.4</ele>
        <time>2023-10-11T12:49:18Z</time>
      </trkpt>
      <trkpt lat="49.14732" lon="-0.06576">
        <ele>9.6</ele>
        <time>2023-10-11T12:49:19Z</time>
      </trkpt>
      <trkpt lat="49.14726" lon="-0.06583">
        <ele>9.8</ele>
        <time>2023-10-11T12:49:20Z</time>
      </trkpt>
      <trkpt lat="49.1472" lon="-0.0659">
        <ele>9.9</ele>
        <time>2023-10-11T12:49:21Z</time>
      </trkpt>
      <trkpt lat="49.14715" lon="-0.06598">
        <ele>10.1</ele>
        <time>2023-10-11T12:49:22Z</time>
      </trkpt>
      <trkpt lat="49.14711" lon="-0.06608">
        <ele>10.2</ele>
        <time>2023-10-11T12:49:23Z</time>
      </trkpt>
      <trkpt lat="49.14708" lon="-0.06617">
        <ele>10.3</ele>
        <time>2023-10-11T12:49:24Z</time>
      </trkpt>
      <trkpt lat="49.14705" lon="-0.06627">
        <ele>10.5</ele>
        <time>2023-10-11T12:49:25Z</time>
      </trkpt>
      <trkpt lat="49.14702" lon="-0.06637">
        <ele>10.7</ele>
        <time>2023-10-11T12:49:26Z</time>
      </trkpt>
      <trkpt lat="49.147" lon="-0.06647">
        <ele>10.9</ele>
        <time>2023-10-11T12:49:27Z</time>
      </trkpt>
      <trkpt lat="49.14697" lon="-0.06656">
        <ele>11.1</ele>
        <time>2023-10-11T12:49:28Z</time>
      </trkpt>
      <trkpt lat="49.14694" lon="-0.06666">
        <ele>11.3</ele>
        <time>2023-10-11T12:49:29Z</time>
      </trkpt>
      <trkpt lat="49.14692" lon="-0.06675">
        <ele>11.5</ele>
        <time>2023-10-11T12:49:30Z</time>
      </trkpt>
      <trkpt lat="49.1469" lon="-0.06685">
        <ele>11.6</ele>
        <time>2023-10-11T12:49:31Z</time>
      </trkpt>
      <trkpt lat="49.14687" lon="-0.06695">
        <ele>11.8</ele>
        <time>2023-10-11T12:49:32Z</time>
      </trkpt>
      <trkpt lat="49.14685" lon="-0.06705">
        <ele>11.9</ele>
        <time>2023-10-11T12:49:33Z</time>
      </trkpt>
      <trkpt lat="49.14682" lon="-0.06715">
        <ele>12.1</ele>
        <time>2023-10-11T12:49:34Z</time>
      </trkpt>
      <trkpt lat="49.14679" lon="-0.06725">
        <ele>12.2</ele>
        <time>2023-10-11T12:49:35Z</time>
      </trkpt>
      <trkpt lat="49.14675" lon="-0.06735">
        <ele>12.3</ele>
        <time>2023-10-11T12:49:36Z</time>
      </trkpt>
      <trkpt lat="49.14671" lon="-0.06745">
        <ele>12.4</ele>
        <time>2023-10-11T12:49:37Z</time>
      </trkpt>
      <trkpt lat="49.14667" lon="-0.06754">
        <ele>12.5</ele>
        <time>2023-10-11T12:49:38Z</time>
      </trkpt>
      <trkpt lat="49.14662" lon="-0.06763">
        <ele>12.5</ele>
        <time>2023-10-11T12:49:39Z</time>
      </trkpt>
      <trkpt lat="49.14658" lon="-0.06771">
        <ele>12.6</ele>
        <time>2023-10-11T12:49:40Z</time>
      </trkpt>
      <trkpt lat="49.14653" lon="-0.0678">
        <ele>12.6</ele>
        <time>2023-10-11T12:49:41Z</time>
      </trkpt>
      <trkpt lat="49.14648" lon="-0.06789">
        <ele>12.6</ele>
        <time>2023-10-11T12:49:42Z</time>
      </trkpt>
      <trkpt lat="49.14643" lon="-0.06797">
        <ele>12.6</ele>
        <time>2023-10-11T12:49:43Z</time>
      </trkpt>
      <trkpt lat="49.14639" lon="-0.06805">
        <ele>12.7</ele>
        <time>2023-10-11T12:49:44Z</time>
      </trkpt>
      <trkpt lat="49.14634" lon="-0.06814">
        <ele>12.7</ele>
        <time>2023-10-11T12:49:45Z</time>
      </trkpt>
      <trkpt lat="49.14629" lon="-0.06822">
        <ele>12.8</ele>
        <time>2023-10-11T12:49:46Z</time>
      </trkpt>
      <trkpt lat="49.14624" lon="-0.06831">
        <ele>12.8</ele>
        <time>2023-10-11T12:49:47Z</time>
      </trkpt>
      <trkpt lat="49.14619" lon="-0.06839">
        <ele>12.8</ele>
        <time>2023-10-11T12:49:48Z</time>
      </trkpt>
      <trkpt lat="49.14614" lon="-0.06847">
        <ele>12.9</ele>
        <time>2023-10-11T12:49:49Z</time>
      </trkpt>
      <trkpt lat="49.14609" lon="-0.06856">
        <ele>12.9</ele>
        <time>2023-10-11T12:49:50Z</time>
      </trkpt>
      <trkpt lat="49.14604" lon="-0.06864">
        <ele>12.9</ele>
        <time>2023-10-11T12:49:51Z</time>
      </trkpt>
      <trkpt lat="49.146" lon="-0.06872">
        <ele>13</ele>
        <time>2023-10-11T12:49:52Z</time>
      </trkpt>
      <trkpt lat="49.14594" lon="-0.06881">
        <ele>13</ele>
        <time>2023-10-11T12:49:53Z</time>
      </trkpt>
      <trkpt lat="49.1459" lon="-0.06888">
        <ele>13.1</ele>
        <time>2023-10-11T12:49:54Z</time>
      </trkpt>
      <trkpt lat="49.14585" lon="-0.06896">
        <ele>13.1</ele>
        <time>2023-10-11T12:49:55Z</time>
      </trkpt>
      <trkpt lat="49.1458" lon="-0.06904">
        <ele>13.1</ele>
        <time>2023-10-11T12:49:56Z</time>
      </trkpt>
      <trkpt lat="49.14575" lon="-0.06912">
        <ele>13.1</ele>
        <time>2023-10-11T12:49:57Z</time>
      </trkpt>
      <trkpt lat="49.14569" lon="-0.06921">
        <ele>13.1</ele>
        <time>2023-10-11T12:49:58Z</time>
      </trkpt>
      <trkpt lat="49.14564" lon="-0.06929">
        <ele>13.2</ele>
        <time>2023-10-11T12:49:59Z</time>
      </trkpt>
      <trkpt lat="49.14559" lon="-0.06938">
        <ele>13.2</ele>
        <time>2023-10-11T12:50:00Z</time>
      </trkpt>
      <trkpt lat="49.14554" lon="-0.06947">
        <ele>13.2</ele>
        <time>2023-10-11T12:50:01Z</time>
      </trkpt>
      <trkpt lat="49.14548" lon="-0.06956">
        <ele>13.3</ele>
        <time>2023-10-11T12:50:02Z</time>
      </trkpt>
      <trkpt lat="49.14543" lon="-0.06964">
        <ele>13.3</ele>
        <time>2023-10-11T12:50:03Z</time>
      </trkpt>
      <trkpt lat="49.14538" lon="-0.06973">
        <ele>13.3</ele>
        <time>2023-10-11T12:50:04Z</time>
      </trkpt>
      <trkpt lat="49.14532" lon="-0.06982">
        <ele>13.2</ele>
        <time>2023-10-11T12:50:05Z</time>
      </trkpt>
      <trkpt lat="49.14527" lon="-0.06991">
        <ele>13.2</ele>
        <time>2023-10-11T12:50:06Z</time>
      </trkpt>
      <trkpt lat="49.14522" lon="-0.06999">
        <ele>13.1</ele>
        <time>2023-10-11T12:50:07Z</time>
      </trkpt>
      <trkpt lat="49.14517" lon="-0.07008">
        <ele>13.1</ele>
        <time>2023-10-11T12:50:08Z</time>
      </trkpt>
      <trkpt lat="49.14512" lon="-0.07016">
        <ele>13</ele>
        <time>2023-10-11T12:50:09Z</time>
      </trkpt>
      <trkpt lat="49.14506" lon="-0.07024">
        <ele>13</ele>
        <time>2023-10-11T12:50:10Z</time>
      </trkpt>
      <trkpt lat="49.14501" lon="-0.07033">
        <ele>12.9</ele>
        <time>2023-10-11T12:50:11Z</time>
      </trkpt>
      <trkpt lat="49.14495" lon="-0.0704">
        <ele>12.8</ele>
        <time>2023-10-11T12:50:12Z</time>
      </trkpt>
      <trkpt lat="49.1449" lon="-0.07048">
        <ele>12.8</ele>
        <time>2023-10-11T12:50:13Z</time>
      </trkpt>
      <trkpt lat="49.14485" lon="-0.07055">
        <ele>12.6</ele>
        <time>2023-10-11T12:50:14Z</time>
      </trkpt>
      <trkpt lat="49.14479" lon="-0.07063">
        <ele>12.5</ele>
        <time>2023-10-11T12:50:15Z</time>
      </trkpt>
      <trkpt lat="49.14474" lon="-0.0707">
        <ele>12.4</ele>
        <time>2023-10-11T12:50:16Z</time>
      </trkpt>
      <trkpt lat="49.14468" lon="-0.07077">
        <ele>12.3</ele>
        <time>2023-10-11T12:50:17Z</time>
      </trkpt>
      <trkpt lat="49.14461" lon="-0.07085">
        <ele>12.1</ele>
        <time>2023-10-11T12:50:18Z</time>
      </trkpt>
      <trkpt lat="49.14455" lon="-0.07093">
        <ele>12</ele>
        <time>2023-10-11T12:50:19Z</time>
      </trkpt>
      <trkpt lat="49.14448" lon="-0.071">
        <ele>11.8</ele>
        <time>2023-10-11T12:50:20Z</time>
      </trkpt>
      <trkpt lat="49.14441" lon="-0.07108">
        <ele>11.6</ele>
        <time>2023-10-11T12:50:21Z</time>
      </trkpt>
      <trkpt lat="49.14435" lon="-0.07116">
        <ele>11.4</ele>
        <time>2023-10-11T12:50:22Z</time>
      </trkpt>
      <trkpt lat="49.14428" lon="-0.07123">
        <ele>11.2</ele>
        <time>2023-10-11T12:50:23Z</time>
      </trkpt>
      <trkpt lat="49.14422" lon="-0.07131">
        <ele>10.9</ele>
        <time>2023-10-11T12:50:24Z</time>
      </trkpt>
      <trkpt lat="49.14415" lon="-0.07138">
        <ele>10.7</ele>
        <time>2023-10-11T12:50:25Z</time>
      </trkpt>
      <trkpt lat="49.14408" lon="-0.07146">
        <ele>10.4</ele>
        <time>2023-10-11T12:50:26Z</time>
      </trkpt>
      <trkpt lat="49.14401" lon="-0.07154">
        <ele>10.1</ele>
        <time>2023-10-11T12:50:27Z</time>
      </trkpt>
      <trkpt lat="49.14394" lon="-0.07162">
        <ele>9.7</ele>
        <time>2023-10-11T12:50:28Z</time>
      </trkpt>
      <trkpt lat="49.14387" lon="-0.0717">
        <ele>9.4</ele>
        <time>2023-10-11T12:50:29Z</time>
      </trkpt>
      <trkpt lat="49.1438" lon="-0.07177">
        <ele>9.1</ele>
        <time>2023-10-11T12:50:30Z</time>
      </trkpt>
      <trkpt lat="49.14373" lon="-0.07185">
        <ele>8.9</ele>
        <time>2023-10-11T12:50:31Z</time>
      </trkpt>
      <trkpt lat="49.14366" lon="-0.07192">
        <ele>8.7</ele>
        <time>2023-10-11T12:50:32Z</time>
      </trkpt>
      <trkpt lat="49.14359" lon="-0.072">
        <ele>8.5</ele>
        <time>2023-10-11T12:50:33Z</time>
      </trkpt>
      <trkpt lat="49.14353" lon="-0.07207">
        <ele>8.3</ele>
        <time>2023-10-11T12:50:34Z</time>
      </trkpt>
      <trkpt lat="49.14346" lon="-0.07215">
        <ele>8.2</ele>
        <time>2023-10-11T12:50:35Z</time>
      </trkpt>
      <trkpt lat="49.1434" lon="-0.07223">
        <ele>8.1</ele>
        <time>2023-10-11T12:50:36Z</time>
      </trkpt>
      <trkpt lat="49.14334" lon="-0.0723">
        <ele>8</ele>
        <time>2023-10-11T12:50:37Z</time>
      </trkpt>
      <trkpt lat="49.14328" lon="-0.07238">
        <ele>7.9</ele>
        <time>2023-10-11T12:50:38Z</time>
      </trkpt>
      <trkpt lat="49.14322" lon="-0.07245">
        <ele>7.8</ele>
        <time>2023-10-11T12:50:39Z</time>
      </trkpt>
      <trkpt lat="49.14317" lon="-0.07254">
        <ele>7.7</ele>
        <time>2023-10-11T12:50:40Z</time>
      </trkpt>
      <trkpt lat="49.14311" lon="-0.07262">
        <ele>7.6</ele>
        <time>2023-10-11T12:50:41Z</time>
      </trkpt>
      <trkpt lat="49.14306" lon="-0.07271">
        <ele>7.5</ele>
        <time>2023-10-11T12:50:42Z</time>
      </trkpt>
      <trkpt lat="49.14301" lon="-0.0728">
        <ele>7.4</ele>
        <time>2023-10-11T12:50:43Z</time>
      </trkpt>
      <trkpt lat="49.14295" lon="-0.07289">
        <ele>7.3</ele>
        <time>2023-10-11T12:50:44Z</time>
      </trkpt>
      <trkpt lat="49.1429" lon="-0.07299">
        <ele>7.2</ele>
        <time>2023-10-11T12:50:45Z</time>
      </trkpt>
      <trkpt lat="49.14285" lon="-0.07308">
        <ele>7.2</ele>
        <time>2023-10-11T12:50:46Z</time>
      </trkpt>
      <trkpt lat="49.14279" lon="-0.07317">
        <ele>7.1</ele>
        <time>2023-10-11T12:50:47Z</time>
      </trkpt>
      <trkpt lat="49.14273" lon="-0.07326">
        <ele>7.1</ele>
        <time>2023-10-11T12:50:48Z</time>
      </trkpt>
      <trkpt lat="49.14268" lon="-0.07334">
        <ele>7.1</ele>
        <time>2023-10-11T12:50:49Z</time>
      </trkpt>
      <trkpt lat="49.14262" lon="-0.07342">
        <ele>7.1</ele>
        <time>2023-10-11T12:50:50Z</time>
      </trkpt>
      <trkpt lat="49.14257" lon="-0.0735">
        <ele>7.2</ele>
        <time>2023-10-11T12:50:51Z</time>
      </trkpt>
      <trkpt lat="49.14251" lon="-0.07357">
        <ele>7.2</ele>
        <time>2023-10-11T12:50:52Z</time>
      </trkpt>
      <trkpt lat="49.14245" lon="-0.07364">
        <ele>7.3</ele>
        <time>2023-10-11T12:50:53Z</time>
      </trkpt>
      <trkpt lat="49.14239" lon="-0.07372">
        <ele>7.3</ele>
        <time>2023-10-11T12:50:54Z</time>
      </trkpt>
      <trkpt lat="49.14233" lon="-0.07379">
        <ele>7.4</ele>
        <time>2023-10-11T12:50:55Z</time>
      </trkpt>
      <trkpt lat="49.14227" lon="-0.07386">
        <ele>7.4</ele>
        <time>2023-10-11T12:50:56Z</time>
      </trkpt>
      <trkpt lat="49.14221" lon="-0.07394">
        <ele>7.4</ele>
        <time>2023-10-11T12:50:57Z</time>
      </trkpt>
      <trkpt lat="49.14215" lon="-0.07401">
        <ele>7.5</ele>
        <time>2023-10-11T12:50:58Z</time>
      </trkpt>
      <trkpt lat="49.14209" lon="-0.07408">
        <ele>7.5</ele>
        <time>2023-10-11T12:50:59Z</time>
      </trkpt>
      <trkpt lat="49.14204" lon="-0.07415">
        <ele>7.5</ele>
        <time>2023-10-11T12:51:00Z</time>
      </trkpt>
      <trkpt lat="49.14197" lon="-0.07422">
        <ele>7.6</ele>
        <time>2023-10-11T12:51:01Z</time>
      </trkpt>
      <trkpt lat="49.14191" lon="-0.07429">
        <ele>7.6</ele>
        <time>2023-10-11T12:51:02Z</time>
      </trkpt>
      <trkpt lat="49.14185" lon="-0.07436">
        <ele>7.6</ele>
        <time>2023-10-11T12:51:03Z</time>
      </trkpt>
      <trkpt lat="49.14179" lon="-0.07443">
        <ele>7.6</ele>
        <time>2023-10-11T12:51:04Z</time>
      </trkpt>
      <trkpt lat="49.14173" lon="-0.07449">
        <ele>7.6</ele>
        <time>2023-10-11T12:51:05Z</time>
      </trkpt>
      <trkpt lat="49.14166" lon="-0.07455">
        <ele>7.6</ele>
        <time>2023-10-11T12:51:06Z</time>
      </trkpt>
      <trkpt lat="49.14159" lon="-0.0746">
        <ele>7.6</ele>
        <time>2023-10-11T12:51:07Z</time>
      </trkpt>
      <trkpt lat="49.14152" lon="-0.07466">
        <ele>7.6</ele>
        <time>2023-10-11T12:51:08Z</time>
      </trkpt>
      <trkpt lat="49.14145" lon="-0.0747">
        <ele>7.6</ele>
        <time>2023-10-11T12:51:09Z</time>
      </trkpt>
      <trkpt lat="49.14138" lon="-0.07475">
        <ele>7.5</ele>
        <time>2023-10-11T12:51:10Z</time>
      </trkpt>
      <trkpt lat="49.14131" lon="-0.0748">
        <ele>7.5</ele>
        <time>2023-10-11T12:51:11Z</time>
      </trkpt>
      <trkpt lat="49.14124" lon="-0.07484">
        <ele>7.5</ele>
        <time>2023-10-11T12:51:12Z</time>
      </trkpt>
      <trkpt lat="49.14117" lon="-0.07488">
        <ele>7.5</ele>
        <time>2023-10-11T12:51:13Z</time>
      </trkpt>
      <trkpt lat="49.14109" lon="-0.07493">
        <ele>7.4</ele>
        <time>2023-10-11T12:51:14Z</time>
      </trkpt>
      <trkpt lat="49.14102" lon="-0.07497">
        <ele>7.4</ele>
        <time>2023-10-11T12:51:15Z</time>
      </trkpt>
      <trkpt lat="49.14095" lon="-0.07501">
        <ele>7.3</ele>
        <time>2023-10-11T12:51:16Z</time>
      </trkpt>
      <trkpt lat="49.14087" lon="-0.07506">
        <ele>7.2</ele>
        <time>2023-10-11T12:51:17Z</time>
      </trkpt>
      <trkpt lat="49.1408" lon="-0.07511">
        <ele>7.1</ele>
        <time>2023-10-11T12:51:18Z</time>
      </trkpt>
      <trkpt lat="49.14072" lon="-0.07516">
        <ele>7</ele>
        <time>2023-10-11T12:51:19Z</time>
      </trkpt>
      <trkpt lat="49.14065" lon="-0.07521">
        <ele>6.9</ele>
        <time>2023-10-11T12:51:20Z</time>
      </trkpt>
      <trkpt lat="49.14059" lon="-0.07527">
        <ele>6.8</ele>
        <time>2023-10-11T12:51:21Z</time>
      </trkpt>
      <trkpt lat="49.14052" lon="-0.07533">
        <ele>6.8</ele>
        <time>2023-10-11T12:51:22Z</time>
      </trkpt>
      <trkpt lat="49.14046" lon="-0.07541">
        <ele>6.8</ele>
        <time>2023-10-11T12:51:23Z</time>
      </trkpt>
      <trkpt lat="49.14041" lon="-0.07549">
        <ele>6.8</ele>
        <time>2023-10-11T12:51:24Z</time>
      </trkpt>
      <trkpt lat="49.14035" lon="-0.07557">
        <ele>6.8</ele>
        <time>2023-10-11T12:51:25Z</time>
      </trkpt>
      <trkpt lat="49.1403" lon="-0.07566">
        <ele>6.8</ele>
        <time>2023-10-11T12:51:26Z</time>
      </trkpt>
      <trkpt lat="49.14024" lon="-0.07575">
        <ele>6.9</ele>
        <time>2023-10-11T12:51:27Z</time>
      </trkpt>
      <trkpt lat="49.14018" lon="-0.07583">
        <ele>6.9</ele>
        <time>2023-10-11T12:51:28Z</time>
      </trkpt>
      <trkpt lat="49.14013" lon="-0.07592">
        <ele>7</ele>
        <time>2023-10-11T12:51:29Z</time>
      </trkpt>
      <trkpt lat="49.14008" lon="-0.076">
        <ele>7</ele>
        <time>2023-10-11T12:51:30Z</time>
      </trkpt>
      <trkpt lat="49.14003" lon="-0.07608">
        <ele>7.1</ele>
        <time>2023-10-11T12:51:31Z</time>
      </trkpt>
      <trkpt lat="49.13997" lon="-0.07616">
        <ele>7.2</ele>
        <time>2023-10-11T12:51:32Z</time>
      </trkpt>
      <trkpt lat="49.13992" lon="-0.07623">
        <ele>7.3</ele>
        <time>2023-10-11T12:51:33Z</time>
      </trkpt>
      <trkpt lat="49.13986" lon="-0.07631">
        <ele>7.3</ele>
        <time>2023-10-11T12:51:34Z</time>
      </trkpt>
      <trkpt lat="49.1398" lon="-0.07637">
        <ele>7.4</ele>
        <time>2023-10-11T12:51:35Z</time>
      </trkpt>
      <trkpt lat="49.13974" lon="-0.07644">
        <ele>7.4</ele>
        <time>2023-10-11T12:51:36Z</time>
      </trkpt>
      <trkpt lat="49.13967" lon="-0.0765">
        <ele>7.5</ele>
        <time>2023-10-11T12:51:37Z</time>
      </trkpt>
      <trkpt lat="49.1396" lon="-0.07655">
        <ele>7.5</ele>
        <time>2023-10-11T12:51:38Z</time>
      </trkpt>
      <trkpt lat="49.13953" lon="-0.07659">
        <ele>7.6</ele>
        <time>2023-10-11T12:51:39Z</time>
      </trkpt>
      <trkpt lat="49.13946" lon="-0.07662">
        <ele>7.6</ele>
        <time>2023-10-11T12:51:40Z</time>
      </trkpt>
      <trkpt lat="49.13939" lon="-0.07663">
        <ele>7.7</ele>
        <time>2023-10-11T12:51:41Z</time>
      </trkpt>
      <trkpt lat="49.13932" lon="-0.07664">
        <ele>7.8</ele>
        <time>2023-10-11T12:51:42Z</time>
      </trkpt>
      <trkpt lat="49.13925" lon="-0.07663">
        <ele>7.9</ele>
        <time>2023-10-11T12:51:43Z</time>
      </trkpt>
      <trkpt lat="49.13919" lon="-0.07663">
        <ele>8</ele>
        <time>2023-10-11T12:51:44Z</time>
      </trkpt>
      <trkpt lat="49.13912" lon="-0.07662">
        <ele>8.1</ele>
        <time>2023-10-11T12:51:45Z</time>
      </trkpt>
      <trkpt lat="49.13906" lon="-0.07661">
        <ele>8.2</ele>
        <time>2023-10-11T12:51:46Z</time>
      </trkpt>
      <trkpt lat="49.13901" lon="-0.0766">
        <ele>8.2</ele>
        <time>2023-10-11T12:51:47Z</time>
      </trkpt>
      <trkpt lat="49.13896" lon="-0.07659">
        <ele>8.3</ele>
        <time>2023-10-11T12:51:48Z</time>
      </trkpt>
      <trkpt lat="49.13892" lon="-0.0766">
        <ele>8.4</ele>
        <time>2023-10-11T12:51:49Z</time>
      </trkpt>
      <trkpt lat="49.13888" lon="-0.07662">
        <ele>8.4</ele>
        <time>2023-10-11T12:51:50Z</time>
      </trkpt>
      <trkpt lat="49.13884" lon="-0.07662">
        <ele>8.4</ele>
        <time>2023-10-11T12:51:51Z</time>
      </trkpt>
      <trkpt lat="49.1388" lon="-0.07659">
        <ele>8.5</ele>
        <time>2023-10-11T12:51:52Z</time>
      </trkpt>
      <trkpt lat="49.13876" lon="-0.07656">
        <ele>8.5</ele>
        <time>2023-10-11T12:51:53Z</time>
      </trkpt>
      <trkpt lat="49.13872" lon="-0.07651">
        <ele>8.5</ele>
        <time>2023-10-11T12:51:54Z</time>
      </trkpt>
      <trkpt lat="49.13867" lon="-0.07648">
        <ele>8.5</ele>
        <time>2023-10-11T12:51:55Z</time>
      </trkpt>
      <trkpt lat="49.13861" lon="-0.07646">
        <ele>8.5</ele>
        <time>2023-10-11T12:51:56Z</time>
      </trkpt>
      <trkpt lat="49.13855" lon="-0.07644">
        <ele>8.6</ele>
        <time>2023-10-11T12:51:57Z</time>
      </trkpt>
      <trkpt lat="49.13849" lon="-0.07641">
        <ele>8.6</ele>
        <time>2023-10-11T12:51:58Z</time>
      </trkpt>
      <trkpt lat="49.13843" lon="-0.07637">
        <ele>8.7</ele>
        <time>2023-10-11T12:51:59Z</time>
      </trkpt>
      <trkpt lat="49.13837" lon="-0.07633">
        <ele>8.8</ele>
        <time>2023-10-11T12:52:00Z</time>
      </trkpt>
      <trkpt lat="49.1383" lon="-0.07629">
        <ele>8.8</ele>
        <time>2023-10-11T12:52:01Z</time>
      </trkpt>
      <trkpt lat="49.13824" lon="-0.07626">
        <ele>8.9</ele>
        <time>2023-10-11T12:52:02Z</time>
      </trkpt>
      <trkpt lat="49.13817" lon="-0.07622">
        <ele>9</ele>
        <time>2023-10-11T12:52:03Z</time>
      </trkpt>
      <trkpt lat="49.13811" lon="-0.07619">
        <ele>9.1</ele>
        <time>2023-10-11T12:52:04Z</time>
      </trkpt>
      <trkpt lat="49.13805" lon="-0.07615">
        <ele>9.2</ele>
        <time>2023-10-11T12:52:05Z</time>
      </trkpt>
      <trkpt lat="49.13798" lon="-0.07612">
        <ele>9.4</ele>
        <time>2023-10-11T12:52:06Z</time>
      </trkpt>
      <trkpt lat="49.13792" lon="-0.07608">
        <ele>9.5</ele>
        <time>2023-10-11T12:52:07Z</time>
      </trkpt>
      <trkpt lat="49.13785" lon="-0.07605">
        <ele>9.6</ele>
        <time>2023-10-11T12:52:08Z</time>
      </trkpt>
      <trkpt lat="49.13779" lon="-0.07601">
        <ele>9.6</ele>
        <time>2023-10-11T12:52:09Z</time>
      </trkpt>
      <trkpt lat="49.13774" lon="-0.07597">
        <ele>9.7</ele>
        <time>2023-10-11T12:52:10Z</time>
      </trkpt>
      <trkpt lat="49.13768" lon="-0.07594">
        <ele>9.7</ele>
        <time>2023-10-11T12:52:11Z</time>
      </trkpt>
      <trkpt lat="49.13761" lon="-0.0759">
        <ele>9.7</ele>
        <time>2023-10-11T12:52:12Z</time>
      </trkpt>
      <trkpt lat="49.13754" lon="-0.07586">
        <ele>9.8</ele>
        <time>2023-10-11T12:52:13Z</time>
      </trkpt>
      <trkpt lat="49.13748" lon="-0.07582">
        <ele>9.8</ele>
        <time>2023-10-11T12:52:14Z</time>
      </trkpt>
      <trkpt lat="49.13741" lon="-0.07579">
        <ele>9.8</ele>
        <time>2023-10-11T12:52:15Z</time>
      </trkpt>
      <trkpt lat="49.13734" lon="-0.07576">
        <ele>9.9</ele>
        <time>2023-10-11T12:52:16Z</time>
      </trkpt>
      <trkpt lat="49.13727" lon="-0.07573">
        <ele>10</ele>
        <time>2023-10-11T12:52:17Z</time>
      </trkpt>
      <trkpt lat="49.1372" lon="-0.0757">
        <ele>10.1</ele>
        <time>2023-10-11T12:52:18Z</time>
      </trkpt>
      <trkpt lat="49.13713" lon="-0.07567">
        <ele>10.2</ele>
        <time>2023-10-11T12:52:19Z</time>
      </trkpt>
      <trkpt lat="49.13707" lon="-0.07564">
        <ele>10.3</ele>
        <time>2023-10-11T12:52:20Z</time>
      </trkpt>
      <trkpt lat="49.137" lon="-0.07562">
        <ele>10.4</ele>
        <time>2023-10-11T12:52:21Z</time>
      </trkpt>
      <trkpt lat="49.13693" lon="-0.0756">
        <ele>10.5</ele>
        <time>2023-10-11T12:52:22Z</time>
      </trkpt>
      <trkpt lat="49.13686" lon="-0.07559">
        <ele>10.5</ele>
        <time>2023-10-11T12:52:23Z</time>
      </trkpt>
      <trkpt lat="49.1368" lon="-0.07559">
        <ele>10.5</ele>
        <time>2023-10-11T12:52:24Z</time>
      </trkpt>
      <trkpt lat="49.13673" lon="-0.07559">
        <ele>10.5</ele>
        <time>2023-10-11T12:52:25Z</time>
      </trkpt>
      <trkpt lat="49.13667" lon="-0.07559">
        <ele>10.5</ele>
        <time>2023-10-11T12:52:26Z</time>
      </trkpt>
      <trkpt lat="49.1366" lon="-0.07561">
        <ele>10.5</ele>
        <time>2023-10-11T12:52:27Z</time>
      </trkpt>
      <trkpt lat="49.13654" lon="-0.07562">
        <ele>10.4</ele>
        <time>2023-10-11T12:52:28Z</time>
      </trkpt>
      <trkpt lat="49.13647" lon="-0.07565">
        <ele>10.3</ele>
        <time>2023-10-11T12:52:29Z</time>
      </trkpt>
      <trkpt lat="49.13639" lon="-0.07567">
        <ele>10.2</ele>
        <time>2023-10-11T12:52:30Z</time>
      </trkpt>
      <trkpt lat="49.13632" lon="-0.0757">
        <ele>10.1</ele>
        <time>2023-10-11T12:52:31Z</time>
      </trkpt>
      <trkpt lat="49.13624" lon="-0.07573">
        <ele>10</ele>
        <time>2023-10-11T12:52:32Z</time>
      </trkpt>
      <trkpt lat="49.13616" lon="-0.07575">
        <ele>9.9</ele>
        <time>2023-10-11T12:52:33Z</time>
      </trkpt>
      <trkpt lat="49.13609" lon="-0.07578">
        <ele>9.8</ele>
        <time>2023-10-11T12:52:34Z</time>
      </trkpt>
      <trkpt lat="49.13602" lon="-0.0758">
        <ele>9.8</ele>
        <time>2023-10-11T12:52:35Z</time>
      </trkpt>
      <trkpt lat="49.13594" lon="-0.07581">
        <ele>9.7</ele>
        <time>2023-10-11T12:52:36Z</time>
      </trkpt>
      <trkpt lat="49.13587" lon="-0.07583">
        <ele>9.7</ele>
        <time>2023-10-11T12:52:37Z</time>
      </trkpt>
      <trkpt lat="49.1358" lon="-0.07583">
        <ele>9.7</ele>
        <time>2023-10-11T12:52:38Z</time>
      </trkpt>
      <trkpt lat="49.13572" lon="-0.07581">
        <ele>9.6</ele>
        <time>2023-10-11T12:52:39Z</time>
      </trkpt>
      <trkpt lat="49.13564" lon="-0.07578">
        <ele>9.6</ele>
        <time>2023-10-11T12:52:40Z</time>
      </trkpt>
      <trkpt lat="49.13556" lon="-0.07576">
        <ele>9.6</ele>
        <time>2023-10-11T12:52:41Z</time>
      </trkpt>
      <trkpt lat="49.13547" lon="-0.07573">
        <ele>9.6</ele>
        <time>2023-10-11T12:52:42Z</time>
      </trkpt>
      <trkpt lat="49.1354" lon="-0.07571">
        <ele>9.6</ele>
        <time>2023-10-11T12:52:43Z</time>
      </trkpt>
      <trkpt lat="49.13532" lon="-0.07569">
        <ele>9.6</ele>
        <time>2023-10-11T12:52:44Z</time>
      </trkpt>
      <trkpt lat="49.13524" lon="-0.07567">
        <ele>9.6</ele>
        <time>2023-10-11T12:52:45Z</time>
      </trkpt>
      <trkpt lat="49.13517" lon="-0.07566">
        <ele>9.6</ele>
        <time>2023-10-11T12:52:46Z</time>
      </trkpt>
      <trkpt lat="49.1351" lon="-0.07565">
        <ele>9.7</ele>
        <time>2023-10-11T12:52:47Z</time>
      </trkpt>
      <trkpt lat="49.13503" lon="-0.07564">
        <ele>9.7</ele>
        <time>2023-10-11T12:52:48Z</time>
      </trkpt>
      <trkpt lat="49.13496" lon="-0.07562">
        <ele>9.8</ele>
        <time>2023-10-11T12:52:49Z</time>
      </trkpt>
      <trkpt lat="49.13489" lon="-0.07561">
        <ele>9.8</ele>
        <time>2023-10-11T12:52:50Z</time>
      </trkpt>
      <trkpt lat="49.13482" lon="-0.0756">
        <ele>9.9</ele>
        <time>2023-10-11T12:52:51Z</time>
      </trkpt>
      <trkpt lat="49.13475" lon="-0.07559">
        <ele>10</ele>
        <time>2023-10-11T12:52:52Z</time>
      </trkpt>
      <trkpt lat="49.13468" lon="-0.07558">
        <ele>10</ele>
        <time>2023-10-11T12:52:53Z</time>
      </trkpt>
      <trkpt lat="49.13461" lon="-0.07557">
        <ele>10</ele>
        <time>2023-10-11T12:52:54Z</time>
      </trkpt>
      <trkpt lat="49.13454" lon="-0.07556">
        <ele>10</ele>
        <time>2023-10-11T12:52:55Z</time>
      </trkpt>
      <trkpt lat="49.13448" lon="-0.07555">
        <ele>10</ele>
        <time>2023-10-11T12:52:56Z</time>
      </trkpt>
      <trkpt lat="49.13441" lon="-0.07554">
        <ele>10</ele>
        <time>2023-10-11T12:52:57Z</time>
      </trkpt>
      <trkpt lat="49.13436" lon="-0.07554">
        <ele>10</ele>
        <time>2023-10-11T12:52:58Z</time>
      </trkpt>
      <trkpt lat="49.13431" lon="-0.07554">
        <ele>10</ele>
        <time>2023-10-11T12:52:59Z</time>
      </trkpt>
      <trkpt lat="49.13426" lon="-0.07553">
        <ele>10</ele>
        <time>2023-10-11T12:53:00Z</time>
      </trkpt>
      <trkpt lat="49.13422" lon="-0.07553">
        <ele>10</ele>
        <time>2023-10-11T12:53:01Z</time>
      </trkpt>
      <trkpt lat="49.13419" lon="-0.07553">
        <ele>10</ele>
        <time>2023-10-11T12:53:02Z</time>
      </trkpt>
      <trkpt lat="49.13416" lon="-0.07553">
        <ele>10</ele>
        <time>2023-10-11T12:53:03Z</time>
      </trkpt>
      <trkpt lat="49.13412" lon="-0.07553">
        <ele>10.1</ele>
        <time>2023-10-11T12:53:04Z</time>
      </trkpt>
      <trkpt lat="49.13412" lon="-0.07553">
        <ele>10.1</ele>
        <time>2023-10-11T12:53:05Z</time>
      </trkpt>
      <trkpt lat="49.13408" lon="-0.07554">
        <ele>10.1</ele>
        <time>2023-10-11T12:53:06Z</time>
      </trkpt>
      <trkpt lat="49.13407" lon="-0.07553">
        <ele>10.1</ele>
        <time>2023-10-11T12:53:07Z</time>
      </trkpt>
      <trkpt lat="49.13404" lon="-0.07549">
        <ele>10.2</ele>
        <time>2023-10-11T12:53:08Z</time>
      </trkpt>
      <trkpt lat="49.13404" lon="-0.07547">
        <ele>10.2</ele>
        <time>2023-10-11T12:53:09Z</time>
      </trkpt>
      <trkpt lat="49.13404" lon="-0.07541">
        <ele>10.2</ele>
        <time>2023-10-11T12:53:10Z</time>
      </trkpt>
      <trkpt lat="49.13404" lon="-0.07536">
        <ele>10.3</ele>
        <time>2023-10-11T12:53:11Z</time>
      </trkpt>
      <trkpt lat="49.13405" lon="-0.07531">
        <ele>10.4</ele>
        <time>2023-10-11T12:53:12Z</time>
      </trkpt>
      <trkpt lat="49.13406" lon="-0.07525">
        <ele>10.5</ele>
        <time>2023-10-11T12:53:13Z</time>
      </trkpt>
      <trkpt lat="49.13406" lon="-0.07519">
        <ele>10.5</ele>
        <time>2023-10-11T12:53:14Z</time>
      </trkpt>
      <trkpt lat="49.13406" lon="-0.07512">
        <ele>10.6</ele>
        <time>2023-10-11T12:53:15Z</time>
      </trkpt>
      <trkpt lat="49.13407" lon="-0.07505">
        <ele>10.7</ele>
        <time>2023-10-11T12:53:16Z</time>
      </trkpt>
      <trkpt lat="49.13407" lon="-0.07497">
        <ele>10.7</ele>
        <time>2023-10-11T12:53:17Z</time>
      </trkpt>
      <trkpt lat="49.13407" lon="-0.07489">
        <ele>10.8</ele>
        <time>2023-10-11T12:53:18Z</time>
      </trkpt>
      <trkpt lat="49.13408" lon="-0.0748">
        <ele>10.9</ele>
        <time>2023-10-11T12:53:19Z</time>
      </trkpt>
      <trkpt lat="49.13408" lon="-0.07471">
        <ele>10.9</ele>
        <time>2023-10-11T12:53:20Z</time>
      </trkpt>
      <trkpt lat="49.13409" lon="-0.07462">
        <ele>11</ele>
        <time>2023-10-11T12:53:21Z</time>
      </trkpt>
      <trkpt lat="49.1341" lon="-0.07452">
        <ele>11</ele>
        <time>2023-10-11T12:53:22Z</time>
      </trkpt>
      <trkpt lat="49.1341" lon="-0.07442">
        <ele>11</ele>
        <time>2023-10-11T12:53:23Z</time>
      </trkpt>
      <trkpt lat="49.1341" lon="-0.07432">
        <ele>11.1</ele>
        <time>2023-10-11T12:53:24Z</time>
      </trkpt>
      <trkpt lat="49.13411" lon="-0.07422">
        <ele>11.1</ele>
        <time>2023-10-11T12:53:25Z</time>
      </trkpt>
      <trkpt lat="49.13411" lon="-0.07411">
        <ele>11.1</ele>
        <time>2023-10-11T12:53:26Z</time>
      </trkpt>
      <trkpt lat="49.13412" lon="-0.074">
        <ele>11.1</ele>
        <time>2023-10-11T12:53:27Z</time>
      </trkpt>
      <trkpt lat="49.13412" lon="-0.0739">
        <ele>11.1</ele>
        <time>2023-10-11T12:53:28Z</time>
      </trkpt>
      <trkpt lat="49.13412" lon="-0.07378">
        <ele>11.1</ele>
        <time>2023-10-11T12:53:29Z</time>
      </trkpt>
      <trkpt lat="49.13413" lon="-0.07367">
        <ele>11.1</ele>
        <time>2023-10-11T12:53:30Z</time>
      </trkpt>
      <trkpt lat="49.13414" lon="-0.07356">
        <ele>11.1</ele>
        <time>2023-10-11T12:53:31Z</time>
      </trkpt>
      <trkpt lat="49.13414" lon="-0.07345">
        <ele>11.1</ele>
        <time>2023-10-11T12:53:32Z</time>
      </trkpt>
      <trkpt lat="49.13415" lon="-0.07334">
        <ele>11.1</ele>
        <time>2023-10-11T12:53:33Z</time>
      </trkpt>
      <trkpt lat="49.13415" lon="-0.07324">
        <ele>11.2</ele>
        <time>2023-10-11T12:53:34Z</time>
      </trkpt>
      <trkpt lat="49.13416" lon="-0.07314">
        <ele>11.2</ele>
        <time>2023-10-11T12:53:35Z</time>
      </trkpt>
      <trkpt lat="49.13416" lon="-0.07304">
        <ele>11.2</ele>
        <time>2023-10-11T12:53:36Z</time>
      </trkpt>
      <trkpt lat="49.13416" lon="-0.07293">
        <ele>11.2</ele>
        <time>2023-10-11T12:53:37Z</time>
      </trkpt>
      <trkpt lat="49.13416" lon="-0.07283">
        <ele>11.1</ele>
        <time>2023-10-11T12:53:38Z</time>
      </trkpt>
      <trkpt lat="49.13417" lon="-0.07272">
        <ele>11.1</ele>
        <time>2023-10-11T12:53:39Z</time>
      </trkpt>
      <trkpt lat="49.13417" lon="-0.07261">
        <ele>11.1</ele>
        <time>2023-10-11T12:53:40Z</time>
      </trkpt>
      <trkpt lat="49.13418" lon="-0.0725">
        <ele>11.2</ele>
        <time>2023-10-11T12:53:41Z</time>
      </trkpt>
      <trkpt lat="49.13418" lon="-0.07239">
        <ele>11.2</ele>
        <time>2023-10-11T12:53:42Z</time>
      </trkpt>
      <trkpt lat="49.13418" lon="-0.07227">
        <ele>11.2</ele>
        <time>2023-10-11T12:53:43Z</time>
      </trkpt>
      <trkpt lat="49.13419" lon="-0.07216">
        <ele>11.2</ele>
        <time>2023-10-11T12:53:44Z</time>
      </trkpt>
      <trkpt lat="49.13419" lon="-0.07204">
        <ele>11.2</ele>
        <time>2023-10-11T12:53:45Z</time>
      </trkpt>
      <trkpt lat="49.1342" lon="-0.07192">
        <ele>11.2</ele>
        <time>2023-10-11T12:53:46Z</time>
      </trkpt>
      <trkpt lat="49.1342" lon="-0.0718">
        <ele>11.2</ele>
        <time>2023-10-11T12:53:47Z</time>
      </trkpt>
      <trkpt lat="49.13421" lon="-0.07169">
        <ele>11.2</ele>
        <time>2023-10-11T12:53:48Z</time>
      </trkpt>
      <trkpt lat="49.13422" lon="-0.07157">
        <ele>11.3</ele>
        <time>2023-10-11T12:53:49Z</time>
      </trkpt>
      <trkpt lat="49.13422" lon="-0.07145">
        <ele>11.3</ele>
        <time>2023-10-11T12:53:50Z</time>
      </trkpt>
      <trkpt lat="49.13423" lon="-0.07133">
        <ele>11.3</ele>
        <time>2023-10-11T12:53:51Z</time>
      </trkpt>
      <trkpt lat="49.13423" lon="-0.07121">
        <ele>11.3</ele>
        <time>2023-10-11T12:53:52Z</time>
      </trkpt>
      <trkpt lat="49.13423" lon="-0.0711">
        <ele>11.3</ele>
        <time>2023-10-11T12:53:53Z</time>
      </trkpt>
      <trkpt lat="49.13424" lon="-0.07099">
        <ele>11.3</ele>
        <time>2023-10-11T12:53:54Z</time>
      </trkpt>
      <trkpt lat="49.13424" lon="-0.07087">
        <ele>11.3</ele>
        <time>2023-10-11T12:53:55Z</time>
      </trkpt>
      <trkpt lat="49.13425" lon="-0.07075">
        <ele>11.3</ele>
        <time>2023-10-11T12:53:56Z</time>
      </trkpt>
      <trkpt lat="49.13425" lon="-0.07064">
        <ele>11.3</ele>
        <time>2023-10-11T12:53:57Z</time>
      </trkpt>
      <trkpt lat="49.13426" lon="-0.07052">
        <ele>11.4</ele>
        <time>2023-10-11T12:53:58Z</time>
      </trkpt>
      <trkpt lat="49.13426" lon="-0.07041">
        <ele>11.4</ele>
        <time>2023-10-11T12:53:59Z</time>
      </trkpt>
      <trkpt lat="49.13427" lon="-0.0703">
        <ele>11.4</ele>
        <time>2023-10-11T12:54:00Z</time>
      </trkpt>
      <trkpt lat="49.13427" lon="-0.0702">
        <ele>11.4</ele>
        <time>2023-10-11T12:54:01Z</time>
      </trkpt>
      <trkpt lat="49.13428" lon="-0.0701">
        <ele>11.5</ele>
        <time>2023-10-11T12:54:02Z</time>
      </trkpt>
      <trkpt lat="49.13428" lon="-0.06999">
        <ele>11.5</ele>
        <time>2023-10-11T12:54:03Z</time>
      </trkpt>
      <trkpt lat="49.13429" lon="-0.06989">
        <ele>11.5</ele>
        <time>2023-10-11T12:54:04Z</time>
      </trkpt>
      <trkpt lat="49.13429" lon="-0.06978">
        <ele>11.4</ele>
        <time>2023-10-11T12:54:05Z</time>
      </trkpt>
      <trkpt lat="49.1343" lon="-0.06966">
        <ele>11.4</ele>
        <time>2023-10-11T12:54:06Z</time>
      </trkpt>
      <trkpt lat="49.1343" lon="-0.06955">
        <ele>11.4</ele>
        <time>2023-10-11T12:54:07Z</time>
      </trkpt>
      <trkpt lat="49.13431" lon="-0.06943">
        <ele>11.4</ele>
        <time>2023-10-11T12:54:08Z</time>
      </trkpt>
      <trkpt lat="49.13431" lon="-0.06932">
        <ele>11.4</ele>
        <time>2023-10-11T12:54:09Z</time>
      </trkpt>
      <trkpt lat="49.13432" lon="-0.06921">
        <ele>11.3</ele>
        <time>2023-10-11T12:54:10Z</time>
      </trkpt>
      <trkpt lat="49.13432" lon="-0.0691">
        <ele>11.3</ele>
        <time>2023-10-11T12:54:11Z</time>
      </trkpt>
      <trkpt lat="49.13432" lon="-0.06899">
        <ele>11.3</ele>
        <time>2023-10-11T12:54:12Z</time>
      </trkpt>
      <trkpt lat="49.13433" lon="-0.06888">
        <ele>11.3</ele>
        <time>2023-10-11T12:54:13Z</time>
      </trkpt>
      <trkpt lat="49.13433" lon="-0.06876">
        <ele>11.2</ele>
        <time>2023-10-11T12:54:14Z</time>
      </trkpt>
      <trkpt lat="49.13434" lon="-0.06865">
        <ele>11.2</ele>
        <time>2023-10-11T12:54:15Z</time>
      </trkpt>
      <trkpt lat="49.13435" lon="-0.06854">
        <ele>11.2</ele>
        <time>2023-10-11T12:54:16Z</time>
      </trkpt>
      <trkpt lat="49.13435" lon="-0.06843">
        <ele>11.2</ele>
        <time>2023-10-11T12:54:17Z</time>
      </trkpt>
      <trkpt lat="49.13436" lon="-0.06832">
        <ele>11.2</ele>
        <time>2023-10-11T12:54:18Z</time>
      </trkpt>
      <trkpt lat="49.13436" lon="-0.06821">
        <ele>11.2</ele>
        <time>2023-10-11T12:54:19Z</time>
      </trkpt>
      <trkpt lat="49.13435" lon="-0.06811">
        <ele>11.2</ele>
        <time>2023-10-11T12:54:20Z</time>
      </trkpt>
      <trkpt lat="49.13433" lon="-0.06801">
        <ele>11.1</ele>
        <time>2023-10-11T12:54:21Z</time>
      </trkpt>
      <trkpt lat="49.1343" lon="-0.06791">
        <ele>11</ele>
        <time>2023-10-11T12:54:22Z</time>
      </trkpt>
      <trkpt lat="49.13426" lon="-0.06782">
        <ele>11</ele>
        <time>2023-10-11T12:54:23Z</time>
      </trkpt>
      <trkpt lat="49.1342" lon="-0.06775">
        <ele>10.9</ele>
        <time>2023-10-11T12:54:24Z</time>
      </trkpt>
      <trkpt lat="49.13414" lon="-0.06769">
        <ele>10.9</ele>
        <time>2023-10-11T12:54:25Z</time>
      </trkpt>
      <trkpt lat="49.13407" lon="-0.06765">
        <ele>11</ele>
        <time>2023-10-11T12:54:26Z</time>
      </trkpt>
      <trkpt lat="49.13399" lon="-0.06762">
        <ele>11</ele>
        <time>2023-10-11T12:54:27Z</time>
      </trkpt>
      <trkpt lat="49.13391" lon="-0.0676">
        <ele>11</ele>
        <time>2023-10-11T12:54:28Z</time>
      </trkpt>
      <trkpt lat="49.13383" lon="-0.06759">
        <ele>10.9</ele>
        <time>2023-10-11T12:54:29Z</time>
      </trkpt>
      <trkpt lat="49.13375" lon="-0.06759">
        <ele>10.9</ele>
        <time>2023-10-11T12:54:30Z</time>
      </trkpt>
      <trkpt lat="49.13367" lon="-0.06758">
        <ele>10.9</ele>
        <time>2023-10-11T12:54:31Z</time>
      </trkpt>
      <trkpt lat="49.1336" lon="-0.06758">
        <ele>10.9</ele>
        <time>2023-10-11T12:54:32Z</time>
      </trkpt>
      <trkpt lat="49.13352" lon="-0.06758">
        <ele>11</ele>
        <time>2023-10-11T12:54:33Z</time>
      </trkpt>
      <trkpt lat="49.13345" lon="-0.06757">
        <ele>11</ele>
        <time>2023-10-11T12:54:34Z</time>
      </trkpt>
      <trkpt lat="49.13337" lon="-0.06757">
        <ele>11</ele>
        <time>2023-10-11T12:54:35Z</time>
      </trkpt>
      <trkpt lat="49.1333" lon="-0.06756">
        <ele>10.9</ele>
        <time>2023-10-11T12:54:36Z</time>
      </trkpt>
      <trkpt lat="49.13324" lon="-0.06756">
        <ele>10.9</ele>
        <time>2023-10-11T12:54:37Z</time>
      </trkpt>
      <trkpt lat="49.13317" lon="-0.06756">
        <ele>10.9</ele>
        <time>2023-10-11T12:54:38Z</time>
      </trkpt>
      <trkpt lat="49.1331" lon="-0.06756">
        <ele>10.9</ele>
        <time>2023-10-11T12:54:39Z</time>
      </trkpt>
      <trkpt lat="49.13303" lon="-0.06755">
        <ele>10.9</ele>
        <time>2023-10-11T12:54:40Z</time>
      </trkpt>
      <trkpt lat="49.13296" lon="-0.06756">
        <ele>10.9</ele>
        <time>2023-10-11T12:54:41Z</time>
      </trkpt>
      <trkpt lat="49.13288" lon="-0.06756">
        <ele>10.9</ele>
        <time>2023-10-11T12:54:42Z</time>
      </trkpt>
      <trkpt lat="49.13281" lon="-0.06756">
        <ele>10.9</ele>
        <time>2023-10-11T12:54:43Z</time>
      </trkpt>
      <trkpt lat="49.13274" lon="-0.06755">
        <ele>10.9</ele>
        <time>2023-10-11T12:54:44Z</time>
      </trkpt>
      <trkpt lat="49.13267" lon="-0.06755">
        <ele>10.9</ele>
        <time>2023-10-11T12:54:45Z</time>
      </trkpt>
      <trkpt lat="49.13259" lon="-0.06756">
        <ele>10.9</ele>
        <time>2023-10-11T12:54:46Z</time>
      </trkpt>
      <trkpt lat="49.13252" lon="-0.06756">
        <ele>10.9</ele>
        <time>2023-10-11T12:54:47Z</time>
      </trkpt>
      <trkpt lat="49.13245" lon="-0.06756">
        <ele>10.9</ele>
        <time>2023-10-11T12:54:48Z</time>
      </trkpt>
      <trkpt lat="49.13238" lon="-0.06756">
        <ele>11</ele>
        <time>2023-10-11T12:54:49Z</time>
      </trkpt>
      <trkpt lat="49.13232" lon="-0.06757">
        <ele>11</ele>
        <time>2023-10-11T12:54:50Z</time>
      </trkpt>
      <trkpt lat="49.13225" lon="-0.06757">
        <ele>11</ele>
        <time>2023-10-11T12:54:51Z</time>
      </trkpt>
      <trkpt lat="49.13218" lon="-0.06758">
        <ele>11</ele>
        <time>2023-10-11T12:54:52Z</time>
      </trkpt>
      <trkpt lat="49.1321" lon="-0.06758">
        <ele>11</ele>
        <time>2023-10-11T12:54:53Z</time>
      </trkpt>
      <trkpt lat="49.13203" lon="-0.06759">
        <ele>11</ele>
        <time>2023-10-11T12:54:54Z</time>
      </trkpt>
      <trkpt lat="49.13196" lon="-0.0676">
        <ele>11</ele>
        <time>2023-10-11T12:54:55Z</time>
      </trkpt>
      <trkpt lat="49.13189" lon="-0.06761">
        <ele>11.1</ele>
        <time>2023-10-11T12:54:56Z</time>
      </trkpt>
      <trkpt lat="49.13182" lon="-0.06762">
        <ele>11.1</ele>
        <time>2023-10-11T12:54:57Z</time>
      </trkpt>
      <trkpt lat="49.13175" lon="-0.06763">
        <ele>11.1</ele>
        <time>2023-10-11T12:54:58Z</time>
      </trkpt>
      <trkpt lat="49.13168" lon="-0.06765">
        <ele>11.2</ele>
        <time>2023-10-11T12:54:59Z</time>
      </trkpt>
      <trkpt lat="49.13161" lon="-0.06767">
        <ele>11.2</ele>
        <time>2023-10-11T12:55:00Z</time>
      </trkpt>
      <trkpt lat="49.13153" lon="-0.06768">
        <ele>11.2</ele>
        <time>2023-10-11T12:55:01Z</time>
      </trkpt>
      <trkpt lat="49.13146" lon="-0.06769">
        <ele>11.2</ele>
        <time>2023-10-11T12:55:02Z</time>
      </trkpt>
      <trkpt lat="49.1314" lon="-0.06771">
        <ele>11.3</ele>
        <time>2023-10-11T12:55:03Z</time>
      </trkpt>
      <trkpt lat="49.13133" lon="-0.06773">
        <ele>11.3</ele>
        <time>2023-10-11T12:55:04Z</time>
      </trkpt>
      <trkpt lat="49.13126" lon="-0.06774">
        <ele>11.3</ele>
        <time>2023-10-11T12:55:05Z</time>
      </trkpt>
      <trkpt lat="49.13119" lon="-0.06776">
        <ele>11.3</ele>
        <time>2023-10-11T12:55:06Z</time>
      </trkpt>
      <trkpt lat="49.13112" lon="-0.06777">
        <ele>11.3</ele>
        <time>2023-10-11T12:55:07Z</time>
      </trkpt>
      <trkpt lat="49.13105" lon="-0.06779">
        <ele>11.3</ele>
        <time>2023-10-11T12:55:08Z</time>
      </trkpt>
      <trkpt lat="49.13098" lon="-0.0678">
        <ele>11.4</ele>
        <time>2023-10-11T12:55:09Z</time>
      </trkpt>
      <trkpt lat="49.1309" lon="-0.06781">
        <ele>11.4</ele>
        <time>2023-10-11T12:55:10Z</time>
      </trkpt>
      <trkpt lat="49.13083" lon="-0.06783">
        <ele>11.4</ele>
        <time>2023-10-11T12:55:11Z</time>
      </trkpt>
      <trkpt lat="49.13076" lon="-0.06784">
        <ele>11.5</ele>
        <time>2023-10-11T12:55:12Z</time>
      </trkpt>
      <trkpt lat="49.13069" lon="-0.06786">
        <ele>11.5</ele>
        <time>2023-10-11T12:55:13Z</time>
      </trkpt>
      <trkpt lat="49.13062" lon="-0.06788">
        <ele>11.5</ele>
        <time>2023-10-11T12:55:14Z</time>
      </trkpt>
      <trkpt lat="49.13055" lon="-0.06789">
        <ele>11.6</ele>
        <time>2023-10-11T12:55:15Z</time>
      </trkpt>
      <trkpt lat="49.13047" lon="-0.0679">
        <ele>11.6</ele>
        <time>2023-10-11T12:55:16Z</time>
      </trkpt>
      <trkpt lat="49.1304" lon="-0.06792">
        <ele>11.6</ele>
        <time>2023-10-11T12:55:17Z</time>
      </trkpt>
      <trkpt lat="49.13033" lon="-0.06793">
        <ele>11.6</ele>
        <time>2023-10-11T12:55:18Z</time>
      </trkpt>
      <trkpt lat="49.13026" lon="-0.06795">
        <ele>11.6</ele>
        <time>2023-10-11T12:55:19Z</time>
      </trkpt>
      <trkpt lat="49.13019" lon="-0.06796">
        <ele>11.6</ele>
        <time>2023-10-11T12:55:20Z</time>
      </trkpt>
      <trkpt lat="49.13013" lon="-0.06797">
        <ele>11.7</ele>
        <time>2023-10-11T12:55:21Z</time>
      </trkpt>
      <trkpt lat="49.13006" lon="-0.06797">
        <ele>11.7</ele>
        <time>2023-10-11T12:55:22Z</time>
      </trkpt>
      <trkpt lat="49.12998" lon="-0.06797">
        <ele>11.8</ele>
        <time>2023-10-11T12:55:23Z</time>
      </trkpt>
      <trkpt lat="49.12991" lon="-0.06796">
        <ele>11.8</ele>
        <time>2023-10-11T12:55:24Z</time>
      </trkpt>
      <trkpt lat="49.12984" lon="-0.06795">
        <ele>11.9</ele>
        <time>2023-10-11T12:55:25Z</time>
      </trkpt>
      <trkpt lat="49.12977" lon="-0.06792">
        <ele>11.9</ele>
        <time>2023-10-11T12:55:26Z</time>
      </trkpt>
      <trkpt lat="49.1297" lon="-0.06789">
        <ele>11.9</ele>
        <time>2023-10-11T12:55:27Z</time>
      </trkpt>
      <trkpt lat="49.12964" lon="-0.06786">
        <ele>12</ele>
        <time>2023-10-11T12:55:28Z</time>
      </trkpt>
      <trkpt lat="49.12957" lon="-0.06782">
        <ele>12</ele>
        <time>2023-10-11T12:55:29Z</time>
      </trkpt>
      <trkpt lat="49.12951" lon="-0.06778">
        <ele>12</ele>
        <time>2023-10-11T12:55:30Z</time>
      </trkpt>
      <trkpt lat="49.12944" lon="-0.06773">
        <ele>12</ele>
        <time>2023-10-11T12:55:31Z</time>
      </trkpt>
      <trkpt lat="49.12938" lon="-0.06769">
        <ele>12</ele>
        <time>2023-10-11T12:55:32Z</time>
      </trkpt>
      <trkpt lat="49.12931" lon="-0.06764">
        <ele>12</ele>
        <time>2023-10-11T12:55:33Z</time>
      </trkpt>
      <trkpt lat="49.12924" lon="-0.0676">
        <ele>12</ele>
        <time>2023-10-11T12:55:34Z</time>
      </trkpt>
      <trkpt lat="49.12918" lon="-0.06755">
        <ele>12.1</ele>
        <time>2023-10-11T12:55:35Z</time>
      </trkpt>
      <trkpt lat="49.12911" lon="-0.06751">
        <ele>12.1</ele>
        <time>2023-10-11T12:55:36Z</time>
      </trkpt>
      <trkpt lat="49.12905" lon="-0.06747">
        <ele>12.1</ele>
        <time>2023-10-11T12:55:37Z</time>
      </trkpt>
      <trkpt lat="49.12898" lon="-0.06743">
        <ele>12.2</ele>
        <time>2023-10-11T12:55:38Z</time>
      </trkpt>
      <trkpt lat="49.12891" lon="-0.06738">
        <ele>12.2</ele>
        <time>2023-10-11T12:55:39Z</time>
      </trkpt>
      <trkpt lat="49.12884" lon="-0.06734">
        <ele>12.2</ele>
        <time>2023-10-11T12:55:40Z</time>
      </trkpt>
      <trkpt lat="49.12878" lon="-0.0673">
        <ele>12.2</ele>
        <time>2023-10-11T12:55:41Z</time>
      </trkpt>
      <trkpt lat="49.12871" lon="-0.06726">
        <ele>12.2</ele>
        <time>2023-10-11T12:55:42Z</time>
      </trkpt>
      <trkpt lat="49.12864" lon="-0.06722">
        <ele>12.3</ele>
        <time>2023-10-11T12:55:43Z</time>
      </trkpt>
      <trkpt lat="49.12857" lon="-0.06718">
        <ele>12.3</ele>
        <time>2023-10-11T12:55:44Z</time>
      </trkpt>
      <trkpt lat="49.12851" lon="-0.06714">
        <ele>12.3</ele>
        <time>2023-10-11T12:55:45Z</time>
      </trkpt>
      <trkpt lat="49.12844" lon="-0.0671">
        <ele>12.3</ele>
        <time>2023-10-11T12:55:46Z</time>
      </trkpt>
      <trkpt lat="49.12837" lon="-0.06707">
        <ele>12.3</ele>
        <time>2023-10-11T12:55:47Z</time>
      </trkpt>
      <trkpt lat="49.1283" lon="-0.06704">
        <ele>12.3</ele>
        <time>2023-10-11T12:55:48Z</time>
      </trkpt>
      <trkpt lat="49.12824" lon="-0.06702">
        <ele>12.4</ele>
        <time>2023-10-11T12:55:49Z</time>
      </trkpt>
      <trkpt lat="49.12817" lon="-0.06699">
        <ele>12.4</ele>
        <time>2023-10-11T12:55:50Z</time>
      </trkpt>
      <trkpt lat="49.12811" lon="-0.06697">
        <ele>12.4</ele>
        <time>2023-10-11T12:55:51Z</time>
      </trkpt>
      <trkpt lat="49.12804" lon="-0.06695">
        <ele>12.4</ele>
        <time>2023-10-11T12:55:52Z</time>
      </trkpt>
      <trkpt lat="49.12798" lon="-0.06693">
        <ele>12.4</ele>
        <time>2023-10-11T12:55:53Z</time>
      </trkpt>
      <trkpt lat="49.12791" lon="-0.06691">
        <ele>12.4</ele>
        <time>2023-10-11T12:55:54Z</time>
      </trkpt>
      <trkpt lat="49.12784" lon="-0.06689">
        <ele>12.5</ele>
        <time>2023-10-11T12:55:55Z</time>
      </trkpt>
      <trkpt lat="49.12777" lon="-0.06688">
        <ele>12.5</ele>
        <time>2023-10-11T12:55:56Z</time>
      </trkpt>
      <trkpt lat="49.1277" lon="-0.06687">
        <ele>12.5</ele>
        <time>2023-10-11T12:55:57Z</time>
      </trkpt>
      <trkpt lat="49.12762" lon="-0.06687">
        <ele>12.6</ele>
        <time>2023-10-11T12:55:58Z</time>
      </trkpt>
      <trkpt lat="49.12755" lon="-0.06687">
        <ele>12.6</ele>
        <time>2023-10-11T12:55:59Z</time>
      </trkpt>
      <trkpt lat="49.12748" lon="-0.06687">
        <ele>12.6</ele>
        <time>2023-10-11T12:56:00Z</time>
      </trkpt>
      <trkpt lat="49.12741" lon="-0.06687">
        <ele>12.6</ele>
        <time>2023-10-11T12:56:01Z</time>
      </trkpt>
      <trkpt lat="49.12734" lon="-0.06687">
        <ele>12.6</ele>
        <time>2023-10-11T12:56:02Z</time>
      </trkpt>
      <trkpt lat="49.12726" lon="-0.06687">
        <ele>12.6</ele>
        <time>2023-10-11T12:56:03Z</time>
      </trkpt>
      <trkpt lat="49.12719" lon="-0.06687">
        <ele>12.6</ele>
        <time>2023-10-11T12:56:04Z</time>
      </trkpt>
      <trkpt lat="49.12711" lon="-0.06687">
        <ele>12.6</ele>
        <time>2023-10-11T12:56:05Z</time>
      </trkpt>
      <trkpt lat="49.12704" lon="-0.06687">
        <ele>12.6</ele>
        <time>2023-10-11T12:56:06Z</time>
      </trkpt>
      <trkpt lat="49.12697" lon="-0.06687">
        <ele>12.5</ele>
        <time>2023-10-11T12:56:07Z</time>
      </trkpt>
      <trkpt lat="49.12689" lon="-0.06687">
        <ele>12.5</ele>
        <time>2023-10-11T12:56:08Z</time>
      </trkpt>
      <trkpt lat="49.12682" lon="-0.06687">
        <ele>12.5</ele>
        <time>2023-10-11T12:56:09Z</time>
      </trkpt>
      <trkpt lat="49.12675" lon="-0.06687">
        <ele>12.4</ele>
        <time>2023-10-11T12:56:10Z</time>
      </trkpt>
      <trkpt lat="49.12668" lon="-0.06687">
        <ele>12.4</ele>
        <time>2023-10-11T12:56:11Z</time>
      </trkpt>
      <trkpt lat="49.1266" lon="-0.06687">
        <ele>12.4</ele>
        <time>2023-10-11T12:56:12Z</time>
      </trkpt>
      <trkpt lat="49.12653" lon="-0.06687">
        <ele>12.3</ele>
        <time>2023-10-11T12:56:13Z</time>
      </trkpt>
      <trkpt lat="49.12646" lon="-0.06688">
        <ele>12.3</ele>
        <time>2023-10-11T12:56:14Z</time>
      </trkpt>
      <trkpt lat="49.12638" lon="-0.06688">
        <ele>12.3</ele>
        <time>2023-10-11T12:56:15Z</time>
      </trkpt>
      <trkpt lat="49.12631" lon="-0.06688">
        <ele>12.3</ele>
        <time>2023-10-11T12:56:16Z</time>
      </trkpt>
      <trkpt lat="49.12623" lon="-0.06687">
        <ele>12.3</ele>
        <time>2023-10-11T12:56:17Z</time>
      </trkpt>
      <trkpt lat="49.12616" lon="-0.06687">
        <ele>12.2</ele>
        <time>2023-10-11T12:56:18Z</time>
      </trkpt>
      <trkpt lat="49.12608" lon="-0.06687">
        <ele>12.2</ele>
        <time>2023-10-11T12:56:19Z</time>
      </trkpt>
      <trkpt lat="49.12601" lon="-0.06687">
        <ele>12.2</ele>
        <time>2023-10-11T12:56:20Z</time>
      </trkpt>
      <trkpt lat="49.12593" lon="-0.06687">
        <ele>12.2</ele>
        <time>2023-10-11T12:56:21Z</time>
      </trkpt>
      <trkpt lat="49.12585" lon="-0.06687">
        <ele>12.2</ele>
        <time>2023-10-11T12:56:22Z</time>
      </trkpt>
      <trkpt lat="49.12578" lon="-0.06687">
        <ele>12.2</ele>
        <time>2023-10-11T12:56:23Z</time>
      </trkpt>
      <trkpt lat="49.1257" lon="-0.06687">
        <ele>12.2</ele>
        <time>2023-10-11T12:56:24Z</time>
      </trkpt>
      <trkpt lat="49.12562" lon="-0.06687">
        <ele>12.2</ele>
        <time>2023-10-11T12:56:25Z</time>
      </trkpt>
      <trkpt lat="49.12554" lon="-0.06687">
        <ele>12.2</ele>
        <time>2023-10-11T12:56:26Z</time>
      </trkpt>
      <trkpt lat="49.12547" lon="-0.06687">
        <ele>12.2</ele>
        <time>2023-10-11T12:56:27Z</time>
      </trkpt>
      <trkpt lat="49.12539" lon="-0.06687">
        <ele>12.1</ele>
        <time>2023-10-11T12:56:28Z</time>
      </trkpt>
      <trkpt lat="49.12531" lon="-0.06688">
        <ele>12.1</ele>
        <time>2023-10-11T12:56:29Z</time>
      </trkpt>
      <trkpt lat="49.12523" lon="-0.06688">
        <ele>12.1</ele>
        <time>2023-10-11T12:56:30Z</time>
      </trkpt>
      <trkpt lat="49.12516" lon="-0.06688">
        <ele>12.1</ele>
        <time>2023-10-11T12:56:31Z</time>
      </trkpt>
      <trkpt lat="49.12508" lon="-0.06689">
        <ele>12.1</ele>
        <time>2023-10-11T12:56:32Z</time>
      </trkpt>
      <trkpt lat="49.12501" lon="-0.06689">
        <ele>12.1</ele>
        <time>2023-10-11T12:56:33Z</time>
      </trkpt>
      <trkpt lat="49.12493" lon="-0.06689">
        <ele>12.1</ele>
        <time>2023-10-11T12:56:34Z</time>
      </trkpt>
      <trkpt lat="49.12485" lon="-0.06689">
        <ele>12.1</ele>
        <time>2023-10-11T12:56:35Z</time>
      </trkpt>
      <trkpt lat="49.12477" lon="-0.0669">
        <ele>12.1</ele>
        <time>2023-10-11T12:56:36Z</time>
      </trkpt>
      <trkpt lat="49.12469" lon="-0.0669">
        <ele>12.1</ele>
        <time>2023-10-11T12:56:37Z</time>
      </trkpt>
      <trkpt lat="49.12461" lon="-0.0669">
        <ele>12.1</ele>
        <time>2023-10-11T12:56:38Z</time>
      </trkpt>
      <trkpt lat="49.12454" lon="-0.0669">
        <ele>12.1</ele>
        <time>2023-10-11T12:56:39Z</time>
      </trkpt>
      <trkpt lat="49.12447" lon="-0.0669">
        <ele>12.1</ele>
        <time>2023-10-11T12:56:40Z</time>
      </trkpt>
      <trkpt lat="49.12439" lon="-0.0669">
        <ele>12.1</ele>
        <time>2023-10-11T12:56:41Z</time>
      </trkpt>
      <trkpt lat="49.12431" lon="-0.0669">
        <ele>12.1</ele>
        <time>2023-10-11T12:56:42Z</time>
      </trkpt>
      <trkpt lat="49.12424" lon="-0.0669">
        <ele>12.1</ele>
        <time>2023-10-11T12:56:43Z</time>
      </trkpt>
      <trkpt lat="49.12416" lon="-0.0669">
        <ele>12.1</ele>
        <time>2023-10-11T12:56:44Z</time>
      </trkpt>
      <trkpt lat="49.12408" lon="-0.0669">
        <ele>12.2</ele>
        <time>2023-10-11T12:56:45Z</time>
      </trkpt>
      <trkpt lat="49.12401" lon="-0.0669">
        <ele>12.2</ele>
        <time>2023-10-11T12:56:46Z</time>
      </trkpt>
      <trkpt lat="49.12393" lon="-0.0669">
        <ele>12.2</ele>
        <time>2023-10-11T12:56:47Z</time>
      </trkpt>
      <trkpt lat="49.12386" lon="-0.0669">
        <ele>12.3</ele>
        <time>2023-10-11T12:56:48Z</time>
      </trkpt>
      <trkpt lat="49.12378" lon="-0.0669">
        <ele>12.3</ele>
        <time>2023-10-11T12:56:49Z</time>
      </trkpt>
      <trkpt lat="49.1237" lon="-0.0669">
        <ele>12.3</ele>
        <time>2023-10-11T12:56:50Z</time>
      </trkpt>
      <trkpt lat="49.12363" lon="-0.0669">
        <ele>12.4</ele>
        <time>2023-10-11T12:56:51Z</time>
      </trkpt>
      <trkpt lat="49.12355" lon="-0.0669">
        <ele>12.4</ele>
        <time>2023-10-11T12:56:52Z</time>
      </trkpt>
      <trkpt lat="49.12347" lon="-0.0669">
        <ele>12.5</ele>
        <time>2023-10-11T12:56:53Z</time>
      </trkpt>
      <trkpt lat="49.12339" lon="-0.06691">
        <ele>12.5</ele>
        <time>2023-10-11T12:56:54Z</time>
      </trkpt>
      <trkpt lat="49.12332" lon="-0.06691">
        <ele>12.5</ele>
        <time>2023-10-11T12:56:55Z</time>
      </trkpt>
      <trkpt lat="49.12324" lon="-0.06691">
        <ele>12.6</ele>
        <time>2023-10-11T12:56:56Z</time>
      </trkpt>
      <trkpt lat="49.12317" lon="-0.06691">
        <ele>12.7</ele>
        <time>2023-10-11T12:56:57Z</time>
      </trkpt>
      <trkpt lat="49.12309" lon="-0.0669">
        <ele>12.7</ele>
        <time>2023-10-11T12:56:58Z</time>
      </trkpt>
      <trkpt lat="49.12302" lon="-0.0669">
        <ele>12.7</ele>
        <time>2023-10-11T12:56:59Z</time>
      </trkpt>
      <trkpt lat="49.12294" lon="-0.0669">
        <ele>12.7</ele>
        <time>2023-10-11T12:57:00Z</time>
      </trkpt>
      <trkpt lat="49.12287" lon="-0.06691">
        <ele>12.8</ele>
        <time>2023-10-11T12:57:01Z</time>
      </trkpt>
      <trkpt lat="49.1228" lon="-0.06691">
        <ele>12.8</ele>
        <time>2023-10-11T12:57:02Z</time>
      </trkpt>
      <trkpt lat="49.12272" lon="-0.0669">
        <ele>12.9</ele>
        <time>2023-10-11T12:57:03Z</time>
      </trkpt>
      <trkpt lat="49.12265" lon="-0.0669">
        <ele>12.9</ele>
        <time>2023-10-11T12:57:04Z</time>
      </trkpt>
      <trkpt lat="49.12258" lon="-0.06691">
        <ele>12.9</ele>
        <time>2023-10-11T12:57:05Z</time>
      </trkpt>
      <trkpt lat="49.12251" lon="-0.06691">
        <ele>12.9</ele>
        <time>2023-10-11T12:57:06Z</time>
      </trkpt>
      <trkpt lat="49.12244" lon="-0.06691">
        <ele>12.9</ele>
        <time>2023-10-11T12:57:07Z</time>
      </trkpt>
      <trkpt lat="49.12237" lon="-0.06691">
        <ele>12.9</ele>
        <time>2023-10-11T12:57:08Z</time>
      </trkpt>
      <trkpt lat="49.12231" lon="-0.06691">
        <ele>12.9</ele>
        <time>2023-10-11T12:57:09Z</time>
      </trkpt>
      <trkpt lat="49.12223" lon="-0.06691">
        <ele>12.9</ele>
        <time>2023-10-11T12:57:10Z</time>
      </trkpt>
      <trkpt lat="49.12216" lon="-0.06692">
        <ele>12.9</ele>
        <time>2023-10-11T12:57:11Z</time>
      </trkpt>
      <trkpt lat="49.12209" lon="-0.06693">
        <ele>12.9</ele>
        <time>2023-10-11T12:57:12Z</time>
      </trkpt>
      <trkpt lat="49.12202" lon="-0.06693">
        <ele>12.9</ele>
        <time>2023-10-11T12:57:13Z</time>
      </trkpt>
      <trkpt lat="49.12194" lon="-0.06692">
        <ele>12.8</ele>
        <time>2023-10-11T12:57:14Z</time>
      </trkpt>
      <trkpt lat="49.12187" lon="-0.06692">
        <ele>12.8</ele>
        <time>2023-10-11T12:57:15Z</time>
      </trkpt>
      <trkpt lat="49.12179" lon="-0.06693">
        <ele>12.8</ele>
        <time>2023-10-11T12:57:16Z</time>
      </trkpt>
      <trkpt lat="49.12172" lon="-0.06693">
        <ele>12.8</ele>
        <time>2023-10-11T12:57:17Z</time>
      </trkpt>
      <trkpt lat="49.12164" lon="-0.06693">
        <ele>12.8</ele>
        <time>2023-10-11T12:57:18Z</time>
      </trkpt>
      <trkpt lat="49.12157" lon="-0.06694">
        <ele>12.8</ele>
        <time>2023-10-11T12:57:19Z</time>
      </trkpt>
      <trkpt lat="49.1215" lon="-0.06696">
        <ele>12.7</ele>
        <time>2023-10-11T12:57:20Z</time>
      </trkpt>
      <trkpt lat="49.12142" lon="-0.06697">
        <ele>12.7</ele>
        <time>2023-10-11T12:57:21Z</time>
      </trkpt>
      <trkpt lat="49.12135" lon="-0.06698">
        <ele>12.7</ele>
        <time>2023-10-11T12:57:22Z</time>
      </trkpt>
      <trkpt lat="49.12128" lon="-0.067">
        <ele>12.7</ele>
        <time>2023-10-11T12:57:23Z</time>
      </trkpt>
      <trkpt lat="49.12121" lon="-0.06702">
        <ele>12.7</ele>
        <time>2023-10-11T12:57:24Z</time>
      </trkpt>
      <trkpt lat="49.12114" lon="-0.06705">
        <ele>12.7</ele>
        <time>2023-10-11T12:57:25Z</time>
      </trkpt>
      <trkpt lat="49.12107" lon="-0.06708">
        <ele>12.7</ele>
        <time>2023-10-11T12:57:26Z</time>
      </trkpt>
      <trkpt lat="49.121" lon="-0.06711">
        <ele>12.8</ele>
        <time>2023-10-11T12:57:27Z</time>
      </trkpt>
      <trkpt lat="49.12093" lon="-0.06713">
        <ele>12.8</ele>
        <time>2023-10-11T12:57:28Z</time>
      </trkpt>
      <trkpt lat="49.12086" lon="-0.06715">
        <ele>12.8</ele>
        <time>2023-10-11T12:57:29Z</time>
      </trkpt>
      <trkpt lat="49.1208" lon="-0.06717">
        <ele>12.9</ele>
        <time>2023-10-11T12:57:30Z</time>
      </trkpt>
      <trkpt lat="49.12073" lon="-0.0672">
        <ele>12.9</ele>
        <time>2023-10-11T12:57:31Z</time>
      </trkpt>
      <trkpt lat="49.12067" lon="-0.06722">
        <ele>13</ele>
        <time>2023-10-11T12:57:32Z</time>
      </trkpt>
      <trkpt lat="49.1206" lon="-0.06724">
        <ele>13.1</ele>
        <time>2023-10-11T12:57:33Z</time>
      </trkpt>
      <trkpt lat="49.12054" lon="-0.06726">
        <ele>13.2</ele>
        <time>2023-10-11T12:57:34Z</time>
      </trkpt>
      <trkpt lat="49.12047" lon="-0.06728">
        <ele>13.3</ele>
        <time>2023-10-11T12:57:35Z</time>
      </trkpt>
      <trkpt lat="49.12041" lon="-0.06731">
        <ele>13.4</ele>
        <time>2023-10-11T12:57:36Z</time>
      </trkpt>
      <trkpt lat="49.12035" lon="-0.06733">
        <ele>13.5</ele>
        <time>2023-10-11T12:57:37Z</time>
      </trkpt>
      <trkpt lat="49.12029" lon="-0.06735">
        <ele>13.6</ele>
        <time>2023-10-11T12:57:38Z</time>
      </trkpt>
      <trkpt lat="49.12024" lon="-0.06737">
        <ele>13.7</ele>
        <time>2023-10-11T12:57:39Z</time>
      </trkpt>
      <trkpt lat="49.12019" lon="-0.06739">
        <ele>13.8</ele>
        <time>2023-10-11T12:57:40Z</time>
      </trkpt>
      <trkpt lat="49.12013" lon="-0.06741">
        <ele>13.9</ele>
        <time>2023-10-11T12:57:41Z</time>
      </trkpt>
      <trkpt lat="49.12008" lon="-0.06743">
        <ele>14</ele>
        <time>2023-10-11T12:57:42Z</time>
      </trkpt>
      <trkpt lat="49.12003" lon="-0.06744">
        <ele>14.1</ele>
        <time>2023-10-11T12:57:43Z</time>
      </trkpt>
      <trkpt lat="49.11999" lon="-0.06746">
        <ele>14.2</ele>
        <time>2023-10-11T12:57:44Z</time>
      </trkpt>
      <trkpt lat="49.11996" lon="-0.06747">
        <ele>14.3</ele>
        <time>2023-10-11T12:57:45Z</time>
      </trkpt>
      <trkpt lat="49.11993" lon="-0.06749">
        <ele>14.3</ele>
        <time>2023-10-11T12:57:46Z</time>
      </trkpt>
      <trkpt lat="49.11992" lon="-0.06749">
        <ele>14.3</ele>
        <time>2023-10-11T12:57:47Z</time>
      </trkpt>
      <trkpt lat="49.11991" lon="-0.06749">
        <ele>14.4</ele>
        <time>2023-10-11T12:57:48Z</time>
      </trkpt>
      <trkpt lat="49.11989" lon="-0.06749">
        <ele>14.4</ele>
        <time>2023-10-11T12:57:49Z</time>
      </trkpt>
      <trkpt lat="49.11986" lon="-0.06747">
        <ele>14.5</ele>
        <time>2023-10-11T12:57:50Z</time>
      </trkpt>
      <trkpt lat="49.11985" lon="-0.06747">
        <ele>14.5</ele>
        <time>2023-10-11T12:57:51Z</time>
      </trkpt>
      <trkpt lat="49.11983" lon="-0.06743">
        <ele>14.4</ele>
        <time>2023-10-11T12:57:52Z</time>
      </trkpt>
      <trkpt lat="49.11982" lon="-0.06738">
        <ele>14.4</ele>
        <time>2023-10-11T12:57:53Z</time>
      </trkpt>
      <trkpt lat="49.1198" lon="-0.06732">
        <ele>14.3</ele>
        <time>2023-10-11T12:57:54Z</time>
      </trkpt>
      <trkpt lat="49.11979" lon="-0.06725">
        <ele>14.3</ele>
        <time>2023-10-11T12:57:55Z</time>
      </trkpt>
      <trkpt lat="49.11978" lon="-0.06718">
        <ele>14.3</ele>
        <time>2023-10-11T12:57:56Z</time>
      </trkpt>
      <trkpt lat="49.11977" lon="-0.06709">
        <ele>14.2</ele>
        <time>2023-10-11T12:57:57Z</time>
      </trkpt>
      <trkpt lat="49.11975" lon="-0.06701">
        <ele>14.2</ele>
        <time>2023-10-11T12:57:58Z</time>
      </trkpt>
      <trkpt lat="49.11974" lon="-0.06692">
        <ele>14.1</ele>
        <time>2023-10-11T12:57:59Z</time>
      </trkpt>
      <trkpt lat="49.11974" lon="-0.06682">
        <ele>14.1</ele>
        <time>2023-10-11T12:58:00Z</time>
      </trkpt>
      <trkpt lat="49.11974" lon="-0.06672">
        <ele>14.1</ele>
        <time>2023-10-11T12:58:01Z</time>
      </trkpt>
      <trkpt lat="49.11974" lon="-0.06662">
        <ele>14</ele>
        <time>2023-10-11T12:58:02Z</time>
      </trkpt>
      <trkpt lat="49.11973" lon="-0.06652">
        <ele>14</ele>
        <time>2023-10-11T12:58:03Z</time>
      </trkpt>
      <trkpt lat="49.11973" lon="-0.06641">
        <ele>13.9</ele>
        <time>2023-10-11T12:58:04Z</time>
      </trkpt>
      <trkpt lat="49.11972" lon="-0.06631">
        <ele>13.8</ele>
        <time>2023-10-11T12:58:05Z</time>
      </trkpt>
      <trkpt lat="49.11972" lon="-0.0662">
        <ele>13.8</ele>
        <time>2023-10-11T12:58:06Z</time>
      </trkpt>
      <trkpt lat="49.11972" lon="-0.06609">
        <ele>13.7</ele>
        <time>2023-10-11T12:58:07Z</time>
      </trkpt>
      <trkpt lat="49.11972" lon="-0.06598">
        <ele>13.7</ele>
        <time>2023-10-11T12:58:08Z</time>
      </trkpt>
      <trkpt lat="49.11972" lon="-0.06587">
        <ele>13.6</ele>
        <time>2023-10-11T12:58:09Z</time>
      </trkpt>
      <trkpt lat="49.11973" lon="-0.06577">
        <ele>13.5</ele>
        <time>2023-10-11T12:58:10Z</time>
      </trkpt>
      <trkpt lat="49.11973" lon="-0.06566">
        <ele>13.5</ele>
        <time>2023-10-11T12:58:11Z</time>
      </trkpt>
      <trkpt lat="49.11973" lon="-0.06556">
        <ele>13.4</ele>
        <time>2023-10-11T12:58:12Z</time>
      </trkpt>
      <trkpt lat="49.11974" lon="-0.06545">
        <ele>13.3</ele>
        <time>2023-10-11T12:58:13Z</time>
      </trkpt>
      <trkpt lat="49.11975" lon="-0.06534">
        <ele>13.2</ele>
        <time>2023-10-11T12:58:14Z</time>
      </trkpt>
      <trkpt lat="49.11976" lon="-0.06524">
        <ele>13.1</ele>
        <time>2023-10-11T12:58:15Z</time>
      </trkpt>
      <trkpt lat="49.11977" lon="-0.06513">
        <ele>13.1</ele>
        <time>2023-10-11T12:58:16Z</time>
      </trkpt>
      <trkpt lat="49.11978" lon="-0.06502">
        <ele>13</ele>
        <time>2023-10-11T12:58:17Z</time>
      </trkpt>
      <trkpt lat="49.11979" lon="-0.06491">
        <ele>12.9</ele>
        <time>2023-10-11T12:58:18Z</time>
      </trkpt>
      <trkpt lat="49.11981" lon="-0.06479">
        <ele>12.8</ele>
        <time>2023-10-11T12:58:19Z</time>
      </trkpt>
      <trkpt lat="49.11983" lon="-0.06468">
        <ele>12.7</ele>
        <time>2023-10-11T12:58:20Z</time>
      </trkpt>
      <trkpt lat="49.11984" lon="-0.06456">
        <ele>12.7</ele>
        <time>2023-10-11T12:58:21Z</time>
      </trkpt>
      <trkpt lat="49.11986" lon="-0.06444">
        <ele>12.6</ele>
        <time>2023-10-11T12:58:22Z</time>
      </trkpt>
      <trkpt lat="49.11988" lon="-0.06432">
        <ele>12.6</ele>
        <time>2023-10-11T12:58:23Z</time>
      </trkpt>
      <trkpt lat="49.11991" lon="-0.06419">
        <ele>12.4</ele>
        <time>2023-10-11T12:58:24Z</time>
      </trkpt>
      <trkpt lat="49.11993" lon="-0.06407">
        <ele>12.3</ele>
        <time>2023-10-11T12:58:25Z</time>
      </trkpt>
      <trkpt lat="49.11996" lon="-0.06395">
        <ele>12.2</ele>
        <time>2023-10-11T12:58:26Z</time>
      </trkpt>
      <trkpt lat="49.11998" lon="-0.06383">
        <ele>12.2</ele>
        <time>2023-10-11T12:58:27Z</time>
      </trkpt>
      <trkpt lat="49.12001" lon="-0.06371">
        <ele>12.1</ele>
        <time>2023-10-11T12:58:28Z</time>
      </trkpt>
      <trkpt lat="49.12004" lon="-0.06358">
        <ele>12</ele>
        <time>2023-10-11T12:58:29Z</time>
      </trkpt>
      <trkpt lat="49.12007" lon="-0.06345">
        <ele>11.9</ele>
        <time>2023-10-11T12:58:30Z</time>
      </trkpt>
      <trkpt lat="49.1201" lon="-0.06333">
        <ele>11.7</ele>
        <time>2023-10-11T12:58:31Z</time>
      </trkpt>
      <trkpt lat="49.12013" lon="-0.0632">
        <ele>11.6</ele>
        <time>2023-10-11T12:58:32Z</time>
      </trkpt>
      <trkpt lat="49.12016" lon="-0.06308">
        <ele>11.5</ele>
        <time>2023-10-11T12:58:33Z</time>
      </trkpt>
      <trkpt lat="49.12019" lon="-0.06295">
        <ele>11.3</ele>
        <time>2023-10-11T12:58:34Z</time>
      </trkpt>
      <trkpt lat="49.12022" lon="-0.06283">
        <ele>11.3</ele>
        <time>2023-10-11T12:58:35Z</time>
      </trkpt>
      <trkpt lat="49.12025" lon="-0.06271">
        <ele>11.2</ele>
        <time>2023-10-11T12:58:36Z</time>
      </trkpt>
      <trkpt lat="49.12028" lon="-0.06259">
        <ele>11.1</ele>
        <time>2023-10-11T12:58:37Z</time>
      </trkpt>
      <trkpt lat="49.1203" lon="-0.06248">
        <ele>11.1</ele>
        <time>2023-10-11T12:58:38Z</time>
      </trkpt>
      <trkpt lat="49.12033" lon="-0.06236">
        <ele>11</ele>
        <time>2023-10-11T12:58:39Z</time>
      </trkpt>
      <trkpt lat="49.12035" lon="-0.06224">
        <ele>10.9</ele>
        <time>2023-10-11T12:58:40Z</time>
      </trkpt>
      <trkpt lat="49.12038" lon="-0.06213">
        <ele>10.9</ele>
        <time>2023-10-11T12:58:41Z</time>
      </trkpt>
      <trkpt lat="49.12041" lon="-0.06201">
        <ele>10.8</ele>
        <time>2023-10-11T12:58:42Z</time>
      </trkpt>
      <trkpt lat="49.12043" lon="-0.06189">
        <ele>10.7</ele>
        <time>2023-10-11T12:58:43Z</time>
      </trkpt>
      <trkpt lat="49.12046" lon="-0.06177">
        <ele>10.7</ele>
        <time>2023-10-11T12:58:44Z</time>
      </trkpt>
      <trkpt lat="49.12049" lon="-0.06164">
        <ele>10.6</ele>
        <time>2023-10-11T12:58:45Z</time>
      </trkpt>
      <trkpt lat="49.12051" lon="-0.06152">
        <ele>10.6</ele>
        <time>2023-10-11T12:58:46Z</time>
      </trkpt>
      <trkpt lat="49.12054" lon="-0.0614">
        <ele>10.5</ele>
        <time>2023-10-11T12:58:47Z</time>
      </trkpt>
      <trkpt lat="49.12057" lon="-0.06128">
        <ele>10.5</ele>
        <time>2023-10-11T12:58:48Z</time>
      </trkpt>
      <trkpt lat="49.1206" lon="-0.06117">
        <ele>10.4</ele>
        <time>2023-10-11T12:58:49Z</time>
      </trkpt>
      <trkpt lat="49.12062" lon="-0.06105">
        <ele>10.4</ele>
        <time>2023-10-11T12:58:50Z</time>
      </trkpt>
      <trkpt lat="49.12065" lon="-0.06094">
        <ele>10.4</ele>
        <time>2023-10-11T12:58:51Z</time>
      </trkpt>
      <trkpt lat="49.12067" lon="-0.06082">
        <ele>10.3</ele>
        <time>2023-10-11T12:58:52Z</time>
      </trkpt>
      <trkpt lat="49.1207" lon="-0.0607">
        <ele>10.3</ele>
        <time>2023-10-11T12:58:53Z</time>
      </trkpt>
      <trkpt lat="49.12072" lon="-0.06059">
        <ele>10.3</ele>
        <time>2023-10-11T12:58:54Z</time>
      </trkpt>
      <trkpt lat="49.12075" lon="-0.06047">
        <ele>10.3</ele>
        <time>2023-10-11T12:58:55Z</time>
      </trkpt>
      <trkpt lat="49.12077" lon="-0.06035">
        <ele>10.3</ele>
        <time>2023-10-11T12:58:56Z</time>
      </trkpt>
      <trkpt lat="49.1208" lon="-0.06024">
        <ele>10.3</ele>
        <time>2023-10-11T12:58:57Z</time>
      </trkpt>
      <trkpt lat="49.12082" lon="-0.06012">
        <ele>10.2</ele>
        <time>2023-10-11T12:58:58Z</time>
      </trkpt>
      <trkpt lat="49.12085" lon="-0.06001">
        <ele>10.2</ele>
        <time>2023-10-11T12:58:59Z</time>
      </trkpt>
      <trkpt lat="49.12087" lon="-0.05989">
        <ele>10.1</ele>
        <time>2023-10-11T12:59:00Z</time>
      </trkpt>
      <trkpt lat="49.1209" lon="-0.05977">
        <ele>10.1</ele>
        <time>2023-10-11T12:59:01Z</time>
      </trkpt>
      <trkpt lat="49.12093" lon="-0.05966">
        <ele>10</ele>
        <time>2023-10-11T12:59:02Z</time>
      </trkpt>
      <trkpt lat="49.12095" lon="-0.05955">
        <ele>10</ele>
        <time>2023-10-11T12:59:03Z</time>
      </trkpt>
      <trkpt lat="49.12098" lon="-0.05944">
        <ele>10</ele>
        <time>2023-10-11T12:59:04Z</time>
      </trkpt>
      <trkpt lat="49.121" lon="-0.05932">
        <ele>10</ele>
        <time>2023-10-11T12:59:05Z</time>
      </trkpt>
      <trkpt lat="49.12103" lon="-0.0592">
        <ele>9.9</ele>
        <time>2023-10-11T12:59:06Z</time>
      </trkpt>
      <trkpt lat="49.12106" lon="-0.05908">
        <ele>9.9</ele>
        <time>2023-10-11T12:59:07Z</time>
      </trkpt>
      <trkpt lat="49.12108" lon="-0.05896">
        <ele>9.8</ele>
        <time>2023-10-11T12:59:08Z</time>
      </trkpt>
      <trkpt lat="49.12111" lon="-0.05884">
        <ele>9.8</ele>
        <time>2023-10-11T12:59:09Z</time>
      </trkpt>
      <trkpt lat="49.12114" lon="-0.05872">
        <ele>9.7</ele>
        <time>2023-10-11T12:59:10Z</time>
      </trkpt>
      <trkpt lat="49.12116" lon="-0.05861">
        <ele>9.7</ele>
        <time>2023-10-11T12:59:11Z</time>
      </trkpt>
      <trkpt lat="49.12119" lon="-0.0585">
        <ele>9.6</ele>
        <time>2023-10-11T12:59:12Z</time>
      </trkpt>
      <trkpt lat="49.12121" lon="-0.05838">
        <ele>9.6</ele>
        <time>2023-10-11T12:59:13Z</time>
      </trkpt>
      <trkpt lat="49.12124" lon="-0.05826">
        <ele>9.6</ele>
        <time>2023-10-11T12:59:14Z</time>
      </trkpt>
      <trkpt lat="49.12126" lon="-0.05814">
        <ele>9.6</ele>
        <time>2023-10-11T12:59:15Z</time>
      </trkpt>
      <trkpt lat="49.12129" lon="-0.05802">
        <ele>9.6</ele>
        <time>2023-10-11T12:59:16Z</time>
      </trkpt>
      <trkpt lat="49.12132" lon="-0.0579">
        <ele>9.6</ele>
        <time>2023-10-11T12:59:17Z</time>
      </trkpt>
      <trkpt lat="49.12135" lon="-0.05779">
        <ele>9.5</ele>
        <time>2023-10-11T12:59:18Z</time>
      </trkpt>
      <trkpt lat="49.12137" lon="-0.05768">
        <ele>9.5</ele>
        <time>2023-10-11T12:59:19Z</time>
      </trkpt>
      <trkpt lat="49.1214" lon="-0.05756">
        <ele>9.4</ele>
        <time>2023-10-11T12:59:20Z</time>
      </trkpt>
      <trkpt lat="49.12142" lon="-0.05745">
        <ele>9.4</ele>
        <time>2023-10-11T12:59:21Z</time>
      </trkpt>
      <trkpt lat="49.12144" lon="-0.05734">
        <ele>9.3</ele>
        <time>2023-10-11T12:59:22Z</time>
      </trkpt>
      <trkpt lat="49.12147" lon="-0.05723">
        <ele>9.3</ele>
        <time>2023-10-11T12:59:23Z</time>
      </trkpt>
      <trkpt lat="49.12149" lon="-0.05711">
        <ele>9.2</ele>
        <time>2023-10-11T12:59:24Z</time>
      </trkpt>
      <trkpt lat="49.12152" lon="-0.057">
        <ele>9.2</ele>
        <time>2023-10-11T12:59:25Z</time>
      </trkpt>
      <trkpt lat="49.12154" lon="-0.05688">
        <ele>9.1</ele>
        <time>2023-10-11T12:59:26Z</time>
      </trkpt>
      <trkpt lat="49.12157" lon="-0.05677">
        <ele>9</ele>
        <time>2023-10-11T12:59:27Z</time>
      </trkpt>
      <trkpt lat="49.12159" lon="-0.05666">
        <ele>9</ele>
        <time>2023-10-11T12:59:28Z</time>
      </trkpt>
      <trkpt lat="49.12162" lon="-0.05654">
        <ele>8.9</ele>
        <time>2023-10-11T12:59:29Z</time>
      </trkpt>
      <trkpt lat="49.12165" lon="-0.05643">
        <ele>8.9</ele>
        <time>2023-10-11T12:59:30Z</time>
      </trkpt>
      <trkpt lat="49.12167" lon="-0.05631">
        <ele>8.8</ele>
        <time>2023-10-11T12:59:31Z</time>
      </trkpt>
      <trkpt lat="49.1217" lon="-0.05619">
        <ele>8.8</ele>
        <time>2023-10-11T12:59:32Z</time>
      </trkpt>
      <trkpt lat="49.12172" lon="-0.05608">
        <ele>8.7</ele>
        <time>2023-10-11T12:59:33Z</time>
      </trkpt>
      <trkpt lat="49.12174" lon="-0.05597">
        <ele>8.7</ele>
        <time>2023-10-11T12:59:34Z</time>
      </trkpt>
      <trkpt lat="49.12177" lon="-0.05586">
        <ele>8.6</ele>
        <time>2023-10-11T12:59:35Z</time>
      </trkpt>
      <trkpt lat="49.12179" lon="-0.05575">
        <ele>8.6</ele>
        <time>2023-10-11T12:59:36Z</time>
      </trkpt>
      <trkpt lat="49.12182" lon="-0.05564">
        <ele>8.6</ele>
        <time>2023-10-11T12:59:37Z</time>
      </trkpt>
      <trkpt lat="49.12184" lon="-0.05553">
        <ele>8.5</ele>
        <time>2023-10-11T12:59:38Z</time>
      </trkpt>
      <trkpt lat="49.12187" lon="-0.05542">
        <ele>8.5</ele>
        <time>2023-10-11T12:59:39Z</time>
      </trkpt>
      <trkpt lat="49.1219" lon="-0.0553">
        <ele>8.4</ele>
        <time>2023-10-11T12:59:40Z</time>
      </trkpt>
      <trkpt lat="49.12192" lon="-0.05518">
        <ele>8.4</ele>
        <time>2023-10-11T12:59:41Z</time>
      </trkpt>
      <trkpt lat="49.12195" lon="-0.05506">
        <ele>8.3</ele>
        <time>2023-10-11T12:59:42Z</time>
      </trkpt>
      <trkpt lat="49.12197" lon="-0.05495">
        <ele>8.3</ele>
        <time>2023-10-11T12:59:43Z</time>
      </trkpt>
      <trkpt lat="49.122" lon="-0.05484">
        <ele>8.3</ele>
        <time>2023-10-11T12:59:44Z</time>
      </trkpt>
      <trkpt lat="49.12202" lon="-0.05473">
        <ele>8.3</ele>
        <time>2023-10-11T12:59:45Z</time>
      </trkpt>
      <trkpt lat="49.12205" lon="-0.05462">
        <ele>8.3</ele>
        <time>2023-10-11T12:59:46Z</time>
      </trkpt>
      <trkpt lat="49.12207" lon="-0.0545">
        <ele>8.2</ele>
        <time>2023-10-11T12:59:47Z</time>
      </trkpt>
      <trkpt lat="49.1221" lon="-0.05439">
        <ele>8.2</ele>
        <time>2023-10-11T12:59:48Z</time>
      </trkpt>
      <trkpt lat="49.12213" lon="-0.05428">
        <ele>8.2</ele>
        <time>2023-10-11T12:59:49Z</time>
      </trkpt>
      <trkpt lat="49.12216" lon="-0.05417">
        <ele>8.2</ele>
        <time>2023-10-11T12:59:50Z</time>
      </trkpt>
      <trkpt lat="49.12219" lon="-0.05406">
        <ele>8.2</ele>
        <time>2023-10-11T12:59:51Z</time>
      </trkpt>
      <trkpt lat="49.12223" lon="-0.05395">
        <ele>8.2</ele>
        <time>2023-10-11T12:59:52Z</time>
      </trkpt>
      <trkpt lat="49.12226" lon="-0.05385">
        <ele>8.2</ele>
        <time>2023-10-11T12:59:53Z</time>
      </trkpt>
      <trkpt lat="49.12229" lon="-0.05374">
        <ele>8.2</ele>
        <time>2023-10-11T12:59:54Z</time>
      </trkpt>
      <trkpt lat="49.12233" lon="-0.05364">
        <ele>8.1</ele>
        <time>2023-10-11T12:59:55Z</time>
      </trkpt>
      <trkpt lat="49.12236" lon="-0.05354">
        <ele>8.1</ele>
        <time>2023-10-11T12:59:56Z</time>
      </trkpt>
      <trkpt lat="49.1224" lon="-0.05344">
        <ele>8.1</ele>
        <time>2023-10-11T12:59:57Z</time>
      </trkpt>
      <trkpt lat="49.12244" lon="-0.05334">
        <ele>8.1</ele>
        <time>2023-10-11T12:59:58Z</time>
      </trkpt>
      <trkpt lat="49.12248" lon="-0.05324">
        <ele>8.1</ele>
        <time>2023-10-11T12:59:59Z</time>
      </trkpt>
      <trkpt lat="49.12252" lon="-0.05314">
        <ele>8.1</ele>
        <time>2023-10-11T13:00:00Z</time>
      </trkpt>
      <trkpt lat="49.12256" lon="-0.05305">
        <ele>8.1</ele>
        <time>2023-10-11T13:00:01Z</time>
      </trkpt>
      <trkpt lat="49.1226" lon="-0.05296">
        <ele>8.1</ele>
        <time>2023-10-11T13:00:02Z</time>
      </trkpt>
      <trkpt lat="49.12264" lon="-0.05286">
        <ele>8.1</ele>
        <time>2023-10-11T13:00:03Z</time>
      </trkpt>
      <trkpt lat="49.12268" lon="-0.05277">
        <ele>8.1</ele>
        <time>2023-10-11T13:00:04Z</time>
      </trkpt>
      <trkpt lat="49.12272" lon="-0.05268">
        <ele>8.2</ele>
        <time>2023-10-11T13:00:05Z</time>
      </trkpt>
      <trkpt lat="49.12277" lon="-0.05258">
        <ele>8.2</ele>
        <time>2023-10-11T13:00:06Z</time>
      </trkpt>
      <trkpt lat="49.12281" lon="-0.05249">
        <ele>8.3</ele>
        <time>2023-10-11T13:00:07Z</time>
      </trkpt>
      <trkpt lat="49.12285" lon="-0.0524">
        <ele>8.3</ele>
        <time>2023-10-11T13:00:08Z</time>
      </trkpt>
      <trkpt lat="49.1229" lon="-0.05232">
        <ele>8.4</ele>
        <time>2023-10-11T13:00:09Z</time>
      </trkpt>
      <trkpt lat="49.12294" lon="-0.05223">
        <ele>8.5</ele>
        <time>2023-10-11T13:00:10Z</time>
      </trkpt>
      <trkpt lat="49.12298" lon="-0.05214">
        <ele>8.6</ele>
        <time>2023-10-11T13:00:11Z</time>
      </trkpt>
      <trkpt lat="49.12299" lon="-0.05204">
        <ele>8.7</ele>
        <time>2023-10-11T13:00:12Z</time>
      </trkpt>
      <trkpt lat="49.12297" lon="-0.05194">
        <ele>8.6</ele>
        <time>2023-10-11T13:00:13Z</time>
      </trkpt>
      <trkpt lat="49.12292" lon="-0.05185">
        <ele>8.5</ele>
        <time>2023-10-11T13:00:14Z</time>
      </trkpt>
      <trkpt lat="49.12287" lon="-0.05178">
        <ele>8.4</ele>
        <time>2023-10-11T13:00:15Z</time>
      </trkpt>
      <trkpt lat="49.12281" lon="-0.05171">
        <ele>8.3</ele>
        <time>2023-10-11T13:00:16Z</time>
      </trkpt>
      <trkpt lat="49.12274" lon="-0.05167">
        <ele>8.2</ele>
        <time>2023-10-11T13:00:17Z</time>
      </trkpt>
      <trkpt lat="49.12265" lon="-0.05165">
        <ele>8.1</ele>
        <time>2023-10-11T13:00:18Z</time>
      </trkpt>
      <trkpt lat="49.12256" lon="-0.05165">
        <ele>8</ele>
        <time>2023-10-11T13:00:19Z</time>
      </trkpt>
      <trkpt lat="49.12247" lon="-0.05164">
        <ele>7.9</ele>
        <time>2023-10-11T13:00:20Z</time>
      </trkpt>
      <trkpt lat="49.12239" lon="-0.05163">
        <ele>7.9</ele>
        <time>2023-10-11T13:00:21Z</time>
      </trkpt>
      <trkpt lat="49.1223" lon="-0.05162">
        <ele>7.9</ele>
        <time>2023-10-11T13:00:22Z</time>
      </trkpt>
      <trkpt lat="49.12222" lon="-0.0516">
        <ele>7.9</ele>
        <time>2023-10-11T13:00:23Z</time>
      </trkpt>
      <trkpt lat="49.12214" lon="-0.05158">
        <ele>7.9</ele>
        <time>2023-10-11T13:00:24Z</time>
      </trkpt>
      <trkpt lat="49.12206" lon="-0.05157">
        <ele>7.9</ele>
        <time>2023-10-11T13:00:25Z</time>
      </trkpt>
      <trkpt lat="49.12198" lon="-0.05155">
        <ele>7.9</ele>
        <time>2023-10-11T13:00:26Z</time>
      </trkpt>
      <trkpt lat="49.1219" lon="-0.05153">
        <ele>7.9</ele>
        <time>2023-10-11T13:00:27Z</time>
      </trkpt>
      <trkpt lat="49.12183" lon="-0.05152">
        <ele>7.9</ele>
        <time>2023-10-11T13:00:28Z</time>
      </trkpt>
      <trkpt lat="49.12175" lon="-0.0515">
        <ele>7.9</ele>
        <time>2023-10-11T13:00:29Z</time>
      </trkpt>
      <trkpt lat="49.12167" lon="-0.05148">
        <ele>7.9</ele>
        <time>2023-10-11T13:00:30Z</time>
      </trkpt>
      <trkpt lat="49.1216" lon="-0.05147">
        <ele>7.9</ele>
        <time>2023-10-11T13:00:31Z</time>
      </trkpt>
      <trkpt lat="49.12153" lon="-0.05145">
        <ele>8</ele>
        <time>2023-10-11T13:00:32Z</time>
      </trkpt>
      <trkpt lat="49.12145" lon="-0.05144">
        <ele>8</ele>
        <time>2023-10-11T13:00:33Z</time>
      </trkpt>
      <trkpt lat="49.12138" lon="-0.05143">
        <ele>8</ele>
        <time>2023-10-11T13:00:34Z</time>
      </trkpt>
      <trkpt lat="49.1213" lon="-0.05141">
        <ele>8</ele>
        <time>2023-10-11T13:00:35Z</time>
      </trkpt>
      <trkpt lat="49.12123" lon="-0.0514">
        <ele>8</ele>
        <time>2023-10-11T13:00:36Z</time>
      </trkpt>
      <trkpt lat="49.12115" lon="-0.05138">
        <ele>8</ele>
        <time>2023-10-11T13:00:37Z</time>
      </trkpt>
      <trkpt lat="49.12108" lon="-0.05136">
        <ele>8</ele>
        <time>2023-10-11T13:00:38Z</time>
      </trkpt>
      <trkpt lat="49.12101" lon="-0.05134">
        <ele>8</ele>
        <time>2023-10-11T13:00:39Z</time>
      </trkpt>
      <trkpt lat="49.12093" lon="-0.05132">
        <ele>8</ele>
        <time>2023-10-11T13:00:40Z</time>
      </trkpt>
      <trkpt lat="49.12086" lon="-0.05131">
        <ele>8</ele>
        <time>2023-10-11T13:00:41Z</time>
      </trkpt>
      <trkpt lat="49.12079" lon="-0.05129">
        <ele>8.1</ele>
        <time>2023-10-11T13:00:42Z</time>
      </trkpt>
      <trkpt lat="49.12072" lon="-0.05128">
        <ele>8.1</ele>
        <time>2023-10-11T13:00:43Z</time>
      </trkpt>
      <trkpt lat="49.12064" lon="-0.05126">
        <ele>8.1</ele>
        <time>2023-10-11T13:00:44Z</time>
      </trkpt>
      <trkpt lat="49.12057" lon="-0.05124">
        <ele>8.2</ele>
        <time>2023-10-11T13:00:45Z</time>
      </trkpt>
      <trkpt lat="49.12049" lon="-0.05122">
        <ele>8.2</ele>
        <time>2023-10-11T13:00:46Z</time>
      </trkpt>
      <trkpt lat="49.12042" lon="-0.0512">
        <ele>8.2</ele>
        <time>2023-10-11T13:00:47Z</time>
      </trkpt>
      <trkpt lat="49.12035" lon="-0.05118">
        <ele>8.3</ele>
        <time>2023-10-11T13:00:48Z</time>
      </trkpt>
      <trkpt lat="49.12027" lon="-0.05117">
        <ele>8.3</ele>
        <time>2023-10-11T13:00:49Z</time>
      </trkpt>
      <trkpt lat="49.1202" lon="-0.05115">
        <ele>8.3</ele>
        <time>2023-10-11T13:00:50Z</time>
      </trkpt>
      <trkpt lat="49.12013" lon="-0.05114">
        <ele>8.3</ele>
        <time>2023-10-11T13:00:51Z</time>
      </trkpt>
      <trkpt lat="49.12006" lon="-0.05112">
        <ele>8.3</ele>
        <time>2023-10-11T13:00:52Z</time>
      </trkpt>
      <trkpt lat="49.11998" lon="-0.0511">
        <ele>8.3</ele>
        <time>2023-10-11T13:00:53Z</time>
      </trkpt>
      <trkpt lat="49.11991" lon="-0.05108">
        <ele>8.3</ele>
        <time>2023-10-11T13:00:54Z</time>
      </trkpt>
      <trkpt lat="49.11984" lon="-0.05107">
        <ele>8.3</ele>
        <time>2023-10-11T13:00:55Z</time>
      </trkpt>
      <trkpt lat="49.11977" lon="-0.05104">
        <ele>8.3</ele>
        <time>2023-10-11T13:00:56Z</time>
      </trkpt>
      <trkpt lat="49.1197" lon="-0.05102">
        <ele>8.3</ele>
        <time>2023-10-11T13:00:57Z</time>
      </trkpt>
      <trkpt lat="49.11963" lon="-0.051">
        <ele>8.4</ele>
        <time>2023-10-11T13:00:58Z</time>
      </trkpt>
      <trkpt lat="49.11955" lon="-0.05098">
        <ele>8.4</ele>
        <time>2023-10-11T13:00:59Z</time>
      </trkpt>
      <trkpt lat="49.11948" lon="-0.05096">
        <ele>8.4</ele>
        <time>2023-10-11T13:01:00Z</time>
      </trkpt>
      <trkpt lat="49.11941" lon="-0.05093">
        <ele>8.5</ele>
        <time>2023-10-11T13:01:01Z</time>
      </trkpt>
      <trkpt lat="49.11934" lon="-0.05091">
        <ele>8.5</ele>
        <time>2023-10-11T13:01:02Z</time>
      </trkpt>
      <trkpt lat="49.11926" lon="-0.05088">
        <ele>8.6</ele>
        <time>2023-10-11T13:01:03Z</time>
      </trkpt>
      <trkpt lat="49.11919" lon="-0.05086">
        <ele>8.7</ele>
        <time>2023-10-11T13:01:04Z</time>
      </trkpt>
      <trkpt lat="49.11912" lon="-0.05084">
        <ele>8.7</ele>
        <time>2023-10-11T13:01:05Z</time>
      </trkpt>
      <trkpt lat="49.11904" lon="-0.05082">
        <ele>8.8</ele>
        <time>2023-10-11T13:01:06Z</time>
      </trkpt>
      <trkpt lat="49.11897" lon="-0.0508">
        <ele>8.8</ele>
        <time>2023-10-11T13:01:07Z</time>
      </trkpt>
      <trkpt lat="49.1189" lon="-0.05078">
        <ele>8.9</ele>
        <time>2023-10-11T13:01:08Z</time>
      </trkpt>
      <trkpt lat="49.11882" lon="-0.05076">
        <ele>8.9</ele>
        <time>2023-10-11T13:01:09Z</time>
      </trkpt>
      <trkpt lat="49.11875" lon="-0.05074">
        <ele>8.9</ele>
        <time>2023-10-11T13:01:10Z</time>
      </trkpt>
      <trkpt lat="49.11868" lon="-0.05072">
        <ele>8.9</ele>
        <time>2023-10-11T13:01:11Z</time>
      </trkpt>
      <trkpt lat="49.1186" lon="-0.0507">
        <ele>8.8</ele>
        <time>2023-10-11T13:01:12Z</time>
      </trkpt>
      <trkpt lat="49.11853" lon="-0.05068">
        <ele>8.8</ele>
        <time>2023-10-11T13:01:13Z</time>
      </trkpt>
      <trkpt lat="49.11845" lon="-0.05066">
        <ele>8.8</ele>
        <time>2023-10-11T13:01:14Z</time>
      </trkpt>
      <trkpt lat="49.11838" lon="-0.05064">
        <ele>8.8</ele>
        <time>2023-10-11T13:01:15Z</time>
      </trkpt>
      <trkpt lat="49.1183" lon="-0.05063">
        <ele>8.8</ele>
        <time>2023-10-11T13:01:16Z</time>
      </trkpt>
      <trkpt lat="49.11823" lon="-0.0506">
        <ele>8.7</ele>
        <time>2023-10-11T13:01:17Z</time>
      </trkpt>
      <trkpt lat="49.11815" lon="-0.05059">
        <ele>8.7</ele>
        <time>2023-10-11T13:01:18Z</time>
      </trkpt>
      <trkpt lat="49.11808" lon="-0.05057">
        <ele>8.7</ele>
        <time>2023-10-11T13:01:19Z</time>
      </trkpt>
      <trkpt lat="49.118" lon="-0.05055">
        <ele>8.7</ele>
        <time>2023-10-11T13:01:20Z</time>
      </trkpt>
      <trkpt lat="49.11793" lon="-0.05054">
        <ele>8.7</ele>
        <time>2023-10-11T13:01:21Z</time>
      </trkpt>
      <trkpt lat="49.11786" lon="-0.05052">
        <ele>8.7</ele>
        <time>2023-10-11T13:01:22Z</time>
      </trkpt>
      <trkpt lat="49.11779" lon="-0.0505">
        <ele>8.7</ele>
        <time>2023-10-11T13:01:23Z</time>
      </trkpt>
      <trkpt lat="49.11772" lon="-0.05049">
        <ele>8.8</ele>
        <time>2023-10-11T13:01:24Z</time>
      </trkpt>
      <trkpt lat="49.11765" lon="-0.05047">
        <ele>8.8</ele>
        <time>2023-10-11T13:01:25Z</time>
      </trkpt>
      <trkpt lat="49.11758" lon="-0.05045">
        <ele>8.8</ele>
        <time>2023-10-11T13:01:26Z</time>
      </trkpt>
      <trkpt lat="49.11751" lon="-0.05043">
        <ele>8.8</ele>
        <time>2023-10-11T13:01:27Z</time>
      </trkpt>
      <trkpt lat="49.11744" lon="-0.05041">
        <ele>8.8</ele>
        <time>2023-10-11T13:01:28Z</time>
      </trkpt>
      <trkpt lat="49.11737" lon="-0.05039">
        <ele>8.8</ele>
        <time>2023-10-11T13:01:29Z</time>
      </trkpt>
      <trkpt lat="49.1173" lon="-0.05038">
        <ele>8.8</ele>
        <time>2023-10-11T13:01:30Z</time>
      </trkpt>
      <trkpt lat="49.11723" lon="-0.05036">
        <ele>8.8</ele>
        <time>2023-10-11T13:01:31Z</time>
      </trkpt>
      <trkpt lat="49.11716" lon="-0.05035">
        <ele>8.8</ele>
        <time>2023-10-11T13:01:32Z</time>
      </trkpt>
      <trkpt lat="49.11709" lon="-0.05033">
        <ele>8.8</ele>
        <time>2023-10-11T13:01:33Z</time>
      </trkpt>
      <trkpt lat="49.11702" lon="-0.05031">
        <ele>8.7</ele>
        <time>2023-10-11T13:01:34Z</time>
      </trkpt>
      <trkpt lat="49.11694" lon="-0.05029">
        <ele>8.7</ele>
        <time>2023-10-11T13:01:35Z</time>
      </trkpt>
      <trkpt lat="49.11686" lon="-0.05028">
        <ele>8.7</ele>
        <time>2023-10-11T13:01:36Z</time>
      </trkpt>
      <trkpt lat="49.11679" lon="-0.05026">
        <ele>8.6</ele>
        <time>2023-10-11T13:01:37Z</time>
      </trkpt>
      <trkpt lat="49.11671" lon="-0.05024">
        <ele>8.6</ele>
        <time>2023-10-11T13:01:38Z</time>
      </trkpt>
      <trkpt lat="49.11663" lon="-0.05022">
        <ele>8.6</ele>
        <time>2023-10-11T13:01:39Z</time>
      </trkpt>
      <trkpt lat="49.11655" lon="-0.05021">
        <ele>8.6</ele>
        <time>2023-10-11T13:01:40Z</time>
      </trkpt>
      <trkpt lat="49.11648" lon="-0.05019">
        <ele>8.6</ele>
        <time>2023-10-11T13:01:41Z</time>
      </trkpt>
      <trkpt lat="49.1164" lon="-0.05017">
        <ele>8.6</ele>
        <time>2023-10-11T13:01:42Z</time>
      </trkpt>
      <trkpt lat="49.11633" lon="-0.05015">
        <ele>8.6</ele>
        <time>2023-10-11T13:01:43Z</time>
      </trkpt>
      <trkpt lat="49.11625" lon="-0.05013">
        <ele>8.6</ele>
        <time>2023-10-11T13:01:44Z</time>
      </trkpt>
      <trkpt lat="49.11618" lon="-0.05011">
        <ele>8.6</ele>
        <time>2023-10-11T13:01:45Z</time>
      </trkpt>
      <trkpt lat="49.1161" lon="-0.05008">
        <ele>8.6</ele>
        <time>2023-10-11T13:01:46Z</time>
      </trkpt>
      <trkpt lat="49.11603" lon="-0.05006">
        <ele>8.6</ele>
        <time>2023-10-11T13:01:47Z</time>
      </trkpt>
      <trkpt lat="49.11595" lon="-0.05004">
        <ele>8.6</ele>
        <time>2023-10-11T13:01:48Z</time>
      </trkpt>
      <trkpt lat="49.11588" lon="-0.05002">
        <ele>8.6</ele>
        <time>2023-10-11T13:01:49Z</time>
      </trkpt>
      <trkpt lat="49.1158" lon="-0.05">
        <ele>8.6</ele>
        <time>2023-10-11T13:01:50Z</time>
      </trkpt>
      <trkpt lat="49.11573" lon="-0.04998">
        <ele>8.6</ele>
        <time>2023-10-11T13:01:51Z</time>
      </trkpt>
      <trkpt lat="49.11565" lon="-0.04995">
        <ele>8.6</ele>
        <time>2023-10-11T13:01:52Z</time>
      </trkpt>
      <trkpt lat="49.11558" lon="-0.04994">
        <ele>8.6</ele>
        <time>2023-10-11T13:01:53Z</time>
      </trkpt>
      <trkpt lat="49.1155" lon="-0.04992">
        <ele>8.6</ele>
        <time>2023-10-11T13:01:54Z</time>
      </trkpt>
      <trkpt lat="49.11543" lon="-0.0499">
        <ele>8.6</ele>
        <time>2023-10-11T13:01:55Z</time>
      </trkpt>
      <trkpt lat="49.11535" lon="-0.04987">
        <ele>8.6</ele>
        <time>2023-10-11T13:01:56Z</time>
      </trkpt>
      <trkpt lat="49.11528" lon="-0.04985">
        <ele>8.6</ele>
        <time>2023-10-11T13:01:57Z</time>
      </trkpt>
      <trkpt lat="49.11521" lon="-0.04983">
        <ele>8.6</ele>
        <time>2023-10-11T13:01:58Z</time>
      </trkpt>
      <trkpt lat="49.11513" lon="-0.04981">
        <ele>8.6</ele>
        <time>2023-10-11T13:01:59Z</time>
      </trkpt>
      <trkpt lat="49.11506" lon="-0.04979">
        <ele>8.6</ele>
        <time>2023-10-11T13:02:00Z</time>
      </trkpt>
      <trkpt lat="49.11498" lon="-0.04977">
        <ele>8.6</ele>
        <time>2023-10-11T13:02:01Z</time>
      </trkpt>
      <trkpt lat="49.11491" lon="-0.04974">
        <ele>8.6</ele>
        <time>2023-10-11T13:02:02Z</time>
      </trkpt>
      <trkpt lat="49.11483" lon="-0.04972">
        <ele>8.6</ele>
        <time>2023-10-11T13:02:03Z</time>
      </trkpt>
      <trkpt lat="49.11476" lon="-0.0497">
        <ele>8.7</ele>
        <time>2023-10-11T13:02:04Z</time>
      </trkpt>
      <trkpt lat="49.11468" lon="-0.04968">
        <ele>8.7</ele>
        <time>2023-10-11T13:02:05Z</time>
      </trkpt>
      <trkpt lat="49.11461" lon="-0.04966">
        <ele>8.7</ele>
        <time>2023-10-11T13:02:06Z</time>
      </trkpt>
      <trkpt lat="49.11453" lon="-0.04964">
        <ele>8.7</ele>
        <time>2023-10-11T13:02:07Z</time>
      </trkpt>
      <trkpt lat="49.11445" lon="-0.04962">
        <ele>8.7</ele>
        <time>2023-10-11T13:02:08Z</time>
      </trkpt>
      <trkpt lat="49.11438" lon="-0.0496">
        <ele>8.7</ele>
        <time>2023-10-11T13:02:09Z</time>
      </trkpt>
      <trkpt lat="49.11431" lon="-0.04958">
        <ele>8.7</ele>
        <time>2023-10-11T13:02:10Z</time>
      </trkpt>
      <trkpt lat="49.11423" lon="-0.04956">
        <ele>8.8</ele>
        <time>2023-10-11T13:02:11Z</time>
      </trkpt>
      <trkpt lat="49.11416" lon="-0.04955">
        <ele>8.8</ele>
        <time>2023-10-11T13:02:12Z</time>
      </trkpt>
      <trkpt lat="49.11408" lon="-0.04953">
        <ele>8.8</ele>
        <time>2023-10-11T13:02:13Z</time>
      </trkpt>
      <trkpt lat="49.11401" lon="-0.04951">
        <ele>8.8</ele>
        <time>2023-10-11T13:02:14Z</time>
      </trkpt>
      <trkpt lat="49.11393" lon="-0.0495">
        <ele>8.8</ele>
        <time>2023-10-11T13:02:15Z</time>
      </trkpt>
      <trkpt lat="49.11386" lon="-0.04948">
        <ele>8.8</ele>
        <time>2023-10-11T13:02:16Z</time>
      </trkpt>
      <trkpt lat="49.11379" lon="-0.04947">
        <ele>8.9</ele>
        <time>2023-10-11T13:02:17Z</time>
      </trkpt>
      <trkpt lat="49.11371" lon="-0.04945">
        <ele>8.9</ele>
        <time>2023-10-11T13:02:18Z</time>
      </trkpt>
      <trkpt lat="49.11364" lon="-0.04944">
        <ele>8.9</ele>
        <time>2023-10-11T13:02:19Z</time>
      </trkpt>
      <trkpt lat="49.11357" lon="-0.04943">
        <ele>9</ele>
        <time>2023-10-11T13:02:20Z</time>
      </trkpt>
      <trkpt lat="49.1135" lon="-0.04942">
        <ele>9</ele>
        <time>2023-10-11T13:02:21Z</time>
      </trkpt>
      <trkpt lat="49.11342" lon="-0.04941">
        <ele>9</ele>
        <time>2023-10-11T13:02:22Z</time>
      </trkpt>
      <trkpt lat="49.11335" lon="-0.0494">
        <ele>9</ele>
        <time>2023-10-11T13:02:23Z</time>
      </trkpt>
      <trkpt lat="49.11328" lon="-0.04939">
        <ele>9.1</ele>
        <time>2023-10-11T13:02:24Z</time>
      </trkpt>
      <trkpt lat="49.1132" lon="-0.04938">
        <ele>9.2</ele>
        <time>2023-10-11T13:02:25Z</time>
      </trkpt>
      <trkpt lat="49.11313" lon="-0.04937">
        <ele>9.3</ele>
        <time>2023-10-11T13:02:26Z</time>
      </trkpt>
      <trkpt lat="49.11306" lon="-0.04936">
        <ele>9.3</ele>
        <time>2023-10-11T13:02:27Z</time>
      </trkpt>
      <trkpt lat="49.11299" lon="-0.04934">
        <ele>9.3</ele>
        <time>2023-10-11T13:02:28Z</time>
      </trkpt>
      <trkpt lat="49.11292" lon="-0.04932">
        <ele>9.3</ele>
        <time>2023-10-11T13:02:29Z</time>
      </trkpt>
      <trkpt lat="49.11285" lon="-0.04931">
        <ele>9.4</ele>
        <time>2023-10-11T13:02:30Z</time>
      </trkpt>
      <trkpt lat="49.11278" lon="-0.04929">
        <ele>9.4</ele>
        <time>2023-10-11T13:02:31Z</time>
      </trkpt>
      <trkpt lat="49.11271" lon="-0.04927">
        <ele>9.4</ele>
        <time>2023-10-11T13:02:32Z</time>
      </trkpt>
      <trkpt lat="49.11265" lon="-0.04925">
        <ele>9.5</ele>
        <time>2023-10-11T13:02:33Z</time>
      </trkpt>
      <trkpt lat="49.11258" lon="-0.04924">
        <ele>9.5</ele>
        <time>2023-10-11T13:02:34Z</time>
      </trkpt>
      <trkpt lat="49.11251" lon="-0.04922">
        <ele>9.5</ele>
        <time>2023-10-11T13:02:35Z</time>
      </trkpt>
      <trkpt lat="49.11244" lon="-0.0492">
        <ele>9.5</ele>
        <time>2023-10-11T13:02:36Z</time>
      </trkpt>
      <trkpt lat="49.11237" lon="-0.04919">
        <ele>9.5</ele>
        <time>2023-10-11T13:02:37Z</time>
      </trkpt>
      <trkpt lat="49.1123" lon="-0.04918">
        <ele>9.5</ele>
        <time>2023-10-11T13:02:38Z</time>
      </trkpt>
      <trkpt lat="49.11223" lon="-0.04916">
        <ele>9.5</ele>
        <time>2023-10-11T13:02:39Z</time>
      </trkpt>
      <trkpt lat="49.11217" lon="-0.04915">
        <ele>9.6</ele>
        <time>2023-10-11T13:02:40Z</time>
      </trkpt>
      <trkpt lat="49.1121" lon="-0.04913">
        <ele>9.6</ele>
        <time>2023-10-11T13:02:41Z</time>
      </trkpt>
      <trkpt lat="49.11203" lon="-0.04911">
        <ele>9.6</ele>
        <time>2023-10-11T13:02:42Z</time>
      </trkpt>
      <trkpt lat="49.11197" lon="-0.04909">
        <ele>9.6</ele>
        <time>2023-10-11T13:02:43Z</time>
      </trkpt>
      <trkpt lat="49.1119" lon="-0.04907">
        <ele>9.7</ele>
        <time>2023-10-11T13:02:44Z</time>
      </trkpt>
      <trkpt lat="49.11182" lon="-0.04905">
        <ele>9.7</ele>
        <time>2023-10-11T13:02:45Z</time>
      </trkpt>
      <trkpt lat="49.11175" lon="-0.04903">
        <ele>9.8</ele>
        <time>2023-10-11T13:02:46Z</time>
      </trkpt>
      <trkpt lat="49.11168" lon="-0.04902">
        <ele>9.8</ele>
        <time>2023-10-11T13:02:47Z</time>
      </trkpt>
      <trkpt lat="49.11161" lon="-0.049">
        <ele>9.8</ele>
        <time>2023-10-11T13:02:48Z</time>
      </trkpt>
      <trkpt lat="49.11154" lon="-0.04898">
        <ele>9.8</ele>
        <time>2023-10-11T13:02:49Z</time>
      </trkpt>
      <trkpt lat="49.11147" lon="-0.04896">
        <ele>9.9</ele>
        <time>2023-10-11T13:02:50Z</time>
      </trkpt>
      <trkpt lat="49.1114" lon="-0.04894">
        <ele>9.9</ele>
        <time>2023-10-11T13:02:51Z</time>
      </trkpt>
      <trkpt lat="49.11133" lon="-0.04893">
        <ele>9.9</ele>
        <time>2023-10-11T13:02:52Z</time>
      </trkpt>
      <trkpt lat="49.11126" lon="-0.04891">
        <ele>9.9</ele>
        <time>2023-10-11T13:02:53Z</time>
      </trkpt>
      <trkpt lat="49.11119" lon="-0.0489">
        <ele>9.9</ele>
        <time>2023-10-11T13:02:54Z</time>
      </trkpt>
      <trkpt lat="49.11112" lon="-0.04888">
        <ele>9.9</ele>
        <time>2023-10-11T13:02:55Z</time>
      </trkpt>
      <trkpt lat="49.11105" lon="-0.04886">
        <ele>9.9</ele>
        <time>2023-10-11T13:02:56Z</time>
      </trkpt>
      <trkpt lat="49.11097" lon="-0.04885">
        <ele>9.9</ele>
        <time>2023-10-11T13:02:57Z</time>
      </trkpt>
      <trkpt lat="49.1109" lon="-0.04883">
        <ele>9.9</ele>
        <time>2023-10-11T13:02:58Z</time>
      </trkpt>
      <trkpt lat="49.11083" lon="-0.04881">
        <ele>9.9</ele>
        <time>2023-10-11T13:02:59Z</time>
      </trkpt>
      <trkpt lat="49.11075" lon="-0.0488">
        <ele>9.9</ele>
        <time>2023-10-11T13:03:00Z</time>
      </trkpt>
      <trkpt lat="49.11068" lon="-0.04878">
        <ele>10</ele>
        <time>2023-10-11T13:03:01Z</time>
      </trkpt>
      <trkpt lat="49.1106" lon="-0.04876">
        <ele>10</ele>
        <time>2023-10-11T13:03:02Z</time>
      </trkpt>
      <trkpt lat="49.11053" lon="-0.04875">
        <ele>10</ele>
        <time>2023-10-11T13:03:03Z</time>
      </trkpt>
      <trkpt lat="49.11045" lon="-0.04873">
        <ele>10.1</ele>
        <time>2023-10-11T13:03:04Z</time>
      </trkpt>
      <trkpt lat="49.11038" lon="-0.04871">
        <ele>10.1</ele>
        <time>2023-10-11T13:03:05Z</time>
      </trkpt>
      <trkpt lat="49.11031" lon="-0.0487">
        <ele>10.2</ele>
        <time>2023-10-11T13:03:06Z</time>
      </trkpt>
      <trkpt lat="49.11023" lon="-0.04868">
        <ele>10.3</ele>
        <time>2023-10-11T13:03:07Z</time>
      </trkpt>
      <trkpt lat="49.11016" lon="-0.04865">
        <ele>10.3</ele>
        <time>2023-10-11T13:03:08Z</time>
      </trkpt>
      <trkpt lat="49.11009" lon="-0.04863">
        <ele>10.3</ele>
        <time>2023-10-11T13:03:09Z</time>
      </trkpt>
      <trkpt lat="49.11001" lon="-0.04862">
        <ele>10.3</ele>
        <time>2023-10-11T13:03:10Z</time>
      </trkpt>
      <trkpt lat="49.10993" lon="-0.0486">
        <ele>10.4</ele>
        <time>2023-10-11T13:03:11Z</time>
      </trkpt>
      <trkpt lat="49.10986" lon="-0.04858">
        <ele>10.4</ele>
        <time>2023-10-11T13:03:12Z</time>
      </trkpt>
      <trkpt lat="49.10978" lon="-0.04855">
        <ele>10.4</ele>
        <time>2023-10-11T13:03:13Z</time>
      </trkpt>
      <trkpt lat="49.1097" lon="-0.04853">
        <ele>10.4</ele>
        <time>2023-10-11T13:03:14Z</time>
      </trkpt>
      <trkpt lat="49.10963" lon="-0.04851">
        <ele>10.4</ele>
        <time>2023-10-11T13:03:15Z</time>
      </trkpt>
      <trkpt lat="49.10956" lon="-0.04849">
        <ele>10.5</ele>
        <time>2023-10-11T13:03:16Z</time>
      </trkpt>
      <trkpt lat="49.10948" lon="-0.04848">
        <ele>10.5</ele>
        <time>2023-10-11T13:03:17Z</time>
      </trkpt>
      <trkpt lat="49.10941" lon="-0.04846">
        <ele>10.5</ele>
        <time>2023-10-11T13:03:18Z</time>
      </trkpt>
      <trkpt lat="49.10933" lon="-0.04844">
        <ele>10.5</ele>
        <time>2023-10-11T13:03:19Z</time>
      </trkpt>
      <trkpt lat="49.10926" lon="-0.04843">
        <ele>10.5</ele>
        <time>2023-10-11T13:03:20Z</time>
      </trkpt>
      <trkpt lat="49.10918" lon="-0.04841">
        <ele>10.5</ele>
        <time>2023-10-11T13:03:21Z</time>
      </trkpt>
      <trkpt lat="49.10911" lon="-0.0484">
        <ele>10.5</ele>
        <time>2023-10-11T13:03:22Z</time>
      </trkpt>
      <trkpt lat="49.10903" lon="-0.04839">
        <ele>10.6</ele>
        <time>2023-10-11T13:03:23Z</time>
      </trkpt>
      <trkpt lat="49.10896" lon="-0.04837">
        <ele>10.6</ele>
        <time>2023-10-11T13:03:24Z</time>
      </trkpt>
      <trkpt lat="49.10889" lon="-0.04836">
        <ele>10.6</ele>
        <time>2023-10-11T13:03:25Z</time>
      </trkpt>
      <trkpt lat="49.10881" lon="-0.04835">
        <ele>10.6</ele>
        <time>2023-10-11T13:03:26Z</time>
      </trkpt>
      <trkpt lat="49.10874" lon="-0.04834">
        <ele>10.6</ele>
        <time>2023-10-11T13:03:27Z</time>
      </trkpt>
      <trkpt lat="49.10866" lon="-0.04832">
        <ele>10.6</ele>
        <time>2023-10-11T13:03:28Z</time>
      </trkpt>
      <trkpt lat="49.10859" lon="-0.04831">
        <ele>10.6</ele>
        <time>2023-10-11T13:03:29Z</time>
      </trkpt>
      <trkpt lat="49.10852" lon="-0.0483">
        <ele>10.6</ele>
        <time>2023-10-11T13:03:30Z</time>
      </trkpt>
      <trkpt lat="49.10845" lon="-0.04828">
        <ele>10.6</ele>
        <time>2023-10-11T13:03:31Z</time>
      </trkpt>
      <trkpt lat="49.10838" lon="-0.04827">
        <ele>10.7</ele>
        <time>2023-10-11T13:03:32Z</time>
      </trkpt>
      <trkpt lat="49.10831" lon="-0.04825">
        <ele>10.7</ele>
        <time>2023-10-11T13:03:33Z</time>
      </trkpt>
      <trkpt lat="49.10825" lon="-0.04824">
        <ele>10.6</ele>
        <time>2023-10-11T13:03:34Z</time>
      </trkpt>
      <trkpt lat="49.10818" lon="-0.04822">
        <ele>10.6</ele>
        <time>2023-10-11T13:03:35Z</time>
      </trkpt>
      <trkpt lat="49.10811" lon="-0.0482">
        <ele>10.6</ele>
        <time>2023-10-11T13:03:36Z</time>
      </trkpt>
      <trkpt lat="49.10804" lon="-0.04819">
        <ele>10.6</ele>
        <time>2023-10-11T13:03:37Z</time>
      </trkpt>
      <trkpt lat="49.10797" lon="-0.04817">
        <ele>10.6</ele>
        <time>2023-10-11T13:03:38Z</time>
      </trkpt>
      <trkpt lat="49.1079" lon="-0.04815">
        <ele>10.7</ele>
        <time>2023-10-11T13:03:39Z</time>
      </trkpt>
      <trkpt lat="49.10782" lon="-0.04813">
        <ele>10.7</ele>
        <time>2023-10-11T13:03:40Z</time>
      </trkpt>
      <trkpt lat="49.10775" lon="-0.04811">
        <ele>10.7</ele>
        <time>2023-10-11T13:03:41Z</time>
      </trkpt>
      <trkpt lat="49.10768" lon="-0.04809">
        <ele>10.7</ele>
        <time>2023-10-11T13:03:42Z</time>
      </trkpt>
      <trkpt lat="49.1076" lon="-0.04807">
        <ele>10.8</ele>
        <time>2023-10-11T13:03:43Z</time>
      </trkpt>
      <trkpt lat="49.10753" lon="-0.04805">
        <ele>10.8</ele>
        <time>2023-10-11T13:03:44Z</time>
      </trkpt>
      <trkpt lat="49.10745" lon="-0.04804">
        <ele>10.8</ele>
        <time>2023-10-11T13:03:45Z</time>
      </trkpt>
      <trkpt lat="49.10737" lon="-0.04803">
        <ele>10.8</ele>
        <time>2023-10-11T13:03:46Z</time>
      </trkpt>
      <trkpt lat="49.1073" lon="-0.04802">
        <ele>10.9</ele>
        <time>2023-10-11T13:03:47Z</time>
      </trkpt>
      <trkpt lat="49.10722" lon="-0.04802">
        <ele>10.9</ele>
        <time>2023-10-11T13:03:48Z</time>
      </trkpt>
      <trkpt lat="49.10715" lon="-0.04802">
        <ele>10.9</ele>
        <time>2023-10-11T13:03:49Z</time>
      </trkpt>
      <trkpt lat="49.10708" lon="-0.04802">
        <ele>10.9</ele>
        <time>2023-10-11T13:03:50Z</time>
      </trkpt>
      <trkpt lat="49.10701" lon="-0.04803">
        <ele>10.9</ele>
        <time>2023-10-11T13:03:51Z</time>
      </trkpt>
      <trkpt lat="49.10694" lon="-0.04804">
        <ele>10.9</ele>
        <time>2023-10-11T13:03:52Z</time>
      </trkpt>
      <trkpt lat="49.10687" lon="-0.04805">
        <ele>10.9</ele>
        <time>2023-10-11T13:03:53Z</time>
      </trkpt>
      <trkpt lat="49.1068" lon="-0.04806">
        <ele>10.8</ele>
        <time>2023-10-11T13:03:54Z</time>
      </trkpt>
      <trkpt lat="49.10673" lon="-0.04808">
        <ele>10.8</ele>
        <time>2023-10-11T13:03:55Z</time>
      </trkpt>
      <trkpt lat="49.10666" lon="-0.0481">
        <ele>10.8</ele>
        <time>2023-10-11T13:03:56Z</time>
      </trkpt>
      <trkpt lat="49.10659" lon="-0.04812">
        <ele>10.8</ele>
        <time>2023-10-11T13:03:57Z</time>
      </trkpt>
      <trkpt lat="49.10653" lon="-0.04814">
        <ele>10.8</ele>
        <time>2023-10-11T13:03:58Z</time>
      </trkpt>
      <trkpt lat="49.10646" lon="-0.04816">
        <ele>10.7</ele>
        <time>2023-10-11T13:03:59Z</time>
      </trkpt>
      <trkpt lat="49.10639" lon="-0.04818">
        <ele>10.7</ele>
        <time>2023-10-11T13:04:00Z</time>
      </trkpt>
      <trkpt lat="49.10633" lon="-0.0482">
        <ele>10.7</ele>
        <time>2023-10-11T13:04:01Z</time>
      </trkpt>
      <trkpt lat="49.10626" lon="-0.04822">
        <ele>10.7</ele>
        <time>2023-10-11T13:04:02Z</time>
      </trkpt>
      <trkpt lat="49.10619" lon="-0.04824">
        <ele>10.7</ele>
        <time>2023-10-11T13:04:03Z</time>
      </trkpt>
      <trkpt lat="49.10612" lon="-0.04826">
        <ele>10.7</ele>
        <time>2023-10-11T13:04:04Z</time>
      </trkpt>
      <trkpt lat="49.10605" lon="-0.04827">
        <ele>10.7</ele>
        <time>2023-10-11T13:04:05Z</time>
      </trkpt>
      <trkpt lat="49.10598" lon="-0.04829">
        <ele>10.7</ele>
        <time>2023-10-11T13:04:06Z</time>
      </trkpt>
      <trkpt lat="49.10591" lon="-0.0483">
        <ele>10.7</ele>
        <time>2023-10-11T13:04:07Z</time>
      </trkpt>
      <trkpt lat="49.10583" lon="-0.04832">
        <ele>10.6</ele>
        <time>2023-10-11T13:04:08Z</time>
      </trkpt>
      <trkpt lat="49.10576" lon="-0.04834">
        <ele>10.6</ele>
        <time>2023-10-11T13:04:09Z</time>
      </trkpt>
      <trkpt lat="49.10568" lon="-0.04837">
        <ele>10.6</ele>
        <time>2023-10-11T13:04:10Z</time>
      </trkpt>
      <trkpt lat="49.10561" lon="-0.04839">
        <ele>10.6</ele>
        <time>2023-10-11T13:04:11Z</time>
      </trkpt>
      <trkpt lat="49.10553" lon="-0.04841">
        <ele>10.5</ele>
        <time>2023-10-11T13:04:12Z</time>
      </trkpt>
      <trkpt lat="49.10545" lon="-0.04844">
        <ele>10.5</ele>
        <time>2023-10-11T13:04:13Z</time>
      </trkpt>
      <trkpt lat="49.10537" lon="-0.04846">
        <ele>10.5</ele>
        <time>2023-10-11T13:04:14Z</time>
      </trkpt>
      <trkpt lat="49.10529" lon="-0.04848">
        <ele>10.5</ele>
        <time>2023-10-11T13:04:15Z</time>
      </trkpt>
      <trkpt lat="49.10522" lon="-0.0485">
        <ele>10.5</ele>
        <time>2023-10-11T13:04:16Z</time>
      </trkpt>
      <trkpt lat="49.10514" lon="-0.04853">
        <ele>10.6</ele>
        <time>2023-10-11T13:04:17Z</time>
      </trkpt>
      <trkpt lat="49.10507" lon="-0.04856">
        <ele>10.6</ele>
        <time>2023-10-11T13:04:18Z</time>
      </trkpt>
      <trkpt lat="49.105" lon="-0.0486">
        <ele>10.6</ele>
        <time>2023-10-11T13:04:19Z</time>
      </trkpt>
      <trkpt lat="49.10493" lon="-0.04865">
        <ele>10.7</ele>
        <time>2023-10-11T13:04:20Z</time>
      </trkpt>
      <trkpt lat="49.10487" lon="-0.04869">
        <ele>10.8</ele>
        <time>2023-10-11T13:04:21Z</time>
      </trkpt>
      <trkpt lat="49.1048" lon="-0.04874">
        <ele>10.8</ele>
        <time>2023-10-11T13:04:22Z</time>
      </trkpt>
      <trkpt lat="49.10473" lon="-0.04879">
        <ele>10.8</ele>
        <time>2023-10-11T13:04:23Z</time>
      </trkpt>
      <trkpt lat="49.10466" lon="-0.04883">
        <ele>10.8</ele>
        <time>2023-10-11T13:04:24Z</time>
      </trkpt>
      <trkpt lat="49.10459" lon="-0.04887">
        <ele>10.8</ele>
        <time>2023-10-11T13:04:25Z</time>
      </trkpt>
      <trkpt lat="49.10452" lon="-0.04891">
        <ele>10.9</ele>
        <time>2023-10-11T13:04:26Z</time>
      </trkpt>
      <trkpt lat="49.10445" lon="-0.04896">
        <ele>10.9</ele>
        <time>2023-10-11T13:04:27Z</time>
      </trkpt>
      <trkpt lat="49.10437" lon="-0.049">
        <ele>10.9</ele>
        <time>2023-10-11T13:04:28Z</time>
      </trkpt>
      <trkpt lat="49.1043" lon="-0.04904">
        <ele>10.9</ele>
        <time>2023-10-11T13:04:29Z</time>
      </trkpt>
      <trkpt lat="49.10423" lon="-0.04908">
        <ele>10.9</ele>
        <time>2023-10-11T13:04:30Z</time>
      </trkpt>
      <trkpt lat="49.10416" lon="-0.04912">
        <ele>10.9</ele>
        <time>2023-10-11T13:04:31Z</time>
      </trkpt>
      <trkpt lat="49.10409" lon="-0.04916">
        <ele>10.9</ele>
        <time>2023-10-11T13:04:32Z</time>
      </trkpt>
      <trkpt lat="49.10401" lon="-0.0492">
        <ele>10.9</ele>
        <time>2023-10-11T13:04:33Z</time>
      </trkpt>
      <trkpt lat="49.10394" lon="-0.04924">
        <ele>11</ele>
        <time>2023-10-11T13:04:34Z</time>
      </trkpt>
      <trkpt lat="49.10386" lon="-0.04928">
        <ele>11</ele>
        <time>2023-10-11T13:04:35Z</time>
      </trkpt>
      <trkpt lat="49.10379" lon="-0.04932">
        <ele>11</ele>
        <time>2023-10-11T13:04:36Z</time>
      </trkpt>
      <trkpt lat="49.10372" lon="-0.04936">
        <ele>11</ele>
        <time>2023-10-11T13:04:37Z</time>
      </trkpt>
      <trkpt lat="49.10364" lon="-0.0494">
        <ele>11</ele>
        <time>2023-10-11T13:04:38Z</time>
      </trkpt>
      <trkpt lat="49.10357" lon="-0.04944">
        <ele>11</ele>
        <time>2023-10-11T13:04:39Z</time>
      </trkpt>
      <trkpt lat="49.1035" lon="-0.04948">
        <ele>11</ele>
        <time>2023-10-11T13:04:40Z</time>
      </trkpt>
      <trkpt lat="49.10343" lon="-0.04951">
        <ele>11</ele>
        <time>2023-10-11T13:04:41Z</time>
      </trkpt>
      <trkpt lat="49.10336" lon="-0.04954">
        <ele>11</ele>
        <time>2023-10-11T13:04:42Z</time>
      </trkpt>
      <trkpt lat="49.10328" lon="-0.04957">
        <ele>11</ele>
        <time>2023-10-11T13:04:43Z</time>
      </trkpt>
      <trkpt lat="49.10321" lon="-0.0496">
        <ele>11</ele>
        <time>2023-10-11T13:04:44Z</time>
      </trkpt>
      <trkpt lat="49.10314" lon="-0.04964">
        <ele>11.1</ele>
        <time>2023-10-11T13:04:45Z</time>
      </trkpt>
      <trkpt lat="49.10306" lon="-0.04967">
        <ele>11.1</ele>
        <time>2023-10-11T13:04:46Z</time>
      </trkpt>
      <trkpt lat="49.10299" lon="-0.04969">
        <ele>11.1</ele>
        <time>2023-10-11T13:04:47Z</time>
      </trkpt>
      <trkpt lat="49.10291" lon="-0.04972">
        <ele>11.1</ele>
        <time>2023-10-11T13:04:48Z</time>
      </trkpt>
      <trkpt lat="49.10284" lon="-0.04974">
        <ele>11.1</ele>
        <time>2023-10-11T13:04:49Z</time>
      </trkpt>
      <trkpt lat="49.10276" lon="-0.04977">
        <ele>11.1</ele>
        <time>2023-10-11T13:04:50Z</time>
      </trkpt>
      <trkpt lat="49.10269" lon="-0.0498">
        <ele>11.1</ele>
        <time>2023-10-11T13:04:51Z</time>
      </trkpt>
      <trkpt lat="49.10262" lon="-0.04983">
        <ele>11.1</ele>
        <time>2023-10-11T13:04:52Z</time>
      </trkpt>
      <trkpt lat="49.10255" lon="-0.04986">
        <ele>11</ele>
        <time>2023-10-11T13:04:53Z</time>
      </trkpt>
      <trkpt lat="49.10248" lon="-0.04989">
        <ele>11</ele>
        <time>2023-10-11T13:04:54Z</time>
      </trkpt>
      <trkpt lat="49.10241" lon="-0.04993">
        <ele>10.9</ele>
        <time>2023-10-11T13:04:55Z</time>
      </trkpt>
      <trkpt lat="49.10234" lon="-0.04996">
        <ele>10.9</ele>
        <time>2023-10-11T13:04:56Z</time>
      </trkpt>
      <trkpt lat="49.10227" lon="-0.04999">
        <ele>10.8</ele>
        <time>2023-10-11T13:04:57Z</time>
      </trkpt>
      <trkpt lat="49.1022" lon="-0.05002">
        <ele>10.8</ele>
        <time>2023-10-11T13:04:58Z</time>
      </trkpt>
      <trkpt lat="49.10213" lon="-0.05006">
        <ele>10.7</ele>
        <time>2023-10-11T13:04:59Z</time>
      </trkpt>
      <trkpt lat="49.10206" lon="-0.05009">
        <ele>10.7</ele>
        <time>2023-10-11T13:05:00Z</time>
      </trkpt>
      <trkpt lat="49.10199" lon="-0.05013">
        <ele>10.6</ele>
        <time>2023-10-11T13:05:01Z</time>
      </trkpt>
      <trkpt lat="49.10192" lon="-0.05017">
        <ele>10.6</ele>
        <time>2023-10-11T13:05:02Z</time>
      </trkpt>
      <trkpt lat="49.10185" lon="-0.0502">
        <ele>10.5</ele>
        <time>2023-10-11T13:05:03Z</time>
      </trkpt>
      <trkpt lat="49.10178" lon="-0.05023">
        <ele>10.5</ele>
        <time>2023-10-11T13:05:04Z</time>
      </trkpt>
      <trkpt lat="49.10171" lon="-0.05026">
        <ele>10.5</ele>
        <time>2023-10-11T13:05:05Z</time>
      </trkpt>
      <trkpt lat="49.10164" lon="-0.05029">
        <ele>10.6</ele>
        <time>2023-10-11T13:05:06Z</time>
      </trkpt>
      <trkpt lat="49.10157" lon="-0.05032">
        <ele>10.6</ele>
        <time>2023-10-11T13:05:07Z</time>
      </trkpt>
      <trkpt lat="49.1015" lon="-0.05035">
        <ele>10.7</ele>
        <time>2023-10-11T13:05:08Z</time>
      </trkpt>
      <trkpt lat="49.10142" lon="-0.05037">
        <ele>10.7</ele>
        <time>2023-10-11T13:05:09Z</time>
      </trkpt>
      <trkpt lat="49.10135" lon="-0.0504">
        <ele>10.8</ele>
        <time>2023-10-11T13:05:10Z</time>
      </trkpt>
      <trkpt lat="49.10128" lon="-0.05042">
        <ele>10.8</ele>
        <time>2023-10-11T13:05:11Z</time>
      </trkpt>
      <trkpt lat="49.10121" lon="-0.05044">
        <ele>10.9</ele>
        <time>2023-10-11T13:05:12Z</time>
      </trkpt>
      <trkpt lat="49.10114" lon="-0.05046">
        <ele>11</ele>
        <time>2023-10-11T13:05:13Z</time>
      </trkpt>
      <trkpt lat="49.10108" lon="-0.05048">
        <ele>11</ele>
        <time>2023-10-11T13:05:14Z</time>
      </trkpt>
      <trkpt lat="49.10101" lon="-0.05051">
        <ele>11.1</ele>
        <time>2023-10-11T13:05:15Z</time>
      </trkpt>
      <trkpt lat="49.10094" lon="-0.05053">
        <ele>11.1</ele>
        <time>2023-10-11T13:05:16Z</time>
      </trkpt>
      <trkpt lat="49.10087" lon="-0.05055">
        <ele>11.1</ele>
        <time>2023-10-11T13:05:17Z</time>
      </trkpt>
      <trkpt lat="49.1008" lon="-0.05057">
        <ele>11.1</ele>
        <time>2023-10-11T13:05:18Z</time>
      </trkpt>
      <trkpt lat="49.10073" lon="-0.0506">
        <ele>11.2</ele>
        <time>2023-10-11T13:05:19Z</time>
      </trkpt>
      <trkpt lat="49.10066" lon="-0.05062">
        <ele>11.2</ele>
        <time>2023-10-11T13:05:20Z</time>
      </trkpt>
      <trkpt lat="49.1006" lon="-0.05065">
        <ele>11.2</ele>
        <time>2023-10-11T13:05:21Z</time>
      </trkpt>
      <trkpt lat="49.10053" lon="-0.05067">
        <ele>11.2</ele>
        <time>2023-10-11T13:05:22Z</time>
      </trkpt>
      <trkpt lat="49.10046" lon="-0.0507">
        <ele>11.2</ele>
        <time>2023-10-11T13:05:23Z</time>
      </trkpt>
      <trkpt lat="49.1004" lon="-0.05072">
        <ele>11.2</ele>
        <time>2023-10-11T13:05:24Z</time>
      </trkpt>
      <trkpt lat="49.10033" lon="-0.05075">
        <ele>11.2</ele>
        <time>2023-10-11T13:05:25Z</time>
      </trkpt>
      <trkpt lat="49.10027" lon="-0.05078">
        <ele>11.2</ele>
        <time>2023-10-11T13:05:26Z</time>
      </trkpt>
      <trkpt lat="49.1002" lon="-0.05081">
        <ele>11.2</ele>
        <time>2023-10-11T13:05:27Z</time>
      </trkpt>
      <trkpt lat="49.10013" lon="-0.05083">
        <ele>11.2</ele>
        <time>2023-10-11T13:05:28Z</time>
      </trkpt>
      <trkpt lat="49.10007" lon="-0.05085">
        <ele>11.3</ele>
        <time>2023-10-11T13:05:29Z</time>
      </trkpt>
      <trkpt lat="49.1" lon="-0.05088">
        <ele>11.3</ele>
        <time>2023-10-11T13:05:30Z</time>
      </trkpt>
      <trkpt lat="49.09993" lon="-0.0509">
        <ele>11.4</ele>
        <time>2023-10-11T13:05:31Z</time>
      </trkpt>
      <trkpt lat="49.09987" lon="-0.05092">
        <ele>11.4</ele>
        <time>2023-10-11T13:05:32Z</time>
      </trkpt>
      <trkpt lat="49.0998" lon="-0.05095">
        <ele>11.5</ele>
        <time>2023-10-11T13:05:33Z</time>
      </trkpt>
      <trkpt lat="49.09973" lon="-0.05098">
        <ele>11.5</ele>
        <time>2023-10-11T13:05:34Z</time>
      </trkpt>
      <trkpt lat="49.09966" lon="-0.05101">
        <ele>11.6</ele>
        <time>2023-10-11T13:05:35Z</time>
      </trkpt>
      <trkpt lat="49.09958" lon="-0.05105">
        <ele>11.7</ele>
        <time>2023-10-11T13:05:36Z</time>
      </trkpt>
      <trkpt lat="49.09951" lon="-0.0511">
        <ele>11.7</ele>
        <time>2023-10-11T13:05:37Z</time>
      </trkpt>
      <trkpt lat="49.09944" lon="-0.05117">
        <ele>11.8</ele>
        <time>2023-10-11T13:05:38Z</time>
      </trkpt>
      <trkpt lat="49.09938" lon="-0.05123">
        <ele>11.8</ele>
        <time>2023-10-11T13:05:39Z</time>
      </trkpt>
      <trkpt lat="49.09931" lon="-0.0513">
        <ele>11.9</ele>
        <time>2023-10-11T13:05:40Z</time>
      </trkpt>
      <trkpt lat="49.09926" lon="-0.05139">
        <ele>11.9</ele>
        <time>2023-10-11T13:05:41Z</time>
      </trkpt>
      <trkpt lat="49.09921" lon="-0.05148">
        <ele>11.9</ele>
        <time>2023-10-11T13:05:42Z</time>
      </trkpt>
      <trkpt lat="49.09916" lon="-0.05157">
        <ele>11.8</ele>
        <time>2023-10-11T13:05:43Z</time>
      </trkpt>
      <trkpt lat="49.09912" lon="-0.05167">
        <ele>11.8</ele>
        <time>2023-10-11T13:05:44Z</time>
      </trkpt>
      <trkpt lat="49.09907" lon="-0.05177">
        <ele>11.8</ele>
        <time>2023-10-11T13:05:45Z</time>
      </trkpt>
      <trkpt lat="49.09903" lon="-0.05188">
        <ele>11.7</ele>
        <time>2023-10-11T13:05:46Z</time>
      </trkpt>
      <trkpt lat="49.09898" lon="-0.05198">
        <ele>11.7</ele>
        <time>2023-10-11T13:05:47Z</time>
      </trkpt>
      <trkpt lat="49.09894" lon="-0.05208">
        <ele>11.7</ele>
        <time>2023-10-11T13:05:48Z</time>
      </trkpt>
      <trkpt lat="49.09889" lon="-0.05218">
        <ele>11.7</ele>
        <time>2023-10-11T13:05:49Z</time>
      </trkpt>
      <trkpt lat="49.09885" lon="-0.05228">
        <ele>11.7</ele>
        <time>2023-10-11T13:05:50Z</time>
      </trkpt>
      <trkpt lat="49.0988" lon="-0.05238">
        <ele>11.7</ele>
        <time>2023-10-11T13:05:51Z</time>
      </trkpt>
      <trkpt lat="49.09876" lon="-0.05249">
        <ele>11.7</ele>
        <time>2023-10-11T13:05:52Z</time>
      </trkpt>
      <trkpt lat="49.09871" lon="-0.05259">
        <ele>11.8</ele>
        <time>2023-10-11T13:05:53Z</time>
      </trkpt>
      <trkpt lat="49.09867" lon="-0.05269">
        <ele>11.8</ele>
        <time>2023-10-11T13:05:54Z</time>
      </trkpt>
      <trkpt lat="49.09862" lon="-0.05279">
        <ele>11.8</ele>
        <time>2023-10-11T13:05:55Z</time>
      </trkpt>
      <trkpt lat="49.09858" lon="-0.05289">
        <ele>11.8</ele>
        <time>2023-10-11T13:05:56Z</time>
      </trkpt>
      <trkpt lat="49.09853" lon="-0.05298">
        <ele>11.8</ele>
        <time>2023-10-11T13:05:57Z</time>
      </trkpt>
      <trkpt lat="49.09849" lon="-0.05308">
        <ele>11.9</ele>
        <time>2023-10-11T13:05:58Z</time>
      </trkpt>
      <trkpt lat="49.09845" lon="-0.05318">
        <ele>11.9</ele>
        <time>2023-10-11T13:05:59Z</time>
      </trkpt>
      <trkpt lat="49.0984" lon="-0.05327">
        <ele>12</ele>
        <time>2023-10-11T13:06:00Z</time>
      </trkpt>
      <trkpt lat="49.09836" lon="-0.05337">
        <ele>12</ele>
        <time>2023-10-11T13:06:01Z</time>
      </trkpt>
      <trkpt lat="49.09832" lon="-0.05347">
        <ele>12</ele>
        <time>2023-10-11T13:06:02Z</time>
      </trkpt>
      <trkpt lat="49.09827" lon="-0.05357">
        <ele>12</ele>
        <time>2023-10-11T13:06:03Z</time>
      </trkpt>
      <trkpt lat="49.09823" lon="-0.05366">
        <ele>12.1</ele>
        <time>2023-10-11T13:06:04Z</time>
      </trkpt>
      <trkpt lat="49.09818" lon="-0.05376">
        <ele>12.1</ele>
        <time>2023-10-11T13:06:05Z</time>
      </trkpt>
      <trkpt lat="49.09814" lon="-0.05386">
        <ele>12.2</ele>
        <time>2023-10-11T13:06:06Z</time>
      </trkpt>
      <trkpt lat="49.0981" lon="-0.05396">
        <ele>12.2</ele>
        <time>2023-10-11T13:06:07Z</time>
      </trkpt>
      <trkpt lat="49.09806" lon="-0.05406">
        <ele>12.3</ele>
        <time>2023-10-11T13:06:08Z</time>
      </trkpt>
      <trkpt lat="49.09802" lon="-0.05416">
        <ele>12.3</ele>
        <time>2023-10-11T13:06:09Z</time>
      </trkpt>
      <trkpt lat="49.09797" lon="-0.05425">
        <ele>12.4</ele>
        <time>2023-10-11T13:06:10Z</time>
      </trkpt>
      <trkpt lat="49.09793" lon="-0.05434">
        <ele>12.4</ele>
        <time>2023-10-11T13:06:11Z</time>
      </trkpt>
      <trkpt lat="49.09789" lon="-0.05443">
        <ele>12.5</ele>
        <time>2023-10-11T13:06:12Z</time>
      </trkpt>
      <trkpt lat="49.09785" lon="-0.05452">
        <ele>12.6</ele>
        <time>2023-10-11T13:06:13Z</time>
      </trkpt>
      <trkpt lat="49.0978" lon="-0.05461">
        <ele>12.7</ele>
        <time>2023-10-11T13:06:14Z</time>
      </trkpt>
      <trkpt lat="49.09775" lon="-0.05469">
        <ele>12.8</ele>
        <time>2023-10-11T13:06:15Z</time>
      </trkpt>
      <trkpt lat="49.09771" lon="-0.05478">
        <ele>12.9</ele>
        <time>2023-10-11T13:06:16Z</time>
      </trkpt>
      <trkpt lat="49.09766" lon="-0.05487">
        <ele>13.1</ele>
        <time>2023-10-11T13:06:17Z</time>
      </trkpt>
      <trkpt lat="49.09761" lon="-0.05495">
        <ele>13.2</ele>
        <time>2023-10-11T13:06:18Z</time>
      </trkpt>
      <trkpt lat="49.09756" lon="-0.05503">
        <ele>13.4</ele>
        <time>2023-10-11T13:06:19Z</time>
      </trkpt>
      <trkpt lat="49.09752" lon="-0.0551">
        <ele>13.6</ele>
        <time>2023-10-11T13:06:20Z</time>
      </trkpt>
      <trkpt lat="49.09747" lon="-0.05519">
        <ele>13.8</ele>
        <time>2023-10-11T13:06:21Z</time>
      </trkpt>
      <trkpt lat="49.09742" lon="-0.05527">
        <ele>14</ele>
        <time>2023-10-11T13:06:22Z</time>
      </trkpt>
      <trkpt lat="49.09737" lon="-0.05535">
        <ele>14.2</ele>
        <time>2023-10-11T13:06:23Z</time>
      </trkpt>
      <trkpt lat="49.09732" lon="-0.05543">
        <ele>14.4</ele>
        <time>2023-10-11T13:06:24Z</time>
      </trkpt>
      <trkpt lat="49.09727" lon="-0.05551">
        <ele>14.7</ele>
        <time>2023-10-11T13:06:25Z</time>
      </trkpt>
      <trkpt lat="49.09722" lon="-0.05559">
        <ele>14.9</ele>
        <time>2023-10-11T13:06:26Z</time>
      </trkpt>
      <trkpt lat="49.09718" lon="-0.05566">
        <ele>15.1</ele>
        <time>2023-10-11T13:06:27Z</time>
      </trkpt>
      <trkpt lat="49.09713" lon="-0.05574">
        <ele>15.4</ele>
        <time>2023-10-11T13:06:28Z</time>
      </trkpt>
      <trkpt lat="49.09708" lon="-0.05582">
        <ele>15.7</ele>
        <time>2023-10-11T13:06:29Z</time>
      </trkpt>
      <trkpt lat="49.09704" lon="-0.0559">
        <ele>15.9</ele>
        <time>2023-10-11T13:06:30Z</time>
      </trkpt>
      <trkpt lat="49.09699" lon="-0.05597">
        <ele>16.2</ele>
        <time>2023-10-11T13:06:31Z</time>
      </trkpt>
      <trkpt lat="49.09694" lon="-0.05605">
        <ele>16.5</ele>
        <time>2023-10-11T13:06:32Z</time>
      </trkpt>
      <trkpt lat="49.0969" lon="-0.05612">
        <ele>16.8</ele>
        <time>2023-10-11T13:06:33Z</time>
      </trkpt>
      <trkpt lat="49.09685" lon="-0.05619">
        <ele>17.1</ele>
        <time>2023-10-11T13:06:34Z</time>
      </trkpt>
      <trkpt lat="49.09681" lon="-0.05625">
        <ele>17.4</ele>
        <time>2023-10-11T13:06:35Z</time>
      </trkpt>
      <trkpt lat="49.09676" lon="-0.05632">
        <ele>17.7</ele>
        <time>2023-10-11T13:06:36Z</time>
      </trkpt>
      <trkpt lat="49.09672" lon="-0.05638">
        <ele>18</ele>
        <time>2023-10-11T13:06:37Z</time>
      </trkpt>
      <trkpt lat="49.09667" lon="-0.05644">
        <ele>18.3</ele>
        <time>2023-10-11T13:06:38Z</time>
      </trkpt>
      <trkpt lat="49.09663" lon="-0.0565">
        <ele>18.6</ele>
        <time>2023-10-11T13:06:39Z</time>
      </trkpt>
      <trkpt lat="49.09658" lon="-0.05655">
        <ele>18.9</ele>
        <time>2023-10-11T13:06:40Z</time>
      </trkpt>
      <trkpt lat="49.09653" lon="-0.0566">
        <ele>19.3</ele>
        <time>2023-10-11T13:06:41Z</time>
      </trkpt>
      <trkpt lat="49.09648" lon="-0.05665">
        <ele>19.6</ele>
        <time>2023-10-11T13:06:42Z</time>
      </trkpt>
      <trkpt lat="49.09643" lon="-0.05669">
        <ele>19.7</ele>
        <time>2023-10-11T13:06:43Z</time>
      </trkpt>
      <trkpt lat="49.09638" lon="-0.05672">
        <ele>19.8</ele>
        <time>2023-10-11T13:06:44Z</time>
      </trkpt>
      <trkpt lat="49.09633" lon="-0.05676">
        <ele>19.9</ele>
        <time>2023-10-11T13:06:45Z</time>
      </trkpt>
      <trkpt lat="49.09627" lon="-0.0568">
        <ele>20</ele>
        <time>2023-10-11T13:06:46Z</time>
      </trkpt>
      <trkpt lat="49.09621" lon="-0.05684">
        <ele>20.1</ele>
        <time>2023-10-11T13:06:47Z</time>
      </trkpt>
      <trkpt lat="49.09615" lon="-0.05688">
        <ele>20.2</ele>
        <time>2023-10-11T13:06:48Z</time>
      </trkpt>
      <trkpt lat="49.09609" lon="-0.05692">
        <ele>20.2</ele>
        <time>2023-10-11T13:06:49Z</time>
      </trkpt>
      <trkpt lat="49.09602" lon="-0.05697">
        <ele>20.3</ele>
        <time>2023-10-11T13:06:50Z</time>
      </trkpt>
      <trkpt lat="49.09595" lon="-0.05702">
        <ele>20.4</ele>
        <time>2023-10-11T13:06:51Z</time>
      </trkpt>
      <trkpt lat="49.09589" lon="-0.05707">
        <ele>20.5</ele>
        <time>2023-10-11T13:06:52Z</time>
      </trkpt>
      <trkpt lat="49.09583" lon="-0.05712">
        <ele>20.6</ele>
        <time>2023-10-11T13:06:53Z</time>
      </trkpt>
      <trkpt lat="49.09576" lon="-0.05716">
        <ele>20.7</ele>
        <time>2023-10-11T13:06:54Z</time>
      </trkpt>
      <trkpt lat="49.09569" lon="-0.05721">
        <ele>20.8</ele>
        <time>2023-10-11T13:06:55Z</time>
      </trkpt>
      <trkpt lat="49.09562" lon="-0.05726">
        <ele>20.9</ele>
        <time>2023-10-11T13:06:56Z</time>
      </trkpt>
      <trkpt lat="49.09556" lon="-0.05731">
        <ele>21</ele>
        <time>2023-10-11T13:06:57Z</time>
      </trkpt>
      <trkpt lat="49.09549" lon="-0.05735">
        <ele>21</ele>
        <time>2023-10-11T13:06:58Z</time>
      </trkpt>
      <trkpt lat="49.09542" lon="-0.0574">
        <ele>21.1</ele>
        <time>2023-10-11T13:06:59Z</time>
      </trkpt>
      <trkpt lat="49.09535" lon="-0.05746">
        <ele>21.1</ele>
        <time>2023-10-11T13:07:00Z</time>
      </trkpt>
      <trkpt lat="49.09528" lon="-0.0575">
        <ele>21.1</ele>
        <time>2023-10-11T13:07:01Z</time>
      </trkpt>
      <trkpt lat="49.09521" lon="-0.05755">
        <ele>21.2</ele>
        <time>2023-10-11T13:07:02Z</time>
      </trkpt>
      <trkpt lat="49.09514" lon="-0.0576">
        <ele>21.2</ele>
        <time>2023-10-11T13:07:03Z</time>
      </trkpt>
      <trkpt lat="49.09506" lon="-0.05766">
        <ele>21.2</ele>
        <time>2023-10-11T13:07:04Z</time>
      </trkpt>
      <trkpt lat="49.09499" lon="-0.05771">
        <ele>21.2</ele>
        <time>2023-10-11T13:07:05Z</time>
      </trkpt>
      <trkpt lat="49.09492" lon="-0.05776">
        <ele>21.3</ele>
        <time>2023-10-11T13:07:06Z</time>
      </trkpt>
      <trkpt lat="49.09484" lon="-0.0578">
        <ele>21.4</ele>
        <time>2023-10-11T13:07:07Z</time>
      </trkpt>
      <trkpt lat="49.09476" lon="-0.05783">
        <ele>21.4</ele>
        <time>2023-10-11T13:07:08Z</time>
      </trkpt>
      <trkpt lat="49.09468" lon="-0.05786">
        <ele>21.5</ele>
        <time>2023-10-11T13:07:09Z</time>
      </trkpt>
      <trkpt lat="49.0946" lon="-0.05789">
        <ele>21.6</ele>
        <time>2023-10-11T13:07:10Z</time>
      </trkpt>
      <trkpt lat="49.09452" lon="-0.05791">
        <ele>21.7</ele>
        <time>2023-10-11T13:07:11Z</time>
      </trkpt>
      <trkpt lat="49.09444" lon="-0.05792">
        <ele>21.8</ele>
        <time>2023-10-11T13:07:12Z</time>
      </trkpt>
      <trkpt lat="49.09436" lon="-0.05793">
        <ele>21.8</ele>
        <time>2023-10-11T13:07:13Z</time>
      </trkpt>
      <trkpt lat="49.09429" lon="-0.05794">
        <ele>21.9</ele>
        <time>2023-10-11T13:07:14Z</time>
      </trkpt>
      <trkpt lat="49.09421" lon="-0.05795">
        <ele>22</ele>
        <time>2023-10-11T13:07:15Z</time>
      </trkpt>
      <trkpt lat="49.09414" lon="-0.05796">
        <ele>22</ele>
        <time>2023-10-11T13:07:16Z</time>
      </trkpt>
      <trkpt lat="49.09407" lon="-0.05797">
        <ele>22.1</ele>
        <time>2023-10-11T13:07:17Z</time>
      </trkpt>
      <trkpt lat="49.094" lon="-0.05798">
        <ele>22.2</ele>
        <time>2023-10-11T13:07:18Z</time>
      </trkpt>
      <trkpt lat="49.09393" lon="-0.058">
        <ele>22.2</ele>
        <time>2023-10-11T13:07:19Z</time>
      </trkpt>
      <trkpt lat="49.09386" lon="-0.05802">
        <ele>22.3</ele>
        <time>2023-10-11T13:07:20Z</time>
      </trkpt>
      <trkpt lat="49.09379" lon="-0.05803">
        <ele>22.3</ele>
        <time>2023-10-11T13:07:21Z</time>
      </trkpt>
      <trkpt lat="49.09371" lon="-0.05806">
        <ele>22.3</ele>
        <time>2023-10-11T13:07:22Z</time>
      </trkpt>
      <trkpt lat="49.09364" lon="-0.05808">
        <ele>22.3</ele>
        <time>2023-10-11T13:07:23Z</time>
      </trkpt>
      <trkpt lat="49.09357" lon="-0.05812">
        <ele>22.3</ele>
        <time>2023-10-11T13:07:24Z</time>
      </trkpt>
      <trkpt lat="49.0935" lon="-0.05816">
        <ele>22.2</ele>
        <time>2023-10-11T13:07:25Z</time>
      </trkpt>
      <trkpt lat="49.09344" lon="-0.05821">
        <ele>22.2</ele>
        <time>2023-10-11T13:07:26Z</time>
      </trkpt>
      <trkpt lat="49.09337" lon="-0.05826">
        <ele>22.1</ele>
        <time>2023-10-11T13:07:27Z</time>
      </trkpt>
      <trkpt lat="49.0933" lon="-0.05831">
        <ele>22.1</ele>
        <time>2023-10-11T13:07:28Z</time>
      </trkpt>
      <trkpt lat="49.09323" lon="-0.05837">
        <ele>22</ele>
        <time>2023-10-11T13:07:29Z</time>
      </trkpt>
      <trkpt lat="49.09316" lon="-0.05843">
        <ele>22</ele>
        <time>2023-10-11T13:07:30Z</time>
      </trkpt>
      <trkpt lat="49.09309" lon="-0.05849">
        <ele>21.9</ele>
        <time>2023-10-11T13:07:31Z</time>
      </trkpt>
      <trkpt lat="49.09303" lon="-0.05856">
        <ele>21.8</ele>
        <time>2023-10-11T13:07:32Z</time>
      </trkpt>
      <trkpt lat="49.09296" lon="-0.05863">
        <ele>21.8</ele>
        <time>2023-10-11T13:07:33Z</time>
      </trkpt>
      <trkpt lat="49.0929" lon="-0.0587">
        <ele>21.7</ele>
        <time>2023-10-11T13:07:34Z</time>
      </trkpt>
      <trkpt lat="49.09284" lon="-0.05878">
        <ele>21.6</ele>
        <time>2023-10-11T13:07:35Z</time>
      </trkpt>
      <trkpt lat="49.09278" lon="-0.05886">
        <ele>21.6</ele>
        <time>2023-10-11T13:07:36Z</time>
      </trkpt>
      <trkpt lat="49.09272" lon="-0.05895">
        <ele>21.5</ele>
        <time>2023-10-11T13:07:37Z</time>
      </trkpt>
      <trkpt lat="49.09266" lon="-0.05903">
        <ele>21.5</ele>
        <time>2023-10-11T13:07:38Z</time>
      </trkpt>
      <trkpt lat="49.0926" lon="-0.05911">
        <ele>21.4</ele>
        <time>2023-10-11T13:07:39Z</time>
      </trkpt>
      <trkpt lat="49.09254" lon="-0.0592">
        <ele>21.4</ele>
        <time>2023-10-11T13:07:40Z</time>
      </trkpt>
      <trkpt lat="49.09248" lon="-0.05928">
        <ele>21.3</ele>
        <time>2023-10-11T13:07:41Z</time>
      </trkpt>
      <trkpt lat="49.09242" lon="-0.05935">
        <ele>21.2</ele>
        <time>2023-10-11T13:07:42Z</time>
      </trkpt>
      <trkpt lat="49.09235" lon="-0.05943">
        <ele>21.2</ele>
        <time>2023-10-11T13:07:43Z</time>
      </trkpt>
      <trkpt lat="49.09229" lon="-0.05951">
        <ele>21.1</ele>
        <time>2023-10-11T13:07:44Z</time>
      </trkpt>
      <trkpt lat="49.09223" lon="-0.05959">
        <ele>21.1</ele>
        <time>2023-10-11T13:07:45Z</time>
      </trkpt>
      <trkpt lat="49.09218" lon="-0.05967">
        <ele>21.1</ele>
        <time>2023-10-11T13:07:46Z</time>
      </trkpt>
      <trkpt lat="49.09211" lon="-0.05974">
        <ele>21</ele>
        <time>2023-10-11T13:07:47Z</time>
      </trkpt>
      <trkpt lat="49.09205" lon="-0.05981">
        <ele>21</ele>
        <time>2023-10-11T13:07:48Z</time>
      </trkpt>
      <trkpt lat="49.09198" lon="-0.05988">
        <ele>21</ele>
        <time>2023-10-11T13:07:49Z</time>
      </trkpt>
      <trkpt lat="49.09191" lon="-0.05993">
        <ele>21</ele>
        <time>2023-10-11T13:07:50Z</time>
      </trkpt>
      <trkpt lat="49.09184" lon="-0.05998">
        <ele>21</ele>
        <time>2023-10-11T13:07:51Z</time>
      </trkpt>
      <trkpt lat="49.09177" lon="-0.06002">
        <ele>21</ele>
        <time>2023-10-11T13:07:52Z</time>
      </trkpt>
      <trkpt lat="49.0917" lon="-0.06006">
        <ele>21</ele>
        <time>2023-10-11T13:07:53Z</time>
      </trkpt>
      <trkpt lat="49.09163" lon="-0.06009">
        <ele>21</ele>
        <time>2023-10-11T13:07:54Z</time>
      </trkpt>
      <trkpt lat="49.09156" lon="-0.06012">
        <ele>21</ele>
        <time>2023-10-11T13:07:55Z</time>
      </trkpt>
      <trkpt lat="49.09149" lon="-0.06014">
        <ele>21</ele>
        <time>2023-10-11T13:07:56Z</time>
      </trkpt>
      <trkpt lat="49.09141" lon="-0.06016">
        <ele>21</ele>
        <time>2023-10-11T13:07:57Z</time>
      </trkpt>
      <trkpt lat="49.09134" lon="-0.06018">
        <ele>21.1</ele>
        <time>2023-10-11T13:07:58Z</time>
      </trkpt>
      <trkpt lat="49.09127" lon="-0.06019">
        <ele>21.1</ele>
        <time>2023-10-11T13:07:59Z</time>
      </trkpt>
      <trkpt lat="49.09119" lon="-0.06021">
        <ele>21.1</ele>
        <time>2023-10-11T13:08:00Z</time>
      </trkpt>
      <trkpt lat="49.09113" lon="-0.06022">
        <ele>21.1</ele>
        <time>2023-10-11T13:08:01Z</time>
      </trkpt>
      <trkpt lat="49.09106" lon="-0.06024">
        <ele>21.1</ele>
        <time>2023-10-11T13:08:02Z</time>
      </trkpt>
      <trkpt lat="49.09098" lon="-0.06025">
        <ele>21.2</ele>
        <time>2023-10-11T13:08:03Z</time>
      </trkpt>
      <trkpt lat="49.09091" lon="-0.06027">
        <ele>21.2</ele>
        <time>2023-10-11T13:08:04Z</time>
      </trkpt>
      <trkpt lat="49.09083" lon="-0.06028">
        <ele>21.3</ele>
        <time>2023-10-11T13:08:05Z</time>
      </trkpt>
      <trkpt lat="49.09076" lon="-0.0603">
        <ele>21.4</ele>
        <time>2023-10-11T13:08:06Z</time>
      </trkpt>
      <trkpt lat="49.09068" lon="-0.06032">
        <ele>21.4</ele>
        <time>2023-10-11T13:08:07Z</time>
      </trkpt>
      <trkpt lat="49.0906" lon="-0.06034">
        <ele>21.4</ele>
        <time>2023-10-11T13:08:08Z</time>
      </trkpt>
      <trkpt lat="49.09052" lon="-0.06036">
        <ele>21.4</ele>
        <time>2023-10-11T13:08:09Z</time>
      </trkpt>
      <trkpt lat="49.09045" lon="-0.06038">
        <ele>21.4</ele>
        <time>2023-10-11T13:08:10Z</time>
      </trkpt>
      <trkpt lat="49.09037" lon="-0.0604">
        <ele>21.4</ele>
        <time>2023-10-11T13:08:11Z</time>
      </trkpt>
      <trkpt lat="49.09029" lon="-0.06042">
        <ele>21.4</ele>
        <time>2023-10-11T13:08:12Z</time>
      </trkpt>
      <trkpt lat="49.09021" lon="-0.06043">
        <ele>21.4</ele>
        <time>2023-10-11T13:08:13Z</time>
      </trkpt>
      <trkpt lat="49.09012" lon="-0.06045">
        <ele>21.5</ele>
        <time>2023-10-11T13:08:14Z</time>
      </trkpt>
      <trkpt lat="49.09004" lon="-0.06047">
        <ele>21.5</ele>
        <time>2023-10-11T13:08:15Z</time>
      </trkpt>
      <trkpt lat="49.08996" lon="-0.06049">
        <ele>21.6</ele>
        <time>2023-10-11T13:08:16Z</time>
      </trkpt>
      <trkpt lat="49.08987" lon="-0.06051">
        <ele>21.6</ele>
        <time>2023-10-11T13:08:17Z</time>
      </trkpt>
      <trkpt lat="49.08979" lon="-0.06053">
        <ele>21.7</ele>
        <time>2023-10-11T13:08:18Z</time>
      </trkpt>
      <trkpt lat="49.08971" lon="-0.06055">
        <ele>21.8</ele>
        <time>2023-10-11T13:08:19Z</time>
      </trkpt>
      <trkpt lat="49.08963" lon="-0.06057">
        <ele>21.9</ele>
        <time>2023-10-11T13:08:20Z</time>
      </trkpt>
      <trkpt lat="49.08954" lon="-0.0606">
        <ele>21.9</ele>
        <time>2023-10-11T13:08:21Z</time>
      </trkpt>
      <trkpt lat="49.08946" lon="-0.06062">
        <ele>21.9</ele>
        <time>2023-10-11T13:08:22Z</time>
      </trkpt>
      <trkpt lat="49.08937" lon="-0.06064">
        <ele>22</ele>
        <time>2023-10-11T13:08:23Z</time>
      </trkpt>
      <trkpt lat="49.08928" lon="-0.06066">
        <ele>22</ele>
        <time>2023-10-11T13:08:24Z</time>
      </trkpt>
      <trkpt lat="49.0892" lon="-0.06069">
        <ele>22.1</ele>
        <time>2023-10-11T13:08:25Z</time>
      </trkpt>
      <trkpt lat="49.08911" lon="-0.06071">
        <ele>22.1</ele>
        <time>2023-10-11T13:08:26Z</time>
      </trkpt>
      <trkpt lat="49.08903" lon="-0.06073">
        <ele>22.2</ele>
        <time>2023-10-11T13:08:27Z</time>
      </trkpt>
      <trkpt lat="49.08894" lon="-0.06075">
        <ele>22.2</ele>
        <time>2023-10-11T13:08:28Z</time>
      </trkpt>
      <trkpt lat="49.08886" lon="-0.06077">
        <ele>22.3</ele>
        <time>2023-10-11T13:08:29Z</time>
      </trkpt>
      <trkpt lat="49.08877" lon="-0.06079">
        <ele>22.3</ele>
        <time>2023-10-11T13:08:30Z</time>
      </trkpt>
      <trkpt lat="49.08869" lon="-0.0608">
        <ele>22.3</ele>
        <time>2023-10-11T13:08:31Z</time>
      </trkpt>
      <trkpt lat="49.0886" lon="-0.06081">
        <ele>22.3</ele>
        <time>2023-10-11T13:08:32Z</time>
      </trkpt>
      <trkpt lat="49.08852" lon="-0.06081">
        <ele>22.2</ele>
        <time>2023-10-11T13:08:33Z</time>
      </trkpt>
      <trkpt lat="49.08844" lon="-0.06081">
        <ele>22</ele>
        <time>2023-10-11T13:08:34Z</time>
      </trkpt>
      <trkpt lat="49.08837" lon="-0.06079">
        <ele>21.9</ele>
        <time>2023-10-11T13:08:35Z</time>
      </trkpt>
      <trkpt lat="49.08829" lon="-0.06077">
        <ele>21.7</ele>
        <time>2023-10-11T13:08:36Z</time>
      </trkpt>
      <trkpt lat="49.08821" lon="-0.06074">
        <ele>21.5</ele>
        <time>2023-10-11T13:08:37Z</time>
      </trkpt>
      <trkpt lat="49.08813" lon="-0.0607">
        <ele>21.3</ele>
        <time>2023-10-11T13:08:38Z</time>
      </trkpt>
      <trkpt lat="49.08805" lon="-0.06066">
        <ele>21.1</ele>
        <time>2023-10-11T13:08:39Z</time>
      </trkpt>
      <trkpt lat="49.08797" lon="-0.06062">
        <ele>20.9</ele>
        <time>2023-10-11T13:08:40Z</time>
      </trkpt>
      <trkpt lat="49.08789" lon="-0.06056">
        <ele>20.7</ele>
        <time>2023-10-11T13:08:41Z</time>
      </trkpt>
      <trkpt lat="49.0878" lon="-0.0605">
        <ele>20.4</ele>
        <time>2023-10-11T13:08:42Z</time>
      </trkpt>
      <trkpt lat="49.08771" lon="-0.06044">
        <ele>20.1</ele>
        <time>2023-10-11T13:08:43Z</time>
      </trkpt>
      <trkpt lat="49.08763" lon="-0.06038">
        <ele>19.9</ele>
        <time>2023-10-11T13:08:44Z</time>
      </trkpt>
      <trkpt lat="49.08754" lon="-0.06032">
        <ele>19.6</ele>
        <time>2023-10-11T13:08:45Z</time>
      </trkpt>
      <trkpt lat="49.08746" lon="-0.06026">
        <ele>19.3</ele>
        <time>2023-10-11T13:08:46Z</time>
      </trkpt>
      <trkpt lat="49.08737" lon="-0.06021">
        <ele>19.1</ele>
        <time>2023-10-11T13:08:47Z</time>
      </trkpt>
      <trkpt lat="49.08728" lon="-0.06015">
        <ele>18.8</ele>
        <time>2023-10-11T13:08:48Z</time>
      </trkpt>
      <trkpt lat="49.0872" lon="-0.06009">
        <ele>18.6</ele>
        <time>2023-10-11T13:08:49Z</time>
      </trkpt>
      <trkpt lat="49.08711" lon="-0.06003">
        <ele>18.3</ele>
        <time>2023-10-11T13:08:50Z</time>
      </trkpt>
      <trkpt lat="49.08702" lon="-0.05997">
        <ele>18</ele>
        <time>2023-10-11T13:08:51Z</time>
      </trkpt>
      <trkpt lat="49.08694" lon="-0.05992">
        <ele>17.8</ele>
        <time>2023-10-11T13:08:52Z</time>
      </trkpt>
      <trkpt lat="49.08685" lon="-0.05986">
        <ele>17.5</ele>
        <time>2023-10-11T13:08:53Z</time>
      </trkpt>
      <trkpt lat="49.08676" lon="-0.05979">
        <ele>17.3</ele>
        <time>2023-10-11T13:08:54Z</time>
      </trkpt>
      <trkpt lat="49.08668" lon="-0.05973">
        <ele>17</ele>
        <time>2023-10-11T13:08:55Z</time>
      </trkpt>
      <trkpt lat="49.08659" lon="-0.05967">
        <ele>16.8</ele>
        <time>2023-10-11T13:08:56Z</time>
      </trkpt>
      <trkpt lat="49.0865" lon="-0.05961">
        <ele>16.6</ele>
        <time>2023-10-11T13:08:57Z</time>
      </trkpt>
      <trkpt lat="49.08641" lon="-0.05955">
        <ele>16.5</ele>
        <time>2023-10-11T13:08:58Z</time>
      </trkpt>
      <trkpt lat="49.08633" lon="-0.05948">
        <ele>16.3</ele>
        <time>2023-10-11T13:08:59Z</time>
      </trkpt>
      <trkpt lat="49.08624" lon="-0.05942">
        <ele>16.2</ele>
        <time>2023-10-11T13:09:00Z</time>
      </trkpt>
      <trkpt lat="49.08615" lon="-0.05936">
        <ele>16.1</ele>
        <time>2023-10-11T13:09:01Z</time>
      </trkpt>
      <trkpt lat="49.08607" lon="-0.05931">
        <ele>16</ele>
        <time>2023-10-11T13:09:02Z</time>
      </trkpt>
      <trkpt lat="49.08599" lon="-0.05925">
        <ele>15.9</ele>
        <time>2023-10-11T13:09:03Z</time>
      </trkpt>
      <trkpt lat="49.0859" lon="-0.0592">
        <ele>15.8</ele>
        <time>2023-10-11T13:09:04Z</time>
      </trkpt>
      <trkpt lat="49.08582" lon="-0.05914">
        <ele>15.8</ele>
        <time>2023-10-11T13:09:05Z</time>
      </trkpt>
      <trkpt lat="49.08574" lon="-0.05909">
        <ele>15.7</ele>
        <time>2023-10-11T13:09:06Z</time>
      </trkpt>
      <trkpt lat="49.08566" lon="-0.05903">
        <ele>15.7</ele>
        <time>2023-10-11T13:09:07Z</time>
      </trkpt>
      <trkpt lat="49.08557" lon="-0.05898">
        <ele>15.6</ele>
        <time>2023-10-11T13:09:08Z</time>
      </trkpt>
      <trkpt lat="49.0855" lon="-0.05893">
        <ele>15.5</ele>
        <time>2023-10-11T13:09:09Z</time>
      </trkpt>
      <trkpt lat="49.08542" lon="-0.05887">
        <ele>15.4</ele>
        <time>2023-10-11T13:09:10Z</time>
      </trkpt>
      <trkpt lat="49.08534" lon="-0.05882">
        <ele>15.4</ele>
        <time>2023-10-11T13:09:11Z</time>
      </trkpt>
      <trkpt lat="49.08526" lon="-0.05877">
        <ele>15.4</ele>
        <time>2023-10-11T13:09:12Z</time>
      </trkpt>
      <trkpt lat="49.08518" lon="-0.05871">
        <ele>15.3</ele>
        <time>2023-10-11T13:09:13Z</time>
      </trkpt>
      <trkpt lat="49.08511" lon="-0.05865">
        <ele>15.3</ele>
        <time>2023-10-11T13:09:14Z</time>
      </trkpt>
      <trkpt lat="49.08503" lon="-0.05859">
        <ele>15.2</ele>
        <time>2023-10-11T13:09:15Z</time>
      </trkpt>
      <trkpt lat="49.08496" lon="-0.05853">
        <ele>15.1</ele>
        <time>2023-10-11T13:09:16Z</time>
      </trkpt>
      <trkpt lat="49.08488" lon="-0.05847">
        <ele>15.1</ele>
        <time>2023-10-11T13:09:17Z</time>
      </trkpt>
      <trkpt lat="49.08481" lon="-0.05841">
        <ele>15</ele>
        <time>2023-10-11T13:09:18Z</time>
      </trkpt>
      <trkpt lat="49.08473" lon="-0.05834">
        <ele>15</ele>
        <time>2023-10-11T13:09:19Z</time>
      </trkpt>
      <trkpt lat="49.08466" lon="-0.05827">
        <ele>14.9</ele>
        <time>2023-10-11T13:09:20Z</time>
      </trkpt>
      <trkpt lat="49.08459" lon="-0.0582">
        <ele>14.8</ele>
        <time>2023-10-11T13:09:21Z</time>
      </trkpt>
      <trkpt lat="49.08451" lon="-0.05813">
        <ele>14.8</ele>
        <time>2023-10-11T13:09:22Z</time>
      </trkpt>
      <trkpt lat="49.08444" lon="-0.05807">
        <ele>14.7</ele>
        <time>2023-10-11T13:09:23Z</time>
      </trkpt>
      <trkpt lat="49.08436" lon="-0.05801">
        <ele>14.6</ele>
        <time>2023-10-11T13:09:24Z</time>
      </trkpt>
      <trkpt lat="49.08428" lon="-0.05794">
        <ele>14.6</ele>
        <time>2023-10-11T13:09:25Z</time>
      </trkpt>
      <trkpt lat="49.08421" lon="-0.05788">
        <ele>14.5</ele>
        <time>2023-10-11T13:09:26Z</time>
      </trkpt>
      <trkpt lat="49.08414" lon="-0.05782">
        <ele>14.5</ele>
        <time>2023-10-11T13:09:27Z</time>
      </trkpt>
      <trkpt lat="49.08407" lon="-0.05776">
        <ele>14.4</ele>
        <time>2023-10-11T13:09:28Z</time>
      </trkpt>
      <trkpt lat="49.084" lon="-0.05769">
        <ele>14.4</ele>
        <time>2023-10-11T13:09:29Z</time>
      </trkpt>
      <trkpt lat="49.08393" lon="-0.05764">
        <ele>14.4</ele>
        <time>2023-10-11T13:09:30Z</time>
      </trkpt>
      <trkpt lat="49.08386" lon="-0.05758">
        <ele>14.4</ele>
        <time>2023-10-11T13:09:31Z</time>
      </trkpt>
      <trkpt lat="49.08379" lon="-0.05752">
        <ele>14.3</ele>
        <time>2023-10-11T13:09:32Z</time>
      </trkpt>
      <trkpt lat="49.08372" lon="-0.05746">
        <ele>14.2</ele>
        <time>2023-10-11T13:09:33Z</time>
      </trkpt>
      <trkpt lat="49.08366" lon="-0.0574">
        <ele>14.2</ele>
        <time>2023-10-11T13:09:34Z</time>
      </trkpt>
      <trkpt lat="49.08359" lon="-0.05734">
        <ele>14.2</ele>
        <time>2023-10-11T13:09:35Z</time>
      </trkpt>
      <trkpt lat="49.08352" lon="-0.05728">
        <ele>14.1</ele>
        <time>2023-10-11T13:09:36Z</time>
      </trkpt>
      <trkpt lat="49.08344" lon="-0.05723">
        <ele>14.1</ele>
        <time>2023-10-11T13:09:37Z</time>
      </trkpt>
      <trkpt lat="49.08337" lon="-0.05717">
        <ele>14.1</ele>
        <time>2023-10-11T13:09:38Z</time>
      </trkpt>
      <trkpt lat="49.08331" lon="-0.05712">
        <ele>14.1</ele>
        <time>2023-10-11T13:09:39Z</time>
      </trkpt>
      <trkpt lat="49.08324" lon="-0.05706">
        <ele>14</ele>
        <time>2023-10-11T13:09:40Z</time>
      </trkpt>
      <trkpt lat="49.08317" lon="-0.057">
        <ele>14</ele>
        <time>2023-10-11T13:09:41Z</time>
      </trkpt>
      <trkpt lat="49.08311" lon="-0.05693">
        <ele>14</ele>
        <time>2023-10-11T13:09:42Z</time>
      </trkpt>
      <trkpt lat="49.08304" lon="-0.05687">
        <ele>14</ele>
        <time>2023-10-11T13:09:43Z</time>
      </trkpt>
      <trkpt lat="49.08297" lon="-0.05681">
        <ele>14</ele>
        <time>2023-10-11T13:09:44Z</time>
      </trkpt>
      <trkpt lat="49.08291" lon="-0.05675">
        <ele>14</ele>
        <time>2023-10-11T13:09:45Z</time>
      </trkpt>
      <trkpt lat="49.08285" lon="-0.05669">
        <ele>14</ele>
        <time>2023-10-11T13:09:46Z</time>
      </trkpt>
      <trkpt lat="49.08279" lon="-0.05663">
        <ele>14</ele>
        <time>2023-10-11T13:09:47Z</time>
      </trkpt>
      <trkpt lat="49.08274" lon="-0.05656">
        <ele>14</ele>
        <time>2023-10-11T13:09:48Z</time>
      </trkpt>
      <trkpt lat="49.08268" lon="-0.05649">
        <ele>14.1</ele>
        <time>2023-10-11T13:09:49Z</time>
      </trkpt>
      <trkpt lat="49.08263" lon="-0.05642">
        <ele>14.1</ele>
        <time>2023-10-11T13:09:50Z</time>
      </trkpt>
      <trkpt lat="49.08258" lon="-0.05635">
        <ele>14.1</ele>
        <time>2023-10-11T13:09:51Z</time>
      </trkpt>
      <trkpt lat="49.08254" lon="-0.05629">
        <ele>14.1</ele>
        <time>2023-10-11T13:09:52Z</time>
      </trkpt>
      <trkpt lat="49.08249" lon="-0.05622">
        <ele>14.2</ele>
        <time>2023-10-11T13:09:53Z</time>
      </trkpt>
      <trkpt lat="49.08244" lon="-0.05615">
        <ele>14.2</ele>
        <time>2023-10-11T13:09:54Z</time>
      </trkpt>
      <trkpt lat="49.0824" lon="-0.05609">
        <ele>14.2</ele>
        <time>2023-10-11T13:09:55Z</time>
      </trkpt>
      <trkpt lat="49.08235" lon="-0.05604">
        <ele>14.3</ele>
        <time>2023-10-11T13:09:56Z</time>
      </trkpt>
      <trkpt lat="49.08231" lon="-0.05598">
        <ele>14.4</ele>
        <time>2023-10-11T13:09:57Z</time>
      </trkpt>
      <trkpt lat="49.08226" lon="-0.05592">
        <ele>14.4</ele>
        <time>2023-10-11T13:09:58Z</time>
      </trkpt>
      <trkpt lat="49.08222" lon="-0.05586">
        <ele>14.5</ele>
        <time>2023-10-11T13:09:59Z</time>
      </trkpt>
      <trkpt lat="49.08218" lon="-0.05581">
        <ele>14.6</ele>
        <time>2023-10-11T13:10:00Z</time>
      </trkpt>
      <trkpt lat="49.08214" lon="-0.05576">
        <ele>14.7</ele>
        <time>2023-10-11T13:10:01Z</time>
      </trkpt>
      <trkpt lat="49.0821" lon="-0.05571">
        <ele>14.8</ele>
        <time>2023-10-11T13:10:02Z</time>
      </trkpt>
      <trkpt lat="49.08207" lon="-0.05566">
        <ele>14.9</ele>
        <time>2023-10-11T13:10:03Z</time>
      </trkpt>
      <trkpt lat="49.08203" lon="-0.05562">
        <ele>15.1</ele>
        <time>2023-10-11T13:10:04Z</time>
      </trkpt>
      <trkpt lat="49.082" lon="-0.05558">
        <ele>15.2</ele>
        <time>2023-10-11T13:10:05Z</time>
      </trkpt>
      <trkpt lat="49.08197" lon="-0.05555">
        <ele>15.3</ele>
        <time>2023-10-11T13:10:06Z</time>
      </trkpt>
      <trkpt lat="49.08194" lon="-0.05552">
        <ele>15.5</ele>
        <time>2023-10-11T13:10:07Z</time>
      </trkpt>
      <trkpt lat="49.08192" lon="-0.05549">
        <ele>15.6</ele>
        <time>2023-10-11T13:10:08Z</time>
      </trkpt>
      <trkpt lat="49.08189" lon="-0.05546">
        <ele>15.6</ele>
        <time>2023-10-11T13:10:09Z</time>
      </trkpt>
      <trkpt lat="49.08186" lon="-0.05544">
        <ele>15.7</ele>
        <time>2023-10-11T13:10:10Z</time>
      </trkpt>
      <trkpt lat="49.08185" lon="-0.05544">
        <ele>15.8</ele>
        <time>2023-10-11T13:10:11Z</time>
      </trkpt>
      <trkpt lat="49.08181" lon="-0.05543">
        <ele>15.8</ele>
        <time>2023-10-11T13:10:12Z</time>
      </trkpt>
      <trkpt lat="49.08178" lon="-0.0554">
        <ele>15.6</ele>
        <time>2023-10-11T13:10:13Z</time>
      </trkpt>
      <trkpt lat="49.08173" lon="-0.05537">
        <ele>15.4</ele>
        <time>2023-10-11T13:10:14Z</time>
      </trkpt>
      <trkpt lat="49.08169" lon="-0.05533">
        <ele>15.2</ele>
        <time>2023-10-11T13:10:15Z</time>
      </trkpt>
      <trkpt lat="49.08164" lon="-0.05528">
        <ele>15.1</ele>
        <time>2023-10-11T13:10:16Z</time>
      </trkpt>
      <trkpt lat="49.0816" lon="-0.05522">
        <ele>14.9</ele>
        <time>2023-10-11T13:10:17Z</time>
      </trkpt>
      <trkpt lat="49.08155" lon="-0.05517">
        <ele>14.7</ele>
        <time>2023-10-11T13:10:18Z</time>
      </trkpt>
      <trkpt lat="49.08151" lon="-0.0551">
        <ele>14.7</ele>
        <time>2023-10-11T13:10:19Z</time>
      </trkpt>
      <trkpt lat="49.08148" lon="-0.05505">
        <ele>14.6</ele>
        <time>2023-10-11T13:10:20Z</time>
      </trkpt>
      <trkpt lat="49.08143" lon="-0.055">
        <ele>14.5</ele>
        <time>2023-10-11T13:10:21Z</time>
      </trkpt>
      <trkpt lat="49.08139" lon="-0.05496">
        <ele>14.5</ele>
        <time>2023-10-11T13:10:22Z</time>
      </trkpt>
      <trkpt lat="49.08135" lon="-0.05491">
        <ele>14.4</ele>
        <time>2023-10-11T13:10:23Z</time>
      </trkpt>
      <trkpt lat="49.08131" lon="-0.05486">
        <ele>14.4</ele>
        <time>2023-10-11T13:10:24Z</time>
      </trkpt>
      <trkpt lat="49.08127" lon="-0.05481">
        <ele>14.4</ele>
        <time>2023-10-11T13:10:25Z</time>
      </trkpt>
      <trkpt lat="49.08124" lon="-0.05475">
        <ele>14.3</ele>
        <time>2023-10-11T13:10:26Z</time>
      </trkpt>
      <trkpt lat="49.0812" lon="-0.0547">
        <ele>14.3</ele>
        <time>2023-10-11T13:10:27Z</time>
      </trkpt>
      <trkpt lat="49.08116" lon="-0.05465">
        <ele>14.3</ele>
        <time>2023-10-11T13:10:28Z</time>
      </trkpt>
      <trkpt lat="49.08111" lon="-0.0546">
        <ele>14.3</ele>
        <time>2023-10-11T13:10:29Z</time>
      </trkpt>
      <trkpt lat="49.08107" lon="-0.05455">
        <ele>14.2</ele>
        <time>2023-10-11T13:10:30Z</time>
      </trkpt>
      <trkpt lat="49.08102" lon="-0.0545">
        <ele>14.2</ele>
        <time>2023-10-11T13:10:31Z</time>
      </trkpt>
      <trkpt lat="49.08097" lon="-0.05444">
        <ele>14.2</ele>
        <time>2023-10-11T13:10:32Z</time>
      </trkpt>
      <trkpt lat="49.08093" lon="-0.05438">
        <ele>14.2</ele>
        <time>2023-10-11T13:10:33Z</time>
      </trkpt>
      <trkpt lat="49.08088" lon="-0.05433">
        <ele>14.2</ele>
        <time>2023-10-11T13:10:34Z</time>
      </trkpt>
      <trkpt lat="49.08083" lon="-0.05427">
        <ele>14.1</ele>
        <time>2023-10-11T13:10:35Z</time>
      </trkpt>
      <trkpt lat="49.08078" lon="-0.05421">
        <ele>14.1</ele>
        <time>2023-10-11T13:10:36Z</time>
      </trkpt>
      <trkpt lat="49.08073" lon="-0.05415">
        <ele>14.1</ele>
        <time>2023-10-11T13:10:37Z</time>
      </trkpt>
      <trkpt lat="49.08068" lon="-0.05408">
        <ele>14.1</ele>
        <time>2023-10-11T13:10:38Z</time>
      </trkpt>
      <trkpt lat="49.08063" lon="-0.05402">
        <ele>14.1</ele>
        <time>2023-10-11T13:10:39Z</time>
      </trkpt>
      <trkpt lat="49.08057" lon="-0.05395">
        <ele>14.1</ele>
        <time>2023-10-11T13:10:40Z</time>
      </trkpt>
      <trkpt lat="49.08053" lon="-0.05388">
        <ele>14.2</ele>
        <time>2023-10-11T13:10:41Z</time>
      </trkpt>
      <trkpt lat="49.08047" lon="-0.0538">
        <ele>14.2</ele>
        <time>2023-10-11T13:10:42Z</time>
      </trkpt>
      <trkpt lat="49.08042" lon="-0.05373">
        <ele>14.2</ele>
        <time>2023-10-11T13:10:43Z</time>
      </trkpt>
      <trkpt lat="49.08036" lon="-0.05365">
        <ele>14.3</ele>
        <time>2023-10-11T13:10:44Z</time>
      </trkpt>
      <trkpt lat="49.08031" lon="-0.05356">
        <ele>14.3</ele>
        <time>2023-10-11T13:10:45Z</time>
      </trkpt>
      <trkpt lat="49.08026" lon="-0.05348">
        <ele>14.4</ele>
        <time>2023-10-11T13:10:46Z</time>
      </trkpt>
      <trkpt lat="49.08021" lon="-0.0534">
        <ele>14.5</ele>
        <time>2023-10-11T13:10:47Z</time>
      </trkpt>
      <trkpt lat="49.08016" lon="-0.05332">
        <ele>14.6</ele>
        <time>2023-10-11T13:10:48Z</time>
      </trkpt>
      <trkpt lat="49.0801" lon="-0.05323">
        <ele>14.6</ele>
        <time>2023-10-11T13:10:49Z</time>
      </trkpt>
      <trkpt lat="49.08005" lon="-0.05315">
        <ele>14.7</ele>
        <time>2023-10-11T13:10:50Z</time>
      </trkpt>
      <trkpt lat="49.08" lon="-0.05307">
        <ele>14.8</ele>
        <time>2023-10-11T13:10:51Z</time>
      </trkpt>
      <trkpt lat="49.07995" lon="-0.05299">
        <ele>14.9</ele>
        <time>2023-10-11T13:10:52Z</time>
      </trkpt>
      <trkpt lat="49.0799" lon="-0.05291">
        <ele>15</ele>
        <time>2023-10-11T13:10:53Z</time>
      </trkpt>
      <trkpt lat="49.07985" lon="-0.05283">
        <ele>15</ele>
        <time>2023-10-11T13:10:54Z</time>
      </trkpt>
      <trkpt lat="49.0798" lon="-0.05275">
        <ele>15.1</ele>
        <time>2023-10-11T13:10:55Z</time>
      </trkpt>
      <trkpt lat="49.07976" lon="-0.05266">
        <ele>15.2</ele>
        <time>2023-10-11T13:10:56Z</time>
      </trkpt>
      <trkpt lat="49.07971" lon="-0.05258">
        <ele>15.3</ele>
        <time>2023-10-11T13:10:57Z</time>
      </trkpt>
      <trkpt lat="49.07967" lon="-0.0525">
        <ele>15.4</ele>
        <time>2023-10-11T13:10:58Z</time>
      </trkpt>
      <trkpt lat="49.07963" lon="-0.05242">
        <ele>15.4</ele>
        <time>2023-10-11T13:10:59Z</time>
      </trkpt>
      <trkpt lat="49.07959" lon="-0.05233">
        <ele>15.5</ele>
        <time>2023-10-11T13:11:00Z</time>
      </trkpt>
      <trkpt lat="49.07955" lon="-0.05224">
        <ele>15.5</ele>
        <time>2023-10-11T13:11:01Z</time>
      </trkpt>
      <trkpt lat="49.0795" lon="-0.05216">
        <ele>15.6</ele>
        <time>2023-10-11T13:11:02Z</time>
      </trkpt>
      <trkpt lat="49.07946" lon="-0.05208">
        <ele>15.6</ele>
        <time>2023-10-11T13:11:03Z</time>
      </trkpt>
      <trkpt lat="49.07942" lon="-0.05199">
        <ele>15.7</ele>
        <time>2023-10-11T13:11:04Z</time>
      </trkpt>
      <trkpt lat="49.07938" lon="-0.0519">
        <ele>15.8</ele>
        <time>2023-10-11T13:11:05Z</time>
      </trkpt>
      <trkpt lat="49.07934" lon="-0.05181">
        <ele>15.9</ele>
        <time>2023-10-11T13:11:06Z</time>
      </trkpt>
      <trkpt lat="49.07931" lon="-0.05172">
        <ele>16</ele>
        <time>2023-10-11T13:11:07Z</time>
      </trkpt>
      <trkpt lat="49.07927" lon="-0.05163">
        <ele>16</ele>
        <time>2023-10-11T13:11:08Z</time>
      </trkpt>
      <trkpt lat="49.07923" lon="-0.05154">
        <ele>16.1</ele>
        <time>2023-10-11T13:11:09Z</time>
      </trkpt>
      <trkpt lat="49.07919" lon="-0.05145">
        <ele>16.2</ele>
        <time>2023-10-11T13:11:10Z</time>
      </trkpt>
      <trkpt lat="49.07915" lon="-0.05136">
        <ele>16.3</ele>
        <time>2023-10-11T13:11:11Z</time>
      </trkpt>
      <trkpt lat="49.07911" lon="-0.05127">
        <ele>16.3</ele>
        <time>2023-10-11T13:11:12Z</time>
      </trkpt>
      <trkpt lat="49.07907" lon="-0.05118">
        <ele>16.4</ele>
        <time>2023-10-11T13:11:13Z</time>
      </trkpt>
      <trkpt lat="49.07903" lon="-0.05109">
        <ele>16.5</ele>
        <time>2023-10-11T13:11:14Z</time>
      </trkpt>
      <trkpt lat="49.07898" lon="-0.051">
        <ele>16.5</ele>
        <time>2023-10-11T13:11:15Z</time>
      </trkpt>
      <trkpt lat="49.07894" lon="-0.0509">
        <ele>16.6</ele>
        <time>2023-10-11T13:11:16Z</time>
      </trkpt>
      <trkpt lat="49.07889" lon="-0.05081">
        <ele>16.6</ele>
        <time>2023-10-11T13:11:17Z</time>
      </trkpt>
      <trkpt lat="49.07885" lon="-0.05071">
        <ele>16.7</ele>
        <time>2023-10-11T13:11:18Z</time>
      </trkpt>
      <trkpt lat="49.0788" lon="-0.05062">
        <ele>16.7</ele>
        <time>2023-10-11T13:11:19Z</time>
      </trkpt>
      <trkpt lat="49.07875" lon="-0.05053">
        <ele>16.8</ele>
        <time>2023-10-11T13:11:20Z</time>
      </trkpt>
      <trkpt lat="49.07871" lon="-0.05044">
        <ele>16.8</ele>
        <time>2023-10-11T13:11:21Z</time>
      </trkpt>
      <trkpt lat="49.07866" lon="-0.05034">
        <ele>16.9</ele>
        <time>2023-10-11T13:11:22Z</time>
      </trkpt>
      <trkpt lat="49.07861" lon="-0.05024">
        <ele>17</ele>
        <time>2023-10-11T13:11:23Z</time>
      </trkpt>
      <trkpt lat="49.07857" lon="-0.05014">
        <ele>17.1</ele>
        <time>2023-10-11T13:11:24Z</time>
      </trkpt>
      <trkpt lat="49.07852" lon="-0.05004">
        <ele>17.1</ele>
        <time>2023-10-11T13:11:25Z</time>
      </trkpt>
      <trkpt lat="49.07847" lon="-0.04994">
        <ele>17</ele>
        <time>2023-10-11T13:11:26Z</time>
      </trkpt>
      <trkpt lat="49.07843" lon="-0.04984">
        <ele>17</ele>
        <time>2023-10-11T13:11:27Z</time>
      </trkpt>
      <trkpt lat="49.07838" lon="-0.04973">
        <ele>17</ele>
        <time>2023-10-11T13:11:28Z</time>
      </trkpt>
      <trkpt lat="49.07834" lon="-0.04964">
        <ele>17</ele>
        <time>2023-10-11T13:11:29Z</time>
      </trkpt>
      <trkpt lat="49.07829" lon="-0.04954">
        <ele>17</ele>
        <time>2023-10-11T13:11:30Z</time>
      </trkpt>
      <trkpt lat="49.07824" lon="-0.04944">
        <ele>17</ele>
        <time>2023-10-11T13:11:31Z</time>
      </trkpt>
      <trkpt lat="49.07819" lon="-0.04935">
        <ele>17</ele>
        <time>2023-10-11T13:11:32Z</time>
      </trkpt>
      <trkpt lat="49.07815" lon="-0.04925">
        <ele>17</ele>
        <time>2023-10-11T13:11:33Z</time>
      </trkpt>
      <trkpt lat="49.0781" lon="-0.04915">
        <ele>17.1</ele>
        <time>2023-10-11T13:11:34Z</time>
      </trkpt>
      <trkpt lat="49.07806" lon="-0.04906">
        <ele>17.1</ele>
        <time>2023-10-11T13:11:35Z</time>
      </trkpt>
      <trkpt lat="49.07801" lon="-0.04896">
        <ele>17.1</ele>
        <time>2023-10-11T13:11:36Z</time>
      </trkpt>
      <trkpt lat="49.07797" lon="-0.04887">
        <ele>17.2</ele>
        <time>2023-10-11T13:11:37Z</time>
      </trkpt>
      <trkpt lat="49.07792" lon="-0.04878">
        <ele>17.2</ele>
        <time>2023-10-11T13:11:38Z</time>
      </trkpt>
      <trkpt lat="49.07787" lon="-0.04869">
        <ele>17.3</ele>
        <time>2023-10-11T13:11:39Z</time>
      </trkpt>
      <trkpt lat="49.07783" lon="-0.04859">
        <ele>17.3</ele>
        <time>2023-10-11T13:11:40Z</time>
      </trkpt>
      <trkpt lat="49.07778" lon="-0.0485">
        <ele>17.4</ele>
        <time>2023-10-11T13:11:41Z</time>
      </trkpt>
      <trkpt lat="49.07774" lon="-0.0484">
        <ele>17.5</ele>
        <time>2023-10-11T13:11:42Z</time>
      </trkpt>
      <trkpt lat="49.07769" lon="-0.04831">
        <ele>17.6</ele>
        <time>2023-10-11T13:11:43Z</time>
      </trkpt>
      <trkpt lat="49.07765" lon="-0.04822">
        <ele>17.6</ele>
        <time>2023-10-11T13:11:44Z</time>
      </trkpt>
      <trkpt lat="49.0776" lon="-0.04812">
        <ele>17.7</ele>
        <time>2023-10-11T13:11:45Z</time>
      </trkpt>
      <trkpt lat="49.07756" lon="-0.04804">
        <ele>17.8</ele>
        <time>2023-10-11T13:11:46Z</time>
      </trkpt>
      <trkpt lat="49.07751" lon="-0.04795">
        <ele>17.8</ele>
        <time>2023-10-11T13:11:47Z</time>
      </trkpt>
      <trkpt lat="49.07747" lon="-0.04786">
        <ele>17.9</ele>
        <time>2023-10-11T13:11:48Z</time>
      </trkpt>
      <trkpt lat="49.07742" lon="-0.04777">
        <ele>18</ele>
        <time>2023-10-11T13:11:49Z</time>
      </trkpt>
      <trkpt lat="49.07737" lon="-0.04768">
        <ele>18.1</ele>
        <time>2023-10-11T13:11:50Z</time>
      </trkpt>
      <trkpt lat="49.07733" lon="-0.04759">
        <ele>18.2</ele>
        <time>2023-10-11T13:11:51Z</time>
      </trkpt>
      <trkpt lat="49.07728" lon="-0.0475">
        <ele>18.3</ele>
        <time>2023-10-11T13:11:52Z</time>
      </trkpt>
      <trkpt lat="49.07724" lon="-0.04741">
        <ele>18.4</ele>
        <time>2023-10-11T13:11:53Z</time>
      </trkpt>
      <trkpt lat="49.0772" lon="-0.04732">
        <ele>18.5</ele>
        <time>2023-10-11T13:11:54Z</time>
      </trkpt>
      <trkpt lat="49.07716" lon="-0.04723">
        <ele>18.6</ele>
        <time>2023-10-11T13:11:55Z</time>
      </trkpt>
      <trkpt lat="49.07712" lon="-0.04713">
        <ele>18.7</ele>
        <time>2023-10-11T13:11:56Z</time>
      </trkpt>
      <trkpt lat="49.07709" lon="-0.04703">
        <ele>18.9</ele>
        <time>2023-10-11T13:11:57Z</time>
      </trkpt>
      <trkpt lat="49.07706" lon="-0.04692">
        <ele>19</ele>
        <time>2023-10-11T13:11:58Z</time>
      </trkpt>
      <trkpt lat="49.07704" lon="-0.04682">
        <ele>19</ele>
        <time>2023-10-11T13:11:59Z</time>
      </trkpt>
      <trkpt lat="49.07701" lon="-0.04671">
        <ele>19.1</ele>
        <time>2023-10-11T13:12:00Z</time>
      </trkpt>
      <trkpt lat="49.07699" lon="-0.0466">
        <ele>19.1</ele>
        <time>2023-10-11T13:12:01Z</time>
      </trkpt>
      <trkpt lat="49.07697" lon="-0.04649">
        <ele>19.1</ele>
        <time>2023-10-11T13:12:02Z</time>
      </trkpt>
      <trkpt lat="49.07695" lon="-0.04638">
        <ele>19</ele>
        <time>2023-10-11T13:12:03Z</time>
      </trkpt>
      <trkpt lat="49.07692" lon="-0.04627">
        <ele>19</ele>
        <time>2023-10-11T13:12:04Z</time>
      </trkpt>
      <trkpt lat="49.0769" lon="-0.04616">
        <ele>19</ele>
        <time>2023-10-11T13:12:05Z</time>
      </trkpt>
      <trkpt lat="49.07688" lon="-0.04605">
        <ele>19</ele>
        <time>2023-10-11T13:12:06Z</time>
      </trkpt>
      <trkpt lat="49.07686" lon="-0.04593">
        <ele>19</ele>
        <time>2023-10-11T13:12:07Z</time>
      </trkpt>
      <trkpt lat="49.07683" lon="-0.04582">
        <ele>19</ele>
        <time>2023-10-11T13:12:08Z</time>
      </trkpt>
      <trkpt lat="49.07681" lon="-0.04571">
        <ele>19</ele>
        <time>2023-10-11T13:12:09Z</time>
      </trkpt>
      <trkpt lat="49.07678" lon="-0.0456">
        <ele>19.1</ele>
        <time>2023-10-11T13:12:10Z</time>
      </trkpt>
      <trkpt lat="49.07676" lon="-0.04549">
        <ele>19.1</ele>
        <time>2023-10-11T13:12:11Z</time>
      </trkpt>
      <trkpt lat="49.07674" lon="-0.04538">
        <ele>19.2</ele>
        <time>2023-10-11T13:12:12Z</time>
      </trkpt>
      <trkpt lat="49.07671" lon="-0.04527">
        <ele>19.2</ele>
        <time>2023-10-11T13:12:13Z</time>
      </trkpt>
      <trkpt lat="49.07669" lon="-0.04516">
        <ele>19.3</ele>
        <time>2023-10-11T13:12:14Z</time>
      </trkpt>
      <trkpt lat="49.07667" lon="-0.04505">
        <ele>19.3</ele>
        <time>2023-10-11T13:12:15Z</time>
      </trkpt>
      <trkpt lat="49.07665" lon="-0.04494">
        <ele>19.4</ele>
        <time>2023-10-11T13:12:16Z</time>
      </trkpt>
      <trkpt lat="49.07662" lon="-0.04483">
        <ele>19.4</ele>
        <time>2023-10-11T13:12:17Z</time>
      </trkpt>
      <trkpt lat="49.07659" lon="-0.04473">
        <ele>19.5</ele>
        <time>2023-10-11T13:12:18Z</time>
      </trkpt>
      <trkpt lat="49.07656" lon="-0.04463">
        <ele>19.6</ele>
        <time>2023-10-11T13:12:19Z</time>
      </trkpt>
      <trkpt lat="49.07653" lon="-0.04452">
        <ele>19.7</ele>
        <time>2023-10-11T13:12:20Z</time>
      </trkpt>
      <trkpt lat="49.0765" lon="-0.04442">
        <ele>19.7</ele>
        <time>2023-10-11T13:12:21Z</time>
      </trkpt>
      <trkpt lat="49.07647" lon="-0.04432">
        <ele>19.8</ele>
        <time>2023-10-11T13:12:22Z</time>
      </trkpt>
      <trkpt lat="49.07644" lon="-0.04422">
        <ele>19.9</ele>
        <time>2023-10-11T13:12:23Z</time>
      </trkpt>
      <trkpt lat="49.0764" lon="-0.04411">
        <ele>20</ele>
        <time>2023-10-11T13:12:24Z</time>
      </trkpt>
      <trkpt lat="49.07638" lon="-0.044">
        <ele>20.2</ele>
        <time>2023-10-11T13:12:25Z</time>
      </trkpt>
      <trkpt lat="49.07636" lon="-0.04389">
        <ele>20.2</ele>
        <time>2023-10-11T13:12:26Z</time>
      </trkpt>
      <trkpt lat="49.07634" lon="-0.04378">
        <ele>20.3</ele>
        <time>2023-10-11T13:12:27Z</time>
      </trkpt>
      <trkpt lat="49.07633" lon="-0.04365">
        <ele>20.4</ele>
        <time>2023-10-11T13:12:28Z</time>
      </trkpt>
      <trkpt lat="49.07632" lon="-0.04353">
        <ele>20.5</ele>
        <time>2023-10-11T13:12:29Z</time>
      </trkpt>
      <trkpt lat="49.07631" lon="-0.04341">
        <ele>20.6</ele>
        <time>2023-10-11T13:12:30Z</time>
      </trkpt>
      <trkpt lat="49.07631" lon="-0.04329">
        <ele>20.7</ele>
        <time>2023-10-11T13:12:31Z</time>
      </trkpt>
      <trkpt lat="49.0763" lon="-0.04317">
        <ele>20.8</ele>
        <time>2023-10-11T13:12:32Z</time>
      </trkpt>
      <trkpt lat="49.07629" lon="-0.04305">
        <ele>21</ele>
        <time>2023-10-11T13:12:33Z</time>
      </trkpt>
      <trkpt lat="49.07628" lon="-0.04294">
        <ele>21.2</ele>
        <time>2023-10-11T13:12:34Z</time>
      </trkpt>
      <trkpt lat="49.07627" lon="-0.04283">
        <ele>21.4</ele>
        <time>2023-10-11T13:12:35Z</time>
      </trkpt>
      <trkpt lat="49.07627" lon="-0.04272">
        <ele>21.6</ele>
        <time>2023-10-11T13:12:36Z</time>
      </trkpt>
      <trkpt lat="49.07626" lon="-0.04261">
        <ele>21.8</ele>
        <time>2023-10-11T13:12:37Z</time>
      </trkpt>
      <trkpt lat="49.07625" lon="-0.0425">
        <ele>22</ele>
        <time>2023-10-11T13:12:38Z</time>
      </trkpt>
      <trkpt lat="49.07625" lon="-0.04239">
        <ele>22.2</ele>
        <time>2023-10-11T13:12:39Z</time>
      </trkpt>
      <trkpt lat="49.07625" lon="-0.04228">
        <ele>22.3</ele>
        <time>2023-10-11T13:12:40Z</time>
      </trkpt>
      <trkpt lat="49.07624" lon="-0.04217">
        <ele>22.5</ele>
        <time>2023-10-11T13:12:41Z</time>
      </trkpt>
      <trkpt lat="49.07624" lon="-0.04205">
        <ele>22.7</ele>
        <time>2023-10-11T13:12:42Z</time>
      </trkpt>
      <trkpt lat="49.07624" lon="-0.04194">
        <ele>22.9</ele>
        <time>2023-10-11T13:12:43Z</time>
      </trkpt>
      <trkpt lat="49.07624" lon="-0.04183">
        <ele>23.1</ele>
        <time>2023-10-11T13:12:44Z</time>
      </trkpt>
      <trkpt lat="49.07624" lon="-0.04172">
        <ele>23.3</ele>
        <time>2023-10-11T13:12:45Z</time>
      </trkpt>
      <trkpt lat="49.07624" lon="-0.0416">
        <ele>23.4</ele>
        <time>2023-10-11T13:12:46Z</time>
      </trkpt>
      <trkpt lat="49.07624" lon="-0.04149">
        <ele>23.6</ele>
        <time>2023-10-11T13:12:47Z</time>
      </trkpt>
      <trkpt lat="49.07624" lon="-0.04137">
        <ele>23.8</ele>
        <time>2023-10-11T13:12:48Z</time>
      </trkpt>
      <trkpt lat="49.07625" lon="-0.04126">
        <ele>24</ele>
        <time>2023-10-11T13:12:49Z</time>
      </trkpt>
      <trkpt lat="49.07625" lon="-0.04115">
        <ele>24.2</ele>
        <time>2023-10-11T13:12:50Z</time>
      </trkpt>
      <trkpt lat="49.07626" lon="-0.04103">
        <ele>24.3</ele>
        <time>2023-10-11T13:12:51Z</time>
      </trkpt>
      <trkpt lat="49.07627" lon="-0.04092">
        <ele>24.5</ele>
        <time>2023-10-11T13:12:52Z</time>
      </trkpt>
      <trkpt lat="49.07627" lon="-0.0408">
        <ele>24.6</ele>
        <time>2023-10-11T13:12:53Z</time>
      </trkpt>
      <trkpt lat="49.07628" lon="-0.04069">
        <ele>24.7</ele>
        <time>2023-10-11T13:12:54Z</time>
      </trkpt>
      <trkpt lat="49.07629" lon="-0.04057">
        <ele>24.9</ele>
        <time>2023-10-11T13:12:55Z</time>
      </trkpt>
      <trkpt lat="49.0763" lon="-0.04045">
        <ele>25</ele>
        <time>2023-10-11T13:12:56Z</time>
      </trkpt>
      <trkpt lat="49.07631" lon="-0.04034">
        <ele>25.1</ele>
        <time>2023-10-11T13:12:57Z</time>
      </trkpt>
      <trkpt lat="49.07632" lon="-0.04022">
        <ele>25.2</ele>
        <time>2023-10-11T13:12:58Z</time>
      </trkpt>
      <trkpt lat="49.07632" lon="-0.04011">
        <ele>25.3</ele>
        <time>2023-10-11T13:12:59Z</time>
      </trkpt>
      <trkpt lat="49.07633" lon="-0.03999">
        <ele>25.4</ele>
        <time>2023-10-11T13:13:00Z</time>
      </trkpt>
      <trkpt lat="49.07634" lon="-0.03988">
        <ele>25.4</ele>
        <time>2023-10-11T13:13:01Z</time>
      </trkpt>
      <trkpt lat="49.07635" lon="-0.03977">
        <ele>25.5</ele>
        <time>2023-10-11T13:13:02Z</time>
      </trkpt>
      <trkpt lat="49.07636" lon="-0.03966">
        <ele>25.6</ele>
        <time>2023-10-11T13:13:03Z</time>
      </trkpt>
      <trkpt lat="49.07637" lon="-0.03955">
        <ele>25.7</ele>
        <time>2023-10-11T13:13:04Z</time>
      </trkpt>
      <trkpt lat="49.07638" lon="-0.03943">
        <ele>25.7</ele>
        <time>2023-10-11T13:13:05Z</time>
      </trkpt>
      <trkpt lat="49.07638" lon="-0.03932">
        <ele>25.8</ele>
        <time>2023-10-11T13:13:06Z</time>
      </trkpt>
      <trkpt lat="49.07639" lon="-0.0392">
        <ele>25.8</ele>
        <time>2023-10-11T13:13:07Z</time>
      </trkpt>
      <trkpt lat="49.0764" lon="-0.03909">
        <ele>25.8</ele>
        <time>2023-10-11T13:13:08Z</time>
      </trkpt>
      <trkpt lat="49.0764" lon="-0.03897">
        <ele>25.9</ele>
        <time>2023-10-11T13:13:09Z</time>
      </trkpt>
      <trkpt lat="49.07641" lon="-0.03885">
        <ele>25.9</ele>
        <time>2023-10-11T13:13:10Z</time>
      </trkpt>
      <trkpt lat="49.07642" lon="-0.03873">
        <ele>26</ele>
        <time>2023-10-11T13:13:11Z</time>
      </trkpt>
      <trkpt lat="49.07643" lon="-0.03862">
        <ele>26</ele>
        <time>2023-10-11T13:13:12Z</time>
      </trkpt>
      <trkpt lat="49.07644" lon="-0.0385">
        <ele>26.1</ele>
        <time>2023-10-11T13:13:13Z</time>
      </trkpt>
      <trkpt lat="49.07645" lon="-0.03838">
        <ele>26.1</ele>
        <time>2023-10-11T13:13:14Z</time>
      </trkpt>
      <trkpt lat="49.07646" lon="-0.03827">
        <ele>26.2</ele>
        <time>2023-10-11T13:13:15Z</time>
      </trkpt>
      <trkpt lat="49.07647" lon="-0.03815">
        <ele>26.3</ele>
        <time>2023-10-11T13:13:16Z</time>
      </trkpt>
      <trkpt lat="49.07647" lon="-0.03804">
        <ele>26.3</ele>
        <time>2023-10-11T13:13:17Z</time>
      </trkpt>
      <trkpt lat="49.07648" lon="-0.03792">
        <ele>26.3</ele>
        <time>2023-10-11T13:13:18Z</time>
      </trkpt>
      <trkpt lat="49.07649" lon="-0.0378">
        <ele>26.4</ele>
        <time>2023-10-11T13:13:19Z</time>
      </trkpt>
      <trkpt lat="49.0765" lon="-0.03769">
        <ele>26.4</ele>
        <time>2023-10-11T13:13:20Z</time>
      </trkpt>
      <trkpt lat="49.07651" lon="-0.03757">
        <ele>26.5</ele>
        <time>2023-10-11T13:13:21Z</time>
      </trkpt>
      <trkpt lat="49.07651" lon="-0.03745">
        <ele>26.5</ele>
        <time>2023-10-11T13:13:22Z</time>
      </trkpt>
      <trkpt lat="49.07652" lon="-0.03733">
        <ele>26.5</ele>
        <time>2023-10-11T13:13:23Z</time>
      </trkpt>
      <trkpt lat="49.07653" lon="-0.03722">
        <ele>26.5</ele>
        <time>2023-10-11T13:13:24Z</time>
      </trkpt>
      <trkpt lat="49.07654" lon="-0.0371">
        <ele>26.6</ele>
        <time>2023-10-11T13:13:25Z</time>
      </trkpt>
      <trkpt lat="49.07654" lon="-0.03698">
        <ele>26.6</ele>
        <time>2023-10-11T13:13:26Z</time>
      </trkpt>
      <trkpt lat="49.07655" lon="-0.03686">
        <ele>26.6</ele>
        <time>2023-10-11T13:13:27Z</time>
      </trkpt>
      <trkpt lat="49.07655" lon="-0.03674">
        <ele>26.6</ele>
        <time>2023-10-11T13:13:28Z</time>
      </trkpt>
      <trkpt lat="49.07656" lon="-0.03662">
        <ele>26.5</ele>
        <time>2023-10-11T13:13:29Z</time>
      </trkpt>
      <trkpt lat="49.07655" lon="-0.0365">
        <ele>26.5</ele>
        <time>2023-10-11T13:13:30Z</time>
      </trkpt>
      <trkpt lat="49.07655" lon="-0.03638">
        <ele>26.5</ele>
        <time>2023-10-11T13:13:31Z</time>
      </trkpt>
      <trkpt lat="49.07654" lon="-0.03626">
        <ele>26.4</ele>
        <time>2023-10-11T13:13:32Z</time>
      </trkpt>
      <trkpt lat="49.07652" lon="-0.03614">
        <ele>26.4</ele>
        <time>2023-10-11T13:13:33Z</time>
      </trkpt>
      <trkpt lat="49.07651" lon="-0.03602">
        <ele>26.3</ele>
        <time>2023-10-11T13:13:34Z</time>
      </trkpt>
      <trkpt lat="49.07649" lon="-0.03589">
        <ele>26.2</ele>
        <time>2023-10-11T13:13:35Z</time>
      </trkpt>
      <trkpt lat="49.07647" lon="-0.03577">
        <ele>26.1</ele>
        <time>2023-10-11T13:13:36Z</time>
      </trkpt>
      <trkpt lat="49.07645" lon="-0.03565">
        <ele>26</ele>
        <time>2023-10-11T13:13:37Z</time>
      </trkpt>
      <trkpt lat="49.07643" lon="-0.03552">
        <ele>25.9</ele>
        <time>2023-10-11T13:13:38Z</time>
      </trkpt>
      <trkpt lat="49.07642" lon="-0.03539">
        <ele>25.8</ele>
        <time>2023-10-11T13:13:39Z</time>
      </trkpt>
      <trkpt lat="49.0764" lon="-0.03526">
        <ele>25.7</ele>
        <time>2023-10-11T13:13:40Z</time>
      </trkpt>
      <trkpt lat="49.07639" lon="-0.03514">
        <ele>25.6</ele>
        <time>2023-10-11T13:13:41Z</time>
      </trkpt>
      <trkpt lat="49.07638" lon="-0.03501">
        <ele>25.6</ele>
        <time>2023-10-11T13:13:42Z</time>
      </trkpt>
      <trkpt lat="49.07637" lon="-0.03488">
        <ele>25.4</ele>
        <time>2023-10-11T13:13:43Z</time>
      </trkpt>
      <trkpt lat="49.07637" lon="-0.03474">
        <ele>25.3</ele>
        <time>2023-10-11T13:13:44Z</time>
      </trkpt>
      <trkpt lat="49.07637" lon="-0.03461">
        <ele>25.2</ele>
        <time>2023-10-11T13:13:45Z</time>
      </trkpt>
      <trkpt lat="49.07637" lon="-0.03448">
        <ele>25.1</ele>
        <time>2023-10-11T13:13:46Z</time>
      </trkpt>
      <trkpt lat="49.07638" lon="-0.03435">
        <ele>25.1</ele>
        <time>2023-10-11T13:13:47Z</time>
      </trkpt>
      <trkpt lat="49.07638" lon="-0.03422">
        <ele>25</ele>
        <time>2023-10-11T13:13:48Z</time>
      </trkpt>
      <trkpt lat="49.0764" lon="-0.0341">
        <ele>24.9</ele>
        <time>2023-10-11T13:13:49Z</time>
      </trkpt>
      <trkpt lat="49.07641" lon="-0.03397">
        <ele>24.9</ele>
        <time>2023-10-11T13:13:50Z</time>
      </trkpt>
      <trkpt lat="49.07642" lon="-0.03385">
        <ele>24.9</ele>
        <time>2023-10-11T13:13:51Z</time>
      </trkpt>
      <trkpt lat="49.07643" lon="-0.03372">
        <ele>24.9</ele>
        <time>2023-10-11T13:13:52Z</time>
      </trkpt>
      <trkpt lat="49.07644" lon="-0.03359">
        <ele>24.9</ele>
        <time>2023-10-11T13:13:53Z</time>
      </trkpt>
      <trkpt lat="49.07646" lon="-0.03346">
        <ele>24.9</ele>
        <time>2023-10-11T13:13:54Z</time>
      </trkpt>
      <trkpt lat="49.07647" lon="-0.03333">
        <ele>24.9</ele>
        <time>2023-10-11T13:13:55Z</time>
      </trkpt>
      <trkpt lat="49.07649" lon="-0.0332">
        <ele>24.9</ele>
        <time>2023-10-11T13:13:56Z</time>
      </trkpt>
      <trkpt lat="49.07651" lon="-0.03307">
        <ele>25</ele>
        <time>2023-10-11T13:13:57Z</time>
      </trkpt>
      <trkpt lat="49.07652" lon="-0.03294">
        <ele>25</ele>
        <time>2023-10-11T13:13:58Z</time>
      </trkpt>
      <trkpt lat="49.07654" lon="-0.03281">
        <ele>25</ele>
        <time>2023-10-11T13:13:59Z</time>
      </trkpt>
      <trkpt lat="49.07655" lon="-0.03269">
        <ele>25.1</ele>
        <time>2023-10-11T13:14:00Z</time>
      </trkpt>
      <trkpt lat="49.07657" lon="-0.03255">
        <ele>25.1</ele>
        <time>2023-10-11T13:14:01Z</time>
      </trkpt>
      <trkpt lat="49.07659" lon="-0.03242">
        <ele>25.1</ele>
        <time>2023-10-11T13:14:02Z</time>
      </trkpt>
      <trkpt lat="49.0766" lon="-0.0323">
        <ele>25.1</ele>
        <time>2023-10-11T13:14:03Z</time>
      </trkpt>
      <trkpt lat="49.07662" lon="-0.03217">
        <ele>25.2</ele>
        <time>2023-10-11T13:14:04Z</time>
      </trkpt>
      <trkpt lat="49.07663" lon="-0.03204">
        <ele>25.2</ele>
        <time>2023-10-11T13:14:05Z</time>
      </trkpt>
      <trkpt lat="49.07664" lon="-0.03191">
        <ele>25.3</ele>
        <time>2023-10-11T13:14:06Z</time>
      </trkpt>
      <trkpt lat="49.07666" lon="-0.03179">
        <ele>25.3</ele>
        <time>2023-10-11T13:14:07Z</time>
      </trkpt>
      <trkpt lat="49.07667" lon="-0.03166">
        <ele>25.4</ele>
        <time>2023-10-11T13:14:08Z</time>
      </trkpt>
      <trkpt lat="49.07669" lon="-0.03153">
        <ele>25.5</ele>
        <time>2023-10-11T13:14:09Z</time>
      </trkpt>
      <trkpt lat="49.07671" lon="-0.03139">
        <ele>25.5</ele>
        <time>2023-10-11T13:14:10Z</time>
      </trkpt>
      <trkpt lat="49.07673" lon="-0.03126">
        <ele>25.6</ele>
        <time>2023-10-11T13:14:11Z</time>
      </trkpt>
      <trkpt lat="49.07674" lon="-0.03113">
        <ele>25.6</ele>
        <time>2023-10-11T13:14:12Z</time>
      </trkpt>
      <trkpt lat="49.07676" lon="-0.031">
        <ele>25.7</ele>
        <time>2023-10-11T13:14:13Z</time>
      </trkpt>
      <trkpt lat="49.07678" lon="-0.03087">
        <ele>25.7</ele>
        <time>2023-10-11T13:14:14Z</time>
      </trkpt>
      <trkpt lat="49.0768" lon="-0.03073">
        <ele>25.7</ele>
        <time>2023-10-11T13:14:15Z</time>
      </trkpt>
      <trkpt lat="49.07682" lon="-0.0306">
        <ele>25.8</ele>
        <time>2023-10-11T13:14:16Z</time>
      </trkpt>
      <trkpt lat="49.07685" lon="-0.03047">
        <ele>25.9</ele>
        <time>2023-10-11T13:14:17Z</time>
      </trkpt>
      <trkpt lat="49.07687" lon="-0.03033">
        <ele>25.9</ele>
        <time>2023-10-11T13:14:18Z</time>
      </trkpt>
      <trkpt lat="49.0769" lon="-0.0302">
        <ele>26</ele>
        <time>2023-10-11T13:14:19Z</time>
      </trkpt>
      <trkpt lat="49.07692" lon="-0.03006">
        <ele>26</ele>
        <time>2023-10-11T13:14:20Z</time>
      </trkpt>
      <trkpt lat="49.07694" lon="-0.02993">
        <ele>26</ele>
        <time>2023-10-11T13:14:21Z</time>
      </trkpt>
      <trkpt lat="49.07696" lon="-0.02979">
        <ele>26</ele>
        <time>2023-10-11T13:14:22Z</time>
      </trkpt>
      <trkpt lat="49.07699" lon="-0.02965">
        <ele>26</ele>
        <time>2023-10-11T13:14:23Z</time>
      </trkpt>
      <trkpt lat="49.077" lon="-0.02952">
        <ele>25.9</ele>
        <time>2023-10-11T13:14:24Z</time>
      </trkpt>
      <trkpt lat="49.07702" lon="-0.02938">
        <ele>25.9</ele>
        <time>2023-10-11T13:14:25Z</time>
      </trkpt>
      <trkpt lat="49.07702" lon="-0.02924">
        <ele>25.8</ele>
        <time>2023-10-11T13:14:26Z</time>
      </trkpt>
      <trkpt lat="49.07703" lon="-0.0291">
        <ele>25.7</ele>
        <time>2023-10-11T13:14:27Z</time>
      </trkpt>
      <trkpt lat="49.07703" lon="-0.02896">
        <ele>25.7</ele>
        <time>2023-10-11T13:14:28Z</time>
      </trkpt>
      <trkpt lat="49.07703" lon="-0.02882">
        <ele>25.6</ele>
        <time>2023-10-11T13:14:29Z</time>
      </trkpt>
      <trkpt lat="49.07703" lon="-0.02868">
        <ele>25.5</ele>
        <time>2023-10-11T13:14:30Z</time>
      </trkpt>
      <trkpt lat="49.07703" lon="-0.02854">
        <ele>25.4</ele>
        <time>2023-10-11T13:14:31Z</time>
      </trkpt>
      <trkpt lat="49.07703" lon="-0.0284">
        <ele>25.3</ele>
        <time>2023-10-11T13:14:32Z</time>
      </trkpt>
      <trkpt lat="49.07703" lon="-0.02825">
        <ele>25.2</ele>
        <time>2023-10-11T13:14:33Z</time>
      </trkpt>
      <trkpt lat="49.07702" lon="-0.02811">
        <ele>25.1</ele>
        <time>2023-10-11T13:14:34Z</time>
      </trkpt>
      <trkpt lat="49.07702" lon="-0.02797">
        <ele>24.9</ele>
        <time>2023-10-11T13:14:35Z</time>
      </trkpt>
      <trkpt lat="49.07702" lon="-0.02783">
        <ele>24.8</ele>
        <time>2023-10-11T13:14:36Z</time>
      </trkpt>
      <trkpt lat="49.07701" lon="-0.02769">
        <ele>24.7</ele>
        <time>2023-10-11T13:14:37Z</time>
      </trkpt>
      <trkpt lat="49.077" lon="-0.02755">
        <ele>24.5</ele>
        <time>2023-10-11T13:14:38Z</time>
      </trkpt>
      <trkpt lat="49.077" lon="-0.02741">
        <ele>24.5</ele>
        <time>2023-10-11T13:14:39Z</time>
      </trkpt>
      <trkpt lat="49.07698" lon="-0.02727">
        <ele>24.4</ele>
        <time>2023-10-11T13:14:40Z</time>
      </trkpt>
      <trkpt lat="49.07697" lon="-0.02713">
        <ele>24.3</ele>
        <time>2023-10-11T13:14:41Z</time>
      </trkpt>
      <trkpt lat="49.07696" lon="-0.02699">
        <ele>24.3</ele>
        <time>2023-10-11T13:14:42Z</time>
      </trkpt>
      <trkpt lat="49.07694" lon="-0.02685">
        <ele>24.4</ele>
        <time>2023-10-11T13:14:43Z</time>
      </trkpt>
      <trkpt lat="49.07692" lon="-0.02671">
        <ele>24.5</ele>
        <time>2023-10-11T13:14:44Z</time>
      </trkpt>
      <trkpt lat="49.0769" lon="-0.02657">
        <ele>24.6</ele>
        <time>2023-10-11T13:14:45Z</time>
      </trkpt>
      <trkpt lat="49.07688" lon="-0.02643">
        <ele>24.7</ele>
        <time>2023-10-11T13:14:46Z</time>
      </trkpt>
      <trkpt lat="49.07686" lon="-0.0263">
        <ele>24.9</ele>
        <time>2023-10-11T13:14:47Z</time>
      </trkpt>
      <trkpt lat="49.07683" lon="-0.02618">
        <ele>25.1</ele>
        <time>2023-10-11T13:14:48Z</time>
      </trkpt>
      <trkpt lat="49.07679" lon="-0.02607">
        <ele>25.2</ele>
        <time>2023-10-11T13:14:49Z</time>
      </trkpt>
      <trkpt lat="49.07676" lon="-0.02595">
        <ele>25.3</ele>
        <time>2023-10-11T13:14:50Z</time>
      </trkpt>
      <trkpt lat="49.07672" lon="-0.02584">
        <ele>25.4</ele>
        <time>2023-10-11T13:14:51Z</time>
      </trkpt>
      <trkpt lat="49.07668" lon="-0.02573">
        <ele>25.5</ele>
        <time>2023-10-11T13:14:52Z</time>
      </trkpt>
      <trkpt lat="49.07664" lon="-0.02563">
        <ele>25.6</ele>
        <time>2023-10-11T13:14:53Z</time>
      </trkpt>
      <trkpt lat="49.0766" lon="-0.02553">
        <ele>25.7</ele>
        <time>2023-10-11T13:14:54Z</time>
      </trkpt>
      <trkpt lat="49.07655" lon="-0.02543">
        <ele>25.7</ele>
        <time>2023-10-11T13:14:55Z</time>
      </trkpt>
      <trkpt lat="49.0765" lon="-0.02534">
        <ele>25.7</ele>
        <time>2023-10-11T13:14:56Z</time>
      </trkpt>
      <trkpt lat="49.07644" lon="-0.02526">
        <ele>25.7</ele>
        <time>2023-10-11T13:14:57Z</time>
      </trkpt>
      <trkpt lat="49.07639" lon="-0.02518">
        <ele>25.7</ele>
        <time>2023-10-11T13:14:58Z</time>
      </trkpt>
      <trkpt lat="49.07633" lon="-0.0251">
        <ele>25.7</ele>
        <time>2023-10-11T13:14:59Z</time>
      </trkpt>
      <trkpt lat="49.07627" lon="-0.02501">
        <ele>25.4</ele>
        <time>2023-10-11T13:15:00Z</time>
      </trkpt>
      <trkpt lat="49.07622" lon="-0.02492">
        <ele>25.2</ele>
        <time>2023-10-11T13:15:01Z</time>
      </trkpt>
      <trkpt lat="49.07617" lon="-0.02484">
        <ele>24.9</ele>
        <time>2023-10-11T13:15:02Z</time>
      </trkpt>
      <trkpt lat="49.07613" lon="-0.02475">
        <ele>24.6</ele>
        <time>2023-10-11T13:15:03Z</time>
      </trkpt>
      <trkpt lat="49.07608" lon="-0.02466">
        <ele>24.3</ele>
        <time>2023-10-11T13:15:04Z</time>
      </trkpt>
      <trkpt lat="49.07604" lon="-0.02456">
        <ele>24</ele>
        <time>2023-10-11T13:15:05Z</time>
      </trkpt>
      <trkpt lat="49.076" lon="-0.02447">
        <ele>23.7</ele>
        <time>2023-10-11T13:15:06Z</time>
      </trkpt>
      <trkpt lat="49.07597" lon="-0.02436">
        <ele>23.3</ele>
        <time>2023-10-11T13:15:07Z</time>
      </trkpt>
      <trkpt lat="49.07594" lon="-0.02426">
        <ele>23</ele>
        <time>2023-10-11T13:15:08Z</time>
      </trkpt>
      <trkpt lat="49.07591" lon="-0.02415">
        <ele>22.7</ele>
        <time>2023-10-11T13:15:09Z</time>
      </trkpt>
      <trkpt lat="49.07589" lon="-0.02403">
        <ele>22.4</ele>
        <time>2023-10-11T13:15:10Z</time>
      </trkpt>
      <trkpt lat="49.07586" lon="-0.02393">
        <ele>22.1</ele>
        <time>2023-10-11T13:15:11Z</time>
      </trkpt>
      <trkpt lat="49.07581" lon="-0.02386">
        <ele>21.8</ele>
        <time>2023-10-11T13:15:12Z</time>
      </trkpt>
      <trkpt lat="49.07575" lon="-0.02383">
        <ele>20.9</ele>
        <time>2023-10-11T13:15:13Z</time>
      </trkpt>
      <trkpt lat="49.07567" lon="-0.02384">
        <ele>20.5</ele>
        <time>2023-10-11T13:15:14Z</time>
      </trkpt>
      <trkpt lat="49.0756" lon="-0.02388">
        <ele>20.1</ele>
        <time>2023-10-11T13:15:15Z</time>
      </trkpt>
      <trkpt lat="49.07554" lon="-0.02393">
        <ele>19.7</ele>
        <time>2023-10-11T13:15:16Z</time>
      </trkpt>
      <trkpt lat="49.07547" lon="-0.024">
        <ele>19.3</ele>
        <time>2023-10-11T13:15:17Z</time>
      </trkpt>
      <trkpt lat="49.0754" lon="-0.02409">
        <ele>18.9</ele>
        <time>2023-10-11T13:15:18Z</time>
      </trkpt>
      <trkpt lat="49.07533" lon="-0.0242">
        <ele>18.6</ele>
        <time>2023-10-11T13:15:19Z</time>
      </trkpt>
      <trkpt lat="49.07527" lon="-0.02431">
        <ele>18.4</ele>
        <time>2023-10-11T13:15:20Z</time>
      </trkpt>
      <trkpt lat="49.0752" lon="-0.02442">
        <ele>18.3</ele>
        <time>2023-10-11T13:15:21Z</time>
      </trkpt>
      <trkpt lat="49.07514" lon="-0.02453">
        <ele>18.2</ele>
        <time>2023-10-11T13:15:22Z</time>
      </trkpt>
      <trkpt lat="49.07508" lon="-0.02463">
        <ele>18.2</ele>
        <time>2023-10-11T13:15:23Z</time>
      </trkpt>
      <trkpt lat="49.07502" lon="-0.02473">
        <ele>18.2</ele>
        <time>2023-10-11T13:15:24Z</time>
      </trkpt>
      <trkpt lat="49.07496" lon="-0.02482">
        <ele>18.2</ele>
        <time>2023-10-11T13:15:25Z</time>
      </trkpt>
      <trkpt lat="49.0749" lon="-0.02492">
        <ele>18.2</ele>
        <time>2023-10-11T13:15:26Z</time>
      </trkpt>
      <trkpt lat="49.07485" lon="-0.02502">
        <ele>18.3</ele>
        <time>2023-10-11T13:15:27Z</time>
      </trkpt>
      <trkpt lat="49.0748" lon="-0.0251">
        <ele>18.3</ele>
        <time>2023-10-11T13:15:28Z</time>
      </trkpt>
      <trkpt lat="49.07474" lon="-0.02519">
        <ele>18.4</ele>
        <time>2023-10-11T13:15:29Z</time>
      </trkpt>
      <trkpt lat="49.07469" lon="-0.02527">
        <ele>18.4</ele>
        <time>2023-10-11T13:15:30Z</time>
      </trkpt>
      <trkpt lat="49.07464" lon="-0.02536">
        <ele>18.5</ele>
        <time>2023-10-11T13:15:31Z</time>
      </trkpt>
      <trkpt lat="49.07459" lon="-0.02544">
        <ele>18.5</ele>
        <time>2023-10-11T13:15:32Z</time>
      </trkpt>
      <trkpt lat="49.07454" lon="-0.02553">
        <ele>18.5</ele>
        <time>2023-10-11T13:15:33Z</time>
      </trkpt>
      <trkpt lat="49.0745" lon="-0.02561">
        <ele>18.5</ele>
        <time>2023-10-11T13:15:34Z</time>
      </trkpt>
      <trkpt lat="49.07444" lon="-0.0257">
        <ele>18.6</ele>
        <time>2023-10-11T13:15:35Z</time>
      </trkpt>
      <trkpt lat="49.07439" lon="-0.02578">
        <ele>18.6</ele>
        <time>2023-10-11T13:15:36Z</time>
      </trkpt>
      <trkpt lat="49.07434" lon="-0.02587">
        <ele>18.6</ele>
        <time>2023-10-11T13:15:37Z</time>
      </trkpt>
      <trkpt lat="49.07429" lon="-0.02596">
        <ele>18.6</ele>
        <time>2023-10-11T13:15:38Z</time>
      </trkpt>
      <trkpt lat="49.07424" lon="-0.02605">
        <ele>18.6</ele>
        <time>2023-10-11T13:15:39Z</time>
      </trkpt>
      <trkpt lat="49.07419" lon="-0.02614">
        <ele>18.6</ele>
        <time>2023-10-11T13:15:40Z</time>
      </trkpt>
      <trkpt lat="49.07415" lon="-0.02623">
        <ele>18.7</ele>
        <time>2023-10-11T13:15:41Z</time>
      </trkpt>
      <trkpt lat="49.0741" lon="-0.02633">
        <ele>18.7</ele>
        <time>2023-10-11T13:15:42Z</time>
      </trkpt>
      <trkpt lat="49.07406" lon="-0.02642">
        <ele>18.7</ele>
        <time>2023-10-11T13:15:43Z</time>
      </trkpt>
      <trkpt lat="49.07401" lon="-0.02651">
        <ele>18.8</ele>
        <time>2023-10-11T13:15:44Z</time>
      </trkpt>
      <trkpt lat="49.07397" lon="-0.02661">
        <ele>18.9</ele>
        <time>2023-10-11T13:15:45Z</time>
      </trkpt>
      <trkpt lat="49.07393" lon="-0.02671">
        <ele>18.9</ele>
        <time>2023-10-11T13:15:46Z</time>
      </trkpt>
      <trkpt lat="49.07389" lon="-0.02681">
        <ele>19</ele>
        <time>2023-10-11T13:15:47Z</time>
      </trkpt>
      <trkpt lat="49.07386" lon="-0.02691">
        <ele>19</ele>
        <time>2023-10-11T13:15:48Z</time>
      </trkpt>
      <trkpt lat="49.07384" lon="-0.02702">
        <ele>19</ele>
        <time>2023-10-11T13:15:49Z</time>
      </trkpt>
      <trkpt lat="49.07381" lon="-0.02713">
        <ele>19</ele>
        <time>2023-10-11T13:15:50Z</time>
      </trkpt>
      <trkpt lat="49.07379" lon="-0.02725">
        <ele>19</ele>
        <time>2023-10-11T13:15:51Z</time>
      </trkpt>
      <trkpt lat="49.07377" lon="-0.02736">
        <ele>19</ele>
        <time>2023-10-11T13:15:52Z</time>
      </trkpt>
      <trkpt lat="49.07375" lon="-0.02748">
        <ele>18.9</ele>
        <time>2023-10-11T13:15:53Z</time>
      </trkpt>
      <trkpt lat="49.07373" lon="-0.0276">
        <ele>18.9</ele>
        <time>2023-10-11T13:15:54Z</time>
      </trkpt>
      <trkpt lat="49.07371" lon="-0.02771">
        <ele>18.9</ele>
        <time>2023-10-11T13:15:55Z</time>
      </trkpt>
      <trkpt lat="49.07368" lon="-0.02783">
        <ele>18.8</ele>
        <time>2023-10-11T13:15:56Z</time>
      </trkpt>
      <trkpt lat="49.07366" lon="-0.02795">
        <ele>18.8</ele>
        <time>2023-10-11T13:15:57Z</time>
      </trkpt>
      <trkpt lat="49.07364" lon="-0.02807">
        <ele>18.8</ele>
        <time>2023-10-11T13:15:58Z</time>
      </trkpt>
      <trkpt lat="49.07361" lon="-0.02819">
        <ele>18.7</ele>
        <time>2023-10-11T13:15:59Z</time>
      </trkpt>
      <trkpt lat="49.07359" lon="-0.02831">
        <ele>18.7</ele>
        <time>2023-10-11T13:16:00Z</time>
      </trkpt>
      <trkpt lat="49.07357" lon="-0.02842">
        <ele>18.7</ele>
        <time>2023-10-11T13:16:01Z</time>
      </trkpt>
      <trkpt lat="49.07355" lon="-0.02854">
        <ele>18.7</ele>
        <time>2023-10-11T13:16:02Z</time>
      </trkpt>
      <trkpt lat="49.07353" lon="-0.02866">
        <ele>18.7</ele>
        <time>2023-10-11T13:16:03Z</time>
      </trkpt>
      <trkpt lat="49.07351" lon="-0.02878">
        <ele>18.7</ele>
        <time>2023-10-11T13:16:04Z</time>
      </trkpt>
      <trkpt lat="49.07349" lon="-0.02889">
        <ele>18.6</ele>
        <time>2023-10-11T13:16:05Z</time>
      </trkpt>
      <trkpt lat="49.07348" lon="-0.029">
        <ele>18.6</ele>
        <time>2023-10-11T13:16:06Z</time>
      </trkpt>
      <trkpt lat="49.07348" lon="-0.02912">
        <ele>18.6</ele>
        <time>2023-10-11T13:16:07Z</time>
      </trkpt>
      <trkpt lat="49.07348" lon="-0.02924">
        <ele>18.6</ele>
        <time>2023-10-11T13:16:08Z</time>
      </trkpt>
      <trkpt lat="49.07349" lon="-0.02936">
        <ele>18.5</ele>
        <time>2023-10-11T13:16:09Z</time>
      </trkpt>
      <trkpt lat="49.07351" lon="-0.02948">
        <ele>18.5</ele>
        <time>2023-10-11T13:16:10Z</time>
      </trkpt>
      <trkpt lat="49.07353" lon="-0.02959">
        <ele>18.5</ele>
        <time>2023-10-11T13:16:11Z</time>
      </trkpt>
      <trkpt lat="49.07355" lon="-0.02971">
        <ele>18.4</ele>
        <time>2023-10-11T13:16:12Z</time>
      </trkpt>
      <trkpt lat="49.07359" lon="-0.02982">
        <ele>18.4</ele>
        <time>2023-10-11T13:16:13Z</time>
      </trkpt>
      <trkpt lat="49.07362" lon="-0.02993">
        <ele>18.4</ele>
        <time>2023-10-11T13:16:14Z</time>
      </trkpt>
      <trkpt lat="49.07366" lon="-0.03004">
        <ele>18.4</ele>
        <time>2023-10-11T13:16:15Z</time>
      </trkpt>
      <trkpt lat="49.0737" lon="-0.03015">
        <ele>18.4</ele>
        <time>2023-10-11T13:16:16Z</time>
      </trkpt>
      <trkpt lat="49.07374" lon="-0.03026">
        <ele>18.4</ele>
        <time>2023-10-11T13:16:17Z</time>
      </trkpt>
      <trkpt lat="49.07377" lon="-0.03036">
        <ele>18.4</ele>
        <time>2023-10-11T13:16:18Z</time>
      </trkpt>
      <trkpt lat="49.07381" lon="-0.03048">
        <ele>18.4</ele>
        <time>2023-10-11T13:16:19Z</time>
      </trkpt>
      <trkpt lat="49.07385" lon="-0.03059">
        <ele>18.4</ele>
        <time>2023-10-11T13:16:20Z</time>
      </trkpt>
      <trkpt lat="49.07388" lon="-0.0307">
        <ele>18.4</ele>
        <time>2023-10-11T13:16:21Z</time>
      </trkpt>
      <trkpt lat="49.07392" lon="-0.03081">
        <ele>18.4</ele>
        <time>2023-10-11T13:16:22Z</time>
      </trkpt>
      <trkpt lat="49.07395" lon="-0.03092">
        <ele>18.4</ele>
        <time>2023-10-11T13:16:23Z</time>
      </trkpt>
      <trkpt lat="49.07398" lon="-0.03103">
        <ele>18.4</ele>
        <time>2023-10-11T13:16:24Z</time>
      </trkpt>
      <trkpt lat="49.074" lon="-0.03114">
        <ele>18.4</ele>
        <time>2023-10-11T13:16:25Z</time>
      </trkpt>
      <trkpt lat="49.07402" lon="-0.03126">
        <ele>18.4</ele>
        <time>2023-10-11T13:16:26Z</time>
      </trkpt>
      <trkpt lat="49.07403" lon="-0.03138">
        <ele>18.4</ele>
        <time>2023-10-11T13:16:27Z</time>
      </trkpt>
      <trkpt lat="49.07403" lon="-0.03149">
        <ele>18.4</ele>
        <time>2023-10-11T13:16:28Z</time>
      </trkpt>
      <trkpt lat="49.07404" lon="-0.03161">
        <ele>18.4</ele>
        <time>2023-10-11T13:16:29Z</time>
      </trkpt>
      <trkpt lat="49.07404" lon="-0.03173">
        <ele>18.4</ele>
        <time>2023-10-11T13:16:30Z</time>
      </trkpt>
      <trkpt lat="49.07404" lon="-0.03185">
        <ele>18.4</ele>
        <time>2023-10-11T13:16:31Z</time>
      </trkpt>
      <trkpt lat="49.07404" lon="-0.03197">
        <ele>18.4</ele>
        <time>2023-10-11T13:16:32Z</time>
      </trkpt>
      <trkpt lat="49.07403" lon="-0.0321">
        <ele>18.4</ele>
        <time>2023-10-11T13:16:33Z</time>
      </trkpt>
      <trkpt lat="49.07402" lon="-0.03222">
        <ele>18.4</ele>
        <time>2023-10-11T13:16:34Z</time>
      </trkpt>
      <trkpt lat="49.07401" lon="-0.03235">
        <ele>18.4</ele>
        <time>2023-10-11T13:16:35Z</time>
      </trkpt>
      <trkpt lat="49.07399" lon="-0.03247">
        <ele>18.4</ele>
        <time>2023-10-11T13:16:36Z</time>
      </trkpt>
      <trkpt lat="49.07397" lon="-0.03259">
        <ele>18.4</ele>
        <time>2023-10-11T13:16:37Z</time>
      </trkpt>
      <trkpt lat="49.07395" lon="-0.03271">
        <ele>18.5</ele>
        <time>2023-10-11T13:16:38Z</time>
      </trkpt>
      <trkpt lat="49.07392" lon="-0.03283">
        <ele>18.5</ele>
        <time>2023-10-11T13:16:39Z</time>
      </trkpt>
      <trkpt lat="49.07389" lon="-0.03295">
        <ele>18.5</ele>
        <time>2023-10-11T13:16:40Z</time>
      </trkpt>
      <trkpt lat="49.07386" lon="-0.03306">
        <ele>18.5</ele>
        <time>2023-10-11T13:16:41Z</time>
      </trkpt>
      <trkpt lat="49.07383" lon="-0.03317">
        <ele>18.5</ele>
        <time>2023-10-11T13:16:42Z</time>
      </trkpt>
      <trkpt lat="49.0738" lon="-0.03329">
        <ele>18.5</ele>
        <time>2023-10-11T13:16:43Z</time>
      </trkpt>
      <trkpt lat="49.07377" lon="-0.0334">
        <ele>18.5</ele>
        <time>2023-10-11T13:16:44Z</time>
      </trkpt>
      <trkpt lat="49.07374" lon="-0.03352">
        <ele>18.5</ele>
        <time>2023-10-11T13:16:45Z</time>
      </trkpt>
      <trkpt lat="49.07371" lon="-0.03364">
        <ele>18.5</ele>
        <time>2023-10-11T13:16:46Z</time>
      </trkpt>
      <trkpt lat="49.07368" lon="-0.03375">
        <ele>18.5</ele>
        <time>2023-10-11T13:16:47Z</time>
      </trkpt>
      <trkpt lat="49.07365" lon="-0.03387">
        <ele>18.5</ele>
        <time>2023-10-11T13:16:48Z</time>
      </trkpt>
      <trkpt lat="49.07361" lon="-0.03398">
        <ele>18.5</ele>
        <time>2023-10-11T13:16:49Z</time>
      </trkpt>
      <trkpt lat="49.07358" lon="-0.0341">
        <ele>18.5</ele>
        <time>2023-10-11T13:16:50Z</time>
      </trkpt>
      <trkpt lat="49.07355" lon="-0.03421">
        <ele>18.5</ele>
        <time>2023-10-11T13:16:51Z</time>
      </trkpt>
      <trkpt lat="49.07352" lon="-0.03432">
        <ele>18.5</ele>
        <time>2023-10-11T13:16:52Z</time>
      </trkpt>
      <trkpt lat="49.07349" lon="-0.03443">
        <ele>18.4</ele>
        <time>2023-10-11T13:16:53Z</time>
      </trkpt>
      <trkpt lat="49.07346" lon="-0.03454">
        <ele>18.4</ele>
        <time>2023-10-11T13:16:54Z</time>
      </trkpt>
      <trkpt lat="49.07343" lon="-0.03465">
        <ele>18.3</ele>
        <time>2023-10-11T13:16:55Z</time>
      </trkpt>
      <trkpt lat="49.07339" lon="-0.03476">
        <ele>18.2</ele>
        <time>2023-10-11T13:16:56Z</time>
      </trkpt>
      <trkpt lat="49.07336" lon="-0.03486">
        <ele>18.2</ele>
        <time>2023-10-11T13:16:57Z</time>
      </trkpt>
      <trkpt lat="49.07332" lon="-0.03497">
        <ele>18.1</ele>
        <time>2023-10-11T13:16:58Z</time>
      </trkpt>
      <trkpt lat="49.07329" lon="-0.03507">
        <ele>18.1</ele>
        <time>2023-10-11T13:16:59Z</time>
      </trkpt>
      <trkpt lat="49.07326" lon="-0.03517">
        <ele>18.1</ele>
        <time>2023-10-11T13:17:00Z</time>
      </trkpt>
      <trkpt lat="49.07322" lon="-0.03527">
        <ele>18</ele>
        <time>2023-10-11T13:17:01Z</time>
      </trkpt>
      <trkpt lat="49.07319" lon="-0.03537">
        <ele>18</ele>
        <time>2023-10-11T13:17:02Z</time>
      </trkpt>
      <trkpt lat="49.07316" lon="-0.03547">
        <ele>18</ele>
        <time>2023-10-11T13:17:03Z</time>
      </trkpt>
      <trkpt lat="49.07313" lon="-0.03558">
        <ele>18</ele>
        <time>2023-10-11T13:17:04Z</time>
      </trkpt>
      <trkpt lat="49.07311" lon="-0.03568">
        <ele>18</ele>
        <time>2023-10-11T13:17:05Z</time>
      </trkpt>
      <trkpt lat="49.07309" lon="-0.0358">
        <ele>17.9</ele>
        <time>2023-10-11T13:17:06Z</time>
      </trkpt>
      <trkpt lat="49.07307" lon="-0.03591">
        <ele>17.9</ele>
        <time>2023-10-11T13:17:07Z</time>
      </trkpt>
      <trkpt lat="49.07305" lon="-0.03602">
        <ele>17.9</ele>
        <time>2023-10-11T13:17:08Z</time>
      </trkpt>
      <trkpt lat="49.07303" lon="-0.03613">
        <ele>17.8</ele>
        <time>2023-10-11T13:17:09Z</time>
      </trkpt>
      <trkpt lat="49.07302" lon="-0.03625">
        <ele>17.8</ele>
        <time>2023-10-11T13:17:10Z</time>
      </trkpt>
      <trkpt lat="49.07301" lon="-0.03636">
        <ele>17.8</ele>
        <time>2023-10-11T13:17:11Z</time>
      </trkpt>
      <trkpt lat="49.073" lon="-0.03648">
        <ele>17.7</ele>
        <time>2023-10-11T13:17:12Z</time>
      </trkpt>
      <trkpt lat="49.07299" lon="-0.03659">
        <ele>17.7</ele>
        <time>2023-10-11T13:17:13Z</time>
      </trkpt>
      <trkpt lat="49.07298" lon="-0.03671">
        <ele>17.7</ele>
        <time>2023-10-11T13:17:14Z</time>
      </trkpt>
      <trkpt lat="49.07297" lon="-0.03683">
        <ele>17.7</ele>
        <time>2023-10-11T13:17:15Z</time>
      </trkpt>
      <trkpt lat="49.07297" lon="-0.03695">
        <ele>17.7</ele>
        <time>2023-10-11T13:17:16Z</time>
      </trkpt>
      <trkpt lat="49.07296" lon="-0.03707">
        <ele>17.7</ele>
        <time>2023-10-11T13:17:17Z</time>
      </trkpt>
      <trkpt lat="49.07295" lon="-0.03718">
        <ele>17.8</ele>
        <time>2023-10-11T13:17:18Z</time>
      </trkpt>
      <trkpt lat="49.07293" lon="-0.0373">
        <ele>17.8</ele>
        <time>2023-10-11T13:17:19Z</time>
      </trkpt>
      <trkpt lat="49.07291" lon="-0.03741">
        <ele>17.8</ele>
        <time>2023-10-11T13:17:20Z</time>
      </trkpt>
      <trkpt lat="49.07289" lon="-0.03752">
        <ele>17.9</ele>
        <time>2023-10-11T13:17:21Z</time>
      </trkpt>
      <trkpt lat="49.07285" lon="-0.03762">
        <ele>17.9</ele>
        <time>2023-10-11T13:17:22Z</time>
      </trkpt>
      <trkpt lat="49.07281" lon="-0.03772">
        <ele>18</ele>
        <time>2023-10-11T13:17:23Z</time>
      </trkpt>
      <trkpt lat="49.07277" lon="-0.03781">
        <ele>18</ele>
        <time>2023-10-11T13:17:24Z</time>
      </trkpt>
      <trkpt lat="49.07272" lon="-0.0379">
        <ele>18.1</ele>
        <time>2023-10-11T13:17:25Z</time>
      </trkpt>
      <trkpt lat="49.07267" lon="-0.03799">
        <ele>18.2</ele>
        <time>2023-10-11T13:17:26Z</time>
      </trkpt>
      <trkpt lat="49.07262" lon="-0.03807">
        <ele>18.2</ele>
        <time>2023-10-11T13:17:27Z</time>
      </trkpt>
      <trkpt lat="49.07255" lon="-0.03814">
        <ele>18.3</ele>
        <time>2023-10-11T13:17:28Z</time>
      </trkpt>
      <trkpt lat="49.07248" lon="-0.0382">
        <ele>18.3</ele>
        <time>2023-10-11T13:17:29Z</time>
      </trkpt>
      <trkpt lat="49.0724" lon="-0.03826">
        <ele>18.4</ele>
        <time>2023-10-11T13:17:30Z</time>
      </trkpt>
      <trkpt lat="49.07232" lon="-0.0383">
        <ele>18.4</ele>
        <time>2023-10-11T13:17:31Z</time>
      </trkpt>
      <trkpt lat="49.07224" lon="-0.03833">
        <ele>18.4</ele>
        <time>2023-10-11T13:17:32Z</time>
      </trkpt>
      <trkpt lat="49.07217" lon="-0.03835">
        <ele>18.4</ele>
        <time>2023-10-11T13:17:33Z</time>
      </trkpt>
      <trkpt lat="49.07209" lon="-0.03836">
        <ele>18.5</ele>
        <time>2023-10-11T13:17:34Z</time>
      </trkpt>
      <trkpt lat="49.07201" lon="-0.03837">
        <ele>18.5</ele>
        <time>2023-10-11T13:17:35Z</time>
      </trkpt>
      <trkpt lat="49.07193" lon="-0.03836">
        <ele>18.5</ele>
        <time>2023-10-11T13:17:36Z</time>
      </trkpt>
      <trkpt lat="49.07186" lon="-0.03834">
        <ele>18.5</ele>
        <time>2023-10-11T13:17:37Z</time>
      </trkpt>
      <trkpt lat="49.07178" lon="-0.0383">
        <ele>18.5</ele>
        <time>2023-10-11T13:17:38Z</time>
      </trkpt>
      <trkpt lat="49.07171" lon="-0.03827">
        <ele>18.5</ele>
        <time>2023-10-11T13:17:39Z</time>
      </trkpt>
      <trkpt lat="49.07163" lon="-0.03823">
        <ele>18.4</ele>
        <time>2023-10-11T13:17:40Z</time>
      </trkpt>
      <trkpt lat="49.07156" lon="-0.0382">
        <ele>18.4</ele>
        <time>2023-10-11T13:17:41Z</time>
      </trkpt>
      <trkpt lat="49.0715" lon="-0.03816">
        <ele>18.4</ele>
        <time>2023-10-11T13:17:42Z</time>
      </trkpt>
      <trkpt lat="49.07143" lon="-0.0381">
        <ele>18.4</ele>
        <time>2023-10-11T13:17:43Z</time>
      </trkpt>
      <trkpt lat="49.07137" lon="-0.03803">
        <ele>18.4</ele>
        <time>2023-10-11T13:17:44Z</time>
      </trkpt>
      <trkpt lat="49.07131" lon="-0.03796">
        <ele>18.3</ele>
        <time>2023-10-11T13:17:45Z</time>
      </trkpt>
      <trkpt lat="49.07126" lon="-0.03788">
        <ele>18.3</ele>
        <time>2023-10-11T13:17:46Z</time>
      </trkpt>
      <trkpt lat="49.0712" lon="-0.03781">
        <ele>18.3</ele>
        <time>2023-10-11T13:17:47Z</time>
      </trkpt>
      <trkpt lat="49.07115" lon="-0.03774">
        <ele>18.2</ele>
        <time>2023-10-11T13:17:48Z</time>
      </trkpt>
      <trkpt lat="49.07109" lon="-0.03767">
        <ele>18.2</ele>
        <time>2023-10-11T13:17:49Z</time>
      </trkpt>
      <trkpt lat="49.07104" lon="-0.03761">
        <ele>18.2</ele>
        <time>2023-10-11T13:17:50Z</time>
      </trkpt>
      <trkpt lat="49.07098" lon="-0.03754">
        <ele>18.1</ele>
        <time>2023-10-11T13:17:51Z</time>
      </trkpt>
      <trkpt lat="49.07092" lon="-0.03748">
        <ele>18.1</ele>
        <time>2023-10-11T13:17:52Z</time>
      </trkpt>
      <trkpt lat="49.07086" lon="-0.03742">
        <ele>18.1</ele>
        <time>2023-10-11T13:17:53Z</time>
      </trkpt>
      <trkpt lat="49.0708" lon="-0.03736">
        <ele>18.1</ele>
        <time>2023-10-11T13:17:54Z</time>
      </trkpt>
      <trkpt lat="49.07074" lon="-0.0373">
        <ele>18.2</ele>
        <time>2023-10-11T13:17:55Z</time>
      </trkpt>
      <trkpt lat="49.07068" lon="-0.03725">
        <ele>18.2</ele>
        <time>2023-10-11T13:17:56Z</time>
      </trkpt>
      <trkpt lat="49.07062" lon="-0.03719">
        <ele>18.2</ele>
        <time>2023-10-11T13:17:57Z</time>
      </trkpt>
      <trkpt lat="49.07056" lon="-0.03712">
        <ele>18.2</ele>
        <time>2023-10-11T13:17:58Z</time>
      </trkpt>
      <trkpt lat="49.0705" lon="-0.03706">
        <ele>18.3</ele>
        <time>2023-10-11T13:17:59Z</time>
      </trkpt>
      <trkpt lat="49.07044" lon="-0.03699">
        <ele>18.3</ele>
        <time>2023-10-11T13:18:00Z</time>
      </trkpt>
      <trkpt lat="49.07037" lon="-0.03693">
        <ele>18.3</ele>
        <time>2023-10-11T13:18:01Z</time>
      </trkpt>
      <trkpt lat="49.07031" lon="-0.03686">
        <ele>18.3</ele>
        <time>2023-10-11T13:18:02Z</time>
      </trkpt>
      <trkpt lat="49.07025" lon="-0.03678">
        <ele>18.3</ele>
        <time>2023-10-11T13:18:03Z</time>
      </trkpt>
      <trkpt lat="49.0702" lon="-0.03671">
        <ele>18.3</ele>
        <time>2023-10-11T13:18:04Z</time>
      </trkpt>
      <trkpt lat="49.07014" lon="-0.03663">
        <ele>18.3</ele>
        <time>2023-10-11T13:18:05Z</time>
      </trkpt>
      <trkpt lat="49.07009" lon="-0.03654">
        <ele>18.3</ele>
        <time>2023-10-11T13:18:06Z</time>
      </trkpt>
      <trkpt lat="49.07004" lon="-0.03645">
        <ele>18.3</ele>
        <time>2023-10-11T13:18:07Z</time>
      </trkpt>
      <trkpt lat="49.07" lon="-0.03636">
        <ele>18.4</ele>
        <time>2023-10-11T13:18:08Z</time>
      </trkpt>
      <trkpt lat="49.06996" lon="-0.03626">
        <ele>18.5</ele>
        <time>2023-10-11T13:18:09Z</time>
      </trkpt>
      <trkpt lat="49.06992" lon="-0.03615">
        <ele>18.6</ele>
        <time>2023-10-11T13:18:10Z</time>
      </trkpt>
      <trkpt lat="49.06988" lon="-0.03605">
        <ele>18.7</ele>
        <time>2023-10-11T13:18:11Z</time>
      </trkpt>
      <trkpt lat="49.06984" lon="-0.03596">
        <ele>18.8</ele>
        <time>2023-10-11T13:18:12Z</time>
      </trkpt>
      <trkpt lat="49.0698" lon="-0.03587">
        <ele>18.9</ele>
        <time>2023-10-11T13:18:13Z</time>
      </trkpt>
      <trkpt lat="49.06976" lon="-0.03578">
        <ele>19</ele>
        <time>2023-10-11T13:18:14Z</time>
      </trkpt>
      <trkpt lat="49.06972" lon="-0.0357">
        <ele>19.1</ele>
        <time>2023-10-11T13:18:15Z</time>
      </trkpt>
      <trkpt lat="49.06967" lon="-0.03562">
        <ele>19.2</ele>
        <time>2023-10-11T13:18:16Z</time>
      </trkpt>
      <trkpt lat="49.06961" lon="-0.03555">
        <ele>19.2</ele>
        <time>2023-10-11T13:18:17Z</time>
      </trkpt>
      <trkpt lat="49.06956" lon="-0.03547">
        <ele>19.3</ele>
        <time>2023-10-11T13:18:18Z</time>
      </trkpt>
      <trkpt lat="49.0695" lon="-0.0354">
        <ele>19.3</ele>
        <time>2023-10-11T13:18:19Z</time>
      </trkpt>
      <trkpt lat="49.06944" lon="-0.03534">
        <ele>19.4</ele>
        <time>2023-10-11T13:18:20Z</time>
      </trkpt>
      <trkpt lat="49.06938" lon="-0.03528">
        <ele>19.5</ele>
        <time>2023-10-11T13:18:21Z</time>
      </trkpt>
      <trkpt lat="49.06931" lon="-0.03523">
        <ele>19.6</ele>
        <time>2023-10-11T13:18:22Z</time>
      </trkpt>
      <trkpt lat="49.06925" lon="-0.03517">
        <ele>19.7</ele>
        <time>2023-10-11T13:18:23Z</time>
      </trkpt>
      <trkpt lat="49.06919" lon="-0.03512">
        <ele>19.8</ele>
        <time>2023-10-11T13:18:24Z</time>
      </trkpt>
      <trkpt lat="49.06912" lon="-0.03507">
        <ele>19.8</ele>
        <time>2023-10-11T13:18:25Z</time>
      </trkpt>
      <trkpt lat="49.06905" lon="-0.03502">
        <ele>19.9</ele>
        <time>2023-10-11T13:18:26Z</time>
      </trkpt>
      <trkpt lat="49.06898" lon="-0.03497">
        <ele>20</ele>
        <time>2023-10-11T13:18:27Z</time>
      </trkpt>
      <trkpt lat="49.06891" lon="-0.03491">
        <ele>20.1</ele>
        <time>2023-10-11T13:18:28Z</time>
      </trkpt>
      <trkpt lat="49.06884" lon="-0.03487">
        <ele>20.2</ele>
        <time>2023-10-11T13:18:29Z</time>
      </trkpt>
      <trkpt lat="49.06877" lon="-0.03482">
        <ele>20.4</ele>
        <time>2023-10-11T13:18:30Z</time>
      </trkpt>
      <trkpt lat="49.0687" lon="-0.03477">
        <ele>20.5</ele>
        <time>2023-10-11T13:18:31Z</time>
      </trkpt>
      <trkpt lat="49.06863" lon="-0.03472">
        <ele>20.6</ele>
        <time>2023-10-11T13:18:32Z</time>
      </trkpt>
      <trkpt lat="49.06857" lon="-0.03467">
        <ele>20.6</ele>
        <time>2023-10-11T13:18:33Z</time>
      </trkpt>
      <trkpt lat="49.0685" lon="-0.03463">
        <ele>20.7</ele>
        <time>2023-10-11T13:18:34Z</time>
      </trkpt>
      <trkpt lat="49.06843" lon="-0.03458">
        <ele>20.8</ele>
        <time>2023-10-11T13:18:35Z</time>
      </trkpt>
      <trkpt lat="49.06836" lon="-0.03452">
        <ele>20.9</ele>
        <time>2023-10-11T13:18:36Z</time>
      </trkpt>
      <trkpt lat="49.06829" lon="-0.03446">
        <ele>21.1</ele>
        <time>2023-10-11T13:18:37Z</time>
      </trkpt>
      <trkpt lat="49.06822" lon="-0.03441">
        <ele>21.3</ele>
        <time>2023-10-11T13:18:38Z</time>
      </trkpt>
      <trkpt lat="49.06815" lon="-0.03435">
        <ele>21.4</ele>
        <time>2023-10-11T13:18:39Z</time>
      </trkpt>
      <trkpt lat="49.06809" lon="-0.03429">
        <ele>21.6</ele>
        <time>2023-10-11T13:18:40Z</time>
      </trkpt>
      <trkpt lat="49.06802" lon="-0.03423">
        <ele>21.7</ele>
        <time>2023-10-11T13:18:41Z</time>
      </trkpt>
      <trkpt lat="49.06795" lon="-0.03417">
        <ele>21.8</ele>
        <time>2023-10-11T13:18:42Z</time>
      </trkpt>
      <trkpt lat="49.06789" lon="-0.0341">
        <ele>21.7</ele>
        <time>2023-10-11T13:18:43Z</time>
      </trkpt>
      <trkpt lat="49.06782" lon="-0.03404">
        <ele>21.6</ele>
        <time>2023-10-11T13:18:44Z</time>
      </trkpt>
      <trkpt lat="49.06776" lon="-0.03398">
        <ele>21.5</ele>
        <time>2023-10-11T13:18:45Z</time>
      </trkpt>
      <trkpt lat="49.06769" lon="-0.03392">
        <ele>21.4</ele>
        <time>2023-10-11T13:18:46Z</time>
      </trkpt>
      <trkpt lat="49.06762" lon="-0.03385">
        <ele>21.3</ele>
        <time>2023-10-11T13:18:47Z</time>
      </trkpt>
      <trkpt lat="49.06756" lon="-0.03379">
        <ele>21.2</ele>
        <time>2023-10-11T13:18:48Z</time>
      </trkpt>
      <trkpt lat="49.0675" lon="-0.03372">
        <ele>21.1</ele>
        <time>2023-10-11T13:18:49Z</time>
      </trkpt>
      <trkpt lat="49.06743" lon="-0.03366">
        <ele>20.9</ele>
        <time>2023-10-11T13:18:50Z</time>
      </trkpt>
      <trkpt lat="49.06736" lon="-0.03359">
        <ele>20.8</ele>
        <time>2023-10-11T13:18:51Z</time>
      </trkpt>
      <trkpt lat="49.0673" lon="-0.03352">
        <ele>20.6</ele>
        <time>2023-10-11T13:18:52Z</time>
      </trkpt>
      <trkpt lat="49.06723" lon="-0.03344">
        <ele>20.5</ele>
        <time>2023-10-11T13:18:53Z</time>
      </trkpt>
      <trkpt lat="49.06717" lon="-0.03335">
        <ele>20.3</ele>
        <time>2023-10-11T13:18:54Z</time>
      </trkpt>
      <trkpt lat="49.06711" lon="-0.03326">
        <ele>20.2</ele>
        <time>2023-10-11T13:18:55Z</time>
      </trkpt>
      <trkpt lat="49.06705" lon="-0.03317">
        <ele>20.2</ele>
        <time>2023-10-11T13:18:56Z</time>
      </trkpt>
      <trkpt lat="49.06699" lon="-0.03307">
        <ele>20.2</ele>
        <time>2023-10-11T13:18:57Z</time>
      </trkpt>
      <trkpt lat="49.06693" lon="-0.03298">
        <ele>20.2</ele>
        <time>2023-10-11T13:18:58Z</time>
      </trkpt>
      <trkpt lat="49.06688" lon="-0.03288">
        <ele>20.2</ele>
        <time>2023-10-11T13:18:59Z</time>
      </trkpt>
      <trkpt lat="49.06682" lon="-0.03278">
        <ele>20.3</ele>
        <time>2023-10-11T13:19:00Z</time>
      </trkpt>
      <trkpt lat="49.06678" lon="-0.03268">
        <ele>20.3</ele>
        <time>2023-10-11T13:19:01Z</time>
      </trkpt>
      <trkpt lat="49.06673" lon="-0.03258">
        <ele>20.4</ele>
        <time>2023-10-11T13:19:02Z</time>
      </trkpt>
      <trkpt lat="49.06668" lon="-0.03248">
        <ele>20.5</ele>
        <time>2023-10-11T13:19:03Z</time>
      </trkpt>
      <trkpt lat="49.06662" lon="-0.03238">
        <ele>20.5</ele>
        <time>2023-10-11T13:19:04Z</time>
      </trkpt>
      <trkpt lat="49.06657" lon="-0.03229">
        <ele>20.5</ele>
        <time>2023-10-11T13:19:05Z</time>
      </trkpt>
      <trkpt lat="49.0665" lon="-0.03221">
        <ele>20.5</ele>
        <time>2023-10-11T13:19:06Z</time>
      </trkpt>
      <trkpt lat="49.06644" lon="-0.03212">
        <ele>20.4</ele>
        <time>2023-10-11T13:19:07Z</time>
      </trkpt>
      <trkpt lat="49.06638" lon="-0.03204">
        <ele>20.3</ele>
        <time>2023-10-11T13:19:08Z</time>
      </trkpt>
      <trkpt lat="49.06631" lon="-0.03196">
        <ele>20.1</ele>
        <time>2023-10-11T13:19:09Z</time>
      </trkpt>
      <trkpt lat="49.06624" lon="-0.03188">
        <ele>20</ele>
        <time>2023-10-11T13:19:10Z</time>
      </trkpt>
      <trkpt lat="49.06616" lon="-0.03182">
        <ele>19.8</ele>
        <time>2023-10-11T13:19:11Z</time>
      </trkpt>
      <trkpt lat="49.06608" lon="-0.03176">
        <ele>19.7</ele>
        <time>2023-10-11T13:19:12Z</time>
      </trkpt>
      <trkpt lat="49.066" lon="-0.03173">
        <ele>19.5</ele>
        <time>2023-10-11T13:19:13Z</time>
      </trkpt>
      <trkpt lat="49.06591" lon="-0.03171">
        <ele>19.4</ele>
        <time>2023-10-11T13:19:14Z</time>
      </trkpt>
      <trkpt lat="49.06582" lon="-0.0317">
        <ele>19.3</ele>
        <time>2023-10-11T13:19:15Z</time>
      </trkpt>
      <trkpt lat="49.06573" lon="-0.03167">
        <ele>19.3</ele>
        <time>2023-10-11T13:19:16Z</time>
      </trkpt>
      <trkpt lat="49.06565" lon="-0.03163">
        <ele>19.3</ele>
        <time>2023-10-11T13:19:17Z</time>
      </trkpt>
      <trkpt lat="49.06557" lon="-0.03158">
        <ele>19.3</ele>
        <time>2023-10-11T13:19:18Z</time>
      </trkpt>
      <trkpt lat="49.06549" lon="-0.03151">
        <ele>19.3</ele>
        <time>2023-10-11T13:19:19Z</time>
      </trkpt>
      <trkpt lat="49.06542" lon="-0.03145">
        <ele>19.4</ele>
        <time>2023-10-11T13:19:20Z</time>
      </trkpt>
      <trkpt lat="49.06536" lon="-0.03137">
        <ele>19.4</ele>
        <time>2023-10-11T13:19:21Z</time>
      </trkpt>
      <trkpt lat="49.06529" lon="-0.0313">
        <ele>19.5</ele>
        <time>2023-10-11T13:19:22Z</time>
      </trkpt>
      <trkpt lat="49.06522" lon="-0.03122">
        <ele>19.5</ele>
        <time>2023-10-11T13:19:23Z</time>
      </trkpt>
      <trkpt lat="49.06516" lon="-0.03114">
        <ele>19.5</ele>
        <time>2023-10-11T13:19:24Z</time>
      </trkpt>
      <trkpt lat="49.0651" lon="-0.03106">
        <ele>19.5</ele>
        <time>2023-10-11T13:19:25Z</time>
      </trkpt>
      <trkpt lat="49.06504" lon="-0.03098">
        <ele>19.5</ele>
        <time>2023-10-11T13:19:26Z</time>
      </trkpt>
      <trkpt lat="49.06498" lon="-0.0309">
        <ele>19.5</ele>
        <time>2023-10-11T13:19:27Z</time>
      </trkpt>
      <trkpt lat="49.06492" lon="-0.03083">
        <ele>19.6</ele>
        <time>2023-10-11T13:19:28Z</time>
      </trkpt>
      <trkpt lat="49.06487" lon="-0.03074">
        <ele>19.6</ele>
        <time>2023-10-11T13:19:29Z</time>
      </trkpt>
      <trkpt lat="49.06482" lon="-0.03066">
        <ele>19.6</ele>
        <time>2023-10-11T13:19:30Z</time>
      </trkpt>
      <trkpt lat="49.06477" lon="-0.03058">
        <ele>19.6</ele>
        <time>2023-10-11T13:19:31Z</time>
      </trkpt>
      <trkpt lat="49.06473" lon="-0.03049">
        <ele>19.6</ele>
        <time>2023-10-11T13:19:32Z</time>
      </trkpt>
      <trkpt lat="49.06469" lon="-0.03041">
        <ele>19.6</ele>
        <time>2023-10-11T13:19:33Z</time>
      </trkpt>
      <trkpt lat="49.06466" lon="-0.03035">
        <ele>19.7</ele>
        <time>2023-10-11T13:19:34Z</time>
      </trkpt>
      <trkpt lat="49.06463" lon="-0.0303">
        <ele>19.7</ele>
        <time>2023-10-11T13:19:35Z</time>
      </trkpt>
      <trkpt lat="49.06461" lon="-0.03026">
        <ele>19.7</ele>
        <time>2023-10-11T13:19:36Z</time>
      </trkpt>
      <trkpt lat="49.06458" lon="-0.03021">
        <ele>19.8</ele>
        <time>2023-10-11T13:19:37Z</time>
      </trkpt>
      <trkpt lat="49.06456" lon="-0.03016">
        <ele>19.8</ele>
        <time>2023-10-11T13:19:38Z</time>
      </trkpt>
      <trkpt lat="49.06454" lon="-0.03011">
        <ele>19.9</ele>
        <time>2023-10-11T13:19:39Z</time>
      </trkpt>
      <trkpt lat="49.06451" lon="-0.03006">
        <ele>19.9</ele>
        <time>2023-10-11T13:19:40Z</time>
      </trkpt>
      <trkpt lat="49.06448" lon="-0.03">
        <ele>20</ele>
        <time>2023-10-11T13:19:41Z</time>
      </trkpt>
      <trkpt lat="49.06445" lon="-0.02994">
        <ele>20.1</ele>
        <time>2023-10-11T13:19:42Z</time>
      </trkpt>
      <trkpt lat="49.06442" lon="-0.02988">
        <ele>20.1</ele>
        <time>2023-10-11T13:19:43Z</time>
      </trkpt>
      <trkpt lat="49.06438" lon="-0.02981">
        <ele>20.2</ele>
        <time>2023-10-11T13:19:44Z</time>
      </trkpt>
      <trkpt lat="49.06435" lon="-0.02974">
        <ele>20.3</ele>
        <time>2023-10-11T13:19:45Z</time>
      </trkpt>
      <trkpt lat="49.06431" lon="-0.02967">
        <ele>20.3</ele>
        <time>2023-10-11T13:19:46Z</time>
      </trkpt>
      <trkpt lat="49.06427" lon="-0.0296">
        <ele>20.3</ele>
        <time>2023-10-11T13:19:47Z</time>
      </trkpt>
      <trkpt lat="49.06424" lon="-0.02953">
        <ele>20.3</ele>
        <time>2023-10-11T13:19:48Z</time>
      </trkpt>
      <trkpt lat="49.0642" lon="-0.02946">
        <ele>20.3</ele>
        <time>2023-10-11T13:19:49Z</time>
      </trkpt>
      <trkpt lat="49.06416" lon="-0.0294">
        <ele>20.3</ele>
        <time>2023-10-11T13:19:50Z</time>
      </trkpt>
      <trkpt lat="49.06411" lon="-0.02933">
        <ele>20.3</ele>
        <time>2023-10-11T13:19:51Z</time>
      </trkpt>
      <trkpt lat="49.06407" lon="-0.02927">
        <ele>20.3</ele>
        <time>2023-10-11T13:19:52Z</time>
      </trkpt>
      <trkpt lat="49.06402" lon="-0.02921">
        <ele>20.2</ele>
        <time>2023-10-11T13:19:53Z</time>
      </trkpt>
      <trkpt lat="49.06396" lon="-0.02915">
        <ele>20.2</ele>
        <time>2023-10-11T13:19:54Z</time>
      </trkpt>
      <trkpt lat="49.06391" lon="-0.02911">
        <ele>20.1</ele>
        <time>2023-10-11T13:19:55Z</time>
      </trkpt>
      <trkpt lat="49.06385" lon="-0.02906">
        <ele>20.1</ele>
        <time>2023-10-11T13:19:56Z</time>
      </trkpt>
      <trkpt lat="49.06378" lon="-0.02903">
        <ele>20.1</ele>
        <time>2023-10-11T13:19:57Z</time>
      </trkpt>
      <trkpt lat="49.06372" lon="-0.02899">
        <ele>20.1</ele>
        <time>2023-10-11T13:19:58Z</time>
      </trkpt>
      <trkpt lat="49.06365" lon="-0.02896">
        <ele>20.1</ele>
        <time>2023-10-11T13:19:59Z</time>
      </trkpt>
      <trkpt lat="49.06359" lon="-0.02894">
        <ele>20</ele>
        <time>2023-10-11T13:20:00Z</time>
      </trkpt>
      <trkpt lat="49.06352" lon="-0.02891">
        <ele>20</ele>
        <time>2023-10-11T13:20:01Z</time>
      </trkpt>
      <trkpt lat="49.06346" lon="-0.02889">
        <ele>20</ele>
        <time>2023-10-11T13:20:02Z</time>
      </trkpt>
      <trkpt lat="49.06339" lon="-0.02887">
        <ele>20</ele>
        <time>2023-10-11T13:20:03Z</time>
      </trkpt>
      <trkpt lat="49.06333" lon="-0.02885">
        <ele>20</ele>
        <time>2023-10-11T13:20:04Z</time>
      </trkpt>
      <trkpt lat="49.06326" lon="-0.02884">
        <ele>20</ele>
        <time>2023-10-11T13:20:05Z</time>
      </trkpt>
      <trkpt lat="49.0632" lon="-0.02881">
        <ele>20</ele>
        <time>2023-10-11T13:20:06Z</time>
      </trkpt>
      <trkpt lat="49.06313" lon="-0.02879">
        <ele>19.9</ele>
        <time>2023-10-11T13:20:07Z</time>
      </trkpt>
      <trkpt lat="49.06307" lon="-0.02876">
        <ele>19.9</ele>
        <time>2023-10-11T13:20:08Z</time>
      </trkpt>
      <trkpt lat="49.06301" lon="-0.02872">
        <ele>19.9</ele>
        <time>2023-10-11T13:20:09Z</time>
      </trkpt>
      <trkpt lat="49.06295" lon="-0.02869">
        <ele>20</ele>
        <time>2023-10-11T13:20:10Z</time>
      </trkpt>
      <trkpt lat="49.06289" lon="-0.02866">
        <ele>20</ele>
        <time>2023-10-11T13:20:11Z</time>
      </trkpt>
      <trkpt lat="49.06283" lon="-0.02861">
        <ele>20</ele>
        <time>2023-10-11T13:20:12Z</time>
      </trkpt>
      <trkpt lat="49.06277" lon="-0.02855">
        <ele>20</ele>
        <time>2023-10-11T13:20:13Z</time>
      </trkpt>
      <trkpt lat="49.06272" lon="-0.02849">
        <ele>20</ele>
        <time>2023-10-11T13:20:14Z</time>
      </trkpt>
      <trkpt lat="49.06267" lon="-0.02842">
        <ele>20</ele>
        <time>2023-10-11T13:20:15Z</time>
      </trkpt>
      <trkpt lat="49.06262" lon="-0.02834">
        <ele>20</ele>
        <time>2023-10-11T13:20:16Z</time>
      </trkpt>
      <trkpt lat="49.06258" lon="-0.02826">
        <ele>20</ele>
        <time>2023-10-11T13:20:17Z</time>
      </trkpt>
      <trkpt lat="49.06255" lon="-0.02818">
        <ele>20</ele>
        <time>2023-10-11T13:20:18Z</time>
      </trkpt>
      <trkpt lat="49.06251" lon="-0.02809">
        <ele>20</ele>
        <time>2023-10-11T13:20:19Z</time>
      </trkpt>
      <trkpt lat="49.06247" lon="-0.02801">
        <ele>20</ele>
        <time>2023-10-11T13:20:20Z</time>
      </trkpt>
      <trkpt lat="49.06242" lon="-0.02792">
        <ele>20</ele>
        <time>2023-10-11T13:20:21Z</time>
      </trkpt>
      <trkpt lat="49.06238" lon="-0.02785">
        <ele>20</ele>
        <time>2023-10-11T13:20:22Z</time>
      </trkpt>
      <trkpt lat="49.06232" lon="-0.02779">
        <ele>20</ele>
        <time>2023-10-11T13:20:23Z</time>
      </trkpt>
      <trkpt lat="49.06226" lon="-0.02773">
        <ele>20</ele>
        <time>2023-10-11T13:20:24Z</time>
      </trkpt>
      <trkpt lat="49.0622" lon="-0.02768">
        <ele>20</ele>
        <time>2023-10-11T13:20:25Z</time>
      </trkpt>
      <trkpt lat="49.06214" lon="-0.02764">
        <ele>20</ele>
        <time>2023-10-11T13:20:26Z</time>
      </trkpt>
      <trkpt lat="49.06207" lon="-0.0276">
        <ele>20</ele>
        <time>2023-10-11T13:20:27Z</time>
      </trkpt>
      <trkpt lat="49.062" lon="-0.02757">
        <ele>20</ele>
        <time>2023-10-11T13:20:28Z</time>
      </trkpt>
      <trkpt lat="49.06194" lon="-0.02754">
        <ele>20</ele>
        <time>2023-10-11T13:20:29Z</time>
      </trkpt>
      <trkpt lat="49.06187" lon="-0.02751">
        <ele>20</ele>
        <time>2023-10-11T13:20:30Z</time>
      </trkpt>
      <trkpt lat="49.0618" lon="-0.02747">
        <ele>20</ele>
        <time>2023-10-11T13:20:31Z</time>
      </trkpt>
      <trkpt lat="49.06174" lon="-0.02743">
        <ele>20</ele>
        <time>2023-10-11T13:20:32Z</time>
      </trkpt>
      <trkpt lat="49.06168" lon="-0.02739">
        <ele>20</ele>
        <time>2023-10-11T13:20:33Z</time>
      </trkpt>
      <trkpt lat="49.06161" lon="-0.02735">
        <ele>20</ele>
        <time>2023-10-11T13:20:34Z</time>
      </trkpt>
      <trkpt lat="49.06155" lon="-0.02731">
        <ele>20</ele>
        <time>2023-10-11T13:20:35Z</time>
      </trkpt>
      <trkpt lat="49.06149" lon="-0.02726">
        <ele>20.1</ele>
        <time>2023-10-11T13:20:36Z</time>
      </trkpt>
      <trkpt lat="49.06142" lon="-0.02722">
        <ele>20.1</ele>
        <time>2023-10-11T13:20:37Z</time>
      </trkpt>
      <trkpt lat="49.06136" lon="-0.02716">
        <ele>20.2</ele>
        <time>2023-10-11T13:20:38Z</time>
      </trkpt>
      <trkpt lat="49.0613" lon="-0.02711">
        <ele>20.2</ele>
        <time>2023-10-11T13:20:39Z</time>
      </trkpt>
      <trkpt lat="49.06124" lon="-0.02706">
        <ele>20.3</ele>
        <time>2023-10-11T13:20:40Z</time>
      </trkpt>
      <trkpt lat="49.06118" lon="-0.027">
        <ele>20.4</ele>
        <time>2023-10-11T13:20:41Z</time>
      </trkpt>
      <trkpt lat="49.06112" lon="-0.02694">
        <ele>20.4</ele>
        <time>2023-10-11T13:20:42Z</time>
      </trkpt>
      <trkpt lat="49.06106" lon="-0.02689">
        <ele>20.5</ele>
        <time>2023-10-11T13:20:43Z</time>
      </trkpt>
      <trkpt lat="49.061" lon="-0.02683">
        <ele>20.6</ele>
        <time>2023-10-11T13:20:44Z</time>
      </trkpt>
      <trkpt lat="49.06094" lon="-0.02677">
        <ele>20.7</ele>
        <time>2023-10-11T13:20:45Z</time>
      </trkpt>
      <trkpt lat="49.06088" lon="-0.02671">
        <ele>20.7</ele>
        <time>2023-10-11T13:20:46Z</time>
      </trkpt>
      <trkpt lat="49.06082" lon="-0.02665">
        <ele>20.8</ele>
        <time>2023-10-11T13:20:47Z</time>
      </trkpt>
      <trkpt lat="49.06076" lon="-0.0266">
        <ele>20.9</ele>
        <time>2023-10-11T13:20:48Z</time>
      </trkpt>
      <trkpt lat="49.0607" lon="-0.02655">
        <ele>21</ele>
        <time>2023-10-11T13:20:49Z</time>
      </trkpt>
      <trkpt lat="49.06063" lon="-0.02651">
        <ele>21</ele>
        <time>2023-10-11T13:20:50Z</time>
      </trkpt>
      <trkpt lat="49.06056" lon="-0.02648">
        <ele>21.1</ele>
        <time>2023-10-11T13:20:51Z</time>
      </trkpt>
      <trkpt lat="49.0605" lon="-0.02645">
        <ele>21.2</ele>
        <time>2023-10-11T13:20:52Z</time>
      </trkpt>
      <trkpt lat="49.06043" lon="-0.02641">
        <ele>21.2</ele>
        <time>2023-10-11T13:20:53Z</time>
      </trkpt>
      <trkpt lat="49.06036" lon="-0.02638">
        <ele>21.3</ele>
        <time>2023-10-11T13:20:54Z</time>
      </trkpt>
      <trkpt lat="49.06028" lon="-0.02636">
        <ele>21.3</ele>
        <time>2023-10-11T13:20:55Z</time>
      </trkpt>
      <trkpt lat="49.06021" lon="-0.02634">
        <ele>21.4</ele>
        <time>2023-10-11T13:20:56Z</time>
      </trkpt>
      <trkpt lat="49.06013" lon="-0.02632">
        <ele>21.4</ele>
        <time>2023-10-11T13:20:57Z</time>
      </trkpt>
      <trkpt lat="49.06006" lon="-0.02631">
        <ele>21.4</ele>
        <time>2023-10-11T13:20:58Z</time>
      </trkpt>
      <trkpt lat="49.05998" lon="-0.0263">
        <ele>21.5</ele>
        <time>2023-10-11T13:20:59Z</time>
      </trkpt>
      <trkpt lat="49.0599" lon="-0.02629">
        <ele>21.4</ele>
        <time>2023-10-11T13:21:00Z</time>
      </trkpt>
      <trkpt lat="49.05982" lon="-0.02629">
        <ele>21.4</ele>
        <time>2023-10-11T13:21:01Z</time>
      </trkpt>
      <trkpt lat="49.05974" lon="-0.02629">
        <ele>21.4</ele>
        <time>2023-10-11T13:21:02Z</time>
      </trkpt>
      <trkpt lat="49.05966" lon="-0.02628">
        <ele>21.4</ele>
        <time>2023-10-11T13:21:03Z</time>
      </trkpt>
      <trkpt lat="49.05958" lon="-0.02626">
        <ele>21.4</ele>
        <time>2023-10-11T13:21:04Z</time>
      </trkpt>
      <trkpt lat="49.05951" lon="-0.02623">
        <ele>21.3</ele>
        <time>2023-10-11T13:21:05Z</time>
      </trkpt>
      <trkpt lat="49.05942" lon="-0.02621">
        <ele>21.3</ele>
        <time>2023-10-11T13:21:06Z</time>
      </trkpt>
      <trkpt lat="49.05934" lon="-0.02617">
        <ele>21.2</ele>
        <time>2023-10-11T13:21:07Z</time>
      </trkpt>
      <trkpt lat="49.05926" lon="-0.02613">
        <ele>21.2</ele>
        <time>2023-10-11T13:21:08Z</time>
      </trkpt>
      <trkpt lat="49.05918" lon="-0.02608">
        <ele>21.1</ele>
        <time>2023-10-11T13:21:09Z</time>
      </trkpt>
      <trkpt lat="49.0591" lon="-0.02603">
        <ele>21.1</ele>
        <time>2023-10-11T13:21:10Z</time>
      </trkpt>
      <trkpt lat="49.05902" lon="-0.02597">
        <ele>21.1</ele>
        <time>2023-10-11T13:21:11Z</time>
      </trkpt>
      <trkpt lat="49.05895" lon="-0.02591">
        <ele>21.1</ele>
        <time>2023-10-11T13:21:12Z</time>
      </trkpt>
      <trkpt lat="49.05887" lon="-0.02585">
        <ele>21.1</ele>
        <time>2023-10-11T13:21:13Z</time>
      </trkpt>
      <trkpt lat="49.0588" lon="-0.02579">
        <ele>21.1</ele>
        <time>2023-10-11T13:21:14Z</time>
      </trkpt>
      <trkpt lat="49.05873" lon="-0.02573">
        <ele>21.1</ele>
        <time>2023-10-11T13:21:15Z</time>
      </trkpt>
      <trkpt lat="49.05866" lon="-0.02568">
        <ele>21.1</ele>
        <time>2023-10-11T13:21:16Z</time>
      </trkpt>
      <trkpt lat="49.05858" lon="-0.02563">
        <ele>21.1</ele>
        <time>2023-10-11T13:21:17Z</time>
      </trkpt>
      <trkpt lat="49.0585" lon="-0.02559">
        <ele>21</ele>
        <time>2023-10-11T13:21:18Z</time>
      </trkpt>
      <trkpt lat="49.05843" lon="-0.02554">
        <ele>20.9</ele>
        <time>2023-10-11T13:21:19Z</time>
      </trkpt>
      <trkpt lat="49.05836" lon="-0.02549">
        <ele>20.8</ele>
        <time>2023-10-11T13:21:20Z</time>
      </trkpt>
      <trkpt lat="49.05828" lon="-0.02545">
        <ele>20.8</ele>
        <time>2023-10-11T13:21:21Z</time>
      </trkpt>
      <trkpt lat="49.05821" lon="-0.0254">
        <ele>20.7</ele>
        <time>2023-10-11T13:21:22Z</time>
      </trkpt>
      <trkpt lat="49.05814" lon="-0.02536">
        <ele>20.7</ele>
        <time>2023-10-11T13:21:23Z</time>
      </trkpt>
      <trkpt lat="49.05806" lon="-0.02532">
        <ele>20.7</ele>
        <time>2023-10-11T13:21:24Z</time>
      </trkpt>
      <trkpt lat="49.05799" lon="-0.02527">
        <ele>20.7</ele>
        <time>2023-10-11T13:21:25Z</time>
      </trkpt>
      <trkpt lat="49.05792" lon="-0.02522">
        <ele>20.7</ele>
        <time>2023-10-11T13:21:26Z</time>
      </trkpt>
      <trkpt lat="49.05784" lon="-0.02517">
        <ele>20.7</ele>
        <time>2023-10-11T13:21:27Z</time>
      </trkpt>
      <trkpt lat="49.05776" lon="-0.02511">
        <ele>20.7</ele>
        <time>2023-10-11T13:21:28Z</time>
      </trkpt>
      <trkpt lat="49.05769" lon="-0.02506">
        <ele>20.7</ele>
        <time>2023-10-11T13:21:29Z</time>
      </trkpt>
      <trkpt lat="49.05761" lon="-0.02501">
        <ele>20.8</ele>
        <time>2023-10-11T13:21:30Z</time>
      </trkpt>
      <trkpt lat="49.05753" lon="-0.02496">
        <ele>20.8</ele>
        <time>2023-10-11T13:21:31Z</time>
      </trkpt>
      <trkpt lat="49.05746" lon="-0.0249">
        <ele>20.9</ele>
        <time>2023-10-11T13:21:32Z</time>
      </trkpt>
      <trkpt lat="49.05739" lon="-0.02485">
        <ele>20.9</ele>
        <time>2023-10-11T13:21:33Z</time>
      </trkpt>
      <trkpt lat="49.05731" lon="-0.0248">
        <ele>20.9</ele>
        <time>2023-10-11T13:21:34Z</time>
      </trkpt>
      <trkpt lat="49.05724" lon="-0.02474">
        <ele>21</ele>
        <time>2023-10-11T13:21:35Z</time>
      </trkpt>
      <trkpt lat="49.05717" lon="-0.0247">
        <ele>21</ele>
        <time>2023-10-11T13:21:36Z</time>
      </trkpt>
      <trkpt lat="49.0571" lon="-0.02467">
        <ele>21</ele>
        <time>2023-10-11T13:21:37Z</time>
      </trkpt>
      <trkpt lat="49.05703" lon="-0.02464">
        <ele>21.1</ele>
        <time>2023-10-11T13:21:38Z</time>
      </trkpt>
      <trkpt lat="49.05695" lon="-0.02458">
        <ele>21</ele>
        <time>2023-10-11T13:21:39Z</time>
      </trkpt>
      <trkpt lat="49.05688" lon="-0.02453">
        <ele>21</ele>
        <time>2023-10-11T13:21:40Z</time>
      </trkpt>
      <trkpt lat="49.0568" lon="-0.02448">
        <ele>21</ele>
        <time>2023-10-11T13:21:41Z</time>
      </trkpt>
      <trkpt lat="49.05672" lon="-0.02443">
        <ele>21</ele>
        <time>2023-10-11T13:21:42Z</time>
      </trkpt>
      <trkpt lat="49.05664" lon="-0.02437">
        <ele>20.9</ele>
        <time>2023-10-11T13:21:43Z</time>
      </trkpt>
      <trkpt lat="49.05657" lon="-0.02431">
        <ele>20.9</ele>
        <time>2023-10-11T13:21:44Z</time>
      </trkpt>
      <trkpt lat="49.0565" lon="-0.02425">
        <ele>20.9</ele>
        <time>2023-10-11T13:21:45Z</time>
      </trkpt>
      <trkpt lat="49.05643" lon="-0.02422">
        <ele>20.8</ele>
        <time>2023-10-11T13:21:46Z</time>
      </trkpt>
      <trkpt lat="49.05635" lon="-0.02419">
        <ele>20.7</ele>
        <time>2023-10-11T13:21:47Z</time>
      </trkpt>
      <trkpt lat="49.05628" lon="-0.02417">
        <ele>20.6</ele>
        <time>2023-10-11T13:21:48Z</time>
      </trkpt>
      <trkpt lat="49.0562" lon="-0.02415">
        <ele>20.6</ele>
        <time>2023-10-11T13:21:49Z</time>
      </trkpt>
      <trkpt lat="49.05612" lon="-0.02413">
        <ele>20.6</ele>
        <time>2023-10-11T13:21:50Z</time>
      </trkpt>
      <trkpt lat="49.05604" lon="-0.02413">
        <ele>20.6</ele>
        <time>2023-10-11T13:21:51Z</time>
      </trkpt>
      <trkpt lat="49.05596" lon="-0.02412">
        <ele>20.5</ele>
        <time>2023-10-11T13:21:52Z</time>
      </trkpt>
      <trkpt lat="49.05588" lon="-0.02412">
        <ele>20.5</ele>
        <time>2023-10-11T13:21:53Z</time>
      </trkpt>
      <trkpt lat="49.0558" lon="-0.02413">
        <ele>20.5</ele>
        <time>2023-10-11T13:21:54Z</time>
      </trkpt>
      <trkpt lat="49.05572" lon="-0.02413">
        <ele>20.5</ele>
        <time>2023-10-11T13:21:55Z</time>
      </trkpt>
      <trkpt lat="49.05565" lon="-0.02411">
        <ele>20.5</ele>
        <time>2023-10-11T13:21:56Z</time>
      </trkpt>
      <trkpt lat="49.05557" lon="-0.0241">
        <ele>20.5</ele>
        <time>2023-10-11T13:21:57Z</time>
      </trkpt>
      <trkpt lat="49.05549" lon="-0.02408">
        <ele>20.5</ele>
        <time>2023-10-11T13:21:58Z</time>
      </trkpt>
      <trkpt lat="49.05541" lon="-0.02406">
        <ele>20.5</ele>
        <time>2023-10-11T13:21:59Z</time>
      </trkpt>
      <trkpt lat="49.05533" lon="-0.02405">
        <ele>20.5</ele>
        <time>2023-10-11T13:22:00Z</time>
      </trkpt>
      <trkpt lat="49.05526" lon="-0.02403">
        <ele>20.5</ele>
        <time>2023-10-11T13:22:01Z</time>
      </trkpt>
      <trkpt lat="49.05518" lon="-0.02401">
        <ele>20.5</ele>
        <time>2023-10-11T13:22:02Z</time>
      </trkpt>
      <trkpt lat="49.05511" lon="-0.02399">
        <ele>20.5</ele>
        <time>2023-10-11T13:22:03Z</time>
      </trkpt>
      <trkpt lat="49.05503" lon="-0.02398">
        <ele>20.5</ele>
        <time>2023-10-11T13:22:04Z</time>
      </trkpt>
      <trkpt lat="49.05496" lon="-0.02397">
        <ele>20.5</ele>
        <time>2023-10-11T13:22:05Z</time>
      </trkpt>
      <trkpt lat="49.05488" lon="-0.02395">
        <ele>20.5</ele>
        <time>2023-10-11T13:22:06Z</time>
      </trkpt>
      <trkpt lat="49.05481" lon="-0.02394">
        <ele>20.6</ele>
        <time>2023-10-11T13:22:07Z</time>
      </trkpt>
      <trkpt lat="49.05473" lon="-0.02393">
        <ele>20.6</ele>
        <time>2023-10-11T13:22:08Z</time>
      </trkpt>
      <trkpt lat="49.05466" lon="-0.02391">
        <ele>20.6</ele>
        <time>2023-10-11T13:22:09Z</time>
      </trkpt>
      <trkpt lat="49.05459" lon="-0.02388">
        <ele>20.6</ele>
        <time>2023-10-11T13:22:10Z</time>
      </trkpt>
      <trkpt lat="49.05452" lon="-0.02385">
        <ele>20.6</ele>
        <time>2023-10-11T13:22:11Z</time>
      </trkpt>
      <trkpt lat="49.05445" lon="-0.02382">
        <ele>20.6</ele>
        <time>2023-10-11T13:22:12Z</time>
      </trkpt>
      <trkpt lat="49.05437" lon="-0.02379">
        <ele>20.6</ele>
        <time>2023-10-11T13:22:13Z</time>
      </trkpt>
      <trkpt lat="49.05431" lon="-0.02376">
        <ele>20.7</ele>
        <time>2023-10-11T13:22:14Z</time>
      </trkpt>
      <trkpt lat="49.05423" lon="-0.02374">
        <ele>20.7</ele>
        <time>2023-10-11T13:22:15Z</time>
      </trkpt>
      <trkpt lat="49.05416" lon="-0.02371">
        <ele>20.7</ele>
        <time>2023-10-11T13:22:16Z</time>
      </trkpt>
      <trkpt lat="49.05409" lon="-0.02368">
        <ele>20.8</ele>
        <time>2023-10-11T13:22:17Z</time>
      </trkpt>
      <trkpt lat="49.05401" lon="-0.02365">
        <ele>20.8</ele>
        <time>2023-10-11T13:22:18Z</time>
      </trkpt>
      <trkpt lat="49.05394" lon="-0.02362">
        <ele>20.8</ele>
        <time>2023-10-11T13:22:19Z</time>
      </trkpt>
      <trkpt lat="49.05386" lon="-0.0236">
        <ele>20.9</ele>
        <time>2023-10-11T13:22:20Z</time>
      </trkpt>
      <trkpt lat="49.05379" lon="-0.02357">
        <ele>21</ele>
        <time>2023-10-11T13:22:21Z</time>
      </trkpt>
      <trkpt lat="49.05372" lon="-0.02354">
        <ele>21.1</ele>
        <time>2023-10-11T13:22:22Z</time>
      </trkpt>
      <trkpt lat="49.05364" lon="-0.02351">
        <ele>21.2</ele>
        <time>2023-10-11T13:22:23Z</time>
      </trkpt>
      <trkpt lat="49.05357" lon="-0.02348">
        <ele>21.2</ele>
        <time>2023-10-11T13:22:24Z</time>
      </trkpt>
      <trkpt lat="49.05349" lon="-0.02346">
        <ele>21.3</ele>
        <time>2023-10-11T13:22:25Z</time>
      </trkpt>
      <trkpt lat="49.05341" lon="-0.02343">
        <ele>21.3</ele>
        <time>2023-10-11T13:22:26Z</time>
      </trkpt>
      <trkpt lat="49.05333" lon="-0.02341">
        <ele>21.3</ele>
        <time>2023-10-11T13:22:27Z</time>
      </trkpt>
      <trkpt lat="49.05325" lon="-0.02338">
        <ele>21.3</ele>
        <time>2023-10-11T13:22:28Z</time>
      </trkpt>
      <trkpt lat="49.05317" lon="-0.02335">
        <ele>21.4</ele>
        <time>2023-10-11T13:22:29Z</time>
      </trkpt>
      <trkpt lat="49.05309" lon="-0.02331">
        <ele>21.4</ele>
        <time>2023-10-11T13:22:30Z</time>
      </trkpt>
      <trkpt lat="49.05302" lon="-0.02328">
        <ele>21.4</ele>
        <time>2023-10-11T13:22:31Z</time>
      </trkpt>
      <trkpt lat="49.05295" lon="-0.02325">
        <ele>21.4</ele>
        <time>2023-10-11T13:22:32Z</time>
      </trkpt>
      <trkpt lat="49.05288" lon="-0.02322">
        <ele>21.3</ele>
        <time>2023-10-11T13:22:33Z</time>
      </trkpt>
      <trkpt lat="49.05281" lon="-0.02319">
        <ele>21.3</ele>
        <time>2023-10-11T13:22:34Z</time>
      </trkpt>
      <trkpt lat="49.05274" lon="-0.02316">
        <ele>21.3</ele>
        <time>2023-10-11T13:22:35Z</time>
      </trkpt>
      <trkpt lat="49.05268" lon="-0.02313">
        <ele>21.3</ele>
        <time>2023-10-11T13:22:36Z</time>
      </trkpt>
      <trkpt lat="49.05262" lon="-0.02309">
        <ele>21.4</ele>
        <time>2023-10-11T13:22:37Z</time>
      </trkpt>
      <trkpt lat="49.05255" lon="-0.02307">
        <ele>21.4</ele>
        <time>2023-10-11T13:22:38Z</time>
      </trkpt>
      <trkpt lat="49.05249" lon="-0.02307">
        <ele>21.5</ele>
        <time>2023-10-11T13:22:39Z</time>
      </trkpt>
      <trkpt lat="49.05244" lon="-0.02312">
        <ele>21.5</ele>
        <time>2023-10-11T13:22:40Z</time>
      </trkpt>
      <trkpt lat="49.05242" lon="-0.02319">
        <ele>21.6</ele>
        <time>2023-10-11T13:22:41Z</time>
      </trkpt>
      <trkpt lat="49.05241" lon="-0.02328">
        <ele>21.6</ele>
        <time>2023-10-11T13:22:42Z</time>
      </trkpt>
      <trkpt lat="49.0524" lon="-0.02337">
        <ele>21.5</ele>
        <time>2023-10-11T13:22:43Z</time>
      </trkpt>
      <trkpt lat="49.0524" lon="-0.02346">
        <ele>21.5</ele>
        <time>2023-10-11T13:22:44Z</time>
      </trkpt>
      <trkpt lat="49.0524" lon="-0.02354">
        <ele>21.4</ele>
        <time>2023-10-11T13:22:45Z</time>
      </trkpt>
      <trkpt lat="49.05239" lon="-0.02363">
        <ele>21.4</ele>
        <time>2023-10-11T13:22:46Z</time>
      </trkpt>
      <trkpt lat="49.05238" lon="-0.02372">
        <ele>21.4</ele>
        <time>2023-10-11T13:22:47Z</time>
      </trkpt>
      <trkpt lat="49.05237" lon="-0.02382">
        <ele>21.4</ele>
        <time>2023-10-11T13:22:48Z</time>
      </trkpt>
      <trkpt lat="49.05236" lon="-0.02391">
        <ele>21.4</ele>
        <time>2023-10-11T13:22:49Z</time>
      </trkpt>
      <trkpt lat="49.05235" lon="-0.02401">
        <ele>21.4</ele>
        <time>2023-10-11T13:22:50Z</time>
      </trkpt>
      <trkpt lat="49.05234" lon="-0.02411">
        <ele>21.4</ele>
        <time>2023-10-11T13:22:51Z</time>
      </trkpt>
      <trkpt lat="49.05233" lon="-0.02421">
        <ele>21.5</ele>
        <time>2023-10-11T13:22:52Z</time>
      </trkpt>
      <trkpt lat="49.05232" lon="-0.02431">
        <ele>21.5</ele>
        <time>2023-10-11T13:22:53Z</time>
      </trkpt>
      <trkpt lat="49.0523" lon="-0.02441">
        <ele>21.5</ele>
        <time>2023-10-11T13:22:54Z</time>
      </trkpt>
      <trkpt lat="49.05229" lon="-0.02451">
        <ele>21.6</ele>
        <time>2023-10-11T13:22:55Z</time>
      </trkpt>
      <trkpt lat="49.05227" lon="-0.0246">
        <ele>21.6</ele>
        <time>2023-10-11T13:22:56Z</time>
      </trkpt>
      <trkpt lat="49.05226" lon="-0.02469">
        <ele>21.7</ele>
        <time>2023-10-11T13:22:57Z</time>
      </trkpt>
      <trkpt lat="49.05224" lon="-0.02478">
        <ele>21.8</ele>
        <time>2023-10-11T13:22:58Z</time>
      </trkpt>
      <trkpt lat="49.05223" lon="-0.02487">
        <ele>21.9</ele>
        <time>2023-10-11T13:22:59Z</time>
      </trkpt>
      <trkpt lat="49.05222" lon="-0.02496">
        <ele>22.1</ele>
        <time>2023-10-11T13:23:00Z</time>
      </trkpt>
      <trkpt lat="49.0522" lon="-0.02504">
        <ele>22.2</ele>
        <time>2023-10-11T13:23:01Z</time>
      </trkpt>
      <trkpt lat="49.05219" lon="-0.02512">
        <ele>22.3</ele>
        <time>2023-10-11T13:23:02Z</time>
      </trkpt>
      <trkpt lat="49.05218" lon="-0.02519">
        <ele>22.3</ele>
        <time>2023-10-11T13:23:03Z</time>
      </trkpt>
      <trkpt lat="49.05218" lon="-0.02525">
        <ele>22.4</ele>
        <time>2023-10-11T13:23:04Z</time>
      </trkpt>
      <trkpt lat="49.05217" lon="-0.0253">
        <ele>22.4</ele>
        <time>2023-10-11T13:23:05Z</time>
      </trkpt>
      <trkpt lat="49.05217" lon="-0.02535">
        <ele>22.4</ele>
        <time>2023-10-11T13:23:06Z</time>
      </trkpt>
      <trkpt lat="49.05216" lon="-0.02541">
        <ele>22.4</ele>
        <time>2023-10-11T13:23:07Z</time>
      </trkpt>
      <trkpt lat="49.05215" lon="-0.02547">
        <ele>22.4</ele>
        <time>2023-10-11T13:23:08Z</time>
      </trkpt>
      <trkpt lat="49.05214" lon="-0.02553">
        <ele>22.4</ele>
        <time>2023-10-11T13:23:09Z</time>
      </trkpt>
      <trkpt lat="49.05212" lon="-0.0256">
        <ele>22.5</ele>
        <time>2023-10-11T13:23:10Z</time>
      </trkpt>
      <trkpt lat="49.05211" lon="-0.02567">
        <ele>22.5</ele>
        <time>2023-10-11T13:23:11Z</time>
      </trkpt>
      <trkpt lat="49.0521" lon="-0.02575">
        <ele>22.5</ele>
        <time>2023-10-11T13:23:12Z</time>
      </trkpt>
      <trkpt lat="49.0521" lon="-0.02582">
        <ele>22.4</ele>
        <time>2023-10-11T13:23:13Z</time>
      </trkpt>
      <trkpt lat="49.05209" lon="-0.02588">
        <ele>22.4</ele>
        <time>2023-10-11T13:23:14Z</time>
      </trkpt>
      <trkpt lat="49.05208" lon="-0.02595">
        <ele>22.4</ele>
        <time>2023-10-11T13:23:15Z</time>
      </trkpt>
      <trkpt lat="49.05206" lon="-0.02602">
        <ele>22.4</ele>
        <time>2023-10-11T13:23:16Z</time>
      </trkpt>
      <trkpt lat="49.05205" lon="-0.02608">
        <ele>22.4</ele>
        <time>2023-10-11T13:23:17Z</time>
      </trkpt>
      <trkpt lat="49.05204" lon="-0.02613">
        <ele>22.4</ele>
        <time>2023-10-11T13:23:18Z</time>
      </trkpt>
      <trkpt lat="49.05203" lon="-0.02618">
        <ele>22.4</ele>
        <time>2023-10-11T13:23:19Z</time>
      </trkpt>
      <trkpt lat="49.05203" lon="-0.02623">
        <ele>22.4</ele>
        <time>2023-10-11T13:23:20Z</time>
      </trkpt>
      <trkpt lat="49.05202" lon="-0.02625">
        <ele>22.4</ele>
        <time>2023-10-11T13:23:21Z</time>
      </trkpt>
      <trkpt lat="49.05202" lon="-0.02629">
        <ele>22.4</ele>
        <time>2023-10-11T13:23:22Z</time>
      </trkpt>
      <trkpt lat="49.05202" lon="-0.02631">
        <ele>22.4</ele>
        <time>2023-10-11T13:23:23Z</time>
      </trkpt>
      <trkpt lat="49.05201" lon="-0.02632">
        <ele>22.4</ele>
        <time>2023-10-11T13:23:24Z</time>
      </trkpt>
      <trkpt lat="49.052" lon="-0.02633">
        <ele>22.4</ele>
        <time>2023-10-11T13:23:25Z</time>
      </trkpt>
      <trkpt lat="49.052" lon="-0.02633">
        <ele>22.4</ele>
        <time>2023-10-11T13:23:26Z</time>
      </trkpt>
      <trkpt lat="49.052" lon="-0.02632">
        <ele>22.4</ele>
        <time>2023-10-11T13:23:27Z</time>
      </trkpt>
      <trkpt lat="49.052" lon="-0.02632">
        <ele>22.4</ele>
        <time>2023-10-11T13:23:28Z</time>
      </trkpt>
      <trkpt lat="49.052" lon="-0.02632">
        <ele>22.4</ele>
        <time>2023-10-11T13:23:29Z</time>
      </trkpt>
      <trkpt lat="49.052" lon="-0.02632">
        <ele>22.4</ele>
        <time>2023-10-11T13:23:30Z</time>
      </trkpt>
      <trkpt lat="49.052" lon="-0.02632">
        <ele>22.4</ele>
        <time>2023-10-11T13:23:31Z</time>
      </trkpt>
      <trkpt lat="49.052" lon="-0.02632">
        <ele>22.4</ele>
        <time>2023-10-11T13:23:32Z</time>
      </trkpt>
      <trkpt lat="49.052" lon="-0.02632">
        <ele>22.4</ele>
        <time>2023-10-11T13:23:33Z</time>
      </trkpt>
      <trkpt lat="49.052" lon="-0.02632">
        <ele>22.4</ele>
        <time>2023-10-11T13:23:34Z</time>
      </trkpt>
      <trkpt lat="49.052" lon="-0.02632">
        <ele>22.4</ele>
        <time>2023-10-11T13:23:35Z</time>
      </trkpt>
      <trkpt lat="49.052" lon="-0.02632">
        <ele>22.4</ele>
        <time>2023-10-11T13:23:36Z</time>
      </trkpt>
      <trkpt lat="49.05201" lon="-0.02639">
        <ele>22.4</ele>
        <time>2023-10-11T13:28:43Z</time>
      </trkpt>
      <trkpt lat="49.05201" lon="-0.0264">
        <ele>22.4</ele>
        <time>2023-10-11T13:28:44Z</time>
      </trkpt>
      <trkpt lat="49.05201" lon="-0.02642">
        <ele>22.4</ele>
        <time>2023-10-11T13:28:45Z</time>
      </trkpt>
      <trkpt lat="49.05201" lon="-0.02644">
        <ele>22.4</ele>
        <time>2023-10-11T13:28:46Z</time>
      </trkpt>
      <trkpt lat="49.05201" lon="-0.02649">
        <ele>22.4</ele>
        <time>2023-10-11T13:28:47Z</time>
      </trkpt>
      <trkpt lat="49.05201" lon="-0.0265">
        <ele>22.4</ele>
        <time>2023-10-11T13:28:48Z</time>
      </trkpt>
      <trkpt lat="49.052" lon="-0.02653">
        <ele>22.4</ele>
        <time>2023-10-11T13:28:49Z</time>
      </trkpt>
      <trkpt lat="49.05199" lon="-0.02655">
        <ele>22.4</ele>
        <time>2023-10-11T13:28:50Z</time>
      </trkpt>
      <trkpt lat="49.05198" lon="-0.02656">
        <ele>22.4</ele>
        <time>2023-10-11T13:28:51Z</time>
      </trkpt>
      <trkpt lat="49.05197" lon="-0.02658">
        <ele>22.4</ele>
        <time>2023-10-11T13:28:52Z</time>
      </trkpt>
      <trkpt lat="49.05195" lon="-0.0266">
        <ele>22.4</ele>
        <time>2023-10-11T13:28:53Z</time>
      </trkpt>
      <trkpt lat="49.05194" lon="-0.02661">
        <ele>22.4</ele>
        <time>2023-10-11T13:28:54Z</time>
      </trkpt>
      <trkpt lat="49.05193" lon="-0.02663">
        <ele>22.4</ele>
        <time>2023-10-11T13:28:55Z</time>
      </trkpt>
      <trkpt lat="49.05191" lon="-0.02665">
        <ele>22.4</ele>
        <time>2023-10-11T13:28:56Z</time>
      </trkpt>
      <trkpt lat="49.05189" lon="-0.02667">
        <ele>22.5</ele>
        <time>2023-10-11T13:28:57Z</time>
      </trkpt>
      <trkpt lat="49.05188" lon="-0.02667">
        <ele>22.5</ele>
        <time>2023-10-11T13:28:58Z</time>
      </trkpt>
      <trkpt lat="49.05186" lon="-0.02668">
        <ele>22.5</ele>
        <time>2023-10-11T13:28:59Z</time>
      </trkpt>
      <trkpt lat="49.05185" lon="-0.02669">
        <ele>22.5</ele>
        <time>2023-10-11T13:29:00Z</time>
      </trkpt>
      <trkpt lat="49.05183" lon="-0.0267">
        <ele>22.5</ele>
        <time>2023-10-11T13:29:01Z</time>
      </trkpt>
      <trkpt lat="49.05182" lon="-0.02671">
        <ele>22.5</ele>
        <time>2023-10-11T13:29:02Z</time>
      </trkpt>
      <trkpt lat="49.0518" lon="-0.02672">
        <ele>22.5</ele>
        <time>2023-10-11T13:29:03Z</time>
      </trkpt>
      <trkpt lat="49.05179" lon="-0.02673">
        <ele>22.5</ele>
        <time>2023-10-11T13:29:04Z</time>
      </trkpt>
      <trkpt lat="49.05178" lon="-0.02673">
        <ele>22.5</ele>
        <time>2023-10-11T13:29:05Z</time>
      </trkpt>
      <trkpt lat="49.05178" lon="-0.02674">
        <ele>22.5</ele>
        <time>2023-10-11T13:29:06Z</time>
      </trkpt>
      <trkpt lat="49.05177" lon="-0.02674">
        <ele>22.5</ele>
        <time>2023-10-11T13:29:07Z</time>
      </trkpt>
      <trkpt lat="49.05177" lon="-0.02675">
        <ele>22.5</ele>
        <time>2023-10-11T13:29:08Z</time>
      </trkpt>
      <trkpt lat="49.05176" lon="-0.02675">
        <ele>22.5</ele>
        <time>2023-10-11T13:29:09Z</time>
      </trkpt>
      <trkpt lat="49.05176" lon="-0.02675">
        <ele>22.5</ele>
        <time>2023-10-11T13:29:10Z</time>
      </trkpt>
      <trkpt lat="49.05175" lon="-0.02676">
        <ele>22.5</ele>
        <time>2023-10-11T13:29:11Z</time>
      </trkpt>
      <trkpt lat="49.05175" lon="-0.02676">
        <ele>22.5</ele>
        <time>2023-10-11T13:29:12Z</time>
      </trkpt>
      <trkpt lat="49.05174" lon="-0.02677">
        <ele>22.5</ele>
        <time>2023-10-11T13:29:13Z</time>
      </trkpt>
      <trkpt lat="49.05174" lon="-0.02677">
        <ele>22.5</ele>
        <time>2023-10-11T13:29:14Z</time>
      </trkpt>
      <trkpt lat="49.05173" lon="-0.02678">
        <ele>22.5</ele>
        <time>2023-10-11T13:29:15Z</time>
      </trkpt>
      <trkpt lat="49.05173" lon="-0.02678">
        <ele>22.5</ele>
        <time>2023-10-11T13:29:16Z</time>
      </trkpt>
      <trkpt lat="49.05172" lon="-0.02679">
        <ele>22.5</ele>
        <time>2023-10-11T13:29:21Z</time>
      </trkpt>
      <trkpt lat="49.05172" lon="-0.02679">
        <ele>22.5</ele>
        <time>2023-10-11T13:29:22Z</time>
      </trkpt>
      <trkpt lat="49.05171" lon="-0.0268">
        <ele>22.5</ele>
        <time>2023-10-11T13:29:23Z</time>
      </trkpt>
      <trkpt lat="49.05168" lon="-0.02684">
        <ele>22.6</ele>
        <time>2023-10-11T13:29:24Z</time>
      </trkpt>
      <trkpt lat="49.05168" lon="-0.02686">
        <ele>22.6</ele>
        <time>2023-10-11T13:29:25Z</time>
      </trkpt>
      <trkpt lat="49.05166" lon="-0.02691">
        <ele>22.6</ele>
        <time>2023-10-11T13:29:26Z</time>
      </trkpt>
      <trkpt lat="49.05165" lon="-0.02692">
        <ele>22.7</ele>
        <time>2023-10-11T13:29:27Z</time>
      </trkpt>
      <trkpt lat="49.05165" lon="-0.02697">
        <ele>22.7</ele>
        <time>2023-10-11T13:29:28Z</time>
      </trkpt>
      <trkpt lat="49.05164" lon="-0.02701">
        <ele>22.7</ele>
        <time>2023-10-11T13:29:29Z</time>
      </trkpt>
      <trkpt lat="49.05163" lon="-0.02705">
        <ele>22.7</ele>
        <time>2023-10-11T13:29:30Z</time>
      </trkpt>
      <trkpt lat="49.05163" lon="-0.0271">
        <ele>22.7</ele>
        <time>2023-10-11T13:29:31Z</time>
      </trkpt>
      <trkpt lat="49.05162" lon="-0.02715">
        <ele>22.8</ele>
        <time>2023-10-11T13:29:32Z</time>
      </trkpt>
      <trkpt lat="49.05161" lon="-0.02721">
        <ele>22.8</ele>
        <time>2023-10-11T13:29:33Z</time>
      </trkpt>
      <trkpt lat="49.0516" lon="-0.02727">
        <ele>22.8</ele>
        <time>2023-10-11T13:29:34Z</time>
      </trkpt>
      <trkpt lat="49.05159" lon="-0.02733">
        <ele>22.9</ele>
        <time>2023-10-11T13:29:35Z</time>
      </trkpt>
      <trkpt lat="49.05158" lon="-0.0274">
        <ele>22.9</ele>
        <time>2023-10-11T13:29:36Z</time>
      </trkpt>
      <trkpt lat="49.05156" lon="-0.02747">
        <ele>23</ele>
        <time>2023-10-11T13:29:37Z</time>
      </trkpt>
      <trkpt lat="49.05155" lon="-0.02754">
        <ele>23</ele>
        <time>2023-10-11T13:29:38Z</time>
      </trkpt>
      <trkpt lat="49.05153" lon="-0.02761">
        <ele>23.1</ele>
        <time>2023-10-11T13:29:39Z</time>
      </trkpt>
      <trkpt lat="49.05152" lon="-0.02769">
        <ele>23.2</ele>
        <time>2023-10-11T13:29:40Z</time>
      </trkpt>
      <trkpt lat="49.0515" lon="-0.02777">
        <ele>23.2</ele>
        <time>2023-10-11T13:29:41Z</time>
      </trkpt>
      <trkpt lat="49.05149" lon="-0.02785">
        <ele>23.3</ele>
        <time>2023-10-11T13:29:42Z</time>
      </trkpt>
      <trkpt lat="49.05147" lon="-0.02792">
        <ele>23.4</ele>
        <time>2023-10-11T13:29:43Z</time>
      </trkpt>
      <trkpt lat="49.05145" lon="-0.028">
        <ele>23.5</ele>
        <time>2023-10-11T13:29:44Z</time>
      </trkpt>
      <trkpt lat="49.05144" lon="-0.02807">
        <ele>23.6</ele>
        <time>2023-10-11T13:29:45Z</time>
      </trkpt>
      <trkpt lat="49.05142" lon="-0.02815">
        <ele>23.7</ele>
        <time>2023-10-11T13:29:46Z</time>
      </trkpt>
      <trkpt lat="49.05141" lon="-0.02824">
        <ele>23.8</ele>
        <time>2023-10-11T13:29:47Z</time>
      </trkpt>
      <trkpt lat="49.05139" lon="-0.02832">
        <ele>23.9</ele>
        <time>2023-10-11T13:29:48Z</time>
      </trkpt>
      <trkpt lat="49.05137" lon="-0.0284">
        <ele>23.9</ele>
        <time>2023-10-11T13:29:49Z</time>
      </trkpt>
      <trkpt lat="49.05134" lon="-0.02848">
        <ele>24</ele>
        <time>2023-10-11T13:29:50Z</time>
      </trkpt>
      <trkpt lat="49.05132" lon="-0.02857">
        <ele>24</ele>
        <time>2023-10-11T13:29:51Z</time>
      </trkpt>
      <trkpt lat="49.05131" lon="-0.02865">
        <ele>24</ele>
        <time>2023-10-11T13:29:52Z</time>
      </trkpt>
      <trkpt lat="49.05129" lon="-0.02874">
        <ele>24</ele>
        <time>2023-10-11T13:29:53Z</time>
      </trkpt>
      <trkpt lat="49.05127" lon="-0.02883">
        <ele>24</ele>
        <time>2023-10-11T13:29:54Z</time>
      </trkpt>
      <trkpt lat="49.05125" lon="-0.02892">
        <ele>24</ele>
        <time>2023-10-11T13:29:55Z</time>
      </trkpt>
      <trkpt lat="49.05122" lon="-0.02901">
        <ele>24</ele>
        <time>2023-10-11T13:29:56Z</time>
      </trkpt>
      <trkpt lat="49.0512" lon="-0.0291">
        <ele>23.9</ele>
        <time>2023-10-11T13:29:57Z</time>
      </trkpt>
      <trkpt lat="49.05118" lon="-0.02919">
        <ele>23.9</ele>
        <time>2023-10-11T13:29:58Z</time>
      </trkpt>
      <trkpt lat="49.05115" lon="-0.02928">
        <ele>23.8</ele>
        <time>2023-10-11T13:29:59Z</time>
      </trkpt>
      <trkpt lat="49.05113" lon="-0.02937">
        <ele>23.8</ele>
        <time>2023-10-11T13:30:00Z</time>
      </trkpt>
      <trkpt lat="49.05111" lon="-0.02947">
        <ele>23.7</ele>
        <time>2023-10-11T13:30:01Z</time>
      </trkpt>
      <trkpt lat="49.05109" lon="-0.02956">
        <ele>23.7</ele>
        <time>2023-10-11T13:30:02Z</time>
      </trkpt>
      <trkpt lat="49.05107" lon="-0.02965">
        <ele>23.6</ele>
        <time>2023-10-11T13:30:03Z</time>
      </trkpt>
      <trkpt lat="49.05104" lon="-0.02975">
        <ele>23.5</ele>
        <time>2023-10-11T13:30:04Z</time>
      </trkpt>
      <trkpt lat="49.05101" lon="-0.02984">
        <ele>23.5</ele>
        <time>2023-10-11T13:30:05Z</time>
      </trkpt>
      <trkpt lat="49.05099" lon="-0.02994">
        <ele>23.4</ele>
        <time>2023-10-11T13:30:06Z</time>
      </trkpt>
      <trkpt lat="49.05096" lon="-0.03004">
        <ele>23.3</ele>
        <time>2023-10-11T13:30:07Z</time>
      </trkpt>
      <trkpt lat="49.05094" lon="-0.03015">
        <ele>23.3</ele>
        <time>2023-10-11T13:30:08Z</time>
      </trkpt>
      <trkpt lat="49.05091" lon="-0.03025">
        <ele>23.2</ele>
        <time>2023-10-11T13:30:09Z</time>
      </trkpt>
      <trkpt lat="49.05088" lon="-0.03035">
        <ele>23.2</ele>
        <time>2023-10-11T13:30:10Z</time>
      </trkpt>
      <trkpt lat="49.05086" lon="-0.03046">
        <ele>23.1</ele>
        <time>2023-10-11T13:30:11Z</time>
      </trkpt>
      <trkpt lat="49.05083" lon="-0.03057">
        <ele>23</ele>
        <time>2023-10-11T13:30:12Z</time>
      </trkpt>
      <trkpt lat="49.0508" lon="-0.03067">
        <ele>22.9</ele>
        <time>2023-10-11T13:30:13Z</time>
      </trkpt>
      <trkpt lat="49.05076" lon="-0.03077">
        <ele>22.8</ele>
        <time>2023-10-11T13:30:14Z</time>
      </trkpt>
      <trkpt lat="49.05072" lon="-0.03088">
        <ele>22.8</ele>
        <time>2023-10-11T13:30:15Z</time>
      </trkpt>
      <trkpt lat="49.05067" lon="-0.03097">
        <ele>22.7</ele>
        <time>2023-10-11T13:30:16Z</time>
      </trkpt>
      <trkpt lat="49.05063" lon="-0.03105">
        <ele>22.6</ele>
        <time>2023-10-11T13:30:17Z</time>
      </trkpt>
      <trkpt lat="49.05058" lon="-0.03114">
        <ele>22.5</ele>
        <time>2023-10-11T13:30:18Z</time>
      </trkpt>
      <trkpt lat="49.05053" lon="-0.03122">
        <ele>22.5</ele>
        <time>2023-10-11T13:30:19Z</time>
      </trkpt>
      <trkpt lat="49.05048" lon="-0.03131">
        <ele>22.4</ele>
        <time>2023-10-11T13:30:20Z</time>
      </trkpt>
      <trkpt lat="49.05043" lon="-0.0314">
        <ele>22.3</ele>
        <time>2023-10-11T13:30:21Z</time>
      </trkpt>
      <trkpt lat="49.05038" lon="-0.0315">
        <ele>22.3</ele>
        <time>2023-10-11T13:30:22Z</time>
      </trkpt>
      <trkpt lat="49.05034" lon="-0.03159">
        <ele>22.2</ele>
        <time>2023-10-11T13:30:23Z</time>
      </trkpt>
      <trkpt lat="49.05029" lon="-0.03168">
        <ele>22.2</ele>
        <time>2023-10-11T13:30:24Z</time>
      </trkpt>
      <trkpt lat="49.05024" lon="-0.03177">
        <ele>22.1</ele>
        <time>2023-10-11T13:30:25Z</time>
      </trkpt>
      <trkpt lat="49.0502" lon="-0.03187">
        <ele>22.1</ele>
        <time>2023-10-11T13:30:26Z</time>
      </trkpt>
      <trkpt lat="49.05015" lon="-0.03197">
        <ele>22</ele>
        <time>2023-10-11T13:30:27Z</time>
      </trkpt>
      <trkpt lat="49.05011" lon="-0.03206">
        <ele>21.9</ele>
        <time>2023-10-11T13:30:28Z</time>
      </trkpt>
      <trkpt lat="49.05007" lon="-0.03217">
        <ele>21.9</ele>
        <time>2023-10-11T13:30:29Z</time>
      </trkpt>
      <trkpt lat="49.05003" lon="-0.03227">
        <ele>21.9</ele>
        <time>2023-10-11T13:30:30Z</time>
      </trkpt>
      <trkpt lat="49.05" lon="-0.03239">
        <ele>21.8</ele>
        <time>2023-10-11T13:30:31Z</time>
      </trkpt>
      <trkpt lat="49.04997" lon="-0.03251">
        <ele>21.9</ele>
        <time>2023-10-11T13:30:32Z</time>
      </trkpt>
      <trkpt lat="49.04996" lon="-0.03264">
        <ele>21.9</ele>
        <time>2023-10-11T13:30:33Z</time>
      </trkpt>
      <trkpt lat="49.04996" lon="-0.03276">
        <ele>21.9</ele>
        <time>2023-10-11T13:30:34Z</time>
      </trkpt>
      <trkpt lat="49.04997" lon="-0.03288">
        <ele>21.9</ele>
        <time>2023-10-11T13:30:35Z</time>
      </trkpt>
      <trkpt lat="49.04997" lon="-0.033">
        <ele>21.9</ele>
        <time>2023-10-11T13:30:36Z</time>
      </trkpt>
      <trkpt lat="49.04998" lon="-0.03312">
        <ele>21.9</ele>
        <time>2023-10-11T13:30:37Z</time>
      </trkpt>
      <trkpt lat="49.05" lon="-0.03323">
        <ele>21.9</ele>
        <time>2023-10-11T13:30:38Z</time>
      </trkpt>
      <trkpt lat="49.05001" lon="-0.03335">
        <ele>21.9</ele>
        <time>2023-10-11T13:30:39Z</time>
      </trkpt>
      <trkpt lat="49.05003" lon="-0.03347">
        <ele>21.9</ele>
        <time>2023-10-11T13:30:40Z</time>
      </trkpt>
      <trkpt lat="49.05004" lon="-0.03358">
        <ele>22</ele>
        <time>2023-10-11T13:30:41Z</time>
      </trkpt>
      <trkpt lat="49.05006" lon="-0.0337">
        <ele>22</ele>
        <time>2023-10-11T13:30:42Z</time>
      </trkpt>
      <trkpt lat="49.05007" lon="-0.03381">
        <ele>22</ele>
        <time>2023-10-11T13:30:43Z</time>
      </trkpt>
      <trkpt lat="49.05009" lon="-0.03392">
        <ele>22.1</ele>
        <time>2023-10-11T13:30:44Z</time>
      </trkpt>
      <trkpt lat="49.05012" lon="-0.03403">
        <ele>22.1</ele>
        <time>2023-10-11T13:30:45Z</time>
      </trkpt>
      <trkpt lat="49.05014" lon="-0.03415">
        <ele>22.2</ele>
        <time>2023-10-11T13:30:46Z</time>
      </trkpt>
      <trkpt lat="49.05015" lon="-0.03426">
        <ele>22.2</ele>
        <time>2023-10-11T13:30:47Z</time>
      </trkpt>
      <trkpt lat="49.05018" lon="-0.03437">
        <ele>22.3</ele>
        <time>2023-10-11T13:30:48Z</time>
      </trkpt>
      <trkpt lat="49.05019" lon="-0.03449">
        <ele>22.3</ele>
        <time>2023-10-11T13:30:49Z</time>
      </trkpt>
      <trkpt lat="49.05021" lon="-0.0346">
        <ele>22.4</ele>
        <time>2023-10-11T13:30:50Z</time>
      </trkpt>
      <trkpt lat="49.05023" lon="-0.03471">
        <ele>22.4</ele>
        <time>2023-10-11T13:30:51Z</time>
      </trkpt>
      <trkpt lat="49.05025" lon="-0.03482">
        <ele>22.4</ele>
        <time>2023-10-11T13:30:52Z</time>
      </trkpt>
      <trkpt lat="49.05027" lon="-0.03493">
        <ele>22.5</ele>
        <time>2023-10-11T13:30:53Z</time>
      </trkpt>
      <trkpt lat="49.05028" lon="-0.03504">
        <ele>22.5</ele>
        <time>2023-10-11T13:30:54Z</time>
      </trkpt>
      <trkpt lat="49.0503" lon="-0.03516">
        <ele>22.5</ele>
        <time>2023-10-11T13:30:55Z</time>
      </trkpt>
      <trkpt lat="49.05032" lon="-0.03527">
        <ele>22.6</ele>
        <time>2023-10-11T13:30:56Z</time>
      </trkpt>
      <trkpt lat="49.05033" lon="-0.03538">
        <ele>22.6</ele>
        <time>2023-10-11T13:30:57Z</time>
      </trkpt>
      <trkpt lat="49.05035" lon="-0.03549">
        <ele>22.7</ele>
        <time>2023-10-11T13:30:58Z</time>
      </trkpt>
      <trkpt lat="49.05036" lon="-0.0356">
        <ele>22.8</ele>
        <time>2023-10-11T13:30:59Z</time>
      </trkpt>
      <trkpt lat="49.05037" lon="-0.03571">
        <ele>22.8</ele>
        <time>2023-10-11T13:31:00Z</time>
      </trkpt>
      <trkpt lat="49.05039" lon="-0.03581">
        <ele>22.9</ele>
        <time>2023-10-11T13:31:01Z</time>
      </trkpt>
      <trkpt lat="49.0504" lon="-0.03592">
        <ele>22.9</ele>
        <time>2023-10-11T13:31:02Z</time>
      </trkpt>
      <trkpt lat="49.05041" lon="-0.03603">
        <ele>23</ele>
        <time>2023-10-11T13:31:03Z</time>
      </trkpt>
      <trkpt lat="49.05042" lon="-0.03613">
        <ele>23.1</ele>
        <time>2023-10-11T13:31:04Z</time>
      </trkpt>
      <trkpt lat="49.05043" lon="-0.03624">
        <ele>23.1</ele>
        <time>2023-10-11T13:31:05Z</time>
      </trkpt>
      <trkpt lat="49.05044" lon="-0.03635">
        <ele>23.2</ele>
        <time>2023-10-11T13:31:06Z</time>
      </trkpt>
      <trkpt lat="49.05045" lon="-0.03645">
        <ele>23.3</ele>
        <time>2023-10-11T13:31:07Z</time>
      </trkpt>
      <trkpt lat="49.05046" lon="-0.03655">
        <ele>23.3</ele>
        <time>2023-10-11T13:31:08Z</time>
      </trkpt>
      <trkpt lat="49.05047" lon="-0.03665">
        <ele>23.4</ele>
        <time>2023-10-11T13:31:09Z</time>
      </trkpt>
      <trkpt lat="49.05048" lon="-0.03676">
        <ele>23.5</ele>
        <time>2023-10-11T13:31:10Z</time>
      </trkpt>
      <trkpt lat="49.0505" lon="-0.03686">
        <ele>23.5</ele>
        <time>2023-10-11T13:31:11Z</time>
      </trkpt>
      <trkpt lat="49.05051" lon="-0.03697">
        <ele>23.6</ele>
        <time>2023-10-11T13:31:12Z</time>
      </trkpt>
      <trkpt lat="49.05052" lon="-0.03707">
        <ele>23.7</ele>
        <time>2023-10-11T13:31:13Z</time>
      </trkpt>
      <trkpt lat="49.05053" lon="-0.03718">
        <ele>23.7</ele>
        <time>2023-10-11T13:31:14Z</time>
      </trkpt>
      <trkpt lat="49.05055" lon="-0.03728">
        <ele>23.8</ele>
        <time>2023-10-11T13:31:15Z</time>
      </trkpt>
      <trkpt lat="49.05056" lon="-0.03739">
        <ele>23.9</ele>
        <time>2023-10-11T13:31:16Z</time>
      </trkpt>
      <trkpt lat="49.05058" lon="-0.03749">
        <ele>23.9</ele>
        <time>2023-10-11T13:31:17Z</time>
      </trkpt>
      <trkpt lat="49.05059" lon="-0.0376">
        <ele>24</ele>
        <time>2023-10-11T13:31:18Z</time>
      </trkpt>
      <trkpt lat="49.0506" lon="-0.03771">
        <ele>24.1</ele>
        <time>2023-10-11T13:31:19Z</time>
      </trkpt>
      <trkpt lat="49.05061" lon="-0.03781">
        <ele>24.1</ele>
        <time>2023-10-11T13:31:20Z</time>
      </trkpt>
      <trkpt lat="49.05062" lon="-0.03792">
        <ele>24.2</ele>
        <time>2023-10-11T13:31:21Z</time>
      </trkpt>
      <trkpt lat="49.05064" lon="-0.03803">
        <ele>24.2</ele>
        <time>2023-10-11T13:31:22Z</time>
      </trkpt>
      <trkpt lat="49.05065" lon="-0.03813">
        <ele>24.2</ele>
        <time>2023-10-11T13:31:23Z</time>
      </trkpt>
      <trkpt lat="49.05066" lon="-0.03824">
        <ele>24.3</ele>
        <time>2023-10-11T13:31:24Z</time>
      </trkpt>
      <trkpt lat="49.05068" lon="-0.03835">
        <ele>24.3</ele>
        <time>2023-10-11T13:31:25Z</time>
      </trkpt>
      <trkpt lat="49.05069" lon="-0.03845">
        <ele>24.4</ele>
        <time>2023-10-11T13:31:26Z</time>
      </trkpt>
      <trkpt lat="49.0507" lon="-0.03855">
        <ele>24.4</ele>
        <time>2023-10-11T13:31:27Z</time>
      </trkpt>
      <trkpt lat="49.05071" lon="-0.03866">
        <ele>24.4</ele>
        <time>2023-10-11T13:31:28Z</time>
      </trkpt>
      <trkpt lat="49.05073" lon="-0.03876">
        <ele>24.4</ele>
        <time>2023-10-11T13:31:29Z</time>
      </trkpt>
      <trkpt lat="49.05074" lon="-0.03887">
        <ele>24.4</ele>
        <time>2023-10-11T13:31:30Z</time>
      </trkpt>
      <trkpt lat="49.05075" lon="-0.03897">
        <ele>24.4</ele>
        <time>2023-10-11T13:31:31Z</time>
      </trkpt>
      <trkpt lat="49.05077" lon="-0.03907">
        <ele>24.5</ele>
        <time>2023-10-11T13:31:32Z</time>
      </trkpt>
      <trkpt lat="49.05078" lon="-0.03917">
        <ele>24.5</ele>
        <time>2023-10-11T13:31:33Z</time>
      </trkpt>
      <trkpt lat="49.05079" lon="-0.03927">
        <ele>24.5</ele>
        <time>2023-10-11T13:31:34Z</time>
      </trkpt>
      <trkpt lat="49.0508" lon="-0.03936">
        <ele>24.6</ele>
        <time>2023-10-11T13:31:35Z</time>
      </trkpt>
      <trkpt lat="49.05081" lon="-0.03947">
        <ele>24.6</ele>
        <time>2023-10-11T13:31:36Z</time>
      </trkpt>
      <trkpt lat="49.05082" lon="-0.03957">
        <ele>24.6</ele>
        <time>2023-10-11T13:31:37Z</time>
      </trkpt>
      <trkpt lat="49.05083" lon="-0.03967">
        <ele>24.6</ele>
        <time>2023-10-11T13:31:38Z</time>
      </trkpt>
      <trkpt lat="49.05085" lon="-0.03978">
        <ele>24.6</ele>
        <time>2023-10-11T13:31:39Z</time>
      </trkpt>
      <trkpt lat="49.05086" lon="-0.03989">
        <ele>24.6</ele>
        <time>2023-10-11T13:31:40Z</time>
      </trkpt>
      <trkpt lat="49.05087" lon="-0.03999">
        <ele>24.6</ele>
        <time>2023-10-11T13:31:41Z</time>
      </trkpt>
      <trkpt lat="49.05088" lon="-0.0401">
        <ele>24.5</ele>
        <time>2023-10-11T13:31:42Z</time>
      </trkpt>
      <trkpt lat="49.05089" lon="-0.0402">
        <ele>24.5</ele>
        <time>2023-10-11T13:31:43Z</time>
      </trkpt>
      <trkpt lat="49.0509" lon="-0.04031">
        <ele>24.5</ele>
        <time>2023-10-11T13:31:44Z</time>
      </trkpt>
      <trkpt lat="49.05091" lon="-0.04041">
        <ele>24.5</ele>
        <time>2023-10-11T13:31:45Z</time>
      </trkpt>
      <trkpt lat="49.05092" lon="-0.04052">
        <ele>24.4</ele>
        <time>2023-10-11T13:31:46Z</time>
      </trkpt>
      <trkpt lat="49.05093" lon="-0.04062">
        <ele>24.4</ele>
        <time>2023-10-11T13:31:47Z</time>
      </trkpt>
      <trkpt lat="49.05094" lon="-0.04073">
        <ele>24.4</ele>
        <time>2023-10-11T13:31:48Z</time>
      </trkpt>
      <trkpt lat="49.05095" lon="-0.04084">
        <ele>24.4</ele>
        <time>2023-10-11T13:31:49Z</time>
      </trkpt>
      <trkpt lat="49.05096" lon="-0.04095">
        <ele>24.4</ele>
        <time>2023-10-11T13:31:50Z</time>
      </trkpt>
      <trkpt lat="49.05097" lon="-0.04106">
        <ele>24.4</ele>
        <time>2023-10-11T13:31:51Z</time>
      </trkpt>
      <trkpt lat="49.05098" lon="-0.04116">
        <ele>24.4</ele>
        <time>2023-10-11T13:31:52Z</time>
      </trkpt>
      <trkpt lat="49.05099" lon="-0.04127">
        <ele>24.4</ele>
        <time>2023-10-11T13:31:53Z</time>
      </trkpt>
      <trkpt lat="49.05101" lon="-0.04137">
        <ele>24.4</ele>
        <time>2023-10-11T13:31:54Z</time>
      </trkpt>
      <trkpt lat="49.05102" lon="-0.04149">
        <ele>24.5</ele>
        <time>2023-10-11T13:31:55Z</time>
      </trkpt>
      <trkpt lat="49.05102" lon="-0.04159">
        <ele>24.5</ele>
        <time>2023-10-11T13:31:56Z</time>
      </trkpt>
      <trkpt lat="49.05103" lon="-0.0417">
        <ele>24.5</ele>
        <time>2023-10-11T13:31:57Z</time>
      </trkpt>
      <trkpt lat="49.05104" lon="-0.04181">
        <ele>24.5</ele>
        <time>2023-10-11T13:31:58Z</time>
      </trkpt>
      <trkpt lat="49.05105" lon="-0.04191">
        <ele>24.5</ele>
        <time>2023-10-11T13:31:59Z</time>
      </trkpt>
      <trkpt lat="49.05106" lon="-0.04201">
        <ele>24.5</ele>
        <time>2023-10-11T13:32:00Z</time>
      </trkpt>
      <trkpt lat="49.05107" lon="-0.0421">
        <ele>24.6</ele>
        <time>2023-10-11T13:32:01Z</time>
      </trkpt>
      <trkpt lat="49.05108" lon="-0.0422">
        <ele>24.6</ele>
        <time>2023-10-11T13:32:02Z</time>
      </trkpt>
      <trkpt lat="49.05109" lon="-0.0423">
        <ele>24.6</ele>
        <time>2023-10-11T13:32:03Z</time>
      </trkpt>
      <trkpt lat="49.0511" lon="-0.04239">
        <ele>24.7</ele>
        <time>2023-10-11T13:32:04Z</time>
      </trkpt>
      <trkpt lat="49.05111" lon="-0.04249">
        <ele>24.7</ele>
        <time>2023-10-11T13:32:05Z</time>
      </trkpt>
      <trkpt lat="49.05112" lon="-0.04258">
        <ele>24.7</ele>
        <time>2023-10-11T13:32:06Z</time>
      </trkpt>
      <trkpt lat="49.05112" lon="-0.04268">
        <ele>24.8</ele>
        <time>2023-10-11T13:32:07Z</time>
      </trkpt>
      <trkpt lat="49.05113" lon="-0.04278">
        <ele>24.8</ele>
        <time>2023-10-11T13:32:08Z</time>
      </trkpt>
      <trkpt lat="49.05114" lon="-0.04288">
        <ele>24.9</ele>
        <time>2023-10-11T13:32:09Z</time>
      </trkpt>
      <trkpt lat="49.05115" lon="-0.04298">
        <ele>25</ele>
        <time>2023-10-11T13:32:10Z</time>
      </trkpt>
      <trkpt lat="49.05116" lon="-0.04308">
        <ele>25.1</ele>
        <time>2023-10-11T13:32:11Z</time>
      </trkpt>
      <trkpt lat="49.05117" lon="-0.04318">
        <ele>25.1</ele>
        <time>2023-10-11T13:32:12Z</time>
      </trkpt>
      <trkpt lat="49.05117" lon="-0.04328">
        <ele>25.2</ele>
        <time>2023-10-11T13:32:13Z</time>
      </trkpt>
      <trkpt lat="49.05118" lon="-0.04338">
        <ele>25.3</ele>
        <time>2023-10-11T13:32:14Z</time>
      </trkpt>
      <trkpt lat="49.05119" lon="-0.04348">
        <ele>25.3</ele>
        <time>2023-10-11T13:32:15Z</time>
      </trkpt>
      <trkpt lat="49.05119" lon="-0.04358">
        <ele>25.4</ele>
        <time>2023-10-11T13:32:16Z</time>
      </trkpt>
      <trkpt lat="49.0512" lon="-0.04369">
        <ele>25.4</ele>
        <time>2023-10-11T13:32:17Z</time>
      </trkpt>
      <trkpt lat="49.0512" lon="-0.04379">
        <ele>25.5</ele>
        <time>2023-10-11T13:32:18Z</time>
      </trkpt>
      <trkpt lat="49.05121" lon="-0.04389">
        <ele>25.5</ele>
        <time>2023-10-11T13:32:19Z</time>
      </trkpt>
      <trkpt lat="49.05121" lon="-0.044">
        <ele>25.6</ele>
        <time>2023-10-11T13:32:20Z</time>
      </trkpt>
      <trkpt lat="49.05122" lon="-0.0441">
        <ele>25.6</ele>
        <time>2023-10-11T13:32:21Z</time>
      </trkpt>
      <trkpt lat="49.05122" lon="-0.04421">
        <ele>25.6</ele>
        <time>2023-10-11T13:32:22Z</time>
      </trkpt>
      <trkpt lat="49.05123" lon="-0.04432">
        <ele>25.7</ele>
        <time>2023-10-11T13:32:23Z</time>
      </trkpt>
      <trkpt lat="49.05123" lon="-0.04442">
        <ele>25.7</ele>
        <time>2023-10-11T13:32:24Z</time>
      </trkpt>
      <trkpt lat="49.05124" lon="-0.04453">
        <ele>25.8</ele>
        <time>2023-10-11T13:32:25Z</time>
      </trkpt>
      <trkpt lat="49.05124" lon="-0.04463">
        <ele>25.8</ele>
        <time>2023-10-11T13:32:26Z</time>
      </trkpt>
      <trkpt lat="49.05125" lon="-0.04473">
        <ele>25.8</ele>
        <time>2023-10-11T13:32:27Z</time>
      </trkpt>
      <trkpt lat="49.05125" lon="-0.04484">
        <ele>25.8</ele>
        <time>2023-10-11T13:32:28Z</time>
      </trkpt>
      <trkpt lat="49.05126" lon="-0.04494">
        <ele>25.9</ele>
        <time>2023-10-11T13:32:29Z</time>
      </trkpt>
      <trkpt lat="49.05126" lon="-0.04505">
        <ele>25.9</ele>
        <time>2023-10-11T13:32:30Z</time>
      </trkpt>
      <trkpt lat="49.05127" lon="-0.04516">
        <ele>25.9</ele>
        <time>2023-10-11T13:32:31Z</time>
      </trkpt>
      <trkpt lat="49.05127" lon="-0.04527">
        <ele>25.9</ele>
        <time>2023-10-11T13:32:32Z</time>
      </trkpt>
      <trkpt lat="49.05128" lon="-0.04538">
        <ele>25.9</ele>
        <time>2023-10-11T13:32:33Z</time>
      </trkpt>
      <trkpt lat="49.0513" lon="-0.04549">
        <ele>25.8</ele>
        <time>2023-10-11T13:32:34Z</time>
      </trkpt>
      <trkpt lat="49.05131" lon="-0.04561">
        <ele>25.8</ele>
        <time>2023-10-11T13:32:35Z</time>
      </trkpt>
      <trkpt lat="49.05133" lon="-0.04572">
        <ele>25.8</ele>
        <time>2023-10-11T13:32:36Z</time>
      </trkpt>
      <trkpt lat="49.05135" lon="-0.04583">
        <ele>25.7</ele>
        <time>2023-10-11T13:32:37Z</time>
      </trkpt>
      <trkpt lat="49.05137" lon="-0.04595">
        <ele>25.7</ele>
        <time>2023-10-11T13:32:38Z</time>
      </trkpt>
      <trkpt lat="49.0514" lon="-0.04606">
        <ele>25.6</ele>
        <time>2023-10-11T13:32:39Z</time>
      </trkpt>
      <trkpt lat="49.05142" lon="-0.04617">
        <ele>25.6</ele>
        <time>2023-10-11T13:32:40Z</time>
      </trkpt>
      <trkpt lat="49.05144" lon="-0.04629">
        <ele>25.6</ele>
        <time>2023-10-11T13:32:41Z</time>
      </trkpt>
      <trkpt lat="49.05147" lon="-0.04641">
        <ele>25.5</ele>
        <time>2023-10-11T13:32:42Z</time>
      </trkpt>
      <trkpt lat="49.05149" lon="-0.04653">
        <ele>25.5</ele>
        <time>2023-10-11T13:32:43Z</time>
      </trkpt>
      <trkpt lat="49.05152" lon="-0.04665">
        <ele>25.5</ele>
        <time>2023-10-11T13:32:44Z</time>
      </trkpt>
      <trkpt lat="49.05155" lon="-0.04677">
        <ele>25.5</ele>
        <time>2023-10-11T13:32:45Z</time>
      </trkpt>
      <trkpt lat="49.05158" lon="-0.04689">
        <ele>25.5</ele>
        <time>2023-10-11T13:32:46Z</time>
      </trkpt>
      <trkpt lat="49.0516" lon="-0.04701">
        <ele>25.5</ele>
        <time>2023-10-11T13:32:47Z</time>
      </trkpt>
      <trkpt lat="49.05163" lon="-0.04712">
        <ele>25.5</ele>
        <time>2023-10-11T13:32:48Z</time>
      </trkpt>
      <trkpt lat="49.05166" lon="-0.04724">
        <ele>25.5</ele>
        <time>2023-10-11T13:32:49Z</time>
      </trkpt>
      <trkpt lat="49.05168" lon="-0.04735">
        <ele>25.6</ele>
        <time>2023-10-11T13:32:50Z</time>
      </trkpt>
      <trkpt lat="49.05171" lon="-0.04746">
        <ele>25.6</ele>
        <time>2023-10-11T13:32:51Z</time>
      </trkpt>
      <trkpt lat="49.05174" lon="-0.04756">
        <ele>25.7</ele>
        <time>2023-10-11T13:32:52Z</time>
      </trkpt>
      <trkpt lat="49.05177" lon="-0.04765">
        <ele>25.7</ele>
        <time>2023-10-11T13:32:53Z</time>
      </trkpt>
      <trkpt lat="49.05181" lon="-0.04775">
        <ele>25.8</ele>
        <time>2023-10-11T13:32:54Z</time>
      </trkpt>
      <trkpt lat="49.05185" lon="-0.04784">
        <ele>25.9</ele>
        <time>2023-10-11T13:32:55Z</time>
      </trkpt>
      <trkpt lat="49.05188" lon="-0.04794">
        <ele>25.9</ele>
        <time>2023-10-11T13:32:56Z</time>
      </trkpt>
      <trkpt lat="49.0519" lon="-0.04804">
        <ele>26</ele>
        <time>2023-10-11T13:32:57Z</time>
      </trkpt>
      <trkpt lat="49.05192" lon="-0.04813">
        <ele>25.9</ele>
        <time>2023-10-11T13:32:58Z</time>
      </trkpt>
      <trkpt lat="49.05192" lon="-0.04823">
        <ele>25.9</ele>
        <time>2023-10-11T13:32:59Z</time>
      </trkpt>
      <trkpt lat="49.05193" lon="-0.04833">
        <ele>25.8</ele>
        <time>2023-10-11T13:33:00Z</time>
      </trkpt>
      <trkpt lat="49.05193" lon="-0.04843">
        <ele>25.7</ele>
        <time>2023-10-11T13:33:01Z</time>
      </trkpt>
      <trkpt lat="49.05194" lon="-0.04854">
        <ele>25.5</ele>
        <time>2023-10-11T13:33:02Z</time>
      </trkpt>
      <trkpt lat="49.05195" lon="-0.04866">
        <ele>25.4</ele>
        <time>2023-10-11T13:33:03Z</time>
      </trkpt>
      <trkpt lat="49.05196" lon="-0.04878">
        <ele>25.2</ele>
        <time>2023-10-11T13:33:04Z</time>
      </trkpt>
      <trkpt lat="49.05197" lon="-0.0489">
        <ele>25.1</ele>
        <time>2023-10-11T13:33:05Z</time>
      </trkpt>
      <trkpt lat="49.05198" lon="-0.04903">
        <ele>24.9</ele>
        <time>2023-10-11T13:33:06Z</time>
      </trkpt>
      <trkpt lat="49.05199" lon="-0.04915">
        <ele>24.8</ele>
        <time>2023-10-11T13:33:07Z</time>
      </trkpt>
      <trkpt lat="49.052" lon="-0.04928">
        <ele>24.6</ele>
        <time>2023-10-11T13:33:08Z</time>
      </trkpt>
      <trkpt lat="49.052" lon="-0.0494">
        <ele>24.5</ele>
        <time>2023-10-11T13:33:09Z</time>
      </trkpt>
      <trkpt lat="49.05201" lon="-0.04952">
        <ele>24.4</ele>
        <time>2023-10-11T13:33:10Z</time>
      </trkpt>
      <trkpt lat="49.05202" lon="-0.04964">
        <ele>24.3</ele>
        <time>2023-10-11T13:33:11Z</time>
      </trkpt>
      <trkpt lat="49.05204" lon="-0.04976">
        <ele>24.2</ele>
        <time>2023-10-11T13:33:12Z</time>
      </trkpt>
      <trkpt lat="49.05205" lon="-0.04988">
        <ele>24.1</ele>
        <time>2023-10-11T13:33:13Z</time>
      </trkpt>
      <trkpt lat="49.05207" lon="-0.05">
        <ele>24</ele>
        <time>2023-10-11T13:33:14Z</time>
      </trkpt>
      <trkpt lat="49.05209" lon="-0.05012">
        <ele>24</ele>
        <time>2023-10-11T13:33:15Z</time>
      </trkpt>
      <trkpt lat="49.05211" lon="-0.05023">
        <ele>24</ele>
        <time>2023-10-11T13:33:16Z</time>
      </trkpt>
      <trkpt lat="49.05213" lon="-0.05034">
        <ele>24</ele>
        <time>2023-10-11T13:33:17Z</time>
      </trkpt>
      <trkpt lat="49.05214" lon="-0.05045">
        <ele>24</ele>
        <time>2023-10-11T13:33:18Z</time>
      </trkpt>
      <trkpt lat="49.05213" lon="-0.05056">
        <ele>24</ele>
        <time>2023-10-11T13:33:19Z</time>
      </trkpt>
      <trkpt lat="49.05209" lon="-0.05065">
        <ele>24</ele>
        <time>2023-10-11T13:33:20Z</time>
      </trkpt>
      <trkpt lat="49.05204" lon="-0.05074">
        <ele>24</ele>
        <time>2023-10-11T13:33:21Z</time>
      </trkpt>
      <trkpt lat="49.05199" lon="-0.05083">
        <ele>24.1</ele>
        <time>2023-10-11T13:33:22Z</time>
      </trkpt>
      <trkpt lat="49.05195" lon="-0.05092">
        <ele>24.1</ele>
        <time>2023-10-11T13:33:23Z</time>
      </trkpt>
      <trkpt lat="49.05194" lon="-0.05103">
        <ele>24.1</ele>
        <time>2023-10-11T13:33:24Z</time>
      </trkpt>
      <trkpt lat="49.05193" lon="-0.05115">
        <ele>24.2</ele>
        <time>2023-10-11T13:33:25Z</time>
      </trkpt>
      <trkpt lat="49.05194" lon="-0.05128">
        <ele>24.3</ele>
        <time>2023-10-11T13:33:26Z</time>
      </trkpt>
      <trkpt lat="49.05196" lon="-0.0514">
        <ele>24.3</ele>
        <time>2023-10-11T13:33:27Z</time>
      </trkpt>
      <trkpt lat="49.05198" lon="-0.05152">
        <ele>24.4</ele>
        <time>2023-10-11T13:33:28Z</time>
      </trkpt>
      <trkpt lat="49.052" lon="-0.05163">
        <ele>24.5</ele>
        <time>2023-10-11T13:33:29Z</time>
      </trkpt>
      <trkpt lat="49.05202" lon="-0.05175">
        <ele>24.6</ele>
        <time>2023-10-11T13:33:30Z</time>
      </trkpt>
      <trkpt lat="49.05204" lon="-0.05186">
        <ele>24.6</ele>
        <time>2023-10-11T13:33:31Z</time>
      </trkpt>
      <trkpt lat="49.05205" lon="-0.05197">
        <ele>24.7</ele>
        <time>2023-10-11T13:33:32Z</time>
      </trkpt>
      <trkpt lat="49.05207" lon="-0.05208">
        <ele>24.8</ele>
        <time>2023-10-11T13:33:33Z</time>
      </trkpt>
      <trkpt lat="49.05209" lon="-0.0522">
        <ele>24.9</ele>
        <time>2023-10-11T13:33:34Z</time>
      </trkpt>
      <trkpt lat="49.05211" lon="-0.05231">
        <ele>25</ele>
        <time>2023-10-11T13:33:35Z</time>
      </trkpt>
      <trkpt lat="49.05213" lon="-0.05243">
        <ele>25.1</ele>
        <time>2023-10-11T13:33:36Z</time>
      </trkpt>
      <trkpt lat="49.05214" lon="-0.05254">
        <ele>25.3</ele>
        <time>2023-10-11T13:33:37Z</time>
      </trkpt>
      <trkpt lat="49.05216" lon="-0.05266">
        <ele>25.4</ele>
        <time>2023-10-11T13:33:38Z</time>
      </trkpt>
      <trkpt lat="49.05217" lon="-0.05277">
        <ele>25.6</ele>
        <time>2023-10-11T13:33:39Z</time>
      </trkpt>
      <trkpt lat="49.05219" lon="-0.05288">
        <ele>25.7</ele>
        <time>2023-10-11T13:33:40Z</time>
      </trkpt>
      <trkpt lat="49.05221" lon="-0.05298">
        <ele>25.8</ele>
        <time>2023-10-11T13:33:41Z</time>
      </trkpt>
      <trkpt lat="49.05222" lon="-0.05308">
        <ele>26</ele>
        <time>2023-10-11T13:33:42Z</time>
      </trkpt>
      <trkpt lat="49.05223" lon="-0.05318">
        <ele>26.1</ele>
        <time>2023-10-11T13:33:43Z</time>
      </trkpt>
      <trkpt lat="49.05225" lon="-0.05328">
        <ele>26.1</ele>
        <time>2023-10-11T13:33:44Z</time>
      </trkpt>
      <trkpt lat="49.05226" lon="-0.05336">
        <ele>26.2</ele>
        <time>2023-10-11T13:33:45Z</time>
      </trkpt>
      <trkpt lat="49.05227" lon="-0.05344">
        <ele>26.3</ele>
        <time>2023-10-11T13:33:46Z</time>
      </trkpt>
      <trkpt lat="49.05228" lon="-0.05352">
        <ele>26.4</ele>
        <time>2023-10-11T13:33:47Z</time>
      </trkpt>
      <trkpt lat="49.05228" lon="-0.05358">
        <ele>26.5</ele>
        <time>2023-10-11T13:33:48Z</time>
      </trkpt>
      <trkpt lat="49.05226" lon="-0.05363">
        <ele>26.5</ele>
        <time>2023-10-11T13:33:49Z</time>
      </trkpt>
      <trkpt lat="49.05223" lon="-0.05367">
        <ele>26.5</ele>
        <time>2023-10-11T13:33:50Z</time>
      </trkpt>
      <trkpt lat="49.05219" lon="-0.0537">
        <ele>26.5</ele>
        <time>2023-10-11T13:33:51Z</time>
      </trkpt>
      <trkpt lat="49.05215" lon="-0.05372">
        <ele>26.5</ele>
        <time>2023-10-11T13:33:52Z</time>
      </trkpt>
      <trkpt lat="49.0521" lon="-0.05374">
        <ele>26.5</ele>
        <time>2023-10-11T13:33:53Z</time>
      </trkpt>
      <trkpt lat="49.05205" lon="-0.05377">
        <ele>26.5</ele>
        <time>2023-10-11T13:33:54Z</time>
      </trkpt>
      <trkpt lat="49.05201" lon="-0.0538">
        <ele>26.5</ele>
        <time>2023-10-11T13:33:55Z</time>
      </trkpt>
      <trkpt lat="49.05195" lon="-0.05383">
        <ele>26.5</ele>
        <time>2023-10-11T13:33:56Z</time>
      </trkpt>
      <trkpt lat="49.05189" lon="-0.05386">
        <ele>26.5</ele>
        <time>2023-10-11T13:33:57Z</time>
      </trkpt>
      <trkpt lat="49.05183" lon="-0.05388">
        <ele>26.6</ele>
        <time>2023-10-11T13:33:58Z</time>
      </trkpt>
      <trkpt lat="49.05176" lon="-0.05391">
        <ele>26.7</ele>
        <time>2023-10-11T13:33:59Z</time>
      </trkpt>
      <trkpt lat="49.05169" lon="-0.05393">
        <ele>26.7</ele>
        <time>2023-10-11T13:34:00Z</time>
      </trkpt>
      <trkpt lat="49.05162" lon="-0.05395">
        <ele>26.8</ele>
        <time>2023-10-11T13:34:01Z</time>
      </trkpt>
      <trkpt lat="49.05155" lon="-0.05397">
        <ele>26.9</ele>
        <time>2023-10-11T13:34:02Z</time>
      </trkpt>
      <trkpt lat="49.05147" lon="-0.05398">
        <ele>26.9</ele>
        <time>2023-10-11T13:34:03Z</time>
      </trkpt>
      <trkpt lat="49.05139" lon="-0.05399">
        <ele>26.9</ele>
        <time>2023-10-11T13:34:04Z</time>
      </trkpt>
      <trkpt lat="49.05131" lon="-0.054">
        <ele>26.9</ele>
        <time>2023-10-11T13:34:05Z</time>
      </trkpt>
      <trkpt lat="49.05123" lon="-0.05401">
        <ele>26.9</ele>
        <time>2023-10-11T13:34:06Z</time>
      </trkpt>
      <trkpt lat="49.05115" lon="-0.05402">
        <ele>26.9</ele>
        <time>2023-10-11T13:34:07Z</time>
      </trkpt>
      <trkpt lat="49.05107" lon="-0.05404">
        <ele>26.9</ele>
        <time>2023-10-11T13:34:08Z</time>
      </trkpt>
      <trkpt lat="49.05099" lon="-0.05407">
        <ele>26.9</ele>
        <time>2023-10-11T13:34:09Z</time>
      </trkpt>
      <trkpt lat="49.05091" lon="-0.05411">
        <ele>26.9</ele>
        <time>2023-10-11T13:34:10Z</time>
      </trkpt>
      <trkpt lat="49.05084" lon="-0.05415">
        <ele>26.9</ele>
        <time>2023-10-11T13:34:11Z</time>
      </trkpt>
      <trkpt lat="49.05077" lon="-0.05419">
        <ele>26.9</ele>
        <time>2023-10-11T13:34:12Z</time>
      </trkpt>
      <trkpt lat="49.05069" lon="-0.05423">
        <ele>27</ele>
        <time>2023-10-11T13:34:13Z</time>
      </trkpt>
      <trkpt lat="49.05062" lon="-0.05427">
        <ele>27</ele>
        <time>2023-10-11T13:34:14Z</time>
      </trkpt>
      <trkpt lat="49.05055" lon="-0.05431">
        <ele>27</ele>
        <time>2023-10-11T13:34:15Z</time>
      </trkpt>
      <trkpt lat="49.05049" lon="-0.05434">
        <ele>27</ele>
        <time>2023-10-11T13:34:16Z</time>
      </trkpt>
      <trkpt lat="49.05042" lon="-0.05438">
        <ele>27</ele>
        <time>2023-10-11T13:34:17Z</time>
      </trkpt>
      <trkpt lat="49.05035" lon="-0.05442">
        <ele>27</ele>
        <time>2023-10-11T13:34:18Z</time>
      </trkpt>
      <trkpt lat="49.05029" lon="-0.05445">
        <ele>27</ele>
        <time>2023-10-11T13:34:19Z</time>
      </trkpt>
      <trkpt lat="49.05023" lon="-0.05449">
        <ele>27</ele>
        <time>2023-10-11T13:34:20Z</time>
      </trkpt>
      <trkpt lat="49.05016" lon="-0.05452">
        <ele>27.1</ele>
        <time>2023-10-11T13:34:21Z</time>
      </trkpt>
      <trkpt lat="49.0501" lon="-0.05456">
        <ele>27.1</ele>
        <time>2023-10-11T13:34:22Z</time>
      </trkpt>
      <trkpt lat="49.05003" lon="-0.0546">
        <ele>27.1</ele>
        <time>2023-10-11T13:34:23Z</time>
      </trkpt>
      <trkpt lat="49.04996" lon="-0.05464">
        <ele>27.1</ele>
        <time>2023-10-11T13:34:24Z</time>
      </trkpt>
      <trkpt lat="49.0499" lon="-0.05467">
        <ele>27.1</ele>
        <time>2023-10-11T13:34:25Z</time>
      </trkpt>
      <trkpt lat="49.04983" lon="-0.05472">
        <ele>27.1</ele>
        <time>2023-10-11T13:34:26Z</time>
      </trkpt>
      <trkpt lat="49.04977" lon="-0.05476">
        <ele>27.1</ele>
        <time>2023-10-11T13:34:27Z</time>
      </trkpt>
      <trkpt lat="49.0497" lon="-0.05481">
        <ele>27.1</ele>
        <time>2023-10-11T13:34:28Z</time>
      </trkpt>
      <trkpt lat="49.04964" lon="-0.05486">
        <ele>27.1</ele>
        <time>2023-10-11T13:34:29Z</time>
      </trkpt>
      <trkpt lat="49.04958" lon="-0.05491">
        <ele>27.1</ele>
        <time>2023-10-11T13:34:30Z</time>
      </trkpt>
      <trkpt lat="49.04952" lon="-0.05496">
        <ele>27.1</ele>
        <time>2023-10-11T13:34:31Z</time>
      </trkpt>
      <trkpt lat="49.04946" lon="-0.05502">
        <ele>27.1</ele>
        <time>2023-10-11T13:34:32Z</time>
      </trkpt>
      <trkpt lat="49.0494" lon="-0.05508">
        <ele>27.2</ele>
        <time>2023-10-11T13:34:33Z</time>
      </trkpt>
      <trkpt lat="49.04934" lon="-0.05514">
        <ele>27.2</ele>
        <time>2023-10-11T13:34:34Z</time>
      </trkpt>
      <trkpt lat="49.04928" lon="-0.05521">
        <ele>27.2</ele>
        <time>2023-10-11T13:34:35Z</time>
      </trkpt>
      <trkpt lat="49.04922" lon="-0.05527">
        <ele>27.2</ele>
        <time>2023-10-11T13:34:36Z</time>
      </trkpt>
      <trkpt lat="49.04916" lon="-0.05534">
        <ele>27.3</ele>
        <time>2023-10-11T13:34:37Z</time>
      </trkpt>
      <trkpt lat="49.0491" lon="-0.0554">
        <ele>27.3</ele>
        <time>2023-10-11T13:34:38Z</time>
      </trkpt>
      <trkpt lat="49.04903" lon="-0.05546">
        <ele>27.3</ele>
        <time>2023-10-11T13:34:39Z</time>
      </trkpt>
      <trkpt lat="49.04897" lon="-0.0555">
        <ele>27.4</ele>
        <time>2023-10-11T13:34:40Z</time>
      </trkpt>
      <trkpt lat="49.0489" lon="-0.05555">
        <ele>27.4</ele>
        <time>2023-10-11T13:34:41Z</time>
      </trkpt>
      <trkpt lat="49.04884" lon="-0.05559">
        <ele>27.5</ele>
        <time>2023-10-11T13:34:42Z</time>
      </trkpt>
      <trkpt lat="49.04877" lon="-0.05563">
        <ele>27.6</ele>
        <time>2023-10-11T13:34:43Z</time>
      </trkpt>
      <trkpt lat="49.04871" lon="-0.05567">
        <ele>27.6</ele>
        <time>2023-10-11T13:34:44Z</time>
      </trkpt>
      <trkpt lat="49.04865" lon="-0.05571">
        <ele>27.7</ele>
        <time>2023-10-11T13:34:45Z</time>
      </trkpt>
      <trkpt lat="49.04858" lon="-0.05576">
        <ele>27.7</ele>
        <time>2023-10-11T13:34:46Z</time>
      </trkpt>
      <trkpt lat="49.04852" lon="-0.0558">
        <ele>27.8</ele>
        <time>2023-10-11T13:34:47Z</time>
      </trkpt>
      <trkpt lat="49.04846" lon="-0.05584">
        <ele>27.9</ele>
        <time>2023-10-11T13:34:48Z</time>
      </trkpt>
      <trkpt lat="49.04839" lon="-0.05588">
        <ele>28</ele>
        <time>2023-10-11T13:34:49Z</time>
      </trkpt>
      <trkpt lat="49.04833" lon="-0.05592">
        <ele>28.2</ele>
        <time>2023-10-11T13:34:50Z</time>
      </trkpt>
      <trkpt lat="49.04827" lon="-0.05597">
        <ele>28.3</ele>
        <time>2023-10-11T13:34:51Z</time>
      </trkpt>
      <trkpt lat="49.0482" lon="-0.05601">
        <ele>28.5</ele>
        <time>2023-10-11T13:34:52Z</time>
      </trkpt>
      <trkpt lat="49.04814" lon="-0.05605">
        <ele>28.7</ele>
        <time>2023-10-11T13:34:53Z</time>
      </trkpt>
      <trkpt lat="49.04809" lon="-0.05609">
        <ele>28.8</ele>
        <time>2023-10-11T13:34:54Z</time>
      </trkpt>
      <trkpt lat="49.04803" lon="-0.05613">
        <ele>28.9</ele>
        <time>2023-10-11T13:34:55Z</time>
      </trkpt>
      <trkpt lat="49.048" lon="-0.05619">
        <ele>28.9</ele>
        <time>2023-10-11T13:34:56Z</time>
      </trkpt>
      <trkpt lat="49.04798" lon="-0.05627">
        <ele>29</ele>
        <time>2023-10-11T13:34:57Z</time>
      </trkpt>
      <trkpt lat="49.04798" lon="-0.05636">
        <ele>29</ele>
        <time>2023-10-11T13:34:58Z</time>
      </trkpt>
      <trkpt lat="49.04799" lon="-0.05646">
        <ele>29.1</ele>
        <time>2023-10-11T13:34:59Z</time>
      </trkpt>
      <trkpt lat="49.04801" lon="-0.05656">
        <ele>29.2</ele>
        <time>2023-10-11T13:35:00Z</time>
      </trkpt>
      <trkpt lat="49.04803" lon="-0.05665">
        <ele>29.2</ele>
        <time>2023-10-11T13:35:01Z</time>
      </trkpt>
      <trkpt lat="49.04806" lon="-0.05675">
        <ele>29.3</ele>
        <time>2023-10-11T13:35:02Z</time>
      </trkpt>
      <trkpt lat="49.04809" lon="-0.05685">
        <ele>29.4</ele>
        <time>2023-10-11T13:35:03Z</time>
      </trkpt>
      <trkpt lat="49.04812" lon="-0.05696">
        <ele>29.4</ele>
        <time>2023-10-11T13:35:04Z</time>
      </trkpt>
      <trkpt lat="49.04814" lon="-0.05707">
        <ele>29.5</ele>
        <time>2023-10-11T13:35:05Z</time>
      </trkpt>
      <trkpt lat="49.04817" lon="-0.05718">
        <ele>29.5</ele>
        <time>2023-10-11T13:35:06Z</time>
      </trkpt>
      <trkpt lat="49.0482" lon="-0.05729">
        <ele>29.6</ele>
        <time>2023-10-11T13:35:07Z</time>
      </trkpt>
      <trkpt lat="49.04822" lon="-0.0574">
        <ele>29.7</ele>
        <time>2023-10-11T13:35:08Z</time>
      </trkpt>
      <trkpt lat="49.04824" lon="-0.05752">
        <ele>29.7</ele>
        <time>2023-10-11T13:35:09Z</time>
      </trkpt>
      <trkpt lat="49.04827" lon="-0.05763">
        <ele>29.8</ele>
        <time>2023-10-11T13:35:10Z</time>
      </trkpt>
      <trkpt lat="49.04829" lon="-0.05775">
        <ele>29.9</ele>
        <time>2023-10-11T13:35:11Z</time>
      </trkpt>
      <trkpt lat="49.04831" lon="-0.05786">
        <ele>29.9</ele>
        <time>2023-10-11T13:35:12Z</time>
      </trkpt>
      <trkpt lat="49.04834" lon="-0.05797">
        <ele>29.9</ele>
        <time>2023-10-11T13:35:13Z</time>
      </trkpt>
      <trkpt lat="49.04837" lon="-0.05808">
        <ele>29.9</ele>
        <time>2023-10-11T13:35:14Z</time>
      </trkpt>
      <trkpt lat="49.04839" lon="-0.0582">
        <ele>29.9</ele>
        <time>2023-10-11T13:35:15Z</time>
      </trkpt>
      <trkpt lat="49.04841" lon="-0.05831">
        <ele>29.9</ele>
        <time>2023-10-11T13:35:16Z</time>
      </trkpt>
      <trkpt lat="49.04844" lon="-0.05843">
        <ele>30.1</ele>
        <time>2023-10-11T13:35:17Z</time>
      </trkpt>
      <trkpt lat="49.04847" lon="-0.05855">
        <ele>30.3</ele>
        <time>2023-10-11T13:35:18Z</time>
      </trkpt>
      <trkpt lat="49.04849" lon="-0.05866">
        <ele>30.5</ele>
        <time>2023-10-11T13:35:19Z</time>
      </trkpt>
      <trkpt lat="49.04852" lon="-0.05878">
        <ele>30.7</ele>
        <time>2023-10-11T13:35:20Z</time>
      </trkpt>
      <trkpt lat="49.04855" lon="-0.05891">
        <ele>30.9</ele>
        <time>2023-10-11T13:35:21Z</time>
      </trkpt>
      <trkpt lat="49.04857" lon="-0.05903">
        <ele>31.1</ele>
        <time>2023-10-11T13:35:22Z</time>
      </trkpt>
      <trkpt lat="49.0486" lon="-0.05915">
        <ele>31.3</ele>
        <time>2023-10-11T13:35:23Z</time>
      </trkpt>
      <trkpt lat="49.04862" lon="-0.05927">
        <ele>31.5</ele>
        <time>2023-10-11T13:35:24Z</time>
      </trkpt>
      <trkpt lat="49.04865" lon="-0.05939">
        <ele>31.7</ele>
        <time>2023-10-11T13:35:25Z</time>
      </trkpt>
      <trkpt lat="49.04867" lon="-0.05951">
        <ele>31.9</ele>
        <time>2023-10-11T13:35:26Z</time>
      </trkpt>
      <trkpt lat="49.0487" lon="-0.05963">
        <ele>32</ele>
        <time>2023-10-11T13:35:27Z</time>
      </trkpt>
      <trkpt lat="49.04873" lon="-0.05975">
        <ele>32</ele>
        <time>2023-10-11T13:35:28Z</time>
      </trkpt>
      <trkpt lat="49.04875" lon="-0.05987">
        <ele>32.1</ele>
        <time>2023-10-11T13:35:29Z</time>
      </trkpt>
      <trkpt lat="49.04878" lon="-0.05999">
        <ele>32.3</ele>
        <time>2023-10-11T13:35:30Z</time>
      </trkpt>
      <trkpt lat="49.0488" lon="-0.06011">
        <ele>32.5</ele>
        <time>2023-10-11T13:35:31Z</time>
      </trkpt>
      <trkpt lat="49.04883" lon="-0.06023">
        <ele>32.6</ele>
        <time>2023-10-11T13:35:32Z</time>
      </trkpt>
      <trkpt lat="49.04885" lon="-0.06035">
        <ele>32.7</ele>
        <time>2023-10-11T13:35:33Z</time>
      </trkpt>
      <trkpt lat="49.04888" lon="-0.06047">
        <ele>32.7</ele>
        <time>2023-10-11T13:35:34Z</time>
      </trkpt>
      <trkpt lat="49.0489" lon="-0.06059">
        <ele>32.8</ele>
        <time>2023-10-11T13:35:35Z</time>
      </trkpt>
      <trkpt lat="49.04893" lon="-0.06071">
        <ele>32.8</ele>
        <time>2023-10-11T13:35:36Z</time>
      </trkpt>
      <trkpt lat="49.04896" lon="-0.06083">
        <ele>32.8</ele>
        <time>2023-10-11T13:35:37Z</time>
      </trkpt>
      <trkpt lat="49.04899" lon="-0.06095">
        <ele>32.8</ele>
        <time>2023-10-11T13:35:38Z</time>
      </trkpt>
      <trkpt lat="49.04902" lon="-0.06107">
        <ele>32.8</ele>
        <time>2023-10-11T13:35:39Z</time>
      </trkpt>
      <trkpt lat="49.04905" lon="-0.06118">
        <ele>32.9</ele>
        <time>2023-10-11T13:35:40Z</time>
      </trkpt>
      <trkpt lat="49.04907" lon="-0.06131">
        <ele>32.9</ele>
        <time>2023-10-11T13:35:41Z</time>
      </trkpt>
      <trkpt lat="49.0491" lon="-0.06142">
        <ele>32.9</ele>
        <time>2023-10-11T13:35:42Z</time>
      </trkpt>
      <trkpt lat="49.04914" lon="-0.06154">
        <ele>33</ele>
        <time>2023-10-11T13:35:43Z</time>
      </trkpt>
      <trkpt lat="49.04917" lon="-0.06166">
        <ele>33</ele>
        <time>2023-10-11T13:35:44Z</time>
      </trkpt>
      <trkpt lat="49.04921" lon="-0.06178">
        <ele>32.9</ele>
        <time>2023-10-11T13:35:45Z</time>
      </trkpt>
      <trkpt lat="49.04924" lon="-0.0619">
        <ele>32.7</ele>
        <time>2023-10-11T13:35:46Z</time>
      </trkpt>
      <trkpt lat="49.04927" lon="-0.06202">
        <ele>32.5</ele>
        <time>2023-10-11T13:35:47Z</time>
      </trkpt>
      <trkpt lat="49.04931" lon="-0.06214">
        <ele>32.4</ele>
        <time>2023-10-11T13:35:48Z</time>
      </trkpt>
      <trkpt lat="49.04934" lon="-0.06227">
        <ele>32.2</ele>
        <time>2023-10-11T13:35:49Z</time>
      </trkpt>
      <trkpt lat="49.04937" lon="-0.0624">
        <ele>32.1</ele>
        <time>2023-10-11T13:35:50Z</time>
      </trkpt>
      <trkpt lat="49.04941" lon="-0.06252">
        <ele>32</ele>
        <time>2023-10-11T13:35:51Z</time>
      </trkpt>
      <trkpt lat="49.04944" lon="-0.06264">
        <ele>31.9</ele>
        <time>2023-10-11T13:35:52Z</time>
      </trkpt>
      <trkpt lat="49.04948" lon="-0.06276">
        <ele>31.9</ele>
        <time>2023-10-11T13:35:53Z</time>
      </trkpt>
      <trkpt lat="49.04952" lon="-0.06289">
        <ele>31.8</ele>
        <time>2023-10-11T13:35:54Z</time>
      </trkpt>
      <trkpt lat="49.04955" lon="-0.06301">
        <ele>31.8</ele>
        <time>2023-10-11T13:35:55Z</time>
      </trkpt>
      <trkpt lat="49.04959" lon="-0.06314">
        <ele>31.8</ele>
        <time>2023-10-11T13:35:56Z</time>
      </trkpt>
      <trkpt lat="49.04962" lon="-0.06326">
        <ele>31.9</ele>
        <time>2023-10-11T13:35:57Z</time>
      </trkpt>
      <trkpt lat="49.04966" lon="-0.06338">
        <ele>31.9</ele>
        <time>2023-10-11T13:35:58Z</time>
      </trkpt>
      <trkpt lat="49.04969" lon="-0.0635">
        <ele>31.9</ele>
        <time>2023-10-11T13:35:59Z</time>
      </trkpt>
      <trkpt lat="49.04972" lon="-0.06362">
        <ele>31.8</ele>
        <time>2023-10-11T13:36:00Z</time>
      </trkpt>
      <trkpt lat="49.04975" lon="-0.06373">
        <ele>31.8</ele>
        <time>2023-10-11T13:36:01Z</time>
      </trkpt>
      <trkpt lat="49.04978" lon="-0.06384">
        <ele>31.8</ele>
        <time>2023-10-11T13:36:02Z</time>
      </trkpt>
      <trkpt lat="49.0498" lon="-0.06396">
        <ele>31.8</ele>
        <time>2023-10-11T13:36:03Z</time>
      </trkpt>
      <trkpt lat="49.04981" lon="-0.06406">
        <ele>31.8</ele>
        <time>2023-10-11T13:36:04Z</time>
      </trkpt>
      <trkpt lat="49.04981" lon="-0.06415">
        <ele>31.9</ele>
        <time>2023-10-11T13:36:05Z</time>
      </trkpt>
      <trkpt lat="49.04981" lon="-0.06424">
        <ele>31.9</ele>
        <time>2023-10-11T13:36:06Z</time>
      </trkpt>
      <trkpt lat="49.04981" lon="-0.06433">
        <ele>31.9</ele>
        <time>2023-10-11T13:36:07Z</time>
      </trkpt>
      <trkpt lat="49.04981" lon="-0.06441">
        <ele>31.9</ele>
        <time>2023-10-11T13:36:08Z</time>
      </trkpt>
      <trkpt lat="49.04981" lon="-0.06449">
        <ele>31.9</ele>
        <time>2023-10-11T13:36:09Z</time>
      </trkpt>
      <trkpt lat="49.04982" lon="-0.06457">
        <ele>31.9</ele>
        <time>2023-10-11T13:36:10Z</time>
      </trkpt>
      <trkpt lat="49.04983" lon="-0.06465">
        <ele>32</ele>
        <time>2023-10-11T13:36:11Z</time>
      </trkpt>
      <trkpt lat="49.04984" lon="-0.06473">
        <ele>32</ele>
        <time>2023-10-11T13:36:12Z</time>
      </trkpt>
      <trkpt lat="49.04986" lon="-0.0648">
        <ele>32.1</ele>
        <time>2023-10-11T13:36:13Z</time>
      </trkpt>
      <trkpt lat="49.0499" lon="-0.06484">
        <ele>32</ele>
        <time>2023-10-11T13:36:14Z</time>
      </trkpt>
      <trkpt lat="49.04996" lon="-0.06485">
        <ele>32</ele>
        <time>2023-10-11T13:36:15Z</time>
      </trkpt>
      <trkpt lat="49.05002" lon="-0.06484">
        <ele>31.9</ele>
        <time>2023-10-11T13:36:16Z</time>
      </trkpt>
      <trkpt lat="49.05009" lon="-0.06481">
        <ele>31.8</ele>
        <time>2023-10-11T13:36:17Z</time>
      </trkpt>
      <trkpt lat="49.05016" lon="-0.06478">
        <ele>31.8</ele>
        <time>2023-10-11T13:36:18Z</time>
      </trkpt>
      <trkpt lat="49.05024" lon="-0.06476">
        <ele>31.7</ele>
        <time>2023-10-11T13:36:19Z</time>
      </trkpt>
      <trkpt lat="49.05032" lon="-0.06474">
        <ele>31.6</ele>
        <time>2023-10-11T13:36:20Z</time>
      </trkpt>
      <trkpt lat="49.0504" lon="-0.06472">
        <ele>31.6</ele>
        <time>2023-10-11T13:36:21Z</time>
      </trkpt>
      <trkpt lat="49.05048" lon="-0.06469">
        <ele>31.5</ele>
        <time>2023-10-11T13:36:22Z</time>
      </trkpt>
      <trkpt lat="49.05055" lon="-0.06466">
        <ele>31.5</ele>
        <time>2023-10-11T13:36:23Z</time>
      </trkpt>
      <trkpt lat="49.05062" lon="-0.06464">
        <ele>31.4</ele>
        <time>2023-10-11T13:36:24Z</time>
      </trkpt>
      <trkpt lat="49.0507" lon="-0.06461">
        <ele>31.4</ele>
        <time>2023-10-11T13:36:25Z</time>
      </trkpt>
      <trkpt lat="49.05077" lon="-0.06458">
        <ele>31.4</ele>
        <time>2023-10-11T13:36:26Z</time>
      </trkpt>
      <trkpt lat="49.05084" lon="-0.06456">
        <ele>31.4</ele>
        <time>2023-10-11T13:36:27Z</time>
      </trkpt>
      <trkpt lat="49.0509" lon="-0.06455">
        <ele>31.3</ele>
        <time>2023-10-11T13:36:28Z</time>
      </trkpt>
      <trkpt lat="49.05097" lon="-0.06453">
        <ele>31.3</ele>
        <time>2023-10-11T13:36:29Z</time>
      </trkpt>
      <trkpt lat="49.05103" lon="-0.06451">
        <ele>31.3</ele>
        <time>2023-10-11T13:36:30Z</time>
      </trkpt>
      <trkpt lat="49.05109" lon="-0.06449">
        <ele>31.3</ele>
        <time>2023-10-11T13:36:31Z</time>
      </trkpt>
      <trkpt lat="49.05115" lon="-0.06447">
        <ele>31.2</ele>
        <time>2023-10-11T13:36:32Z</time>
      </trkpt>
      <trkpt lat="49.05122" lon="-0.06444">
        <ele>31.2</ele>
        <time>2023-10-11T13:36:33Z</time>
      </trkpt>
      <trkpt lat="49.05129" lon="-0.06441">
        <ele>31.1</ele>
        <time>2023-10-11T13:36:34Z</time>
      </trkpt>
      <trkpt lat="49.05136" lon="-0.06438">
        <ele>31</ele>
        <time>2023-10-11T13:36:35Z</time>
      </trkpt>
      <trkpt lat="49.05144" lon="-0.06436">
        <ele>31</ele>
        <time>2023-10-11T13:36:36Z</time>
      </trkpt>
      <trkpt lat="49.05151" lon="-0.06434">
        <ele>30.9</ele>
        <time>2023-10-11T13:36:37Z</time>
      </trkpt>
      <trkpt lat="49.05158" lon="-0.06432">
        <ele>30.8</ele>
        <time>2023-10-11T13:36:38Z</time>
      </trkpt>
      <trkpt lat="49.05166" lon="-0.0643">
        <ele>30.7</ele>
        <time>2023-10-11T13:36:39Z</time>
      </trkpt>
      <trkpt lat="49.05173" lon="-0.06428">
        <ele>30.6</ele>
        <time>2023-10-11T13:36:40Z</time>
      </trkpt>
      <trkpt lat="49.05181" lon="-0.06426">
        <ele>30.5</ele>
        <time>2023-10-11T13:36:41Z</time>
      </trkpt>
      <trkpt lat="49.05189" lon="-0.06424">
        <ele>30.4</ele>
        <time>2023-10-11T13:36:42Z</time>
      </trkpt>
      <trkpt lat="49.05196" lon="-0.06422">
        <ele>30.3</ele>
        <time>2023-10-11T13:36:43Z</time>
      </trkpt>
      <trkpt lat="49.05204" lon="-0.0642">
        <ele>30.2</ele>
        <time>2023-10-11T13:36:44Z</time>
      </trkpt>
      <trkpt lat="49.05213" lon="-0.06418">
        <ele>30.1</ele>
        <time>2023-10-11T13:36:45Z</time>
      </trkpt>
      <trkpt lat="49.05221" lon="-0.06416">
        <ele>30</ele>
        <time>2023-10-11T13:36:46Z</time>
      </trkpt>
      <trkpt lat="49.05229" lon="-0.06413">
        <ele>30</ele>
        <time>2023-10-11T13:36:47Z</time>
      </trkpt>
      <trkpt lat="49.05238" lon="-0.0641">
        <ele>29.9</ele>
        <time>2023-10-11T13:36:48Z</time>
      </trkpt>
      <trkpt lat="49.05247" lon="-0.06407">
        <ele>29.8</ele>
        <time>2023-10-11T13:36:49Z</time>
      </trkpt>
      <trkpt lat="49.05255" lon="-0.06403">
        <ele>29.6</ele>
        <time>2023-10-11T13:36:50Z</time>
      </trkpt>
      <trkpt lat="49.05263" lon="-0.064">
        <ele>29.5</ele>
        <time>2023-10-11T13:36:51Z</time>
      </trkpt>
      <trkpt lat="49.05272" lon="-0.06397">
        <ele>29.4</ele>
        <time>2023-10-11T13:36:52Z</time>
      </trkpt>
      <trkpt lat="49.0528" lon="-0.06394">
        <ele>29.2</ele>
        <time>2023-10-11T13:36:53Z</time>
      </trkpt>
      <trkpt lat="49.05288" lon="-0.06391">
        <ele>29.1</ele>
        <time>2023-10-11T13:36:54Z</time>
      </trkpt>
      <trkpt lat="49.05297" lon="-0.06388">
        <ele>29</ele>
        <time>2023-10-11T13:36:55Z</time>
      </trkpt>
      <trkpt lat="49.05305" lon="-0.06385">
        <ele>28.9</ele>
        <time>2023-10-11T13:36:56Z</time>
      </trkpt>
      <trkpt lat="49.05313" lon="-0.06382">
        <ele>28.8</ele>
        <time>2023-10-11T13:36:57Z</time>
      </trkpt>
      <trkpt lat="49.05322" lon="-0.06378">
        <ele>28.7</ele>
        <time>2023-10-11T13:36:58Z</time>
      </trkpt>
      <trkpt lat="49.05331" lon="-0.06375">
        <ele>28.7</ele>
        <time>2023-10-11T13:36:59Z</time>
      </trkpt>
      <trkpt lat="49.0534" lon="-0.06372">
        <ele>28.7</ele>
        <time>2023-10-11T13:37:00Z</time>
      </trkpt>
      <trkpt lat="49.05348" lon="-0.06369">
        <ele>28.7</ele>
        <time>2023-10-11T13:37:01Z</time>
      </trkpt>
      <trkpt lat="49.05357" lon="-0.06366">
        <ele>28.6</ele>
        <time>2023-10-11T13:37:02Z</time>
      </trkpt>
      <trkpt lat="49.05365" lon="-0.06363">
        <ele>28.6</ele>
        <time>2023-10-11T13:37:03Z</time>
      </trkpt>
      <trkpt lat="49.05374" lon="-0.0636">
        <ele>28.5</ele>
        <time>2023-10-11T13:37:04Z</time>
      </trkpt>
      <trkpt lat="49.05382" lon="-0.06358">
        <ele>28.5</ele>
        <time>2023-10-11T13:37:05Z</time>
      </trkpt>
      <trkpt lat="49.05391" lon="-0.06355">
        <ele>28.4</ele>
        <time>2023-10-11T13:37:06Z</time>
      </trkpt>
      <trkpt lat="49.054" lon="-0.06353">
        <ele>28.3</ele>
        <time>2023-10-11T13:37:07Z</time>
      </trkpt>
      <trkpt lat="49.05409" lon="-0.0635">
        <ele>28.2</ele>
        <time>2023-10-11T13:37:08Z</time>
      </trkpt>
      <trkpt lat="49.05418" lon="-0.06348">
        <ele>28.2</ele>
        <time>2023-10-11T13:37:09Z</time>
      </trkpt>
      <trkpt lat="49.05427" lon="-0.06345">
        <ele>28.1</ele>
        <time>2023-10-11T13:37:10Z</time>
      </trkpt>
      <trkpt lat="49.05436" lon="-0.06342">
        <ele>28</ele>
        <time>2023-10-11T13:37:11Z</time>
      </trkpt>
      <trkpt lat="49.05444" lon="-0.0634">
        <ele>28</ele>
        <time>2023-10-11T13:37:12Z</time>
      </trkpt>
      <trkpt lat="49.05452" lon="-0.06337">
        <ele>28</ele>
        <time>2023-10-11T13:37:13Z</time>
      </trkpt>
      <trkpt lat="49.05461" lon="-0.06334">
        <ele>27.9</ele>
        <time>2023-10-11T13:37:14Z</time>
      </trkpt>
      <trkpt lat="49.05469" lon="-0.06332">
        <ele>27.8</ele>
        <time>2023-10-11T13:37:15Z</time>
      </trkpt>
      <trkpt lat="49.05477" lon="-0.06329">
        <ele>27.7</ele>
        <time>2023-10-11T13:37:16Z</time>
      </trkpt>
      <trkpt lat="49.05486" lon="-0.06326">
        <ele>27.6</ele>
        <time>2023-10-11T13:37:17Z</time>
      </trkpt>
      <trkpt lat="49.05495" lon="-0.06322">
        <ele>27.4</ele>
        <time>2023-10-11T13:37:18Z</time>
      </trkpt>
      <trkpt lat="49.05504" lon="-0.06318">
        <ele>27.4</ele>
        <time>2023-10-11T13:37:19Z</time>
      </trkpt>
      <trkpt lat="49.05512" lon="-0.06314">
        <ele>27.3</ele>
        <time>2023-10-11T13:37:20Z</time>
      </trkpt>
      <trkpt lat="49.05521" lon="-0.0631">
        <ele>27.3</ele>
        <time>2023-10-11T13:37:21Z</time>
      </trkpt>
      <trkpt lat="49.0553" lon="-0.06306">
        <ele>27.2</ele>
        <time>2023-10-11T13:37:22Z</time>
      </trkpt>
      <trkpt lat="49.05538" lon="-0.06303">
        <ele>27.1</ele>
        <time>2023-10-11T13:37:23Z</time>
      </trkpt>
      <trkpt lat="49.05546" lon="-0.063">
        <ele>27</ele>
        <time>2023-10-11T13:37:24Z</time>
      </trkpt>
      <trkpt lat="49.05554" lon="-0.06298">
        <ele>27</ele>
        <time>2023-10-11T13:37:25Z</time>
      </trkpt>
      <trkpt lat="49.05562" lon="-0.06296">
        <ele>27</ele>
        <time>2023-10-11T13:37:26Z</time>
      </trkpt>
      <trkpt lat="49.0557" lon="-0.06294">
        <ele>26.8</ele>
        <time>2023-10-11T13:37:27Z</time>
      </trkpt>
      <trkpt lat="49.05578" lon="-0.06292">
        <ele>26.7</ele>
        <time>2023-10-11T13:37:28Z</time>
      </trkpt>
      <trkpt lat="49.05586" lon="-0.0629">
        <ele>26.5</ele>
        <time>2023-10-11T13:37:29Z</time>
      </trkpt>
      <trkpt lat="49.05592" lon="-0.06289">
        <ele>26.4</ele>
        <time>2023-10-11T13:37:30Z</time>
      </trkpt>
      <trkpt lat="49.05597" lon="-0.06289">
        <ele>26.3</ele>
        <time>2023-10-11T13:37:31Z</time>
      </trkpt>
      <trkpt lat="49.05602" lon="-0.06291">
        <ele>26.2</ele>
        <time>2023-10-11T13:37:32Z</time>
      </trkpt>
      <trkpt lat="49.05607" lon="-0.06297">
        <ele>26</ele>
        <time>2023-10-11T13:37:33Z</time>
      </trkpt>
      <trkpt lat="49.05612" lon="-0.06305">
        <ele>25.8</ele>
        <time>2023-10-11T13:37:34Z</time>
      </trkpt>
      <trkpt lat="49.05617" lon="-0.06314">
        <ele>25.6</ele>
        <time>2023-10-11T13:37:35Z</time>
      </trkpt>
      <trkpt lat="49.05622" lon="-0.06325">
        <ele>25.3</ele>
        <time>2023-10-11T13:37:36Z</time>
      </trkpt>
      <trkpt lat="49.05625" lon="-0.06337">
        <ele>25.1</ele>
        <time>2023-10-11T13:37:37Z</time>
      </trkpt>
      <trkpt lat="49.05627" lon="-0.06351">
        <ele>24.8</ele>
        <time>2023-10-11T13:37:38Z</time>
      </trkpt>
      <trkpt lat="49.05629" lon="-0.06365">
        <ele>24.4</ele>
        <time>2023-10-11T13:37:39Z</time>
      </trkpt>
      <trkpt lat="49.05632" lon="-0.06379">
        <ele>24</ele>
        <time>2023-10-11T13:37:40Z</time>
      </trkpt>
      <trkpt lat="49.05635" lon="-0.06393">
        <ele>23.7</ele>
        <time>2023-10-11T13:37:41Z</time>
      </trkpt>
      <trkpt lat="49.0564" lon="-0.06406">
        <ele>23.5</ele>
        <time>2023-10-11T13:37:42Z</time>
      </trkpt>
      <trkpt lat="49.05644" lon="-0.06419">
        <ele>23.4</ele>
        <time>2023-10-11T13:37:43Z</time>
      </trkpt>
      <trkpt lat="49.05649" lon="-0.06432">
        <ele>23.3</ele>
        <time>2023-10-11T13:37:44Z</time>
      </trkpt>
      <trkpt lat="49.05653" lon="-0.06445">
        <ele>23.3</ele>
        <time>2023-10-11T13:37:45Z</time>
      </trkpt>
      <trkpt lat="49.05658" lon="-0.06458">
        <ele>23.3</ele>
        <time>2023-10-11T13:37:46Z</time>
      </trkpt>
      <trkpt lat="49.05662" lon="-0.0647">
        <ele>23.3</ele>
        <time>2023-10-11T13:37:47Z</time>
      </trkpt>
      <trkpt lat="49.05666" lon="-0.06483">
        <ele>23.3</ele>
        <time>2023-10-11T13:37:48Z</time>
      </trkpt>
      <trkpt lat="49.05671" lon="-0.06495">
        <ele>23.3</ele>
        <time>2023-10-11T13:37:49Z</time>
      </trkpt>
      <trkpt lat="49.05675" lon="-0.06507">
        <ele>23.4</ele>
        <time>2023-10-11T13:37:50Z</time>
      </trkpt>
      <trkpt lat="49.05679" lon="-0.06519">
        <ele>23.4</ele>
        <time>2023-10-11T13:37:51Z</time>
      </trkpt>
      <trkpt lat="49.05683" lon="-0.06531">
        <ele>23.5</ele>
        <time>2023-10-11T13:37:52Z</time>
      </trkpt>
      <trkpt lat="49.05687" lon="-0.06543">
        <ele>23.6</ele>
        <time>2023-10-11T13:37:53Z</time>
      </trkpt>
      <trkpt lat="49.05692" lon="-0.06555">
        <ele>23.7</ele>
        <time>2023-10-11T13:37:54Z</time>
      </trkpt>
      <trkpt lat="49.05695" lon="-0.06567">
        <ele>23.8</ele>
        <time>2023-10-11T13:37:55Z</time>
      </trkpt>
      <trkpt lat="49.057" lon="-0.06579">
        <ele>24</ele>
        <time>2023-10-11T13:37:56Z</time>
      </trkpt>
      <trkpt lat="49.05704" lon="-0.06592">
        <ele>24.1</ele>
        <time>2023-10-11T13:37:57Z</time>
      </trkpt>
      <trkpt lat="49.05709" lon="-0.06604">
        <ele>24.3</ele>
        <time>2023-10-11T13:37:58Z</time>
      </trkpt>
      <trkpt lat="49.05713" lon="-0.06616">
        <ele>24.4</ele>
        <time>2023-10-11T13:37:59Z</time>
      </trkpt>
      <trkpt lat="49.05718" lon="-0.06628">
        <ele>24.6</ele>
        <time>2023-10-11T13:38:00Z</time>
      </trkpt>
      <trkpt lat="49.05722" lon="-0.0664">
        <ele>24.8</ele>
        <time>2023-10-11T13:38:01Z</time>
      </trkpt>
      <trkpt lat="49.05726" lon="-0.06653">
        <ele>25</ele>
        <time>2023-10-11T13:38:02Z</time>
      </trkpt>
      <trkpt lat="49.0573" lon="-0.06664">
        <ele>25.1</ele>
        <time>2023-10-11T13:38:03Z</time>
      </trkpt>
      <trkpt lat="49.05734" lon="-0.06676">
        <ele>25.3</ele>
        <time>2023-10-11T13:38:04Z</time>
      </trkpt>
      <trkpt lat="49.05738" lon="-0.06688">
        <ele>25.6</ele>
        <time>2023-10-11T13:38:05Z</time>
      </trkpt>
      <trkpt lat="49.05742" lon="-0.067">
        <ele>25.8</ele>
        <time>2023-10-11T13:38:06Z</time>
      </trkpt>
      <trkpt lat="49.05747" lon="-0.06712">
        <ele>26</ele>
        <time>2023-10-11T13:38:07Z</time>
      </trkpt>
      <trkpt lat="49.05751" lon="-0.06724">
        <ele>26.2</ele>
        <time>2023-10-11T13:38:08Z</time>
      </trkpt>
      <trkpt lat="49.05755" lon="-0.06736">
        <ele>26.4</ele>
        <time>2023-10-11T13:38:09Z</time>
      </trkpt>
      <trkpt lat="49.05759" lon="-0.06747">
        <ele>26.6</ele>
        <time>2023-10-11T13:38:10Z</time>
      </trkpt>
      <trkpt lat="49.05763" lon="-0.06759">
        <ele>26.8</ele>
        <time>2023-10-11T13:38:11Z</time>
      </trkpt>
      <trkpt lat="49.05767" lon="-0.0677">
        <ele>27</ele>
        <time>2023-10-11T13:38:12Z</time>
      </trkpt>
      <trkpt lat="49.05771" lon="-0.06781">
        <ele>27.2</ele>
        <time>2023-10-11T13:38:13Z</time>
      </trkpt>
      <trkpt lat="49.05775" lon="-0.06793">
        <ele>27.4</ele>
        <time>2023-10-11T13:38:14Z</time>
      </trkpt>
      <trkpt lat="49.05779" lon="-0.06804">
        <ele>27.5</ele>
        <time>2023-10-11T13:38:15Z</time>
      </trkpt>
      <trkpt lat="49.05783" lon="-0.06815">
        <ele>27.6</ele>
        <time>2023-10-11T13:38:16Z</time>
      </trkpt>
      <trkpt lat="49.05788" lon="-0.06826">
        <ele>27.8</ele>
        <time>2023-10-11T13:38:17Z</time>
      </trkpt>
      <trkpt lat="49.05792" lon="-0.06837">
        <ele>27.8</ele>
        <time>2023-10-11T13:38:18Z</time>
      </trkpt>
      <trkpt lat="49.05796" lon="-0.06848">
        <ele>27.8</ele>
        <time>2023-10-11T13:38:19Z</time>
      </trkpt>
      <trkpt lat="49.05801" lon="-0.06858">
        <ele>27.9</ele>
        <time>2023-10-11T13:38:20Z</time>
      </trkpt>
      <trkpt lat="49.05805" lon="-0.0687">
        <ele>27.9</ele>
        <time>2023-10-11T13:38:21Z</time>
      </trkpt>
      <trkpt lat="49.0581" lon="-0.0688">
        <ele>27.9</ele>
        <time>2023-10-11T13:38:22Z</time>
      </trkpt>
      <trkpt lat="49.05815" lon="-0.06891">
        <ele>27.9</ele>
        <time>2023-10-11T13:38:23Z</time>
      </trkpt>
      <trkpt lat="49.0582" lon="-0.06902">
        <ele>27.8</ele>
        <time>2023-10-11T13:38:24Z</time>
      </trkpt>
      <trkpt lat="49.05825" lon="-0.06913">
        <ele>27.8</ele>
        <time>2023-10-11T13:38:25Z</time>
      </trkpt>
      <trkpt lat="49.05829" lon="-0.06924">
        <ele>27.7</ele>
        <time>2023-10-11T13:38:26Z</time>
      </trkpt>
      <trkpt lat="49.05834" lon="-0.06934">
        <ele>27.7</ele>
        <time>2023-10-11T13:38:27Z</time>
      </trkpt>
      <trkpt lat="49.05839" lon="-0.06945">
        <ele>27.6</ele>
        <time>2023-10-11T13:38:28Z</time>
      </trkpt>
      <trkpt lat="49.05843" lon="-0.06955">
        <ele>27.6</ele>
        <time>2023-10-11T13:38:29Z</time>
      </trkpt>
      <trkpt lat="49.05848" lon="-0.06966">
        <ele>27.5</ele>
        <time>2023-10-11T13:38:30Z</time>
      </trkpt>
      <trkpt lat="49.05853" lon="-0.06977">
        <ele>27.5</ele>
        <time>2023-10-11T13:38:31Z</time>
      </trkpt>
      <trkpt lat="49.05858" lon="-0.06988">
        <ele>27.4</ele>
        <time>2023-10-11T13:38:32Z</time>
      </trkpt>
      <trkpt lat="49.05863" lon="-0.06999">
        <ele>27.3</ele>
        <time>2023-10-11T13:38:33Z</time>
      </trkpt>
      <trkpt lat="49.05868" lon="-0.0701">
        <ele>27.2</ele>
        <time>2023-10-11T13:38:34Z</time>
      </trkpt>
      <trkpt lat="49.05873" lon="-0.07021">
        <ele>27.2</ele>
        <time>2023-10-11T13:38:35Z</time>
      </trkpt>
      <trkpt lat="49.05878" lon="-0.07032">
        <ele>27.1</ele>
        <time>2023-10-11T13:38:36Z</time>
      </trkpt>
      <trkpt lat="49.05883" lon="-0.07043">
        <ele>27</ele>
        <time>2023-10-11T13:38:37Z</time>
      </trkpt>
      <trkpt lat="49.05888" lon="-0.07054">
        <ele>27</ele>
        <time>2023-10-11T13:38:38Z</time>
      </trkpt>
      <trkpt lat="49.05894" lon="-0.07066">
        <ele>27</ele>
        <time>2023-10-11T13:38:39Z</time>
      </trkpt>
      <trkpt lat="49.05899" lon="-0.07077">
        <ele>27</ele>
        <time>2023-10-11T13:38:40Z</time>
      </trkpt>
      <trkpt lat="49.05905" lon="-0.07088">
        <ele>27</ele>
        <time>2023-10-11T13:38:41Z</time>
      </trkpt>
      <trkpt lat="49.05911" lon="-0.071">
        <ele>26.9</ele>
        <time>2023-10-11T13:38:42Z</time>
      </trkpt>
      <trkpt lat="49.05916" lon="-0.07111">
        <ele>26.9</ele>
        <time>2023-10-11T13:38:43Z</time>
      </trkpt>
      <trkpt lat="49.05922" lon="-0.07122">
        <ele>26.9</ele>
        <time>2023-10-11T13:38:44Z</time>
      </trkpt>
      <trkpt lat="49.05928" lon="-0.07132">
        <ele>26.9</ele>
        <time>2023-10-11T13:38:45Z</time>
      </trkpt>
      <trkpt lat="49.05933" lon="-0.07143">
        <ele>26.9</ele>
        <time>2023-10-11T13:38:46Z</time>
      </trkpt>
      <trkpt lat="49.05939" lon="-0.07154">
        <ele>26.9</ele>
        <time>2023-10-11T13:38:47Z</time>
      </trkpt>
      <trkpt lat="49.05944" lon="-0.07165">
        <ele>26.9</ele>
        <time>2023-10-11T13:38:48Z</time>
      </trkpt>
      <trkpt lat="49.05949" lon="-0.07176">
        <ele>27</ele>
        <time>2023-10-11T13:38:49Z</time>
      </trkpt>
      <trkpt lat="49.05954" lon="-0.07188">
        <ele>27.1</ele>
        <time>2023-10-11T13:38:50Z</time>
      </trkpt>
      <trkpt lat="49.05959" lon="-0.07199">
        <ele>27.2</ele>
        <time>2023-10-11T13:38:51Z</time>
      </trkpt>
      <trkpt lat="49.05964" lon="-0.07211">
        <ele>27.3</ele>
        <time>2023-10-11T13:38:52Z</time>
      </trkpt>
      <trkpt lat="49.05968" lon="-0.07223">
        <ele>27.3</ele>
        <time>2023-10-11T13:38:53Z</time>
      </trkpt>
      <trkpt lat="49.05973" lon="-0.07234">
        <ele>27.4</ele>
        <time>2023-10-11T13:38:54Z</time>
      </trkpt>
      <trkpt lat="49.05977" lon="-0.07246">
        <ele>27.4</ele>
        <time>2023-10-11T13:38:55Z</time>
      </trkpt>
      <trkpt lat="49.05982" lon="-0.07258">
        <ele>27.5</ele>
        <time>2023-10-11T13:38:56Z</time>
      </trkpt>
      <trkpt lat="49.05986" lon="-0.07269">
        <ele>27.5</ele>
        <time>2023-10-11T13:38:57Z</time>
      </trkpt>
      <trkpt lat="49.05991" lon="-0.07281">
        <ele>27.5</ele>
        <time>2023-10-11T13:38:58Z</time>
      </trkpt>
      <trkpt lat="49.05996" lon="-0.07293">
        <ele>27.5</ele>
        <time>2023-10-11T13:38:59Z</time>
      </trkpt>
      <trkpt lat="49.06001" lon="-0.07304">
        <ele>27.5</ele>
        <time>2023-10-11T13:39:00Z</time>
      </trkpt>
      <trkpt lat="49.06006" lon="-0.07316">
        <ele>27.5</ele>
        <time>2023-10-11T13:39:01Z</time>
      </trkpt>
      <trkpt lat="49.0601" lon="-0.07328">
        <ele>27.5</ele>
        <time>2023-10-11T13:39:02Z</time>
      </trkpt>
      <trkpt lat="49.06015" lon="-0.07339">
        <ele>27.5</ele>
        <time>2023-10-11T13:39:03Z</time>
      </trkpt>
      <trkpt lat="49.06021" lon="-0.07351">
        <ele>27.5</ele>
        <time>2023-10-11T13:39:04Z</time>
      </trkpt>
      <trkpt lat="49.06026" lon="-0.07362">
        <ele>27.4</ele>
        <time>2023-10-11T13:39:05Z</time>
      </trkpt>
      <trkpt lat="49.06031" lon="-0.07373">
        <ele>27.4</ele>
        <time>2023-10-11T13:39:06Z</time>
      </trkpt>
      <trkpt lat="49.06036" lon="-0.07385">
        <ele>27.3</ele>
        <time>2023-10-11T13:39:07Z</time>
      </trkpt>
      <trkpt lat="49.06042" lon="-0.07396">
        <ele>27.3</ele>
        <time>2023-10-11T13:39:08Z</time>
      </trkpt>
      <trkpt lat="49.06047" lon="-0.07408">
        <ele>27.3</ele>
        <time>2023-10-11T13:39:09Z</time>
      </trkpt>
      <trkpt lat="49.06052" lon="-0.07419">
        <ele>27.2</ele>
        <time>2023-10-11T13:39:10Z</time>
      </trkpt>
      <trkpt lat="49.06058" lon="-0.0743">
        <ele>27.2</ele>
        <time>2023-10-11T13:39:11Z</time>
      </trkpt>
      <trkpt lat="49.06065" lon="-0.0744">
        <ele>27.1</ele>
        <time>2023-10-11T13:39:12Z</time>
      </trkpt>
      <trkpt lat="49.06072" lon="-0.0745">
        <ele>27.1</ele>
        <time>2023-10-11T13:39:13Z</time>
      </trkpt>
      <trkpt lat="49.0608" lon="-0.07459">
        <ele>27</ele>
        <time>2023-10-11T13:39:14Z</time>
      </trkpt>
      <trkpt lat="49.06088" lon="-0.07467">
        <ele>27</ele>
        <time>2023-10-11T13:39:15Z</time>
      </trkpt>
      <trkpt lat="49.06096" lon="-0.07474">
        <ele>27</ele>
        <time>2023-10-11T13:39:16Z</time>
      </trkpt>
      <trkpt lat="49.06105" lon="-0.07481">
        <ele>27</ele>
        <time>2023-10-11T13:39:17Z</time>
      </trkpt>
      <trkpt lat="49.06114" lon="-0.07488">
        <ele>27.1</ele>
        <time>2023-10-11T13:39:18Z</time>
      </trkpt>
      <trkpt lat="49.06123" lon="-0.07496">
        <ele>27.2</ele>
        <time>2023-10-11T13:39:19Z</time>
      </trkpt>
      <trkpt lat="49.06131" lon="-0.07503">
        <ele>27.3</ele>
        <time>2023-10-11T13:39:20Z</time>
      </trkpt>
      <trkpt lat="49.0614" lon="-0.07511">
        <ele>27.4</ele>
        <time>2023-10-11T13:39:21Z</time>
      </trkpt>
      <trkpt lat="49.06148" lon="-0.07519">
        <ele>27.5</ele>
        <time>2023-10-11T13:39:22Z</time>
      </trkpt>
      <trkpt lat="49.06157" lon="-0.07526">
        <ele>27.6</ele>
        <time>2023-10-11T13:39:23Z</time>
      </trkpt>
      <trkpt lat="49.06165" lon="-0.07533">
        <ele>27.8</ele>
        <time>2023-10-11T13:39:24Z</time>
      </trkpt>
      <trkpt lat="49.06173" lon="-0.0754">
        <ele>28</ele>
        <time>2023-10-11T13:39:25Z</time>
      </trkpt>
      <trkpt lat="49.06181" lon="-0.07547">
        <ele>28.3</ele>
        <time>2023-10-11T13:39:26Z</time>
      </trkpt>
      <trkpt lat="49.06189" lon="-0.07554">
        <ele>28.5</ele>
        <time>2023-10-11T13:39:27Z</time>
      </trkpt>
      <trkpt lat="49.06197" lon="-0.07561">
        <ele>28.7</ele>
        <time>2023-10-11T13:39:28Z</time>
      </trkpt>
      <trkpt lat="49.06204" lon="-0.07568">
        <ele>28.8</ele>
        <time>2023-10-11T13:39:29Z</time>
      </trkpt>
      <trkpt lat="49.06211" lon="-0.07575">
        <ele>28.9</ele>
        <time>2023-10-11T13:39:30Z</time>
      </trkpt>
      <trkpt lat="49.06219" lon="-0.07581">
        <ele>29</ele>
        <time>2023-10-11T13:39:31Z</time>
      </trkpt>
      <trkpt lat="49.06226" lon="-0.07588">
        <ele>29.2</ele>
        <time>2023-10-11T13:39:32Z</time>
      </trkpt>
      <trkpt lat="49.06234" lon="-0.07594">
        <ele>29.2</ele>
        <time>2023-10-11T13:39:33Z</time>
      </trkpt>
      <trkpt lat="49.06241" lon="-0.07601">
        <ele>29.3</ele>
        <time>2023-10-11T13:39:34Z</time>
      </trkpt>
      <trkpt lat="49.06249" lon="-0.07607">
        <ele>29.4</ele>
        <time>2023-10-11T13:39:35Z</time>
      </trkpt>
      <trkpt lat="49.06256" lon="-0.07614">
        <ele>29.4</ele>
        <time>2023-10-11T13:39:36Z</time>
      </trkpt>
      <trkpt lat="49.06263" lon="-0.07621">
        <ele>29.5</ele>
        <time>2023-10-11T13:39:37Z</time>
      </trkpt>
      <trkpt lat="49.06271" lon="-0.07629">
        <ele>29.5</ele>
        <time>2023-10-11T13:39:38Z</time>
      </trkpt>
      <trkpt lat="49.06278" lon="-0.07636">
        <ele>29.5</ele>
        <time>2023-10-11T13:39:39Z</time>
      </trkpt>
      <trkpt lat="49.06285" lon="-0.07643">
        <ele>29.4</ele>
        <time>2023-10-11T13:39:40Z</time>
      </trkpt>
      <trkpt lat="49.06292" lon="-0.07651">
        <ele>29.3</ele>
        <time>2023-10-11T13:39:41Z</time>
      </trkpt>
      <trkpt lat="49.06299" lon="-0.07659">
        <ele>29.2</ele>
        <time>2023-10-11T13:39:42Z</time>
      </trkpt>
      <trkpt lat="49.06307" lon="-0.07667">
        <ele>29.1</ele>
        <time>2023-10-11T13:39:43Z</time>
      </trkpt>
      <trkpt lat="49.06314" lon="-0.07675">
        <ele>29</ele>
        <time>2023-10-11T13:39:44Z</time>
      </trkpt>
      <trkpt lat="49.06321" lon="-0.07683">
        <ele>28.9</ele>
        <time>2023-10-11T13:39:45Z</time>
      </trkpt>
      <trkpt lat="49.06329" lon="-0.07691">
        <ele>28.8</ele>
        <time>2023-10-11T13:39:46Z</time>
      </trkpt>
      <trkpt lat="49.06336" lon="-0.07699">
        <ele>28.7</ele>
        <time>2023-10-11T13:39:47Z</time>
      </trkpt>
      <trkpt lat="49.06344" lon="-0.07707">
        <ele>28.6</ele>
        <time>2023-10-11T13:39:48Z</time>
      </trkpt>
      <trkpt lat="49.06351" lon="-0.07716">
        <ele>28.5</ele>
        <time>2023-10-11T13:39:49Z</time>
      </trkpt>
      <trkpt lat="49.06359" lon="-0.07724">
        <ele>28.4</ele>
        <time>2023-10-11T13:39:50Z</time>
      </trkpt>
      <trkpt lat="49.06366" lon="-0.07732">
        <ele>28.3</ele>
        <time>2023-10-11T13:39:51Z</time>
      </trkpt>
      <trkpt lat="49.06374" lon="-0.07741">
        <ele>28.3</ele>
        <time>2023-10-11T13:39:52Z</time>
      </trkpt>
      <trkpt lat="49.06382" lon="-0.0775">
        <ele>28.2</ele>
        <time>2023-10-11T13:39:53Z</time>
      </trkpt>
      <trkpt lat="49.0639" lon="-0.07758">
        <ele>28.2</ele>
        <time>2023-10-11T13:39:54Z</time>
      </trkpt>
      <trkpt lat="49.06398" lon="-0.07767">
        <ele>28.2</ele>
        <time>2023-10-11T13:39:55Z</time>
      </trkpt>
      <trkpt lat="49.06406" lon="-0.07775">
        <ele>28.3</ele>
        <time>2023-10-11T13:39:56Z</time>
      </trkpt>
      <trkpt lat="49.06414" lon="-0.07784">
        <ele>28.3</ele>
        <time>2023-10-11T13:39:57Z</time>
      </trkpt>
      <trkpt lat="49.06422" lon="-0.07793">
        <ele>28.4</ele>
        <time>2023-10-11T13:39:58Z</time>
      </trkpt>
      <trkpt lat="49.0643" lon="-0.07801">
        <ele>28.5</ele>
        <time>2023-10-11T13:39:59Z</time>
      </trkpt>
      <trkpt lat="49.06438" lon="-0.07809">
        <ele>28.6</ele>
        <time>2023-10-11T13:40:00Z</time>
      </trkpt>
      <trkpt lat="49.06446" lon="-0.07818">
        <ele>28.8</ele>
        <time>2023-10-11T13:40:01Z</time>
      </trkpt>
      <trkpt lat="49.06453" lon="-0.07826">
        <ele>29</ele>
        <time>2023-10-11T13:40:02Z</time>
      </trkpt>
      <trkpt lat="49.06461" lon="-0.07834">
        <ele>29.1</ele>
        <time>2023-10-11T13:40:03Z</time>
      </trkpt>
      <trkpt lat="49.06468" lon="-0.07843">
        <ele>29.3</ele>
        <time>2023-10-11T13:40:04Z</time>
      </trkpt>
      <trkpt lat="49.06476" lon="-0.07852">
        <ele>29.4</ele>
        <time>2023-10-11T13:40:05Z</time>
      </trkpt>
      <trkpt lat="49.06483" lon="-0.07861">
        <ele>29.5</ele>
        <time>2023-10-11T13:40:06Z</time>
      </trkpt>
      <trkpt lat="49.06489" lon="-0.07871">
        <ele>29.6</ele>
        <time>2023-10-11T13:40:07Z</time>
      </trkpt>
      <trkpt lat="49.06496" lon="-0.07881">
        <ele>29.7</ele>
        <time>2023-10-11T13:40:08Z</time>
      </trkpt>
      <trkpt lat="49.06502" lon="-0.07892">
        <ele>29.9</ele>
        <time>2023-10-11T13:40:09Z</time>
      </trkpt>
      <trkpt lat="49.06507" lon="-0.07903">
        <ele>30</ele>
        <time>2023-10-11T13:40:10Z</time>
      </trkpt>
      <trkpt lat="49.06512" lon="-0.07914">
        <ele>30.1</ele>
        <time>2023-10-11T13:40:11Z</time>
      </trkpt>
      <trkpt lat="49.06517" lon="-0.07925">
        <ele>30.3</ele>
        <time>2023-10-11T13:40:12Z</time>
      </trkpt>
      <trkpt lat="49.06522" lon="-0.07937">
        <ele>30.4</ele>
        <time>2023-10-11T13:40:13Z</time>
      </trkpt>
      <trkpt lat="49.06527" lon="-0.07948">
        <ele>30.6</ele>
        <time>2023-10-11T13:40:14Z</time>
      </trkpt>
      <trkpt lat="49.06531" lon="-0.0796">
        <ele>30.7</ele>
        <time>2023-10-11T13:40:15Z</time>
      </trkpt>
      <trkpt lat="49.06536" lon="-0.07972">
        <ele>30.7</ele>
        <time>2023-10-11T13:40:16Z</time>
      </trkpt>
      <trkpt lat="49.06541" lon="-0.07983">
        <ele>30.8</ele>
        <time>2023-10-11T13:40:17Z</time>
      </trkpt>
      <trkpt lat="49.06546" lon="-0.07994">
        <ele>30.9</ele>
        <time>2023-10-11T13:40:18Z</time>
      </trkpt>
      <trkpt lat="49.0655" lon="-0.08006">
        <ele>30.9</ele>
        <time>2023-10-11T13:40:19Z</time>
      </trkpt>
      <trkpt lat="49.06555" lon="-0.08018">
        <ele>31</ele>
        <time>2023-10-11T13:40:20Z</time>
      </trkpt>
      <trkpt lat="49.0656" lon="-0.0803">
        <ele>31</ele>
        <time>2023-10-11T13:40:21Z</time>
      </trkpt>
      <trkpt lat="49.06565" lon="-0.08041">
        <ele>31.1</ele>
        <time>2023-10-11T13:40:22Z</time>
      </trkpt>
      <trkpt lat="49.0657" lon="-0.08053">
        <ele>31.1</ele>
        <time>2023-10-11T13:40:23Z</time>
      </trkpt>
      <trkpt lat="49.06574" lon="-0.08064">
        <ele>31.1</ele>
        <time>2023-10-11T13:40:24Z</time>
      </trkpt>
      <trkpt lat="49.06579" lon="-0.08075">
        <ele>31.1</ele>
        <time>2023-10-11T13:40:25Z</time>
      </trkpt>
      <trkpt lat="49.06583" lon="-0.08087">
        <ele>31.1</ele>
        <time>2023-10-11T13:40:26Z</time>
      </trkpt>
      <trkpt lat="49.06588" lon="-0.08097">
        <ele>31.1</ele>
        <time>2023-10-11T13:40:27Z</time>
      </trkpt>
      <trkpt lat="49.06592" lon="-0.08108">
        <ele>31.1</ele>
        <time>2023-10-11T13:40:28Z</time>
      </trkpt>
      <trkpt lat="49.06595" lon="-0.08118">
        <ele>31.1</ele>
        <time>2023-10-11T13:40:29Z</time>
      </trkpt>
      <trkpt lat="49.06598" lon="-0.08128">
        <ele>31.1</ele>
        <time>2023-10-11T13:40:30Z</time>
      </trkpt>
      <trkpt lat="49.06602" lon="-0.08138">
        <ele>31.1</ele>
        <time>2023-10-11T13:40:31Z</time>
      </trkpt>
      <trkpt lat="49.06605" lon="-0.08148">
        <ele>31.1</ele>
        <time>2023-10-11T13:40:32Z</time>
      </trkpt>
      <trkpt lat="49.06609" lon="-0.08158">
        <ele>31.1</ele>
        <time>2023-10-11T13:40:33Z</time>
      </trkpt>
      <trkpt lat="49.06614" lon="-0.08167">
        <ele>31.1</ele>
        <time>2023-10-11T13:40:34Z</time>
      </trkpt>
      <trkpt lat="49.06618" lon="-0.08176">
        <ele>31.1</ele>
        <time>2023-10-11T13:40:35Z</time>
      </trkpt>
      <trkpt lat="49.06623" lon="-0.08184">
        <ele>31.1</ele>
        <time>2023-10-11T13:40:36Z</time>
      </trkpt>
      <trkpt lat="49.06629" lon="-0.08191">
        <ele>31.1</ele>
        <time>2023-10-11T13:40:37Z</time>
      </trkpt>
      <trkpt lat="49.06635" lon="-0.08196">
        <ele>31</ele>
        <time>2023-10-11T13:40:38Z</time>
      </trkpt>
      <trkpt lat="49.06641" lon="-0.08202">
        <ele>30.9</ele>
        <time>2023-10-11T13:40:39Z</time>
      </trkpt>
      <trkpt lat="49.06646" lon="-0.08209">
        <ele>30.8</ele>
        <time>2023-10-11T13:40:40Z</time>
      </trkpt>
      <trkpt lat="49.06646" lon="-0.0822">
        <ele>30.8</ele>
        <time>2023-10-11T13:40:41Z</time>
      </trkpt>
      <trkpt lat="49.06644" lon="-0.08229">
        <ele>30.9</ele>
        <time>2023-10-11T13:40:42Z</time>
      </trkpt>
      <trkpt lat="49.06638" lon="-0.08236">
        <ele>31</ele>
        <time>2023-10-11T13:40:43Z</time>
      </trkpt>
      <trkpt lat="49.06632" lon="-0.08239">
        <ele>31.1</ele>
        <time>2023-10-11T13:40:44Z</time>
      </trkpt>
      <trkpt lat="49.06625" lon="-0.08239">
        <ele>31.2</ele>
        <time>2023-10-11T13:40:45Z</time>
      </trkpt>
      <trkpt lat="49.06618" lon="-0.08238">
        <ele>31.2</ele>
        <time>2023-10-11T13:40:46Z</time>
      </trkpt>
      <trkpt lat="49.0661" lon="-0.08239">
        <ele>31.3</ele>
        <time>2023-10-11T13:40:47Z</time>
      </trkpt>
      <trkpt lat="49.06603" lon="-0.08241">
        <ele>31.4</ele>
        <time>2023-10-11T13:40:48Z</time>
      </trkpt>
      <trkpt lat="49.06597" lon="-0.08244">
        <ele>31.4</ele>
        <time>2023-10-11T13:40:49Z</time>
      </trkpt>
      <trkpt lat="49.0659" lon="-0.08247">
        <ele>31.5</ele>
        <time>2023-10-11T13:40:50Z</time>
      </trkpt>
      <trkpt lat="49.06584" lon="-0.08251">
        <ele>31.6</ele>
        <time>2023-10-11T13:40:51Z</time>
      </trkpt>
      <trkpt lat="49.06578" lon="-0.08254">
        <ele>31.6</ele>
        <time>2023-10-11T13:40:52Z</time>
      </trkpt>
      <trkpt lat="49.06571" lon="-0.08257">
        <ele>31.7</ele>
        <time>2023-10-11T13:40:53Z</time>
      </trkpt>
      <trkpt lat="49.06565" lon="-0.0826">
        <ele>31.8</ele>
        <time>2023-10-11T13:40:54Z</time>
      </trkpt>
      <trkpt lat="49.06558" lon="-0.08263">
        <ele>31.8</ele>
        <time>2023-10-11T13:40:55Z</time>
      </trkpt>
      <trkpt lat="49.06552" lon="-0.08267">
        <ele>31.9</ele>
        <time>2023-10-11T13:40:56Z</time>
      </trkpt>
      <trkpt lat="49.06547" lon="-0.08271">
        <ele>31.9</ele>
        <time>2023-10-11T13:40:57Z</time>
      </trkpt>
      <trkpt lat="49.06541" lon="-0.08275">
        <ele>32</ele>
        <time>2023-10-11T13:40:58Z</time>
      </trkpt>
      <trkpt lat="49.06535" lon="-0.08278">
        <ele>32.1</ele>
        <time>2023-10-11T13:40:59Z</time>
      </trkpt>
      <trkpt lat="49.06529" lon="-0.08282">
        <ele>32.1</ele>
        <time>2023-10-11T13:41:00Z</time>
      </trkpt>
      <trkpt lat="49.06523" lon="-0.08286">
        <ele>32.2</ele>
        <time>2023-10-11T13:41:01Z</time>
      </trkpt>
      <trkpt lat="49.06517" lon="-0.08291">
        <ele>32.3</ele>
        <time>2023-10-11T13:41:02Z</time>
      </trkpt>
      <trkpt lat="49.06511" lon="-0.08296">
        <ele>32.3</ele>
        <time>2023-10-11T13:41:03Z</time>
      </trkpt>
      <trkpt lat="49.06506" lon="-0.083">
        <ele>32.4</ele>
        <time>2023-10-11T13:41:04Z</time>
      </trkpt>
      <trkpt lat="49.065" lon="-0.08304">
        <ele>32.4</ele>
        <time>2023-10-11T13:41:05Z</time>
      </trkpt>
      <trkpt lat="49.06494" lon="-0.08309">
        <ele>32.5</ele>
        <time>2023-10-11T13:41:06Z</time>
      </trkpt>
      <trkpt lat="49.06489" lon="-0.08313">
        <ele>32.5</ele>
        <time>2023-10-11T13:41:07Z</time>
      </trkpt>
      <trkpt lat="49.06483" lon="-0.08317">
        <ele>32.6</ele>
        <time>2023-10-11T13:41:08Z</time>
      </trkpt>
      <trkpt lat="49.06478" lon="-0.08321">
        <ele>32.7</ele>
        <time>2023-10-11T13:41:09Z</time>
      </trkpt>
      <trkpt lat="49.06473" lon="-0.08325">
        <ele>32.8</ele>
        <time>2023-10-11T13:41:10Z</time>
      </trkpt>
      <trkpt lat="49.06468" lon="-0.0833">
        <ele>32.8</ele>
        <time>2023-10-11T13:41:11Z</time>
      </trkpt>
      <trkpt lat="49.06463" lon="-0.08334">
        <ele>32.9</ele>
        <time>2023-10-11T13:41:12Z</time>
      </trkpt>
      <trkpt lat="49.06458" lon="-0.08338">
        <ele>33</ele>
        <time>2023-10-11T13:41:13Z</time>
      </trkpt>
      <trkpt lat="49.06453" lon="-0.08342">
        <ele>33</ele>
        <time>2023-10-11T13:41:14Z</time>
      </trkpt>
      <trkpt lat="49.06447" lon="-0.08347">
        <ele>33.1</ele>
        <time>2023-10-11T13:41:15Z</time>
      </trkpt>
      <trkpt lat="49.06442" lon="-0.08351">
        <ele>33.1</ele>
        <time>2023-10-11T13:41:16Z</time>
      </trkpt>
      <trkpt lat="49.06436" lon="-0.08356">
        <ele>33.2</ele>
        <time>2023-10-11T13:41:17Z</time>
      </trkpt>
      <trkpt lat="49.06431" lon="-0.08361">
        <ele>33.3</ele>
        <time>2023-10-11T13:41:18Z</time>
      </trkpt>
      <trkpt lat="49.06425" lon="-0.08365">
        <ele>33.3</ele>
        <time>2023-10-11T13:41:19Z</time>
      </trkpt>
      <trkpt lat="49.0642" lon="-0.0837">
        <ele>33.4</ele>
        <time>2023-10-11T13:41:20Z</time>
      </trkpt>
      <trkpt lat="49.06414" lon="-0.08374">
        <ele>33.5</ele>
        <time>2023-10-11T13:41:21Z</time>
      </trkpt>
      <trkpt lat="49.06409" lon="-0.08379">
        <ele>33.5</ele>
        <time>2023-10-11T13:41:22Z</time>
      </trkpt>
      <trkpt lat="49.06403" lon="-0.08384">
        <ele>33.6</ele>
        <time>2023-10-11T13:41:23Z</time>
      </trkpt>
      <trkpt lat="49.06398" lon="-0.08388">
        <ele>33.6</ele>
        <time>2023-10-11T13:41:24Z</time>
      </trkpt>
      <trkpt lat="49.06392" lon="-0.08393">
        <ele>33.7</ele>
        <time>2023-10-11T13:41:25Z</time>
      </trkpt>
      <trkpt lat="49.06387" lon="-0.08398">
        <ele>33.7</ele>
        <time>2023-10-11T13:41:26Z</time>
      </trkpt>
      <trkpt lat="49.06382" lon="-0.08402">
        <ele>33.8</ele>
        <time>2023-10-11T13:41:27Z</time>
      </trkpt>
      <trkpt lat="49.06376" lon="-0.08406">
        <ele>33.8</ele>
        <time>2023-10-11T13:41:28Z</time>
      </trkpt>
      <trkpt lat="49.06371" lon="-0.0841">
        <ele>33.9</ele>
        <time>2023-10-11T13:41:29Z</time>
      </trkpt>
      <trkpt lat="49.06366" lon="-0.08415">
        <ele>33.9</ele>
        <time>2023-10-11T13:41:30Z</time>
      </trkpt>
      <trkpt lat="49.0636" lon="-0.08419">
        <ele>33.9</ele>
        <time>2023-10-11T13:41:31Z</time>
      </trkpt>
      <trkpt lat="49.06355" lon="-0.08424">
        <ele>34</ele>
        <time>2023-10-11T13:41:32Z</time>
      </trkpt>
      <trkpt lat="49.0635" lon="-0.08428">
        <ele>34</ele>
        <time>2023-10-11T13:41:33Z</time>
      </trkpt>
      <trkpt lat="49.06345" lon="-0.08433">
        <ele>34</ele>
        <time>2023-10-11T13:41:34Z</time>
      </trkpt>
      <trkpt lat="49.06339" lon="-0.08438">
        <ele>34.1</ele>
        <time>2023-10-11T13:41:35Z</time>
      </trkpt>
      <trkpt lat="49.06334" lon="-0.08442">
        <ele>34.1</ele>
        <time>2023-10-11T13:41:36Z</time>
      </trkpt>
      <trkpt lat="49.06328" lon="-0.08447">
        <ele>34.2</ele>
        <time>2023-10-11T13:41:37Z</time>
      </trkpt>
      <trkpt lat="49.06322" lon="-0.08452">
        <ele>34.2</ele>
        <time>2023-10-11T13:41:38Z</time>
      </trkpt>
      <trkpt lat="49.06316" lon="-0.08457">
        <ele>34.3</ele>
        <time>2023-10-11T13:41:39Z</time>
      </trkpt>
      <trkpt lat="49.0631" lon="-0.08461">
        <ele>34.3</ele>
        <time>2023-10-11T13:41:40Z</time>
      </trkpt>
      <trkpt lat="49.06304" lon="-0.08466">
        <ele>34.4</ele>
        <time>2023-10-11T13:41:41Z</time>
      </trkpt>
      <trkpt lat="49.06299" lon="-0.08471">
        <ele>34.4</ele>
        <time>2023-10-11T13:41:42Z</time>
      </trkpt>
      <trkpt lat="49.06293" lon="-0.08476">
        <ele>34.4</ele>
        <time>2023-10-11T13:41:43Z</time>
      </trkpt>
      <trkpt lat="49.06288" lon="-0.08481">
        <ele>34.5</ele>
        <time>2023-10-11T13:41:44Z</time>
      </trkpt>
      <trkpt lat="49.06282" lon="-0.08486">
        <ele>34.5</ele>
        <time>2023-10-11T13:41:45Z</time>
      </trkpt>
      <trkpt lat="49.06275" lon="-0.08491">
        <ele>34.5</ele>
        <time>2023-10-11T13:41:46Z</time>
      </trkpt>
      <trkpt lat="49.06269" lon="-0.08496">
        <ele>34.6</ele>
        <time>2023-10-11T13:41:47Z</time>
      </trkpt>
      <trkpt lat="49.06263" lon="-0.08501">
        <ele>34.6</ele>
        <time>2023-10-11T13:41:48Z</time>
      </trkpt>
      <trkpt lat="49.06256" lon="-0.08506">
        <ele>34.7</ele>
        <time>2023-10-11T13:41:49Z</time>
      </trkpt>
      <trkpt lat="49.0625" lon="-0.08512">
        <ele>34.7</ele>
        <time>2023-10-11T13:41:50Z</time>
      </trkpt>
      <trkpt lat="49.06243" lon="-0.08517">
        <ele>34.7</ele>
        <time>2023-10-11T13:41:51Z</time>
      </trkpt>
      <trkpt lat="49.06237" lon="-0.08522">
        <ele>34.8</ele>
        <time>2023-10-11T13:41:52Z</time>
      </trkpt>
      <trkpt lat="49.06231" lon="-0.08528">
        <ele>34.8</ele>
        <time>2023-10-11T13:41:53Z</time>
      </trkpt>
      <trkpt lat="49.06224" lon="-0.08533">
        <ele>34.9</ele>
        <time>2023-10-11T13:41:54Z</time>
      </trkpt>
      <trkpt lat="49.06218" lon="-0.08538">
        <ele>34.9</ele>
        <time>2023-10-11T13:41:55Z</time>
      </trkpt>
      <trkpt lat="49.06212" lon="-0.08543">
        <ele>34.9</ele>
        <time>2023-10-11T13:41:56Z</time>
      </trkpt>
      <trkpt lat="49.06206" lon="-0.08549">
        <ele>35</ele>
        <time>2023-10-11T13:41:57Z</time>
      </trkpt>
      <trkpt lat="49.062" lon="-0.08554">
        <ele>35</ele>
        <time>2023-10-11T13:41:58Z</time>
      </trkpt>
      <trkpt lat="49.06193" lon="-0.08559">
        <ele>35.1</ele>
        <time>2023-10-11T13:41:59Z</time>
      </trkpt>
      <trkpt lat="49.06187" lon="-0.08565">
        <ele>35.1</ele>
        <time>2023-10-11T13:42:00Z</time>
      </trkpt>
      <trkpt lat="49.06181" lon="-0.0857">
        <ele>35.2</ele>
        <time>2023-10-11T13:42:01Z</time>
      </trkpt>
      <trkpt lat="49.06175" lon="-0.08575">
        <ele>35.2</ele>
        <time>2023-10-11T13:42:02Z</time>
      </trkpt>
      <trkpt lat="49.06169" lon="-0.0858">
        <ele>35.3</ele>
        <time>2023-10-11T13:42:03Z</time>
      </trkpt>
      <trkpt lat="49.06162" lon="-0.08586">
        <ele>35.3</ele>
        <time>2023-10-11T13:42:04Z</time>
      </trkpt>
      <trkpt lat="49.06156" lon="-0.08591">
        <ele>35.4</ele>
        <time>2023-10-11T13:42:05Z</time>
      </trkpt>
      <trkpt lat="49.0615" lon="-0.08597">
        <ele>35.4</ele>
        <time>2023-10-11T13:42:06Z</time>
      </trkpt>
      <trkpt lat="49.06144" lon="-0.08602">
        <ele>35.5</ele>
        <time>2023-10-11T13:42:07Z</time>
      </trkpt>
      <trkpt lat="49.06138" lon="-0.08608">
        <ele>35.5</ele>
        <time>2023-10-11T13:42:08Z</time>
      </trkpt>
      <trkpt lat="49.06133" lon="-0.08613">
        <ele>35.6</ele>
        <time>2023-10-11T13:42:09Z</time>
      </trkpt>
      <trkpt lat="49.06127" lon="-0.08619">
        <ele>35.6</ele>
        <time>2023-10-11T13:42:10Z</time>
      </trkpt>
      <trkpt lat="49.06121" lon="-0.08624">
        <ele>35.6</ele>
        <time>2023-10-11T13:42:11Z</time>
      </trkpt>
      <trkpt lat="49.06115" lon="-0.08629">
        <ele>35.7</ele>
        <time>2023-10-11T13:42:12Z</time>
      </trkpt>
      <trkpt lat="49.06109" lon="-0.08635">
        <ele>35.8</ele>
        <time>2023-10-11T13:42:13Z</time>
      </trkpt>
      <trkpt lat="49.06103" lon="-0.0864">
        <ele>35.8</ele>
        <time>2023-10-11T13:42:14Z</time>
      </trkpt>
      <trkpt lat="49.06098" lon="-0.08646">
        <ele>35.9</ele>
        <time>2023-10-11T13:42:15Z</time>
      </trkpt>
      <trkpt lat="49.06092" lon="-0.08651">
        <ele>35.9</ele>
        <time>2023-10-11T13:42:16Z</time>
      </trkpt>
      <trkpt lat="49.06086" lon="-0.08655">
        <ele>36</ele>
        <time>2023-10-11T13:42:17Z</time>
      </trkpt>
      <trkpt lat="49.0608" lon="-0.0866">
        <ele>36.1</ele>
        <time>2023-10-11T13:42:18Z</time>
      </trkpt>
      <trkpt lat="49.06074" lon="-0.08666">
        <ele>36.1</ele>
        <time>2023-10-11T13:42:19Z</time>
      </trkpt>
      <trkpt lat="49.06068" lon="-0.08671">
        <ele>36.2</ele>
        <time>2023-10-11T13:42:20Z</time>
      </trkpt>
      <trkpt lat="49.06062" lon="-0.08676">
        <ele>36.3</ele>
        <time>2023-10-11T13:42:21Z</time>
      </trkpt>
      <trkpt lat="49.06056" lon="-0.08682">
        <ele>36.3</ele>
        <time>2023-10-11T13:42:22Z</time>
      </trkpt>
      <trkpt lat="49.06051" lon="-0.08687">
        <ele>36.4</ele>
        <time>2023-10-11T13:42:23Z</time>
      </trkpt>
      <trkpt lat="49.06045" lon="-0.08692">
        <ele>36.4</ele>
        <time>2023-10-11T13:42:24Z</time>
      </trkpt>
      <trkpt lat="49.06039" lon="-0.08698">
        <ele>36.5</ele>
        <time>2023-10-11T13:42:25Z</time>
      </trkpt>
      <trkpt lat="49.06032" lon="-0.08704">
        <ele>36.5</ele>
        <time>2023-10-11T13:42:26Z</time>
      </trkpt>
      <trkpt lat="49.06026" lon="-0.0871">
        <ele>36.6</ele>
        <time>2023-10-11T13:42:27Z</time>
      </trkpt>
      <trkpt lat="49.0602" lon="-0.08715">
        <ele>36.6</ele>
        <time>2023-10-11T13:42:28Z</time>
      </trkpt>
      <trkpt lat="49.06014" lon="-0.08721">
        <ele>36.6</ele>
        <time>2023-10-11T13:42:29Z</time>
      </trkpt>
      <trkpt lat="49.06008" lon="-0.08727">
        <ele>36.7</ele>
        <time>2023-10-11T13:42:30Z</time>
      </trkpt>
      <trkpt lat="49.06002" lon="-0.08733">
        <ele>36.7</ele>
        <time>2023-10-11T13:42:31Z</time>
      </trkpt>
      <trkpt lat="49.05996" lon="-0.08739">
        <ele>36.7</ele>
        <time>2023-10-11T13:42:32Z</time>
      </trkpt>
      <trkpt lat="49.0599" lon="-0.08746">
        <ele>36.7</ele>
        <time>2023-10-11T13:42:33Z</time>
      </trkpt>
      <trkpt lat="49.05985" lon="-0.08752">
        <ele>36.8</ele>
        <time>2023-10-11T13:42:34Z</time>
      </trkpt>
      <trkpt lat="49.0598" lon="-0.08759">
        <ele>36.8</ele>
        <time>2023-10-11T13:42:35Z</time>
      </trkpt>
      <trkpt lat="49.05975" lon="-0.08765">
        <ele>36.8</ele>
        <time>2023-10-11T13:42:36Z</time>
      </trkpt>
      <trkpt lat="49.05969" lon="-0.08772">
        <ele>36.8</ele>
        <time>2023-10-11T13:42:37Z</time>
      </trkpt>
      <trkpt lat="49.05964" lon="-0.08779">
        <ele>36.8</ele>
        <time>2023-10-11T13:42:38Z</time>
      </trkpt>
      <trkpt lat="49.05958" lon="-0.08787">
        <ele>36.8</ele>
        <time>2023-10-11T13:42:39Z</time>
      </trkpt>
      <trkpt lat="49.05953" lon="-0.08794">
        <ele>36.8</ele>
        <time>2023-10-11T13:42:40Z</time>
      </trkpt>
      <trkpt lat="49.05948" lon="-0.08802">
        <ele>36.8</ele>
        <time>2023-10-11T13:42:41Z</time>
      </trkpt>
      <trkpt lat="49.05944" lon="-0.0881">
        <ele>36.8</ele>
        <time>2023-10-11T13:42:42Z</time>
      </trkpt>
      <trkpt lat="49.05939" lon="-0.08818">
        <ele>36.9</ele>
        <time>2023-10-11T13:42:43Z</time>
      </trkpt>
      <trkpt lat="49.05935" lon="-0.08827">
        <ele>36.9</ele>
        <time>2023-10-11T13:42:44Z</time>
      </trkpt>
      <trkpt lat="49.0593" lon="-0.08835">
        <ele>36.9</ele>
        <time>2023-10-11T13:42:45Z</time>
      </trkpt>
      <trkpt lat="49.05926" lon="-0.08843">
        <ele>36.9</ele>
        <time>2023-10-11T13:42:46Z</time>
      </trkpt>
      <trkpt lat="49.05922" lon="-0.08851">
        <ele>36.9</ele>
        <time>2023-10-11T13:42:47Z</time>
      </trkpt>
      <trkpt lat="49.05917" lon="-0.08859">
        <ele>36.9</ele>
        <time>2023-10-11T13:42:48Z</time>
      </trkpt>
      <trkpt lat="49.05913" lon="-0.08867">
        <ele>36.9</ele>
        <time>2023-10-11T13:42:49Z</time>
      </trkpt>
      <trkpt lat="49.05909" lon="-0.08876">
        <ele>36.9</ele>
        <time>2023-10-11T13:42:50Z</time>
      </trkpt>
      <trkpt lat="49.05904" lon="-0.08884">
        <ele>36.9</ele>
        <time>2023-10-11T13:42:51Z</time>
      </trkpt>
      <trkpt lat="49.059" lon="-0.08893">
        <ele>36.9</ele>
        <time>2023-10-11T13:42:52Z</time>
      </trkpt>
      <trkpt lat="49.05895" lon="-0.08901">
        <ele>36.9</ele>
        <time>2023-10-11T13:42:53Z</time>
      </trkpt>
      <trkpt lat="49.05891" lon="-0.08909">
        <ele>36.9</ele>
        <time>2023-10-11T13:42:54Z</time>
      </trkpt>
      <trkpt lat="49.05886" lon="-0.08918">
        <ele>36.9</ele>
        <time>2023-10-11T13:42:55Z</time>
      </trkpt>
      <trkpt lat="49.05882" lon="-0.08926">
        <ele>36.9</ele>
        <time>2023-10-11T13:42:56Z</time>
      </trkpt>
      <trkpt lat="49.05877" lon="-0.08933">
        <ele>36.9</ele>
        <time>2023-10-11T13:42:57Z</time>
      </trkpt>
      <trkpt lat="49.05872" lon="-0.08941">
        <ele>36.9</ele>
        <time>2023-10-11T13:42:58Z</time>
      </trkpt>
      <trkpt lat="49.05867" lon="-0.08948">
        <ele>36.9</ele>
        <time>2023-10-11T13:42:59Z</time>
      </trkpt>
      <trkpt lat="49.05862" lon="-0.08955">
        <ele>36.9</ele>
        <time>2023-10-11T13:43:00Z</time>
      </trkpt>
      <trkpt lat="49.05857" lon="-0.08962">
        <ele>36.9</ele>
        <time>2023-10-11T13:43:01Z</time>
      </trkpt>
      <trkpt lat="49.05852" lon="-0.08969">
        <ele>36.9</ele>
        <time>2023-10-11T13:43:02Z</time>
      </trkpt>
      <trkpt lat="49.05847" lon="-0.08976">
        <ele>36.9</ele>
        <time>2023-10-11T13:43:03Z</time>
      </trkpt>
      <trkpt lat="49.05842" lon="-0.08983">
        <ele>37</ele>
        <time>2023-10-11T13:43:04Z</time>
      </trkpt>
      <trkpt lat="49.05836" lon="-0.0899">
        <ele>37</ele>
        <time>2023-10-11T13:43:05Z</time>
      </trkpt>
      <trkpt lat="49.05831" lon="-0.08997">
        <ele>37</ele>
        <time>2023-10-11T13:43:06Z</time>
      </trkpt>
      <trkpt lat="49.05825" lon="-0.09004">
        <ele>37</ele>
        <time>2023-10-11T13:43:07Z</time>
      </trkpt>
      <trkpt lat="49.05819" lon="-0.09011">
        <ele>37</ele>
        <time>2023-10-11T13:43:08Z</time>
      </trkpt>
      <trkpt lat="49.05813" lon="-0.09018">
        <ele>37</ele>
        <time>2023-10-11T13:43:09Z</time>
      </trkpt>
      <trkpt lat="49.05807" lon="-0.09025">
        <ele>37</ele>
        <time>2023-10-11T13:43:10Z</time>
      </trkpt>
      <trkpt lat="49.05801" lon="-0.09031">
        <ele>37</ele>
        <time>2023-10-11T13:43:11Z</time>
      </trkpt>
      <trkpt lat="49.05795" lon="-0.09037">
        <ele>37.1</ele>
        <time>2023-10-11T13:43:12Z</time>
      </trkpt>
      <trkpt lat="49.05789" lon="-0.09043">
        <ele>37.1</ele>
        <time>2023-10-11T13:43:13Z</time>
      </trkpt>
      <trkpt lat="49.05784" lon="-0.0905">
        <ele>37.1</ele>
        <time>2023-10-11T13:43:14Z</time>
      </trkpt>
      <trkpt lat="49.05778" lon="-0.09056">
        <ele>37.1</ele>
        <time>2023-10-11T13:43:15Z</time>
      </trkpt>
      <trkpt lat="49.05772" lon="-0.09062">
        <ele>37.1</ele>
        <time>2023-10-11T13:43:16Z</time>
      </trkpt>
      <trkpt lat="49.05767" lon="-0.09069">
        <ele>37.1</ele>
        <time>2023-10-11T13:43:17Z</time>
      </trkpt>
      <trkpt lat="49.05761" lon="-0.09075">
        <ele>37.1</ele>
        <time>2023-10-11T13:43:18Z</time>
      </trkpt>
      <trkpt lat="49.05755" lon="-0.09082">
        <ele>37.1</ele>
        <time>2023-10-11T13:43:19Z</time>
      </trkpt>
      <trkpt lat="49.05749" lon="-0.09088">
        <ele>37.2</ele>
        <time>2023-10-11T13:43:20Z</time>
      </trkpt>
      <trkpt lat="49.05743" lon="-0.09094">
        <ele>37.2</ele>
        <time>2023-10-11T13:43:21Z</time>
      </trkpt>
      <trkpt lat="49.05738" lon="-0.09101">
        <ele>37.2</ele>
        <time>2023-10-11T13:43:22Z</time>
      </trkpt>
      <trkpt lat="49.05732" lon="-0.09107">
        <ele>37.3</ele>
        <time>2023-10-11T13:43:23Z</time>
      </trkpt>
      <trkpt lat="49.05726" lon="-0.09114">
        <ele>37.3</ele>
        <time>2023-10-11T13:43:24Z</time>
      </trkpt>
      <trkpt lat="49.0572" lon="-0.0912">
        <ele>37.3</ele>
        <time>2023-10-11T13:43:25Z</time>
      </trkpt>
      <trkpt lat="49.05714" lon="-0.09127">
        <ele>37.4</ele>
        <time>2023-10-11T13:43:26Z</time>
      </trkpt>
      <trkpt lat="49.05709" lon="-0.09134">
        <ele>37.4</ele>
        <time>2023-10-11T13:43:27Z</time>
      </trkpt>
      <trkpt lat="49.05703" lon="-0.0914">
        <ele>37.5</ele>
        <time>2023-10-11T13:43:28Z</time>
      </trkpt>
      <trkpt lat="49.05698" lon="-0.09147">
        <ele>37.5</ele>
        <time>2023-10-11T13:43:29Z</time>
      </trkpt>
      <trkpt lat="49.05692" lon="-0.09154">
        <ele>37.5</ele>
        <time>2023-10-11T13:43:30Z</time>
      </trkpt>
      <trkpt lat="49.05687" lon="-0.09161">
        <ele>37.6</ele>
        <time>2023-10-11T13:43:31Z</time>
      </trkpt>
      <trkpt lat="49.05682" lon="-0.09167">
        <ele>37.6</ele>
        <time>2023-10-11T13:43:32Z</time>
      </trkpt>
      <trkpt lat="49.05677" lon="-0.09174">
        <ele>37.6</ele>
        <time>2023-10-11T13:43:33Z</time>
      </trkpt>
      <trkpt lat="49.05672" lon="-0.09182">
        <ele>37.7</ele>
        <time>2023-10-11T13:43:34Z</time>
      </trkpt>
      <trkpt lat="49.05666" lon="-0.09189">
        <ele>37.7</ele>
        <time>2023-10-11T13:43:35Z</time>
      </trkpt>
      <trkpt lat="49.05661" lon="-0.09196">
        <ele>37.7</ele>
        <time>2023-10-11T13:43:36Z</time>
      </trkpt>
      <trkpt lat="49.05656" lon="-0.09203">
        <ele>37.8</ele>
        <time>2023-10-11T13:43:37Z</time>
      </trkpt>
      <trkpt lat="49.0565" lon="-0.0921">
        <ele>37.8</ele>
        <time>2023-10-11T13:43:38Z</time>
      </trkpt>
      <trkpt lat="49.05645" lon="-0.09217">
        <ele>37.8</ele>
        <time>2023-10-11T13:43:39Z</time>
      </trkpt>
      <trkpt lat="49.0564" lon="-0.09224">
        <ele>37.8</ele>
        <time>2023-10-11T13:43:40Z</time>
      </trkpt>
      <trkpt lat="49.05635" lon="-0.09231">
        <ele>37.9</ele>
        <time>2023-10-11T13:43:41Z</time>
      </trkpt>
      <trkpt lat="49.0563" lon="-0.09238">
        <ele>37.9</ele>
        <time>2023-10-11T13:43:42Z</time>
      </trkpt>
      <trkpt lat="49.05624" lon="-0.09246">
        <ele>38</ele>
        <time>2023-10-11T13:43:43Z</time>
      </trkpt>
      <trkpt lat="49.05619" lon="-0.09253">
        <ele>38</ele>
        <time>2023-10-11T13:43:44Z</time>
      </trkpt>
      <trkpt lat="49.05614" lon="-0.0926">
        <ele>38.1</ele>
        <time>2023-10-11T13:43:45Z</time>
      </trkpt>
      <trkpt lat="49.05608" lon="-0.09267">
        <ele>38.1</ele>
        <time>2023-10-11T13:43:46Z</time>
      </trkpt>
      <trkpt lat="49.05603" lon="-0.09274">
        <ele>38.1</ele>
        <time>2023-10-11T13:43:47Z</time>
      </trkpt>
      <trkpt lat="49.05598" lon="-0.09281">
        <ele>38.2</ele>
        <time>2023-10-11T13:43:48Z</time>
      </trkpt>
      <trkpt lat="49.05593" lon="-0.09288">
        <ele>38.2</ele>
        <time>2023-10-11T13:43:49Z</time>
      </trkpt>
      <trkpt lat="49.05587" lon="-0.09296">
        <ele>38.2</ele>
        <time>2023-10-11T13:43:50Z</time>
      </trkpt>
      <trkpt lat="49.05582" lon="-0.09303">
        <ele>38.3</ele>
        <time>2023-10-11T13:43:51Z</time>
      </trkpt>
      <trkpt lat="49.05576" lon="-0.0931">
        <ele>38.3</ele>
        <time>2023-10-11T13:43:52Z</time>
      </trkpt>
      <trkpt lat="49.05571" lon="-0.09317">
        <ele>38.4</ele>
        <time>2023-10-11T13:43:53Z</time>
      </trkpt>
      <trkpt lat="49.05566" lon="-0.09324">
        <ele>38.4</ele>
        <time>2023-10-11T13:43:54Z</time>
      </trkpt>
      <trkpt lat="49.0556" lon="-0.09332">
        <ele>38.4</ele>
        <time>2023-10-11T13:43:55Z</time>
      </trkpt>
      <trkpt lat="49.05555" lon="-0.09339">
        <ele>38.4</ele>
        <time>2023-10-11T13:43:56Z</time>
      </trkpt>
      <trkpt lat="49.0555" lon="-0.09346">
        <ele>38.5</ele>
        <time>2023-10-11T13:43:57Z</time>
      </trkpt>
      <trkpt lat="49.05544" lon="-0.09353">
        <ele>38.5</ele>
        <time>2023-10-11T13:43:58Z</time>
      </trkpt>
      <trkpt lat="49.05539" lon="-0.0936">
        <ele>38.6</ele>
        <time>2023-10-11T13:43:59Z</time>
      </trkpt>
      <trkpt lat="49.05534" lon="-0.09368">
        <ele>38.6</ele>
        <time>2023-10-11T13:44:00Z</time>
      </trkpt>
      <trkpt lat="49.05529" lon="-0.09375">
        <ele>38.6</ele>
        <time>2023-10-11T13:44:01Z</time>
      </trkpt>
      <trkpt lat="49.05524" lon="-0.09382">
        <ele>38.6</ele>
        <time>2023-10-11T13:44:02Z</time>
      </trkpt>
      <trkpt lat="49.05519" lon="-0.09389">
        <ele>38.7</ele>
        <time>2023-10-11T13:44:03Z</time>
      </trkpt>
      <trkpt lat="49.05514" lon="-0.09396">
        <ele>38.7</ele>
        <time>2023-10-11T13:44:04Z</time>
      </trkpt>
      <trkpt lat="49.05509" lon="-0.09403">
        <ele>38.7</ele>
        <time>2023-10-11T13:44:05Z</time>
      </trkpt>
      <trkpt lat="49.05504" lon="-0.0941">
        <ele>38.7</ele>
        <time>2023-10-11T13:44:06Z</time>
      </trkpt>
      <trkpt lat="49.05498" lon="-0.09417">
        <ele>38.8</ele>
        <time>2023-10-11T13:44:07Z</time>
      </trkpt>
      <trkpt lat="49.05493" lon="-0.09425">
        <ele>38.8</ele>
        <time>2023-10-11T13:44:08Z</time>
      </trkpt>
      <trkpt lat="49.05488" lon="-0.09432">
        <ele>38.9</ele>
        <time>2023-10-11T13:44:09Z</time>
      </trkpt>
      <trkpt lat="49.05482" lon="-0.09439">
        <ele>38.9</ele>
        <time>2023-10-11T13:44:10Z</time>
      </trkpt>
      <trkpt lat="49.05477" lon="-0.09446">
        <ele>38.9</ele>
        <time>2023-10-11T13:44:11Z</time>
      </trkpt>
      <trkpt lat="49.05472" lon="-0.09453">
        <ele>38.9</ele>
        <time>2023-10-11T13:44:12Z</time>
      </trkpt>
      <trkpt lat="49.05466" lon="-0.0946">
        <ele>39</ele>
        <time>2023-10-11T13:44:13Z</time>
      </trkpt>
      <trkpt lat="49.05461" lon="-0.09467">
        <ele>39</ele>
        <time>2023-10-11T13:44:14Z</time>
      </trkpt>
      <trkpt lat="49.05456" lon="-0.09474">
        <ele>39</ele>
        <time>2023-10-11T13:44:15Z</time>
      </trkpt>
      <trkpt lat="49.05452" lon="-0.09481">
        <ele>39.1</ele>
        <time>2023-10-11T13:44:16Z</time>
      </trkpt>
      <trkpt lat="49.05447" lon="-0.09488">
        <ele>39.1</ele>
        <time>2023-10-11T13:44:17Z</time>
      </trkpt>
      <trkpt lat="49.05442" lon="-0.09494">
        <ele>39.1</ele>
        <time>2023-10-11T13:44:18Z</time>
      </trkpt>
      <trkpt lat="49.05437" lon="-0.09501">
        <ele>39.1</ele>
        <time>2023-10-11T13:44:19Z</time>
      </trkpt>
      <trkpt lat="49.05432" lon="-0.09508">
        <ele>39.1</ele>
        <time>2023-10-11T13:44:20Z</time>
      </trkpt>
      <trkpt lat="49.05427" lon="-0.09515">
        <ele>39.2</ele>
        <time>2023-10-11T13:44:21Z</time>
      </trkpt>
      <trkpt lat="49.05422" lon="-0.09523">
        <ele>39.2</ele>
        <time>2023-10-11T13:44:22Z</time>
      </trkpt>
      <trkpt lat="49.05416" lon="-0.0953">
        <ele>39.2</ele>
        <time>2023-10-11T13:44:23Z</time>
      </trkpt>
      <trkpt lat="49.05411" lon="-0.09538">
        <ele>39.3</ele>
        <time>2023-10-11T13:44:24Z</time>
      </trkpt>
      <trkpt lat="49.05405" lon="-0.09545">
        <ele>39.3</ele>
        <time>2023-10-11T13:44:25Z</time>
      </trkpt>
      <trkpt lat="49.054" lon="-0.09553">
        <ele>39.3</ele>
        <time>2023-10-11T13:44:26Z</time>
      </trkpt>
      <trkpt lat="49.05394" lon="-0.0956">
        <ele>39.4</ele>
        <time>2023-10-11T13:44:27Z</time>
      </trkpt>
      <trkpt lat="49.05389" lon="-0.09568">
        <ele>39.4</ele>
        <time>2023-10-11T13:44:28Z</time>
      </trkpt>
      <trkpt lat="49.05384" lon="-0.09575">
        <ele>39.4</ele>
        <time>2023-10-11T13:44:29Z</time>
      </trkpt>
      <trkpt lat="49.05379" lon="-0.09583">
        <ele>39.5</ele>
        <time>2023-10-11T13:44:30Z</time>
      </trkpt>
      <trkpt lat="49.05373" lon="-0.0959">
        <ele>39.5</ele>
        <time>2023-10-11T13:44:31Z</time>
      </trkpt>
      <trkpt lat="49.05368" lon="-0.09598">
        <ele>39.6</ele>
        <time>2023-10-11T13:44:32Z</time>
      </trkpt>
      <trkpt lat="49.05363" lon="-0.09606">
        <ele>39.6</ele>
        <time>2023-10-11T13:44:33Z</time>
      </trkpt>
      <trkpt lat="49.05358" lon="-0.09614">
        <ele>39.7</ele>
        <time>2023-10-11T13:44:34Z</time>
      </trkpt>
      <trkpt lat="49.05353" lon="-0.09622">
        <ele>39.7</ele>
        <time>2023-10-11T13:44:35Z</time>
      </trkpt>
      <trkpt lat="49.05348" lon="-0.0963">
        <ele>39.7</ele>
        <time>2023-10-11T13:44:36Z</time>
      </trkpt>
      <trkpt lat="49.05344" lon="-0.09638">
        <ele>39.8</ele>
        <time>2023-10-11T13:44:37Z</time>
      </trkpt>
      <trkpt lat="49.05339" lon="-0.09646">
        <ele>39.9</ele>
        <time>2023-10-11T13:44:38Z</time>
      </trkpt>
      <trkpt lat="49.05334" lon="-0.09653">
        <ele>39.9</ele>
        <time>2023-10-11T13:44:39Z</time>
      </trkpt>
      <trkpt lat="49.0533" lon="-0.09661">
        <ele>40</ele>
        <time>2023-10-11T13:44:40Z</time>
      </trkpt>
      <trkpt lat="49.05325" lon="-0.09669">
        <ele>40.1</ele>
        <time>2023-10-11T13:44:41Z</time>
      </trkpt>
      <trkpt lat="49.0532" lon="-0.09677">
        <ele>40.1</ele>
        <time>2023-10-11T13:44:42Z</time>
      </trkpt>
      <trkpt lat="49.05315" lon="-0.09686">
        <ele>40.2</ele>
        <time>2023-10-11T13:44:43Z</time>
      </trkpt>
      <trkpt lat="49.0531" lon="-0.09694">
        <ele>40.2</ele>
        <time>2023-10-11T13:44:44Z</time>
      </trkpt>
      <trkpt lat="49.05306" lon="-0.09703">
        <ele>40.3</ele>
        <time>2023-10-11T13:44:45Z</time>
      </trkpt>
      <trkpt lat="49.05301" lon="-0.09711">
        <ele>40.3</ele>
        <time>2023-10-11T13:44:46Z</time>
      </trkpt>
      <trkpt lat="49.05296" lon="-0.09719">
        <ele>40.4</ele>
        <time>2023-10-11T13:44:47Z</time>
      </trkpt>
      <trkpt lat="49.05291" lon="-0.09727">
        <ele>40.4</ele>
        <time>2023-10-11T13:44:48Z</time>
      </trkpt>
      <trkpt lat="49.05286" lon="-0.09736">
        <ele>40.5</ele>
        <time>2023-10-11T13:44:49Z</time>
      </trkpt>
      <trkpt lat="49.05281" lon="-0.09744">
        <ele>40.5</ele>
        <time>2023-10-11T13:44:50Z</time>
      </trkpt>
      <trkpt lat="49.05276" lon="-0.09753">
        <ele>40.6</ele>
        <time>2023-10-11T13:44:51Z</time>
      </trkpt>
      <trkpt lat="49.05271" lon="-0.09761">
        <ele>40.6</ele>
        <time>2023-10-11T13:44:52Z</time>
      </trkpt>
      <trkpt lat="49.05266" lon="-0.09769">
        <ele>40.7</ele>
        <time>2023-10-11T13:44:53Z</time>
      </trkpt>
      <trkpt lat="49.05261" lon="-0.09778">
        <ele>40.7</ele>
        <time>2023-10-11T13:44:54Z</time>
      </trkpt>
      <trkpt lat="49.05256" lon="-0.09786">
        <ele>40.8</ele>
        <time>2023-10-11T13:44:55Z</time>
      </trkpt>
      <trkpt lat="49.05251" lon="-0.09793">
        <ele>40.9</ele>
        <time>2023-10-11T13:44:56Z</time>
      </trkpt>
      <trkpt lat="49.05246" lon="-0.09802">
        <ele>41</ele>
        <time>2023-10-11T13:44:57Z</time>
      </trkpt>
      <trkpt lat="49.05242" lon="-0.0981">
        <ele>41.1</ele>
        <time>2023-10-11T13:44:58Z</time>
      </trkpt>
      <trkpt lat="49.05237" lon="-0.09818">
        <ele>41.2</ele>
        <time>2023-10-11T13:44:59Z</time>
      </trkpt>
      <trkpt lat="49.05232" lon="-0.09825">
        <ele>41.3</ele>
        <time>2023-10-11T13:45:00Z</time>
      </trkpt>
      <trkpt lat="49.05227" lon="-0.09833">
        <ele>41.3</ele>
        <time>2023-10-11T13:45:01Z</time>
      </trkpt>
      <trkpt lat="49.05222" lon="-0.0984">
        <ele>41.4</ele>
        <time>2023-10-11T13:45:02Z</time>
      </trkpt>
      <trkpt lat="49.05217" lon="-0.09847">
        <ele>41.4</ele>
        <time>2023-10-11T13:45:03Z</time>
      </trkpt>
      <trkpt lat="49.05212" lon="-0.09853">
        <ele>41.5</ele>
        <time>2023-10-11T13:45:04Z</time>
      </trkpt>
      <trkpt lat="49.05206" lon="-0.0986">
        <ele>41.6</ele>
        <time>2023-10-11T13:45:05Z</time>
      </trkpt>
      <trkpt lat="49.052" lon="-0.09868">
        <ele>41.7</ele>
        <time>2023-10-11T13:45:06Z</time>
      </trkpt>
      <trkpt lat="49.05194" lon="-0.09875">
        <ele>41.7</ele>
        <time>2023-10-11T13:45:07Z</time>
      </trkpt>
      <trkpt lat="49.05188" lon="-0.09881">
        <ele>41.8</ele>
        <time>2023-10-11T13:45:08Z</time>
      </trkpt>
      <trkpt lat="49.05182" lon="-0.09887">
        <ele>41.8</ele>
        <time>2023-10-11T13:45:09Z</time>
      </trkpt>
      <trkpt lat="49.05176" lon="-0.09893">
        <ele>41.9</ele>
        <time>2023-10-11T13:45:10Z</time>
      </trkpt>
      <trkpt lat="49.05169" lon="-0.09899">
        <ele>41.9</ele>
        <time>2023-10-11T13:45:11Z</time>
      </trkpt>
      <trkpt lat="49.05163" lon="-0.09905">
        <ele>42</ele>
        <time>2023-10-11T13:45:12Z</time>
      </trkpt>
      <trkpt lat="49.05157" lon="-0.0991">
        <ele>42</ele>
        <time>2023-10-11T13:45:13Z</time>
      </trkpt>
      <trkpt lat="49.0515" lon="-0.09915">
        <ele>42.1</ele>
        <time>2023-10-11T13:45:14Z</time>
      </trkpt>
      <trkpt lat="49.05144" lon="-0.0992">
        <ele>42.1</ele>
        <time>2023-10-11T13:45:15Z</time>
      </trkpt>
      <trkpt lat="49.05139" lon="-0.09925">
        <ele>42.2</ele>
        <time>2023-10-11T13:45:16Z</time>
      </trkpt>
      <trkpt lat="49.05133" lon="-0.09929">
        <ele>42.2</ele>
        <time>2023-10-11T13:45:17Z</time>
      </trkpt>
      <trkpt lat="49.05127" lon="-0.09934">
        <ele>42.3</ele>
        <time>2023-10-11T13:45:18Z</time>
      </trkpt>
      <trkpt lat="49.05121" lon="-0.09939">
        <ele>42.3</ele>
        <time>2023-10-11T13:45:19Z</time>
      </trkpt>
      <trkpt lat="49.05115" lon="-0.09944">
        <ele>42.4</ele>
        <time>2023-10-11T13:45:20Z</time>
      </trkpt>
      <trkpt lat="49.05109" lon="-0.09949">
        <ele>42.5</ele>
        <time>2023-10-11T13:45:21Z</time>
      </trkpt>
      <trkpt lat="49.05103" lon="-0.09953">
        <ele>42.5</ele>
        <time>2023-10-11T13:45:22Z</time>
      </trkpt>
      <trkpt lat="49.05097" lon="-0.09958">
        <ele>42.6</ele>
        <time>2023-10-11T13:45:23Z</time>
      </trkpt>
      <trkpt lat="49.05091" lon="-0.09962">
        <ele>42.7</ele>
        <time>2023-10-11T13:45:24Z</time>
      </trkpt>
      <trkpt lat="49.05085" lon="-0.09967">
        <ele>42.7</ele>
        <time>2023-10-11T13:45:25Z</time>
      </trkpt>
      <trkpt lat="49.0508" lon="-0.09972">
        <ele>42.7</ele>
        <time>2023-10-11T13:45:26Z</time>
      </trkpt>
      <trkpt lat="49.05074" lon="-0.09977">
        <ele>42.7</ele>
        <time>2023-10-11T13:45:27Z</time>
      </trkpt>
      <trkpt lat="49.05068" lon="-0.09981">
        <ele>42.8</ele>
        <time>2023-10-11T13:45:28Z</time>
      </trkpt>
      <trkpt lat="49.05063" lon="-0.09986">
        <ele>42.8</ele>
        <time>2023-10-11T13:45:29Z</time>
      </trkpt>
      <trkpt lat="49.05058" lon="-0.0999">
        <ele>42.9</ele>
        <time>2023-10-11T13:45:30Z</time>
      </trkpt>
      <trkpt lat="49.05053" lon="-0.09994">
        <ele>42.9</ele>
        <time>2023-10-11T13:45:31Z</time>
      </trkpt>
      <trkpt lat="49.05048" lon="-0.09999">
        <ele>43</ele>
        <time>2023-10-11T13:45:32Z</time>
      </trkpt>
      <trkpt lat="49.05044" lon="-0.10003">
        <ele>43</ele>
        <time>2023-10-11T13:45:33Z</time>
      </trkpt>
      <trkpt lat="49.0504" lon="-0.10008">
        <ele>43.1</ele>
        <time>2023-10-11T13:45:34Z</time>
      </trkpt>
      <trkpt lat="49.05038" lon="-0.10015">
        <ele>43.1</ele>
        <time>2023-10-11T13:45:35Z</time>
      </trkpt>
      <trkpt lat="49.05038" lon="-0.10023">
        <ele>43.2</ele>
        <time>2023-10-11T13:45:36Z</time>
      </trkpt>
      <trkpt lat="49.05039" lon="-0.10032">
        <ele>43.2</ele>
        <time>2023-10-11T13:45:37Z</time>
      </trkpt>
      <trkpt lat="49.05041" lon="-0.10041">
        <ele>43.2</ele>
        <time>2023-10-11T13:45:38Z</time>
      </trkpt>
      <trkpt lat="49.05044" lon="-0.1005">
        <ele>43.3</ele>
        <time>2023-10-11T13:45:39Z</time>
      </trkpt>
      <trkpt lat="49.05046" lon="-0.10059">
        <ele>43.3</ele>
        <time>2023-10-11T13:45:40Z</time>
      </trkpt>
      <trkpt lat="49.05048" lon="-0.10069">
        <ele>43.4</ele>
        <time>2023-10-11T13:45:41Z</time>
      </trkpt>
      <trkpt lat="49.0505" lon="-0.10078">
        <ele>43.4</ele>
        <time>2023-10-11T13:45:42Z</time>
      </trkpt>
      <trkpt lat="49.05052" lon="-0.10088">
        <ele>43.5</ele>
        <time>2023-10-11T13:45:43Z</time>
      </trkpt>
      <trkpt lat="49.05053" lon="-0.10098">
        <ele>43.6</ele>
        <time>2023-10-11T13:45:44Z</time>
      </trkpt>
      <trkpt lat="49.05053" lon="-0.10108">
        <ele>43.7</ele>
        <time>2023-10-11T13:45:45Z</time>
      </trkpt>
      <trkpt lat="49.05052" lon="-0.10118">
        <ele>43.8</ele>
        <time>2023-10-11T13:45:46Z</time>
      </trkpt>
      <trkpt lat="49.05051" lon="-0.10127">
        <ele>43.9</ele>
        <time>2023-10-11T13:45:47Z</time>
      </trkpt>
      <trkpt lat="49.05049" lon="-0.10136">
        <ele>44</ele>
        <time>2023-10-11T13:45:48Z</time>
      </trkpt>
      <trkpt lat="49.05046" lon="-0.10146">
        <ele>44.2</ele>
        <time>2023-10-11T13:45:49Z</time>
      </trkpt>
      <trkpt lat="49.05043" lon="-0.10155">
        <ele>44.3</ele>
        <time>2023-10-11T13:45:50Z</time>
      </trkpt>
      <trkpt lat="49.05039" lon="-0.10163">
        <ele>44.4</ele>
        <time>2023-10-11T13:45:51Z</time>
      </trkpt>
      <trkpt lat="49.05035" lon="-0.10171">
        <ele>44.5</ele>
        <time>2023-10-11T13:45:52Z</time>
      </trkpt>
      <trkpt lat="49.05031" lon="-0.10179">
        <ele>44.7</ele>
        <time>2023-10-11T13:45:53Z</time>
      </trkpt>
      <trkpt lat="49.05027" lon="-0.10187">
        <ele>44.9</ele>
        <time>2023-10-11T13:45:54Z</time>
      </trkpt>
      <trkpt lat="49.05023" lon="-0.10194">
        <ele>45</ele>
        <time>2023-10-11T13:45:55Z</time>
      </trkpt>
      <trkpt lat="49.05019" lon="-0.10202">
        <ele>45.2</ele>
        <time>2023-10-11T13:45:56Z</time>
      </trkpt>
      <trkpt lat="49.05016" lon="-0.10209">
        <ele>45.3</ele>
        <time>2023-10-11T13:45:57Z</time>
      </trkpt>
      <trkpt lat="49.05012" lon="-0.10215">
        <ele>45.4</ele>
        <time>2023-10-11T13:45:58Z</time>
      </trkpt>
      <trkpt lat="49.05008" lon="-0.10222">
        <ele>45.5</ele>
        <time>2023-10-11T13:45:59Z</time>
      </trkpt>
      <trkpt lat="49.05004" lon="-0.10229">
        <ele>45.6</ele>
        <time>2023-10-11T13:46:00Z</time>
      </trkpt>
      <trkpt lat="49.04999" lon="-0.10236">
        <ele>45.7</ele>
        <time>2023-10-11T13:46:01Z</time>
      </trkpt>
      <trkpt lat="49.04995" lon="-0.10244">
        <ele>45.8</ele>
        <time>2023-10-11T13:46:02Z</time>
      </trkpt>
      <trkpt lat="49.0499" lon="-0.10251">
        <ele>45.9</ele>
        <time>2023-10-11T13:46:03Z</time>
      </trkpt>
      <trkpt lat="49.04986" lon="-0.10259">
        <ele>46</ele>
        <time>2023-10-11T13:46:04Z</time>
      </trkpt>
      <trkpt lat="49.04982" lon="-0.10267">
        <ele>46.2</ele>
        <time>2023-10-11T13:46:05Z</time>
      </trkpt>
      <trkpt lat="49.04978" lon="-0.10275">
        <ele>46.3</ele>
        <time>2023-10-11T13:46:06Z</time>
      </trkpt>
      <trkpt lat="49.04975" lon="-0.10284">
        <ele>46.4</ele>
        <time>2023-10-11T13:46:07Z</time>
      </trkpt>
      <trkpt lat="49.04972" lon="-0.10293">
        <ele>46.6</ele>
        <time>2023-10-11T13:46:08Z</time>
      </trkpt>
      <trkpt lat="49.04969" lon="-0.10302">
        <ele>46.7</ele>
        <time>2023-10-11T13:46:09Z</time>
      </trkpt>
      <trkpt lat="49.04966" lon="-0.10311">
        <ele>46.8</ele>
        <time>2023-10-11T13:46:10Z</time>
      </trkpt>
      <trkpt lat="49.04963" lon="-0.10319">
        <ele>47</ele>
        <time>2023-10-11T13:46:11Z</time>
      </trkpt>
      <trkpt lat="49.04959" lon="-0.10327">
        <ele>47.1</ele>
        <time>2023-10-11T13:46:12Z</time>
      </trkpt>
      <trkpt lat="49.04956" lon="-0.10335">
        <ele>47.2</ele>
        <time>2023-10-11T13:46:13Z</time>
      </trkpt>
      <trkpt lat="49.04953" lon="-0.10343">
        <ele>47.3</ele>
        <time>2023-10-11T13:46:14Z</time>
      </trkpt>
      <trkpt lat="49.04949" lon="-0.1035">
        <ele>47.5</ele>
        <time>2023-10-11T13:46:15Z</time>
      </trkpt>
      <trkpt lat="49.04946" lon="-0.10358">
        <ele>47.6</ele>
        <time>2023-10-11T13:46:16Z</time>
      </trkpt>
      <trkpt lat="49.04942" lon="-0.10366">
        <ele>47.7</ele>
        <time>2023-10-11T13:46:17Z</time>
      </trkpt>
      <trkpt lat="49.04939" lon="-0.10374">
        <ele>47.8</ele>
        <time>2023-10-11T13:46:18Z</time>
      </trkpt>
      <trkpt lat="49.04935" lon="-0.10381">
        <ele>47.9</ele>
        <time>2023-10-11T13:46:19Z</time>
      </trkpt>
      <trkpt lat="49.04931" lon="-0.10389">
        <ele>48.1</ele>
        <time>2023-10-11T13:46:20Z</time>
      </trkpt>
      <trkpt lat="49.04928" lon="-0.10397">
        <ele>48.2</ele>
        <time>2023-10-11T13:46:21Z</time>
      </trkpt>
      <trkpt lat="49.04924" lon="-0.10404">
        <ele>48.3</ele>
        <time>2023-10-11T13:46:22Z</time>
      </trkpt>
      <trkpt lat="49.0492" lon="-0.10413">
        <ele>48.4</ele>
        <time>2023-10-11T13:46:23Z</time>
      </trkpt>
      <trkpt lat="49.04916" lon="-0.10421">
        <ele>48.4</ele>
        <time>2023-10-11T13:46:24Z</time>
      </trkpt>
      <trkpt lat="49.04913" lon="-0.1043">
        <ele>48.5</ele>
        <time>2023-10-11T13:46:25Z</time>
      </trkpt>
      <trkpt lat="49.0491" lon="-0.1044">
        <ele>48.6</ele>
        <time>2023-10-11T13:46:26Z</time>
      </trkpt>
      <trkpt lat="49.04908" lon="-0.1045">
        <ele>48.7</ele>
        <time>2023-10-11T13:46:27Z</time>
      </trkpt>
      <trkpt lat="49.04905" lon="-0.1046">
        <ele>48.8</ele>
        <time>2023-10-11T13:46:28Z</time>
      </trkpt>
      <trkpt lat="49.04903" lon="-0.1047">
        <ele>48.9</ele>
        <time>2023-10-11T13:46:29Z</time>
      </trkpt>
      <trkpt lat="49.04901" lon="-0.10479">
        <ele>49</ele>
        <time>2023-10-11T13:46:30Z</time>
      </trkpt>
      <trkpt lat="49.04899" lon="-0.10489">
        <ele>49.1</ele>
        <time>2023-10-11T13:46:31Z</time>
      </trkpt>
      <trkpt lat="49.04897" lon="-0.10499">
        <ele>49.1</ele>
        <time>2023-10-11T13:46:32Z</time>
      </trkpt>
      <trkpt lat="49.04895" lon="-0.10509">
        <ele>49.2</ele>
        <time>2023-10-11T13:46:33Z</time>
      </trkpt>
      <trkpt lat="49.04893" lon="-0.10519">
        <ele>49.3</ele>
        <time>2023-10-11T13:46:34Z</time>
      </trkpt>
      <trkpt lat="49.04891" lon="-0.10529">
        <ele>49.3</ele>
        <time>2023-10-11T13:46:35Z</time>
      </trkpt>
      <trkpt lat="49.04889" lon="-0.10539">
        <ele>49.4</ele>
        <time>2023-10-11T13:46:36Z</time>
      </trkpt>
      <trkpt lat="49.04887" lon="-0.10549">
        <ele>49.4</ele>
        <time>2023-10-11T13:46:37Z</time>
      </trkpt>
      <trkpt lat="49.04885" lon="-0.10558">
        <ele>49.4</ele>
        <time>2023-10-11T13:46:38Z</time>
      </trkpt>
      <trkpt lat="49.04883" lon="-0.10567">
        <ele>49.5</ele>
        <time>2023-10-11T13:46:39Z</time>
      </trkpt>
      <trkpt lat="49.04881" lon="-0.10576">
        <ele>49.5</ele>
        <time>2023-10-11T13:46:40Z</time>
      </trkpt>
      <trkpt lat="49.04878" lon="-0.10586">
        <ele>49.6</ele>
        <time>2023-10-11T13:46:41Z</time>
      </trkpt>
      <trkpt lat="49.04876" lon="-0.10595">
        <ele>49.7</ele>
        <time>2023-10-11T13:46:42Z</time>
      </trkpt>
      <trkpt lat="49.04874" lon="-0.10604">
        <ele>49.7</ele>
        <time>2023-10-11T13:46:43Z</time>
      </trkpt>
      <trkpt lat="49.04872" lon="-0.10613">
        <ele>49.8</ele>
        <time>2023-10-11T13:46:44Z</time>
      </trkpt>
      <trkpt lat="49.0487" lon="-0.10622">
        <ele>49.9</ele>
        <time>2023-10-11T13:46:45Z</time>
      </trkpt>
      <trkpt lat="49.04867" lon="-0.10631">
        <ele>50</ele>
        <time>2023-10-11T13:46:46Z</time>
      </trkpt>
      <trkpt lat="49.04865" lon="-0.1064">
        <ele>50</ele>
        <time>2023-10-11T13:46:47Z</time>
      </trkpt>
      <trkpt lat="49.04864" lon="-0.10649">
        <ele>50.1</ele>
        <time>2023-10-11T13:46:48Z</time>
      </trkpt>
      <trkpt lat="49.04862" lon="-0.10657">
        <ele>50.2</ele>
        <time>2023-10-11T13:46:49Z</time>
      </trkpt>
      <trkpt lat="49.04861" lon="-0.10666">
        <ele>50.2</ele>
        <time>2023-10-11T13:46:50Z</time>
      </trkpt>
      <trkpt lat="49.04861" lon="-0.10675">
        <ele>50.3</ele>
        <time>2023-10-11T13:46:51Z</time>
      </trkpt>
      <trkpt lat="49.04862" lon="-0.10685">
        <ele>50.3</ele>
        <time>2023-10-11T13:46:52Z</time>
      </trkpt>
      <trkpt lat="49.04863" lon="-0.10694">
        <ele>50.4</ele>
        <time>2023-10-11T13:46:53Z</time>
      </trkpt>
      <trkpt lat="49.04864" lon="-0.10704">
        <ele>50.4</ele>
        <time>2023-10-11T13:46:54Z</time>
      </trkpt>
      <trkpt lat="49.04865" lon="-0.10713">
        <ele>50.5</ele>
        <time>2023-10-11T13:46:55Z</time>
      </trkpt>
      <trkpt lat="49.04865" lon="-0.10723">
        <ele>50.6</ele>
        <time>2023-10-11T13:46:56Z</time>
      </trkpt>
      <trkpt lat="49.04864" lon="-0.10733">
        <ele>50.6</ele>
        <time>2023-10-11T13:46:57Z</time>
      </trkpt>
      <trkpt lat="49.04864" lon="-0.10743">
        <ele>50.7</ele>
        <time>2023-10-11T13:46:58Z</time>
      </trkpt>
      <trkpt lat="49.04864" lon="-0.10753">
        <ele>50.8</ele>
        <time>2023-10-11T13:46:59Z</time>
      </trkpt>
      <trkpt lat="49.04864" lon="-0.10763">
        <ele>50.9</ele>
        <time>2023-10-11T13:47:00Z</time>
      </trkpt>
      <trkpt lat="49.04863" lon="-0.10772">
        <ele>50.9</ele>
        <time>2023-10-11T13:47:01Z</time>
      </trkpt>
      <trkpt lat="49.04863" lon="-0.10782">
        <ele>51</ele>
        <time>2023-10-11T13:47:02Z</time>
      </trkpt>
      <trkpt lat="49.04863" lon="-0.10792">
        <ele>51</ele>
        <time>2023-10-11T13:47:03Z</time>
      </trkpt>
      <trkpt lat="49.04862" lon="-0.10802">
        <ele>51.1</ele>
        <time>2023-10-11T13:47:04Z</time>
      </trkpt>
      <trkpt lat="49.04863" lon="-0.10812">
        <ele>51.2</ele>
        <time>2023-10-11T13:47:05Z</time>
      </trkpt>
      <trkpt lat="49.04863" lon="-0.10823">
        <ele>51.2</ele>
        <time>2023-10-11T13:47:06Z</time>
      </trkpt>
      <trkpt lat="49.04863" lon="-0.10833">
        <ele>51.3</ele>
        <time>2023-10-11T13:47:07Z</time>
      </trkpt>
      <trkpt lat="49.04862" lon="-0.10843">
        <ele>51.4</ele>
        <time>2023-10-11T13:47:08Z</time>
      </trkpt>
      <trkpt lat="49.04862" lon="-0.10853">
        <ele>51.5</ele>
        <time>2023-10-11T13:47:09Z</time>
      </trkpt>
      <trkpt lat="49.04862" lon="-0.10863">
        <ele>51.6</ele>
        <time>2023-10-11T13:47:10Z</time>
      </trkpt>
      <trkpt lat="49.04861" lon="-0.10873">
        <ele>51.6</ele>
        <time>2023-10-11T13:47:11Z</time>
      </trkpt>
      <trkpt lat="49.04861" lon="-0.10884">
        <ele>51.7</ele>
        <time>2023-10-11T13:47:12Z</time>
      </trkpt>
      <trkpt lat="49.04861" lon="-0.10894">
        <ele>51.8</ele>
        <time>2023-10-11T13:47:13Z</time>
      </trkpt>
      <trkpt lat="49.04861" lon="-0.10904">
        <ele>51.9</ele>
        <time>2023-10-11T13:47:14Z</time>
      </trkpt>
      <trkpt lat="49.04861" lon="-0.10915">
        <ele>51.9</ele>
        <time>2023-10-11T13:47:15Z</time>
      </trkpt>
      <trkpt lat="49.04861" lon="-0.10926">
        <ele>52</ele>
        <time>2023-10-11T13:47:16Z</time>
      </trkpt>
      <trkpt lat="49.04862" lon="-0.10937">
        <ele>52.1</ele>
        <time>2023-10-11T13:47:17Z</time>
      </trkpt>
      <trkpt lat="49.04861" lon="-0.10948">
        <ele>52.1</ele>
        <time>2023-10-11T13:47:18Z</time>
      </trkpt>
      <trkpt lat="49.04861" lon="-0.10959">
        <ele>52.2</ele>
        <time>2023-10-11T13:47:19Z</time>
      </trkpt>
      <trkpt lat="49.04861" lon="-0.10971">
        <ele>52.3</ele>
        <time>2023-10-11T13:47:20Z</time>
      </trkpt>
      <trkpt lat="49.04861" lon="-0.10982">
        <ele>52.3</ele>
        <time>2023-10-11T13:47:21Z</time>
      </trkpt>
      <trkpt lat="49.04861" lon="-0.10992">
        <ele>52.4</ele>
        <time>2023-10-11T13:47:22Z</time>
      </trkpt>
      <trkpt lat="49.0486" lon="-0.11003">
        <ele>52.5</ele>
        <time>2023-10-11T13:47:23Z</time>
      </trkpt>
      <trkpt lat="49.0486" lon="-0.11014">
        <ele>52.6</ele>
        <time>2023-10-11T13:47:24Z</time>
      </trkpt>
      <trkpt lat="49.0486" lon="-0.11024">
        <ele>52.7</ele>
        <time>2023-10-11T13:47:25Z</time>
      </trkpt>
      <trkpt lat="49.04859" lon="-0.11035">
        <ele>52.8</ele>
        <time>2023-10-11T13:47:26Z</time>
      </trkpt>
      <trkpt lat="49.04857" lon="-0.11045">
        <ele>52.8</ele>
        <time>2023-10-11T13:47:27Z</time>
      </trkpt>
      <trkpt lat="49.04855" lon="-0.11053">
        <ele>52.9</ele>
        <time>2023-10-11T13:47:28Z</time>
      </trkpt>
      <trkpt lat="49.04853" lon="-0.11061">
        <ele>52.9</ele>
        <time>2023-10-11T13:47:29Z</time>
      </trkpt>
      <trkpt lat="49.04851" lon="-0.11068">
        <ele>52.9</ele>
        <time>2023-10-11T13:47:30Z</time>
      </trkpt>
      <trkpt lat="49.0485" lon="-0.11074">
        <ele>53</ele>
        <time>2023-10-11T13:47:31Z</time>
      </trkpt>
      <trkpt lat="49.04848" lon="-0.1108">
        <ele>53</ele>
        <time>2023-10-11T13:47:32Z</time>
      </trkpt>
      <trkpt lat="49.04847" lon="-0.11085">
        <ele>53</ele>
        <time>2023-10-11T13:47:33Z</time>
      </trkpt>
      <trkpt lat="49.04845" lon="-0.1109">
        <ele>53</ele>
        <time>2023-10-11T13:47:34Z</time>
      </trkpt>
      <trkpt lat="49.04844" lon="-0.11094">
        <ele>53</ele>
        <time>2023-10-11T13:47:35Z</time>
      </trkpt>
      <trkpt lat="49.04842" lon="-0.11098">
        <ele>53</ele>
        <time>2023-10-11T13:47:36Z</time>
      </trkpt>
      <trkpt lat="49.04842" lon="-0.111">
        <ele>53</ele>
        <time>2023-10-11T13:47:37Z</time>
      </trkpt>
      <trkpt lat="49.04841" lon="-0.11104">
        <ele>53</ele>
        <time>2023-10-11T13:47:38Z</time>
      </trkpt>
      <trkpt lat="49.04841" lon="-0.11105">
        <ele>53</ele>
        <time>2023-10-11T13:47:39Z</time>
      </trkpt>
      <trkpt lat="49.04842" lon="-0.11107">
        <ele>53</ele>
        <time>2023-10-11T13:47:40Z</time>
      </trkpt>
      <trkpt lat="49.04842" lon="-0.11108">
        <ele>53</ele>
        <time>2023-10-11T13:47:41Z</time>
      </trkpt>
      <trkpt lat="49.04842" lon="-0.11107">
        <ele>53</ele>
        <time>2023-10-11T13:47:42Z</time>
      </trkpt>
      <trkpt lat="49.04842" lon="-0.11107">
        <ele>53</ele>
        <time>2023-10-11T13:47:43Z</time>
      </trkpt>
      <trkpt lat="49.04842" lon="-0.11107">
        <ele>53</ele>
        <time>2023-10-11T13:47:44Z</time>
      </trkpt>
      <trkpt lat="49.04842" lon="-0.11108">
        <ele>53</ele>
        <time>2023-10-11T13:47:45Z</time>
      </trkpt>
      <trkpt lat="49.04842" lon="-0.11109">
        <ele>52.9</ele>
        <time>2023-10-11T13:47:46Z</time>
      </trkpt>
      <trkpt lat="49.04841" lon="-0.11111">
        <ele>52.9</ele>
        <time>2023-10-11T13:47:47Z</time>
      </trkpt>
      <trkpt lat="49.04839" lon="-0.11112">
        <ele>52.9</ele>
        <time>2023-10-11T13:47:48Z</time>
      </trkpt>
      <trkpt lat="49.04835" lon="-0.11112">
        <ele>52.8</ele>
        <time>2023-10-11T13:47:49Z</time>
      </trkpt>
      <trkpt lat="49.04834" lon="-0.11113">
        <ele>52.7</ele>
        <time>2023-10-11T13:47:50Z</time>
      </trkpt>
      <trkpt lat="49.0483" lon="-0.11114">
        <ele>52.7</ele>
        <time>2023-10-11T13:47:51Z</time>
      </trkpt>
      <trkpt lat="49.04827" lon="-0.11116">
        <ele>52.6</ele>
        <time>2023-10-11T13:47:52Z</time>
      </trkpt>
      <trkpt lat="49.04824" lon="-0.11118">
        <ele>52.5</ele>
        <time>2023-10-11T13:47:53Z</time>
      </trkpt>
      <trkpt lat="49.04821" lon="-0.11122">
        <ele>52.4</ele>
        <time>2023-10-11T13:47:54Z</time>
      </trkpt>
      <trkpt lat="49.04818" lon="-0.11126">
        <ele>52.3</ele>
        <time>2023-10-11T13:47:55Z</time>
      </trkpt>
      <trkpt lat="49.04815" lon="-0.11131">
        <ele>52.2</ele>
        <time>2023-10-11T13:47:56Z</time>
      </trkpt>
      <trkpt lat="49.04812" lon="-0.11136">
        <ele>52</ele>
        <time>2023-10-11T13:47:57Z</time>
      </trkpt>
      <trkpt lat="49.0481" lon="-0.11143">
        <ele>51.9</ele>
        <time>2023-10-11T13:47:58Z</time>
      </trkpt>
      <trkpt lat="49.04808" lon="-0.11151">
        <ele>51.8</ele>
        <time>2023-10-11T13:47:59Z</time>
      </trkpt>
      <trkpt lat="49.04807" lon="-0.11159">
        <ele>51.8</ele>
        <time>2023-10-11T13:48:00Z</time>
      </trkpt>
      <trkpt lat="49.04806" lon="-0.11168">
        <ele>51.7</ele>
        <time>2023-10-11T13:48:01Z</time>
      </trkpt>
      <trkpt lat="49.04806" lon="-0.11177">
        <ele>51.6</ele>
        <time>2023-10-11T13:48:02Z</time>
      </trkpt>
      <trkpt lat="49.04806" lon="-0.11186">
        <ele>51.5</ele>
        <time>2023-10-11T13:48:03Z</time>
      </trkpt>
      <trkpt lat="49.04806" lon="-0.11195">
        <ele>51.5</ele>
        <time>2023-10-11T13:48:04Z</time>
      </trkpt>
      <trkpt lat="49.04805" lon="-0.11205">
        <ele>51.5</ele>
        <time>2023-10-11T13:48:05Z</time>
      </trkpt>
      <trkpt lat="49.04803" lon="-0.11214">
        <ele>51.4</ele>
        <time>2023-10-11T13:48:06Z</time>
      </trkpt>
      <trkpt lat="49.048" lon="-0.11224">
        <ele>51.4</ele>
        <time>2023-10-11T13:48:07Z</time>
      </trkpt>
      <trkpt lat="49.04797" lon="-0.11233">
        <ele>51.4</ele>
        <time>2023-10-11T13:48:08Z</time>
      </trkpt>
      <trkpt lat="49.04793" lon="-0.11241">
        <ele>51.4</ele>
        <time>2023-10-11T13:48:09Z</time>
      </trkpt>
      <trkpt lat="49.0479" lon="-0.1125">
        <ele>51.5</ele>
        <time>2023-10-11T13:48:10Z</time>
      </trkpt>
      <trkpt lat="49.04787" lon="-0.11259">
        <ele>51.5</ele>
        <time>2023-10-11T13:48:11Z</time>
      </trkpt>
      <trkpt lat="49.04784" lon="-0.11268">
        <ele>51.5</ele>
        <time>2023-10-11T13:48:12Z</time>
      </trkpt>
      <trkpt lat="49.04781" lon="-0.11278">
        <ele>51.6</ele>
        <time>2023-10-11T13:48:13Z</time>
      </trkpt>
      <trkpt lat="49.04778" lon="-0.11287">
        <ele>51.6</ele>
        <time>2023-10-11T13:48:14Z</time>
      </trkpt>
      <trkpt lat="49.04775" lon="-0.11297">
        <ele>51.7</ele>
        <time>2023-10-11T13:48:15Z</time>
      </trkpt>
      <trkpt lat="49.04772" lon="-0.11306">
        <ele>51.7</ele>
        <time>2023-10-11T13:48:16Z</time>
      </trkpt>
      <trkpt lat="49.0477" lon="-0.11316">
        <ele>51.8</ele>
        <time>2023-10-11T13:48:17Z</time>
      </trkpt>
      <trkpt lat="49.04767" lon="-0.11326">
        <ele>51.8</ele>
        <time>2023-10-11T13:48:18Z</time>
      </trkpt>
      <trkpt lat="49.04764" lon="-0.11336">
        <ele>51.9</ele>
        <time>2023-10-11T13:48:19Z</time>
      </trkpt>
      <trkpt lat="49.04762" lon="-0.11346">
        <ele>52</ele>
        <time>2023-10-11T13:48:20Z</time>
      </trkpt>
      <trkpt lat="49.0476" lon="-0.11356">
        <ele>52.1</ele>
        <time>2023-10-11T13:48:21Z</time>
      </trkpt>
      <trkpt lat="49.04759" lon="-0.11366">
        <ele>52.1</ele>
        <time>2023-10-11T13:48:22Z</time>
      </trkpt>
      <trkpt lat="49.04757" lon="-0.11376">
        <ele>52.2</ele>
        <time>2023-10-11T13:48:23Z</time>
      </trkpt>
      <trkpt lat="49.04754" lon="-0.11387">
        <ele>52.3</ele>
        <time>2023-10-11T13:48:24Z</time>
      </trkpt>
      <trkpt lat="49.04753" lon="-0.11397">
        <ele>52.4</ele>
        <time>2023-10-11T13:48:25Z</time>
      </trkpt>
      <trkpt lat="49.04751" lon="-0.11407">
        <ele>52.5</ele>
        <time>2023-10-11T13:48:26Z</time>
      </trkpt>
      <trkpt lat="49.04749" lon="-0.11417">
        <ele>52.6</ele>
        <time>2023-10-11T13:48:27Z</time>
      </trkpt>
      <trkpt lat="49.04747" lon="-0.11428">
        <ele>52.6</ele>
        <time>2023-10-11T13:48:28Z</time>
      </trkpt>
      <trkpt lat="49.04746" lon="-0.11438">
        <ele>52.7</ele>
        <time>2023-10-11T13:48:29Z</time>
      </trkpt>
      <trkpt lat="49.04744" lon="-0.11449">
        <ele>52.7</ele>
        <time>2023-10-11T13:48:30Z</time>
      </trkpt>
      <trkpt lat="49.04742" lon="-0.11459">
        <ele>52.7</ele>
        <time>2023-10-11T13:48:31Z</time>
      </trkpt>
      <trkpt lat="49.0474" lon="-0.11469">
        <ele>52.6</ele>
        <time>2023-10-11T13:48:32Z</time>
      </trkpt>
      <trkpt lat="49.04739" lon="-0.11479">
        <ele>52.6</ele>
        <time>2023-10-11T13:48:33Z</time>
      </trkpt>
      <trkpt lat="49.04737" lon="-0.1149">
        <ele>52.6</ele>
        <time>2023-10-11T13:48:34Z</time>
      </trkpt>
      <trkpt lat="49.04735" lon="-0.115">
        <ele>52.6</ele>
        <time>2023-10-11T13:48:35Z</time>
      </trkpt>
      <trkpt lat="49.04734" lon="-0.11511">
        <ele>52.6</ele>
        <time>2023-10-11T13:48:36Z</time>
      </trkpt>
      <trkpt lat="49.04732" lon="-0.11522">
        <ele>52.6</ele>
        <time>2023-10-11T13:48:37Z</time>
      </trkpt>
      <trkpt lat="49.04731" lon="-0.11533">
        <ele>52.6</ele>
        <time>2023-10-11T13:48:38Z</time>
      </trkpt>
      <trkpt lat="49.04729" lon="-0.11544">
        <ele>52.6</ele>
        <time>2023-10-11T13:48:39Z</time>
      </trkpt>
      <trkpt lat="49.04727" lon="-0.11555">
        <ele>52.7</ele>
        <time>2023-10-11T13:48:40Z</time>
      </trkpt>
      <trkpt lat="49.04726" lon="-0.11566">
        <ele>52.7</ele>
        <time>2023-10-11T13:48:41Z</time>
      </trkpt>
      <trkpt lat="49.04725" lon="-0.11577">
        <ele>52.7</ele>
        <time>2023-10-11T13:48:42Z</time>
      </trkpt>
      <trkpt lat="49.04723" lon="-0.11588">
        <ele>52.8</ele>
        <time>2023-10-11T13:48:43Z</time>
      </trkpt>
      <trkpt lat="49.04722" lon="-0.116">
        <ele>52.8</ele>
        <time>2023-10-11T13:48:44Z</time>
      </trkpt>
      <trkpt lat="49.04721" lon="-0.11611">
        <ele>52.8</ele>
        <time>2023-10-11T13:48:45Z</time>
      </trkpt>
      <trkpt lat="49.0472" lon="-0.11622">
        <ele>52.8</ele>
        <time>2023-10-11T13:48:46Z</time>
      </trkpt>
      <trkpt lat="49.0472" lon="-0.11634">
        <ele>52.8</ele>
        <time>2023-10-11T13:48:47Z</time>
      </trkpt>
      <trkpt lat="49.0472" lon="-0.11646">
        <ele>52.8</ele>
        <time>2023-10-11T13:48:48Z</time>
      </trkpt>
      <trkpt lat="49.0472" lon="-0.11657">
        <ele>52.8</ele>
        <time>2023-10-11T13:48:49Z</time>
      </trkpt>
      <trkpt lat="49.0472" lon="-0.11669">
        <ele>52.9</ele>
        <time>2023-10-11T13:48:50Z</time>
      </trkpt>
      <trkpt lat="49.0472" lon="-0.1168">
        <ele>52.9</ele>
        <time>2023-10-11T13:48:51Z</time>
      </trkpt>
      <trkpt lat="49.0472" lon="-0.11691">
        <ele>52.9</ele>
        <time>2023-10-11T13:48:52Z</time>
      </trkpt>
      <trkpt lat="49.04721" lon="-0.11702">
        <ele>52.9</ele>
        <time>2023-10-11T13:48:53Z</time>
      </trkpt>
      <trkpt lat="49.04721" lon="-0.11713">
        <ele>53</ele>
        <time>2023-10-11T13:48:54Z</time>
      </trkpt>
      <trkpt lat="49.04721" lon="-0.11725">
        <ele>53</ele>
        <time>2023-10-11T13:48:55Z</time>
      </trkpt>
      <trkpt lat="49.04722" lon="-0.11737">
        <ele>52.9</ele>
        <time>2023-10-11T13:48:56Z</time>
      </trkpt>
      <trkpt lat="49.04722" lon="-0.11749">
        <ele>52.9</ele>
        <time>2023-10-11T13:48:57Z</time>
      </trkpt>
      <trkpt lat="49.04723" lon="-0.11761">
        <ele>52.9</ele>
        <time>2023-10-11T13:48:58Z</time>
      </trkpt>
      <trkpt lat="49.04724" lon="-0.11772">
        <ele>52.8</ele>
        <time>2023-10-11T13:48:59Z</time>
      </trkpt>
      <trkpt lat="49.04725" lon="-0.11784">
        <ele>52.8</ele>
        <time>2023-10-11T13:49:00Z</time>
      </trkpt>
      <trkpt lat="49.04727" lon="-0.11796">
        <ele>52.7</ele>
        <time>2023-10-11T13:49:01Z</time>
      </trkpt>
      <trkpt lat="49.04728" lon="-0.11808">
        <ele>52.6</ele>
        <time>2023-10-11T13:49:02Z</time>
      </trkpt>
      <trkpt lat="49.0473" lon="-0.1182">
        <ele>52.5</ele>
        <time>2023-10-11T13:49:03Z</time>
      </trkpt>
      <trkpt lat="49.04732" lon="-0.11832">
        <ele>52.4</ele>
        <time>2023-10-11T13:49:04Z</time>
      </trkpt>
      <trkpt lat="49.04734" lon="-0.11845">
        <ele>52.2</ele>
        <time>2023-10-11T13:49:05Z</time>
      </trkpt>
      <trkpt lat="49.04736" lon="-0.11857">
        <ele>52.1</ele>
        <time>2023-10-11T13:49:06Z</time>
      </trkpt>
      <trkpt lat="49.04739" lon="-0.11869">
        <ele>51.9</ele>
        <time>2023-10-11T13:49:07Z</time>
      </trkpt>
      <trkpt lat="49.04741" lon="-0.11881">
        <ele>51.8</ele>
        <time>2023-10-11T13:49:08Z</time>
      </trkpt>
      <trkpt lat="49.04743" lon="-0.11893">
        <ele>51.6</ele>
        <time>2023-10-11T13:49:09Z</time>
      </trkpt>
      <trkpt lat="49.04745" lon="-0.11905">
        <ele>51.4</ele>
        <time>2023-10-11T13:49:10Z</time>
      </trkpt>
      <trkpt lat="49.04748" lon="-0.11917">
        <ele>51.2</ele>
        <time>2023-10-11T13:49:11Z</time>
      </trkpt>
      <trkpt lat="49.0475" lon="-0.11929">
        <ele>51</ele>
        <time>2023-10-11T13:49:12Z</time>
      </trkpt>
      <trkpt lat="49.04752" lon="-0.11941">
        <ele>50.8</ele>
        <time>2023-10-11T13:49:13Z</time>
      </trkpt>
      <trkpt lat="49.04754" lon="-0.11953">
        <ele>50.6</ele>
        <time>2023-10-11T13:49:14Z</time>
      </trkpt>
      <trkpt lat="49.04756" lon="-0.11966">
        <ele>50.3</ele>
        <time>2023-10-11T13:49:15Z</time>
      </trkpt>
      <trkpt lat="49.04758" lon="-0.11978">
        <ele>50</ele>
        <time>2023-10-11T13:49:16Z</time>
      </trkpt>
      <trkpt lat="49.0476" lon="-0.11991">
        <ele>49.7</ele>
        <time>2023-10-11T13:49:17Z</time>
      </trkpt>
      <trkpt lat="49.04762" lon="-0.12003">
        <ele>49.3</ele>
        <time>2023-10-11T13:49:18Z</time>
      </trkpt>
      <trkpt lat="49.04764" lon="-0.12016">
        <ele>49</ele>
        <time>2023-10-11T13:49:19Z</time>
      </trkpt>
      <trkpt lat="49.04766" lon="-0.12029">
        <ele>48.7</ele>
        <time>2023-10-11T13:49:20Z</time>
      </trkpt>
      <trkpt lat="49.04767" lon="-0.12043">
        <ele>48.3</ele>
        <time>2023-10-11T13:49:21Z</time>
      </trkpt>
      <trkpt lat="49.04768" lon="-0.12057">
        <ele>47.8</ele>
        <time>2023-10-11T13:49:22Z</time>
      </trkpt>
      <trkpt lat="49.04769" lon="-0.12071">
        <ele>47.4</ele>
        <time>2023-10-11T13:49:23Z</time>
      </trkpt>
      <trkpt lat="49.0477" lon="-0.12085">
        <ele>47</ele>
        <time>2023-10-11T13:49:24Z</time>
      </trkpt>
      <trkpt lat="49.0477" lon="-0.12099">
        <ele>46.5</ele>
        <time>2023-10-11T13:49:25Z</time>
      </trkpt>
      <trkpt lat="49.0477" lon="-0.12114">
        <ele>46.1</ele>
        <time>2023-10-11T13:49:26Z</time>
      </trkpt>
      <trkpt lat="49.04769" lon="-0.12128">
        <ele>45.6</ele>
        <time>2023-10-11T13:49:27Z</time>
      </trkpt>
      <trkpt lat="49.04767" lon="-0.12143">
        <ele>45.1</ele>
        <time>2023-10-11T13:49:28Z</time>
      </trkpt>
      <trkpt lat="49.04765" lon="-0.12157">
        <ele>44.6</ele>
        <time>2023-10-11T13:49:29Z</time>
      </trkpt>
      <trkpt lat="49.04763" lon="-0.12171">
        <ele>44.1</ele>
        <time>2023-10-11T13:49:30Z</time>
      </trkpt>
      <trkpt lat="49.0476" lon="-0.12185">
        <ele>43.6</ele>
        <time>2023-10-11T13:49:31Z</time>
      </trkpt>
      <trkpt lat="49.04757" lon="-0.12199">
        <ele>43.2</ele>
        <time>2023-10-11T13:49:32Z</time>
      </trkpt>
      <trkpt lat="49.04753" lon="-0.12212">
        <ele>42.7</ele>
        <time>2023-10-11T13:49:33Z</time>
      </trkpt>
      <trkpt lat="49.0475" lon="-0.12225">
        <ele>42.2</ele>
        <time>2023-10-11T13:49:34Z</time>
      </trkpt>
      <trkpt lat="49.04745" lon="-0.12237">
        <ele>41.8</ele>
        <time>2023-10-11T13:49:35Z</time>
      </trkpt>
      <trkpt lat="49.04741" lon="-0.1225">
        <ele>41.3</ele>
        <time>2023-10-11T13:49:36Z</time>
      </trkpt>
      <trkpt lat="49.04736" lon="-0.12262">
        <ele>40.9</ele>
        <time>2023-10-11T13:49:37Z</time>
      </trkpt>
      <trkpt lat="49.04731" lon="-0.12274">
        <ele>40.5</ele>
        <time>2023-10-11T13:49:38Z</time>
      </trkpt>
      <trkpt lat="49.04726" lon="-0.12286">
        <ele>40.1</ele>
        <time>2023-10-11T13:49:39Z</time>
      </trkpt>
      <trkpt lat="49.0472" lon="-0.12297">
        <ele>39.7</ele>
        <time>2023-10-11T13:49:40Z</time>
      </trkpt>
      <trkpt lat="49.04714" lon="-0.12309">
        <ele>39.2</ele>
        <time>2023-10-11T13:49:41Z</time>
      </trkpt>
      <trkpt lat="49.04707" lon="-0.12319">
        <ele>38.8</ele>
        <time>2023-10-11T13:49:42Z</time>
      </trkpt>
      <trkpt lat="49.047" lon="-0.1233">
        <ele>38.3</ele>
        <time>2023-10-11T13:49:43Z</time>
      </trkpt>
      <trkpt lat="49.04693" lon="-0.12339">
        <ele>37.9</ele>
        <time>2023-10-11T13:49:44Z</time>
      </trkpt>
      <trkpt lat="49.04685" lon="-0.12348">
        <ele>37.4</ele>
        <time>2023-10-11T13:49:45Z</time>
      </trkpt>
      <trkpt lat="49.04677" lon="-0.12355">
        <ele>37</ele>
        <time>2023-10-11T13:49:46Z</time>
      </trkpt>
      <trkpt lat="49.04667" lon="-0.12361">
        <ele>36.5</ele>
        <time>2023-10-11T13:49:47Z</time>
      </trkpt>
      <trkpt lat="49.04657" lon="-0.12365">
        <ele>36</ele>
        <time>2023-10-11T13:49:48Z</time>
      </trkpt>
      <trkpt lat="49.04648" lon="-0.12368">
        <ele>35.6</ele>
        <time>2023-10-11T13:49:49Z</time>
      </trkpt>
      <trkpt lat="49.04638" lon="-0.12369">
        <ele>35.1</ele>
        <time>2023-10-11T13:49:50Z</time>
      </trkpt>
      <trkpt lat="49.04628" lon="-0.12369">
        <ele>34.6</ele>
        <time>2023-10-11T13:49:51Z</time>
      </trkpt>
      <trkpt lat="49.04619" lon="-0.12371">
        <ele>34.2</ele>
        <time>2023-10-11T13:49:52Z</time>
      </trkpt>
      <trkpt lat="49.04609" lon="-0.12373">
        <ele>33.8</ele>
        <time>2023-10-11T13:49:53Z</time>
      </trkpt>
      <trkpt lat="49.04601" lon="-0.12379">
        <ele>33.4</ele>
        <time>2023-10-11T13:49:54Z</time>
      </trkpt>
      <trkpt lat="49.04595" lon="-0.1239">
        <ele>33.1</ele>
        <time>2023-10-11T13:49:55Z</time>
      </trkpt>
      <trkpt lat="49.04592" lon="-0.12405">
        <ele>32.8</ele>
        <time>2023-10-11T13:49:56Z</time>
      </trkpt>
      <trkpt lat="49.04592" lon="-0.1242">
        <ele>32.6</ele>
        <time>2023-10-11T13:49:57Z</time>
      </trkpt>
      <trkpt lat="49.04593" lon="-0.12436">
        <ele>32.3</ele>
        <time>2023-10-11T13:49:58Z</time>
      </trkpt>
      <trkpt lat="49.04595" lon="-0.1245">
        <ele>32</ele>
        <time>2023-10-11T13:49:59Z</time>
      </trkpt>
      <trkpt lat="49.04597" lon="-0.12464">
        <ele>31.7</ele>
        <time>2023-10-11T13:50:00Z</time>
      </trkpt>
      <trkpt lat="49.04599" lon="-0.12478">
        <ele>31.4</ele>
        <time>2023-10-11T13:50:01Z</time>
      </trkpt>
      <trkpt lat="49.04601" lon="-0.12491">
        <ele>31.2</ele>
        <time>2023-10-11T13:50:02Z</time>
      </trkpt>
      <trkpt lat="49.04603" lon="-0.12505">
        <ele>31</ele>
        <time>2023-10-11T13:50:03Z</time>
      </trkpt>
      <trkpt lat="49.04604" lon="-0.12519">
        <ele>30.9</ele>
        <time>2023-10-11T13:50:04Z</time>
      </trkpt>
      <trkpt lat="49.04606" lon="-0.12531">
        <ele>30.9</ele>
        <time>2023-10-11T13:50:05Z</time>
      </trkpt>
      <trkpt lat="49.04606" lon="-0.12544">
        <ele>30.9</ele>
        <time>2023-10-11T13:50:06Z</time>
      </trkpt>
      <trkpt lat="49.04607" lon="-0.12555">
        <ele>31</ele>
        <time>2023-10-11T13:50:07Z</time>
      </trkpt>
      <trkpt lat="49.04607" lon="-0.12566">
        <ele>31.1</ele>
        <time>2023-10-11T13:50:08Z</time>
      </trkpt>
      <trkpt lat="49.04606" lon="-0.12576">
        <ele>31.3</ele>
        <time>2023-10-11T13:50:09Z</time>
      </trkpt>
      <trkpt lat="49.04606" lon="-0.12585">
        <ele>31.4</ele>
        <time>2023-10-11T13:50:10Z</time>
      </trkpt>
      <trkpt lat="49.04606" lon="-0.12593">
        <ele>31.6</ele>
        <time>2023-10-11T13:50:11Z</time>
      </trkpt>
      <trkpt lat="49.04605" lon="-0.12598">
        <ele>31.8</ele>
        <time>2023-10-11T13:50:12Z</time>
      </trkpt>
      <trkpt lat="49.04606" lon="-0.12602">
        <ele>31.9</ele>
        <time>2023-10-11T13:50:13Z</time>
      </trkpt>
      <trkpt lat="49.04607" lon="-0.12607">
        <ele>32.1</ele>
        <time>2023-10-11T13:50:14Z</time>
      </trkpt>
      <trkpt lat="49.04607" lon="-0.12608">
        <ele>32.1</ele>
        <time>2023-10-11T13:50:15Z</time>
      </trkpt>
      <trkpt lat="49.0461" lon="-0.12611">
        <ele>32.6</ele>
        <time>2023-10-11T13:50:16Z</time>
      </trkpt>
      <trkpt lat="49.04611" lon="-0.12612">
        <ele>32.7</ele>
        <time>2023-10-11T13:50:17Z</time>
      </trkpt>
      <trkpt lat="49.04614" lon="-0.12614">
        <ele>32.9</ele>
        <time>2023-10-11T13:50:18Z</time>
      </trkpt>
      <trkpt lat="49.04616" lon="-0.12614">
        <ele>32.9</ele>
        <time>2023-10-11T13:50:19Z</time>
      </trkpt>
      <trkpt lat="49.04619" lon="-0.12614">
        <ele>33.2</ele>
        <time>2023-10-11T13:50:20Z</time>
      </trkpt>
      <trkpt lat="49.04621" lon="-0.12614">
        <ele>33.2</ele>
        <time>2023-10-11T13:50:21Z</time>
      </trkpt>
      <trkpt lat="49.04624" lon="-0.12614">
        <ele>33.4</ele>
        <time>2023-10-11T13:50:22Z</time>
      </trkpt>
      <trkpt lat="49.04627" lon="-0.12615">
        <ele>33.6</ele>
        <time>2023-10-11T13:50:23Z</time>
      </trkpt>
      <trkpt lat="49.0463" lon="-0.12617">
        <ele>33.8</ele>
        <time>2023-10-11T13:50:24Z</time>
      </trkpt>
      <trkpt lat="49.04633" lon="-0.12618">
        <ele>34</ele>
        <time>2023-10-11T13:50:25Z</time>
      </trkpt>
      <trkpt lat="49.04635" lon="-0.1262">
        <ele>34.2</ele>
        <time>2023-10-11T13:50:26Z</time>
      </trkpt>
      <trkpt lat="49.04638" lon="-0.12623">
        <ele>34.4</ele>
        <time>2023-10-11T13:50:27Z</time>
      </trkpt>
      <trkpt lat="49.04641" lon="-0.12627">
        <ele>34.6</ele>
        <time>2023-10-11T13:50:28Z</time>
      </trkpt>
      <trkpt lat="49.04644" lon="-0.12631">
        <ele>34.8</ele>
        <time>2023-10-11T13:50:29Z</time>
      </trkpt>
      <trkpt lat="49.04646" lon="-0.12635">
        <ele>35.1</ele>
        <time>2023-10-11T13:50:30Z</time>
      </trkpt>
      <trkpt lat="49.04648" lon="-0.1264">
        <ele>35.3</ele>
        <time>2023-10-11T13:50:31Z</time>
      </trkpt>
      <trkpt lat="49.0465" lon="-0.12644">
        <ele>35.5</ele>
        <time>2023-10-11T13:50:32Z</time>
      </trkpt>
      <trkpt lat="49.04652" lon="-0.12648">
        <ele>35.7</ele>
        <time>2023-10-11T13:50:33Z</time>
      </trkpt>
      <trkpt lat="49.04654" lon="-0.12653">
        <ele>36</ele>
        <time>2023-10-11T13:50:34Z</time>
      </trkpt>
      <trkpt lat="49.04656" lon="-0.12657">
        <ele>36.2</ele>
        <time>2023-10-11T13:50:35Z</time>
      </trkpt>
      <trkpt lat="49.04658" lon="-0.12662">
        <ele>36.5</ele>
        <time>2023-10-11T13:50:36Z</time>
      </trkpt>
      <trkpt lat="49.04659" lon="-0.12667">
        <ele>36.8</ele>
        <time>2023-10-11T13:50:37Z</time>
      </trkpt>
      <trkpt lat="49.04661" lon="-0.12671">
        <ele>37.1</ele>
        <time>2023-10-11T13:50:38Z</time>
      </trkpt>
      <trkpt lat="49.04663" lon="-0.12676">
        <ele>37.4</ele>
        <time>2023-10-11T13:50:39Z</time>
      </trkpt>
      <trkpt lat="49.04664" lon="-0.12681">
        <ele>37.7</ele>
        <time>2023-10-11T13:50:40Z</time>
      </trkpt>
      <trkpt lat="49.04666" lon="-0.12685">
        <ele>38</ele>
        <time>2023-10-11T13:50:41Z</time>
      </trkpt>
      <trkpt lat="49.04667" lon="-0.1269">
        <ele>38.3</ele>
        <time>2023-10-11T13:50:42Z</time>
      </trkpt>
      <trkpt lat="49.04669" lon="-0.12696">
        <ele>38.7</ele>
        <time>2023-10-11T13:50:43Z</time>
      </trkpt>
      <trkpt lat="49.0467" lon="-0.12701">
        <ele>39</ele>
        <time>2023-10-11T13:50:44Z</time>
      </trkpt>
      <trkpt lat="49.04672" lon="-0.12707">
        <ele>39.4</ele>
        <time>2023-10-11T13:50:45Z</time>
      </trkpt>
      <trkpt lat="49.04673" lon="-0.12712">
        <ele>39.8</ele>
        <time>2023-10-11T13:50:46Z</time>
      </trkpt>
      <trkpt lat="49.04674" lon="-0.12718">
        <ele>40.1</ele>
        <time>2023-10-11T13:50:47Z</time>
      </trkpt>
      <trkpt lat="49.04674" lon="-0.12723">
        <ele>40.5</ele>
        <time>2023-10-11T13:50:48Z</time>
      </trkpt>
      <trkpt lat="49.04675" lon="-0.12728">
        <ele>40.8</ele>
        <time>2023-10-11T13:50:49Z</time>
      </trkpt>
      <trkpt lat="49.04676" lon="-0.12733">
        <ele>41.2</ele>
        <time>2023-10-11T13:50:50Z</time>
      </trkpt>
      <trkpt lat="49.04676" lon="-0.12738">
        <ele>41.5</ele>
        <time>2023-10-11T13:50:51Z</time>
      </trkpt>
      <trkpt lat="49.04677" lon="-0.12743">
        <ele>41.9</ele>
        <time>2023-10-11T13:50:52Z</time>
      </trkpt>
      <trkpt lat="49.04678" lon="-0.12747">
        <ele>42.2</ele>
        <time>2023-10-11T13:50:53Z</time>
      </trkpt>
      <trkpt lat="49.04679" lon="-0.12752">
        <ele>42.6</ele>
        <time>2023-10-11T13:50:54Z</time>
      </trkpt>
      <trkpt lat="49.0468" lon="-0.12757">
        <ele>42.9</ele>
        <time>2023-10-11T13:50:55Z</time>
      </trkpt>
      <trkpt lat="49.04681" lon="-0.12762">
        <ele>43.3</ele>
        <time>2023-10-11T13:50:56Z</time>
      </trkpt>
      <trkpt lat="49.04682" lon="-0.12767">
        <ele>43.6</ele>
        <time>2023-10-11T13:50:57Z</time>
      </trkpt>
      <trkpt lat="49.04683" lon="-0.12771">
        <ele>43.9</ele>
        <time>2023-10-11T13:50:58Z</time>
      </trkpt>
      <trkpt lat="49.04683" lon="-0.12776">
        <ele>44.2</ele>
        <time>2023-10-11T13:50:59Z</time>
      </trkpt>
      <trkpt lat="49.04684" lon="-0.12781">
        <ele>44.6</ele>
        <time>2023-10-11T13:51:00Z</time>
      </trkpt>
      <trkpt lat="49.04685" lon="-0.12786">
        <ele>44.9</ele>
        <time>2023-10-11T13:51:01Z</time>
      </trkpt>
      <trkpt lat="49.04686" lon="-0.12791">
        <ele>45.2</ele>
        <time>2023-10-11T13:51:02Z</time>
      </trkpt>
      <trkpt lat="49.04687" lon="-0.12796">
        <ele>45.6</ele>
        <time>2023-10-11T13:51:03Z</time>
      </trkpt>
      <trkpt lat="49.04688" lon="-0.12801">
        <ele>45.9</ele>
        <time>2023-10-11T13:51:04Z</time>
      </trkpt>
      <trkpt lat="49.04689" lon="-0.12806">
        <ele>46.2</ele>
        <time>2023-10-11T13:51:05Z</time>
      </trkpt>
      <trkpt lat="49.0469" lon="-0.12811">
        <ele>46.6</ele>
        <time>2023-10-11T13:51:06Z</time>
      </trkpt>
      <trkpt lat="49.04691" lon="-0.12816">
        <ele>46.9</ele>
        <time>2023-10-11T13:51:07Z</time>
      </trkpt>
      <trkpt lat="49.04692" lon="-0.12821">
        <ele>47.2</ele>
        <time>2023-10-11T13:51:08Z</time>
      </trkpt>
      <trkpt lat="49.04693" lon="-0.12826">
        <ele>47.6</ele>
        <time>2023-10-11T13:51:09Z</time>
      </trkpt>
      <trkpt lat="49.04694" lon="-0.12831">
        <ele>47.9</ele>
        <time>2023-10-11T13:51:10Z</time>
      </trkpt>
      <trkpt lat="49.04695" lon="-0.12836">
        <ele>48.3</ele>
        <time>2023-10-11T13:51:11Z</time>
      </trkpt>
      <trkpt lat="49.04696" lon="-0.12841">
        <ele>48.6</ele>
        <time>2023-10-11T13:51:12Z</time>
      </trkpt>
      <trkpt lat="49.04697" lon="-0.12847">
        <ele>48.9</ele>
        <time>2023-10-11T13:51:13Z</time>
      </trkpt>
      <trkpt lat="49.04698" lon="-0.12852">
        <ele>49.2</ele>
        <time>2023-10-11T13:51:14Z</time>
      </trkpt>
      <trkpt lat="49.04699" lon="-0.12857">
        <ele>49.5</ele>
        <time>2023-10-11T13:51:15Z</time>
      </trkpt>
      <trkpt lat="49.047" lon="-0.12862">
        <ele>49.8</ele>
        <time>2023-10-11T13:51:16Z</time>
      </trkpt>
      <trkpt lat="49.04702" lon="-0.12868">
        <ele>50.2</ele>
        <time>2023-10-11T13:51:17Z</time>
      </trkpt>
      <trkpt lat="49.04703" lon="-0.12873">
        <ele>50.5</ele>
        <time>2023-10-11T13:51:18Z</time>
      </trkpt>
      <trkpt lat="49.04705" lon="-0.12879">
        <ele>50.8</ele>
        <time>2023-10-11T13:51:19Z</time>
      </trkpt>
      <trkpt lat="49.04706" lon="-0.12884">
        <ele>51.1</ele>
        <time>2023-10-11T13:51:20Z</time>
      </trkpt>
      <trkpt lat="49.04708" lon="-0.1289">
        <ele>51.4</ele>
        <time>2023-10-11T13:51:21Z</time>
      </trkpt>
      <trkpt lat="49.0471" lon="-0.12896">
        <ele>51.7</ele>
        <time>2023-10-11T13:51:22Z</time>
      </trkpt>
      <trkpt lat="49.04711" lon="-0.12901">
        <ele>52</ele>
        <time>2023-10-11T13:51:23Z</time>
      </trkpt>
      <trkpt lat="49.04712" lon="-0.12907">
        <ele>52.3</ele>
        <time>2023-10-11T13:51:24Z</time>
      </trkpt>
      <trkpt lat="49.04714" lon="-0.12913">
        <ele>52.6</ele>
        <time>2023-10-11T13:51:25Z</time>
      </trkpt>
      <trkpt lat="49.04715" lon="-0.12919">
        <ele>52.8</ele>
        <time>2023-10-11T13:51:26Z</time>
      </trkpt>
      <trkpt lat="49.04717" lon="-0.12924">
        <ele>53.1</ele>
        <time>2023-10-11T13:51:27Z</time>
      </trkpt>
      <trkpt lat="49.04719" lon="-0.1293">
        <ele>53.4</ele>
        <time>2023-10-11T13:51:28Z</time>
      </trkpt>
      <trkpt lat="49.04721" lon="-0.12935">
        <ele>53.6</ele>
        <time>2023-10-11T13:51:29Z</time>
      </trkpt>
      <trkpt lat="49.04722" lon="-0.1294">
        <ele>53.9</ele>
        <time>2023-10-11T13:51:30Z</time>
      </trkpt>
      <trkpt lat="49.04724" lon="-0.12946">
        <ele>54.2</ele>
        <time>2023-10-11T13:51:31Z</time>
      </trkpt>
      <trkpt lat="49.04726" lon="-0.12952">
        <ele>54.5</ele>
        <time>2023-10-11T13:51:32Z</time>
      </trkpt>
      <trkpt lat="49.04728" lon="-0.12958">
        <ele>54.7</ele>
        <time>2023-10-11T13:51:33Z</time>
      </trkpt>
      <trkpt lat="49.0473" lon="-0.12964">
        <ele>55</ele>
        <time>2023-10-11T13:51:34Z</time>
      </trkpt>
      <trkpt lat="49.04732" lon="-0.1297">
        <ele>55.2</ele>
        <time>2023-10-11T13:51:35Z</time>
      </trkpt>
      <trkpt lat="49.04734" lon="-0.12975">
        <ele>55.4</ele>
        <time>2023-10-11T13:51:36Z</time>
      </trkpt>
      <trkpt lat="49.04736" lon="-0.12981">
        <ele>55.6</ele>
        <time>2023-10-11T13:51:37Z</time>
      </trkpt>
      <trkpt lat="49.04738" lon="-0.12987">
        <ele>55.8</ele>
        <time>2023-10-11T13:51:38Z</time>
      </trkpt>
      <trkpt lat="49.0474" lon="-0.12993">
        <ele>56</ele>
        <time>2023-10-11T13:51:39Z</time>
      </trkpt>
      <trkpt lat="49.04742" lon="-0.12999">
        <ele>56.2</ele>
        <time>2023-10-11T13:51:40Z</time>
      </trkpt>
      <trkpt lat="49.04744" lon="-0.13005">
        <ele>56.3</ele>
        <time>2023-10-11T13:51:41Z</time>
      </trkpt>
      <trkpt lat="49.04746" lon="-0.13011">
        <ele>56.5</ele>
        <time>2023-10-11T13:51:42Z</time>
      </trkpt>
      <trkpt lat="49.04748" lon="-0.13018">
        <ele>56.7</ele>
        <time>2023-10-11T13:51:43Z</time>
      </trkpt>
      <trkpt lat="49.0475" lon="-0.13024">
        <ele>56.9</ele>
        <time>2023-10-11T13:51:44Z</time>
      </trkpt>
      <trkpt lat="49.04752" lon="-0.1303">
        <ele>57</ele>
        <time>2023-10-11T13:51:45Z</time>
      </trkpt>
      <trkpt lat="49.04753" lon="-0.13037">
        <ele>57.2</ele>
        <time>2023-10-11T13:51:46Z</time>
      </trkpt>
      <trkpt lat="49.04755" lon="-0.13043">
        <ele>57.3</ele>
        <time>2023-10-11T13:51:47Z</time>
      </trkpt>
      <trkpt lat="49.04757" lon="-0.1305">
        <ele>57.4</ele>
        <time>2023-10-11T13:51:48Z</time>
      </trkpt>
      <trkpt lat="49.04759" lon="-0.13057">
        <ele>57.5</ele>
        <time>2023-10-11T13:51:49Z</time>
      </trkpt>
      <trkpt lat="49.04761" lon="-0.13064">
        <ele>57.6</ele>
        <time>2023-10-11T13:51:50Z</time>
      </trkpt>
      <trkpt lat="49.04763" lon="-0.13071">
        <ele>57.7</ele>
        <time>2023-10-11T13:51:51Z</time>
      </trkpt>
      <trkpt lat="49.04765" lon="-0.13079">
        <ele>57.8</ele>
        <time>2023-10-11T13:51:52Z</time>
      </trkpt>
      <trkpt lat="49.04766" lon="-0.13086">
        <ele>57.9</ele>
        <time>2023-10-11T13:51:53Z</time>
      </trkpt>
      <trkpt lat="49.04768" lon="-0.13093">
        <ele>58</ele>
        <time>2023-10-11T13:51:54Z</time>
      </trkpt>
      <trkpt lat="49.0477" lon="-0.131">
        <ele>58.1</ele>
        <time>2023-10-11T13:51:55Z</time>
      </trkpt>
      <trkpt lat="49.04772" lon="-0.13107">
        <ele>58.2</ele>
        <time>2023-10-11T13:51:56Z</time>
      </trkpt>
      <trkpt lat="49.04774" lon="-0.13114">
        <ele>58.3</ele>
        <time>2023-10-11T13:51:57Z</time>
      </trkpt>
      <trkpt lat="49.04776" lon="-0.13121">
        <ele>58.4</ele>
        <time>2023-10-11T13:51:58Z</time>
      </trkpt>
      <trkpt lat="49.04778" lon="-0.13128">
        <ele>58.5</ele>
        <time>2023-10-11T13:51:59Z</time>
      </trkpt>
      <trkpt lat="49.04779" lon="-0.13135">
        <ele>58.6</ele>
        <time>2023-10-11T13:52:00Z</time>
      </trkpt>
      <trkpt lat="49.04781" lon="-0.13142">
        <ele>58.7</ele>
        <time>2023-10-11T13:52:01Z</time>
      </trkpt>
      <trkpt lat="49.04782" lon="-0.13149">
        <ele>58.8</ele>
        <time>2023-10-11T13:52:02Z</time>
      </trkpt>
      <trkpt lat="49.04783" lon="-0.13156">
        <ele>58.9</ele>
        <time>2023-10-11T13:52:03Z</time>
      </trkpt>
      <trkpt lat="49.04784" lon="-0.13164">
        <ele>59</ele>
        <time>2023-10-11T13:52:04Z</time>
      </trkpt>
      <trkpt lat="49.04785" lon="-0.13171">
        <ele>59.1</ele>
        <time>2023-10-11T13:52:05Z</time>
      </trkpt>
      <trkpt lat="49.04785" lon="-0.13178">
        <ele>59.2</ele>
        <time>2023-10-11T13:52:06Z</time>
      </trkpt>
      <trkpt lat="49.04786" lon="-0.13186">
        <ele>59.3</ele>
        <time>2023-10-11T13:52:07Z</time>
      </trkpt>
      <trkpt lat="49.04786" lon="-0.13193">
        <ele>59.4</ele>
        <time>2023-10-11T13:52:08Z</time>
      </trkpt>
      <trkpt lat="49.04786" lon="-0.13201">
        <ele>59.5</ele>
        <time>2023-10-11T13:52:09Z</time>
      </trkpt>
      <trkpt lat="49.04786" lon="-0.13208">
        <ele>59.7</ele>
        <time>2023-10-11T13:52:10Z</time>
      </trkpt>
      <trkpt lat="49.04787" lon="-0.13216">
        <ele>59.8</ele>
        <time>2023-10-11T13:52:11Z</time>
      </trkpt>
      <trkpt lat="49.04787" lon="-0.13223">
        <ele>59.9</ele>
        <time>2023-10-11T13:52:12Z</time>
      </trkpt>
      <trkpt lat="49.04787" lon="-0.13231">
        <ele>60</ele>
        <time>2023-10-11T13:52:13Z</time>
      </trkpt>
      <trkpt lat="49.04787" lon="-0.13239">
        <ele>60.1</ele>
        <time>2023-10-11T13:52:14Z</time>
      </trkpt>
      <trkpt lat="49.04786" lon="-0.13246">
        <ele>60.3</ele>
        <time>2023-10-11T13:52:15Z</time>
      </trkpt>
      <trkpt lat="49.04786" lon="-0.13254">
        <ele>60.4</ele>
        <time>2023-10-11T13:52:16Z</time>
      </trkpt>
      <trkpt lat="49.04786" lon="-0.13261">
        <ele>60.5</ele>
        <time>2023-10-11T13:52:17Z</time>
      </trkpt>
      <trkpt lat="49.04785" lon="-0.13269">
        <ele>60.6</ele>
        <time>2023-10-11T13:52:18Z</time>
      </trkpt>
      <trkpt lat="49.04784" lon="-0.13276">
        <ele>60.8</ele>
        <time>2023-10-11T13:52:19Z</time>
      </trkpt>
      <trkpt lat="49.04781" lon="-0.13283">
        <ele>60.9</ele>
        <time>2023-10-11T13:52:20Z</time>
      </trkpt>
      <trkpt lat="49.04779" lon="-0.1329">
        <ele>61</ele>
        <time>2023-10-11T13:52:21Z</time>
      </trkpt>
      <trkpt lat="49.04777" lon="-0.13297">
        <ele>61.1</ele>
        <time>2023-10-11T13:52:22Z</time>
      </trkpt>
      <trkpt lat="49.04775" lon="-0.13304">
        <ele>61.2</ele>
        <time>2023-10-11T13:52:23Z</time>
      </trkpt>
      <trkpt lat="49.04774" lon="-0.13311">
        <ele>61.3</ele>
        <time>2023-10-11T13:52:24Z</time>
      </trkpt>
      <trkpt lat="49.04772" lon="-0.13318">
        <ele>61.4</ele>
        <time>2023-10-11T13:52:25Z</time>
      </trkpt>
      <trkpt lat="49.04771" lon="-0.13325">
        <ele>61.5</ele>
        <time>2023-10-11T13:52:26Z</time>
      </trkpt>
      <trkpt lat="49.04771" lon="-0.13333">
        <ele>61.6</ele>
        <time>2023-10-11T13:52:27Z</time>
      </trkpt>
      <trkpt lat="49.04771" lon="-0.1334">
        <ele>61.7</ele>
        <time>2023-10-11T13:52:28Z</time>
      </trkpt>
      <trkpt lat="49.04772" lon="-0.13348">
        <ele>61.8</ele>
        <time>2023-10-11T13:52:29Z</time>
      </trkpt>
      <trkpt lat="49.04773" lon="-0.13356">
        <ele>61.8</ele>
        <time>2023-10-11T13:52:30Z</time>
      </trkpt>
      <trkpt lat="49.04774" lon="-0.13363">
        <ele>61.9</ele>
        <time>2023-10-11T13:52:31Z</time>
      </trkpt>
      <trkpt lat="49.04775" lon="-0.1337">
        <ele>62</ele>
        <time>2023-10-11T13:52:32Z</time>
      </trkpt>
      <trkpt lat="49.04777" lon="-0.13376">
        <ele>62</ele>
        <time>2023-10-11T13:52:33Z</time>
      </trkpt>
      <trkpt lat="49.04779" lon="-0.13383">
        <ele>62.1</ele>
        <time>2023-10-11T13:52:34Z</time>
      </trkpt>
      <trkpt lat="49.04781" lon="-0.1339">
        <ele>62.2</ele>
        <time>2023-10-11T13:52:35Z</time>
      </trkpt>
      <trkpt lat="49.04783" lon="-0.13397">
        <ele>62.3</ele>
        <time>2023-10-11T13:52:36Z</time>
      </trkpt>
      <trkpt lat="49.04785" lon="-0.13404">
        <ele>62.4</ele>
        <time>2023-10-11T13:52:37Z</time>
      </trkpt>
      <trkpt lat="49.04787" lon="-0.13411">
        <ele>62.4</ele>
        <time>2023-10-11T13:52:38Z</time>
      </trkpt>
      <trkpt lat="49.04789" lon="-0.13419">
        <ele>62.5</ele>
        <time>2023-10-11T13:52:39Z</time>
      </trkpt>
      <trkpt lat="49.04791" lon="-0.13426">
        <ele>62.6</ele>
        <time>2023-10-11T13:52:40Z</time>
      </trkpt>
      <trkpt lat="49.04793" lon="-0.13434">
        <ele>62.7</ele>
        <time>2023-10-11T13:52:41Z</time>
      </trkpt>
      <trkpt lat="49.04795" lon="-0.13442">
        <ele>62.7</ele>
        <time>2023-10-11T13:52:42Z</time>
      </trkpt>
      <trkpt lat="49.04797" lon="-0.1345">
        <ele>62.8</ele>
        <time>2023-10-11T13:52:43Z</time>
      </trkpt>
      <trkpt lat="49.04799" lon="-0.13458">
        <ele>62.9</ele>
        <time>2023-10-11T13:52:44Z</time>
      </trkpt>
      <trkpt lat="49.04801" lon="-0.13466">
        <ele>62.9</ele>
        <time>2023-10-11T13:52:45Z</time>
      </trkpt>
      <trkpt lat="49.04803" lon="-0.13474">
        <ele>63</ele>
        <time>2023-10-11T13:52:46Z</time>
      </trkpt>
      <trkpt lat="49.04804" lon="-0.13482">
        <ele>63.1</ele>
        <time>2023-10-11T13:52:47Z</time>
      </trkpt>
      <trkpt lat="49.04806" lon="-0.13491">
        <ele>63.2</ele>
        <time>2023-10-11T13:52:48Z</time>
      </trkpt>
      <trkpt lat="49.04808" lon="-0.13499">
        <ele>63.2</ele>
        <time>2023-10-11T13:52:49Z</time>
      </trkpt>
      <trkpt lat="49.04809" lon="-0.13508">
        <ele>63.3</ele>
        <time>2023-10-11T13:52:50Z</time>
      </trkpt>
      <trkpt lat="49.04811" lon="-0.13516">
        <ele>63.4</ele>
        <time>2023-10-11T13:52:51Z</time>
      </trkpt>
      <trkpt lat="49.04812" lon="-0.13525">
        <ele>63.4</ele>
        <time>2023-10-11T13:52:52Z</time>
      </trkpt>
      <trkpt lat="49.04814" lon="-0.13533">
        <ele>63.5</ele>
        <time>2023-10-11T13:52:53Z</time>
      </trkpt>
      <trkpt lat="49.04815" lon="-0.13542">
        <ele>63.6</ele>
        <time>2023-10-11T13:52:54Z</time>
      </trkpt>
      <trkpt lat="49.04816" lon="-0.13551">
        <ele>63.7</ele>
        <time>2023-10-11T13:52:55Z</time>
      </trkpt>
      <trkpt lat="49.04817" lon="-0.1356">
        <ele>63.8</ele>
        <time>2023-10-11T13:52:56Z</time>
      </trkpt>
      <trkpt lat="49.04818" lon="-0.13569">
        <ele>63.9</ele>
        <time>2023-10-11T13:52:57Z</time>
      </trkpt>
      <trkpt lat="49.04818" lon="-0.13578">
        <ele>64</ele>
        <time>2023-10-11T13:52:58Z</time>
      </trkpt>
      <trkpt lat="49.04818" lon="-0.13587">
        <ele>64.1</ele>
        <time>2023-10-11T13:52:59Z</time>
      </trkpt>
      <trkpt lat="49.04817" lon="-0.13595">
        <ele>64.2</ele>
        <time>2023-10-11T13:53:00Z</time>
      </trkpt>
      <trkpt lat="49.04816" lon="-0.13603">
        <ele>64.4</ele>
        <time>2023-10-11T13:53:01Z</time>
      </trkpt>
      <trkpt lat="49.04814" lon="-0.13611">
        <ele>64.5</ele>
        <time>2023-10-11T13:53:02Z</time>
      </trkpt>
      <trkpt lat="49.04812" lon="-0.13619">
        <ele>64.6</ele>
        <time>2023-10-11T13:53:03Z</time>
      </trkpt>
      <trkpt lat="49.0481" lon="-0.13627">
        <ele>64.6</ele>
        <time>2023-10-11T13:53:04Z</time>
      </trkpt>
      <trkpt lat="49.04807" lon="-0.13635">
        <ele>64.7</ele>
        <time>2023-10-11T13:53:05Z</time>
      </trkpt>
      <trkpt lat="49.04804" lon="-0.13642">
        <ele>64.8</ele>
        <time>2023-10-11T13:53:06Z</time>
      </trkpt>
      <trkpt lat="49.04801" lon="-0.13649">
        <ele>64.8</ele>
        <time>2023-10-11T13:53:07Z</time>
      </trkpt>
      <trkpt lat="49.04797" lon="-0.13656">
        <ele>64.9</ele>
        <time>2023-10-11T13:53:08Z</time>
      </trkpt>
      <trkpt lat="49.04794" lon="-0.13663">
        <ele>65</ele>
        <time>2023-10-11T13:53:09Z</time>
      </trkpt>
      <trkpt lat="49.04791" lon="-0.1367">
        <ele>65.1</ele>
        <time>2023-10-11T13:53:10Z</time>
      </trkpt>
      <trkpt lat="49.04789" lon="-0.13678">
        <ele>65.1</ele>
        <time>2023-10-11T13:53:11Z</time>
      </trkpt>
      <trkpt lat="49.04786" lon="-0.13685">
        <ele>65.2</ele>
        <time>2023-10-11T13:53:12Z</time>
      </trkpt>
      <trkpt lat="49.04783" lon="-0.13692">
        <ele>65.3</ele>
        <time>2023-10-11T13:53:13Z</time>
      </trkpt>
      <trkpt lat="49.0478" lon="-0.13699">
        <ele>65.4</ele>
        <time>2023-10-11T13:53:14Z</time>
      </trkpt>
      <trkpt lat="49.04776" lon="-0.13706">
        <ele>65.4</ele>
        <time>2023-10-11T13:53:15Z</time>
      </trkpt>
      <trkpt lat="49.04773" lon="-0.13713">
        <ele>65.5</ele>
        <time>2023-10-11T13:53:16Z</time>
      </trkpt>
      <trkpt lat="49.0477" lon="-0.1372">
        <ele>65.6</ele>
        <time>2023-10-11T13:53:17Z</time>
      </trkpt>
      <trkpt lat="49.04766" lon="-0.13728">
        <ele>65.6</ele>
        <time>2023-10-11T13:53:18Z</time>
      </trkpt>
      <trkpt lat="49.04763" lon="-0.13736">
        <ele>65.7</ele>
        <time>2023-10-11T13:53:19Z</time>
      </trkpt>
      <trkpt lat="49.04759" lon="-0.13743">
        <ele>65.8</ele>
        <time>2023-10-11T13:53:20Z</time>
      </trkpt>
      <trkpt lat="49.04756" lon="-0.13751">
        <ele>65.8</ele>
        <time>2023-10-11T13:53:21Z</time>
      </trkpt>
      <trkpt lat="49.04753" lon="-0.13759">
        <ele>65.9</ele>
        <time>2023-10-11T13:53:22Z</time>
      </trkpt>
      <trkpt lat="49.04749" lon="-0.13767">
        <ele>65.9</ele>
        <time>2023-10-11T13:53:23Z</time>
      </trkpt>
      <trkpt lat="49.04746" lon="-0.13775">
        <ele>66</ele>
        <time>2023-10-11T13:53:24Z</time>
      </trkpt>
      <trkpt lat="49.04742" lon="-0.13782">
        <ele>66</ele>
        <time>2023-10-11T13:53:25Z</time>
      </trkpt>
      <trkpt lat="49.04739" lon="-0.13789">
        <ele>66</ele>
        <time>2023-10-11T13:53:26Z</time>
      </trkpt>
      <trkpt lat="49.04736" lon="-0.13797">
        <ele>66.1</ele>
        <time>2023-10-11T13:53:27Z</time>
      </trkpt>
      <trkpt lat="49.04732" lon="-0.13805">
        <ele>66.1</ele>
        <time>2023-10-11T13:53:28Z</time>
      </trkpt>
      <trkpt lat="49.04729" lon="-0.13813">
        <ele>66.2</ele>
        <time>2023-10-11T13:53:29Z</time>
      </trkpt>
      <trkpt lat="49.04726" lon="-0.1382">
        <ele>66.2</ele>
        <time>2023-10-11T13:53:30Z</time>
      </trkpt>
      <trkpt lat="49.04723" lon="-0.13828">
        <ele>66.3</ele>
        <time>2023-10-11T13:53:31Z</time>
      </trkpt>
      <trkpt lat="49.0472" lon="-0.13835">
        <ele>66.3</ele>
        <time>2023-10-11T13:53:32Z</time>
      </trkpt>
      <trkpt lat="49.04717" lon="-0.13843">
        <ele>66.4</ele>
        <time>2023-10-11T13:53:33Z</time>
      </trkpt>
      <trkpt lat="49.04714" lon="-0.1385">
        <ele>66.4</ele>
        <time>2023-10-11T13:53:34Z</time>
      </trkpt>
      <trkpt lat="49.04711" lon="-0.13858">
        <ele>66.4</ele>
        <time>2023-10-11T13:53:35Z</time>
      </trkpt>
      <trkpt lat="49.04708" lon="-0.13866">
        <ele>66.4</ele>
        <time>2023-10-11T13:53:36Z</time>
      </trkpt>
      <trkpt lat="49.04705" lon="-0.13874">
        <ele>66.5</ele>
        <time>2023-10-11T13:53:37Z</time>
      </trkpt>
      <trkpt lat="49.04701" lon="-0.13882">
        <ele>66.5</ele>
        <time>2023-10-11T13:53:38Z</time>
      </trkpt>
      <trkpt lat="49.04698" lon="-0.13891">
        <ele>66.5</ele>
        <time>2023-10-11T13:53:39Z</time>
      </trkpt>
      <trkpt lat="49.04695" lon="-0.13899">
        <ele>66.6</ele>
        <time>2023-10-11T13:53:40Z</time>
      </trkpt>
      <trkpt lat="49.04692" lon="-0.13908">
        <ele>66.6</ele>
        <time>2023-10-11T13:53:41Z</time>
      </trkpt>
      <trkpt lat="49.04689" lon="-0.13917">
        <ele>66.6</ele>
        <time>2023-10-11T13:53:42Z</time>
      </trkpt>
      <trkpt lat="49.04685" lon="-0.13925">
        <ele>66.6</ele>
        <time>2023-10-11T13:53:43Z</time>
      </trkpt>
      <trkpt lat="49.04682" lon="-0.13934">
        <ele>66.7</ele>
        <time>2023-10-11T13:53:44Z</time>
      </trkpt>
      <trkpt lat="49.04678" lon="-0.13943">
        <ele>66.7</ele>
        <time>2023-10-11T13:53:45Z</time>
      </trkpt>
      <trkpt lat="49.04675" lon="-0.13953">
        <ele>66.7</ele>
        <time>2023-10-11T13:53:46Z</time>
      </trkpt>
      <trkpt lat="49.04672" lon="-0.13962">
        <ele>66.8</ele>
        <time>2023-10-11T13:53:47Z</time>
      </trkpt>
      <trkpt lat="49.04669" lon="-0.13971">
        <ele>66.8</ele>
        <time>2023-10-11T13:53:48Z</time>
      </trkpt>
      <trkpt lat="49.04665" lon="-0.1398">
        <ele>66.9</ele>
        <time>2023-10-11T13:53:49Z</time>
      </trkpt>
      <trkpt lat="49.04662" lon="-0.13988">
        <ele>66.9</ele>
        <time>2023-10-11T13:53:50Z</time>
      </trkpt>
      <trkpt lat="49.04659" lon="-0.13997">
        <ele>66.9</ele>
        <time>2023-10-11T13:53:51Z</time>
      </trkpt>
      <trkpt lat="49.04655" lon="-0.14006">
        <ele>67</ele>
        <time>2023-10-11T13:53:52Z</time>
      </trkpt>
      <trkpt lat="49.04652" lon="-0.14015">
        <ele>67</ele>
        <time>2023-10-11T13:53:53Z</time>
      </trkpt>
      <trkpt lat="49.04649" lon="-0.14024">
        <ele>67.1</ele>
        <time>2023-10-11T13:53:54Z</time>
      </trkpt>
      <trkpt lat="49.04645" lon="-0.14033">
        <ele>67.1</ele>
        <time>2023-10-11T13:53:55Z</time>
      </trkpt>
      <trkpt lat="49.04642" lon="-0.14042">
        <ele>67.1</ele>
        <time>2023-10-11T13:53:56Z</time>
      </trkpt>
      <trkpt lat="49.04638" lon="-0.1405">
        <ele>67.2</ele>
        <time>2023-10-11T13:53:57Z</time>
      </trkpt>
      <trkpt lat="49.04635" lon="-0.14059">
        <ele>67.2</ele>
        <time>2023-10-11T13:53:58Z</time>
      </trkpt>
      <trkpt lat="49.04631" lon="-0.14067">
        <ele>67.3</ele>
        <time>2023-10-11T13:53:59Z</time>
      </trkpt>
      <trkpt lat="49.04628" lon="-0.14076">
        <ele>67.4</ele>
        <time>2023-10-11T13:54:00Z</time>
      </trkpt>
      <trkpt lat="49.04624" lon="-0.14085">
        <ele>67.4</ele>
        <time>2023-10-11T13:54:01Z</time>
      </trkpt>
      <trkpt lat="49.04621" lon="-0.14093">
        <ele>67.5</ele>
        <time>2023-10-11T13:54:02Z</time>
      </trkpt>
      <trkpt lat="49.04617" lon="-0.14102">
        <ele>67.5</ele>
        <time>2023-10-11T13:54:03Z</time>
      </trkpt>
      <trkpt lat="49.04613" lon="-0.1411">
        <ele>67.6</ele>
        <time>2023-10-11T13:54:04Z</time>
      </trkpt>
      <trkpt lat="49.04609" lon="-0.14119">
        <ele>67.7</ele>
        <time>2023-10-11T13:54:05Z</time>
      </trkpt>
      <trkpt lat="49.04606" lon="-0.14127">
        <ele>67.7</ele>
        <time>2023-10-11T13:54:06Z</time>
      </trkpt>
      <trkpt lat="49.04602" lon="-0.14136">
        <ele>67.8</ele>
        <time>2023-10-11T13:54:07Z</time>
      </trkpt>
      <trkpt lat="49.04598" lon="-0.14144">
        <ele>67.9</ele>
        <time>2023-10-11T13:54:08Z</time>
      </trkpt>
      <trkpt lat="49.04595" lon="-0.14153">
        <ele>68</ele>
        <time>2023-10-11T13:54:09Z</time>
      </trkpt>
      <trkpt lat="49.04591" lon="-0.14162">
        <ele>68</ele>
        <time>2023-10-11T13:54:10Z</time>
      </trkpt>
      <trkpt lat="49.04588" lon="-0.1417">
        <ele>68.1</ele>
        <time>2023-10-11T13:54:11Z</time>
      </trkpt>
      <trkpt lat="49.04586" lon="-0.1418">
        <ele>68.2</ele>
        <time>2023-10-11T13:54:12Z</time>
      </trkpt>
      <trkpt lat="49.04584" lon="-0.14189">
        <ele>68.2</ele>
        <time>2023-10-11T13:54:13Z</time>
      </trkpt>
      <trkpt lat="49.04582" lon="-0.14199">
        <ele>68.3</ele>
        <time>2023-10-11T13:54:14Z</time>
      </trkpt>
      <trkpt lat="49.04581" lon="-0.14209">
        <ele>68.3</ele>
        <time>2023-10-11T13:54:15Z</time>
      </trkpt>
      <trkpt lat="49.0458" lon="-0.14219">
        <ele>68.4</ele>
        <time>2023-10-11T13:54:16Z</time>
      </trkpt>
      <trkpt lat="49.04579" lon="-0.14229">
        <ele>68.5</ele>
        <time>2023-10-11T13:54:17Z</time>
      </trkpt>
      <trkpt lat="49.04579" lon="-0.1424">
        <ele>68.5</ele>
        <time>2023-10-11T13:54:18Z</time>
      </trkpt>
      <trkpt lat="49.0458" lon="-0.1425">
        <ele>68.6</ele>
        <time>2023-10-11T13:54:19Z</time>
      </trkpt>
      <trkpt lat="49.04581" lon="-0.14261">
        <ele>68.7</ele>
        <time>2023-10-11T13:54:20Z</time>
      </trkpt>
      <trkpt lat="49.04582" lon="-0.14271">
        <ele>68.8</ele>
        <time>2023-10-11T13:54:21Z</time>
      </trkpt>
      <trkpt lat="49.04583" lon="-0.14282">
        <ele>68.9</ele>
        <time>2023-10-11T13:54:22Z</time>
      </trkpt>
      <trkpt lat="49.04584" lon="-0.14292">
        <ele>68.9</ele>
        <time>2023-10-11T13:54:23Z</time>
      </trkpt>
      <trkpt lat="49.04585" lon="-0.14302">
        <ele>69</ele>
        <time>2023-10-11T13:54:24Z</time>
      </trkpt>
      <trkpt lat="49.04586" lon="-0.14313">
        <ele>69.1</ele>
        <time>2023-10-11T13:54:25Z</time>
      </trkpt>
      <trkpt lat="49.04586" lon="-0.14324">
        <ele>69.1</ele>
        <time>2023-10-11T13:54:26Z</time>
      </trkpt>
      <trkpt lat="49.04587" lon="-0.14335">
        <ele>69.2</ele>
        <time>2023-10-11T13:54:27Z</time>
      </trkpt>
      <trkpt lat="49.04587" lon="-0.14346">
        <ele>69.2</ele>
        <time>2023-10-11T13:54:28Z</time>
      </trkpt>
      <trkpt lat="49.04588" lon="-0.14357">
        <ele>69.3</ele>
        <time>2023-10-11T13:54:29Z</time>
      </trkpt>
      <trkpt lat="49.04588" lon="-0.14368">
        <ele>69.4</ele>
        <time>2023-10-11T13:54:30Z</time>
      </trkpt>
      <trkpt lat="49.04588" lon="-0.14379">
        <ele>69.4</ele>
        <time>2023-10-11T13:54:31Z</time>
      </trkpt>
      <trkpt lat="49.04588" lon="-0.1439">
        <ele>69.5</ele>
        <time>2023-10-11T13:54:32Z</time>
      </trkpt>
      <trkpt lat="49.04588" lon="-0.14401">
        <ele>69.6</ele>
        <time>2023-10-11T13:54:33Z</time>
      </trkpt>
      <trkpt lat="49.04587" lon="-0.14413">
        <ele>69.7</ele>
        <time>2023-10-11T13:54:34Z</time>
      </trkpt>
      <trkpt lat="49.04587" lon="-0.14424">
        <ele>69.8</ele>
        <time>2023-10-11T13:54:35Z</time>
      </trkpt>
      <trkpt lat="49.04586" lon="-0.14435">
        <ele>69.9</ele>
        <time>2023-10-11T13:54:36Z</time>
      </trkpt>
      <trkpt lat="49.04585" lon="-0.14446">
        <ele>70</ele>
        <time>2023-10-11T13:54:37Z</time>
      </trkpt>
      <trkpt lat="49.04583" lon="-0.14457">
        <ele>70</ele>
        <time>2023-10-11T13:54:38Z</time>
      </trkpt>
      <trkpt lat="49.04581" lon="-0.14468">
        <ele>70.1</ele>
        <time>2023-10-11T13:54:39Z</time>
      </trkpt>
      <trkpt lat="49.0458" lon="-0.14478">
        <ele>70.2</ele>
        <time>2023-10-11T13:54:40Z</time>
      </trkpt>
      <trkpt lat="49.04578" lon="-0.14489">
        <ele>70.2</ele>
        <time>2023-10-11T13:54:41Z</time>
      </trkpt>
      <trkpt lat="49.04576" lon="-0.145">
        <ele>70.3</ele>
        <time>2023-10-11T13:54:42Z</time>
      </trkpt>
      <trkpt lat="49.04574" lon="-0.14511">
        <ele>70.4</ele>
        <time>2023-10-11T13:54:43Z</time>
      </trkpt>
      <trkpt lat="49.04573" lon="-0.14523">
        <ele>70.5</ele>
        <time>2023-10-11T13:54:44Z</time>
      </trkpt>
      <trkpt lat="49.04572" lon="-0.14534">
        <ele>70.6</ele>
        <time>2023-10-11T13:54:45Z</time>
      </trkpt>
      <trkpt lat="49.04571" lon="-0.14545">
        <ele>70.7</ele>
        <time>2023-10-11T13:54:46Z</time>
      </trkpt>
      <trkpt lat="49.04571" lon="-0.14556">
        <ele>70.8</ele>
        <time>2023-10-11T13:54:47Z</time>
      </trkpt>
      <trkpt lat="49.04571" lon="-0.14567">
        <ele>70.8</ele>
        <time>2023-10-11T13:54:48Z</time>
      </trkpt>
      <trkpt lat="49.04571" lon="-0.14578">
        <ele>70.9</ele>
        <time>2023-10-11T13:54:49Z</time>
      </trkpt>
      <trkpt lat="49.04572" lon="-0.1459">
        <ele>70.9</ele>
        <time>2023-10-11T13:54:50Z</time>
      </trkpt>
      <trkpt lat="49.04572" lon="-0.14601">
        <ele>71</ele>
        <time>2023-10-11T13:54:51Z</time>
      </trkpt>
      <trkpt lat="49.04572" lon="-0.14612">
        <ele>71</ele>
        <time>2023-10-11T13:54:52Z</time>
      </trkpt>
      <trkpt lat="49.04573" lon="-0.14624">
        <ele>71.1</ele>
        <time>2023-10-11T13:54:53Z</time>
      </trkpt>
      <trkpt lat="49.04573" lon="-0.14635">
        <ele>71.1</ele>
        <time>2023-10-11T13:54:54Z</time>
      </trkpt>
      <trkpt lat="49.04574" lon="-0.14646">
        <ele>71.2</ele>
        <time>2023-10-11T13:54:55Z</time>
      </trkpt>
      <trkpt lat="49.04574" lon="-0.14657">
        <ele>71.2</ele>
        <time>2023-10-11T13:54:56Z</time>
      </trkpt>
      <trkpt lat="49.04575" lon="-0.14669">
        <ele>71.2</ele>
        <time>2023-10-11T13:54:57Z</time>
      </trkpt>
      <trkpt lat="49.04575" lon="-0.1468">
        <ele>71.3</ele>
        <time>2023-10-11T13:54:58Z</time>
      </trkpt>
      <trkpt lat="49.04575" lon="-0.14691">
        <ele>71.4</ele>
        <time>2023-10-11T13:54:59Z</time>
      </trkpt>
      <trkpt lat="49.04576" lon="-0.14703">
        <ele>71.4</ele>
        <time>2023-10-11T13:55:00Z</time>
      </trkpt>
      <trkpt lat="49.04576" lon="-0.14714">
        <ele>71.5</ele>
        <time>2023-10-11T13:55:01Z</time>
      </trkpt>
      <trkpt lat="49.04577" lon="-0.14725">
        <ele>71.5</ele>
        <time>2023-10-11T13:55:02Z</time>
      </trkpt>
      <trkpt lat="49.04577" lon="-0.14737">
        <ele>71.6</ele>
        <time>2023-10-11T13:55:03Z</time>
      </trkpt>
      <trkpt lat="49.04577" lon="-0.14748">
        <ele>71.6</ele>
        <time>2023-10-11T13:55:04Z</time>
      </trkpt>
      <trkpt lat="49.04578" lon="-0.1476">
        <ele>71.7</ele>
        <time>2023-10-11T13:55:05Z</time>
      </trkpt>
      <trkpt lat="49.04578" lon="-0.14771">
        <ele>71.8</ele>
        <time>2023-10-11T13:55:06Z</time>
      </trkpt>
      <trkpt lat="49.04578" lon="-0.14783">
        <ele>71.8</ele>
        <time>2023-10-11T13:55:07Z</time>
      </trkpt>
      <trkpt lat="49.04578" lon="-0.14794">
        <ele>71.9</ele>
        <time>2023-10-11T13:55:08Z</time>
      </trkpt>
      <trkpt lat="49.04579" lon="-0.14805">
        <ele>71.9</ele>
        <time>2023-10-11T13:55:09Z</time>
      </trkpt>
      <trkpt lat="49.04579" lon="-0.14817">
        <ele>72</ele>
        <time>2023-10-11T13:55:10Z</time>
      </trkpt>
      <trkpt lat="49.04579" lon="-0.14829">
        <ele>72.1</ele>
        <time>2023-10-11T13:55:11Z</time>
      </trkpt>
      <trkpt lat="49.0458" lon="-0.14841">
        <ele>72.2</ele>
        <time>2023-10-11T13:55:12Z</time>
      </trkpt>
      <trkpt lat="49.0458" lon="-0.14853">
        <ele>72.3</ele>
        <time>2023-10-11T13:55:13Z</time>
      </trkpt>
      <trkpt lat="49.0458" lon="-0.14865">
        <ele>72.4</ele>
        <time>2023-10-11T13:55:14Z</time>
      </trkpt>
      <trkpt lat="49.04581" lon="-0.14876">
        <ele>72.5</ele>
        <time>2023-10-11T13:55:15Z</time>
      </trkpt>
      <trkpt lat="49.04581" lon="-0.14888">
        <ele>72.6</ele>
        <time>2023-10-11T13:55:16Z</time>
      </trkpt>
      <trkpt lat="49.04581" lon="-0.14899">
        <ele>72.7</ele>
        <time>2023-10-11T13:55:17Z</time>
      </trkpt>
      <trkpt lat="49.04581" lon="-0.14911">
        <ele>72.7</ele>
        <time>2023-10-11T13:55:18Z</time>
      </trkpt>
      <trkpt lat="49.04582" lon="-0.14922">
        <ele>72.8</ele>
        <time>2023-10-11T13:55:19Z</time>
      </trkpt>
      <trkpt lat="49.04582" lon="-0.14934">
        <ele>72.9</ele>
        <time>2023-10-11T13:55:20Z</time>
      </trkpt>
      <trkpt lat="49.04582" lon="-0.14945">
        <ele>73</ele>
        <time>2023-10-11T13:55:21Z</time>
      </trkpt>
      <trkpt lat="49.04583" lon="-0.14956">
        <ele>73.1</ele>
        <time>2023-10-11T13:55:22Z</time>
      </trkpt>
      <trkpt lat="49.04584" lon="-0.14968">
        <ele>73.2</ele>
        <time>2023-10-11T13:55:23Z</time>
      </trkpt>
      <trkpt lat="49.04584" lon="-0.14979">
        <ele>73.3</ele>
        <time>2023-10-11T13:55:24Z</time>
      </trkpt>
      <trkpt lat="49.04585" lon="-0.14991">
        <ele>73.4</ele>
        <time>2023-10-11T13:55:25Z</time>
      </trkpt>
      <trkpt lat="49.04585" lon="-0.15002">
        <ele>73.4</ele>
        <time>2023-10-11T13:55:26Z</time>
      </trkpt>
      <trkpt lat="49.04585" lon="-0.15014">
        <ele>73.5</ele>
        <time>2023-10-11T13:55:27Z</time>
      </trkpt>
      <trkpt lat="49.04586" lon="-0.15025">
        <ele>73.5</ele>
        <time>2023-10-11T13:55:28Z</time>
      </trkpt>
      <trkpt lat="49.04586" lon="-0.15036">
        <ele>73.5</ele>
        <time>2023-10-11T13:55:29Z</time>
      </trkpt>
      <trkpt lat="49.04587" lon="-0.15047">
        <ele>73.5</ele>
        <time>2023-10-11T13:55:30Z</time>
      </trkpt>
      <trkpt lat="49.04588" lon="-0.15058">
        <ele>73.5</ele>
        <time>2023-10-11T13:55:31Z</time>
      </trkpt>
      <trkpt lat="49.04588" lon="-0.15069">
        <ele>73.6</ele>
        <time>2023-10-11T13:55:32Z</time>
      </trkpt>
      <trkpt lat="49.04588" lon="-0.1508">
        <ele>73.6</ele>
        <time>2023-10-11T13:55:33Z</time>
      </trkpt>
      <trkpt lat="49.04589" lon="-0.15092">
        <ele>73.6</ele>
        <time>2023-10-11T13:55:34Z</time>
      </trkpt>
      <trkpt lat="49.04589" lon="-0.15103">
        <ele>73.6</ele>
        <time>2023-10-11T13:55:35Z</time>
      </trkpt>
      <trkpt lat="49.0459" lon="-0.15115">
        <ele>73.6</ele>
        <time>2023-10-11T13:55:36Z</time>
      </trkpt>
      <trkpt lat="49.0459" lon="-0.15127">
        <ele>73.6</ele>
        <time>2023-10-11T13:55:37Z</time>
      </trkpt>
      <trkpt lat="49.04591" lon="-0.15138">
        <ele>73.6</ele>
        <time>2023-10-11T13:55:38Z</time>
      </trkpt>
      <trkpt lat="49.04592" lon="-0.1515">
        <ele>73.6</ele>
        <time>2023-10-11T13:55:39Z</time>
      </trkpt>
      <trkpt lat="49.04592" lon="-0.15162">
        <ele>73.5</ele>
        <time>2023-10-11T13:55:40Z</time>
      </trkpt>
      <trkpt lat="49.04593" lon="-0.15174">
        <ele>73.5</ele>
        <time>2023-10-11T13:55:41Z</time>
      </trkpt>
      <trkpt lat="49.04594" lon="-0.15186">
        <ele>73.4</ele>
        <time>2023-10-11T13:55:42Z</time>
      </trkpt>
      <trkpt lat="49.04594" lon="-0.15198">
        <ele>73.3</ele>
        <time>2023-10-11T13:55:43Z</time>
      </trkpt>
      <trkpt lat="49.04595" lon="-0.1521">
        <ele>73.2</ele>
        <time>2023-10-11T13:55:44Z</time>
      </trkpt>
      <trkpt lat="49.04596" lon="-0.15222">
        <ele>73.1</ele>
        <time>2023-10-11T13:55:45Z</time>
      </trkpt>
      <trkpt lat="49.04598" lon="-0.15234">
        <ele>73</ele>
        <time>2023-10-11T13:55:46Z</time>
      </trkpt>
      <trkpt lat="49.04599" lon="-0.15247">
        <ele>72.8</ele>
        <time>2023-10-11T13:55:47Z</time>
      </trkpt>
      <trkpt lat="49.04601" lon="-0.15259">
        <ele>72.8</ele>
        <time>2023-10-11T13:55:48Z</time>
      </trkpt>
      <trkpt lat="49.04603" lon="-0.15272">
        <ele>72.7</ele>
        <time>2023-10-11T13:55:49Z</time>
      </trkpt>
      <trkpt lat="49.04605" lon="-0.15284">
        <ele>72.6</ele>
        <time>2023-10-11T13:55:50Z</time>
      </trkpt>
      <trkpt lat="49.04606" lon="-0.15296">
        <ele>72.5</ele>
        <time>2023-10-11T13:55:51Z</time>
      </trkpt>
      <trkpt lat="49.04608" lon="-0.15308">
        <ele>72.4</ele>
        <time>2023-10-11T13:55:52Z</time>
      </trkpt>
      <trkpt lat="49.0461" lon="-0.1532">
        <ele>72.3</ele>
        <time>2023-10-11T13:55:53Z</time>
      </trkpt>
      <trkpt lat="49.04613" lon="-0.15332">
        <ele>72.2</ele>
        <time>2023-10-11T13:55:54Z</time>
      </trkpt>
      <trkpt lat="49.04614" lon="-0.15344">
        <ele>72.1</ele>
        <time>2023-10-11T13:55:55Z</time>
      </trkpt>
      <trkpt lat="49.04616" lon="-0.15356">
        <ele>72.1</ele>
        <time>2023-10-11T13:55:56Z</time>
      </trkpt>
      <trkpt lat="49.04617" lon="-0.15368">
        <ele>72</ele>
        <time>2023-10-11T13:55:57Z</time>
      </trkpt>
      <trkpt lat="49.04619" lon="-0.1538">
        <ele>72</ele>
        <time>2023-10-11T13:55:58Z</time>
      </trkpt>
      <trkpt lat="49.04621" lon="-0.15392">
        <ele>72</ele>
        <time>2023-10-11T13:55:59Z</time>
      </trkpt>
      <trkpt lat="49.04623" lon="-0.15405">
        <ele>72</ele>
        <time>2023-10-11T13:56:00Z</time>
      </trkpt>
      <trkpt lat="49.04624" lon="-0.15417">
        <ele>71.9</ele>
        <time>2023-10-11T13:56:01Z</time>
      </trkpt>
      <trkpt lat="49.04626" lon="-0.15429">
        <ele>71.9</ele>
        <time>2023-10-11T13:56:02Z</time>
      </trkpt>
      <trkpt lat="49.04628" lon="-0.15442">
        <ele>71.9</ele>
        <time>2023-10-11T13:56:03Z</time>
      </trkpt>
      <trkpt lat="49.0463" lon="-0.15454">
        <ele>71.9</ele>
        <time>2023-10-11T13:56:04Z</time>
      </trkpt>
      <trkpt lat="49.04631" lon="-0.15467">
        <ele>71.9</ele>
        <time>2023-10-11T13:56:05Z</time>
      </trkpt>
      <trkpt lat="49.04633" lon="-0.15479">
        <ele>71.9</ele>
        <time>2023-10-11T13:56:06Z</time>
      </trkpt>
      <trkpt lat="49.04635" lon="-0.15492">
        <ele>71.9</ele>
        <time>2023-10-11T13:56:07Z</time>
      </trkpt>
      <trkpt lat="49.04637" lon="-0.15504">
        <ele>71.9</ele>
        <time>2023-10-11T13:56:08Z</time>
      </trkpt>
      <trkpt lat="49.04638" lon="-0.15516">
        <ele>71.9</ele>
        <time>2023-10-11T13:56:09Z</time>
      </trkpt>
      <trkpt lat="49.0464" lon="-0.15529">
        <ele>71.9</ele>
        <time>2023-10-11T13:56:10Z</time>
      </trkpt>
      <trkpt lat="49.04642" lon="-0.15541">
        <ele>71.8</ele>
        <time>2023-10-11T13:56:11Z</time>
      </trkpt>
      <trkpt lat="49.04644" lon="-0.15554">
        <ele>71.8</ele>
        <time>2023-10-11T13:56:12Z</time>
      </trkpt>
      <trkpt lat="49.04645" lon="-0.15567">
        <ele>71.8</ele>
        <time>2023-10-11T13:56:13Z</time>
      </trkpt>
      <trkpt lat="49.04647" lon="-0.15579">
        <ele>71.8</ele>
        <time>2023-10-11T13:56:14Z</time>
      </trkpt>
      <trkpt lat="49.04649" lon="-0.15591">
        <ele>71.8</ele>
        <time>2023-10-11T13:56:15Z</time>
      </trkpt>
      <trkpt lat="49.04651" lon="-0.15603">
        <ele>71.8</ele>
        <time>2023-10-11T13:56:16Z</time>
      </trkpt>
      <trkpt lat="49.04653" lon="-0.15615">
        <ele>71.9</ele>
        <time>2023-10-11T13:56:17Z</time>
      </trkpt>
      <trkpt lat="49.04654" lon="-0.15628">
        <ele>71.9</ele>
        <time>2023-10-11T13:56:18Z</time>
      </trkpt>
      <trkpt lat="49.04656" lon="-0.1564">
        <ele>71.9</ele>
        <time>2023-10-11T13:56:19Z</time>
      </trkpt>
      <trkpt lat="49.04658" lon="-0.15652">
        <ele>71.9</ele>
        <time>2023-10-11T13:56:20Z</time>
      </trkpt>
      <trkpt lat="49.0466" lon="-0.15664">
        <ele>72</ele>
        <time>2023-10-11T13:56:21Z</time>
      </trkpt>
      <trkpt lat="49.04662" lon="-0.15676">
        <ele>72</ele>
        <time>2023-10-11T13:56:22Z</time>
      </trkpt>
      <trkpt lat="49.04663" lon="-0.15688">
        <ele>72</ele>
        <time>2023-10-11T13:56:23Z</time>
      </trkpt>
      <trkpt lat="49.04665" lon="-0.157">
        <ele>71.9</ele>
        <time>2023-10-11T13:56:24Z</time>
      </trkpt>
      <trkpt lat="49.04666" lon="-0.15712">
        <ele>71.9</ele>
        <time>2023-10-11T13:56:25Z</time>
      </trkpt>
      <trkpt lat="49.04668" lon="-0.15725">
        <ele>71.9</ele>
        <time>2023-10-11T13:56:26Z</time>
      </trkpt>
      <trkpt lat="49.0467" lon="-0.15737">
        <ele>71.9</ele>
        <time>2023-10-11T13:56:27Z</time>
      </trkpt>
      <trkpt lat="49.04672" lon="-0.1575">
        <ele>71.9</ele>
        <time>2023-10-11T13:56:28Z</time>
      </trkpt>
      <trkpt lat="49.04674" lon="-0.15763">
        <ele>71.9</ele>
        <time>2023-10-11T13:56:29Z</time>
      </trkpt>
      <trkpt lat="49.04676" lon="-0.15776">
        <ele>72</ele>
        <time>2023-10-11T13:56:30Z</time>
      </trkpt>
      <trkpt lat="49.04678" lon="-0.1579">
        <ele>72</ele>
        <time>2023-10-11T13:56:31Z</time>
      </trkpt>
      <trkpt lat="49.04679" lon="-0.15803">
        <ele>72</ele>
        <time>2023-10-11T13:56:32Z</time>
      </trkpt>
      <trkpt lat="49.04681" lon="-0.15816">
        <ele>72.1</ele>
        <time>2023-10-11T13:56:33Z</time>
      </trkpt>
      <trkpt lat="49.04683" lon="-0.15829">
        <ele>72.1</ele>
        <time>2023-10-11T13:56:34Z</time>
      </trkpt>
      <trkpt lat="49.04684" lon="-0.15841">
        <ele>72.1</ele>
        <time>2023-10-11T13:56:35Z</time>
      </trkpt>
      <trkpt lat="49.04686" lon="-0.15854">
        <ele>72.2</ele>
        <time>2023-10-11T13:56:36Z</time>
      </trkpt>
      <trkpt lat="49.04688" lon="-0.15866">
        <ele>72.2</ele>
        <time>2023-10-11T13:56:37Z</time>
      </trkpt>
      <trkpt lat="49.0469" lon="-0.15879">
        <ele>72.2</ele>
        <time>2023-10-11T13:56:38Z</time>
      </trkpt>
      <trkpt lat="49.04692" lon="-0.15891">
        <ele>72.3</ele>
        <time>2023-10-11T13:56:39Z</time>
      </trkpt>
      <trkpt lat="49.04694" lon="-0.15903">
        <ele>72.3</ele>
        <time>2023-10-11T13:56:40Z</time>
      </trkpt>
      <trkpt lat="49.04695" lon="-0.15916">
        <ele>72.3</ele>
        <time>2023-10-11T13:56:41Z</time>
      </trkpt>
      <trkpt lat="49.04697" lon="-0.15928">
        <ele>72.4</ele>
        <time>2023-10-11T13:56:42Z</time>
      </trkpt>
      <trkpt lat="49.04699" lon="-0.1594">
        <ele>72.5</ele>
        <time>2023-10-11T13:56:43Z</time>
      </trkpt>
      <trkpt lat="49.04701" lon="-0.15953">
        <ele>72.6</ele>
        <time>2023-10-11T13:56:44Z</time>
      </trkpt>
      <trkpt lat="49.04703" lon="-0.15965">
        <ele>72.7</ele>
        <time>2023-10-11T13:56:45Z</time>
      </trkpt>
      <trkpt lat="49.04705" lon="-0.15977">
        <ele>72.7</ele>
        <time>2023-10-11T13:56:46Z</time>
      </trkpt>
      <trkpt lat="49.04707" lon="-0.15989">
        <ele>72.8</ele>
        <time>2023-10-11T13:56:47Z</time>
      </trkpt>
      <trkpt lat="49.04709" lon="-0.16001">
        <ele>72.9</ele>
        <time>2023-10-11T13:56:48Z</time>
      </trkpt>
      <trkpt lat="49.04711" lon="-0.16013">
        <ele>73</ele>
        <time>2023-10-11T13:56:49Z</time>
      </trkpt>
      <trkpt lat="49.04713" lon="-0.16025">
        <ele>73.1</ele>
        <time>2023-10-11T13:56:50Z</time>
      </trkpt>
      <trkpt lat="49.04715" lon="-0.16037">
        <ele>73.1</ele>
        <time>2023-10-11T13:56:51Z</time>
      </trkpt>
      <trkpt lat="49.04718" lon="-0.16049">
        <ele>73.2</ele>
        <time>2023-10-11T13:56:52Z</time>
      </trkpt>
      <trkpt lat="49.0472" lon="-0.16061">
        <ele>73.3</ele>
        <time>2023-10-11T13:56:53Z</time>
      </trkpt>
      <trkpt lat="49.04723" lon="-0.16073">
        <ele>73.4</ele>
        <time>2023-10-11T13:56:54Z</time>
      </trkpt>
      <trkpt lat="49.04726" lon="-0.16084">
        <ele>73.5</ele>
        <time>2023-10-11T13:56:55Z</time>
      </trkpt>
      <trkpt lat="49.04729" lon="-0.16096">
        <ele>73.6</ele>
        <time>2023-10-11T13:56:56Z</time>
      </trkpt>
      <trkpt lat="49.04732" lon="-0.16108">
        <ele>73.7</ele>
        <time>2023-10-11T13:56:57Z</time>
      </trkpt>
      <trkpt lat="49.04735" lon="-0.16119">
        <ele>73.7</ele>
        <time>2023-10-11T13:56:58Z</time>
      </trkpt>
      <trkpt lat="49.04738" lon="-0.16131">
        <ele>73.8</ele>
        <time>2023-10-11T13:56:59Z</time>
      </trkpt>
      <trkpt lat="49.04742" lon="-0.16142">
        <ele>73.9</ele>
        <time>2023-10-11T13:57:00Z</time>
      </trkpt>
      <trkpt lat="49.04745" lon="-0.16154">
        <ele>73.9</ele>
        <time>2023-10-11T13:57:01Z</time>
      </trkpt>
      <trkpt lat="49.04749" lon="-0.16166">
        <ele>73.9</ele>
        <time>2023-10-11T13:57:02Z</time>
      </trkpt>
      <trkpt lat="49.04752" lon="-0.16178">
        <ele>73.9</ele>
        <time>2023-10-11T13:57:03Z</time>
      </trkpt>
      <trkpt lat="49.04756" lon="-0.1619">
        <ele>73.9</ele>
        <time>2023-10-11T13:57:04Z</time>
      </trkpt>
      <trkpt lat="49.0476" lon="-0.16202">
        <ele>73.9</ele>
        <time>2023-10-11T13:57:05Z</time>
      </trkpt>
      <trkpt lat="49.04763" lon="-0.16213">
        <ele>73.9</ele>
        <time>2023-10-11T13:57:06Z</time>
      </trkpt>
      <trkpt lat="49.04767" lon="-0.16225">
        <ele>73.9</ele>
        <time>2023-10-11T13:57:07Z</time>
      </trkpt>
      <trkpt lat="49.04771" lon="-0.16236">
        <ele>73.9</ele>
        <time>2023-10-11T13:57:08Z</time>
      </trkpt>
      <trkpt lat="49.04775" lon="-0.16248">
        <ele>73.9</ele>
        <time>2023-10-11T13:57:09Z</time>
      </trkpt>
      <trkpt lat="49.04778" lon="-0.16259">
        <ele>73.9</ele>
        <time>2023-10-11T13:57:10Z</time>
      </trkpt>
      <trkpt lat="49.04782" lon="-0.16269">
        <ele>74</ele>
        <time>2023-10-11T13:57:11Z</time>
      </trkpt>
      <trkpt lat="49.04785" lon="-0.16281">
        <ele>74</ele>
        <time>2023-10-11T13:57:12Z</time>
      </trkpt>
      <trkpt lat="49.04789" lon="-0.16292">
        <ele>74</ele>
        <time>2023-10-11T13:57:13Z</time>
      </trkpt>
      <trkpt lat="49.04793" lon="-0.16302">
        <ele>74</ele>
        <time>2023-10-11T13:57:14Z</time>
      </trkpt>
      <trkpt lat="49.04796" lon="-0.16313">
        <ele>74.1</ele>
        <time>2023-10-11T13:57:15Z</time>
      </trkpt>
      <trkpt lat="49.048" lon="-0.16324">
        <ele>74.2</ele>
        <time>2023-10-11T13:57:16Z</time>
      </trkpt>
      <trkpt lat="49.04804" lon="-0.16334">
        <ele>74.2</ele>
        <time>2023-10-11T13:57:17Z</time>
      </trkpt>
      <trkpt lat="49.04807" lon="-0.16345">
        <ele>74.3</ele>
        <time>2023-10-11T13:57:18Z</time>
      </trkpt>
      <trkpt lat="49.04811" lon="-0.16355">
        <ele>74.4</ele>
        <time>2023-10-11T13:57:19Z</time>
      </trkpt>
      <trkpt lat="49.04815" lon="-0.16366">
        <ele>74.4</ele>
        <time>2023-10-11T13:57:20Z</time>
      </trkpt>
      <trkpt lat="49.04818" lon="-0.16376">
        <ele>74.5</ele>
        <time>2023-10-11T13:57:21Z</time>
      </trkpt>
      <trkpt lat="49.04822" lon="-0.16387">
        <ele>74.6</ele>
        <time>2023-10-11T13:57:22Z</time>
      </trkpt>
      <trkpt lat="49.04826" lon="-0.16397">
        <ele>74.6</ele>
        <time>2023-10-11T13:57:23Z</time>
      </trkpt>
      <trkpt lat="49.04829" lon="-0.16408">
        <ele>74.7</ele>
        <time>2023-10-11T13:57:24Z</time>
      </trkpt>
      <trkpt lat="49.04833" lon="-0.16418">
        <ele>74.8</ele>
        <time>2023-10-11T13:57:25Z</time>
      </trkpt>
      <trkpt lat="49.04837" lon="-0.16429">
        <ele>74.8</ele>
        <time>2023-10-11T13:57:26Z</time>
      </trkpt>
      <trkpt lat="49.04841" lon="-0.16439">
        <ele>74.9</ele>
        <time>2023-10-11T13:57:27Z</time>
      </trkpt>
      <trkpt lat="49.04844" lon="-0.1645">
        <ele>75</ele>
        <time>2023-10-11T13:57:28Z</time>
      </trkpt>
      <trkpt lat="49.04848" lon="-0.1646">
        <ele>75.1</ele>
        <time>2023-10-11T13:57:29Z</time>
      </trkpt>
      <trkpt lat="49.04852" lon="-0.16471">
        <ele>75.2</ele>
        <time>2023-10-11T13:57:30Z</time>
      </trkpt>
      <trkpt lat="49.04856" lon="-0.16482">
        <ele>75.3</ele>
        <time>2023-10-11T13:57:31Z</time>
      </trkpt>
      <trkpt lat="49.04859" lon="-0.16493">
        <ele>75.4</ele>
        <time>2023-10-11T13:57:32Z</time>
      </trkpt>
      <trkpt lat="49.04863" lon="-0.16503">
        <ele>75.4</ele>
        <time>2023-10-11T13:57:33Z</time>
      </trkpt>
      <trkpt lat="49.04867" lon="-0.16514">
        <ele>75.5</ele>
        <time>2023-10-11T13:57:34Z</time>
      </trkpt>
      <trkpt lat="49.04871" lon="-0.16524">
        <ele>75.6</ele>
        <time>2023-10-11T13:57:35Z</time>
      </trkpt>
      <trkpt lat="49.04875" lon="-0.16534">
        <ele>75.7</ele>
        <time>2023-10-11T13:57:36Z</time>
      </trkpt>
      <trkpt lat="49.04878" lon="-0.16544">
        <ele>75.8</ele>
        <time>2023-10-11T13:57:37Z</time>
      </trkpt>
      <trkpt lat="49.04882" lon="-0.16555">
        <ele>75.9</ele>
        <time>2023-10-11T13:57:38Z</time>
      </trkpt>
      <trkpt lat="49.04885" lon="-0.16564">
        <ele>76</ele>
        <time>2023-10-11T13:57:39Z</time>
      </trkpt>
      <trkpt lat="49.04889" lon="-0.16575">
        <ele>76.2</ele>
        <time>2023-10-11T13:57:40Z</time>
      </trkpt>
      <trkpt lat="49.04893" lon="-0.16585">
        <ele>76.3</ele>
        <time>2023-10-11T13:57:41Z</time>
      </trkpt>
      <trkpt lat="49.04897" lon="-0.16596">
        <ele>76.4</ele>
        <time>2023-10-11T13:57:42Z</time>
      </trkpt>
      <trkpt lat="49.049" lon="-0.16606">
        <ele>76.5</ele>
        <time>2023-10-11T13:57:43Z</time>
      </trkpt>
      <trkpt lat="49.04904" lon="-0.16617">
        <ele>76.5</ele>
        <time>2023-10-11T13:57:44Z</time>
      </trkpt>
      <trkpt lat="49.04908" lon="-0.16628">
        <ele>76.6</ele>
        <time>2023-10-11T13:57:45Z</time>
      </trkpt>
      <trkpt lat="49.04912" lon="-0.16638">
        <ele>76.8</ele>
        <time>2023-10-11T13:57:46Z</time>
      </trkpt>
      <trkpt lat="49.04915" lon="-0.16649">
        <ele>76.9</ele>
        <time>2023-10-11T13:57:47Z</time>
      </trkpt>
      <trkpt lat="49.04919" lon="-0.1666">
        <ele>76.9</ele>
        <time>2023-10-11T13:57:48Z</time>
      </trkpt>
      <trkpt lat="49.04923" lon="-0.16671">
        <ele>77</ele>
        <time>2023-10-11T13:57:49Z</time>
      </trkpt>
      <trkpt lat="49.04927" lon="-0.16681">
        <ele>77.1</ele>
        <time>2023-10-11T13:57:50Z</time>
      </trkpt>
      <trkpt lat="49.04931" lon="-0.16691">
        <ele>77.2</ele>
        <time>2023-10-11T13:57:51Z</time>
      </trkpt>
      <trkpt lat="49.04934" lon="-0.16702">
        <ele>77.4</ele>
        <time>2023-10-11T13:57:52Z</time>
      </trkpt>
      <trkpt lat="49.04937" lon="-0.16712">
        <ele>77.5</ele>
        <time>2023-10-11T13:57:53Z</time>
      </trkpt>
      <trkpt lat="49.04941" lon="-0.16722">
        <ele>77.7</ele>
        <time>2023-10-11T13:57:54Z</time>
      </trkpt>
      <trkpt lat="49.04944" lon="-0.16733">
        <ele>77.9</ele>
        <time>2023-10-11T13:57:55Z</time>
      </trkpt>
      <trkpt lat="49.04947" lon="-0.16744">
        <ele>78.1</ele>
        <time>2023-10-11T13:57:56Z</time>
      </trkpt>
      <trkpt lat="49.0495" lon="-0.16754">
        <ele>78.3</ele>
        <time>2023-10-11T13:57:57Z</time>
      </trkpt>
      <trkpt lat="49.04953" lon="-0.16764">
        <ele>78.4</ele>
        <time>2023-10-11T13:57:58Z</time>
      </trkpt>
      <trkpt lat="49.04956" lon="-0.16775">
        <ele>78.6</ele>
        <time>2023-10-11T13:57:59Z</time>
      </trkpt>
      <trkpt lat="49.04958" lon="-0.16786">
        <ele>78.7</ele>
        <time>2023-10-11T13:58:00Z</time>
      </trkpt>
      <trkpt lat="49.04961" lon="-0.16796">
        <ele>78.8</ele>
        <time>2023-10-11T13:58:01Z</time>
      </trkpt>
      <trkpt lat="49.04963" lon="-0.16807">
        <ele>78.9</ele>
        <time>2023-10-11T13:58:02Z</time>
      </trkpt>
      <trkpt lat="49.04964" lon="-0.16818">
        <ele>79</ele>
        <time>2023-10-11T13:58:03Z</time>
      </trkpt>
      <trkpt lat="49.04966" lon="-0.16828">
        <ele>79.1</ele>
        <time>2023-10-11T13:58:04Z</time>
      </trkpt>
      <trkpt lat="49.04967" lon="-0.16839">
        <ele>79.3</ele>
        <time>2023-10-11T13:58:05Z</time>
      </trkpt>
      <trkpt lat="49.04969" lon="-0.1685">
        <ele>79.4</ele>
        <time>2023-10-11T13:58:06Z</time>
      </trkpt>
      <trkpt lat="49.0497" lon="-0.16861">
        <ele>79.5</ele>
        <time>2023-10-11T13:58:07Z</time>
      </trkpt>
      <trkpt lat="49.04972" lon="-0.16872">
        <ele>79.7</ele>
        <time>2023-10-11T13:58:08Z</time>
      </trkpt>
      <trkpt lat="49.04973" lon="-0.16883">
        <ele>79.8</ele>
        <time>2023-10-11T13:58:09Z</time>
      </trkpt>
      <trkpt lat="49.04975" lon="-0.16893">
        <ele>79.9</ele>
        <time>2023-10-11T13:58:10Z</time>
      </trkpt>
      <trkpt lat="49.04976" lon="-0.16904">
        <ele>79.9</ele>
        <time>2023-10-11T13:58:11Z</time>
      </trkpt>
      <trkpt lat="49.04978" lon="-0.16915">
        <ele>80</ele>
        <time>2023-10-11T13:58:12Z</time>
      </trkpt>
      <trkpt lat="49.04979" lon="-0.16926">
        <ele>80.1</ele>
        <time>2023-10-11T13:58:13Z</time>
      </trkpt>
      <trkpt lat="49.0498" lon="-0.16937">
        <ele>80.2</ele>
        <time>2023-10-11T13:58:14Z</time>
      </trkpt>
      <trkpt lat="49.04982" lon="-0.16948">
        <ele>80.2</ele>
        <time>2023-10-11T13:58:15Z</time>
      </trkpt>
      <trkpt lat="49.04983" lon="-0.1696">
        <ele>80.3</ele>
        <time>2023-10-11T13:58:16Z</time>
      </trkpt>
      <trkpt lat="49.04985" lon="-0.16971">
        <ele>80.3</ele>
        <time>2023-10-11T13:58:17Z</time>
      </trkpt>
      <trkpt lat="49.04986" lon="-0.16982">
        <ele>80.3</ele>
        <time>2023-10-11T13:58:18Z</time>
      </trkpt>
      <trkpt lat="49.04987" lon="-0.16994">
        <ele>80.3</ele>
        <time>2023-10-11T13:58:19Z</time>
      </trkpt>
      <trkpt lat="49.04989" lon="-0.17005">
        <ele>80.4</ele>
        <time>2023-10-11T13:58:20Z</time>
      </trkpt>
      <trkpt lat="49.04991" lon="-0.17016">
        <ele>80.4</ele>
        <time>2023-10-11T13:58:21Z</time>
      </trkpt>
      <trkpt lat="49.04992" lon="-0.17027">
        <ele>80.4</ele>
        <time>2023-10-11T13:58:22Z</time>
      </trkpt>
      <trkpt lat="49.04994" lon="-0.17038">
        <ele>80.3</ele>
        <time>2023-10-11T13:58:23Z</time>
      </trkpt>
      <trkpt lat="49.04995" lon="-0.17049">
        <ele>80.2</ele>
        <time>2023-10-11T13:58:24Z</time>
      </trkpt>
      <trkpt lat="49.04996" lon="-0.17061">
        <ele>80.1</ele>
        <time>2023-10-11T13:58:25Z</time>
      </trkpt>
      <trkpt lat="49.04998" lon="-0.17072">
        <ele>80</ele>
        <time>2023-10-11T13:58:26Z</time>
      </trkpt>
      <trkpt lat="49.05" lon="-0.17083">
        <ele>79.8</ele>
        <time>2023-10-11T13:58:27Z</time>
      </trkpt>
      <trkpt lat="49.05001" lon="-0.17095">
        <ele>79.7</ele>
        <time>2023-10-11T13:58:28Z</time>
      </trkpt>
      <trkpt lat="49.05003" lon="-0.17107">
        <ele>79.5</ele>
        <time>2023-10-11T13:58:29Z</time>
      </trkpt>
      <trkpt lat="49.05005" lon="-0.17119">
        <ele>79.3</ele>
        <time>2023-10-11T13:58:30Z</time>
      </trkpt>
      <trkpt lat="49.05006" lon="-0.17131">
        <ele>79.2</ele>
        <time>2023-10-11T13:58:31Z</time>
      </trkpt>
      <trkpt lat="49.05008" lon="-0.17143">
        <ele>79</ele>
        <time>2023-10-11T13:58:32Z</time>
      </trkpt>
      <trkpt lat="49.05009" lon="-0.17155">
        <ele>78.9</ele>
        <time>2023-10-11T13:58:33Z</time>
      </trkpt>
      <trkpt lat="49.05011" lon="-0.17167">
        <ele>78.7</ele>
        <time>2023-10-11T13:58:34Z</time>
      </trkpt>
      <trkpt lat="49.05013" lon="-0.1718">
        <ele>78.6</ele>
        <time>2023-10-11T13:58:35Z</time>
      </trkpt>
      <trkpt lat="49.05015" lon="-0.17192">
        <ele>78.5</ele>
        <time>2023-10-11T13:58:36Z</time>
      </trkpt>
      <trkpt lat="49.05017" lon="-0.17205">
        <ele>78.4</ele>
        <time>2023-10-11T13:58:37Z</time>
      </trkpt>
      <trkpt lat="49.05018" lon="-0.17217">
        <ele>78.4</ele>
        <time>2023-10-11T13:58:38Z</time>
      </trkpt>
      <trkpt lat="49.0502" lon="-0.1723">
        <ele>78.4</ele>
        <time>2023-10-11T13:58:39Z</time>
      </trkpt>
      <trkpt lat="49.05021" lon="-0.17242">
        <ele>78.4</ele>
        <time>2023-10-11T13:58:40Z</time>
      </trkpt>
      <trkpt lat="49.05023" lon="-0.17254">
        <ele>78.4</ele>
        <time>2023-10-11T13:58:41Z</time>
      </trkpt>
      <trkpt lat="49.05024" lon="-0.17266">
        <ele>78.4</ele>
        <time>2023-10-11T13:58:42Z</time>
      </trkpt>
      <trkpt lat="49.05026" lon="-0.17279">
        <ele>78.4</ele>
        <time>2023-10-11T13:58:43Z</time>
      </trkpt>
      <trkpt lat="49.05028" lon="-0.17291">
        <ele>78.5</ele>
        <time>2023-10-11T13:58:44Z</time>
      </trkpt>
      <trkpt lat="49.0503" lon="-0.17302">
        <ele>78.5</ele>
        <time>2023-10-11T13:58:45Z</time>
      </trkpt>
      <trkpt lat="49.05031" lon="-0.17314">
        <ele>78.6</ele>
        <time>2023-10-11T13:58:46Z</time>
      </trkpt>
      <trkpt lat="49.05033" lon="-0.17326">
        <ele>78.7</ele>
        <time>2023-10-11T13:58:47Z</time>
      </trkpt>
      <trkpt lat="49.05034" lon="-0.17338">
        <ele>78.7</ele>
        <time>2023-10-11T13:58:48Z</time>
      </trkpt>
      <trkpt lat="49.05036" lon="-0.1735">
        <ele>78.8</ele>
        <time>2023-10-11T13:58:49Z</time>
      </trkpt>
      <trkpt lat="49.05038" lon="-0.17362">
        <ele>78.9</ele>
        <time>2023-10-11T13:58:50Z</time>
      </trkpt>
      <trkpt lat="49.05039" lon="-0.17375">
        <ele>79</ele>
        <time>2023-10-11T13:58:51Z</time>
      </trkpt>
      <trkpt lat="49.05041" lon="-0.17388">
        <ele>79</ele>
        <time>2023-10-11T13:58:52Z</time>
      </trkpt>
      <trkpt lat="49.05043" lon="-0.17401">
        <ele>79.1</ele>
        <time>2023-10-11T13:58:53Z</time>
      </trkpt>
      <trkpt lat="49.05045" lon="-0.17414">
        <ele>79.1</ele>
        <time>2023-10-11T13:58:54Z</time>
      </trkpt>
      <trkpt lat="49.05047" lon="-0.17428">
        <ele>79.2</ele>
        <time>2023-10-11T13:58:55Z</time>
      </trkpt>
      <trkpt lat="49.05048" lon="-0.17441">
        <ele>79.2</ele>
        <time>2023-10-11T13:58:56Z</time>
      </trkpt>
      <trkpt lat="49.0505" lon="-0.17454">
        <ele>79.2</ele>
        <time>2023-10-11T13:58:57Z</time>
      </trkpt>
      <trkpt lat="49.05051" lon="-0.17466">
        <ele>79.3</ele>
        <time>2023-10-11T13:58:58Z</time>
      </trkpt>
      <trkpt lat="49.05053" lon="-0.17479">
        <ele>79.4</ele>
        <time>2023-10-11T13:58:59Z</time>
      </trkpt>
      <trkpt lat="49.05054" lon="-0.17491">
        <ele>79.4</ele>
        <time>2023-10-11T13:59:00Z</time>
      </trkpt>
      <trkpt lat="49.05056" lon="-0.17503">
        <ele>79.5</ele>
        <time>2023-10-11T13:59:01Z</time>
      </trkpt>
      <trkpt lat="49.05058" lon="-0.17514">
        <ele>79.6</ele>
        <time>2023-10-11T13:59:02Z</time>
      </trkpt>
      <trkpt lat="49.05059" lon="-0.17526">
        <ele>79.6</ele>
        <time>2023-10-11T13:59:03Z</time>
      </trkpt>
      <trkpt lat="49.05061" lon="-0.17538">
        <ele>79.6</ele>
        <time>2023-10-11T13:59:04Z</time>
      </trkpt>
      <trkpt lat="49.05063" lon="-0.17549">
        <ele>79.7</ele>
        <time>2023-10-11T13:59:05Z</time>
      </trkpt>
      <trkpt lat="49.05064" lon="-0.17561">
        <ele>79.7</ele>
        <time>2023-10-11T13:59:06Z</time>
      </trkpt>
      <trkpt lat="49.05066" lon="-0.17573">
        <ele>79.8</ele>
        <time>2023-10-11T13:59:07Z</time>
      </trkpt>
      <trkpt lat="49.05067" lon="-0.17585">
        <ele>79.8</ele>
        <time>2023-10-11T13:59:08Z</time>
      </trkpt>
      <trkpt lat="49.05069" lon="-0.17597">
        <ele>79.8</ele>
        <time>2023-10-11T13:59:09Z</time>
      </trkpt>
      <trkpt lat="49.0507" lon="-0.17608">
        <ele>79.8</ele>
        <time>2023-10-11T13:59:10Z</time>
      </trkpt>
      <trkpt lat="49.05072" lon="-0.1762">
        <ele>79.8</ele>
        <time>2023-10-11T13:59:11Z</time>
      </trkpt>
      <trkpt lat="49.05073" lon="-0.17631">
        <ele>79.8</ele>
        <time>2023-10-11T13:59:12Z</time>
      </trkpt>
      <trkpt lat="49.05075" lon="-0.17643">
        <ele>79.8</ele>
        <time>2023-10-11T13:59:13Z</time>
      </trkpt>
      <trkpt lat="49.05077" lon="-0.17654">
        <ele>79.8</ele>
        <time>2023-10-11T13:59:14Z</time>
      </trkpt>
      <trkpt lat="49.05078" lon="-0.17665">
        <ele>79.8</ele>
        <time>2023-10-11T13:59:15Z</time>
      </trkpt>
      <trkpt lat="49.0508" lon="-0.17677">
        <ele>79.9</ele>
        <time>2023-10-11T13:59:16Z</time>
      </trkpt>
      <trkpt lat="49.05082" lon="-0.17688">
        <ele>79.9</ele>
        <time>2023-10-11T13:59:17Z</time>
      </trkpt>
      <trkpt lat="49.05083" lon="-0.17698">
        <ele>80</ele>
        <time>2023-10-11T13:59:18Z</time>
      </trkpt>
      <trkpt lat="49.05084" lon="-0.17708">
        <ele>80</ele>
        <time>2023-10-11T13:59:19Z</time>
      </trkpt>
      <trkpt lat="49.05086" lon="-0.17717">
        <ele>80.1</ele>
        <time>2023-10-11T13:59:20Z</time>
      </trkpt>
      <trkpt lat="49.05087" lon="-0.17727">
        <ele>80.2</ele>
        <time>2023-10-11T13:59:21Z</time>
      </trkpt>
      <trkpt lat="49.05088" lon="-0.17737">
        <ele>80.3</ele>
        <time>2023-10-11T13:59:22Z</time>
      </trkpt>
      <trkpt lat="49.0509" lon="-0.17747">
        <ele>80.4</ele>
        <time>2023-10-11T13:59:23Z</time>
      </trkpt>
      <trkpt lat="49.05091" lon="-0.17756">
        <ele>80.4</ele>
        <time>2023-10-11T13:59:24Z</time>
      </trkpt>
      <trkpt lat="49.05092" lon="-0.17765">
        <ele>80.5</ele>
        <time>2023-10-11T13:59:25Z</time>
      </trkpt>
      <trkpt lat="49.05094" lon="-0.17774">
        <ele>80.6</ele>
        <time>2023-10-11T13:59:26Z</time>
      </trkpt>
      <trkpt lat="49.05095" lon="-0.17783">
        <ele>80.7</ele>
        <time>2023-10-11T13:59:27Z</time>
      </trkpt>
      <trkpt lat="49.05097" lon="-0.1779">
        <ele>80.7</ele>
        <time>2023-10-11T13:59:28Z</time>
      </trkpt>
      <trkpt lat="49.051" lon="-0.17797">
        <ele>80.8</ele>
        <time>2023-10-11T13:59:29Z</time>
      </trkpt>
      <trkpt lat="49.05105" lon="-0.17802">
        <ele>80.7</ele>
        <time>2023-10-11T13:59:30Z</time>
      </trkpt>
      <trkpt lat="49.05111" lon="-0.17805">
        <ele>80.5</ele>
        <time>2023-10-11T13:59:31Z</time>
      </trkpt>
      <trkpt lat="49.05118" lon="-0.17806">
        <ele>80.3</ele>
        <time>2023-10-11T13:59:32Z</time>
      </trkpt>
      <trkpt lat="49.05124" lon="-0.17807">
        <ele>80.1</ele>
        <time>2023-10-11T13:59:33Z</time>
      </trkpt>
      <trkpt lat="49.05131" lon="-0.17807">
        <ele>80</ele>
        <time>2023-10-11T13:59:34Z</time>
      </trkpt>
      <trkpt lat="49.05138" lon="-0.17807">
        <ele>79.8</ele>
        <time>2023-10-11T13:59:35Z</time>
      </trkpt>
      <trkpt lat="49.05145" lon="-0.17806">
        <ele>79.7</ele>
        <time>2023-10-11T13:59:36Z</time>
      </trkpt>
      <trkpt lat="49.05151" lon="-0.17804">
        <ele>79.7</ele>
        <time>2023-10-11T13:59:37Z</time>
      </trkpt>
      <trkpt lat="49.05158" lon="-0.17803">
        <ele>79.7</ele>
        <time>2023-10-11T13:59:38Z</time>
      </trkpt>
      <trkpt lat="49.05164" lon="-0.178">
        <ele>79.7</ele>
        <time>2023-10-11T13:59:39Z</time>
      </trkpt>
      <trkpt lat="49.0517" lon="-0.17798">
        <ele>79.6</ele>
        <time>2023-10-11T13:59:40Z</time>
      </trkpt>
      <trkpt lat="49.05177" lon="-0.17796">
        <ele>79.6</ele>
        <time>2023-10-11T13:59:41Z</time>
      </trkpt>
      <trkpt lat="49.05183" lon="-0.17795">
        <ele>79.6</ele>
        <time>2023-10-11T13:59:42Z</time>
      </trkpt>
      <trkpt lat="49.05189" lon="-0.17793">
        <ele>79.7</ele>
        <time>2023-10-11T13:59:43Z</time>
      </trkpt>
      <trkpt lat="49.05195" lon="-0.17791">
        <ele>79.7</ele>
        <time>2023-10-11T13:59:44Z</time>
      </trkpt>
      <trkpt lat="49.05201" lon="-0.1779">
        <ele>79.7</ele>
        <time>2023-10-11T13:59:45Z</time>
      </trkpt>
      <trkpt lat="49.05207" lon="-0.17787">
        <ele>79.7</ele>
        <time>2023-10-11T13:59:46Z</time>
      </trkpt>
      <trkpt lat="49.05213" lon="-0.17785">
        <ele>79.7</ele>
        <time>2023-10-11T13:59:47Z</time>
      </trkpt>
      <trkpt lat="49.05219" lon="-0.17783">
        <ele>79.8</ele>
        <time>2023-10-11T13:59:48Z</time>
      </trkpt>
      <trkpt lat="49.05225" lon="-0.17781">
        <ele>79.8</ele>
        <time>2023-10-11T13:59:49Z</time>
      </trkpt>
      <trkpt lat="49.05231" lon="-0.17779">
        <ele>79.8</ele>
        <time>2023-10-11T13:59:50Z</time>
      </trkpt>
      <trkpt lat="49.05238" lon="-0.17777">
        <ele>79.8</ele>
        <time>2023-10-11T13:59:51Z</time>
      </trkpt>
      <trkpt lat="49.05245" lon="-0.17775">
        <ele>79.9</ele>
        <time>2023-10-11T13:59:52Z</time>
      </trkpt>
      <trkpt lat="49.05252" lon="-0.17772">
        <ele>79.9</ele>
        <time>2023-10-11T13:59:53Z</time>
      </trkpt>
      <trkpt lat="49.05259" lon="-0.1777">
        <ele>79.9</ele>
        <time>2023-10-11T13:59:54Z</time>
      </trkpt>
      <trkpt lat="49.05267" lon="-0.17767">
        <ele>80</ele>
        <time>2023-10-11T13:59:55Z</time>
      </trkpt>
      <trkpt lat="49.05275" lon="-0.17765">
        <ele>80.1</ele>
        <time>2023-10-11T13:59:56Z</time>
      </trkpt>
      <trkpt lat="49.05282" lon="-0.17762">
        <ele>80.2</ele>
        <time>2023-10-11T13:59:57Z</time>
      </trkpt>
      <trkpt lat="49.05289" lon="-0.1776">
        <ele>80.2</ele>
        <time>2023-10-11T13:59:58Z</time>
      </trkpt>
      <trkpt lat="49.05296" lon="-0.17757">
        <ele>80.3</ele>
        <time>2023-10-11T13:59:59Z</time>
      </trkpt>
      <trkpt lat="49.05304" lon="-0.17754">
        <ele>80.4</ele>
        <time>2023-10-11T14:00:00Z</time>
      </trkpt>
      <trkpt lat="49.05311" lon="-0.17752">
        <ele>80.5</ele>
        <time>2023-10-11T14:00:01Z</time>
      </trkpt>
      <trkpt lat="49.05319" lon="-0.17749">
        <ele>80.6</ele>
        <time>2023-10-11T14:00:02Z</time>
      </trkpt>
      <trkpt lat="49.05327" lon="-0.17746">
        <ele>80.5</ele>
        <time>2023-10-11T14:00:03Z</time>
      </trkpt>
      <trkpt lat="49.05335" lon="-0.17743">
        <ele>80.5</ele>
        <time>2023-10-11T14:00:04Z</time>
      </trkpt>
      <trkpt lat="49.05343" lon="-0.1774">
        <ele>80.5</ele>
        <time>2023-10-11T14:00:05Z</time>
      </trkpt>
      <trkpt lat="49.05351" lon="-0.17737">
        <ele>80.4</ele>
        <time>2023-10-11T14:00:06Z</time>
      </trkpt>
      <trkpt lat="49.0536" lon="-0.17735">
        <ele>80.4</ele>
        <time>2023-10-11T14:00:07Z</time>
      </trkpt>
      <trkpt lat="49.05369" lon="-0.17732">
        <ele>80.4</ele>
        <time>2023-10-11T14:00:08Z</time>
      </trkpt>
      <trkpt lat="49.05378" lon="-0.1773">
        <ele>80.4</ele>
        <time>2023-10-11T14:00:09Z</time>
      </trkpt>
      <trkpt lat="49.05387" lon="-0.17727">
        <ele>80.4</ele>
        <time>2023-10-11T14:00:10Z</time>
      </trkpt>
      <trkpt lat="49.05396" lon="-0.17724">
        <ele>80.4</ele>
        <time>2023-10-11T14:00:11Z</time>
      </trkpt>
      <trkpt lat="49.05405" lon="-0.17721">
        <ele>80.4</ele>
        <time>2023-10-11T14:00:12Z</time>
      </trkpt>
      <trkpt lat="49.05415" lon="-0.17717">
        <ele>80.3</ele>
        <time>2023-10-11T14:00:13Z</time>
      </trkpt>
      <trkpt lat="49.05424" lon="-0.17714">
        <ele>80.3</ele>
        <time>2023-10-11T14:00:14Z</time>
      </trkpt>
      <trkpt lat="49.05433" lon="-0.17711">
        <ele>80.3</ele>
        <time>2023-10-11T14:00:15Z</time>
      </trkpt>
      <trkpt lat="49.05443" lon="-0.17708">
        <ele>80.3</ele>
        <time>2023-10-11T14:00:16Z</time>
      </trkpt>
      <trkpt lat="49.05452" lon="-0.17705">
        <ele>80.3</ele>
        <time>2023-10-11T14:00:17Z</time>
      </trkpt>
      <trkpt lat="49.05461" lon="-0.17701">
        <ele>80.4</ele>
        <time>2023-10-11T14:00:18Z</time>
      </trkpt>
      <trkpt lat="49.05471" lon="-0.17697">
        <ele>80.4</ele>
        <time>2023-10-11T14:00:19Z</time>
      </trkpt>
      <trkpt lat="49.0548" lon="-0.17693">
        <ele>80.3</ele>
        <time>2023-10-11T14:00:20Z</time>
      </trkpt>
      <trkpt lat="49.0549" lon="-0.1769">
        <ele>80.3</ele>
        <time>2023-10-11T14:00:21Z</time>
      </trkpt>
      <trkpt lat="49.05499" lon="-0.17687">
        <ele>80.2</ele>
        <time>2023-10-11T14:00:22Z</time>
      </trkpt>
      <trkpt lat="49.05509" lon="-0.17684">
        <ele>80.2</ele>
        <time>2023-10-11T14:00:23Z</time>
      </trkpt>
      <trkpt lat="49.05518" lon="-0.17681">
        <ele>80.2</ele>
        <time>2023-10-11T14:00:24Z</time>
      </trkpt>
      <trkpt lat="49.05528" lon="-0.17677">
        <ele>80.1</ele>
        <time>2023-10-11T14:00:25Z</time>
      </trkpt>
      <trkpt lat="49.05537" lon="-0.17674">
        <ele>80.1</ele>
        <time>2023-10-11T14:00:26Z</time>
      </trkpt>
      <trkpt lat="49.05546" lon="-0.17671">
        <ele>80.1</ele>
        <time>2023-10-11T14:00:27Z</time>
      </trkpt>
      <trkpt lat="49.05555" lon="-0.17668">
        <ele>80</ele>
        <time>2023-10-11T14:00:28Z</time>
      </trkpt>
      <trkpt lat="49.05564" lon="-0.17665">
        <ele>80</ele>
        <time>2023-10-11T14:00:29Z</time>
      </trkpt>
      <trkpt lat="49.05573" lon="-0.17662">
        <ele>79.9</ele>
        <time>2023-10-11T14:00:30Z</time>
      </trkpt>
      <trkpt lat="49.05582" lon="-0.17658">
        <ele>79.9</ele>
        <time>2023-10-11T14:00:31Z</time>
      </trkpt>
      <trkpt lat="49.05591" lon="-0.17655">
        <ele>79.8</ele>
        <time>2023-10-11T14:00:32Z</time>
      </trkpt>
      <trkpt lat="49.05599" lon="-0.17651">
        <ele>79.8</ele>
        <time>2023-10-11T14:00:33Z</time>
      </trkpt>
      <trkpt lat="49.05608" lon="-0.17648">
        <ele>79.7</ele>
        <time>2023-10-11T14:00:34Z</time>
      </trkpt>
      <trkpt lat="49.05617" lon="-0.17645">
        <ele>79.7</ele>
        <time>2023-10-11T14:00:35Z</time>
      </trkpt>
      <trkpt lat="49.05627" lon="-0.17641">
        <ele>79.7</ele>
        <time>2023-10-11T14:00:36Z</time>
      </trkpt>
      <trkpt lat="49.05636" lon="-0.17639">
        <ele>79.6</ele>
        <time>2023-10-11T14:00:37Z</time>
      </trkpt>
      <trkpt lat="49.05645" lon="-0.17636">
        <ele>79.5</ele>
        <time>2023-10-11T14:00:38Z</time>
      </trkpt>
      <trkpt lat="49.05654" lon="-0.17633">
        <ele>79.4</ele>
        <time>2023-10-11T14:00:39Z</time>
      </trkpt>
      <trkpt lat="49.05663" lon="-0.1763">
        <ele>79.3</ele>
        <time>2023-10-11T14:00:40Z</time>
      </trkpt>
      <trkpt lat="49.05672" lon="-0.17627">
        <ele>79.2</ele>
        <time>2023-10-11T14:00:41Z</time>
      </trkpt>
      <trkpt lat="49.05682" lon="-0.17624">
        <ele>79.2</ele>
        <time>2023-10-11T14:00:42Z</time>
      </trkpt>
      <trkpt lat="49.05691" lon="-0.1762">
        <ele>79.1</ele>
        <time>2023-10-11T14:00:43Z</time>
      </trkpt>
      <trkpt lat="49.057" lon="-0.17617">
        <ele>79</ele>
        <time>2023-10-11T14:00:44Z</time>
      </trkpt>
      <trkpt lat="49.0571" lon="-0.17614">
        <ele>79</ele>
        <time>2023-10-11T14:00:45Z</time>
      </trkpt>
      <trkpt lat="49.05719" lon="-0.17611">
        <ele>78.9</ele>
        <time>2023-10-11T14:00:46Z</time>
      </trkpt>
      <trkpt lat="49.05728" lon="-0.17608">
        <ele>78.8</ele>
        <time>2023-10-11T14:00:47Z</time>
      </trkpt>
      <trkpt lat="49.05737" lon="-0.17605">
        <ele>78.7</ele>
        <time>2023-10-11T14:00:48Z</time>
      </trkpt>
      <trkpt lat="49.05747" lon="-0.17601">
        <ele>78.5</ele>
        <time>2023-10-11T14:00:49Z</time>
      </trkpt>
      <trkpt lat="49.05756" lon="-0.17597">
        <ele>78.4</ele>
        <time>2023-10-11T14:00:50Z</time>
      </trkpt>
      <trkpt lat="49.05766" lon="-0.17594">
        <ele>78.3</ele>
        <time>2023-10-11T14:00:51Z</time>
      </trkpt>
      <trkpt lat="49.05775" lon="-0.17591">
        <ele>78.2</ele>
        <time>2023-10-11T14:00:52Z</time>
      </trkpt>
      <trkpt lat="49.05785" lon="-0.17589">
        <ele>78</ele>
        <time>2023-10-11T14:00:53Z</time>
      </trkpt>
      <trkpt lat="49.05795" lon="-0.17587">
        <ele>77.9</ele>
        <time>2023-10-11T14:00:54Z</time>
      </trkpt>
      <trkpt lat="49.05805" lon="-0.17586">
        <ele>77.8</ele>
        <time>2023-10-11T14:00:55Z</time>
      </trkpt>
      <trkpt lat="49.05815" lon="-0.17585">
        <ele>77.6</ele>
        <time>2023-10-11T14:00:56Z</time>
      </trkpt>
      <trkpt lat="49.05825" lon="-0.17585">
        <ele>77.5</ele>
        <time>2023-10-11T14:00:57Z</time>
      </trkpt>
      <trkpt lat="49.05835" lon="-0.17586">
        <ele>77.3</ele>
        <time>2023-10-11T14:00:58Z</time>
      </trkpt>
      <trkpt lat="49.05846" lon="-0.17585">
        <ele>77.1</ele>
        <time>2023-10-11T14:00:59Z</time>
      </trkpt>
      <trkpt lat="49.05856" lon="-0.17585">
        <ele>76.9</ele>
        <time>2023-10-11T14:01:00Z</time>
      </trkpt>
      <trkpt lat="49.05867" lon="-0.17586">
        <ele>76.7</ele>
        <time>2023-10-11T14:01:01Z</time>
      </trkpt>
      <trkpt lat="49.05878" lon="-0.17587">
        <ele>76.5</ele>
        <time>2023-10-11T14:01:02Z</time>
      </trkpt>
      <trkpt lat="49.05888" lon="-0.17587">
        <ele>76.2</ele>
        <time>2023-10-11T14:01:03Z</time>
      </trkpt>
      <trkpt lat="49.05899" lon="-0.17587">
        <ele>76</ele>
        <time>2023-10-11T14:01:04Z</time>
      </trkpt>
      <trkpt lat="49.0591" lon="-0.17587">
        <ele>75.8</ele>
        <time>2023-10-11T14:01:05Z</time>
      </trkpt>
      <trkpt lat="49.05921" lon="-0.17587">
        <ele>75.6</ele>
        <time>2023-10-11T14:01:06Z</time>
      </trkpt>
      <trkpt lat="49.05932" lon="-0.17588">
        <ele>75.3</ele>
        <time>2023-10-11T14:01:07Z</time>
      </trkpt>
      <trkpt lat="49.05943" lon="-0.17589">
        <ele>75.1</ele>
        <time>2023-10-11T14:01:08Z</time>
      </trkpt>
      <trkpt lat="49.05954" lon="-0.17589">
        <ele>74.8</ele>
        <time>2023-10-11T14:01:09Z</time>
      </trkpt>
      <trkpt lat="49.05965" lon="-0.17589">
        <ele>74.6</ele>
        <time>2023-10-11T14:01:10Z</time>
      </trkpt>
      <trkpt lat="49.05976" lon="-0.17589">
        <ele>74.4</ele>
        <time>2023-10-11T14:01:11Z</time>
      </trkpt>
      <trkpt lat="49.05987" lon="-0.1759">
        <ele>74.1</ele>
        <time>2023-10-11T14:01:12Z</time>
      </trkpt>
      <trkpt lat="49.05999" lon="-0.1759">
        <ele>74</ele>
        <time>2023-10-11T14:01:13Z</time>
      </trkpt>
      <trkpt lat="49.0601" lon="-0.17591">
        <ele>73.8</ele>
        <time>2023-10-11T14:01:14Z</time>
      </trkpt>
      <trkpt lat="49.06021" lon="-0.17591">
        <ele>73.6</ele>
        <time>2023-10-11T14:01:15Z</time>
      </trkpt>
      <trkpt lat="49.06032" lon="-0.17592">
        <ele>73.3</ele>
        <time>2023-10-11T14:01:16Z</time>
      </trkpt>
      <trkpt lat="49.06044" lon="-0.17592">
        <ele>73.1</ele>
        <time>2023-10-11T14:01:17Z</time>
      </trkpt>
      <trkpt lat="49.06056" lon="-0.17593">
        <ele>73</ele>
        <time>2023-10-11T14:01:18Z</time>
      </trkpt>
      <trkpt lat="49.06067" lon="-0.17593">
        <ele>72.9</ele>
        <time>2023-10-11T14:01:19Z</time>
      </trkpt>
      <trkpt lat="49.06079" lon="-0.17593">
        <ele>72.8</ele>
        <time>2023-10-11T14:01:20Z</time>
      </trkpt>
      <trkpt lat="49.06091" lon="-0.17594">
        <ele>72.6</ele>
        <time>2023-10-11T14:01:21Z</time>
      </trkpt>
      <trkpt lat="49.06103" lon="-0.17595">
        <ele>72.5</ele>
        <time>2023-10-11T14:01:22Z</time>
      </trkpt>
      <trkpt lat="49.06115" lon="-0.17597">
        <ele>72.4</ele>
        <time>2023-10-11T14:01:23Z</time>
      </trkpt>
      <trkpt lat="49.06127" lon="-0.176">
        <ele>72.2</ele>
        <time>2023-10-11T14:01:24Z</time>
      </trkpt>
      <trkpt lat="49.06139" lon="-0.17603">
        <ele>72</ele>
        <time>2023-10-11T14:01:25Z</time>
      </trkpt>
      <trkpt lat="49.06151" lon="-0.17608">
        <ele>71.7</ele>
        <time>2023-10-11T14:01:26Z</time>
      </trkpt>
      <trkpt lat="49.06163" lon="-0.17614">
        <ele>71.5</ele>
        <time>2023-10-11T14:01:27Z</time>
      </trkpt>
      <trkpt lat="49.06175" lon="-0.17619">
        <ele>71.3</ele>
        <time>2023-10-11T14:01:28Z</time>
      </trkpt>
      <trkpt lat="49.06186" lon="-0.17625">
        <ele>71.1</ele>
        <time>2023-10-11T14:01:29Z</time>
      </trkpt>
      <trkpt lat="49.06198" lon="-0.17631">
        <ele>70.9</ele>
        <time>2023-10-11T14:01:30Z</time>
      </trkpt>
      <trkpt lat="49.0621" lon="-0.17636">
        <ele>70.7</ele>
        <time>2023-10-11T14:01:31Z</time>
      </trkpt>
      <trkpt lat="49.06221" lon="-0.17642">
        <ele>70.4</ele>
        <time>2023-10-11T14:01:32Z</time>
      </trkpt>
      <trkpt lat="49.06233" lon="-0.17648">
        <ele>70.2</ele>
        <time>2023-10-11T14:01:33Z</time>
      </trkpt>
      <trkpt lat="49.06244" lon="-0.17654">
        <ele>69.9</ele>
        <time>2023-10-11T14:01:34Z</time>
      </trkpt>
      <trkpt lat="49.06256" lon="-0.1766">
        <ele>69.7</ele>
        <time>2023-10-11T14:01:35Z</time>
      </trkpt>
      <trkpt lat="49.06267" lon="-0.17665">
        <ele>69.3</ele>
        <time>2023-10-11T14:01:36Z</time>
      </trkpt>
      <trkpt lat="49.06279" lon="-0.17671">
        <ele>69</ele>
        <time>2023-10-11T14:01:37Z</time>
      </trkpt>
      <trkpt lat="49.06291" lon="-0.17677">
        <ele>68.6</ele>
        <time>2023-10-11T14:01:38Z</time>
      </trkpt>
      <trkpt lat="49.06303" lon="-0.17682">
        <ele>68.1</ele>
        <time>2023-10-11T14:01:39Z</time>
      </trkpt>
      <trkpt lat="49.06314" lon="-0.17686">
        <ele>67.7</ele>
        <time>2023-10-11T14:01:40Z</time>
      </trkpt>
      <trkpt lat="49.06327" lon="-0.17691">
        <ele>67.2</ele>
        <time>2023-10-11T14:01:41Z</time>
      </trkpt>
      <trkpt lat="49.06339" lon="-0.17694">
        <ele>66.7</ele>
        <time>2023-10-11T14:01:42Z</time>
      </trkpt>
      <trkpt lat="49.06352" lon="-0.17698">
        <ele>66.2</ele>
        <time>2023-10-11T14:01:43Z</time>
      </trkpt>
      <trkpt lat="49.06365" lon="-0.17702">
        <ele>65.7</ele>
        <time>2023-10-11T14:01:44Z</time>
      </trkpt>
      <trkpt lat="49.06378" lon="-0.17707">
        <ele>65.2</ele>
        <time>2023-10-11T14:01:45Z</time>
      </trkpt>
      <trkpt lat="49.06391" lon="-0.17711">
        <ele>64.6</ele>
        <time>2023-10-11T14:01:46Z</time>
      </trkpt>
      <trkpt lat="49.06404" lon="-0.17716">
        <ele>64.4</ele>
        <time>2023-10-11T14:01:47Z</time>
      </trkpt>
      <trkpt lat="49.06416" lon="-0.17723">
        <ele>63.9</ele>
        <time>2023-10-11T14:01:48Z</time>
      </trkpt>
      <trkpt lat="49.06428" lon="-0.1773">
        <ele>63.3</ele>
        <time>2023-10-11T14:01:49Z</time>
      </trkpt>
      <trkpt lat="49.0644" lon="-0.17738">
        <ele>62.8</ele>
        <time>2023-10-11T14:01:50Z</time>
      </trkpt>
      <trkpt lat="49.06453" lon="-0.17746">
        <ele>62.2</ele>
        <time>2023-10-11T14:01:51Z</time>
      </trkpt>
      <trkpt lat="49.06465" lon="-0.17753">
        <ele>61.6</ele>
        <time>2023-10-11T14:01:52Z</time>
      </trkpt>
      <trkpt lat="49.06478" lon="-0.1776">
        <ele>61.1</ele>
        <time>2023-10-11T14:01:53Z</time>
      </trkpt>
      <trkpt lat="49.06491" lon="-0.17767">
        <ele>60.6</ele>
        <time>2023-10-11T14:01:54Z</time>
      </trkpt>
      <trkpt lat="49.06504" lon="-0.17775">
        <ele>60.1</ele>
        <time>2023-10-11T14:01:55Z</time>
      </trkpt>
      <trkpt lat="49.06517" lon="-0.17782">
        <ele>59.6</ele>
        <time>2023-10-11T14:01:56Z</time>
      </trkpt>
      <trkpt lat="49.0653" lon="-0.1779">
        <ele>59.1</ele>
        <time>2023-10-11T14:01:57Z</time>
      </trkpt>
      <trkpt lat="49.06544" lon="-0.17797">
        <ele>58.6</ele>
        <time>2023-10-11T14:01:58Z</time>
      </trkpt>
      <trkpt lat="49.06557" lon="-0.17805">
        <ele>58.1</ele>
        <time>2023-10-11T14:01:59Z</time>
      </trkpt>
      <trkpt lat="49.0657" lon="-0.17812">
        <ele>57.6</ele>
        <time>2023-10-11T14:02:00Z</time>
      </trkpt>
      <trkpt lat="49.06583" lon="-0.1782">
        <ele>57</ele>
        <time>2023-10-11T14:02:01Z</time>
      </trkpt>
      <trkpt lat="49.06596" lon="-0.17827">
        <ele>56.5</ele>
        <time>2023-10-11T14:02:02Z</time>
      </trkpt>
      <trkpt lat="49.0661" lon="-0.17833">
        <ele>55.9</ele>
        <time>2023-10-11T14:02:03Z</time>
      </trkpt>
      <trkpt lat="49.06623" lon="-0.1784">
        <ele>55.4</ele>
        <time>2023-10-11T14:02:04Z</time>
      </trkpt>
      <trkpt lat="49.06637" lon="-0.17847">
        <ele>54.9</ele>
        <time>2023-10-11T14:02:05Z</time>
      </trkpt>
      <trkpt lat="49.0665" lon="-0.17854">
        <ele>54.4</ele>
        <time>2023-10-11T14:02:06Z</time>
      </trkpt>
      <trkpt lat="49.06663" lon="-0.17861">
        <ele>53.8</ele>
        <time>2023-10-11T14:02:07Z</time>
      </trkpt>
      <trkpt lat="49.06677" lon="-0.17868">
        <ele>53.3</ele>
        <time>2023-10-11T14:02:08Z</time>
      </trkpt>
      <trkpt lat="49.06691" lon="-0.17875">
        <ele>52.7</ele>
        <time>2023-10-11T14:02:09Z</time>
      </trkpt>
      <trkpt lat="49.06704" lon="-0.17882">
        <ele>52.2</ele>
        <time>2023-10-11T14:02:10Z</time>
      </trkpt>
      <trkpt lat="49.06718" lon="-0.17889">
        <ele>51.6</ele>
        <time>2023-10-11T14:02:11Z</time>
      </trkpt>
      <trkpt lat="49.06732" lon="-0.17896">
        <ele>51.1</ele>
        <time>2023-10-11T14:02:12Z</time>
      </trkpt>
      <trkpt lat="49.06746" lon="-0.17903">
        <ele>50.5</ele>
        <time>2023-10-11T14:02:13Z</time>
      </trkpt>
      <trkpt lat="49.0676" lon="-0.17911">
        <ele>49.9</ele>
        <time>2023-10-11T14:02:14Z</time>
      </trkpt>
      <trkpt lat="49.06773" lon="-0.17918">
        <ele>49.3</ele>
        <time>2023-10-11T14:02:15Z</time>
      </trkpt>
      <trkpt lat="49.06787" lon="-0.17926">
        <ele>48.6</ele>
        <time>2023-10-11T14:02:16Z</time>
      </trkpt>
      <trkpt lat="49.068" lon="-0.17932">
        <ele>48</ele>
        <time>2023-10-11T14:02:17Z</time>
      </trkpt>
      <trkpt lat="49.06814" lon="-0.17939">
        <ele>47.4</ele>
        <time>2023-10-11T14:02:18Z</time>
      </trkpt>
      <trkpt lat="49.06827" lon="-0.17945">
        <ele>46.8</ele>
        <time>2023-10-11T14:02:19Z</time>
      </trkpt>
      <trkpt lat="49.0684" lon="-0.17952">
        <ele>46.3</ele>
        <time>2023-10-11T14:02:20Z</time>
      </trkpt>
      <trkpt lat="49.06853" lon="-0.1796">
        <ele>45.8</ele>
        <time>2023-10-11T14:02:21Z</time>
      </trkpt>
      <trkpt lat="49.06866" lon="-0.17969">
        <ele>45.3</ele>
        <time>2023-10-11T14:02:22Z</time>
      </trkpt>
      <trkpt lat="49.06878" lon="-0.17978">
        <ele>44.9</ele>
        <time>2023-10-11T14:02:23Z</time>
      </trkpt>
      <trkpt lat="49.0689" lon="-0.17987">
        <ele>44.5</ele>
        <time>2023-10-11T14:02:24Z</time>
      </trkpt>
      <trkpt lat="49.06902" lon="-0.17997">
        <ele>44</ele>
        <time>2023-10-11T14:02:25Z</time>
      </trkpt>
      <trkpt lat="49.06913" lon="-0.18005">
        <ele>43.7</ele>
        <time>2023-10-11T14:02:26Z</time>
      </trkpt>
      <trkpt lat="49.06925" lon="-0.18014">
        <ele>43.3</ele>
        <time>2023-10-11T14:02:27Z</time>
      </trkpt>
      <trkpt lat="49.06936" lon="-0.18022">
        <ele>42.9</ele>
        <time>2023-10-11T14:02:28Z</time>
      </trkpt>
      <trkpt lat="49.06946" lon="-0.1803">
        <ele>42.6</ele>
        <time>2023-10-11T14:02:29Z</time>
      </trkpt>
      <trkpt lat="49.06955" lon="-0.18037">
        <ele>42.4</ele>
        <time>2023-10-11T14:02:30Z</time>
      </trkpt>
      <trkpt lat="49.06964" lon="-0.18045">
        <ele>42.2</ele>
        <time>2023-10-11T14:02:31Z</time>
      </trkpt>
      <trkpt lat="49.06973" lon="-0.18051">
        <ele>42</ele>
        <time>2023-10-11T14:02:32Z</time>
      </trkpt>
      <trkpt lat="49.0698" lon="-0.18057">
        <ele>41.9</ele>
        <time>2023-10-11T14:02:33Z</time>
      </trkpt>
      <trkpt lat="49.06986" lon="-0.18062">
        <ele>41.9</ele>
        <time>2023-10-11T14:02:34Z</time>
      </trkpt>
      <trkpt lat="49.06992" lon="-0.18066">
        <ele>41.9</ele>
        <time>2023-10-11T14:02:35Z</time>
      </trkpt>
      <trkpt lat="49.06996" lon="-0.1807">
        <ele>41.9</ele>
        <time>2023-10-11T14:02:36Z</time>
      </trkpt>
      <trkpt lat="49.07" lon="-0.18072">
        <ele>41.9</ele>
        <time>2023-10-11T14:02:37Z</time>
      </trkpt>
      <trkpt lat="49.07002" lon="-0.18073">
        <ele>41.9</ele>
        <time>2023-10-11T14:02:38Z</time>
      </trkpt>
      <trkpt lat="49.07003" lon="-0.18073">
        <ele>41.9</ele>
        <time>2023-10-11T14:02:39Z</time>
      </trkpt>
      <trkpt lat="49.07003" lon="-0.18073">
        <ele>41.9</ele>
        <time>2023-10-11T14:02:40Z</time>
      </trkpt>
      <trkpt lat="49.07003" lon="-0.18073">
        <ele>41.9</ele>
        <time>2023-10-11T14:02:41Z</time>
      </trkpt>
      <trkpt lat="49.07003" lon="-0.18073">
        <ele>41.9</ele>
        <time>2023-10-11T14:02:42Z</time>
      </trkpt>
      <trkpt lat="49.07003" lon="-0.18073">
        <ele>41.9</ele>
        <time>2023-10-11T14:02:43Z</time>
      </trkpt>
      <trkpt lat="49.07003" lon="-0.18073">
        <ele>41.9</ele>
        <time>2023-10-11T14:02:44Z</time>
      </trkpt>
      <trkpt lat="49.07003" lon="-0.18073">
        <ele>41.9</ele>
        <time>2023-10-11T14:02:45Z</time>
      </trkpt>
      <trkpt lat="49.07003" lon="-0.18073">
        <ele>41.9</ele>
        <time>2023-10-11T14:02:46Z</time>
      </trkpt>
      <trkpt lat="49.07003" lon="-0.18073">
        <ele>41.9</ele>
        <time>2023-10-11T14:02:47Z</time>
      </trkpt>
      <trkpt lat="49.07003" lon="-0.18073">
        <ele>41.9</ele>
        <time>2023-10-11T14:02:48Z</time>
      </trkpt>
      <trkpt lat="49.07004" lon="-0.18073">
        <ele>41.9</ele>
        <time>2023-10-11T14:02:49Z</time>
      </trkpt>
      <trkpt lat="49.07007" lon="-0.18071">
        <ele>42</ele>
        <time>2023-10-11T14:02:51Z</time>
      </trkpt>
      <trkpt lat="49.0701" lon="-0.18068">
        <ele>42</ele>
        <time>2023-10-11T14:02:52Z</time>
      </trkpt>
      <trkpt lat="49.0701" lon="-0.18067">
        <ele>42</ele>
        <time>2023-10-11T14:02:53Z</time>
      </trkpt>
      <trkpt lat="49.07013" lon="-0.18062">
        <ele>42</ele>
        <time>2023-10-11T14:02:54Z</time>
      </trkpt>
      <trkpt lat="49.07013" lon="-0.18061">
        <ele>42</ele>
        <time>2023-10-11T14:02:55Z</time>
      </trkpt>
      <trkpt lat="49.07015" lon="-0.18057">
        <ele>42.1</ele>
        <time>2023-10-11T14:02:56Z</time>
      </trkpt>
      <trkpt lat="49.07016" lon="-0.18053">
        <ele>42.1</ele>
        <time>2023-10-11T14:02:57Z</time>
      </trkpt>
      <trkpt lat="49.07018" lon="-0.18049">
        <ele>42.1</ele>
        <time>2023-10-11T14:02:58Z</time>
      </trkpt>
      <trkpt lat="49.0702" lon="-0.18045">
        <ele>42.1</ele>
        <time>2023-10-11T14:02:59Z</time>
      </trkpt>
      <trkpt lat="49.07022" lon="-0.18041">
        <ele>42.1</ele>
        <time>2023-10-11T14:03:00Z</time>
      </trkpt>
      <trkpt lat="49.07024" lon="-0.18036">
        <ele>42.2</ele>
        <time>2023-10-11T14:03:01Z</time>
      </trkpt>
      <trkpt lat="49.07027" lon="-0.1803">
        <ele>42.2</ele>
        <time>2023-10-11T14:03:02Z</time>
      </trkpt>
      <trkpt lat="49.0703" lon="-0.18024">
        <ele>42.1</ele>
        <time>2023-10-11T14:03:03Z</time>
      </trkpt>
      <trkpt lat="49.07034" lon="-0.18017">
        <ele>42.1</ele>
        <time>2023-10-11T14:03:04Z</time>
      </trkpt>
      <trkpt lat="49.07037" lon="-0.1801">
        <ele>42.1</ele>
        <time>2023-10-11T14:03:05Z</time>
      </trkpt>
      <trkpt lat="49.07041" lon="-0.18003">
        <ele>42</ele>
        <time>2023-10-11T14:03:06Z</time>
      </trkpt>
      <trkpt lat="49.07046" lon="-0.17996">
        <ele>42</ele>
        <time>2023-10-11T14:03:07Z</time>
      </trkpt>
      <trkpt lat="49.0705" lon="-0.17987">
        <ele>41.9</ele>
        <time>2023-10-11T14:03:08Z</time>
      </trkpt>
      <trkpt lat="49.07055" lon="-0.17978">
        <ele>41.9</ele>
        <time>2023-10-11T14:03:09Z</time>
      </trkpt>
      <trkpt lat="49.0706" lon="-0.17969">
        <ele>41.8</ele>
        <time>2023-10-11T14:03:10Z</time>
      </trkpt>
      <trkpt lat="49.07064" lon="-0.17961">
        <ele>41.7</ele>
        <time>2023-10-11T14:03:11Z</time>
      </trkpt>
      <trkpt lat="49.07069" lon="-0.17952">
        <ele>41.7</ele>
        <time>2023-10-11T14:03:12Z</time>
      </trkpt>
      <trkpt lat="49.07074" lon="-0.17944">
        <ele>41.6</ele>
        <time>2023-10-11T14:03:13Z</time>
      </trkpt>
      <trkpt lat="49.07078" lon="-0.17937">
        <ele>41.5</ele>
        <time>2023-10-11T14:03:14Z</time>
      </trkpt>
      <trkpt lat="49.07082" lon="-0.1793">
        <ele>41.4</ele>
        <time>2023-10-11T14:03:15Z</time>
      </trkpt>
      <trkpt lat="49.07086" lon="-0.17923">
        <ele>41.3</ele>
        <time>2023-10-11T14:03:16Z</time>
      </trkpt>
      <trkpt lat="49.07091" lon="-0.17917">
        <ele>41.3</ele>
        <time>2023-10-11T14:03:17Z</time>
      </trkpt>
      <trkpt lat="49.07096" lon="-0.17916">
        <ele>41.2</ele>
        <time>2023-10-11T14:03:18Z</time>
      </trkpt>
      <trkpt lat="49.07102" lon="-0.17916">
        <ele>40.9</ele>
        <time>2023-10-11T14:03:19Z</time>
      </trkpt>
      <trkpt lat="49.07107" lon="-0.17919">
        <ele>40.7</ele>
        <time>2023-10-11T14:03:20Z</time>
      </trkpt>
      <trkpt lat="49.07112" lon="-0.17924">
        <ele>40.4</ele>
        <time>2023-10-11T14:03:21Z</time>
      </trkpt>
      <trkpt lat="49.07118" lon="-0.17929">
        <ele>40.1</ele>
        <time>2023-10-11T14:03:22Z</time>
      </trkpt>
      <trkpt lat="49.07124" lon="-0.17935">
        <ele>39.9</ele>
        <time>2023-10-11T14:03:23Z</time>
      </trkpt>
      <trkpt lat="49.07129" lon="-0.17941">
        <ele>39.7</ele>
        <time>2023-10-11T14:03:24Z</time>
      </trkpt>
      <trkpt lat="49.07135" lon="-0.17948">
        <ele>39.5</ele>
        <time>2023-10-11T14:03:25Z</time>
      </trkpt>
      <trkpt lat="49.07141" lon="-0.17956">
        <ele>39.3</ele>
        <time>2023-10-11T14:03:26Z</time>
      </trkpt>
      <trkpt lat="49.07147" lon="-0.17962">
        <ele>39.1</ele>
        <time>2023-10-11T14:03:27Z</time>
      </trkpt>
      <trkpt lat="49.07153" lon="-0.17969">
        <ele>38.9</ele>
        <time>2023-10-11T14:03:28Z</time>
      </trkpt>
      <trkpt lat="49.07159" lon="-0.17976">
        <ele>38.8</ele>
        <time>2023-10-11T14:03:29Z</time>
      </trkpt>
      <trkpt lat="49.07165" lon="-0.17983">
        <ele>38.6</ele>
        <time>2023-10-11T14:03:30Z</time>
      </trkpt>
      <trkpt lat="49.07171" lon="-0.1799">
        <ele>38.4</ele>
        <time>2023-10-11T14:03:31Z</time>
      </trkpt>
      <trkpt lat="49.07178" lon="-0.17997">
        <ele>38.3</ele>
        <time>2023-10-11T14:03:32Z</time>
      </trkpt>
      <trkpt lat="49.07184" lon="-0.18004">
        <ele>38.1</ele>
        <time>2023-10-11T14:03:33Z</time>
      </trkpt>
      <trkpt lat="49.07191" lon="-0.1801">
        <ele>37.9</ele>
        <time>2023-10-11T14:03:34Z</time>
      </trkpt>
      <trkpt lat="49.07197" lon="-0.18017">
        <ele>37.7</ele>
        <time>2023-10-11T14:03:35Z</time>
      </trkpt>
      <trkpt lat="49.07203" lon="-0.18024">
        <ele>37.6</ele>
        <time>2023-10-11T14:03:36Z</time>
      </trkpt>
      <trkpt lat="49.07209" lon="-0.1803">
        <ele>37.4</ele>
        <time>2023-10-11T14:03:37Z</time>
      </trkpt>
      <trkpt lat="49.07215" lon="-0.18037">
        <ele>37.2</ele>
        <time>2023-10-11T14:03:38Z</time>
      </trkpt>
      <trkpt lat="49.07221" lon="-0.18044">
        <ele>37.1</ele>
        <time>2023-10-11T14:03:39Z</time>
      </trkpt>
      <trkpt lat="49.07228" lon="-0.18051">
        <ele>36.9</ele>
        <time>2023-10-11T14:03:40Z</time>
      </trkpt>
      <trkpt lat="49.07234" lon="-0.18058">
        <ele>36.7</ele>
        <time>2023-10-11T14:03:41Z</time>
      </trkpt>
      <trkpt lat="49.07241" lon="-0.18064">
        <ele>36.5</ele>
        <time>2023-10-11T14:03:42Z</time>
      </trkpt>
      <trkpt lat="49.07247" lon="-0.18072">
        <ele>36.2</ele>
        <time>2023-10-11T14:03:43Z</time>
      </trkpt>
      <trkpt lat="49.07254" lon="-0.18079">
        <ele>36</ele>
        <time>2023-10-11T14:03:44Z</time>
      </trkpt>
      <trkpt lat="49.0726" lon="-0.18086">
        <ele>35.7</ele>
        <time>2023-10-11T14:03:45Z</time>
      </trkpt>
      <trkpt lat="49.07266" lon="-0.18094">
        <ele>35.5</ele>
        <time>2023-10-11T14:03:46Z</time>
      </trkpt>
      <trkpt lat="49.07273" lon="-0.18101">
        <ele>35.2</ele>
        <time>2023-10-11T14:03:47Z</time>
      </trkpt>
      <trkpt lat="49.07279" lon="-0.18109">
        <ele>34.9</ele>
        <time>2023-10-11T14:03:48Z</time>
      </trkpt>
      <trkpt lat="49.07285" lon="-0.18116">
        <ele>34.7</ele>
        <time>2023-10-11T14:03:49Z</time>
      </trkpt>
      <trkpt lat="49.07291" lon="-0.18123">
        <ele>34.4</ele>
        <time>2023-10-11T14:03:50Z</time>
      </trkpt>
      <trkpt lat="49.07298" lon="-0.18131">
        <ele>34.2</ele>
        <time>2023-10-11T14:03:51Z</time>
      </trkpt>
      <trkpt lat="49.07304" lon="-0.18138">
        <ele>34</ele>
        <time>2023-10-11T14:03:52Z</time>
      </trkpt>
      <trkpt lat="49.07311" lon="-0.18146">
        <ele>33.8</ele>
        <time>2023-10-11T14:03:53Z</time>
      </trkpt>
      <trkpt lat="49.07317" lon="-0.18154">
        <ele>33.7</ele>
        <time>2023-10-11T14:03:54Z</time>
      </trkpt>
      <trkpt lat="49.07324" lon="-0.18163">
        <ele>33.6</ele>
        <time>2023-10-11T14:03:55Z</time>
      </trkpt>
      <trkpt lat="49.07331" lon="-0.18171">
        <ele>33.5</ele>
        <time>2023-10-11T14:03:56Z</time>
      </trkpt>
      <trkpt lat="49.07338" lon="-0.18179">
        <ele>33.4</ele>
        <time>2023-10-11T14:03:57Z</time>
      </trkpt>
      <trkpt lat="49.07345" lon="-0.18187">
        <ele>33.3</ele>
        <time>2023-10-11T14:03:58Z</time>
      </trkpt>
      <trkpt lat="49.07352" lon="-0.18194">
        <ele>33.2</ele>
        <time>2023-10-11T14:03:59Z</time>
      </trkpt>
      <trkpt lat="49.07359" lon="-0.18201">
        <ele>33.1</ele>
        <time>2023-10-11T14:04:00Z</time>
      </trkpt>
      <trkpt lat="49.07366" lon="-0.18208">
        <ele>33</ele>
        <time>2023-10-11T14:04:01Z</time>
      </trkpt>
      <trkpt lat="49.07373" lon="-0.18214">
        <ele>33</ele>
        <time>2023-10-11T14:04:02Z</time>
      </trkpt>
      <trkpt lat="49.0738" lon="-0.18221">
        <ele>33</ele>
        <time>2023-10-11T14:04:03Z</time>
      </trkpt>
      <trkpt lat="49.07387" lon="-0.18228">
        <ele>33</ele>
        <time>2023-10-11T14:04:04Z</time>
      </trkpt>
      <trkpt lat="49.07393" lon="-0.18236">
        <ele>32.9</ele>
        <time>2023-10-11T14:04:05Z</time>
      </trkpt>
      <trkpt lat="49.07399" lon="-0.18245">
        <ele>32.9</ele>
        <time>2023-10-11T14:04:06Z</time>
      </trkpt>
      <trkpt lat="49.07405" lon="-0.18254">
        <ele>32.9</ele>
        <time>2023-10-11T14:04:07Z</time>
      </trkpt>
      <trkpt lat="49.0741" lon="-0.18264">
        <ele>32.9</ele>
        <time>2023-10-11T14:04:08Z</time>
      </trkpt>
      <trkpt lat="49.07415" lon="-0.18275">
        <ele>32.9</ele>
        <time>2023-10-11T14:04:09Z</time>
      </trkpt>
      <trkpt lat="49.07419" lon="-0.18285">
        <ele>32.9</ele>
        <time>2023-10-11T14:04:10Z</time>
      </trkpt>
      <trkpt lat="49.07424" lon="-0.18295">
        <ele>32.9</ele>
        <time>2023-10-11T14:04:11Z</time>
      </trkpt>
      <trkpt lat="49.0743" lon="-0.18304">
        <ele>32.8</ele>
        <time>2023-10-11T14:04:12Z</time>
      </trkpt>
      <trkpt lat="49.07436" lon="-0.18314">
        <ele>32.8</ele>
        <time>2023-10-11T14:04:13Z</time>
      </trkpt>
      <trkpt lat="49.07441" lon="-0.18323">
        <ele>32.8</ele>
        <time>2023-10-11T14:04:14Z</time>
      </trkpt>
      <trkpt lat="49.07447" lon="-0.18332">
        <ele>32.8</ele>
        <time>2023-10-11T14:04:15Z</time>
      </trkpt>
      <trkpt lat="49.07453" lon="-0.18341">
        <ele>32.8</ele>
        <time>2023-10-11T14:04:16Z</time>
      </trkpt>
      <trkpt lat="49.0746" lon="-0.18349">
        <ele>32.8</ele>
        <time>2023-10-11T14:04:17Z</time>
      </trkpt>
      <trkpt lat="49.07466" lon="-0.18358">
        <ele>32.8</ele>
        <time>2023-10-11T14:04:18Z</time>
      </trkpt>
      <trkpt lat="49.07472" lon="-0.18366">
        <ele>32.8</ele>
        <time>2023-10-11T14:04:19Z</time>
      </trkpt>
      <trkpt lat="49.07477" lon="-0.18373">
        <ele>32.9</ele>
        <time>2023-10-11T14:04:20Z</time>
      </trkpt>
      <trkpt lat="49.07484" lon="-0.18381">
        <ele>32.9</ele>
        <time>2023-10-11T14:04:21Z</time>
      </trkpt>
      <trkpt lat="49.07489" lon="-0.18389">
        <ele>32.9</ele>
        <time>2023-10-11T14:04:22Z</time>
      </trkpt>
      <trkpt lat="49.07495" lon="-0.18397">
        <ele>32.9</ele>
        <time>2023-10-11T14:04:23Z</time>
      </trkpt>
      <trkpt lat="49.07501" lon="-0.18405">
        <ele>32.9</ele>
        <time>2023-10-11T14:04:24Z</time>
      </trkpt>
      <trkpt lat="49.07507" lon="-0.18413">
        <ele>33</ele>
        <time>2023-10-11T14:04:25Z</time>
      </trkpt>
      <trkpt lat="49.07513" lon="-0.18421">
        <ele>33</ele>
        <time>2023-10-11T14:04:26Z</time>
      </trkpt>
      <trkpt lat="49.07519" lon="-0.18429">
        <ele>33.1</ele>
        <time>2023-10-11T14:04:27Z</time>
      </trkpt>
      <trkpt lat="49.07525" lon="-0.18437">
        <ele>33.2</ele>
        <time>2023-10-11T14:04:28Z</time>
      </trkpt>
      <trkpt lat="49.07531" lon="-0.18445">
        <ele>33.4</ele>
        <time>2023-10-11T14:04:29Z</time>
      </trkpt>
      <trkpt lat="49.07536" lon="-0.18453">
        <ele>33.5</ele>
        <time>2023-10-11T14:04:30Z</time>
      </trkpt>
      <trkpt lat="49.07542" lon="-0.1846">
        <ele>33.6</ele>
        <time>2023-10-11T14:04:31Z</time>
      </trkpt>
      <trkpt lat="49.07547" lon="-0.18468">
        <ele>33.8</ele>
        <time>2023-10-11T14:04:32Z</time>
      </trkpt>
      <trkpt lat="49.07552" lon="-0.18476">
        <ele>33.9</ele>
        <time>2023-10-11T14:04:33Z</time>
      </trkpt>
      <trkpt lat="49.07557" lon="-0.18483">
        <ele>34.1</ele>
        <time>2023-10-11T14:04:34Z</time>
      </trkpt>
      <trkpt lat="49.07562" lon="-0.18489">
        <ele>34.2</ele>
        <time>2023-10-11T14:04:35Z</time>
      </trkpt>
      <trkpt lat="49.07568" lon="-0.18492">
        <ele>34.3</ele>
        <time>2023-10-11T14:04:36Z</time>
      </trkpt>
      <trkpt lat="49.07574" lon="-0.18492">
        <ele>34.5</ele>
        <time>2023-10-11T14:04:37Z</time>
      </trkpt>
      <trkpt lat="49.07581" lon="-0.18489">
        <ele>34.6</ele>
        <time>2023-10-11T14:04:38Z</time>
      </trkpt>
      <trkpt lat="49.07587" lon="-0.18484">
        <ele>34.6</ele>
        <time>2023-10-11T14:04:39Z</time>
      </trkpt>
      <trkpt lat="49.07593" lon="-0.1848">
        <ele>34.7</ele>
        <time>2023-10-11T14:04:40Z</time>
      </trkpt>
      <trkpt lat="49.07599" lon="-0.18476">
        <ele>34.8</ele>
        <time>2023-10-11T14:04:41Z</time>
      </trkpt>
      <trkpt lat="49.07606" lon="-0.18473">
        <ele>34.8</ele>
        <time>2023-10-11T14:04:42Z</time>
      </trkpt>
      <trkpt lat="49.07613" lon="-0.1847">
        <ele>34.9</ele>
        <time>2023-10-11T14:04:43Z</time>
      </trkpt>
      <trkpt lat="49.07619" lon="-0.18467">
        <ele>35</ele>
        <time>2023-10-11T14:04:44Z</time>
      </trkpt>
      <trkpt lat="49.07626" lon="-0.18463">
        <ele>35.1</ele>
        <time>2023-10-11T14:04:45Z</time>
      </trkpt>
      <trkpt lat="49.07632" lon="-0.18459">
        <ele>35.2</ele>
        <time>2023-10-11T14:04:46Z</time>
      </trkpt>
      <trkpt lat="49.07639" lon="-0.18455">
        <ele>35.3</ele>
        <time>2023-10-11T14:04:47Z</time>
      </trkpt>
      <trkpt lat="49.07645" lon="-0.18451">
        <ele>35.4</ele>
        <time>2023-10-11T14:04:48Z</time>
      </trkpt>
      <trkpt lat="49.07652" lon="-0.18447">
        <ele>35.5</ele>
        <time>2023-10-11T14:04:49Z</time>
      </trkpt>
      <trkpt lat="49.07659" lon="-0.18444">
        <ele>35.7</ele>
        <time>2023-10-11T14:04:50Z</time>
      </trkpt>
      <trkpt lat="49.07665" lon="-0.18442">
        <ele>35.8</ele>
        <time>2023-10-11T14:04:51Z</time>
      </trkpt>
      <trkpt lat="49.07672" lon="-0.1844">
        <ele>36</ele>
        <time>2023-10-11T14:04:52Z</time>
      </trkpt>
      <trkpt lat="49.07679" lon="-0.18439">
        <ele>36.1</ele>
        <time>2023-10-11T14:04:53Z</time>
      </trkpt>
      <trkpt lat="49.07687" lon="-0.18438">
        <ele>36.2</ele>
        <time>2023-10-11T14:04:54Z</time>
      </trkpt>
      <trkpt lat="49.07694" lon="-0.18438">
        <ele>36.3</ele>
        <time>2023-10-11T14:04:55Z</time>
      </trkpt>
      <trkpt lat="49.07702" lon="-0.18439">
        <ele>36.4</ele>
        <time>2023-10-11T14:04:56Z</time>
      </trkpt>
      <trkpt lat="49.0771" lon="-0.1844">
        <ele>36.5</ele>
        <time>2023-10-11T14:04:57Z</time>
      </trkpt>
      <trkpt lat="49.07718" lon="-0.18442">
        <ele>36.7</ele>
        <time>2023-10-11T14:04:58Z</time>
      </trkpt>
      <trkpt lat="49.07725" lon="-0.18444">
        <ele>36.8</ele>
        <time>2023-10-11T14:04:59Z</time>
      </trkpt>
      <trkpt lat="49.07732" lon="-0.18447">
        <ele>36.9</ele>
        <time>2023-10-11T14:05:00Z</time>
      </trkpt>
      <trkpt lat="49.07739" lon="-0.1845">
        <ele>37</ele>
        <time>2023-10-11T14:05:01Z</time>
      </trkpt>
      <trkpt lat="49.07746" lon="-0.18453">
        <ele>37.1</ele>
        <time>2023-10-11T14:05:02Z</time>
      </trkpt>
      <trkpt lat="49.07752" lon="-0.18456">
        <ele>37.2</ele>
        <time>2023-10-11T14:05:03Z</time>
      </trkpt>
      <trkpt lat="49.07759" lon="-0.18461">
        <ele>37.3</ele>
        <time>2023-10-11T14:05:04Z</time>
      </trkpt>
      <trkpt lat="49.07765" lon="-0.18465">
        <ele>37.3</ele>
        <time>2023-10-11T14:05:05Z</time>
      </trkpt>
      <trkpt lat="49.07772" lon="-0.1847">
        <ele>37.4</ele>
        <time>2023-10-11T14:05:06Z</time>
      </trkpt>
      <trkpt lat="49.07778" lon="-0.18474">
        <ele>37.5</ele>
        <time>2023-10-11T14:05:07Z</time>
      </trkpt>
      <trkpt lat="49.07784" lon="-0.18479">
        <ele>37.6</ele>
        <time>2023-10-11T14:05:08Z</time>
      </trkpt>
      <trkpt lat="49.0779" lon="-0.18485">
        <ele>37.6</ele>
        <time>2023-10-11T14:05:09Z</time>
      </trkpt>
      <trkpt lat="49.07796" lon="-0.1849">
        <ele>37.6</ele>
        <time>2023-10-11T14:05:10Z</time>
      </trkpt>
      <trkpt lat="49.07803" lon="-0.18495">
        <ele>37.6</ele>
        <time>2023-10-11T14:05:11Z</time>
      </trkpt>
      <trkpt lat="49.07809" lon="-0.18501">
        <ele>37.6</ele>
        <time>2023-10-11T14:05:12Z</time>
      </trkpt>
      <trkpt lat="49.07815" lon="-0.18507">
        <ele>37.6</ele>
        <time>2023-10-11T14:05:13Z</time>
      </trkpt>
      <trkpt lat="49.07821" lon="-0.18513">
        <ele>37.5</ele>
        <time>2023-10-11T14:05:14Z</time>
      </trkpt>
      <trkpt lat="49.07828" lon="-0.18519">
        <ele>37.5</ele>
        <time>2023-10-11T14:05:15Z</time>
      </trkpt>
      <trkpt lat="49.07835" lon="-0.18525">
        <ele>37.5</ele>
        <time>2023-10-11T14:05:16Z</time>
      </trkpt>
      <trkpt lat="49.07841" lon="-0.18532">
        <ele>37.4</ele>
        <time>2023-10-11T14:05:17Z</time>
      </trkpt>
      <trkpt lat="49.07848" lon="-0.18538">
        <ele>37.4</ele>
        <time>2023-10-11T14:05:18Z</time>
      </trkpt>
      <trkpt lat="49.07854" lon="-0.18544">
        <ele>37.3</ele>
        <time>2023-10-11T14:05:19Z</time>
      </trkpt>
      <trkpt lat="49.07861" lon="-0.1855">
        <ele>37.2</ele>
        <time>2023-10-11T14:05:20Z</time>
      </trkpt>
      <trkpt lat="49.07868" lon="-0.18557">
        <ele>37.1</ele>
        <time>2023-10-11T14:05:21Z</time>
      </trkpt>
      <trkpt lat="49.07875" lon="-0.18563">
        <ele>37.1</ele>
        <time>2023-10-11T14:05:22Z</time>
      </trkpt>
      <trkpt lat="49.07882" lon="-0.1857">
        <ele>37</ele>
        <time>2023-10-11T14:05:23Z</time>
      </trkpt>
      <trkpt lat="49.07889" lon="-0.18576">
        <ele>37</ele>
        <time>2023-10-11T14:05:24Z</time>
      </trkpt>
      <trkpt lat="49.07896" lon="-0.18583">
        <ele>36.9</ele>
        <time>2023-10-11T14:05:25Z</time>
      </trkpt>
      <trkpt lat="49.07904" lon="-0.1859">
        <ele>36.9</ele>
        <time>2023-10-11T14:05:26Z</time>
      </trkpt>
      <trkpt lat="49.07911" lon="-0.18597">
        <ele>36.8</ele>
        <time>2023-10-11T14:05:27Z</time>
      </trkpt>
      <trkpt lat="49.07918" lon="-0.18603">
        <ele>36.8</ele>
        <time>2023-10-11T14:05:28Z</time>
      </trkpt>
      <trkpt lat="49.07926" lon="-0.1861">
        <ele>36.8</ele>
        <time>2023-10-11T14:05:29Z</time>
      </trkpt>
      <trkpt lat="49.07933" lon="-0.18617">
        <ele>36.7</ele>
        <time>2023-10-11T14:05:30Z</time>
      </trkpt>
      <trkpt lat="49.0794" lon="-0.18623">
        <ele>36.7</ele>
        <time>2023-10-11T14:05:31Z</time>
      </trkpt>
      <trkpt lat="49.07948" lon="-0.1863">
        <ele>36.7</ele>
        <time>2023-10-11T14:05:32Z</time>
      </trkpt>
      <trkpt lat="49.07955" lon="-0.18637">
        <ele>36.6</ele>
        <time>2023-10-11T14:05:33Z</time>
      </trkpt>
      <trkpt lat="49.07962" lon="-0.18644">
        <ele>36.6</ele>
        <time>2023-10-11T14:05:34Z</time>
      </trkpt>
      <trkpt lat="49.0797" lon="-0.1865">
        <ele>36.5</ele>
        <time>2023-10-11T14:05:35Z</time>
      </trkpt>
      <trkpt lat="49.07977" lon="-0.18658">
        <ele>36.5</ele>
        <time>2023-10-11T14:05:36Z</time>
      </trkpt>
      <trkpt lat="49.07985" lon="-0.18665">
        <ele>36.3</ele>
        <time>2023-10-11T14:05:37Z</time>
      </trkpt>
      <trkpt lat="49.07993" lon="-0.18672">
        <ele>36.2</ele>
        <time>2023-10-11T14:05:38Z</time>
      </trkpt>
      <trkpt lat="49.08001" lon="-0.1868">
        <ele>36</ele>
        <time>2023-10-11T14:05:39Z</time>
      </trkpt>
      <trkpt lat="49.08009" lon="-0.18688">
        <ele>35.9</ele>
        <time>2023-10-11T14:05:40Z</time>
      </trkpt>
      <trkpt lat="49.08017" lon="-0.18696">
        <ele>35.8</ele>
        <time>2023-10-11T14:05:41Z</time>
      </trkpt>
      <trkpt lat="49.08025" lon="-0.18704">
        <ele>35.8</ele>
        <time>2023-10-11T14:05:42Z</time>
      </trkpt>
      <trkpt lat="49.08033" lon="-0.18711">
        <ele>35.7</ele>
        <time>2023-10-11T14:05:43Z</time>
      </trkpt>
      <trkpt lat="49.08041" lon="-0.18719">
        <ele>35.6</ele>
        <time>2023-10-11T14:05:44Z</time>
      </trkpt>
      <trkpt lat="49.0805" lon="-0.18726">
        <ele>35.5</ele>
        <time>2023-10-11T14:05:45Z</time>
      </trkpt>
      <trkpt lat="49.08058" lon="-0.18735">
        <ele>35.4</ele>
        <time>2023-10-11T14:05:46Z</time>
      </trkpt>
      <trkpt lat="49.08066" lon="-0.18743">
        <ele>35.3</ele>
        <time>2023-10-11T14:05:47Z</time>
      </trkpt>
      <trkpt lat="49.08074" lon="-0.18751">
        <ele>35.2</ele>
        <time>2023-10-11T14:05:48Z</time>
      </trkpt>
      <trkpt lat="49.08082" lon="-0.18758">
        <ele>35.2</ele>
        <time>2023-10-11T14:05:49Z</time>
      </trkpt>
      <trkpt lat="49.0809" lon="-0.18766">
        <ele>35.1</ele>
        <time>2023-10-11T14:05:50Z</time>
      </trkpt>
      <trkpt lat="49.08098" lon="-0.18773">
        <ele>35.1</ele>
        <time>2023-10-11T14:05:51Z</time>
      </trkpt>
      <trkpt lat="49.08106" lon="-0.1878">
        <ele>35</ele>
        <time>2023-10-11T14:05:52Z</time>
      </trkpt>
      <trkpt lat="49.08114" lon="-0.18788">
        <ele>35</ele>
        <time>2023-10-11T14:05:53Z</time>
      </trkpt>
      <trkpt lat="49.08122" lon="-0.18795">
        <ele>35</ele>
        <time>2023-10-11T14:05:54Z</time>
      </trkpt>
      <trkpt lat="49.0813" lon="-0.18802">
        <ele>35</ele>
        <time>2023-10-11T14:05:55Z</time>
      </trkpt>
      <trkpt lat="49.08138" lon="-0.1881">
        <ele>35</ele>
        <time>2023-10-11T14:05:56Z</time>
      </trkpt>
      <trkpt lat="49.08147" lon="-0.18818">
        <ele>35</ele>
        <time>2023-10-11T14:05:57Z</time>
      </trkpt>
      <trkpt lat="49.08155" lon="-0.18826">
        <ele>35</ele>
        <time>2023-10-11T14:05:58Z</time>
      </trkpt>
      <trkpt lat="49.08163" lon="-0.18834">
        <ele>35.1</ele>
        <time>2023-10-11T14:05:59Z</time>
      </trkpt>
      <trkpt lat="49.08172" lon="-0.18842">
        <ele>35.2</ele>
        <time>2023-10-11T14:06:00Z</time>
      </trkpt>
      <trkpt lat="49.0818" lon="-0.1885">
        <ele>35.3</ele>
        <time>2023-10-11T14:06:01Z</time>
      </trkpt>
      <trkpt lat="49.08188" lon="-0.18858">
        <ele>35.5</ele>
        <time>2023-10-11T14:06:02Z</time>
      </trkpt>
      <trkpt lat="49.08196" lon="-0.18866">
        <ele>35.6</ele>
        <time>2023-10-11T14:06:03Z</time>
      </trkpt>
      <trkpt lat="49.08204" lon="-0.18873">
        <ele>35.8</ele>
        <time>2023-10-11T14:06:04Z</time>
      </trkpt>
      <trkpt lat="49.08211" lon="-0.1888">
        <ele>36</ele>
        <time>2023-10-11T14:06:05Z</time>
      </trkpt>
      <trkpt lat="49.08218" lon="-0.18887">
        <ele>36</ele>
        <time>2023-10-11T14:06:06Z</time>
      </trkpt>
      <trkpt lat="49.08226" lon="-0.18894">
        <ele>36</ele>
        <time>2023-10-11T14:06:07Z</time>
      </trkpt>
      <trkpt lat="49.08233" lon="-0.18901">
        <ele>36.1</ele>
        <time>2023-10-11T14:06:08Z</time>
      </trkpt>
      <trkpt lat="49.0824" lon="-0.18908">
        <ele>36.2</ele>
        <time>2023-10-11T14:06:09Z</time>
      </trkpt>
      <trkpt lat="49.08248" lon="-0.18915">
        <ele>36.4</ele>
        <time>2023-10-11T14:06:10Z</time>
      </trkpt>
      <trkpt lat="49.08255" lon="-0.18922">
        <ele>36.5</ele>
        <time>2023-10-11T14:06:11Z</time>
      </trkpt>
      <trkpt lat="49.08262" lon="-0.18929">
        <ele>36.7</ele>
        <time>2023-10-11T14:06:12Z</time>
      </trkpt>
      <trkpt lat="49.0827" lon="-0.18936">
        <ele>36.8</ele>
        <time>2023-10-11T14:06:13Z</time>
      </trkpt>
      <trkpt lat="49.08277" lon="-0.18943">
        <ele>37</ele>
        <time>2023-10-11T14:06:14Z</time>
      </trkpt>
      <trkpt lat="49.08284" lon="-0.1895">
        <ele>37.2</ele>
        <time>2023-10-11T14:06:15Z</time>
      </trkpt>
      <trkpt lat="49.08292" lon="-0.18957">
        <ele>37.4</ele>
        <time>2023-10-11T14:06:16Z</time>
      </trkpt>
      <trkpt lat="49.08299" lon="-0.18964">
        <ele>37.6</ele>
        <time>2023-10-11T14:06:17Z</time>
      </trkpt>
      <trkpt lat="49.08307" lon="-0.18971">
        <ele>37.9</ele>
        <time>2023-10-11T14:06:18Z</time>
      </trkpt>
      <trkpt lat="49.08314" lon="-0.18978">
        <ele>38.2</ele>
        <time>2023-10-11T14:06:19Z</time>
      </trkpt>
      <trkpt lat="49.08321" lon="-0.18985">
        <ele>38.5</ele>
        <time>2023-10-11T14:06:20Z</time>
      </trkpt>
      <trkpt lat="49.08329" lon="-0.18991">
        <ele>38.8</ele>
        <time>2023-10-11T14:06:21Z</time>
      </trkpt>
      <trkpt lat="49.08336" lon="-0.18999">
        <ele>39.1</ele>
        <time>2023-10-11T14:06:22Z</time>
      </trkpt>
      <trkpt lat="49.08343" lon="-0.19005">
        <ele>39.5</ele>
        <time>2023-10-11T14:06:23Z</time>
      </trkpt>
      <trkpt lat="49.08351" lon="-0.19012">
        <ele>39.8</ele>
        <time>2023-10-11T14:06:24Z</time>
      </trkpt>
      <trkpt lat="49.08358" lon="-0.19018">
        <ele>40.2</ele>
        <time>2023-10-11T14:06:25Z</time>
      </trkpt>
      <trkpt lat="49.08365" lon="-0.19025">
        <ele>40.5</ele>
        <time>2023-10-11T14:06:26Z</time>
      </trkpt>
      <trkpt lat="49.08372" lon="-0.19032">
        <ele>40.9</ele>
        <time>2023-10-11T14:06:27Z</time>
      </trkpt>
      <trkpt lat="49.08379" lon="-0.19039">
        <ele>41.2</ele>
        <time>2023-10-11T14:06:28Z</time>
      </trkpt>
      <trkpt lat="49.08386" lon="-0.19045">
        <ele>41.6</ele>
        <time>2023-10-11T14:06:29Z</time>
      </trkpt>
      <trkpt lat="49.08393" lon="-0.19051">
        <ele>41.8</ele>
        <time>2023-10-11T14:06:30Z</time>
      </trkpt>
      <trkpt lat="49.084" lon="-0.19056">
        <ele>42.1</ele>
        <time>2023-10-11T14:06:31Z</time>
      </trkpt>
      <trkpt lat="49.08407" lon="-0.19061">
        <ele>42.3</ele>
        <time>2023-10-11T14:06:32Z</time>
      </trkpt>
      <trkpt lat="49.08414" lon="-0.19066">
        <ele>42.5</ele>
        <time>2023-10-11T14:06:33Z</time>
      </trkpt>
      <trkpt lat="49.08422" lon="-0.19071">
        <ele>42.7</ele>
        <time>2023-10-11T14:06:34Z</time>
      </trkpt>
      <trkpt lat="49.08429" lon="-0.19075">
        <ele>42.8</ele>
        <time>2023-10-11T14:06:35Z</time>
      </trkpt>
      <trkpt lat="49.08437" lon="-0.1908">
        <ele>42.8</ele>
        <time>2023-10-11T14:06:36Z</time>
      </trkpt>
      <trkpt lat="49.08445" lon="-0.19084">
        <ele>42.8</ele>
        <time>2023-10-11T14:06:37Z</time>
      </trkpt>
      <trkpt lat="49.08453" lon="-0.19088">
        <ele>42.7</ele>
        <time>2023-10-11T14:06:38Z</time>
      </trkpt>
      <trkpt lat="49.08461" lon="-0.19093">
        <ele>42.6</ele>
        <time>2023-10-11T14:06:39Z</time>
      </trkpt>
      <trkpt lat="49.08469" lon="-0.19098">
        <ele>42.4</ele>
        <time>2023-10-11T14:06:40Z</time>
      </trkpt>
      <trkpt lat="49.08476" lon="-0.19102">
        <ele>42.2</ele>
        <time>2023-10-11T14:06:41Z</time>
      </trkpt>
      <trkpt lat="49.08482" lon="-0.19105">
        <ele>42.1</ele>
        <time>2023-10-11T14:06:42Z</time>
      </trkpt>
      <trkpt lat="49.08487" lon="-0.19108">
        <ele>42</ele>
        <time>2023-10-11T14:06:43Z</time>
      </trkpt>
      <trkpt lat="49.08491" lon="-0.1911">
        <ele>41.8</ele>
        <time>2023-10-11T14:06:44Z</time>
      </trkpt>
      <trkpt lat="49.08495" lon="-0.19112">
        <ele>41.8</ele>
        <time>2023-10-11T14:06:45Z</time>
      </trkpt>
      <trkpt lat="49.08498" lon="-0.19113">
        <ele>41.7</ele>
        <time>2023-10-11T14:06:46Z</time>
      </trkpt>
      <trkpt lat="49.08501" lon="-0.19115">
        <ele>41.6</ele>
        <time>2023-10-11T14:06:47Z</time>
      </trkpt>
      <trkpt lat="49.08503" lon="-0.19116">
        <ele>41.5</ele>
        <time>2023-10-11T14:06:48Z</time>
      </trkpt>
      <trkpt lat="49.08504" lon="-0.19117">
        <ele>41.5</ele>
        <time>2023-10-11T14:06:49Z</time>
      </trkpt>
      <trkpt lat="49.08504" lon="-0.19117">
        <ele>41.5</ele>
        <time>2023-10-11T14:06:50Z</time>
      </trkpt>
      <trkpt lat="49.08504" lon="-0.19118">
        <ele>41.5</ele>
        <time>2023-10-11T14:06:51Z</time>
      </trkpt>
      <trkpt lat="49.08504" lon="-0.19118">
        <ele>41.5</ele>
        <time>2023-10-11T14:06:52Z</time>
      </trkpt>
      <trkpt lat="49.08504" lon="-0.19117">
        <ele>41.5</ele>
        <time>2023-10-11T14:06:53Z</time>
      </trkpt>
      <trkpt lat="49.08504" lon="-0.19117">
        <ele>41.5</ele>
        <time>2023-10-11T14:06:54Z</time>
      </trkpt>
      <trkpt lat="49.08504" lon="-0.19117">
        <ele>41.5</ele>
        <time>2023-10-11T14:06:55Z</time>
      </trkpt>
      <trkpt lat="49.08504" lon="-0.19116">
        <ele>41.5</ele>
        <time>2023-10-11T14:06:56Z</time>
      </trkpt>
      <trkpt lat="49.08504" lon="-0.19116">
        <ele>41.5</ele>
        <time>2023-10-11T14:06:57Z</time>
      </trkpt>
      <trkpt lat="49.08504" lon="-0.19116">
        <ele>41.5</ele>
        <time>2023-10-11T14:06:58Z</time>
      </trkpt>
      <trkpt lat="49.08504" lon="-0.19116">
        <ele>41.5</ele>
        <time>2023-10-11T14:06:59Z</time>
      </trkpt>
      <trkpt lat="49.08504" lon="-0.19116">
        <ele>41.5</ele>
        <time>2023-10-11T14:07:00Z</time>
      </trkpt>
      <trkpt lat="49.08501" lon="-0.19116">
        <ele>41.4</ele>
        <time>2023-10-11T14:07:09Z</time>
      </trkpt>
      <trkpt lat="49.08499" lon="-0.19115">
        <ele>41.3</ele>
        <time>2023-10-11T14:07:10Z</time>
      </trkpt>
      <trkpt lat="49.08499" lon="-0.19115">
        <ele>41.3</ele>
        <time>2023-10-11T14:07:11Z</time>
      </trkpt>
      <trkpt lat="49.08499" lon="-0.19115">
        <ele>41.3</ele>
        <time>2023-10-11T14:07:12Z</time>
      </trkpt>
      <trkpt lat="49.08499" lon="-0.19115">
        <ele>41.3</ele>
        <time>2023-10-11T14:07:13Z</time>
      </trkpt>
      <trkpt lat="49.08499" lon="-0.19115">
        <ele>41.3</ele>
        <time>2023-10-11T14:07:14Z</time>
      </trkpt>
      <trkpt lat="49.08499" lon="-0.19115">
        <ele>41.3</ele>
        <time>2023-10-11T14:07:15Z</time>
      </trkpt>
      <trkpt lat="49.08499" lon="-0.19115">
        <ele>41.3</ele>
        <time>2023-10-11T14:07:16Z</time>
      </trkpt>
      <trkpt lat="49.08499" lon="-0.19115">
        <ele>41.3</ele>
        <time>2023-10-11T14:07:17Z</time>
      </trkpt>
      <trkpt lat="49.08499" lon="-0.19115">
        <ele>41.3</ele>
        <time>2023-10-11T14:07:18Z</time>
      </trkpt>
      <trkpt lat="49.08499" lon="-0.19115">
        <ele>41.3</ele>
        <time>2023-10-11T14:07:19Z</time>
      </trkpt>
      <trkpt lat="49.08499" lon="-0.19115">
        <ele>41.3</ele>
        <time>2023-10-11T14:07:20Z</time>
      </trkpt>
      <trkpt lat="49.08499" lon="-0.19115">
        <ele>41.3</ele>
        <time>2023-10-11T14:07:21Z</time>
      </trkpt>
      <trkpt lat="49.08498" lon="-0.19114">
        <ele>41.3</ele>
        <time>2023-10-11T14:07:29Z</time>
      </trkpt>
      <trkpt lat="49.08497" lon="-0.19114">
        <ele>41.3</ele>
        <time>2023-10-11T14:07:30Z</time>
      </trkpt>
      <trkpt lat="49.08497" lon="-0.19113">
        <ele>41.2</ele>
        <time>2023-10-11T14:07:31Z</time>
      </trkpt>
      <trkpt lat="49.08496" lon="-0.19112">
        <ele>41.2</ele>
        <time>2023-10-11T14:07:32Z</time>
      </trkpt>
      <trkpt lat="49.08496" lon="-0.19112">
        <ele>41.2</ele>
        <time>2023-10-11T14:07:33Z</time>
      </trkpt>
      <trkpt lat="49.08496" lon="-0.19112">
        <ele>41.2</ele>
        <time>2023-10-11T14:07:34Z</time>
      </trkpt>
      <trkpt lat="49.08496" lon="-0.19112">
        <ele>41.2</ele>
        <time>2023-10-11T14:07:35Z</time>
      </trkpt>
      <trkpt lat="49.08496" lon="-0.19112">
        <ele>41.2</ele>
        <time>2023-10-11T14:07:36Z</time>
      </trkpt>
      <trkpt lat="49.08496" lon="-0.19112">
        <ele>41.2</ele>
        <time>2023-10-11T14:07:37Z</time>
      </trkpt>
      <trkpt lat="49.08496" lon="-0.19112">
        <ele>41.2</ele>
        <time>2023-10-11T14:07:38Z</time>
      </trkpt>
      <trkpt lat="49.08496" lon="-0.19112">
        <ele>41.2</ele>
        <time>2023-10-11T14:07:39Z</time>
      </trkpt>
      <trkpt lat="49.08496" lon="-0.19112">
        <ele>41.2</ele>
        <time>2023-10-11T14:07:40Z</time>
      </trkpt>
      <trkpt lat="49.08496" lon="-0.19112">
        <ele>41.2</ele>
        <time>2023-10-11T14:07:41Z</time>
      </trkpt>
      <trkpt lat="49.08496" lon="-0.19111">
        <ele>41.2</ele>
        <time>2023-10-11T14:07:42Z</time>
      </trkpt>
      <trkpt lat="49.08496" lon="-0.19111">
        <ele>41.2</ele>
        <time>2023-10-11T14:07:43Z</time>
      </trkpt>
      <trkpt lat="49.08496" lon="-0.19112">
        <ele>41.1</ele>
        <time>2023-10-11T14:11:36Z</time>
      </trkpt>
      <trkpt lat="49.08497" lon="-0.19113">
        <ele>41.1</ele>
        <time>2023-10-11T14:11:37Z</time>
      </trkpt>
      <trkpt lat="49.08498" lon="-0.19112">
        <ele>41.1</ele>
        <time>2023-10-11T14:11:38Z</time>
      </trkpt>
      <trkpt lat="49.085" lon="-0.19112">
        <ele>41</ele>
        <time>2023-10-11T14:11:39Z</time>
      </trkpt>
      <trkpt lat="49.08501" lon="-0.19112">
        <ele>41</ele>
        <time>2023-10-11T14:11:40Z</time>
      </trkpt>
      <trkpt lat="49.08501" lon="-0.19112">
        <ele>41</ele>
        <time>2023-10-11T14:11:41Z</time>
      </trkpt>
      <trkpt lat="49.08501" lon="-0.19112">
        <ele>41</ele>
        <time>2023-10-11T14:11:42Z</time>
      </trkpt>
      <trkpt lat="49.08502" lon="-0.19112">
        <ele>41</ele>
        <time>2023-10-11T14:11:43Z</time>
      </trkpt>
      <trkpt lat="49.08503" lon="-0.19113">
        <ele>41</ele>
        <time>2023-10-11T14:11:44Z</time>
      </trkpt>
      <trkpt lat="49.08503" lon="-0.19113">
        <ele>40.9</ele>
        <time>2023-10-11T14:11:45Z</time>
      </trkpt>
      <trkpt lat="49.08504" lon="-0.19114">
        <ele>40.9</ele>
        <time>2023-10-11T14:11:46Z</time>
      </trkpt>
      <trkpt lat="49.08504" lon="-0.19114">
        <ele>40.9</ele>
        <time>2023-10-11T14:11:47Z</time>
      </trkpt>
      <trkpt lat="49.08504" lon="-0.19114">
        <ele>40.9</ele>
        <time>2023-10-11T14:11:48Z</time>
      </trkpt>
      <trkpt lat="49.08505" lon="-0.19115">
        <ele>40.9</ele>
        <time>2023-10-11T14:11:49Z</time>
      </trkpt>
      <trkpt lat="49.08505" lon="-0.19115">
        <ele>40.9</ele>
        <time>2023-10-11T14:11:50Z</time>
      </trkpt>
      <trkpt lat="49.08506" lon="-0.19115">
        <ele>40.9</ele>
        <time>2023-10-11T14:11:51Z</time>
      </trkpt>
      <trkpt lat="49.08506" lon="-0.19116">
        <ele>40.8</ele>
        <time>2023-10-11T14:11:52Z</time>
      </trkpt>
      <trkpt lat="49.08506" lon="-0.19116">
        <ele>40.8</ele>
        <time>2023-10-11T14:11:53Z</time>
      </trkpt>
      <trkpt lat="49.08507" lon="-0.19116">
        <ele>40.8</ele>
        <time>2023-10-11T14:11:54Z</time>
      </trkpt>
      <trkpt lat="49.08507" lon="-0.19117">
        <ele>40.8</ele>
        <time>2023-10-11T14:11:55Z</time>
      </trkpt>
      <trkpt lat="49.08507" lon="-0.19117">
        <ele>40.8</ele>
        <time>2023-10-11T14:11:56Z</time>
      </trkpt>
      <trkpt lat="49.08508" lon="-0.19117">
        <ele>40.8</ele>
        <time>2023-10-11T14:11:57Z</time>
      </trkpt>
      <trkpt lat="49.08508" lon="-0.19118">
        <ele>40.8</ele>
        <time>2023-10-11T14:12:04Z</time>
      </trkpt>
      <trkpt lat="49.08508" lon="-0.19118">
        <ele>40.8</ele>
        <time>2023-10-11T14:12:05Z</time>
      </trkpt>
      <trkpt lat="49.08509" lon="-0.19118">
        <ele>40.7</ele>
        <time>2023-10-11T14:12:06Z</time>
      </trkpt>
      <trkpt lat="49.08511" lon="-0.1912">
        <ele>40.7</ele>
        <time>2023-10-11T14:12:07Z</time>
      </trkpt>
      <trkpt lat="49.08515" lon="-0.19122">
        <ele>40.6</ele>
        <time>2023-10-11T14:12:08Z</time>
      </trkpt>
      <trkpt lat="49.08518" lon="-0.19124">
        <ele>40.5</ele>
        <time>2023-10-11T14:12:09Z</time>
      </trkpt>
      <trkpt lat="49.08522" lon="-0.19127">
        <ele>40.4</ele>
        <time>2023-10-11T14:12:10Z</time>
      </trkpt>
      <trkpt lat="49.08526" lon="-0.19129">
        <ele>40.3</ele>
        <time>2023-10-11T14:12:11Z</time>
      </trkpt>
      <trkpt lat="49.0853" lon="-0.19132">
        <ele>40.2</ele>
        <time>2023-10-11T14:12:12Z</time>
      </trkpt>
      <trkpt lat="49.08534" lon="-0.19134">
        <ele>40</ele>
        <time>2023-10-11T14:12:13Z</time>
      </trkpt>
      <trkpt lat="49.08538" lon="-0.19137">
        <ele>39.9</ele>
        <time>2023-10-11T14:12:14Z</time>
      </trkpt>
      <trkpt lat="49.08543" lon="-0.19139">
        <ele>39.8</ele>
        <time>2023-10-11T14:12:15Z</time>
      </trkpt>
      <trkpt lat="49.08547" lon="-0.19142">
        <ele>39.7</ele>
        <time>2023-10-11T14:12:16Z</time>
      </trkpt>
      <trkpt lat="49.08552" lon="-0.19144">
        <ele>39.6</ele>
        <time>2023-10-11T14:12:17Z</time>
      </trkpt>
      <trkpt lat="49.08556" lon="-0.19146">
        <ele>39.5</ele>
        <time>2023-10-11T14:12:18Z</time>
      </trkpt>
      <trkpt lat="49.08561" lon="-0.19149">
        <ele>39.4</ele>
        <time>2023-10-11T14:12:19Z</time>
      </trkpt>
      <trkpt lat="49.08566" lon="-0.19152">
        <ele>39.3</ele>
        <time>2023-10-11T14:12:20Z</time>
      </trkpt>
      <trkpt lat="49.08571" lon="-0.19155">
        <ele>39.2</ele>
        <time>2023-10-11T14:12:21Z</time>
      </trkpt>
      <trkpt lat="49.08576" lon="-0.19157">
        <ele>39.1</ele>
        <time>2023-10-11T14:12:22Z</time>
      </trkpt>
      <trkpt lat="49.08581" lon="-0.1916">
        <ele>39</ele>
        <time>2023-10-11T14:12:23Z</time>
      </trkpt>
      <trkpt lat="49.08586" lon="-0.19163">
        <ele>38.9</ele>
        <time>2023-10-11T14:12:24Z</time>
      </trkpt>
      <trkpt lat="49.08591" lon="-0.19166">
        <ele>38.7</ele>
        <time>2023-10-11T14:12:25Z</time>
      </trkpt>
      <trkpt lat="49.08596" lon="-0.19169">
        <ele>38.6</ele>
        <time>2023-10-11T14:12:26Z</time>
      </trkpt>
      <trkpt lat="49.08601" lon="-0.19172">
        <ele>38.5</ele>
        <time>2023-10-11T14:12:27Z</time>
      </trkpt>
      <trkpt lat="49.08607" lon="-0.19175">
        <ele>38.3</ele>
        <time>2023-10-11T14:12:28Z</time>
      </trkpt>
      <trkpt lat="49.08612" lon="-0.19178">
        <ele>38.2</ele>
        <time>2023-10-11T14:12:29Z</time>
      </trkpt>
      <trkpt lat="49.08618" lon="-0.19181">
        <ele>38.1</ele>
        <time>2023-10-11T14:12:30Z</time>
      </trkpt>
      <trkpt lat="49.08623" lon="-0.19185">
        <ele>38</ele>
        <time>2023-10-11T14:12:31Z</time>
      </trkpt>
      <trkpt lat="49.08629" lon="-0.19188">
        <ele>37.9</ele>
        <time>2023-10-11T14:12:32Z</time>
      </trkpt>
      <trkpt lat="49.08635" lon="-0.19192">
        <ele>37.7</ele>
        <time>2023-10-11T14:12:33Z</time>
      </trkpt>
      <trkpt lat="49.0864" lon="-0.19195">
        <ele>37.6</ele>
        <time>2023-10-11T14:12:34Z</time>
      </trkpt>
      <trkpt lat="49.08646" lon="-0.19199">
        <ele>37.5</ele>
        <time>2023-10-11T14:12:35Z</time>
      </trkpt>
      <trkpt lat="49.08652" lon="-0.19202">
        <ele>37.4</ele>
        <time>2023-10-11T14:12:36Z</time>
      </trkpt>
      <trkpt lat="49.08658" lon="-0.19205">
        <ele>37.3</ele>
        <time>2023-10-11T14:12:37Z</time>
      </trkpt>
      <trkpt lat="49.08664" lon="-0.19209">
        <ele>37.2</ele>
        <time>2023-10-11T14:12:38Z</time>
      </trkpt>
      <trkpt lat="49.08671" lon="-0.19213">
        <ele>37.1</ele>
        <time>2023-10-11T14:12:39Z</time>
      </trkpt>
      <trkpt lat="49.08677" lon="-0.19216">
        <ele>37</ele>
        <time>2023-10-11T14:12:40Z</time>
      </trkpt>
      <trkpt lat="49.08683" lon="-0.1922">
        <ele>36.8</ele>
        <time>2023-10-11T14:12:41Z</time>
      </trkpt>
      <trkpt lat="49.0869" lon="-0.19223">
        <ele>36.7</ele>
        <time>2023-10-11T14:12:42Z</time>
      </trkpt>
      <trkpt lat="49.08697" lon="-0.19227">
        <ele>36.6</ele>
        <time>2023-10-11T14:12:43Z</time>
      </trkpt>
      <trkpt lat="49.08704" lon="-0.1923">
        <ele>36.5</ele>
        <time>2023-10-11T14:12:44Z</time>
      </trkpt>
      <trkpt lat="49.08711" lon="-0.19234">
        <ele>36.3</ele>
        <time>2023-10-11T14:12:45Z</time>
      </trkpt>
      <trkpt lat="49.08718" lon="-0.19238">
        <ele>36.2</ele>
        <time>2023-10-11T14:12:46Z</time>
      </trkpt>
      <trkpt lat="49.08725" lon="-0.19241">
        <ele>36.1</ele>
        <time>2023-10-11T14:12:47Z</time>
      </trkpt>
      <trkpt lat="49.08732" lon="-0.19243">
        <ele>36</ele>
        <time>2023-10-11T14:12:48Z</time>
      </trkpt>
      <trkpt lat="49.08739" lon="-0.19245">
        <ele>35.8</ele>
        <time>2023-10-11T14:12:49Z</time>
      </trkpt>
      <trkpt lat="49.08746" lon="-0.19247">
        <ele>35.7</ele>
        <time>2023-10-11T14:12:50Z</time>
      </trkpt>
      <trkpt lat="49.08754" lon="-0.19249">
        <ele>35.6</ele>
        <time>2023-10-11T14:12:51Z</time>
      </trkpt>
      <trkpt lat="49.08761" lon="-0.19251">
        <ele>35.5</ele>
        <time>2023-10-11T14:12:52Z</time>
      </trkpt>
      <trkpt lat="49.08768" lon="-0.19253">
        <ele>35.4</ele>
        <time>2023-10-11T14:12:53Z</time>
      </trkpt>
      <trkpt lat="49.08776" lon="-0.19254">
        <ele>35.3</ele>
        <time>2023-10-11T14:12:54Z</time>
      </trkpt>
      <trkpt lat="49.08783" lon="-0.19256">
        <ele>35.2</ele>
        <time>2023-10-11T14:12:55Z</time>
      </trkpt>
      <trkpt lat="49.0879" lon="-0.19257">
        <ele>35.1</ele>
        <time>2023-10-11T14:12:56Z</time>
      </trkpt>
      <trkpt lat="49.08798" lon="-0.19258">
        <ele>35</ele>
        <time>2023-10-11T14:12:57Z</time>
      </trkpt>
      <trkpt lat="49.08806" lon="-0.19259">
        <ele>34.9</ele>
        <time>2023-10-11T14:12:58Z</time>
      </trkpt>
      <trkpt lat="49.08814" lon="-0.1926">
        <ele>34.9</ele>
        <time>2023-10-11T14:12:59Z</time>
      </trkpt>
      <trkpt lat="49.08822" lon="-0.19261">
        <ele>34.8</ele>
        <time>2023-10-11T14:13:00Z</time>
      </trkpt>
      <trkpt lat="49.0883" lon="-0.19261">
        <ele>34.7</ele>
        <time>2023-10-11T14:13:01Z</time>
      </trkpt>
      <trkpt lat="49.08838" lon="-0.19262">
        <ele>34.7</ele>
        <time>2023-10-11T14:13:02Z</time>
      </trkpt>
      <trkpt lat="49.08847" lon="-0.19262">
        <ele>34.6</ele>
        <time>2023-10-11T14:13:03Z</time>
      </trkpt>
      <trkpt lat="49.08856" lon="-0.19262">
        <ele>34.5</ele>
        <time>2023-10-11T14:13:04Z</time>
      </trkpt>
      <trkpt lat="49.08864" lon="-0.19261">
        <ele>34.4</ele>
        <time>2023-10-11T14:13:05Z</time>
      </trkpt>
      <trkpt lat="49.08873" lon="-0.1926">
        <ele>34.4</ele>
        <time>2023-10-11T14:13:06Z</time>
      </trkpt>
      <trkpt lat="49.08881" lon="-0.1926">
        <ele>34.3</ele>
        <time>2023-10-11T14:13:07Z</time>
      </trkpt>
      <trkpt lat="49.0889" lon="-0.1926">
        <ele>34.3</ele>
        <time>2023-10-11T14:13:08Z</time>
      </trkpt>
      <trkpt lat="49.08898" lon="-0.19261">
        <ele>34.2</ele>
        <time>2023-10-11T14:13:09Z</time>
      </trkpt>
      <trkpt lat="49.08907" lon="-0.19262">
        <ele>34.2</ele>
        <time>2023-10-11T14:13:10Z</time>
      </trkpt>
      <trkpt lat="49.08915" lon="-0.19262">
        <ele>34.1</ele>
        <time>2023-10-11T14:13:11Z</time>
      </trkpt>
      <trkpt lat="49.08923" lon="-0.19261">
        <ele>34.1</ele>
        <time>2023-10-11T14:13:12Z</time>
      </trkpt>
      <trkpt lat="49.08931" lon="-0.1926">
        <ele>34</ele>
        <time>2023-10-11T14:13:13Z</time>
      </trkpt>
      <trkpt lat="49.08938" lon="-0.1926">
        <ele>34</ele>
        <time>2023-10-11T14:13:14Z</time>
      </trkpt>
      <trkpt lat="49.08946" lon="-0.1926">
        <ele>33.9</ele>
        <time>2023-10-11T14:13:15Z</time>
      </trkpt>
      <trkpt lat="49.08954" lon="-0.1926">
        <ele>33.9</ele>
        <time>2023-10-11T14:13:16Z</time>
      </trkpt>
      <trkpt lat="49.08962" lon="-0.1926">
        <ele>33.8</ele>
        <time>2023-10-11T14:13:17Z</time>
      </trkpt>
      <trkpt lat="49.0897" lon="-0.1926">
        <ele>33.7</ele>
        <time>2023-10-11T14:13:18Z</time>
      </trkpt>
      <trkpt lat="49.08978" lon="-0.1926">
        <ele>33.6</ele>
        <time>2023-10-11T14:13:19Z</time>
      </trkpt>
      <trkpt lat="49.08986" lon="-0.1926">
        <ele>33.5</ele>
        <time>2023-10-11T14:13:20Z</time>
      </trkpt>
      <trkpt lat="49.08994" lon="-0.1926">
        <ele>33.4</ele>
        <time>2023-10-11T14:13:21Z</time>
      </trkpt>
      <trkpt lat="49.09002" lon="-0.1926">
        <ele>33.3</ele>
        <time>2023-10-11T14:13:22Z</time>
      </trkpt>
      <trkpt lat="49.0901" lon="-0.1926">
        <ele>33.2</ele>
        <time>2023-10-11T14:13:23Z</time>
      </trkpt>
      <trkpt lat="49.09018" lon="-0.1926">
        <ele>33.2</ele>
        <time>2023-10-11T14:13:24Z</time>
      </trkpt>
      <trkpt lat="49.09026" lon="-0.19259">
        <ele>33.1</ele>
        <time>2023-10-11T14:13:25Z</time>
      </trkpt>
      <trkpt lat="49.09033" lon="-0.19259">
        <ele>33</ele>
        <time>2023-10-11T14:13:26Z</time>
      </trkpt>
      <trkpt lat="49.09041" lon="-0.19259">
        <ele>32.9</ele>
        <time>2023-10-11T14:13:27Z</time>
      </trkpt>
      <trkpt lat="49.09048" lon="-0.19259">
        <ele>32.8</ele>
        <time>2023-10-11T14:13:28Z</time>
      </trkpt>
      <trkpt lat="49.09056" lon="-0.19259">
        <ele>32.7</ele>
        <time>2023-10-11T14:13:29Z</time>
      </trkpt>
      <trkpt lat="49.09063" lon="-0.19259">
        <ele>32.6</ele>
        <time>2023-10-11T14:13:30Z</time>
      </trkpt>
      <trkpt lat="49.09071" lon="-0.19259">
        <ele>32.5</ele>
        <time>2023-10-11T14:13:31Z</time>
      </trkpt>
      <trkpt lat="49.09078" lon="-0.1926">
        <ele>32.4</ele>
        <time>2023-10-11T14:13:32Z</time>
      </trkpt>
      <trkpt lat="49.09085" lon="-0.1926">
        <ele>32.3</ele>
        <time>2023-10-11T14:13:33Z</time>
      </trkpt>
      <trkpt lat="49.09093" lon="-0.1926">
        <ele>32.1</ele>
        <time>2023-10-11T14:13:34Z</time>
      </trkpt>
      <trkpt lat="49.091" lon="-0.19261">
        <ele>32</ele>
        <time>2023-10-11T14:13:35Z</time>
      </trkpt>
      <trkpt lat="49.09108" lon="-0.19261">
        <ele>31.8</ele>
        <time>2023-10-11T14:13:36Z</time>
      </trkpt>
      <trkpt lat="49.09115" lon="-0.19262">
        <ele>31.7</ele>
        <time>2023-10-11T14:13:37Z</time>
      </trkpt>
      <trkpt lat="49.09122" lon="-0.19264">
        <ele>31.6</ele>
        <time>2023-10-11T14:13:38Z</time>
      </trkpt>
      <trkpt lat="49.09128" lon="-0.19268">
        <ele>31.5</ele>
        <time>2023-10-11T14:13:39Z</time>
      </trkpt>
      <trkpt lat="49.09135" lon="-0.1927">
        <ele>31.3</ele>
        <time>2023-10-11T14:13:40Z</time>
      </trkpt>
      <trkpt lat="49.09143" lon="-0.19268">
        <ele>31.1</ele>
        <time>2023-10-11T14:13:41Z</time>
      </trkpt>
      <trkpt lat="49.09148" lon="-0.19261">
        <ele>31</ele>
        <time>2023-10-11T14:13:42Z</time>
      </trkpt>
      <trkpt lat="49.09153" lon="-0.19252">
        <ele>30.9</ele>
        <time>2023-10-11T14:13:43Z</time>
      </trkpt>
      <trkpt lat="49.09158" lon="-0.19243">
        <ele>30.7</ele>
        <time>2023-10-11T14:13:44Z</time>
      </trkpt>
      <trkpt lat="49.09162" lon="-0.19234">
        <ele>30.6</ele>
        <time>2023-10-11T14:13:45Z</time>
      </trkpt>
      <trkpt lat="49.09166" lon="-0.19225">
        <ele>30.5</ele>
        <time>2023-10-11T14:13:46Z</time>
      </trkpt>
      <trkpt lat="49.0917" lon="-0.19215">
        <ele>30.5</ele>
        <time>2023-10-11T14:13:47Z</time>
      </trkpt>
      <trkpt lat="49.09174" lon="-0.19204">
        <ele>30.4</ele>
        <time>2023-10-11T14:13:48Z</time>
      </trkpt>
      <trkpt lat="49.09179" lon="-0.19194">
        <ele>30.3</ele>
        <time>2023-10-11T14:13:49Z</time>
      </trkpt>
      <trkpt lat="49.09184" lon="-0.19186">
        <ele>30.3</ele>
        <time>2023-10-11T14:13:50Z</time>
      </trkpt>
      <trkpt lat="49.09192" lon="-0.19181">
        <ele>30.2</ele>
        <time>2023-10-11T14:13:51Z</time>
      </trkpt>
      <trkpt lat="49.092" lon="-0.1918">
        <ele>30.1</ele>
        <time>2023-10-11T14:13:52Z</time>
      </trkpt>
      <trkpt lat="49.09208" lon="-0.19182">
        <ele>30</ele>
        <time>2023-10-11T14:13:53Z</time>
      </trkpt>
      <trkpt lat="49.09215" lon="-0.19185">
        <ele>29.9</ele>
        <time>2023-10-11T14:13:54Z</time>
      </trkpt>
      <trkpt lat="49.09223" lon="-0.19191">
        <ele>29.9</ele>
        <time>2023-10-11T14:13:55Z</time>
      </trkpt>
      <trkpt lat="49.0923" lon="-0.19197">
        <ele>29.8</ele>
        <time>2023-10-11T14:13:56Z</time>
      </trkpt>
      <trkpt lat="49.09238" lon="-0.19204">
        <ele>29.8</ele>
        <time>2023-10-11T14:13:57Z</time>
      </trkpt>
      <trkpt lat="49.09246" lon="-0.1921">
        <ele>29.7</ele>
        <time>2023-10-11T14:13:58Z</time>
      </trkpt>
      <trkpt lat="49.09253" lon="-0.19217">
        <ele>29.7</ele>
        <time>2023-10-11T14:13:59Z</time>
      </trkpt>
      <trkpt lat="49.09261" lon="-0.19222">
        <ele>29.7</ele>
        <time>2023-10-11T14:14:00Z</time>
      </trkpt>
      <trkpt lat="49.09269" lon="-0.19225">
        <ele>29.6</ele>
        <time>2023-10-11T14:14:01Z</time>
      </trkpt>
      <trkpt lat="49.09278" lon="-0.19227">
        <ele>29.6</ele>
        <time>2023-10-11T14:14:02Z</time>
      </trkpt>
      <trkpt lat="49.09287" lon="-0.19228">
        <ele>29.5</ele>
        <time>2023-10-11T14:14:03Z</time>
      </trkpt>
      <trkpt lat="49.09295" lon="-0.1923">
        <ele>29.5</ele>
        <time>2023-10-11T14:14:04Z</time>
      </trkpt>
      <trkpt lat="49.09304" lon="-0.19231">
        <ele>29.5</ele>
        <time>2023-10-11T14:14:05Z</time>
      </trkpt>
      <trkpt lat="49.09312" lon="-0.19232">
        <ele>29.5</ele>
        <time>2023-10-11T14:14:06Z</time>
      </trkpt>
      <trkpt lat="49.0932" lon="-0.19234">
        <ele>29.5</ele>
        <time>2023-10-11T14:14:07Z</time>
      </trkpt>
      <trkpt lat="49.09329" lon="-0.19234">
        <ele>29.5</ele>
        <time>2023-10-11T14:14:08Z</time>
      </trkpt>
      <trkpt lat="49.09337" lon="-0.19235">
        <ele>29.5</ele>
        <time>2023-10-11T14:14:09Z</time>
      </trkpt>
      <trkpt lat="49.09345" lon="-0.19236">
        <ele>29.5</ele>
        <time>2023-10-11T14:14:10Z</time>
      </trkpt>
      <trkpt lat="49.09353" lon="-0.19238">
        <ele>29.6</ele>
        <time>2023-10-11T14:14:11Z</time>
      </trkpt>
      <trkpt lat="49.09361" lon="-0.1924">
        <ele>29.6</ele>
        <time>2023-10-11T14:14:12Z</time>
      </trkpt>
      <trkpt lat="49.09368" lon="-0.19241">
        <ele>29.6</ele>
        <time>2023-10-11T14:14:13Z</time>
      </trkpt>
      <trkpt lat="49.09376" lon="-0.19243">
        <ele>29.6</ele>
        <time>2023-10-11T14:14:14Z</time>
      </trkpt>
      <trkpt lat="49.09384" lon="-0.19245">
        <ele>29.6</ele>
        <time>2023-10-11T14:14:15Z</time>
      </trkpt>
      <trkpt lat="49.09392" lon="-0.19247">
        <ele>29.6</ele>
        <time>2023-10-11T14:14:16Z</time>
      </trkpt>
      <trkpt lat="49.094" lon="-0.19249">
        <ele>29.7</ele>
        <time>2023-10-11T14:14:17Z</time>
      </trkpt>
      <trkpt lat="49.09408" lon="-0.19251">
        <ele>29.7</ele>
        <time>2023-10-11T14:14:18Z</time>
      </trkpt>
      <trkpt lat="49.09416" lon="-0.19252">
        <ele>29.7</ele>
        <time>2023-10-11T14:14:19Z</time>
      </trkpt>
      <trkpt lat="49.09423" lon="-0.19253">
        <ele>29.7</ele>
        <time>2023-10-11T14:14:20Z</time>
      </trkpt>
      <trkpt lat="49.09431" lon="-0.19254">
        <ele>29.7</ele>
        <time>2023-10-11T14:14:21Z</time>
      </trkpt>
      <trkpt lat="49.0944" lon="-0.19254">
        <ele>29.7</ele>
        <time>2023-10-11T14:14:22Z</time>
      </trkpt>
      <trkpt lat="49.09448" lon="-0.19253">
        <ele>29.7</ele>
        <time>2023-10-11T14:14:23Z</time>
      </trkpt>
      <trkpt lat="49.09456" lon="-0.19252">
        <ele>29.6</ele>
        <time>2023-10-11T14:14:24Z</time>
      </trkpt>
      <trkpt lat="49.09464" lon="-0.1925">
        <ele>29.6</ele>
        <time>2023-10-11T14:14:25Z</time>
      </trkpt>
      <trkpt lat="49.09472" lon="-0.19247">
        <ele>29.6</ele>
        <time>2023-10-11T14:14:26Z</time>
      </trkpt>
      <trkpt lat="49.0948" lon="-0.19243">
        <ele>29.6</ele>
        <time>2023-10-11T14:14:27Z</time>
      </trkpt>
      <trkpt lat="49.09488" lon="-0.19239">
        <ele>29.5</ele>
        <time>2023-10-11T14:14:28Z</time>
      </trkpt>
      <trkpt lat="49.09495" lon="-0.19234">
        <ele>29.5</ele>
        <time>2023-10-11T14:14:29Z</time>
      </trkpt>
      <trkpt lat="49.09503" lon="-0.19229">
        <ele>29.4</ele>
        <time>2023-10-11T14:14:30Z</time>
      </trkpt>
      <trkpt lat="49.0951" lon="-0.19224">
        <ele>29.3</ele>
        <time>2023-10-11T14:14:31Z</time>
      </trkpt>
      <trkpt lat="49.09518" lon="-0.19219">
        <ele>29.3</ele>
        <time>2023-10-11T14:14:32Z</time>
      </trkpt>
      <trkpt lat="49.09525" lon="-0.19213">
        <ele>29.2</ele>
        <time>2023-10-11T14:14:33Z</time>
      </trkpt>
      <trkpt lat="49.09532" lon="-0.19206">
        <ele>29.2</ele>
        <time>2023-10-11T14:14:34Z</time>
      </trkpt>
      <trkpt lat="49.09539" lon="-0.192">
        <ele>29.1</ele>
        <time>2023-10-11T14:14:35Z</time>
      </trkpt>
      <trkpt lat="49.09547" lon="-0.19194">
        <ele>29.1</ele>
        <time>2023-10-11T14:14:36Z</time>
      </trkpt>
      <trkpt lat="49.09554" lon="-0.19188">
        <ele>29.1</ele>
        <time>2023-10-11T14:14:37Z</time>
      </trkpt>
      <trkpt lat="49.09561" lon="-0.19182">
        <ele>29.1</ele>
        <time>2023-10-11T14:14:38Z</time>
      </trkpt>
      <trkpt lat="49.09569" lon="-0.19175">
        <ele>29.1</ele>
        <time>2023-10-11T14:14:39Z</time>
      </trkpt>
      <trkpt lat="49.09577" lon="-0.19169">
        <ele>29.1</ele>
        <time>2023-10-11T14:14:40Z</time>
      </trkpt>
      <trkpt lat="49.09584" lon="-0.19163">
        <ele>29.1</ele>
        <time>2023-10-11T14:14:41Z</time>
      </trkpt>
      <trkpt lat="49.09592" lon="-0.19157">
        <ele>29.1</ele>
        <time>2023-10-11T14:14:42Z</time>
      </trkpt>
      <trkpt lat="49.09599" lon="-0.19151">
        <ele>29</ele>
        <time>2023-10-11T14:14:43Z</time>
      </trkpt>
      <trkpt lat="49.09607" lon="-0.19145">
        <ele>29.1</ele>
        <time>2023-10-11T14:14:44Z</time>
      </trkpt>
      <trkpt lat="49.09614" lon="-0.19138">
        <ele>29.1</ele>
        <time>2023-10-11T14:14:45Z</time>
      </trkpt>
      <trkpt lat="49.09621" lon="-0.19132">
        <ele>29.1</ele>
        <time>2023-10-11T14:14:46Z</time>
      </trkpt>
      <trkpt lat="49.09628" lon="-0.19126">
        <ele>29.1</ele>
        <time>2023-10-11T14:14:47Z</time>
      </trkpt>
      <trkpt lat="49.09636" lon="-0.19119">
        <ele>29.2</ele>
        <time>2023-10-11T14:14:48Z</time>
      </trkpt>
      <trkpt lat="49.09643" lon="-0.19113">
        <ele>29.2</ele>
        <time>2023-10-11T14:14:49Z</time>
      </trkpt>
      <trkpt lat="49.0965" lon="-0.19108">
        <ele>29.2</ele>
        <time>2023-10-11T14:14:50Z</time>
      </trkpt>
      <trkpt lat="49.09658" lon="-0.19105">
        <ele>29.2</ele>
        <time>2023-10-11T14:14:51Z</time>
      </trkpt>
      <trkpt lat="49.09667" lon="-0.19106">
        <ele>29.1</ele>
        <time>2023-10-11T14:14:52Z</time>
      </trkpt>
      <trkpt lat="49.09674" lon="-0.19111">
        <ele>29</ele>
        <time>2023-10-11T14:14:53Z</time>
      </trkpt>
      <trkpt lat="49.09681" lon="-0.1912">
        <ele>28.9</ele>
        <time>2023-10-11T14:14:54Z</time>
      </trkpt>
      <trkpt lat="49.09687" lon="-0.1913">
        <ele>28.9</ele>
        <time>2023-10-11T14:14:55Z</time>
      </trkpt>
      <trkpt lat="49.09692" lon="-0.19142">
        <ele>28.9</ele>
        <time>2023-10-11T14:14:56Z</time>
      </trkpt>
      <trkpt lat="49.09696" lon="-0.19154">
        <ele>28.9</ele>
        <time>2023-10-11T14:14:57Z</time>
      </trkpt>
      <trkpt lat="49.09699" lon="-0.19166">
        <ele>29</ele>
        <time>2023-10-11T14:14:58Z</time>
      </trkpt>
      <trkpt lat="49.09702" lon="-0.19178">
        <ele>29.1</ele>
        <time>2023-10-11T14:14:59Z</time>
      </trkpt>
      <trkpt lat="49.09703" lon="-0.1919">
        <ele>29.2</ele>
        <time>2023-10-11T14:15:00Z</time>
      </trkpt>
      <trkpt lat="49.09705" lon="-0.19202">
        <ele>29.3</ele>
        <time>2023-10-11T14:15:01Z</time>
      </trkpt>
      <trkpt lat="49.09706" lon="-0.19215">
        <ele>29.4</ele>
        <time>2023-10-11T14:15:02Z</time>
      </trkpt>
      <trkpt lat="49.09708" lon="-0.19227">
        <ele>29.6</ele>
        <time>2023-10-11T14:15:03Z</time>
      </trkpt>
      <trkpt lat="49.0971" lon="-0.19239">
        <ele>29.8</ele>
        <time>2023-10-11T14:15:04Z</time>
      </trkpt>
      <trkpt lat="49.09713" lon="-0.1925">
        <ele>29.9</ele>
        <time>2023-10-11T14:15:05Z</time>
      </trkpt>
      <trkpt lat="49.09715" lon="-0.19261">
        <ele>30.1</ele>
        <time>2023-10-11T14:15:06Z</time>
      </trkpt>
      <trkpt lat="49.09718" lon="-0.19271">
        <ele>30.2</ele>
        <time>2023-10-11T14:15:07Z</time>
      </trkpt>
      <trkpt lat="49.09722" lon="-0.19281">
        <ele>30.3</ele>
        <time>2023-10-11T14:15:08Z</time>
      </trkpt>
      <trkpt lat="49.09725" lon="-0.1929">
        <ele>30.5</ele>
        <time>2023-10-11T14:15:09Z</time>
      </trkpt>
      <trkpt lat="49.0973" lon="-0.19298">
        <ele>30.6</ele>
        <time>2023-10-11T14:15:10Z</time>
      </trkpt>
      <trkpt lat="49.09735" lon="-0.19306">
        <ele>30.7</ele>
        <time>2023-10-11T14:15:11Z</time>
      </trkpt>
      <trkpt lat="49.09741" lon="-0.19313">
        <ele>30.8</ele>
        <time>2023-10-11T14:15:12Z</time>
      </trkpt>
      <trkpt lat="49.09747" lon="-0.1932">
        <ele>31</ele>
        <time>2023-10-11T14:15:13Z</time>
      </trkpt>
      <trkpt lat="49.09753" lon="-0.19327">
        <ele>31.1</ele>
        <time>2023-10-11T14:15:14Z</time>
      </trkpt>
      <trkpt lat="49.09759" lon="-0.19333">
        <ele>31.2</ele>
        <time>2023-10-11T14:15:15Z</time>
      </trkpt>
      <trkpt lat="49.09766" lon="-0.19339">
        <ele>31.3</ele>
        <time>2023-10-11T14:15:16Z</time>
      </trkpt>
      <trkpt lat="49.09773" lon="-0.19344">
        <ele>31.4</ele>
        <time>2023-10-11T14:15:17Z</time>
      </trkpt>
      <trkpt lat="49.0978" lon="-0.19349">
        <ele>31.5</ele>
        <time>2023-10-11T14:15:18Z</time>
      </trkpt>
      <trkpt lat="49.09787" lon="-0.19354">
        <ele>31.6</ele>
        <time>2023-10-11T14:15:19Z</time>
      </trkpt>
      <trkpt lat="49.09794" lon="-0.19359">
        <ele>31.8</ele>
        <time>2023-10-11T14:15:20Z</time>
      </trkpt>
      <trkpt lat="49.09801" lon="-0.19364">
        <ele>31.9</ele>
        <time>2023-10-11T14:15:21Z</time>
      </trkpt>
      <trkpt lat="49.09808" lon="-0.19368">
        <ele>32</ele>
        <time>2023-10-11T14:15:22Z</time>
      </trkpt>
      <trkpt lat="49.09816" lon="-0.19372">
        <ele>32.1</ele>
        <time>2023-10-11T14:15:23Z</time>
      </trkpt>
      <trkpt lat="49.09824" lon="-0.19376">
        <ele>32.2</ele>
        <time>2023-10-11T14:15:24Z</time>
      </trkpt>
      <trkpt lat="49.09831" lon="-0.19379">
        <ele>32.3</ele>
        <time>2023-10-11T14:15:25Z</time>
      </trkpt>
      <trkpt lat="49.09839" lon="-0.19382">
        <ele>32.3</ele>
        <time>2023-10-11T14:15:26Z</time>
      </trkpt>
      <trkpt lat="49.09847" lon="-0.19385">
        <ele>32.3</ele>
        <time>2023-10-11T14:15:27Z</time>
      </trkpt>
      <trkpt lat="49.09855" lon="-0.19388">
        <ele>32.4</ele>
        <time>2023-10-11T14:15:28Z</time>
      </trkpt>
      <trkpt lat="49.09863" lon="-0.19391">
        <ele>32.4</ele>
        <time>2023-10-11T14:15:29Z</time>
      </trkpt>
      <trkpt lat="49.09871" lon="-0.19394">
        <ele>32.5</ele>
        <time>2023-10-11T14:15:30Z</time>
      </trkpt>
      <trkpt lat="49.09879" lon="-0.19397">
        <ele>32.5</ele>
        <time>2023-10-11T14:15:31Z</time>
      </trkpt>
      <trkpt lat="49.09886" lon="-0.194">
        <ele>32.6</ele>
        <time>2023-10-11T14:15:32Z</time>
      </trkpt>
      <trkpt lat="49.09894" lon="-0.19404">
        <ele>32.7</ele>
        <time>2023-10-11T14:15:33Z</time>
      </trkpt>
      <trkpt lat="49.09901" lon="-0.19408">
        <ele>32.7</ele>
        <time>2023-10-11T14:15:34Z</time>
      </trkpt>
      <trkpt lat="49.09908" lon="-0.19413">
        <ele>32.8</ele>
        <time>2023-10-11T14:15:35Z</time>
      </trkpt>
      <trkpt lat="49.09915" lon="-0.19419">
        <ele>32.8</ele>
        <time>2023-10-11T14:15:36Z</time>
      </trkpt>
      <trkpt lat="49.09922" lon="-0.19425">
        <ele>32.8</ele>
        <time>2023-10-11T14:15:37Z</time>
      </trkpt>
      <trkpt lat="49.09928" lon="-0.19432">
        <ele>32.8</ele>
        <time>2023-10-11T14:15:38Z</time>
      </trkpt>
      <trkpt lat="49.09934" lon="-0.19439">
        <ele>32.9</ele>
        <time>2023-10-11T14:15:39Z</time>
      </trkpt>
      <trkpt lat="49.09939" lon="-0.19448">
        <ele>32.9</ele>
        <time>2023-10-11T14:15:40Z</time>
      </trkpt>
      <trkpt lat="49.09944" lon="-0.19456">
        <ele>32.9</ele>
        <time>2023-10-11T14:15:41Z</time>
      </trkpt>
      <trkpt lat="49.09948" lon="-0.19466">
        <ele>33</ele>
        <time>2023-10-11T14:15:42Z</time>
      </trkpt>
      <trkpt lat="49.09952" lon="-0.19476">
        <ele>33</ele>
        <time>2023-10-11T14:15:43Z</time>
      </trkpt>
      <trkpt lat="49.09956" lon="-0.19486">
        <ele>33</ele>
        <time>2023-10-11T14:15:44Z</time>
      </trkpt>
      <trkpt lat="49.0996" lon="-0.19496">
        <ele>33</ele>
        <time>2023-10-11T14:15:45Z</time>
      </trkpt>
      <trkpt lat="49.09963" lon="-0.19505">
        <ele>33</ele>
        <time>2023-10-11T14:15:46Z</time>
      </trkpt>
      <trkpt lat="49.09967" lon="-0.19514">
        <ele>32.9</ele>
        <time>2023-10-11T14:15:47Z</time>
      </trkpt>
      <trkpt lat="49.0997" lon="-0.19524">
        <ele>32.9</ele>
        <time>2023-10-11T14:15:48Z</time>
      </trkpt>
      <trkpt lat="49.09974" lon="-0.19534">
        <ele>32.8</ele>
        <time>2023-10-11T14:15:49Z</time>
      </trkpt>
      <trkpt lat="49.09977" lon="-0.19543">
        <ele>32.7</ele>
        <time>2023-10-11T14:15:50Z</time>
      </trkpt>
      <trkpt lat="49.09981" lon="-0.19553">
        <ele>32.7</ele>
        <time>2023-10-11T14:15:51Z</time>
      </trkpt>
      <trkpt lat="49.09985" lon="-0.19562">
        <ele>32.6</ele>
        <time>2023-10-11T14:15:52Z</time>
      </trkpt>
      <trkpt lat="49.09988" lon="-0.19572">
        <ele>32.6</ele>
        <time>2023-10-11T14:15:53Z</time>
      </trkpt>
      <trkpt lat="49.09992" lon="-0.19581">
        <ele>32.6</ele>
        <time>2023-10-11T14:15:54Z</time>
      </trkpt>
      <trkpt lat="49.09996" lon="-0.19591">
        <ele>32.5</ele>
        <time>2023-10-11T14:15:55Z</time>
      </trkpt>
      <trkpt lat="49.09999" lon="-0.19601">
        <ele>32.5</ele>
        <time>2023-10-11T14:15:56Z</time>
      </trkpt>
      <trkpt lat="49.10003" lon="-0.19611">
        <ele>32.4</ele>
        <time>2023-10-11T14:15:57Z</time>
      </trkpt>
      <trkpt lat="49.10007" lon="-0.19621">
        <ele>32.4</ele>
        <time>2023-10-11T14:15:58Z</time>
      </trkpt>
      <trkpt lat="49.10011" lon="-0.1963">
        <ele>32.3</ele>
        <time>2023-10-11T14:15:59Z</time>
      </trkpt>
      <trkpt lat="49.10015" lon="-0.1964">
        <ele>32.2</ele>
        <time>2023-10-11T14:16:00Z</time>
      </trkpt>
      <trkpt lat="49.10019" lon="-0.1965">
        <ele>32.1</ele>
        <time>2023-10-11T14:16:01Z</time>
      </trkpt>
      <trkpt lat="49.10023" lon="-0.19661">
        <ele>32</ele>
        <time>2023-10-11T14:16:02Z</time>
      </trkpt>
      <trkpt lat="49.10027" lon="-0.19671">
        <ele>31.9</ele>
        <time>2023-10-11T14:16:03Z</time>
      </trkpt>
      <trkpt lat="49.10031" lon="-0.19681">
        <ele>31.9</ele>
        <time>2023-10-11T14:16:04Z</time>
      </trkpt>
      <trkpt lat="49.10035" lon="-0.19692">
        <ele>31.8</ele>
        <time>2023-10-11T14:16:05Z</time>
      </trkpt>
      <trkpt lat="49.1004" lon="-0.19702">
        <ele>31.7</ele>
        <time>2023-10-11T14:16:06Z</time>
      </trkpt>
      <trkpt lat="49.10045" lon="-0.19711">
        <ele>31.5</ele>
        <time>2023-10-11T14:16:07Z</time>
      </trkpt>
      <trkpt lat="49.10051" lon="-0.19721">
        <ele>31.4</ele>
        <time>2023-10-11T14:16:08Z</time>
      </trkpt>
      <trkpt lat="49.10057" lon="-0.19731">
        <ele>31.2</ele>
        <time>2023-10-11T14:16:09Z</time>
      </trkpt>
      <trkpt lat="49.10063" lon="-0.1974">
        <ele>31</ele>
        <time>2023-10-11T14:16:10Z</time>
      </trkpt>
      <trkpt lat="49.10069" lon="-0.19749">
        <ele>30.9</ele>
        <time>2023-10-11T14:16:11Z</time>
      </trkpt>
      <trkpt lat="49.10075" lon="-0.19757">
        <ele>30.7</ele>
        <time>2023-10-11T14:16:12Z</time>
      </trkpt>
      <trkpt lat="49.10082" lon="-0.19765">
        <ele>30.5</ele>
        <time>2023-10-11T14:16:13Z</time>
      </trkpt>
      <trkpt lat="49.10089" lon="-0.19773">
        <ele>30.4</ele>
        <time>2023-10-11T14:16:14Z</time>
      </trkpt>
      <trkpt lat="49.10096" lon="-0.19781">
        <ele>30.2</ele>
        <time>2023-10-11T14:16:15Z</time>
      </trkpt>
      <trkpt lat="49.10103" lon="-0.19789">
        <ele>30.1</ele>
        <time>2023-10-11T14:16:16Z</time>
      </trkpt>
      <trkpt lat="49.10111" lon="-0.19797">
        <ele>29.9</ele>
        <time>2023-10-11T14:16:17Z</time>
      </trkpt>
      <trkpt lat="49.10119" lon="-0.19803">
        <ele>29.8</ele>
        <time>2023-10-11T14:16:18Z</time>
      </trkpt>
      <trkpt lat="49.10127" lon="-0.19809">
        <ele>29.7</ele>
        <time>2023-10-11T14:16:19Z</time>
      </trkpt>
      <trkpt lat="49.10135" lon="-0.19815">
        <ele>29.6</ele>
        <time>2023-10-11T14:16:20Z</time>
      </trkpt>
      <trkpt lat="49.10143" lon="-0.19821">
        <ele>29.5</ele>
        <time>2023-10-11T14:16:21Z</time>
      </trkpt>
      <trkpt lat="49.10151" lon="-0.19827">
        <ele>29.4</ele>
        <time>2023-10-11T14:16:22Z</time>
      </trkpt>
      <trkpt lat="49.10158" lon="-0.19833">
        <ele>29.4</ele>
        <time>2023-10-11T14:16:23Z</time>
      </trkpt>
      <trkpt lat="49.10167" lon="-0.19838">
        <ele>29.3</ele>
        <time>2023-10-11T14:16:24Z</time>
      </trkpt>
      <trkpt lat="49.10175" lon="-0.19844">
        <ele>29.3</ele>
        <time>2023-10-11T14:16:25Z</time>
      </trkpt>
      <trkpt lat="49.10183" lon="-0.19849">
        <ele>29.4</ele>
        <time>2023-10-11T14:16:26Z</time>
      </trkpt>
      <trkpt lat="49.10191" lon="-0.19854">
        <ele>29.4</ele>
        <time>2023-10-11T14:16:27Z</time>
      </trkpt>
      <trkpt lat="49.10199" lon="-0.1986">
        <ele>29.5</ele>
        <time>2023-10-11T14:16:28Z</time>
      </trkpt>
      <trkpt lat="49.10207" lon="-0.19865">
        <ele>29.6</ele>
        <time>2023-10-11T14:16:29Z</time>
      </trkpt>
      <trkpt lat="49.10215" lon="-0.1987">
        <ele>29.6</ele>
        <time>2023-10-11T14:16:30Z</time>
      </trkpt>
      <trkpt lat="49.10222" lon="-0.19876">
        <ele>29.6</ele>
        <time>2023-10-11T14:16:31Z</time>
      </trkpt>
      <trkpt lat="49.1023" lon="-0.19882">
        <ele>29.7</ele>
        <time>2023-10-11T14:16:32Z</time>
      </trkpt>
      <trkpt lat="49.10238" lon="-0.19887">
        <ele>29.7</ele>
        <time>2023-10-11T14:16:33Z</time>
      </trkpt>
      <trkpt lat="49.10246" lon="-0.19893">
        <ele>29.8</ele>
        <time>2023-10-11T14:16:34Z</time>
      </trkpt>
      <trkpt lat="49.10254" lon="-0.19899">
        <ele>29.9</ele>
        <time>2023-10-11T14:16:35Z</time>
      </trkpt>
      <trkpt lat="49.10262" lon="-0.19906">
        <ele>29.9</ele>
        <time>2023-10-11T14:16:36Z</time>
      </trkpt>
      <trkpt lat="49.10269" lon="-0.19912">
        <ele>30</ele>
        <time>2023-10-11T14:16:37Z</time>
      </trkpt>
      <trkpt lat="49.10277" lon="-0.19918">
        <ele>30</ele>
        <time>2023-10-11T14:16:38Z</time>
      </trkpt>
      <trkpt lat="49.10284" lon="-0.19924">
        <ele>30</ele>
        <time>2023-10-11T14:16:39Z</time>
      </trkpt>
      <trkpt lat="49.10292" lon="-0.19931">
        <ele>30</ele>
        <time>2023-10-11T14:16:40Z</time>
      </trkpt>
      <trkpt lat="49.10299" lon="-0.19937">
        <ele>30</ele>
        <time>2023-10-11T14:16:41Z</time>
      </trkpt>
      <trkpt lat="49.10306" lon="-0.19944">
        <ele>30</ele>
        <time>2023-10-11T14:16:42Z</time>
      </trkpt>
      <trkpt lat="49.10312" lon="-0.19951">
        <ele>30</ele>
        <time>2023-10-11T14:16:43Z</time>
      </trkpt>
      <trkpt lat="49.10319" lon="-0.19959">
        <ele>30</ele>
        <time>2023-10-11T14:16:44Z</time>
      </trkpt>
      <trkpt lat="49.10324" lon="-0.19966">
        <ele>30</ele>
        <time>2023-10-11T14:16:45Z</time>
      </trkpt>
      <trkpt lat="49.10329" lon="-0.19975">
        <ele>30</ele>
        <time>2023-10-11T14:16:46Z</time>
      </trkpt>
      <trkpt lat="49.10333" lon="-0.19984">
        <ele>29.9</ele>
        <time>2023-10-11T14:16:47Z</time>
      </trkpt>
      <trkpt lat="49.10337" lon="-0.19993">
        <ele>29.9</ele>
        <time>2023-10-11T14:16:48Z</time>
      </trkpt>
      <trkpt lat="49.1034" lon="-0.20001">
        <ele>29.9</ele>
        <time>2023-10-11T14:16:49Z</time>
      </trkpt>
      <trkpt lat="49.10342" lon="-0.20009">
        <ele>29.9</ele>
        <time>2023-10-11T14:16:50Z</time>
      </trkpt>
      <trkpt lat="49.10344" lon="-0.20016">
        <ele>29.9</ele>
        <time>2023-10-11T14:16:51Z</time>
      </trkpt>
      <trkpt lat="49.10348" lon="-0.2002">
        <ele>29.9</ele>
        <time>2023-10-11T14:16:52Z</time>
      </trkpt>
      <trkpt lat="49.10353" lon="-0.20022">
        <ele>29.8</ele>
        <time>2023-10-11T14:16:53Z</time>
      </trkpt>
      <trkpt lat="49.10358" lon="-0.20019">
        <ele>29.7</ele>
        <time>2023-10-11T14:16:54Z</time>
      </trkpt>
      <trkpt lat="49.10363" lon="-0.20014">
        <ele>29.6</ele>
        <time>2023-10-11T14:16:55Z</time>
      </trkpt>
      <trkpt lat="49.10368" lon="-0.20007">
        <ele>29.5</ele>
        <time>2023-10-11T14:16:56Z</time>
      </trkpt>
      <trkpt lat="49.10372" lon="-0.2">
        <ele>29.4</ele>
        <time>2023-10-11T14:16:57Z</time>
      </trkpt>
      <trkpt lat="49.10377" lon="-0.19994">
        <ele>29.3</ele>
        <time>2023-10-11T14:16:58Z</time>
      </trkpt>
      <trkpt lat="49.10383" lon="-0.19987">
        <ele>29.1</ele>
        <time>2023-10-11T14:16:59Z</time>
      </trkpt>
      <trkpt lat="49.10388" lon="-0.1998">
        <ele>28.9</ele>
        <time>2023-10-11T14:17:00Z</time>
      </trkpt>
      <trkpt lat="49.10394" lon="-0.19973">
        <ele>28.7</ele>
        <time>2023-10-11T14:17:01Z</time>
      </trkpt>
      <trkpt lat="49.104" lon="-0.19966">
        <ele>28.5</ele>
        <time>2023-10-11T14:17:02Z</time>
      </trkpt>
      <trkpt lat="49.10406" lon="-0.19959">
        <ele>28.3</ele>
        <time>2023-10-11T14:17:03Z</time>
      </trkpt>
      <trkpt lat="49.10413" lon="-0.19952">
        <ele>28</ele>
        <time>2023-10-11T14:17:04Z</time>
      </trkpt>
      <trkpt lat="49.1042" lon="-0.19946">
        <ele>27.8</ele>
        <time>2023-10-11T14:17:05Z</time>
      </trkpt>
      <trkpt lat="49.10427" lon="-0.19941">
        <ele>27.6</ele>
        <time>2023-10-11T14:17:06Z</time>
      </trkpt>
      <trkpt lat="49.10434" lon="-0.19935">
        <ele>27.4</ele>
        <time>2023-10-11T14:17:07Z</time>
      </trkpt>
      <trkpt lat="49.10441" lon="-0.19929">
        <ele>27.2</ele>
        <time>2023-10-11T14:17:08Z</time>
      </trkpt>
      <trkpt lat="49.10448" lon="-0.19924">
        <ele>27.1</ele>
        <time>2023-10-11T14:17:09Z</time>
      </trkpt>
      <trkpt lat="49.10455" lon="-0.19918">
        <ele>26.9</ele>
        <time>2023-10-11T14:17:10Z</time>
      </trkpt>
      <trkpt lat="49.10462" lon="-0.19912">
        <ele>26.8</ele>
        <time>2023-10-11T14:17:11Z</time>
      </trkpt>
      <trkpt lat="49.10468" lon="-0.19906">
        <ele>26.7</ele>
        <time>2023-10-11T14:17:12Z</time>
      </trkpt>
      <trkpt lat="49.10473" lon="-0.19899">
        <ele>26.7</ele>
        <time>2023-10-11T14:17:13Z</time>
      </trkpt>
      <trkpt lat="49.10475" lon="-0.19891">
        <ele>26.6</ele>
        <time>2023-10-11T14:17:14Z</time>
      </trkpt>
      <trkpt lat="49.10478" lon="-0.19884">
        <ele>26.6</ele>
        <time>2023-10-11T14:17:15Z</time>
      </trkpt>
      <trkpt lat="49.10482" lon="-0.19882">
        <ele>26.5</ele>
        <time>2023-10-11T14:17:16Z</time>
      </trkpt>
      <trkpt lat="49.10487" lon="-0.19884">
        <ele>26.5</ele>
        <time>2023-10-11T14:17:17Z</time>
      </trkpt>
      <trkpt lat="49.10492" lon="-0.19889">
        <ele>26.5</ele>
        <time>2023-10-11T14:17:18Z</time>
      </trkpt>
      <trkpt lat="49.10497" lon="-0.19893">
        <ele>26.4</ele>
        <time>2023-10-11T14:17:19Z</time>
      </trkpt>
      <trkpt lat="49.10503" lon="-0.19898">
        <ele>26.3</ele>
        <time>2023-10-11T14:17:20Z</time>
      </trkpt>
      <trkpt lat="49.10509" lon="-0.19902">
        <ele>26.2</ele>
        <time>2023-10-11T14:17:21Z</time>
      </trkpt>
      <trkpt lat="49.10515" lon="-0.19908">
        <ele>26.1</ele>
        <time>2023-10-11T14:17:22Z</time>
      </trkpt>
      <trkpt lat="49.1052" lon="-0.19913">
        <ele>26</ele>
        <time>2023-10-11T14:17:23Z</time>
      </trkpt>
      <trkpt lat="49.10526" lon="-0.19919">
        <ele>26</ele>
        <time>2023-10-11T14:17:24Z</time>
      </trkpt>
      <trkpt lat="49.10531" lon="-0.19925">
        <ele>26</ele>
        <time>2023-10-11T14:17:25Z</time>
      </trkpt>
      <trkpt lat="49.10537" lon="-0.1993">
        <ele>26</ele>
        <time>2023-10-11T14:17:26Z</time>
      </trkpt>
      <trkpt lat="49.10542" lon="-0.19937">
        <ele>26</ele>
        <time>2023-10-11T14:17:27Z</time>
      </trkpt>
      <trkpt lat="49.10548" lon="-0.19943">
        <ele>26</ele>
        <time>2023-10-11T14:17:28Z</time>
      </trkpt>
      <trkpt lat="49.10552" lon="-0.1995">
        <ele>26</ele>
        <time>2023-10-11T14:17:29Z</time>
      </trkpt>
      <trkpt lat="49.10557" lon="-0.19958">
        <ele>26.1</ele>
        <time>2023-10-11T14:17:30Z</time>
      </trkpt>
      <trkpt lat="49.1056" lon="-0.19967">
        <ele>26.2</ele>
        <time>2023-10-11T14:17:31Z</time>
      </trkpt>
      <trkpt lat="49.10564" lon="-0.19976">
        <ele>26.2</ele>
        <time>2023-10-11T14:17:32Z</time>
      </trkpt>
      <trkpt lat="49.10567" lon="-0.19986">
        <ele>26.2</ele>
        <time>2023-10-11T14:17:33Z</time>
      </trkpt>
      <trkpt lat="49.10569" lon="-0.19996">
        <ele>26.2</ele>
        <time>2023-10-11T14:17:34Z</time>
      </trkpt>
      <trkpt lat="49.10572" lon="-0.20006">
        <ele>26.3</ele>
        <time>2023-10-11T14:17:35Z</time>
      </trkpt>
      <trkpt lat="49.10574" lon="-0.20016">
        <ele>26.3</ele>
        <time>2023-10-11T14:17:36Z</time>
      </trkpt>
      <trkpt lat="49.10576" lon="-0.20027">
        <ele>26.4</ele>
        <time>2023-10-11T14:17:37Z</time>
      </trkpt>
      <trkpt lat="49.10578" lon="-0.20037">
        <ele>26.4</ele>
        <time>2023-10-11T14:17:38Z</time>
      </trkpt>
      <trkpt lat="49.10579" lon="-0.20047">
        <ele>26.5</ele>
        <time>2023-10-11T14:17:39Z</time>
      </trkpt>
      <trkpt lat="49.10581" lon="-0.20058">
        <ele>26.5</ele>
        <time>2023-10-11T14:17:40Z</time>
      </trkpt>
      <trkpt lat="49.10582" lon="-0.20068">
        <ele>26.6</ele>
        <time>2023-10-11T14:17:41Z</time>
      </trkpt>
      <trkpt lat="49.10583" lon="-0.20078">
        <ele>26.7</ele>
        <time>2023-10-11T14:17:42Z</time>
      </trkpt>
      <trkpt lat="49.10584" lon="-0.20088">
        <ele>26.7</ele>
        <time>2023-10-11T14:17:43Z</time>
      </trkpt>
      <trkpt lat="49.10585" lon="-0.20099">
        <ele>26.8</ele>
        <time>2023-10-11T14:17:44Z</time>
      </trkpt>
      <trkpt lat="49.10586" lon="-0.2011">
        <ele>26.8</ele>
        <time>2023-10-11T14:17:45Z</time>
      </trkpt>
      <trkpt lat="49.10588" lon="-0.2012">
        <ele>26.9</ele>
        <time>2023-10-11T14:17:46Z</time>
      </trkpt>
      <trkpt lat="49.10589" lon="-0.20131">
        <ele>26.9</ele>
        <time>2023-10-11T14:17:47Z</time>
      </trkpt>
      <trkpt lat="49.1059" lon="-0.20142">
        <ele>26.9</ele>
        <time>2023-10-11T14:17:48Z</time>
      </trkpt>
      <trkpt lat="49.10591" lon="-0.20153">
        <ele>26.9</ele>
        <time>2023-10-11T14:17:49Z</time>
      </trkpt>
      <trkpt lat="49.10593" lon="-0.20164">
        <ele>26.9</ele>
        <time>2023-10-11T14:17:50Z</time>
      </trkpt>
      <trkpt lat="49.10595" lon="-0.20175">
        <ele>27</ele>
        <time>2023-10-11T14:17:51Z</time>
      </trkpt>
      <trkpt lat="49.10597" lon="-0.20186">
        <ele>27</ele>
        <time>2023-10-11T14:17:52Z</time>
      </trkpt>
      <trkpt lat="49.10602" lon="-0.20195">
        <ele>27</ele>
        <time>2023-10-11T14:17:53Z</time>
      </trkpt>
      <trkpt lat="49.10608" lon="-0.20203">
        <ele>27</ele>
        <time>2023-10-11T14:17:54Z</time>
      </trkpt>
      <trkpt lat="49.10616" lon="-0.20208">
        <ele>27</ele>
        <time>2023-10-11T14:17:55Z</time>
      </trkpt>
      <trkpt lat="49.10624" lon="-0.20209">
        <ele>27</ele>
        <time>2023-10-11T14:17:56Z</time>
      </trkpt>
      <trkpt lat="49.10632" lon="-0.20209">
        <ele>26.9</ele>
        <time>2023-10-11T14:17:57Z</time>
      </trkpt>
      <trkpt lat="49.10641" lon="-0.20207">
        <ele>26.8</ele>
        <time>2023-10-11T14:17:58Z</time>
      </trkpt>
      <trkpt lat="49.10649" lon="-0.20205">
        <ele>26.8</ele>
        <time>2023-10-11T14:17:59Z</time>
      </trkpt>
      <trkpt lat="49.10657" lon="-0.20204">
        <ele>26.7</ele>
        <time>2023-10-11T14:18:00Z</time>
      </trkpt>
      <trkpt lat="49.10665" lon="-0.20202">
        <ele>26.6</ele>
        <time>2023-10-11T14:18:01Z</time>
      </trkpt>
      <trkpt lat="49.10673" lon="-0.202">
        <ele>26.6</ele>
        <time>2023-10-11T14:18:02Z</time>
      </trkpt>
      <trkpt lat="49.10681" lon="-0.20198">
        <ele>26.5</ele>
        <time>2023-10-11T14:18:03Z</time>
      </trkpt>
      <trkpt lat="49.10689" lon="-0.20197">
        <ele>26.4</ele>
        <time>2023-10-11T14:18:04Z</time>
      </trkpt>
      <trkpt lat="49.10698" lon="-0.20195">
        <ele>26.3</ele>
        <time>2023-10-11T14:18:05Z</time>
      </trkpt>
      <trkpt lat="49.10706" lon="-0.20195">
        <ele>26.2</ele>
        <time>2023-10-11T14:18:06Z</time>
      </trkpt>
      <trkpt lat="49.10714" lon="-0.20198">
        <ele>26.2</ele>
        <time>2023-10-11T14:18:07Z</time>
      </trkpt>
      <trkpt lat="49.10721" lon="-0.20205">
        <ele>26.1</ele>
        <time>2023-10-11T14:18:08Z</time>
      </trkpt>
      <trkpt lat="49.10726" lon="-0.20216">
        <ele>26</ele>
        <time>2023-10-11T14:18:09Z</time>
      </trkpt>
      <trkpt lat="49.1073" lon="-0.20227">
        <ele>25.9</ele>
        <time>2023-10-11T14:18:10Z</time>
      </trkpt>
      <trkpt lat="49.10732" lon="-0.2024">
        <ele>25.8</ele>
        <time>2023-10-11T14:18:11Z</time>
      </trkpt>
      <trkpt lat="49.10734" lon="-0.20253">
        <ele>25.8</ele>
        <time>2023-10-11T14:18:12Z</time>
      </trkpt>
      <trkpt lat="49.10735" lon="-0.20266">
        <ele>25.7</ele>
        <time>2023-10-11T14:18:13Z</time>
      </trkpt>
      <trkpt lat="49.10736" lon="-0.20279">
        <ele>25.6</ele>
        <time>2023-10-11T14:18:14Z</time>
      </trkpt>
      <trkpt lat="49.10737" lon="-0.20292">
        <ele>25.5</ele>
        <time>2023-10-11T14:18:15Z</time>
      </trkpt>
      <trkpt lat="49.10738" lon="-0.20305">
        <ele>25.4</ele>
        <time>2023-10-11T14:18:16Z</time>
      </trkpt>
      <trkpt lat="49.10738" lon="-0.20318">
        <ele>25.3</ele>
        <time>2023-10-11T14:18:17Z</time>
      </trkpt>
      <trkpt lat="49.10739" lon="-0.20331">
        <ele>25.3</ele>
        <time>2023-10-11T14:18:18Z</time>
      </trkpt>
      <trkpt lat="49.1074" lon="-0.20345">
        <ele>25.2</ele>
        <time>2023-10-11T14:18:19Z</time>
      </trkpt>
      <trkpt lat="49.10741" lon="-0.20359">
        <ele>25.1</ele>
        <time>2023-10-11T14:18:20Z</time>
      </trkpt>
      <trkpt lat="49.10742" lon="-0.20373">
        <ele>25</ele>
        <time>2023-10-11T14:18:21Z</time>
      </trkpt>
      <trkpt lat="49.10743" lon="-0.20386">
        <ele>24.9</ele>
        <time>2023-10-11T14:18:22Z</time>
      </trkpt>
      <trkpt lat="49.10745" lon="-0.20398">
        <ele>24.8</ele>
        <time>2023-10-11T14:18:23Z</time>
      </trkpt>
      <trkpt lat="49.10746" lon="-0.20411">
        <ele>24.7</ele>
        <time>2023-10-11T14:18:24Z</time>
      </trkpt>
      <trkpt lat="49.10747" lon="-0.20424">
        <ele>24.7</ele>
        <time>2023-10-11T14:18:25Z</time>
      </trkpt>
      <trkpt lat="49.10748" lon="-0.20437">
        <ele>24.7</ele>
        <time>2023-10-11T14:18:26Z</time>
      </trkpt>
      <trkpt lat="49.10749" lon="-0.20451">
        <ele>24.6</ele>
        <time>2023-10-11T14:18:27Z</time>
      </trkpt>
      <trkpt lat="49.1075" lon="-0.20464">
        <ele>24.6</ele>
        <time>2023-10-11T14:18:28Z</time>
      </trkpt>
      <trkpt lat="49.10751" lon="-0.20477">
        <ele>24.6</ele>
        <time>2023-10-11T14:18:29Z</time>
      </trkpt>
      <trkpt lat="49.10753" lon="-0.2049">
        <ele>24.5</ele>
        <time>2023-10-11T14:18:30Z</time>
      </trkpt>
      <trkpt lat="49.10753" lon="-0.20503">
        <ele>24.5</ele>
        <time>2023-10-11T14:18:31Z</time>
      </trkpt>
      <trkpt lat="49.10755" lon="-0.20515">
        <ele>24.5</ele>
        <time>2023-10-11T14:18:32Z</time>
      </trkpt>
      <trkpt lat="49.10756" lon="-0.20527">
        <ele>24.5</ele>
        <time>2023-10-11T14:18:33Z</time>
      </trkpt>
      <trkpt lat="49.10757" lon="-0.2054">
        <ele>24.5</ele>
        <time>2023-10-11T14:18:34Z</time>
      </trkpt>
      <trkpt lat="49.10758" lon="-0.20554">
        <ele>24.5</ele>
        <time>2023-10-11T14:18:35Z</time>
      </trkpt>
      <trkpt lat="49.1076" lon="-0.20567">
        <ele>24.5</ele>
        <time>2023-10-11T14:18:36Z</time>
      </trkpt>
      <trkpt lat="49.10761" lon="-0.2058">
        <ele>24.5</ele>
        <time>2023-10-11T14:18:37Z</time>
      </trkpt>
      <trkpt lat="49.10763" lon="-0.20594">
        <ele>24.4</ele>
        <time>2023-10-11T14:18:38Z</time>
      </trkpt>
      <trkpt lat="49.10764" lon="-0.20607">
        <ele>24.5</ele>
        <time>2023-10-11T14:18:39Z</time>
      </trkpt>
      <trkpt lat="49.10766" lon="-0.2062">
        <ele>24.5</ele>
        <time>2023-10-11T14:18:40Z</time>
      </trkpt>
      <trkpt lat="49.10767" lon="-0.20633">
        <ele>24.4</ele>
        <time>2023-10-11T14:18:41Z</time>
      </trkpt>
      <trkpt lat="49.10769" lon="-0.20646">
        <ele>24.4</ele>
        <time>2023-10-11T14:18:42Z</time>
      </trkpt>
      <trkpt lat="49.10771" lon="-0.20659">
        <ele>24.3</ele>
        <time>2023-10-11T14:18:43Z</time>
      </trkpt>
      <trkpt lat="49.10773" lon="-0.20672">
        <ele>24.3</ele>
        <time>2023-10-11T14:18:44Z</time>
      </trkpt>
      <trkpt lat="49.10774" lon="-0.20685">
        <ele>24.2</ele>
        <time>2023-10-11T14:18:45Z</time>
      </trkpt>
      <trkpt lat="49.10776" lon="-0.20699">
        <ele>24.2</ele>
        <time>2023-10-11T14:18:46Z</time>
      </trkpt>
      <trkpt lat="49.10778" lon="-0.20712">
        <ele>24.3</ele>
        <time>2023-10-11T14:18:47Z</time>
      </trkpt>
      <trkpt lat="49.10779" lon="-0.20725">
        <ele>24.3</ele>
        <time>2023-10-11T14:18:48Z</time>
      </trkpt>
      <trkpt lat="49.10781" lon="-0.20738">
        <ele>24.4</ele>
        <time>2023-10-11T14:18:49Z</time>
      </trkpt>
      <trkpt lat="49.10783" lon="-0.20751">
        <ele>24.4</ele>
        <time>2023-10-11T14:18:50Z</time>
      </trkpt>
      <trkpt lat="49.10785" lon="-0.20764">
        <ele>24.5</ele>
        <time>2023-10-11T14:18:51Z</time>
      </trkpt>
      <trkpt lat="49.10787" lon="-0.20777">
        <ele>24.5</ele>
        <time>2023-10-11T14:18:52Z</time>
      </trkpt>
      <trkpt lat="49.10788" lon="-0.20789">
        <ele>24.5</ele>
        <time>2023-10-11T14:18:53Z</time>
      </trkpt>
      <trkpt lat="49.1079" lon="-0.20802">
        <ele>24.6</ele>
        <time>2023-10-11T14:18:54Z</time>
      </trkpt>
      <trkpt lat="49.10791" lon="-0.20814">
        <ele>24.6</ele>
        <time>2023-10-11T14:18:55Z</time>
      </trkpt>
      <trkpt lat="49.10793" lon="-0.20827">
        <ele>24.6</ele>
        <time>2023-10-11T14:18:56Z</time>
      </trkpt>
      <trkpt lat="49.10794" lon="-0.20839">
        <ele>24.6</ele>
        <time>2023-10-11T14:18:57Z</time>
      </trkpt>
      <trkpt lat="49.10795" lon="-0.20852">
        <ele>24.6</ele>
        <time>2023-10-11T14:18:58Z</time>
      </trkpt>
      <trkpt lat="49.10797" lon="-0.20864">
        <ele>24.5</ele>
        <time>2023-10-11T14:18:59Z</time>
      </trkpt>
      <trkpt lat="49.10799" lon="-0.20877">
        <ele>24.5</ele>
        <time>2023-10-11T14:19:00Z</time>
      </trkpt>
      <trkpt lat="49.108" lon="-0.20889">
        <ele>24.4</ele>
        <time>2023-10-11T14:19:01Z</time>
      </trkpt>
      <trkpt lat="49.10801" lon="-0.20902">
        <ele>24.4</ele>
        <time>2023-10-11T14:19:02Z</time>
      </trkpt>
      <trkpt lat="49.10803" lon="-0.20915">
        <ele>24.3</ele>
        <time>2023-10-11T14:19:03Z</time>
      </trkpt>
      <trkpt lat="49.10805" lon="-0.20927">
        <ele>24.3</ele>
        <time>2023-10-11T14:19:04Z</time>
      </trkpt>
      <trkpt lat="49.10807" lon="-0.2094">
        <ele>24.3</ele>
        <time>2023-10-11T14:19:05Z</time>
      </trkpt>
      <trkpt lat="49.10809" lon="-0.20952">
        <ele>24.3</ele>
        <time>2023-10-11T14:19:06Z</time>
      </trkpt>
      <trkpt lat="49.10811" lon="-0.20965">
        <ele>24.2</ele>
        <time>2023-10-11T14:19:07Z</time>
      </trkpt>
      <trkpt lat="49.10813" lon="-0.20978">
        <ele>24.2</ele>
        <time>2023-10-11T14:19:08Z</time>
      </trkpt>
      <trkpt lat="49.10814" lon="-0.20991">
        <ele>24.2</ele>
        <time>2023-10-11T14:19:09Z</time>
      </trkpt>
      <trkpt lat="49.10816" lon="-0.21003">
        <ele>24.2</ele>
        <time>2023-10-11T14:19:10Z</time>
      </trkpt>
      <trkpt lat="49.10817" lon="-0.21014">
        <ele>24.1</ele>
        <time>2023-10-11T14:19:11Z</time>
      </trkpt>
      <trkpt lat="49.10819" lon="-0.21026">
        <ele>24.1</ele>
        <time>2023-10-11T14:19:12Z</time>
      </trkpt>
      <trkpt lat="49.1082" lon="-0.21038">
        <ele>24.1</ele>
        <time>2023-10-11T14:19:13Z</time>
      </trkpt>
      <trkpt lat="49.10822" lon="-0.21049">
        <ele>24.1</ele>
        <time>2023-10-11T14:19:14Z</time>
      </trkpt>
      <trkpt lat="49.10823" lon="-0.2106">
        <ele>24.1</ele>
        <time>2023-10-11T14:19:15Z</time>
      </trkpt>
      <trkpt lat="49.10824" lon="-0.21071">
        <ele>24.1</ele>
        <time>2023-10-11T14:19:16Z</time>
      </trkpt>
      <trkpt lat="49.10826" lon="-0.21082">
        <ele>24.1</ele>
        <time>2023-10-11T14:19:17Z</time>
      </trkpt>
      <trkpt lat="49.10827" lon="-0.21091">
        <ele>24.2</ele>
        <time>2023-10-11T14:19:18Z</time>
      </trkpt>
      <trkpt lat="49.10828" lon="-0.21099">
        <ele>24.2</ele>
        <time>2023-10-11T14:19:19Z</time>
      </trkpt>
      <trkpt lat="49.10829" lon="-0.21106">
        <ele>24.2</ele>
        <time>2023-10-11T14:19:20Z</time>
      </trkpt>
      <trkpt lat="49.1083" lon="-0.21114">
        <ele>24.2</ele>
        <time>2023-10-11T14:19:21Z</time>
      </trkpt>
      <trkpt lat="49.10831" lon="-0.21122">
        <ele>24.2</ele>
        <time>2023-10-11T14:19:22Z</time>
      </trkpt>
      <trkpt lat="49.10831" lon="-0.2113">
        <ele>24.1</ele>
        <time>2023-10-11T14:19:23Z</time>
      </trkpt>
      <trkpt lat="49.10833" lon="-0.2114">
        <ele>24.1</ele>
        <time>2023-10-11T14:19:24Z</time>
      </trkpt>
      <trkpt lat="49.10834" lon="-0.21149">
        <ele>24</ele>
        <time>2023-10-11T14:19:25Z</time>
      </trkpt>
      <trkpt lat="49.10836" lon="-0.21159">
        <ele>24</ele>
        <time>2023-10-11T14:19:26Z</time>
      </trkpt>
      <trkpt lat="49.10837" lon="-0.2117">
        <ele>23.9</ele>
        <time>2023-10-11T14:19:27Z</time>
      </trkpt>
      <trkpt lat="49.10838" lon="-0.2118">
        <ele>23.8</ele>
        <time>2023-10-11T14:19:28Z</time>
      </trkpt>
      <trkpt lat="49.1084" lon="-0.2119">
        <ele>23.8</ele>
        <time>2023-10-11T14:19:29Z</time>
      </trkpt>
      <trkpt lat="49.10841" lon="-0.212">
        <ele>23.7</ele>
        <time>2023-10-11T14:19:30Z</time>
      </trkpt>
      <trkpt lat="49.10842" lon="-0.2121">
        <ele>23.7</ele>
        <time>2023-10-11T14:19:31Z</time>
      </trkpt>
      <trkpt lat="49.10843" lon="-0.2122">
        <ele>23.7</ele>
        <time>2023-10-11T14:19:32Z</time>
      </trkpt>
      <trkpt lat="49.10845" lon="-0.2123">
        <ele>23.7</ele>
        <time>2023-10-11T14:19:33Z</time>
      </trkpt>
      <trkpt lat="49.10847" lon="-0.2124">
        <ele>23.6</ele>
        <time>2023-10-11T14:19:34Z</time>
      </trkpt>
      <trkpt lat="49.10851" lon="-0.21248">
        <ele>23.6</ele>
        <time>2023-10-11T14:19:35Z</time>
      </trkpt>
      <trkpt lat="49.10856" lon="-0.21256">
        <ele>23.6</ele>
        <time>2023-10-11T14:19:36Z</time>
      </trkpt>
      <trkpt lat="49.10862" lon="-0.21263">
        <ele>23.5</ele>
        <time>2023-10-11T14:19:37Z</time>
      </trkpt>
      <trkpt lat="49.10867" lon="-0.21271">
        <ele>23.4</ele>
        <time>2023-10-11T14:19:38Z</time>
      </trkpt>
      <trkpt lat="49.10872" lon="-0.21278">
        <ele>23.4</ele>
        <time>2023-10-11T14:19:39Z</time>
      </trkpt>
      <trkpt lat="49.10878" lon="-0.21286">
        <ele>23.3</ele>
        <time>2023-10-11T14:19:40Z</time>
      </trkpt>
      <trkpt lat="49.10883" lon="-0.21294">
        <ele>23.3</ele>
        <time>2023-10-11T14:19:41Z</time>
      </trkpt>
      <trkpt lat="49.10888" lon="-0.21302">
        <ele>23.2</ele>
        <time>2023-10-11T14:19:42Z</time>
      </trkpt>
      <trkpt lat="49.10893" lon="-0.2131">
        <ele>23.2</ele>
        <time>2023-10-11T14:19:43Z</time>
      </trkpt>
      <trkpt lat="49.10898" lon="-0.21319">
        <ele>23.2</ele>
        <time>2023-10-11T14:19:44Z</time>
      </trkpt>
      <trkpt lat="49.10902" lon="-0.21328">
        <ele>23.1</ele>
        <time>2023-10-11T14:19:45Z</time>
      </trkpt>
      <trkpt lat="49.10906" lon="-0.21337">
        <ele>23</ele>
        <time>2023-10-11T14:19:46Z</time>
      </trkpt>
      <trkpt lat="49.1091" lon="-0.21346">
        <ele>23</ele>
        <time>2023-10-11T14:19:47Z</time>
      </trkpt>
      <trkpt lat="49.10914" lon="-0.21356">
        <ele>22.9</ele>
        <time>2023-10-11T14:19:48Z</time>
      </trkpt>
      <trkpt lat="49.10917" lon="-0.21365">
        <ele>22.9</ele>
        <time>2023-10-11T14:19:49Z</time>
      </trkpt>
      <trkpt lat="49.10921" lon="-0.21375">
        <ele>22.9</ele>
        <time>2023-10-11T14:19:50Z</time>
      </trkpt>
      <trkpt lat="49.10925" lon="-0.21384">
        <ele>22.9</ele>
        <time>2023-10-11T14:19:51Z</time>
      </trkpt>
      <trkpt lat="49.10929" lon="-0.21394">
        <ele>22.8</ele>
        <time>2023-10-11T14:19:52Z</time>
      </trkpt>
      <trkpt lat="49.10933" lon="-0.21404">
        <ele>22.8</ele>
        <time>2023-10-11T14:19:53Z</time>
      </trkpt>
      <trkpt lat="49.10938" lon="-0.21413">
        <ele>22.8</ele>
        <time>2023-10-11T14:19:54Z</time>
      </trkpt>
      <trkpt lat="49.10942" lon="-0.21422">
        <ele>22.7</ele>
        <time>2023-10-11T14:19:55Z</time>
      </trkpt>
      <trkpt lat="49.10947" lon="-0.21431">
        <ele>22.7</ele>
        <time>2023-10-11T14:19:56Z</time>
      </trkpt>
      <trkpt lat="49.10952" lon="-0.2144">
        <ele>22.7</ele>
        <time>2023-10-11T14:19:57Z</time>
      </trkpt>
      <trkpt lat="49.10957" lon="-0.21448">
        <ele>22.7</ele>
        <time>2023-10-11T14:19:58Z</time>
      </trkpt>
      <trkpt lat="49.10961" lon="-0.21457">
        <ele>22.7</ele>
        <time>2023-10-11T14:19:59Z</time>
      </trkpt>
      <trkpt lat="49.10966" lon="-0.21465">
        <ele>22.7</ele>
        <time>2023-10-11T14:20:00Z</time>
      </trkpt>
      <trkpt lat="49.10971" lon="-0.21472">
        <ele>22.6</ele>
        <time>2023-10-11T14:20:01Z</time>
      </trkpt>
      <trkpt lat="49.10977" lon="-0.21478">
        <ele>22.6</ele>
        <time>2023-10-11T14:20:02Z</time>
      </trkpt>
      <trkpt lat="49.10983" lon="-0.21486">
        <ele>22.6</ele>
        <time>2023-10-11T14:20:03Z</time>
      </trkpt>
      <trkpt lat="49.10988" lon="-0.21494">
        <ele>22.6</ele>
        <time>2023-10-11T14:20:04Z</time>
      </trkpt>
      <trkpt lat="49.10993" lon="-0.21503">
        <ele>22.6</ele>
        <time>2023-10-11T14:20:05Z</time>
      </trkpt>
      <trkpt lat="49.10997" lon="-0.21512">
        <ele>22.6</ele>
        <time>2023-10-11T14:20:06Z</time>
      </trkpt>
      <trkpt lat="49.11001" lon="-0.21521">
        <ele>22.6</ele>
        <time>2023-10-11T14:20:07Z</time>
      </trkpt>
      <trkpt lat="49.11004" lon="-0.21532">
        <ele>22.6</ele>
        <time>2023-10-11T14:20:08Z</time>
      </trkpt>
      <trkpt lat="49.11006" lon="-0.21543">
        <ele>22.6</ele>
        <time>2023-10-11T14:20:09Z</time>
      </trkpt>
      <trkpt lat="49.11008" lon="-0.21554">
        <ele>22.6</ele>
        <time>2023-10-11T14:20:10Z</time>
      </trkpt>
      <trkpt lat="49.11009" lon="-0.21566">
        <ele>22.6</ele>
        <time>2023-10-11T14:20:11Z</time>
      </trkpt>
      <trkpt lat="49.11011" lon="-0.21577">
        <ele>22.6</ele>
        <time>2023-10-11T14:20:12Z</time>
      </trkpt>
      <trkpt lat="49.11012" lon="-0.21589">
        <ele>22.6</ele>
        <time>2023-10-11T14:20:13Z</time>
      </trkpt>
      <trkpt lat="49.11014" lon="-0.216">
        <ele>22.6</ele>
        <time>2023-10-11T14:20:14Z</time>
      </trkpt>
      <trkpt lat="49.11016" lon="-0.21611">
        <ele>22.7</ele>
        <time>2023-10-11T14:20:15Z</time>
      </trkpt>
      <trkpt lat="49.11019" lon="-0.21622">
        <ele>22.7</ele>
        <time>2023-10-11T14:20:16Z</time>
      </trkpt>
      <trkpt lat="49.11022" lon="-0.21633">
        <ele>22.7</ele>
        <time>2023-10-11T14:20:17Z</time>
      </trkpt>
      <trkpt lat="49.11025" lon="-0.21643">
        <ele>22.7</ele>
        <time>2023-10-11T14:20:18Z</time>
      </trkpt>
      <trkpt lat="49.11028" lon="-0.21653">
        <ele>22.7</ele>
        <time>2023-10-11T14:20:19Z</time>
      </trkpt>
      <trkpt lat="49.1103" lon="-0.21663">
        <ele>22.7</ele>
        <time>2023-10-11T14:20:20Z</time>
      </trkpt>
      <trkpt lat="49.11033" lon="-0.21673">
        <ele>22.6</ele>
        <time>2023-10-11T14:20:21Z</time>
      </trkpt>
      <trkpt lat="49.11036" lon="-0.21683">
        <ele>22.6</ele>
        <time>2023-10-11T14:20:22Z</time>
      </trkpt>
      <trkpt lat="49.11038" lon="-0.21693">
        <ele>22.6</ele>
        <time>2023-10-11T14:20:23Z</time>
      </trkpt>
      <trkpt lat="49.11041" lon="-0.21703">
        <ele>22.6</ele>
        <time>2023-10-11T14:20:24Z</time>
      </trkpt>
      <trkpt lat="49.11044" lon="-0.21712">
        <ele>22.5</ele>
        <time>2023-10-11T14:20:25Z</time>
      </trkpt>
      <trkpt lat="49.11047" lon="-0.21722">
        <ele>22.5</ele>
        <time>2023-10-11T14:20:26Z</time>
      </trkpt>
      <trkpt lat="49.1105" lon="-0.21731">
        <ele>22.5</ele>
        <time>2023-10-11T14:20:27Z</time>
      </trkpt>
      <trkpt lat="49.11053" lon="-0.21739">
        <ele>22.5</ele>
        <time>2023-10-11T14:20:28Z</time>
      </trkpt>
      <trkpt lat="49.11058" lon="-0.21747">
        <ele>22.4</ele>
        <time>2023-10-11T14:20:29Z</time>
      </trkpt>
      <trkpt lat="49.11064" lon="-0.21754">
        <ele>22.4</ele>
        <time>2023-10-11T14:20:30Z</time>
      </trkpt>
      <trkpt lat="49.1107" lon="-0.21761">
        <ele>22.3</ele>
        <time>2023-10-11T14:20:31Z</time>
      </trkpt>
      <trkpt lat="49.11075" lon="-0.21768">
        <ele>22.3</ele>
        <time>2023-10-11T14:20:32Z</time>
      </trkpt>
      <trkpt lat="49.1108" lon="-0.21777">
        <ele>22.2</ele>
        <time>2023-10-11T14:20:33Z</time>
      </trkpt>
      <trkpt lat="49.11084" lon="-0.21787">
        <ele>22.2</ele>
        <time>2023-10-11T14:20:34Z</time>
      </trkpt>
      <trkpt lat="49.11086" lon="-0.21798">
        <ele>22.2</ele>
        <time>2023-10-11T14:20:35Z</time>
      </trkpt>
      <trkpt lat="49.11088" lon="-0.2181">
        <ele>22.2</ele>
        <time>2023-10-11T14:20:36Z</time>
      </trkpt>
      <trkpt lat="49.11089" lon="-0.21821">
        <ele>22.1</ele>
        <time>2023-10-11T14:20:37Z</time>
      </trkpt>
      <trkpt lat="49.1109" lon="-0.21833">
        <ele>22.1</ele>
        <time>2023-10-11T14:20:38Z</time>
      </trkpt>
      <trkpt lat="49.11091" lon="-0.21845">
        <ele>22</ele>
        <time>2023-10-11T14:20:39Z</time>
      </trkpt>
      <trkpt lat="49.11092" lon="-0.21857">
        <ele>22</ele>
        <time>2023-10-11T14:20:40Z</time>
      </trkpt>
      <trkpt lat="49.11092" lon="-0.21869">
        <ele>22</ele>
        <time>2023-10-11T14:20:41Z</time>
      </trkpt>
      <trkpt lat="49.11091" lon="-0.2188">
        <ele>22</ele>
        <time>2023-10-11T14:20:42Z</time>
      </trkpt>
      <trkpt lat="49.11089" lon="-0.21892">
        <ele>22</ele>
        <time>2023-10-11T14:20:43Z</time>
      </trkpt>
      <trkpt lat="49.11086" lon="-0.21903">
        <ele>22</ele>
        <time>2023-10-11T14:20:44Z</time>
      </trkpt>
      <trkpt lat="49.11084" lon="-0.21914">
        <ele>22</ele>
        <time>2023-10-11T14:20:45Z</time>
      </trkpt>
      <trkpt lat="49.11081" lon="-0.21925">
        <ele>22.1</ele>
        <time>2023-10-11T14:20:46Z</time>
      </trkpt>
      <trkpt lat="49.11078" lon="-0.21936">
        <ele>22.1</ele>
        <time>2023-10-11T14:20:47Z</time>
      </trkpt>
      <trkpt lat="49.11075" lon="-0.21947">
        <ele>22.2</ele>
        <time>2023-10-11T14:20:48Z</time>
      </trkpt>
      <trkpt lat="49.11072" lon="-0.21958">
        <ele>22.2</ele>
        <time>2023-10-11T14:20:49Z</time>
      </trkpt>
      <trkpt lat="49.11069" lon="-0.21969">
        <ele>22.2</ele>
        <time>2023-10-11T14:20:50Z</time>
      </trkpt>
      <trkpt lat="49.11067" lon="-0.2198">
        <ele>22.3</ele>
        <time>2023-10-11T14:20:51Z</time>
      </trkpt>
      <trkpt lat="49.11064" lon="-0.21991">
        <ele>22.3</ele>
        <time>2023-10-11T14:20:52Z</time>
      </trkpt>
      <trkpt lat="49.11062" lon="-0.22003">
        <ele>22.4</ele>
        <time>2023-10-11T14:20:53Z</time>
      </trkpt>
      <trkpt lat="49.1106" lon="-0.22015">
        <ele>22.4</ele>
        <time>2023-10-11T14:20:54Z</time>
      </trkpt>
      <trkpt lat="49.11058" lon="-0.22026">
        <ele>22.4</ele>
        <time>2023-10-11T14:20:55Z</time>
      </trkpt>
      <trkpt lat="49.11057" lon="-0.22038">
        <ele>22.5</ele>
        <time>2023-10-11T14:20:56Z</time>
      </trkpt>
      <trkpt lat="49.11055" lon="-0.2205">
        <ele>22.5</ele>
        <time>2023-10-11T14:20:57Z</time>
      </trkpt>
      <trkpt lat="49.11054" lon="-0.22061">
        <ele>22.5</ele>
        <time>2023-10-11T14:20:58Z</time>
      </trkpt>
      <trkpt lat="49.11052" lon="-0.22073">
        <ele>22.6</ele>
        <time>2023-10-11T14:20:59Z</time>
      </trkpt>
      <trkpt lat="49.11052" lon="-0.22086">
        <ele>22.6</ele>
        <time>2023-10-11T14:21:00Z</time>
      </trkpt>
      <trkpt lat="49.11051" lon="-0.22098">
        <ele>22.6</ele>
        <time>2023-10-11T14:21:01Z</time>
      </trkpt>
      <trkpt lat="49.11051" lon="-0.2211">
        <ele>22.6</ele>
        <time>2023-10-11T14:21:02Z</time>
      </trkpt>
      <trkpt lat="49.11052" lon="-0.22121">
        <ele>22.6</ele>
        <time>2023-10-11T14:21:03Z</time>
      </trkpt>
      <trkpt lat="49.11055" lon="-0.22133">
        <ele>22.5</ele>
        <time>2023-10-11T14:21:04Z</time>
      </trkpt>
      <trkpt lat="49.11057" lon="-0.22144">
        <ele>22.4</ele>
        <time>2023-10-11T14:21:05Z</time>
      </trkpt>
      <trkpt lat="49.11061" lon="-0.22155">
        <ele>22.4</ele>
        <time>2023-10-11T14:21:06Z</time>
      </trkpt>
      <trkpt lat="49.11065" lon="-0.22166">
        <ele>22.3</ele>
        <time>2023-10-11T14:21:07Z</time>
      </trkpt>
      <trkpt lat="49.11069" lon="-0.22176">
        <ele>22.3</ele>
        <time>2023-10-11T14:21:08Z</time>
      </trkpt>
      <trkpt lat="49.11074" lon="-0.22187">
        <ele>22.3</ele>
        <time>2023-10-11T14:21:09Z</time>
      </trkpt>
      <trkpt lat="49.11079" lon="-0.22197">
        <ele>22.3</ele>
        <time>2023-10-11T14:21:10Z</time>
      </trkpt>
      <trkpt lat="49.11083" lon="-0.22207">
        <ele>22.2</ele>
        <time>2023-10-11T14:21:11Z</time>
      </trkpt>
      <trkpt lat="49.11087" lon="-0.22217">
        <ele>22.2</ele>
        <time>2023-10-11T14:21:12Z</time>
      </trkpt>
      <trkpt lat="49.11091" lon="-0.22228">
        <ele>22.3</ele>
        <time>2023-10-11T14:21:13Z</time>
      </trkpt>
      <trkpt lat="49.11095" lon="-0.22239">
        <ele>22.3</ele>
        <time>2023-10-11T14:21:14Z</time>
      </trkpt>
      <trkpt lat="49.11099" lon="-0.2225">
        <ele>22.3</ele>
        <time>2023-10-11T14:21:15Z</time>
      </trkpt>
      <trkpt lat="49.11103" lon="-0.22262">
        <ele>22.3</ele>
        <time>2023-10-11T14:21:16Z</time>
      </trkpt>
      <trkpt lat="49.11107" lon="-0.22274">
        <ele>22.4</ele>
        <time>2023-10-11T14:21:17Z</time>
      </trkpt>
      <trkpt lat="49.1111" lon="-0.22285">
        <ele>22.4</ele>
        <time>2023-10-11T14:21:18Z</time>
      </trkpt>
      <trkpt lat="49.11112" lon="-0.22297">
        <ele>22.5</ele>
        <time>2023-10-11T14:21:19Z</time>
      </trkpt>
      <trkpt lat="49.11114" lon="-0.22309">
        <ele>22.5</ele>
        <time>2023-10-11T14:21:20Z</time>
      </trkpt>
      <trkpt lat="49.11116" lon="-0.22321">
        <ele>22.6</ele>
        <time>2023-10-11T14:21:21Z</time>
      </trkpt>
      <trkpt lat="49.11118" lon="-0.22332">
        <ele>22.7</ele>
        <time>2023-10-11T14:21:22Z</time>
      </trkpt>
      <trkpt lat="49.11119" lon="-0.22344">
        <ele>22.8</ele>
        <time>2023-10-11T14:21:23Z</time>
      </trkpt>
      <trkpt lat="49.1112" lon="-0.22355">
        <ele>22.9</ele>
        <time>2023-10-11T14:21:24Z</time>
      </trkpt>
      <trkpt lat="49.1112" lon="-0.22365">
        <ele>23</ele>
        <time>2023-10-11T14:21:25Z</time>
      </trkpt>
      <trkpt lat="49.11121" lon="-0.22374">
        <ele>23.1</ele>
        <time>2023-10-11T14:21:26Z</time>
      </trkpt>
      <trkpt lat="49.11124" lon="-0.22381">
        <ele>23.1</ele>
        <time>2023-10-11T14:21:27Z</time>
      </trkpt>
      <trkpt lat="49.11131" lon="-0.22385">
        <ele>23.1</ele>
        <time>2023-10-11T14:21:28Z</time>
      </trkpt>
      <trkpt lat="49.11138" lon="-0.22387">
        <ele>23.1</ele>
        <time>2023-10-11T14:21:29Z</time>
      </trkpt>
      <trkpt lat="49.11146" lon="-0.22387">
        <ele>22.9</ele>
        <time>2023-10-11T14:21:30Z</time>
      </trkpt>
      <trkpt lat="49.11153" lon="-0.22387">
        <ele>22.7</ele>
        <time>2023-10-11T14:21:31Z</time>
      </trkpt>
      <trkpt lat="49.11161" lon="-0.22388">
        <ele>22.6</ele>
        <time>2023-10-11T14:21:32Z</time>
      </trkpt>
      <trkpt lat="49.11169" lon="-0.2239">
        <ele>22.5</ele>
        <time>2023-10-11T14:21:33Z</time>
      </trkpt>
      <trkpt lat="49.11177" lon="-0.22392">
        <ele>22.4</ele>
        <time>2023-10-11T14:21:34Z</time>
      </trkpt>
      <trkpt lat="49.11185" lon="-0.22395">
        <ele>22.4</ele>
        <time>2023-10-11T14:21:35Z</time>
      </trkpt>
      <trkpt lat="49.11193" lon="-0.22398">
        <ele>22.3</ele>
        <time>2023-10-11T14:21:36Z</time>
      </trkpt>
      <trkpt lat="49.11202" lon="-0.22403">
        <ele>22.3</ele>
        <time>2023-10-11T14:21:37Z</time>
      </trkpt>
      <trkpt lat="49.11209" lon="-0.22409">
        <ele>22.2</ele>
        <time>2023-10-11T14:21:38Z</time>
      </trkpt>
      <trkpt lat="49.11217" lon="-0.22416">
        <ele>22.1</ele>
        <time>2023-10-11T14:21:39Z</time>
      </trkpt>
      <trkpt lat="49.11224" lon="-0.22423">
        <ele>22.1</ele>
        <time>2023-10-11T14:21:40Z</time>
      </trkpt>
      <trkpt lat="49.11232" lon="-0.22429">
        <ele>22</ele>
        <time>2023-10-11T14:21:41Z</time>
      </trkpt>
      <trkpt lat="49.1124" lon="-0.22435">
        <ele>22</ele>
        <time>2023-10-11T14:21:42Z</time>
      </trkpt>
      <trkpt lat="49.11248" lon="-0.2244">
        <ele>21.9</ele>
        <time>2023-10-11T14:21:43Z</time>
      </trkpt>
      <trkpt lat="49.11256" lon="-0.22444">
        <ele>21.9</ele>
        <time>2023-10-11T14:21:44Z</time>
      </trkpt>
      <trkpt lat="49.11264" lon="-0.22447">
        <ele>21.9</ele>
        <time>2023-10-11T14:21:45Z</time>
      </trkpt>
      <trkpt lat="49.11272" lon="-0.2245">
        <ele>21.9</ele>
        <time>2023-10-11T14:21:46Z</time>
      </trkpt>
      <trkpt lat="49.11281" lon="-0.22452">
        <ele>21.8</ele>
        <time>2023-10-11T14:21:47Z</time>
      </trkpt>
      <trkpt lat="49.11289" lon="-0.22453">
        <ele>21.8</ele>
        <time>2023-10-11T14:21:48Z</time>
      </trkpt>
      <trkpt lat="49.11298" lon="-0.22453">
        <ele>21.8</ele>
        <time>2023-10-11T14:21:49Z</time>
      </trkpt>
      <trkpt lat="49.11306" lon="-0.22451">
        <ele>21.7</ele>
        <time>2023-10-11T14:21:50Z</time>
      </trkpt>
      <trkpt lat="49.11314" lon="-0.22449">
        <ele>21.7</ele>
        <time>2023-10-11T14:21:51Z</time>
      </trkpt>
      <trkpt lat="49.11322" lon="-0.22445">
        <ele>21.7</ele>
        <time>2023-10-11T14:21:52Z</time>
      </trkpt>
      <trkpt lat="49.1133" lon="-0.22441">
        <ele>21.7</ele>
        <time>2023-10-11T14:21:53Z</time>
      </trkpt>
      <trkpt lat="49.11338" lon="-0.22436">
        <ele>21.6</ele>
        <time>2023-10-11T14:21:54Z</time>
      </trkpt>
      <trkpt lat="49.11345" lon="-0.22431">
        <ele>21.5</ele>
        <time>2023-10-11T14:21:55Z</time>
      </trkpt>
      <trkpt lat="49.11353" lon="-0.22425">
        <ele>21.4</ele>
        <time>2023-10-11T14:21:56Z</time>
      </trkpt>
      <trkpt lat="49.11361" lon="-0.2242">
        <ele>21.3</ele>
        <time>2023-10-11T14:21:57Z</time>
      </trkpt>
      <trkpt lat="49.11369" lon="-0.22415">
        <ele>21.2</ele>
        <time>2023-10-11T14:21:58Z</time>
      </trkpt>
      <trkpt lat="49.11377" lon="-0.2241">
        <ele>21.1</ele>
        <time>2023-10-11T14:21:59Z</time>
      </trkpt>
      <trkpt lat="49.11385" lon="-0.22405">
        <ele>21</ele>
        <time>2023-10-11T14:22:00Z</time>
      </trkpt>
      <trkpt lat="49.11394" lon="-0.224">
        <ele>20.9</ele>
        <time>2023-10-11T14:22:01Z</time>
      </trkpt>
      <trkpt lat="49.11402" lon="-0.22395">
        <ele>20.9</ele>
        <time>2023-10-11T14:22:02Z</time>
      </trkpt>
      <trkpt lat="49.1141" lon="-0.22389">
        <ele>20.8</ele>
        <time>2023-10-11T14:22:03Z</time>
      </trkpt>
      <trkpt lat="49.11418" lon="-0.22383">
        <ele>20.8</ele>
        <time>2023-10-11T14:22:04Z</time>
      </trkpt>
      <trkpt lat="49.11426" lon="-0.22378">
        <ele>20.8</ele>
        <time>2023-10-11T14:22:05Z</time>
      </trkpt>
      <trkpt lat="49.11434" lon="-0.22372">
        <ele>20.8</ele>
        <time>2023-10-11T14:22:06Z</time>
      </trkpt>
      <trkpt lat="49.11442" lon="-0.22367">
        <ele>20.9</ele>
        <time>2023-10-11T14:22:07Z</time>
      </trkpt>
      <trkpt lat="49.1145" lon="-0.22362">
        <ele>21</ele>
        <time>2023-10-11T14:22:08Z</time>
      </trkpt>
      <trkpt lat="49.11458" lon="-0.22357">
        <ele>21</ele>
        <time>2023-10-11T14:22:09Z</time>
      </trkpt>
      <trkpt lat="49.11466" lon="-0.22352">
        <ele>20.9</ele>
        <time>2023-10-11T14:22:10Z</time>
      </trkpt>
      <trkpt lat="49.11474" lon="-0.22347">
        <ele>20.9</ele>
        <time>2023-10-11T14:22:11Z</time>
      </trkpt>
      <trkpt lat="49.11482" lon="-0.22342">
        <ele>20.9</ele>
        <time>2023-10-11T14:22:12Z</time>
      </trkpt>
      <trkpt lat="49.11491" lon="-0.22338">
        <ele>20.9</ele>
        <time>2023-10-11T14:22:13Z</time>
      </trkpt>
      <trkpt lat="49.11499" lon="-0.22335">
        <ele>20.9</ele>
        <time>2023-10-11T14:22:14Z</time>
      </trkpt>
      <trkpt lat="49.11508" lon="-0.22331">
        <ele>20.9</ele>
        <time>2023-10-11T14:22:15Z</time>
      </trkpt>
      <trkpt lat="49.11517" lon="-0.22329">
        <ele>20.8</ele>
        <time>2023-10-11T14:22:16Z</time>
      </trkpt>
      <trkpt lat="49.11526" lon="-0.22328">
        <ele>20.8</ele>
        <time>2023-10-11T14:22:17Z</time>
      </trkpt>
      <trkpt lat="49.11536" lon="-0.22327">
        <ele>20.7</ele>
        <time>2023-10-11T14:22:18Z</time>
      </trkpt>
      <trkpt lat="49.11545" lon="-0.22327">
        <ele>20.7</ele>
        <time>2023-10-11T14:22:19Z</time>
      </trkpt>
      <trkpt lat="49.11554" lon="-0.22327">
        <ele>20.6</ele>
        <time>2023-10-11T14:22:20Z</time>
      </trkpt>
      <trkpt lat="49.11563" lon="-0.22327">
        <ele>20.6</ele>
        <time>2023-10-11T14:22:21Z</time>
      </trkpt>
      <trkpt lat="49.11572" lon="-0.22327">
        <ele>20.6</ele>
        <time>2023-10-11T14:22:22Z</time>
      </trkpt>
      <trkpt lat="49.11582" lon="-0.22327">
        <ele>20.5</ele>
        <time>2023-10-11T14:22:23Z</time>
      </trkpt>
      <trkpt lat="49.11591" lon="-0.22327">
        <ele>20.5</ele>
        <time>2023-10-11T14:22:24Z</time>
      </trkpt>
      <trkpt lat="49.11599" lon="-0.22327">
        <ele>20.5</ele>
        <time>2023-10-11T14:22:25Z</time>
      </trkpt>
      <trkpt lat="49.11608" lon="-0.22327">
        <ele>20.6</ele>
        <time>2023-10-11T14:22:26Z</time>
      </trkpt>
      <trkpt lat="49.11617" lon="-0.22327">
        <ele>20.6</ele>
        <time>2023-10-11T14:22:27Z</time>
      </trkpt>
      <trkpt lat="49.11626" lon="-0.22326">
        <ele>20.6</ele>
        <time>2023-10-11T14:22:28Z</time>
      </trkpt>
      <trkpt lat="49.11635" lon="-0.22325">
        <ele>20.6</ele>
        <time>2023-10-11T14:22:29Z</time>
      </trkpt>
      <trkpt lat="49.11644" lon="-0.22324">
        <ele>20.6</ele>
        <time>2023-10-11T14:22:30Z</time>
      </trkpt>
      <trkpt lat="49.11653" lon="-0.22323">
        <ele>20.6</ele>
        <time>2023-10-11T14:22:31Z</time>
      </trkpt>
      <trkpt lat="49.11662" lon="-0.22323">
        <ele>20.7</ele>
        <time>2023-10-11T14:22:32Z</time>
      </trkpt>
      <trkpt lat="49.11671" lon="-0.22322">
        <ele>20.7</ele>
        <time>2023-10-11T14:22:33Z</time>
      </trkpt>
      <trkpt lat="49.1168" lon="-0.22321">
        <ele>20.8</ele>
        <time>2023-10-11T14:22:34Z</time>
      </trkpt>
      <trkpt lat="49.11689" lon="-0.22321">
        <ele>20.9</ele>
        <time>2023-10-11T14:22:35Z</time>
      </trkpt>
      <trkpt lat="49.11697" lon="-0.2232">
        <ele>20.9</ele>
        <time>2023-10-11T14:22:36Z</time>
      </trkpt>
      <trkpt lat="49.11705" lon="-0.2232">
        <ele>21.1</ele>
        <time>2023-10-11T14:22:37Z</time>
      </trkpt>
      <trkpt lat="49.11714" lon="-0.2232">
        <ele>21.2</ele>
        <time>2023-10-11T14:22:38Z</time>
      </trkpt>
      <trkpt lat="49.11722" lon="-0.2232">
        <ele>21.3</ele>
        <time>2023-10-11T14:22:39Z</time>
      </trkpt>
      <trkpt lat="49.1173" lon="-0.22319">
        <ele>21.4</ele>
        <time>2023-10-11T14:22:40Z</time>
      </trkpt>
      <trkpt lat="49.11738" lon="-0.22318">
        <ele>21.6</ele>
        <time>2023-10-11T14:22:41Z</time>
      </trkpt>
      <trkpt lat="49.11746" lon="-0.22315">
        <ele>21.8</ele>
        <time>2023-10-11T14:22:42Z</time>
      </trkpt>
      <trkpt lat="49.11754" lon="-0.22312">
        <ele>21.9</ele>
        <time>2023-10-11T14:22:43Z</time>
      </trkpt>
      <trkpt lat="49.11761" lon="-0.22308">
        <ele>22</ele>
        <time>2023-10-11T14:22:44Z</time>
      </trkpt>
      <trkpt lat="49.11768" lon="-0.22302">
        <ele>22.1</ele>
        <time>2023-10-11T14:22:45Z</time>
      </trkpt>
      <trkpt lat="49.11775" lon="-0.22295">
        <ele>22.2</ele>
        <time>2023-10-11T14:22:46Z</time>
      </trkpt>
      <trkpt lat="49.11781" lon="-0.22286">
        <ele>22.2</ele>
        <time>2023-10-11T14:22:47Z</time>
      </trkpt>
      <trkpt lat="49.11787" lon="-0.22278">
        <ele>22.2</ele>
        <time>2023-10-11T14:22:48Z</time>
      </trkpt>
      <trkpt lat="49.11792" lon="-0.22269">
        <ele>22.2</ele>
        <time>2023-10-11T14:22:49Z</time>
      </trkpt>
      <trkpt lat="49.11798" lon="-0.2226">
        <ele>22.2</ele>
        <time>2023-10-11T14:22:50Z</time>
      </trkpt>
      <trkpt lat="49.11803" lon="-0.22251">
        <ele>22.3</ele>
        <time>2023-10-11T14:22:51Z</time>
      </trkpt>
      <trkpt lat="49.11808" lon="-0.22242">
        <ele>22.4</ele>
        <time>2023-10-11T14:22:52Z</time>
      </trkpt>
      <trkpt lat="49.11813" lon="-0.22234">
        <ele>22.5</ele>
        <time>2023-10-11T14:22:53Z</time>
      </trkpt>
      <trkpt lat="49.11818" lon="-0.22229">
        <ele>22.6</ele>
        <time>2023-10-11T14:22:54Z</time>
      </trkpt>
      <trkpt lat="49.11823" lon="-0.22227">
        <ele>22.9</ele>
        <time>2023-10-11T14:22:55Z</time>
      </trkpt>
      <trkpt lat="49.11829" lon="-0.2223">
        <ele>23.1</ele>
        <time>2023-10-11T14:22:56Z</time>
      </trkpt>
      <trkpt lat="49.11835" lon="-0.22235">
        <ele>23.4</ele>
        <time>2023-10-11T14:22:57Z</time>
      </trkpt>
      <trkpt lat="49.1184" lon="-0.22241">
        <ele>23.6</ele>
        <time>2023-10-11T14:22:58Z</time>
      </trkpt>
      <trkpt lat="49.11845" lon="-0.22247">
        <ele>23.9</ele>
        <time>2023-10-11T14:22:59Z</time>
      </trkpt>
      <trkpt lat="49.1185" lon="-0.22253">
        <ele>24.1</ele>
        <time>2023-10-11T14:23:00Z</time>
      </trkpt>
      <trkpt lat="49.11854" lon="-0.22259">
        <ele>24.4</ele>
        <time>2023-10-11T14:23:01Z</time>
      </trkpt>
      <trkpt lat="49.11858" lon="-0.22264">
        <ele>24.7</ele>
        <time>2023-10-11T14:23:02Z</time>
      </trkpt>
      <trkpt lat="49.11863" lon="-0.2227">
        <ele>25.1</ele>
        <time>2023-10-11T14:23:03Z</time>
      </trkpt>
      <trkpt lat="49.11867" lon="-0.22276">
        <ele>25.4</ele>
        <time>2023-10-11T14:23:04Z</time>
      </trkpt>
      <trkpt lat="49.11871" lon="-0.22282">
        <ele>25.8</ele>
        <time>2023-10-11T14:23:05Z</time>
      </trkpt>
      <trkpt lat="49.11876" lon="-0.22288">
        <ele>26.2</ele>
        <time>2023-10-11T14:23:06Z</time>
      </trkpt>
      <trkpt lat="49.11881" lon="-0.22294">
        <ele>26.6</ele>
        <time>2023-10-11T14:23:07Z</time>
      </trkpt>
      <trkpt lat="49.11885" lon="-0.223">
        <ele>26.9</ele>
        <time>2023-10-11T14:23:08Z</time>
      </trkpt>
      <trkpt lat="49.1189" lon="-0.22305">
        <ele>27.3</ele>
        <time>2023-10-11T14:23:09Z</time>
      </trkpt>
      <trkpt lat="49.11895" lon="-0.22311">
        <ele>27.7</ele>
        <time>2023-10-11T14:23:10Z</time>
      </trkpt>
      <trkpt lat="49.119" lon="-0.22317">
        <ele>28.1</ele>
        <time>2023-10-11T14:23:11Z</time>
      </trkpt>
      <trkpt lat="49.11904" lon="-0.22324">
        <ele>28.5</ele>
        <time>2023-10-11T14:23:12Z</time>
      </trkpt>
      <trkpt lat="49.11909" lon="-0.2233">
        <ele>28.9</ele>
        <time>2023-10-11T14:23:13Z</time>
      </trkpt>
      <trkpt lat="49.11914" lon="-0.22336">
        <ele>29.2</ele>
        <time>2023-10-11T14:23:14Z</time>
      </trkpt>
      <trkpt lat="49.11919" lon="-0.22342">
        <ele>29.6</ele>
        <time>2023-10-11T14:23:15Z</time>
      </trkpt>
      <trkpt lat="49.11924" lon="-0.22349">
        <ele>29.8</ele>
        <time>2023-10-11T14:23:16Z</time>
      </trkpt>
      <trkpt lat="49.11929" lon="-0.22355">
        <ele>30.1</ele>
        <time>2023-10-11T14:23:17Z</time>
      </trkpt>
      <trkpt lat="49.11934" lon="-0.22362">
        <ele>30.3</ele>
        <time>2023-10-11T14:23:18Z</time>
      </trkpt>
      <trkpt lat="49.11939" lon="-0.22368">
        <ele>30.4</ele>
        <time>2023-10-11T14:23:19Z</time>
      </trkpt>
      <trkpt lat="49.11944" lon="-0.22373">
        <ele>30.6</ele>
        <time>2023-10-11T14:23:20Z</time>
      </trkpt>
      <trkpt lat="49.11949" lon="-0.22378">
        <ele>30.7</ele>
        <time>2023-10-11T14:23:21Z</time>
      </trkpt>
      <trkpt lat="49.11954" lon="-0.22384">
        <ele>30.9</ele>
        <time>2023-10-11T14:23:22Z</time>
      </trkpt>
      <trkpt lat="49.11959" lon="-0.22389">
        <ele>31</ele>
        <time>2023-10-11T14:23:23Z</time>
      </trkpt>
      <trkpt lat="49.11963" lon="-0.22394">
        <ele>31.1</ele>
        <time>2023-10-11T14:23:24Z</time>
      </trkpt>
      <trkpt lat="49.11968" lon="-0.22399">
        <ele>31.2</ele>
        <time>2023-10-11T14:23:25Z</time>
      </trkpt>
      <trkpt lat="49.11973" lon="-0.22404">
        <ele>31.3</ele>
        <time>2023-10-11T14:23:26Z</time>
      </trkpt>
      <trkpt lat="49.11978" lon="-0.22408">
        <ele>31.4</ele>
        <time>2023-10-11T14:23:27Z</time>
      </trkpt>
      <trkpt lat="49.11982" lon="-0.22412">
        <ele>31.5</ele>
        <time>2023-10-11T14:23:28Z</time>
      </trkpt>
      <trkpt lat="49.11987" lon="-0.22415">
        <ele>31.5</ele>
        <time>2023-10-11T14:23:29Z</time>
      </trkpt>
      <trkpt lat="49.11993" lon="-0.22415">
        <ele>31.6</ele>
        <time>2023-10-11T14:23:30Z</time>
      </trkpt>
      <trkpt lat="49.11999" lon="-0.22412">
        <ele>31.6</ele>
        <time>2023-10-11T14:23:31Z</time>
      </trkpt>
      <trkpt lat="49.12003" lon="-0.22404">
        <ele>31.6</ele>
        <time>2023-10-11T14:23:32Z</time>
      </trkpt>
      <trkpt lat="49.12007" lon="-0.22395">
        <ele>31.5</ele>
        <time>2023-10-11T14:23:33Z</time>
      </trkpt>
      <trkpt lat="49.12011" lon="-0.22385">
        <ele>31.4</ele>
        <time>2023-10-11T14:23:34Z</time>
      </trkpt>
      <trkpt lat="49.12015" lon="-0.22375">
        <ele>31.4</ele>
        <time>2023-10-11T14:23:35Z</time>
      </trkpt>
      <trkpt lat="49.12019" lon="-0.22365">
        <ele>31.3</ele>
        <time>2023-10-11T14:23:36Z</time>
      </trkpt>
      <trkpt lat="49.12024" lon="-0.22355">
        <ele>31.2</ele>
        <time>2023-10-11T14:23:37Z</time>
      </trkpt>
      <trkpt lat="49.12028" lon="-0.22344">
        <ele>31.1</ele>
        <time>2023-10-11T14:23:38Z</time>
      </trkpt>
      <trkpt lat="49.12032" lon="-0.22333">
        <ele>31.1</ele>
        <time>2023-10-11T14:23:39Z</time>
      </trkpt>
      <trkpt lat="49.12037" lon="-0.22322">
        <ele>31</ele>
        <time>2023-10-11T14:23:40Z</time>
      </trkpt>
      <trkpt lat="49.12041" lon="-0.22311">
        <ele>30.9</ele>
        <time>2023-10-11T14:23:41Z</time>
      </trkpt>
      <trkpt lat="49.12045" lon="-0.223">
        <ele>30.8</ele>
        <time>2023-10-11T14:23:42Z</time>
      </trkpt>
      <trkpt lat="49.1205" lon="-0.22288">
        <ele>30.7</ele>
        <time>2023-10-11T14:23:43Z</time>
      </trkpt>
      <trkpt lat="49.12054" lon="-0.22277">
        <ele>30.6</ele>
        <time>2023-10-11T14:23:44Z</time>
      </trkpt>
      <trkpt lat="49.12058" lon="-0.22264">
        <ele>30.6</ele>
        <time>2023-10-11T14:23:45Z</time>
      </trkpt>
      <trkpt lat="49.12062" lon="-0.22251">
        <ele>30.5</ele>
        <time>2023-10-11T14:23:46Z</time>
      </trkpt>
      <trkpt lat="49.12067" lon="-0.22238">
        <ele>30.4</ele>
        <time>2023-10-11T14:23:47Z</time>
      </trkpt>
      <trkpt lat="49.12071" lon="-0.22226">
        <ele>30.3</ele>
        <time>2023-10-11T14:23:48Z</time>
      </trkpt>
      <trkpt lat="49.12076" lon="-0.22213">
        <ele>30.2</ele>
        <time>2023-10-11T14:23:49Z</time>
      </trkpt>
      <trkpt lat="49.12081" lon="-0.222">
        <ele>30.1</ele>
        <time>2023-10-11T14:23:50Z</time>
      </trkpt>
      <trkpt lat="49.12086" lon="-0.22188">
        <ele>30</ele>
        <time>2023-10-11T14:23:51Z</time>
      </trkpt>
      <trkpt lat="49.12092" lon="-0.22176">
        <ele>29.9</ele>
        <time>2023-10-11T14:23:52Z</time>
      </trkpt>
      <trkpt lat="49.12099" lon="-0.22164">
        <ele>29.8</ele>
        <time>2023-10-11T14:23:53Z</time>
      </trkpt>
      <trkpt lat="49.12106" lon="-0.22153">
        <ele>29.7</ele>
        <time>2023-10-11T14:23:54Z</time>
      </trkpt>
      <trkpt lat="49.12113" lon="-0.22142">
        <ele>29.5</ele>
        <time>2023-10-11T14:23:55Z</time>
      </trkpt>
      <trkpt lat="49.1212" lon="-0.22132">
        <ele>29.3</ele>
        <time>2023-10-11T14:23:56Z</time>
      </trkpt>
      <trkpt lat="49.12128" lon="-0.22122">
        <ele>29.2</ele>
        <time>2023-10-11T14:23:57Z</time>
      </trkpt>
      <trkpt lat="49.12136" lon="-0.22113">
        <ele>29.1</ele>
        <time>2023-10-11T14:23:58Z</time>
      </trkpt>
      <trkpt lat="49.12145" lon="-0.22105">
        <ele>28.9</ele>
        <time>2023-10-11T14:23:59Z</time>
      </trkpt>
      <trkpt lat="49.12153" lon="-0.22096">
        <ele>28.8</ele>
        <time>2023-10-11T14:24:00Z</time>
      </trkpt>
      <trkpt lat="49.12162" lon="-0.22089">
        <ele>28.7</ele>
        <time>2023-10-11T14:24:01Z</time>
      </trkpt>
      <trkpt lat="49.12171" lon="-0.22082">
        <ele>28.5</ele>
        <time>2023-10-11T14:24:02Z</time>
      </trkpt>
      <trkpt lat="49.12181" lon="-0.22076">
        <ele>28.4</ele>
        <time>2023-10-11T14:24:03Z</time>
      </trkpt>
      <trkpt lat="49.1219" lon="-0.2207">
        <ele>28.3</ele>
        <time>2023-10-11T14:24:04Z</time>
      </trkpt>
      <trkpt lat="49.122" lon="-0.22065">
        <ele>28.2</ele>
        <time>2023-10-11T14:24:05Z</time>
      </trkpt>
      <trkpt lat="49.12209" lon="-0.22061">
        <ele>28.1</ele>
        <time>2023-10-11T14:24:06Z</time>
      </trkpt>
      <trkpt lat="49.12219" lon="-0.22057">
        <ele>28</ele>
        <time>2023-10-11T14:24:07Z</time>
      </trkpt>
      <trkpt lat="49.12229" lon="-0.22054">
        <ele>27.9</ele>
        <time>2023-10-11T14:24:08Z</time>
      </trkpt>
      <trkpt lat="49.12239" lon="-0.22051">
        <ele>27.8</ele>
        <time>2023-10-11T14:24:09Z</time>
      </trkpt>
      <trkpt lat="49.12249" lon="-0.2205">
        <ele>27.7</ele>
        <time>2023-10-11T14:24:10Z</time>
      </trkpt>
      <trkpt lat="49.12259" lon="-0.22049">
        <ele>27.6</ele>
        <time>2023-10-11T14:24:11Z</time>
      </trkpt>
      <trkpt lat="49.12269" lon="-0.22048">
        <ele>27.5</ele>
        <time>2023-10-11T14:24:12Z</time>
      </trkpt>
      <trkpt lat="49.12279" lon="-0.22048">
        <ele>27.4</ele>
        <time>2023-10-11T14:24:13Z</time>
      </trkpt>
      <trkpt lat="49.12289" lon="-0.22048">
        <ele>27.3</ele>
        <time>2023-10-11T14:24:14Z</time>
      </trkpt>
      <trkpt lat="49.12299" lon="-0.22048">
        <ele>27.2</ele>
        <time>2023-10-11T14:24:15Z</time>
      </trkpt>
      <trkpt lat="49.12309" lon="-0.22048">
        <ele>27.1</ele>
        <time>2023-10-11T14:24:16Z</time>
      </trkpt>
      <trkpt lat="49.1232" lon="-0.22048">
        <ele>27</ele>
        <time>2023-10-11T14:24:17Z</time>
      </trkpt>
      <trkpt lat="49.1233" lon="-0.22047">
        <ele>27</ele>
        <time>2023-10-11T14:24:18Z</time>
      </trkpt>
      <trkpt lat="49.1234" lon="-0.22047">
        <ele>27</ele>
        <time>2023-10-11T14:24:19Z</time>
      </trkpt>
      <trkpt lat="49.1235" lon="-0.22047">
        <ele>27</ele>
        <time>2023-10-11T14:24:20Z</time>
      </trkpt>
      <trkpt lat="49.1236" lon="-0.22046">
        <ele>27.1</ele>
        <time>2023-10-11T14:24:21Z</time>
      </trkpt>
      <trkpt lat="49.1237" lon="-0.22046">
        <ele>27.2</ele>
        <time>2023-10-11T14:24:22Z</time>
      </trkpt>
      <trkpt lat="49.1238" lon="-0.22046">
        <ele>27.4</ele>
        <time>2023-10-11T14:24:23Z</time>
      </trkpt>
      <trkpt lat="49.1239" lon="-0.22044">
        <ele>27.6</ele>
        <time>2023-10-11T14:24:24Z</time>
      </trkpt>
      <trkpt lat="49.12399" lon="-0.22042">
        <ele>27.9</ele>
        <time>2023-10-11T14:24:25Z</time>
      </trkpt>
      <trkpt lat="49.12409" lon="-0.22039">
        <ele>28.2</ele>
        <time>2023-10-11T14:24:26Z</time>
      </trkpt>
      <trkpt lat="49.12418" lon="-0.22036">
        <ele>28.5</ele>
        <time>2023-10-11T14:24:27Z</time>
      </trkpt>
      <trkpt lat="49.12426" lon="-0.22031">
        <ele>28.8</ele>
        <time>2023-10-11T14:24:28Z</time>
      </trkpt>
      <trkpt lat="49.12435" lon="-0.22025">
        <ele>29</ele>
        <time>2023-10-11T14:24:29Z</time>
      </trkpt>
      <trkpt lat="49.12443" lon="-0.22018">
        <ele>29.2</ele>
        <time>2023-10-11T14:24:30Z</time>
      </trkpt>
      <trkpt lat="49.12451" lon="-0.22011">
        <ele>29.4</ele>
        <time>2023-10-11T14:24:31Z</time>
      </trkpt>
      <trkpt lat="49.12458" lon="-0.22004">
        <ele>29.5</ele>
        <time>2023-10-11T14:24:32Z</time>
      </trkpt>
      <trkpt lat="49.12466" lon="-0.21996">
        <ele>29.6</ele>
        <time>2023-10-11T14:24:33Z</time>
      </trkpt>
      <trkpt lat="49.12474" lon="-0.21988">
        <ele>29.6</ele>
        <time>2023-10-11T14:24:34Z</time>
      </trkpt>
      <trkpt lat="49.12482" lon="-0.21981">
        <ele>29.6</ele>
        <time>2023-10-11T14:24:35Z</time>
      </trkpt>
      <trkpt lat="49.1249" lon="-0.21973">
        <ele>29.6</ele>
        <time>2023-10-11T14:24:36Z</time>
      </trkpt>
      <trkpt lat="49.12499" lon="-0.21966">
        <ele>29.5</ele>
        <time>2023-10-11T14:24:37Z</time>
      </trkpt>
      <trkpt lat="49.12508" lon="-0.21959">
        <ele>29.3</ele>
        <time>2023-10-11T14:24:38Z</time>
      </trkpt>
      <trkpt lat="49.12517" lon="-0.21954">
        <ele>29</ele>
        <time>2023-10-11T14:24:39Z</time>
      </trkpt>
      <trkpt lat="49.12527" lon="-0.21949">
        <ele>28.6</ele>
        <time>2023-10-11T14:24:40Z</time>
      </trkpt>
      <trkpt lat="49.12537" lon="-0.21944">
        <ele>28.1</ele>
        <time>2023-10-11T14:24:41Z</time>
      </trkpt>
      <trkpt lat="49.12547" lon="-0.21938">
        <ele>27.6</ele>
        <time>2023-10-11T14:24:42Z</time>
      </trkpt>
      <trkpt lat="49.12557" lon="-0.21933">
        <ele>27</ele>
        <time>2023-10-11T14:24:43Z</time>
      </trkpt>
      <trkpt lat="49.12568" lon="-0.21928">
        <ele>26.5</ele>
        <time>2023-10-11T14:24:44Z</time>
      </trkpt>
      <trkpt lat="49.12579" lon="-0.21922">
        <ele>26</ele>
        <time>2023-10-11T14:24:45Z</time>
      </trkpt>
      <trkpt lat="49.1259" lon="-0.21917">
        <ele>25.6</ele>
        <time>2023-10-11T14:24:46Z</time>
      </trkpt>
      <trkpt lat="49.12601" lon="-0.21912">
        <ele>25.2</ele>
        <time>2023-10-11T14:24:47Z</time>
      </trkpt>
      <trkpt lat="49.12613" lon="-0.21906">
        <ele>24.8</ele>
        <time>2023-10-11T14:24:48Z</time>
      </trkpt>
      <trkpt lat="49.12625" lon="-0.219">
        <ele>24.4</ele>
        <time>2023-10-11T14:24:49Z</time>
      </trkpt>
      <trkpt lat="49.12637" lon="-0.21894">
        <ele>24</ele>
        <time>2023-10-11T14:24:50Z</time>
      </trkpt>
      <trkpt lat="49.12648" lon="-0.21889">
        <ele>23.7</ele>
        <time>2023-10-11T14:24:51Z</time>
      </trkpt>
      <trkpt lat="49.1266" lon="-0.21883">
        <ele>23.5</ele>
        <time>2023-10-11T14:24:52Z</time>
      </trkpt>
      <trkpt lat="49.12672" lon="-0.21877">
        <ele>23.2</ele>
        <time>2023-10-11T14:24:53Z</time>
      </trkpt>
      <trkpt lat="49.12684" lon="-0.21871">
        <ele>23.1</ele>
        <time>2023-10-11T14:24:54Z</time>
      </trkpt>
      <trkpt lat="49.12695" lon="-0.21865">
        <ele>22.9</ele>
        <time>2023-10-11T14:24:55Z</time>
      </trkpt>
      <trkpt lat="49.12707" lon="-0.2186">
        <ele>22.7</ele>
        <time>2023-10-11T14:24:56Z</time>
      </trkpt>
      <trkpt lat="49.12718" lon="-0.21854">
        <ele>22.4</ele>
        <time>2023-10-11T14:24:57Z</time>
      </trkpt>
      <trkpt lat="49.1273" lon="-0.21848">
        <ele>22.2</ele>
        <time>2023-10-11T14:24:58Z</time>
      </trkpt>
      <trkpt lat="49.12741" lon="-0.21842">
        <ele>22.1</ele>
        <time>2023-10-11T14:24:59Z</time>
      </trkpt>
      <trkpt lat="49.12752" lon="-0.21836">
        <ele>21.9</ele>
        <time>2023-10-11T14:25:00Z</time>
      </trkpt>
      <trkpt lat="49.12763" lon="-0.21831">
        <ele>21.8</ele>
        <time>2023-10-11T14:25:01Z</time>
      </trkpt>
      <trkpt lat="49.12774" lon="-0.21826">
        <ele>21.6</ele>
        <time>2023-10-11T14:25:02Z</time>
      </trkpt>
      <trkpt lat="49.12785" lon="-0.21821">
        <ele>21.4</ele>
        <time>2023-10-11T14:25:03Z</time>
      </trkpt>
      <trkpt lat="49.12795" lon="-0.21817">
        <ele>21.3</ele>
        <time>2023-10-11T14:25:04Z</time>
      </trkpt>
      <trkpt lat="49.12806" lon="-0.21813">
        <ele>21.1</ele>
        <time>2023-10-11T14:25:05Z</time>
      </trkpt>
      <trkpt lat="49.12817" lon="-0.21811">
        <ele>20.9</ele>
        <time>2023-10-11T14:25:06Z</time>
      </trkpt>
      <trkpt lat="49.12828" lon="-0.21811">
        <ele>20.8</ele>
        <time>2023-10-11T14:25:07Z</time>
      </trkpt>
      <trkpt lat="49.12839" lon="-0.2181">
        <ele>20.7</ele>
        <time>2023-10-11T14:25:08Z</time>
      </trkpt>
      <trkpt lat="49.12849" lon="-0.2181">
        <ele>20.6</ele>
        <time>2023-10-11T14:25:09Z</time>
      </trkpt>
      <trkpt lat="49.12858" lon="-0.21807">
        <ele>20.6</ele>
        <time>2023-10-11T14:25:10Z</time>
      </trkpt>
      <trkpt lat="49.12868" lon="-0.21804">
        <ele>20.5</ele>
        <time>2023-10-11T14:25:11Z</time>
      </trkpt>
      <trkpt lat="49.12877" lon="-0.21798">
        <ele>20.4</ele>
        <time>2023-10-11T14:25:12Z</time>
      </trkpt>
      <trkpt lat="49.12885" lon="-0.21791">
        <ele>20.4</ele>
        <time>2023-10-11T14:25:13Z</time>
      </trkpt>
      <trkpt lat="49.12893" lon="-0.21783">
        <ele>20.4</ele>
        <time>2023-10-11T14:25:14Z</time>
      </trkpt>
      <trkpt lat="49.129" lon="-0.21776">
        <ele>20.4</ele>
        <time>2023-10-11T14:25:15Z</time>
      </trkpt>
      <trkpt lat="49.12906" lon="-0.21768">
        <ele>20.4</ele>
        <time>2023-10-11T14:25:16Z</time>
      </trkpt>
      <trkpt lat="49.12909" lon="-0.21762">
        <ele>20.4</ele>
        <time>2023-10-11T14:25:17Z</time>
      </trkpt>
      <trkpt lat="49.12911" lon="-0.21755">
        <ele>20.4</ele>
        <time>2023-10-11T14:25:18Z</time>
      </trkpt>
      <trkpt lat="49.12911" lon="-0.21747">
        <ele>20.5</ele>
        <time>2023-10-11T14:25:19Z</time>
      </trkpt>
      <trkpt lat="49.12912" lon="-0.21739">
        <ele>20.5</ele>
        <time>2023-10-11T14:25:20Z</time>
      </trkpt>
      <trkpt lat="49.12913" lon="-0.21731">
        <ele>20.5</ele>
        <time>2023-10-11T14:25:21Z</time>
      </trkpt>
      <trkpt lat="49.12915" lon="-0.21723">
        <ele>20.6</ele>
        <time>2023-10-11T14:25:22Z</time>
      </trkpt>
      <trkpt lat="49.12916" lon="-0.21715">
        <ele>20.6</ele>
        <time>2023-10-11T14:25:23Z</time>
      </trkpt>
      <trkpt lat="49.12915" lon="-0.21706">
        <ele>20.6</ele>
        <time>2023-10-11T14:25:24Z</time>
      </trkpt>
      <trkpt lat="49.12913" lon="-0.21697">
        <ele>20.6</ele>
        <time>2023-10-11T14:25:25Z</time>
      </trkpt>
      <trkpt lat="49.1291" lon="-0.21689">
        <ele>20.6</ele>
        <time>2023-10-11T14:25:26Z</time>
      </trkpt>
      <trkpt lat="49.12906" lon="-0.21681">
        <ele>20.6</ele>
        <time>2023-10-11T14:25:27Z</time>
      </trkpt>
      <trkpt lat="49.12902" lon="-0.21672">
        <ele>20.6</ele>
        <time>2023-10-11T14:25:28Z</time>
      </trkpt>
      <trkpt lat="49.12898" lon="-0.21663">
        <ele>20.7</ele>
        <time>2023-10-11T14:25:29Z</time>
      </trkpt>
      <trkpt lat="49.12894" lon="-0.21653">
        <ele>20.8</ele>
        <time>2023-10-11T14:25:30Z</time>
      </trkpt>
      <trkpt lat="49.1289" lon="-0.21643">
        <ele>20.9</ele>
        <time>2023-10-11T14:25:31Z</time>
      </trkpt>
      <trkpt lat="49.12886" lon="-0.21634">
        <ele>21</ele>
        <time>2023-10-11T14:25:32Z</time>
      </trkpt>
      <trkpt lat="49.12882" lon="-0.21624">
        <ele>21.1</ele>
        <time>2023-10-11T14:25:33Z</time>
      </trkpt>
      <trkpt lat="49.12877" lon="-0.21615">
        <ele>21.3</ele>
        <time>2023-10-11T14:25:34Z</time>
      </trkpt>
      <trkpt lat="49.12873" lon="-0.21605">
        <ele>21.4</ele>
        <time>2023-10-11T14:25:35Z</time>
      </trkpt>
      <trkpt lat="49.12869" lon="-0.21596">
        <ele>21.5</ele>
        <time>2023-10-11T14:25:36Z</time>
      </trkpt>
      <trkpt lat="49.12865" lon="-0.21587">
        <ele>21.7</ele>
        <time>2023-10-11T14:25:37Z</time>
      </trkpt>
      <trkpt lat="49.12861" lon="-0.21578">
        <ele>21.8</ele>
        <time>2023-10-11T14:25:38Z</time>
      </trkpt>
      <trkpt lat="49.12857" lon="-0.21568">
        <ele>21.9</ele>
        <time>2023-10-11T14:25:39Z</time>
      </trkpt>
      <trkpt lat="49.12852" lon="-0.21559">
        <ele>22</ele>
        <time>2023-10-11T14:25:40Z</time>
      </trkpt>
      <trkpt lat="49.12848" lon="-0.21549">
        <ele>22.1</ele>
        <time>2023-10-11T14:25:41Z</time>
      </trkpt>
      <trkpt lat="49.12844" lon="-0.2154">
        <ele>22.2</ele>
        <time>2023-10-11T14:25:42Z</time>
      </trkpt>
      <trkpt lat="49.1284" lon="-0.21531">
        <ele>22.3</ele>
        <time>2023-10-11T14:25:43Z</time>
      </trkpt>
      <trkpt lat="49.12836" lon="-0.21521">
        <ele>22.4</ele>
        <time>2023-10-11T14:25:44Z</time>
      </trkpt>
      <trkpt lat="49.12831" lon="-0.21511">
        <ele>22.4</ele>
        <time>2023-10-11T14:25:45Z</time>
      </trkpt>
      <trkpt lat="49.12827" lon="-0.21502">
        <ele>22.5</ele>
        <time>2023-10-11T14:25:46Z</time>
      </trkpt>
      <trkpt lat="49.12823" lon="-0.21493">
        <ele>22.6</ele>
        <time>2023-10-11T14:25:47Z</time>
      </trkpt>
      <trkpt lat="49.12818" lon="-0.21483">
        <ele>22.7</ele>
        <time>2023-10-11T14:25:48Z</time>
      </trkpt>
      <trkpt lat="49.12814" lon="-0.21473">
        <ele>22.8</ele>
        <time>2023-10-11T14:25:49Z</time>
      </trkpt>
      <trkpt lat="49.1281" lon="-0.21463">
        <ele>22.9</ele>
        <time>2023-10-11T14:25:50Z</time>
      </trkpt>
      <trkpt lat="49.12805" lon="-0.21453">
        <ele>23</ele>
        <time>2023-10-11T14:25:51Z</time>
      </trkpt>
      <trkpt lat="49.12801" lon="-0.21443">
        <ele>23.1</ele>
        <time>2023-10-11T14:25:52Z</time>
      </trkpt>
      <trkpt lat="49.12797" lon="-0.21433">
        <ele>23.2</ele>
        <time>2023-10-11T14:25:53Z</time>
      </trkpt>
      <trkpt lat="49.12792" lon="-0.21424">
        <ele>23.2</ele>
        <time>2023-10-11T14:25:54Z</time>
      </trkpt>
      <trkpt lat="49.12788" lon="-0.21414">
        <ele>23.3</ele>
        <time>2023-10-11T14:25:55Z</time>
      </trkpt>
      <trkpt lat="49.12783" lon="-0.21405">
        <ele>23.4</ele>
        <time>2023-10-11T14:25:56Z</time>
      </trkpt>
      <trkpt lat="49.12779" lon="-0.21396">
        <ele>23.4</ele>
        <time>2023-10-11T14:25:57Z</time>
      </trkpt>
      <trkpt lat="49.12775" lon="-0.21386">
        <ele>23.5</ele>
        <time>2023-10-11T14:25:58Z</time>
      </trkpt>
      <trkpt lat="49.1277" lon="-0.21376">
        <ele>23.6</ele>
        <time>2023-10-11T14:25:59Z</time>
      </trkpt>
      <trkpt lat="49.12766" lon="-0.21366">
        <ele>23.6</ele>
        <time>2023-10-11T14:26:00Z</time>
      </trkpt>
      <trkpt lat="49.12761" lon="-0.21357">
        <ele>23.7</ele>
        <time>2023-10-11T14:26:01Z</time>
      </trkpt>
      <trkpt lat="49.12757" lon="-0.21347">
        <ele>23.8</ele>
        <time>2023-10-11T14:26:02Z</time>
      </trkpt>
      <trkpt lat="49.12752" lon="-0.21337">
        <ele>23.8</ele>
        <time>2023-10-11T14:26:03Z</time>
      </trkpt>
      <trkpt lat="49.12748" lon="-0.21327">
        <ele>23.9</ele>
        <time>2023-10-11T14:26:04Z</time>
      </trkpt>
      <trkpt lat="49.12744" lon="-0.21317">
        <ele>23.9</ele>
        <time>2023-10-11T14:26:05Z</time>
      </trkpt>
      <trkpt lat="49.12739" lon="-0.21308">
        <ele>24</ele>
        <time>2023-10-11T14:26:06Z</time>
      </trkpt>
      <trkpt lat="49.12735" lon="-0.21298">
        <ele>24</ele>
        <time>2023-10-11T14:26:07Z</time>
      </trkpt>
      <trkpt lat="49.12731" lon="-0.21289">
        <ele>24.1</ele>
        <time>2023-10-11T14:26:08Z</time>
      </trkpt>
      <trkpt lat="49.12726" lon="-0.21279">
        <ele>24.1</ele>
        <time>2023-10-11T14:26:09Z</time>
      </trkpt>
      <trkpt lat="49.12722" lon="-0.2127">
        <ele>24.2</ele>
        <time>2023-10-11T14:26:10Z</time>
      </trkpt>
      <trkpt lat="49.12718" lon="-0.21261">
        <ele>24.2</ele>
        <time>2023-10-11T14:26:11Z</time>
      </trkpt>
      <trkpt lat="49.12714" lon="-0.21251">
        <ele>24.3</ele>
        <time>2023-10-11T14:26:12Z</time>
      </trkpt>
      <trkpt lat="49.1271" lon="-0.21241">
        <ele>24.3</ele>
        <time>2023-10-11T14:26:13Z</time>
      </trkpt>
      <trkpt lat="49.12705" lon="-0.21232">
        <ele>24.3</ele>
        <time>2023-10-11T14:26:14Z</time>
      </trkpt>
      <trkpt lat="49.12701" lon="-0.21223">
        <ele>24.4</ele>
        <time>2023-10-11T14:26:15Z</time>
      </trkpt>
      <trkpt lat="49.12696" lon="-0.21214">
        <ele>24.4</ele>
        <time>2023-10-11T14:26:16Z</time>
      </trkpt>
      <trkpt lat="49.12692" lon="-0.21206">
        <ele>24.4</ele>
        <time>2023-10-11T14:26:17Z</time>
      </trkpt>
      <trkpt lat="49.12688" lon="-0.21196">
        <ele>24.4</ele>
        <time>2023-10-11T14:26:18Z</time>
      </trkpt>
      <trkpt lat="49.12684" lon="-0.21187">
        <ele>24.5</ele>
        <time>2023-10-11T14:26:19Z</time>
      </trkpt>
      <trkpt lat="49.1268" lon="-0.21177">
        <ele>24.5</ele>
        <time>2023-10-11T14:26:20Z</time>
      </trkpt>
      <trkpt lat="49.12675" lon="-0.21167">
        <ele>24.5</ele>
        <time>2023-10-11T14:26:21Z</time>
      </trkpt>
      <trkpt lat="49.12671" lon="-0.21156">
        <ele>24.5</ele>
        <time>2023-10-11T14:26:22Z</time>
      </trkpt>
      <trkpt lat="49.12667" lon="-0.21146">
        <ele>24.5</ele>
        <time>2023-10-11T14:26:23Z</time>
      </trkpt>
      <trkpt lat="49.12663" lon="-0.21137">
        <ele>24.4</ele>
        <time>2023-10-11T14:26:24Z</time>
      </trkpt>
      <trkpt lat="49.12658" lon="-0.21127">
        <ele>24.4</ele>
        <time>2023-10-11T14:26:25Z</time>
      </trkpt>
      <trkpt lat="49.12654" lon="-0.21117">
        <ele>24.4</ele>
        <time>2023-10-11T14:26:26Z</time>
      </trkpt>
      <trkpt lat="49.1265" lon="-0.21108">
        <ele>24.4</ele>
        <time>2023-10-11T14:26:27Z</time>
      </trkpt>
      <trkpt lat="49.12646" lon="-0.21098">
        <ele>24.4</ele>
        <time>2023-10-11T14:26:28Z</time>
      </trkpt>
      <trkpt lat="49.12642" lon="-0.21088">
        <ele>24.3</ele>
        <time>2023-10-11T14:26:29Z</time>
      </trkpt>
      <trkpt lat="49.12637" lon="-0.21079">
        <ele>24.3</ele>
        <time>2023-10-11T14:26:30Z</time>
      </trkpt>
      <trkpt lat="49.12633" lon="-0.21069">
        <ele>24.2</ele>
        <time>2023-10-11T14:26:31Z</time>
      </trkpt>
      <trkpt lat="49.12629" lon="-0.2106">
        <ele>24.2</ele>
        <time>2023-10-11T14:26:32Z</time>
      </trkpt>
      <trkpt lat="49.12625" lon="-0.21051">
        <ele>24.2</ele>
        <time>2023-10-11T14:26:33Z</time>
      </trkpt>
      <trkpt lat="49.12621" lon="-0.21042">
        <ele>24.1</ele>
        <time>2023-10-11T14:26:34Z</time>
      </trkpt>
      <trkpt lat="49.12617" lon="-0.21033">
        <ele>24.1</ele>
        <time>2023-10-11T14:26:35Z</time>
      </trkpt>
      <trkpt lat="49.12613" lon="-0.21024">
        <ele>24.1</ele>
        <time>2023-10-11T14:26:36Z</time>
      </trkpt>
      <trkpt lat="49.1261" lon="-0.21015">
        <ele>24.1</ele>
        <time>2023-10-11T14:26:37Z</time>
      </trkpt>
      <trkpt lat="49.12606" lon="-0.21007">
        <ele>24.1</ele>
        <time>2023-10-11T14:26:38Z</time>
      </trkpt>
      <trkpt lat="49.12603" lon="-0.21">
        <ele>24.1</ele>
        <time>2023-10-11T14:26:39Z</time>
      </trkpt>
      <trkpt lat="49.126" lon="-0.20994">
        <ele>24.1</ele>
        <time>2023-10-11T14:26:40Z</time>
      </trkpt>
      <trkpt lat="49.12598" lon="-0.20989">
        <ele>24.1</ele>
        <time>2023-10-11T14:26:41Z</time>
      </trkpt>
      <trkpt lat="49.12596" lon="-0.20985">
        <ele>24.1</ele>
        <time>2023-10-11T14:26:42Z</time>
      </trkpt>
      <trkpt lat="49.12595" lon="-0.20981">
        <ele>24.1</ele>
        <time>2023-10-11T14:26:43Z</time>
      </trkpt>
      <trkpt lat="49.12593" lon="-0.20977">
        <ele>24.1</ele>
        <time>2023-10-11T14:26:44Z</time>
      </trkpt>
      <trkpt lat="49.12591" lon="-0.20973">
        <ele>24</ele>
        <time>2023-10-11T14:26:45Z</time>
      </trkpt>
      <trkpt lat="49.1259" lon="-0.20969">
        <ele>24</ele>
        <time>2023-10-11T14:26:46Z</time>
      </trkpt>
      <trkpt lat="49.12588" lon="-0.20965">
        <ele>24</ele>
        <time>2023-10-11T14:26:47Z</time>
      </trkpt>
      <trkpt lat="49.12586" lon="-0.2096">
        <ele>24</ele>
        <time>2023-10-11T14:26:48Z</time>
      </trkpt>
      <trkpt lat="49.12583" lon="-0.20955">
        <ele>24</ele>
        <time>2023-10-11T14:26:49Z</time>
      </trkpt>
      <trkpt lat="49.1258" lon="-0.20948">
        <ele>24</ele>
        <time>2023-10-11T14:26:50Z</time>
      </trkpt>
      <trkpt lat="49.12576" lon="-0.20942">
        <ele>23.9</ele>
        <time>2023-10-11T14:26:51Z</time>
      </trkpt>
      <trkpt lat="49.12572" lon="-0.20935">
        <ele>23.9</ele>
        <time>2023-10-11T14:26:52Z</time>
      </trkpt>
      <trkpt lat="49.12569" lon="-0.20928">
        <ele>23.9</ele>
        <time>2023-10-11T14:26:53Z</time>
      </trkpt>
      <trkpt lat="49.12565" lon="-0.2092">
        <ele>23.8</ele>
        <time>2023-10-11T14:26:54Z</time>
      </trkpt>
      <trkpt lat="49.12562" lon="-0.20912">
        <ele>23.8</ele>
        <time>2023-10-11T14:26:55Z</time>
      </trkpt>
      <trkpt lat="49.12559" lon="-0.20903">
        <ele>23.8</ele>
        <time>2023-10-11T14:26:56Z</time>
      </trkpt>
      <trkpt lat="49.12555" lon="-0.20894">
        <ele>23.8</ele>
        <time>2023-10-11T14:26:57Z</time>
      </trkpt>
      <trkpt lat="49.12552" lon="-0.20885">
        <ele>23.8</ele>
        <time>2023-10-11T14:26:58Z</time>
      </trkpt>
      <trkpt lat="49.12548" lon="-0.20877">
        <ele>23.8</ele>
        <time>2023-10-11T14:26:59Z</time>
      </trkpt>
      <trkpt lat="49.12545" lon="-0.20868">
        <ele>23.7</ele>
        <time>2023-10-11T14:27:00Z</time>
      </trkpt>
      <trkpt lat="49.12541" lon="-0.20859">
        <ele>23.7</ele>
        <time>2023-10-11T14:27:01Z</time>
      </trkpt>
      <trkpt lat="49.12537" lon="-0.2085">
        <ele>23.7</ele>
        <time>2023-10-11T14:27:02Z</time>
      </trkpt>
      <trkpt lat="49.12533" lon="-0.20841">
        <ele>23.7</ele>
        <time>2023-10-11T14:27:03Z</time>
      </trkpt>
      <trkpt lat="49.12529" lon="-0.20833">
        <ele>23.6</ele>
        <time>2023-10-11T14:27:04Z</time>
      </trkpt>
      <trkpt lat="49.12525" lon="-0.20824">
        <ele>23.6</ele>
        <time>2023-10-11T14:27:05Z</time>
      </trkpt>
      <trkpt lat="49.12521" lon="-0.20815">
        <ele>23.5</ele>
        <time>2023-10-11T14:27:06Z</time>
      </trkpt>
      <trkpt lat="49.12518" lon="-0.20807">
        <ele>23.5</ele>
        <time>2023-10-11T14:27:07Z</time>
      </trkpt>
      <trkpt lat="49.12514" lon="-0.20798">
        <ele>23.4</ele>
        <time>2023-10-11T14:27:08Z</time>
      </trkpt>
      <trkpt lat="49.1251" lon="-0.2079">
        <ele>23.3</ele>
        <time>2023-10-11T14:27:09Z</time>
      </trkpt>
      <trkpt lat="49.12507" lon="-0.20782">
        <ele>23.3</ele>
        <time>2023-10-11T14:27:10Z</time>
      </trkpt>
      <trkpt lat="49.12503" lon="-0.20774">
        <ele>23.2</ele>
        <time>2023-10-11T14:27:11Z</time>
      </trkpt>
      <trkpt lat="49.125" lon="-0.20766">
        <ele>23.2</ele>
        <time>2023-10-11T14:27:12Z</time>
      </trkpt>
      <trkpt lat="49.12496" lon="-0.20759">
        <ele>23.1</ele>
        <time>2023-10-11T14:27:13Z</time>
      </trkpt>
      <trkpt lat="49.12493" lon="-0.20752">
        <ele>23.1</ele>
        <time>2023-10-11T14:27:14Z</time>
      </trkpt>
      <trkpt lat="49.1249" lon="-0.20745">
        <ele>23</ele>
        <time>2023-10-11T14:27:15Z</time>
      </trkpt>
      <trkpt lat="49.12487" lon="-0.20739">
        <ele>23</ele>
        <time>2023-10-11T14:27:16Z</time>
      </trkpt>
      <trkpt lat="49.12485" lon="-0.20733">
        <ele>22.9</ele>
        <time>2023-10-11T14:27:17Z</time>
      </trkpt>
      <trkpt lat="49.12483" lon="-0.20728">
        <ele>22.9</ele>
        <time>2023-10-11T14:27:18Z</time>
      </trkpt>
      <trkpt lat="49.12481" lon="-0.20724">
        <ele>22.9</ele>
        <time>2023-10-11T14:27:19Z</time>
      </trkpt>
      <trkpt lat="49.12481" lon="-0.20722">
        <ele>22.9</ele>
        <time>2023-10-11T14:27:20Z</time>
      </trkpt>
      <trkpt lat="49.1248" lon="-0.20722">
        <ele>22.9</ele>
        <time>2023-10-11T14:27:21Z</time>
      </trkpt>
      <trkpt lat="49.1248" lon="-0.20722">
        <ele>22.9</ele>
        <time>2023-10-11T14:27:22Z</time>
      </trkpt>
      <trkpt lat="49.1248" lon="-0.20722">
        <ele>22.9</ele>
        <time>2023-10-11T14:27:23Z</time>
      </trkpt>
      <trkpt lat="49.1248" lon="-0.20722">
        <ele>22.9</ele>
        <time>2023-10-11T14:27:24Z</time>
      </trkpt>
      <trkpt lat="49.12481" lon="-0.20722">
        <ele>22.9</ele>
        <time>2023-10-11T14:27:25Z</time>
      </trkpt>
      <trkpt lat="49.12481" lon="-0.20722">
        <ele>22.9</ele>
        <time>2023-10-11T14:27:26Z</time>
      </trkpt>
      <trkpt lat="49.12481" lon="-0.20722">
        <ele>22.9</ele>
        <time>2023-10-11T14:27:27Z</time>
      </trkpt>
      <trkpt lat="49.12481" lon="-0.20722">
        <ele>22.9</ele>
        <time>2023-10-11T14:27:28Z</time>
      </trkpt>
      <trkpt lat="49.12481" lon="-0.20722">
        <ele>22.9</ele>
        <time>2023-10-11T14:27:29Z</time>
      </trkpt>
      <trkpt lat="49.12481" lon="-0.20722">
        <ele>22.9</ele>
        <time>2023-10-11T14:27:30Z</time>
      </trkpt>
      <trkpt lat="49.12481" lon="-0.20722">
        <ele>22.9</ele>
        <time>2023-10-11T14:27:31Z</time>
      </trkpt>
      <trkpt lat="49.12481" lon="-0.20722">
        <ele>22.9</ele>
        <time>2023-10-11T14:27:32Z</time>
      </trkpt>
      <trkpt lat="49.12479" lon="-0.20719">
        <ele>22.9</ele>
        <time>2023-10-11T14:27:34Z</time>
      </trkpt>
      <trkpt lat="49.12478" lon="-0.20718">
        <ele>22.9</ele>
        <time>2023-10-11T14:27:35Z</time>
      </trkpt>
      <trkpt lat="49.12477" lon="-0.20716">
        <ele>22.9</ele>
        <time>2023-10-11T14:27:36Z</time>
      </trkpt>
      <trkpt lat="49.12476" lon="-0.20714">
        <ele>22.9</ele>
        <time>2023-10-11T14:27:37Z</time>
      </trkpt>
      <trkpt lat="49.12475" lon="-0.20712">
        <ele>22.9</ele>
        <time>2023-10-11T14:27:38Z</time>
      </trkpt>
      <trkpt lat="49.12474" lon="-0.2071">
        <ele>22.9</ele>
        <time>2023-10-11T14:27:39Z</time>
      </trkpt>
      <trkpt lat="49.12474" lon="-0.20708">
        <ele>22.9</ele>
        <time>2023-10-11T14:27:40Z</time>
      </trkpt>
      <trkpt lat="49.12473" lon="-0.20706">
        <ele>22.9</ele>
        <time>2023-10-11T14:27:41Z</time>
      </trkpt>
      <trkpt lat="49.12472" lon="-0.20705">
        <ele>22.9</ele>
        <time>2023-10-11T14:27:42Z</time>
      </trkpt>
      <trkpt lat="49.12473" lon="-0.20705">
        <ele>22.9</ele>
        <time>2023-10-11T14:27:43Z</time>
      </trkpt>
      <trkpt lat="49.12473" lon="-0.20705">
        <ele>22.9</ele>
        <time>2023-10-11T14:27:44Z</time>
      </trkpt>
      <trkpt lat="49.12473" lon="-0.20705">
        <ele>22.9</ele>
        <time>2023-10-11T14:27:45Z</time>
      </trkpt>
      <trkpt lat="49.12473" lon="-0.20705">
        <ele>22.9</ele>
        <time>2023-10-11T14:27:46Z</time>
      </trkpt>
      <trkpt lat="49.12473" lon="-0.20705">
        <ele>22.9</ele>
        <time>2023-10-11T14:27:47Z</time>
      </trkpt>
      <trkpt lat="49.12473" lon="-0.20705">
        <ele>22.9</ele>
        <time>2023-10-11T14:27:48Z</time>
      </trkpt>
      <trkpt lat="49.12473" lon="-0.20705">
        <ele>22.9</ele>
        <time>2023-10-11T14:27:49Z</time>
      </trkpt>
      <trkpt lat="49.12473" lon="-0.20705">
        <ele>22.9</ele>
        <time>2023-10-11T14:27:50Z</time>
      </trkpt>
      <trkpt lat="49.12473" lon="-0.20705">
        <ele>22.9</ele>
        <time>2023-10-11T14:27:51Z</time>
      </trkpt>
      <trkpt lat="49.12473" lon="-0.20705">
        <ele>22.9</ele>
        <time>2023-10-11T14:27:52Z</time>
      </trkpt>
      <trkpt lat="49.12473" lon="-0.20705">
        <ele>22.9</ele>
        <time>2023-10-11T14:27:53Z</time>
      </trkpt>
      <trkpt lat="49.12472" lon="-0.20702">
        <ele>22.9</ele>
        <time>2023-10-11T14:27:59Z</time>
      </trkpt>
      <trkpt lat="49.12473" lon="-0.20697">
        <ele>22.8</ele>
        <time>2023-10-11T14:28:00Z</time>
      </trkpt>
      <trkpt lat="49.12475" lon="-0.20693">
        <ele>22.8</ele>
        <time>2023-10-11T14:28:01Z</time>
      </trkpt>
      <trkpt lat="49.12477" lon="-0.20689">
        <ele>22.7</ele>
        <time>2023-10-11T14:28:02Z</time>
      </trkpt>
      <trkpt lat="49.1248" lon="-0.20685">
        <ele>22.7</ele>
        <time>2023-10-11T14:28:03Z</time>
      </trkpt>
      <trkpt lat="49.12483" lon="-0.2068">
        <ele>22.6</ele>
        <time>2023-10-11T14:28:04Z</time>
      </trkpt>
      <trkpt lat="49.12487" lon="-0.20675">
        <ele>22.5</ele>
        <time>2023-10-11T14:28:05Z</time>
      </trkpt>
      <trkpt lat="49.12491" lon="-0.20671">
        <ele>22.4</ele>
        <time>2023-10-11T14:28:06Z</time>
      </trkpt>
      <trkpt lat="49.12496" lon="-0.20666">
        <ele>22.3</ele>
        <time>2023-10-11T14:28:07Z</time>
      </trkpt>
      <trkpt lat="49.12501" lon="-0.20662">
        <ele>22.1</ele>
        <time>2023-10-11T14:28:08Z</time>
      </trkpt>
      <trkpt lat="49.12507" lon="-0.20658">
        <ele>22</ele>
        <time>2023-10-11T14:28:09Z</time>
      </trkpt>
      <trkpt lat="49.12513" lon="-0.20654">
        <ele>21.9</ele>
        <time>2023-10-11T14:28:10Z</time>
      </trkpt>
      <trkpt lat="49.12518" lon="-0.2065">
        <ele>21.8</ele>
        <time>2023-10-11T14:28:11Z</time>
      </trkpt>
      <trkpt lat="49.12524" lon="-0.20646">
        <ele>21.7</ele>
        <time>2023-10-11T14:28:12Z</time>
      </trkpt>
      <trkpt lat="49.12531" lon="-0.20642">
        <ele>21.5</ele>
        <time>2023-10-11T14:28:13Z</time>
      </trkpt>
      <trkpt lat="49.12537" lon="-0.20637">
        <ele>21.4</ele>
        <time>2023-10-11T14:28:14Z</time>
      </trkpt>
      <trkpt lat="49.12543" lon="-0.20632">
        <ele>21.3</ele>
        <time>2023-10-11T14:28:15Z</time>
      </trkpt>
      <trkpt lat="49.1255" lon="-0.20627">
        <ele>21.1</ele>
        <time>2023-10-11T14:28:16Z</time>
      </trkpt>
      <trkpt lat="49.12557" lon="-0.20622">
        <ele>21</ele>
        <time>2023-10-11T14:28:17Z</time>
      </trkpt>
      <trkpt lat="49.12565" lon="-0.20617">
        <ele>20.8</ele>
        <time>2023-10-11T14:28:18Z</time>
      </trkpt>
      <trkpt lat="49.12572" lon="-0.20612">
        <ele>20.6</ele>
        <time>2023-10-11T14:28:19Z</time>
      </trkpt>
      <trkpt lat="49.12579" lon="-0.20608">
        <ele>20.4</ele>
        <time>2023-10-11T14:28:20Z</time>
      </trkpt>
      <trkpt lat="49.12587" lon="-0.20602">
        <ele>20.3</ele>
        <time>2023-10-11T14:28:21Z</time>
      </trkpt>
      <trkpt lat="49.12594" lon="-0.20597">
        <ele>20.2</ele>
        <time>2023-10-11T14:28:22Z</time>
      </trkpt>
      <trkpt lat="49.12602" lon="-0.20592">
        <ele>20.1</ele>
        <time>2023-10-11T14:28:23Z</time>
      </trkpt>
      <trkpt lat="49.1261" lon="-0.20587">
        <ele>19.9</ele>
        <time>2023-10-11T14:28:24Z</time>
      </trkpt>
      <trkpt lat="49.12618" lon="-0.20581">
        <ele>19.9</ele>
        <time>2023-10-11T14:28:25Z</time>
      </trkpt>
      <trkpt lat="49.12626" lon="-0.20576">
        <ele>19.8</ele>
        <time>2023-10-11T14:28:26Z</time>
      </trkpt>
      <trkpt lat="49.12634" lon="-0.20571">
        <ele>19.7</ele>
        <time>2023-10-11T14:28:27Z</time>
      </trkpt>
      <trkpt lat="49.12642" lon="-0.20565">
        <ele>19.6</ele>
        <time>2023-10-11T14:28:28Z</time>
      </trkpt>
      <trkpt lat="49.1265" lon="-0.2056">
        <ele>19.4</ele>
        <time>2023-10-11T14:28:29Z</time>
      </trkpt>
      <trkpt lat="49.12658" lon="-0.20555">
        <ele>19.3</ele>
        <time>2023-10-11T14:28:30Z</time>
      </trkpt>
      <trkpt lat="49.12666" lon="-0.2055">
        <ele>19.2</ele>
        <time>2023-10-11T14:28:31Z</time>
      </trkpt>
      <trkpt lat="49.12674" lon="-0.20545">
        <ele>19.1</ele>
        <time>2023-10-11T14:28:32Z</time>
      </trkpt>
      <trkpt lat="49.12682" lon="-0.20541">
        <ele>19</ele>
        <time>2023-10-11T14:28:33Z</time>
      </trkpt>
      <trkpt lat="49.1269" lon="-0.20537">
        <ele>18.9</ele>
        <time>2023-10-11T14:28:34Z</time>
      </trkpt>
      <trkpt lat="49.12698" lon="-0.20533">
        <ele>18.8</ele>
        <time>2023-10-11T14:28:35Z</time>
      </trkpt>
      <trkpt lat="49.12706" lon="-0.20529">
        <ele>18.7</ele>
        <time>2023-10-11T14:28:36Z</time>
      </trkpt>
      <trkpt lat="49.12714" lon="-0.20525">
        <ele>18.6</ele>
        <time>2023-10-11T14:28:37Z</time>
      </trkpt>
      <trkpt lat="49.12723" lon="-0.2052">
        <ele>18.5</ele>
        <time>2023-10-11T14:28:38Z</time>
      </trkpt>
      <trkpt lat="49.12731" lon="-0.20514">
        <ele>18.4</ele>
        <time>2023-10-11T14:28:39Z</time>
      </trkpt>
      <trkpt lat="49.1274" lon="-0.20509">
        <ele>18.3</ele>
        <time>2023-10-11T14:28:40Z</time>
      </trkpt>
      <trkpt lat="49.12748" lon="-0.20504">
        <ele>18.1</ele>
        <time>2023-10-11T14:28:41Z</time>
      </trkpt>
      <trkpt lat="49.12757" lon="-0.20499">
        <ele>18</ele>
        <time>2023-10-11T14:28:42Z</time>
      </trkpt>
      <trkpt lat="49.12766" lon="-0.20494">
        <ele>17.8</ele>
        <time>2023-10-11T14:28:43Z</time>
      </trkpt>
      <trkpt lat="49.12775" lon="-0.2049">
        <ele>17.7</ele>
        <time>2023-10-11T14:28:44Z</time>
      </trkpt>
      <trkpt lat="49.12784" lon="-0.20485">
        <ele>17.5</ele>
        <time>2023-10-11T14:28:45Z</time>
      </trkpt>
      <trkpt lat="49.12793" lon="-0.20481">
        <ele>17.4</ele>
        <time>2023-10-11T14:28:46Z</time>
      </trkpt>
      <trkpt lat="49.12802" lon="-0.20477">
        <ele>17.3</ele>
        <time>2023-10-11T14:28:47Z</time>
      </trkpt>
      <trkpt lat="49.12812" lon="-0.20472">
        <ele>17.2</ele>
        <time>2023-10-11T14:28:48Z</time>
      </trkpt>
      <trkpt lat="49.12821" lon="-0.20467">
        <ele>17.1</ele>
        <time>2023-10-11T14:28:49Z</time>
      </trkpt>
      <trkpt lat="49.12831" lon="-0.20462">
        <ele>16.9</ele>
        <time>2023-10-11T14:28:50Z</time>
      </trkpt>
      <trkpt lat="49.1284" lon="-0.20457">
        <ele>16.7</ele>
        <time>2023-10-11T14:28:51Z</time>
      </trkpt>
      <trkpt lat="49.1285" lon="-0.20453">
        <ele>16.6</ele>
        <time>2023-10-11T14:28:52Z</time>
      </trkpt>
      <trkpt lat="49.1286" lon="-0.20448">
        <ele>16.5</ele>
        <time>2023-10-11T14:28:53Z</time>
      </trkpt>
      <trkpt lat="49.12869" lon="-0.20444">
        <ele>16.4</ele>
        <time>2023-10-11T14:28:54Z</time>
      </trkpt>
      <trkpt lat="49.12879" lon="-0.20439">
        <ele>16.2</ele>
        <time>2023-10-11T14:28:55Z</time>
      </trkpt>
      <trkpt lat="49.12889" lon="-0.20434">
        <ele>16.1</ele>
        <time>2023-10-11T14:28:56Z</time>
      </trkpt>
      <trkpt lat="49.12899" lon="-0.20429">
        <ele>16</ele>
        <time>2023-10-11T14:28:57Z</time>
      </trkpt>
      <trkpt lat="49.12909" lon="-0.20423">
        <ele>15.9</ele>
        <time>2023-10-11T14:28:58Z</time>
      </trkpt>
      <trkpt lat="49.12918" lon="-0.20418">
        <ele>15.8</ele>
        <time>2023-10-11T14:28:59Z</time>
      </trkpt>
      <trkpt lat="49.12928" lon="-0.20413">
        <ele>15.7</ele>
        <time>2023-10-11T14:29:00Z</time>
      </trkpt>
      <trkpt lat="49.12937" lon="-0.20407">
        <ele>15.6</ele>
        <time>2023-10-11T14:29:01Z</time>
      </trkpt>
      <trkpt lat="49.12947" lon="-0.20402">
        <ele>15.5</ele>
        <time>2023-10-11T14:29:02Z</time>
      </trkpt>
      <trkpt lat="49.12957" lon="-0.20396">
        <ele>15.4</ele>
        <time>2023-10-11T14:29:03Z</time>
      </trkpt>
      <trkpt lat="49.12967" lon="-0.2039">
        <ele>15.2</ele>
        <time>2023-10-11T14:29:04Z</time>
      </trkpt>
      <trkpt lat="49.12977" lon="-0.20385">
        <ele>15.1</ele>
        <time>2023-10-11T14:29:05Z</time>
      </trkpt>
      <trkpt lat="49.12987" lon="-0.2038">
        <ele>15</ele>
        <time>2023-10-11T14:29:06Z</time>
      </trkpt>
      <trkpt lat="49.12997" lon="-0.20376">
        <ele>14.9</ele>
        <time>2023-10-11T14:29:07Z</time>
      </trkpt>
      <trkpt lat="49.13007" lon="-0.20371">
        <ele>14.8</ele>
        <time>2023-10-11T14:29:08Z</time>
      </trkpt>
      <trkpt lat="49.13018" lon="-0.20367">
        <ele>14.6</ele>
        <time>2023-10-11T14:29:09Z</time>
      </trkpt>
      <trkpt lat="49.13028" lon="-0.20364">
        <ele>14.5</ele>
        <time>2023-10-11T14:29:10Z</time>
      </trkpt>
      <trkpt lat="49.13039" lon="-0.2036">
        <ele>14.3</ele>
        <time>2023-10-11T14:29:11Z</time>
      </trkpt>
      <trkpt lat="49.13049" lon="-0.20356">
        <ele>14.1</ele>
        <time>2023-10-11T14:29:12Z</time>
      </trkpt>
      <trkpt lat="49.13059" lon="-0.20351">
        <ele>14</ele>
        <time>2023-10-11T14:29:13Z</time>
      </trkpt>
      <trkpt lat="49.13069" lon="-0.20347">
        <ele>13.8</ele>
        <time>2023-10-11T14:29:14Z</time>
      </trkpt>
      <trkpt lat="49.1308" lon="-0.20343">
        <ele>13.6</ele>
        <time>2023-10-11T14:29:15Z</time>
      </trkpt>
      <trkpt lat="49.13091" lon="-0.20338">
        <ele>13.4</ele>
        <time>2023-10-11T14:29:16Z</time>
      </trkpt>
      <trkpt lat="49.13101" lon="-0.20334">
        <ele>13.3</ele>
        <time>2023-10-11T14:29:17Z</time>
      </trkpt>
      <trkpt lat="49.13112" lon="-0.20329">
        <ele>13.1</ele>
        <time>2023-10-11T14:29:18Z</time>
      </trkpt>
      <trkpt lat="49.13122" lon="-0.20325">
        <ele>13</ele>
        <time>2023-10-11T14:29:19Z</time>
      </trkpt>
      <trkpt lat="49.13132" lon="-0.2032">
        <ele>13</ele>
        <time>2023-10-11T14:29:20Z</time>
      </trkpt>
      <trkpt lat="49.13143" lon="-0.20315">
        <ele>12.8</ele>
        <time>2023-10-11T14:29:21Z</time>
      </trkpt>
      <trkpt lat="49.13153" lon="-0.20309">
        <ele>12.7</ele>
        <time>2023-10-11T14:29:22Z</time>
      </trkpt>
      <trkpt lat="49.13163" lon="-0.20304">
        <ele>12.7</ele>
        <time>2023-10-11T14:29:23Z</time>
      </trkpt>
      <trkpt lat="49.13174" lon="-0.20299">
        <ele>12.6</ele>
        <time>2023-10-11T14:29:24Z</time>
      </trkpt>
      <trkpt lat="49.13184" lon="-0.20294">
        <ele>12.5</ele>
        <time>2023-10-11T14:29:25Z</time>
      </trkpt>
      <trkpt lat="49.13194" lon="-0.2029">
        <ele>12.4</ele>
        <time>2023-10-11T14:29:26Z</time>
      </trkpt>
      <trkpt lat="49.13205" lon="-0.20287">
        <ele>12.3</ele>
        <time>2023-10-11T14:29:27Z</time>
      </trkpt>
      <trkpt lat="49.13216" lon="-0.20286">
        <ele>12.2</ele>
        <time>2023-10-11T14:29:28Z</time>
      </trkpt>
      <trkpt lat="49.13227" lon="-0.20287">
        <ele>12.1</ele>
        <time>2023-10-11T14:29:29Z</time>
      </trkpt>
      <trkpt lat="49.13238" lon="-0.20289">
        <ele>12</ele>
        <time>2023-10-11T14:29:30Z</time>
      </trkpt>
      <trkpt lat="49.13249" lon="-0.20291">
        <ele>11.8</ele>
        <time>2023-10-11T14:29:31Z</time>
      </trkpt>
      <trkpt lat="49.1326" lon="-0.20292">
        <ele>11.8</ele>
        <time>2023-10-11T14:29:32Z</time>
      </trkpt>
      <trkpt lat="49.13271" lon="-0.20292">
        <ele>11.7</ele>
        <time>2023-10-11T14:29:33Z</time>
      </trkpt>
      <trkpt lat="49.13282" lon="-0.20292">
        <ele>11.6</ele>
        <time>2023-10-11T14:29:34Z</time>
      </trkpt>
      <trkpt lat="49.13293" lon="-0.20291">
        <ele>11.6</ele>
        <time>2023-10-11T14:29:35Z</time>
      </trkpt>
      <trkpt lat="49.13304" lon="-0.20292">
        <ele>11.5</ele>
        <time>2023-10-11T14:29:36Z</time>
      </trkpt>
      <trkpt lat="49.13315" lon="-0.20296">
        <ele>11.4</ele>
        <time>2023-10-11T14:29:37Z</time>
      </trkpt>
      <trkpt lat="49.13325" lon="-0.20304">
        <ele>11.4</ele>
        <time>2023-10-11T14:29:38Z</time>
      </trkpt>
      <trkpt lat="49.13334" lon="-0.20313">
        <ele>11.4</ele>
        <time>2023-10-11T14:29:39Z</time>
      </trkpt>
      <trkpt lat="49.13343" lon="-0.20324">
        <ele>11.3</ele>
        <time>2023-10-11T14:29:40Z</time>
      </trkpt>
      <trkpt lat="49.13352" lon="-0.20334">
        <ele>11.3</ele>
        <time>2023-10-11T14:29:41Z</time>
      </trkpt>
      <trkpt lat="49.1336" lon="-0.20344">
        <ele>11.3</ele>
        <time>2023-10-11T14:29:42Z</time>
      </trkpt>
      <trkpt lat="49.13369" lon="-0.20353">
        <ele>11.2</ele>
        <time>2023-10-11T14:29:43Z</time>
      </trkpt>
      <trkpt lat="49.13378" lon="-0.20363">
        <ele>11.2</ele>
        <time>2023-10-11T14:29:44Z</time>
      </trkpt>
      <trkpt lat="49.13387" lon="-0.20372">
        <ele>11.1</ele>
        <time>2023-10-11T14:29:45Z</time>
      </trkpt>
      <trkpt lat="49.13395" lon="-0.20382">
        <ele>11.1</ele>
        <time>2023-10-11T14:29:46Z</time>
      </trkpt>
      <trkpt lat="49.13404" lon="-0.20391">
        <ele>11</ele>
        <time>2023-10-11T14:29:47Z</time>
      </trkpt>
      <trkpt lat="49.13413" lon="-0.204">
        <ele>11</ele>
        <time>2023-10-11T14:29:48Z</time>
      </trkpt>
      <trkpt lat="49.13422" lon="-0.2041">
        <ele>11</ele>
        <time>2023-10-11T14:29:49Z</time>
      </trkpt>
      <trkpt lat="49.1343" lon="-0.2042">
        <ele>11</ele>
        <time>2023-10-11T14:29:50Z</time>
      </trkpt>
      <trkpt lat="49.13438" lon="-0.20429">
        <ele>11</ele>
        <time>2023-10-11T14:29:51Z</time>
      </trkpt>
      <trkpt lat="49.13447" lon="-0.20439">
        <ele>10.9</ele>
        <time>2023-10-11T14:29:52Z</time>
      </trkpt>
      <trkpt lat="49.13456" lon="-0.20446">
        <ele>10.9</ele>
        <time>2023-10-11T14:29:53Z</time>
      </trkpt>
      <trkpt lat="49.13466" lon="-0.20449">
        <ele>10.9</ele>
        <time>2023-10-11T14:29:54Z</time>
      </trkpt>
      <trkpt lat="49.13477" lon="-0.20448">
        <ele>10.9</ele>
        <time>2023-10-11T14:29:55Z</time>
      </trkpt>
      <trkpt lat="49.13487" lon="-0.20443">
        <ele>10.9</ele>
        <time>2023-10-11T14:29:56Z</time>
      </trkpt>
      <trkpt lat="49.13497" lon="-0.20438">
        <ele>10.9</ele>
        <time>2023-10-11T14:29:57Z</time>
      </trkpt>
      <trkpt lat="49.13507" lon="-0.20434">
        <ele>10.9</ele>
        <time>2023-10-11T14:29:58Z</time>
      </trkpt>
      <trkpt lat="49.13517" lon="-0.2043">
        <ele>10.9</ele>
        <time>2023-10-11T14:29:59Z</time>
      </trkpt>
      <trkpt lat="49.13526" lon="-0.20425">
        <ele>10.8</ele>
        <time>2023-10-11T14:30:00Z</time>
      </trkpt>
      <trkpt lat="49.13536" lon="-0.20421">
        <ele>10.8</ele>
        <time>2023-10-11T14:30:01Z</time>
      </trkpt>
      <trkpt lat="49.13546" lon="-0.20417">
        <ele>10.8</ele>
        <time>2023-10-11T14:30:02Z</time>
      </trkpt>
      <trkpt lat="49.13555" lon="-0.20413">
        <ele>10.8</ele>
        <time>2023-10-11T14:30:03Z</time>
      </trkpt>
      <trkpt lat="49.13565" lon="-0.20409">
        <ele>10.7</ele>
        <time>2023-10-11T14:30:04Z</time>
      </trkpt>
      <trkpt lat="49.13575" lon="-0.20405">
        <ele>10.6</ele>
        <time>2023-10-11T14:30:05Z</time>
      </trkpt>
      <trkpt lat="49.13585" lon="-0.20401">
        <ele>10.5</ele>
        <time>2023-10-11T14:30:06Z</time>
      </trkpt>
      <trkpt lat="49.13594" lon="-0.20397">
        <ele>10.4</ele>
        <time>2023-10-11T14:30:07Z</time>
      </trkpt>
      <trkpt lat="49.13604" lon="-0.20393">
        <ele>10.4</ele>
        <time>2023-10-11T14:30:08Z</time>
      </trkpt>
      <trkpt lat="49.13614" lon="-0.20389">
        <ele>10.4</ele>
        <time>2023-10-11T14:30:09Z</time>
      </trkpt>
      <trkpt lat="49.13623" lon="-0.20385">
        <ele>10.3</ele>
        <time>2023-10-11T14:30:10Z</time>
      </trkpt>
      <trkpt lat="49.13633" lon="-0.20381">
        <ele>10.3</ele>
        <time>2023-10-11T14:30:11Z</time>
      </trkpt>
      <trkpt lat="49.13643" lon="-0.20378">
        <ele>10.3</ele>
        <time>2023-10-11T14:30:12Z</time>
      </trkpt>
      <trkpt lat="49.13653" lon="-0.20374">
        <ele>10.2</ele>
        <time>2023-10-11T14:30:13Z</time>
      </trkpt>
      <trkpt lat="49.13662" lon="-0.20369">
        <ele>10.2</ele>
        <time>2023-10-11T14:30:14Z</time>
      </trkpt>
      <trkpt lat="49.13672" lon="-0.20365">
        <ele>10.2</ele>
        <time>2023-10-11T14:30:15Z</time>
      </trkpt>
      <trkpt lat="49.13682" lon="-0.20362">
        <ele>10.2</ele>
        <time>2023-10-11T14:30:16Z</time>
      </trkpt>
      <trkpt lat="49.13692" lon="-0.20358">
        <ele>10.1</ele>
        <time>2023-10-11T14:30:17Z</time>
      </trkpt>
      <trkpt lat="49.13702" lon="-0.20357">
        <ele>10.1</ele>
        <time>2023-10-11T14:30:18Z</time>
      </trkpt>
      <trkpt lat="49.13712" lon="-0.2036">
        <ele>10</ele>
        <time>2023-10-11T14:30:19Z</time>
      </trkpt>
      <trkpt lat="49.13721" lon="-0.20366">
        <ele>10</ele>
        <time>2023-10-11T14:30:20Z</time>
      </trkpt>
      <trkpt lat="49.13729" lon="-0.20376">
        <ele>10</ele>
        <time>2023-10-11T14:30:21Z</time>
      </trkpt>
      <trkpt lat="49.13737" lon="-0.20386">
        <ele>10</ele>
        <time>2023-10-11T14:30:22Z</time>
      </trkpt>
      <trkpt lat="49.13745" lon="-0.20396">
        <ele>10</ele>
        <time>2023-10-11T14:30:23Z</time>
      </trkpt>
      <trkpt lat="49.13752" lon="-0.20406">
        <ele>9.9</ele>
        <time>2023-10-11T14:30:24Z</time>
      </trkpt>
      <trkpt lat="49.1376" lon="-0.20415">
        <ele>9.9</ele>
        <time>2023-10-11T14:30:25Z</time>
      </trkpt>
      <trkpt lat="49.13768" lon="-0.20424">
        <ele>9.8</ele>
        <time>2023-10-11T14:30:26Z</time>
      </trkpt>
      <trkpt lat="49.13776" lon="-0.20434">
        <ele>9.8</ele>
        <time>2023-10-11T14:30:27Z</time>
      </trkpt>
      <trkpt lat="49.13784" lon="-0.20444">
        <ele>9.8</ele>
        <time>2023-10-11T14:30:28Z</time>
      </trkpt>
      <trkpt lat="49.13792" lon="-0.20454">
        <ele>9.8</ele>
        <time>2023-10-11T14:30:29Z</time>
      </trkpt>
      <trkpt lat="49.13799" lon="-0.20463">
        <ele>9.7</ele>
        <time>2023-10-11T14:30:30Z</time>
      </trkpt>
      <trkpt lat="49.13807" lon="-0.20473">
        <ele>9.7</ele>
        <time>2023-10-11T14:30:31Z</time>
      </trkpt>
      <trkpt lat="49.13815" lon="-0.20482">
        <ele>9.6</ele>
        <time>2023-10-11T14:30:32Z</time>
      </trkpt>
      <trkpt lat="49.13823" lon="-0.20492">
        <ele>9.6</ele>
        <time>2023-10-11T14:30:33Z</time>
      </trkpt>
      <trkpt lat="49.13831" lon="-0.20501">
        <ele>9.6</ele>
        <time>2023-10-11T14:30:34Z</time>
      </trkpt>
      <trkpt lat="49.13839" lon="-0.20511">
        <ele>9.6</ele>
        <time>2023-10-11T14:30:35Z</time>
      </trkpt>
      <trkpt lat="49.13846" lon="-0.2052">
        <ele>9.5</ele>
        <time>2023-10-11T14:30:36Z</time>
      </trkpt>
      <trkpt lat="49.13854" lon="-0.20529">
        <ele>9.5</ele>
        <time>2023-10-11T14:30:37Z</time>
      </trkpt>
      <trkpt lat="49.13862" lon="-0.20537">
        <ele>9.5</ele>
        <time>2023-10-11T14:30:38Z</time>
      </trkpt>
      <trkpt lat="49.1387" lon="-0.20546">
        <ele>9.5</ele>
        <time>2023-10-11T14:30:39Z</time>
      </trkpt>
      <trkpt lat="49.13878" lon="-0.20553">
        <ele>9.4</ele>
        <time>2023-10-11T14:30:40Z</time>
      </trkpt>
      <trkpt lat="49.13887" lon="-0.20558">
        <ele>9.4</ele>
        <time>2023-10-11T14:30:41Z</time>
      </trkpt>
      <trkpt lat="49.13896" lon="-0.20562">
        <ele>9.3</ele>
        <time>2023-10-11T14:30:42Z</time>
      </trkpt>
      <trkpt lat="49.13905" lon="-0.20564">
        <ele>9.2</ele>
        <time>2023-10-11T14:30:43Z</time>
      </trkpt>
      <trkpt lat="49.13915" lon="-0.20566">
        <ele>9.1</ele>
        <time>2023-10-11T14:30:44Z</time>
      </trkpt>
      <trkpt lat="49.13925" lon="-0.20568">
        <ele>8.9</ele>
        <time>2023-10-11T14:30:45Z</time>
      </trkpt>
      <trkpt lat="49.13935" lon="-0.2057">
        <ele>8.8</ele>
        <time>2023-10-11T14:30:46Z</time>
      </trkpt>
      <trkpt lat="49.13945" lon="-0.20572">
        <ele>8.8</ele>
        <time>2023-10-11T14:30:47Z</time>
      </trkpt>
      <trkpt lat="49.13955" lon="-0.20575">
        <ele>8.7</ele>
        <time>2023-10-11T14:30:48Z</time>
      </trkpt>
      <trkpt lat="49.13964" lon="-0.20578">
        <ele>8.6</ele>
        <time>2023-10-11T14:30:49Z</time>
      </trkpt>
      <trkpt lat="49.13974" lon="-0.20581">
        <ele>8.5</ele>
        <time>2023-10-11T14:30:50Z</time>
      </trkpt>
      <trkpt lat="49.13984" lon="-0.20583">
        <ele>8.4</ele>
        <time>2023-10-11T14:30:51Z</time>
      </trkpt>
      <trkpt lat="49.13993" lon="-0.20585">
        <ele>8.3</ele>
        <time>2023-10-11T14:30:52Z</time>
      </trkpt>
      <trkpt lat="49.14003" lon="-0.20588">
        <ele>8.3</ele>
        <time>2023-10-11T14:30:53Z</time>
      </trkpt>
      <trkpt lat="49.14013" lon="-0.2059">
        <ele>8.2</ele>
        <time>2023-10-11T14:30:54Z</time>
      </trkpt>
      <trkpt lat="49.14022" lon="-0.20593">
        <ele>8.1</ele>
        <time>2023-10-11T14:30:55Z</time>
      </trkpt>
      <trkpt lat="49.14032" lon="-0.20597">
        <ele>8</ele>
        <time>2023-10-11T14:30:56Z</time>
      </trkpt>
      <trkpt lat="49.14041" lon="-0.20599">
        <ele>7.9</ele>
        <time>2023-10-11T14:30:57Z</time>
      </trkpt>
      <trkpt lat="49.14051" lon="-0.20601">
        <ele>7.7</ele>
        <time>2023-10-11T14:30:58Z</time>
      </trkpt>
      <trkpt lat="49.1406" lon="-0.20603">
        <ele>7.6</ele>
        <time>2023-10-11T14:30:59Z</time>
      </trkpt>
      <trkpt lat="49.1407" lon="-0.20605">
        <ele>7.4</ele>
        <time>2023-10-11T14:31:00Z</time>
      </trkpt>
      <trkpt lat="49.1408" lon="-0.20607">
        <ele>7.3</ele>
        <time>2023-10-11T14:31:01Z</time>
      </trkpt>
      <trkpt lat="49.1409" lon="-0.2061">
        <ele>7.2</ele>
        <time>2023-10-11T14:31:02Z</time>
      </trkpt>
      <trkpt lat="49.14099" lon="-0.20612">
        <ele>7.2</ele>
        <time>2023-10-11T14:31:03Z</time>
      </trkpt>
      <trkpt lat="49.14109" lon="-0.20615">
        <ele>7.1</ele>
        <time>2023-10-11T14:31:04Z</time>
      </trkpt>
      <trkpt lat="49.14118" lon="-0.20618">
        <ele>7.1</ele>
        <time>2023-10-11T14:31:05Z</time>
      </trkpt>
      <trkpt lat="49.14128" lon="-0.2062">
        <ele>7.1</ele>
        <time>2023-10-11T14:31:06Z</time>
      </trkpt>
      <trkpt lat="49.14137" lon="-0.20623">
        <ele>7</ele>
        <time>2023-10-11T14:31:07Z</time>
      </trkpt>
      <trkpt lat="49.14146" lon="-0.20624">
        <ele>7</ele>
        <time>2023-10-11T14:31:08Z</time>
      </trkpt>
      <trkpt lat="49.14155" lon="-0.20626">
        <ele>7</ele>
        <time>2023-10-11T14:31:09Z</time>
      </trkpt>
      <trkpt lat="49.14165" lon="-0.20628">
        <ele>7</ele>
        <time>2023-10-11T14:31:10Z</time>
      </trkpt>
      <trkpt lat="49.14174" lon="-0.2063">
        <ele>7</ele>
        <time>2023-10-11T14:31:11Z</time>
      </trkpt>
      <trkpt lat="49.14183" lon="-0.20633">
        <ele>7</ele>
        <time>2023-10-11T14:31:12Z</time>
      </trkpt>
      <trkpt lat="49.14193" lon="-0.20636">
        <ele>7</ele>
        <time>2023-10-11T14:31:13Z</time>
      </trkpt>
      <trkpt lat="49.14202" lon="-0.20638">
        <ele>7</ele>
        <time>2023-10-11T14:31:14Z</time>
      </trkpt>
      <trkpt lat="49.14212" lon="-0.2064">
        <ele>7</ele>
        <time>2023-10-11T14:31:15Z</time>
      </trkpt>
      <trkpt lat="49.14221" lon="-0.20642">
        <ele>7</ele>
        <time>2023-10-11T14:31:16Z</time>
      </trkpt>
      <trkpt lat="49.1423" lon="-0.20645">
        <ele>7</ele>
        <time>2023-10-11T14:31:17Z</time>
      </trkpt>
      <trkpt lat="49.1424" lon="-0.20647">
        <ele>7.1</ele>
        <time>2023-10-11T14:31:18Z</time>
      </trkpt>
      <trkpt lat="49.14249" lon="-0.2065">
        <ele>7.1</ele>
        <time>2023-10-11T14:31:19Z</time>
      </trkpt>
      <trkpt lat="49.14257" lon="-0.20655">
        <ele>7.2</ele>
        <time>2023-10-11T14:31:20Z</time>
      </trkpt>
      <trkpt lat="49.14265" lon="-0.20664">
        <ele>7.3</ele>
        <time>2023-10-11T14:31:21Z</time>
      </trkpt>
      <trkpt lat="49.14268" lon="-0.20678">
        <ele>7.2</ele>
        <time>2023-10-11T14:31:22Z</time>
      </trkpt>
      <trkpt lat="49.14269" lon="-0.20693">
        <ele>7.2</ele>
        <time>2023-10-11T14:31:23Z</time>
      </trkpt>
      <trkpt lat="49.14268" lon="-0.20708">
        <ele>7.2</ele>
        <time>2023-10-11T14:31:24Z</time>
      </trkpt>
      <trkpt lat="49.14266" lon="-0.20723">
        <ele>7.1</ele>
        <time>2023-10-11T14:31:25Z</time>
      </trkpt>
      <trkpt lat="49.14266" lon="-0.20737">
        <ele>7.1</ele>
        <time>2023-10-11T14:31:26Z</time>
      </trkpt>
      <trkpt lat="49.14265" lon="-0.20751">
        <ele>7.1</ele>
        <time>2023-10-11T14:31:27Z</time>
      </trkpt>
      <trkpt lat="49.14265" lon="-0.20765">
        <ele>7.1</ele>
        <time>2023-10-11T14:31:28Z</time>
      </trkpt>
      <trkpt lat="49.14264" lon="-0.20779">
        <ele>7.1</ele>
        <time>2023-10-11T14:31:29Z</time>
      </trkpt>
      <trkpt lat="49.14264" lon="-0.20793">
        <ele>7.1</ele>
        <time>2023-10-11T14:31:30Z</time>
      </trkpt>
      <trkpt lat="49.14263" lon="-0.20806">
        <ele>7</ele>
        <time>2023-10-11T14:31:31Z</time>
      </trkpt>
      <trkpt lat="49.14262" lon="-0.20818">
        <ele>7</ele>
        <time>2023-10-11T14:31:32Z</time>
      </trkpt>
      <trkpt lat="49.14262" lon="-0.2083">
        <ele>7</ele>
        <time>2023-10-11T14:31:33Z</time>
      </trkpt>
      <trkpt lat="49.14261" lon="-0.20842">
        <ele>6.9</ele>
        <time>2023-10-11T14:31:34Z</time>
      </trkpt>
      <trkpt lat="49.14261" lon="-0.20854">
        <ele>6.9</ele>
        <time>2023-10-11T14:31:35Z</time>
      </trkpt>
      <trkpt lat="49.1426" lon="-0.20866">
        <ele>6.9</ele>
        <time>2023-10-11T14:31:36Z</time>
      </trkpt>
      <trkpt lat="49.14259" lon="-0.20878">
        <ele>6.9</ele>
        <time>2023-10-11T14:31:37Z</time>
      </trkpt>
      <trkpt lat="49.14259" lon="-0.2089">
        <ele>7</ele>
        <time>2023-10-11T14:31:38Z</time>
      </trkpt>
      <trkpt lat="49.14259" lon="-0.20901">
        <ele>7</ele>
        <time>2023-10-11T14:31:39Z</time>
      </trkpt>
      <trkpt lat="49.14258" lon="-0.20913">
        <ele>7</ele>
        <time>2023-10-11T14:31:40Z</time>
      </trkpt>
      <trkpt lat="49.14258" lon="-0.20924">
        <ele>7</ele>
        <time>2023-10-11T14:31:41Z</time>
      </trkpt>
      <trkpt lat="49.14257" lon="-0.20936">
        <ele>7</ele>
        <time>2023-10-11T14:31:42Z</time>
      </trkpt>
      <trkpt lat="49.14257" lon="-0.20948">
        <ele>7</ele>
        <time>2023-10-11T14:31:43Z</time>
      </trkpt>
      <trkpt lat="49.14256" lon="-0.20959">
        <ele>6.9</ele>
        <time>2023-10-11T14:31:44Z</time>
      </trkpt>
      <trkpt lat="49.14256" lon="-0.20971">
        <ele>6.9</ele>
        <time>2023-10-11T14:31:45Z</time>
      </trkpt>
      <trkpt lat="49.14255" lon="-0.20983">
        <ele>6.8</ele>
        <time>2023-10-11T14:31:46Z</time>
      </trkpt>
      <trkpt lat="49.14255" lon="-0.20995">
        <ele>6.8</ele>
        <time>2023-10-11T14:31:47Z</time>
      </trkpt>
      <trkpt lat="49.14255" lon="-0.21007">
        <ele>6.8</ele>
        <time>2023-10-11T14:31:48Z</time>
      </trkpt>
      <trkpt lat="49.14254" lon="-0.21019">
        <ele>6.8</ele>
        <time>2023-10-11T14:31:49Z</time>
      </trkpt>
      <trkpt lat="49.14253" lon="-0.21031">
        <ele>6.8</ele>
        <time>2023-10-11T14:31:50Z</time>
      </trkpt>
      <trkpt lat="49.14253" lon="-0.21043">
        <ele>6.8</ele>
        <time>2023-10-11T14:31:51Z</time>
      </trkpt>
      <trkpt lat="49.14252" lon="-0.21055">
        <ele>6.8</ele>
        <time>2023-10-11T14:31:52Z</time>
      </trkpt>
      <trkpt lat="49.14252" lon="-0.21067">
        <ele>6.9</ele>
        <time>2023-10-11T14:31:53Z</time>
      </trkpt>
      <trkpt lat="49.14251" lon="-0.21079">
        <ele>6.9</ele>
        <time>2023-10-11T14:31:54Z</time>
      </trkpt>
      <trkpt lat="49.14251" lon="-0.21091">
        <ele>6.9</ele>
        <time>2023-10-11T14:31:55Z</time>
      </trkpt>
      <trkpt lat="49.1425" lon="-0.21103">
        <ele>7</ele>
        <time>2023-10-11T14:31:56Z</time>
      </trkpt>
      <trkpt lat="49.1425" lon="-0.21115">
        <ele>7</ele>
        <time>2023-10-11T14:31:57Z</time>
      </trkpt>
      <trkpt lat="49.14249" lon="-0.21127">
        <ele>7.1</ele>
        <time>2023-10-11T14:31:58Z</time>
      </trkpt>
      <trkpt lat="49.14249" lon="-0.21139">
        <ele>7.1</ele>
        <time>2023-10-11T14:31:59Z</time>
      </trkpt>
      <trkpt lat="49.14248" lon="-0.2115">
        <ele>7.1</ele>
        <time>2023-10-11T14:32:00Z</time>
      </trkpt>
      <trkpt lat="49.14248" lon="-0.21162">
        <ele>7.2</ele>
        <time>2023-10-11T14:32:01Z</time>
      </trkpt>
      <trkpt lat="49.14248" lon="-0.21174">
        <ele>7.2</ele>
        <time>2023-10-11T14:32:02Z</time>
      </trkpt>
      <trkpt lat="49.14249" lon="-0.21186">
        <ele>7.3</ele>
        <time>2023-10-11T14:32:03Z</time>
      </trkpt>
      <trkpt lat="49.14251" lon="-0.21198">
        <ele>7.4</ele>
        <time>2023-10-11T14:32:04Z</time>
      </trkpt>
      <trkpt lat="49.14254" lon="-0.21209">
        <ele>7.5</ele>
        <time>2023-10-11T14:32:05Z</time>
      </trkpt>
      <trkpt lat="49.14258" lon="-0.21219">
        <ele>7.5</ele>
        <time>2023-10-11T14:32:06Z</time>
      </trkpt>
      <trkpt lat="49.14263" lon="-0.21229">
        <ele>7.6</ele>
        <time>2023-10-11T14:32:07Z</time>
      </trkpt>
      <trkpt lat="49.14268" lon="-0.21238">
        <ele>7.7</ele>
        <time>2023-10-11T14:32:08Z</time>
      </trkpt>
      <trkpt lat="49.14273" lon="-0.21247">
        <ele>7.7</ele>
        <time>2023-10-11T14:32:09Z</time>
      </trkpt>
      <trkpt lat="49.14279" lon="-0.21256">
        <ele>7.8</ele>
        <time>2023-10-11T14:32:10Z</time>
      </trkpt>
      <trkpt lat="49.14283" lon="-0.21265">
        <ele>7.7</ele>
        <time>2023-10-11T14:32:11Z</time>
      </trkpt>
      <trkpt lat="49.14288" lon="-0.21275">
        <ele>7.7</ele>
        <time>2023-10-11T14:32:12Z</time>
      </trkpt>
      <trkpt lat="49.14294" lon="-0.21285">
        <ele>7.7</ele>
        <time>2023-10-11T14:32:13Z</time>
      </trkpt>
      <trkpt lat="49.14299" lon="-0.21294">
        <ele>7.7</ele>
        <time>2023-10-11T14:32:14Z</time>
      </trkpt>
      <trkpt lat="49.14304" lon="-0.21304">
        <ele>7.7</ele>
        <time>2023-10-11T14:32:15Z</time>
      </trkpt>
      <trkpt lat="49.14309" lon="-0.21313">
        <ele>7.7</ele>
        <time>2023-10-11T14:32:16Z</time>
      </trkpt>
      <trkpt lat="49.14314" lon="-0.21323">
        <ele>7.8</ele>
        <time>2023-10-11T14:32:17Z</time>
      </trkpt>
      <trkpt lat="49.14319" lon="-0.21332">
        <ele>7.8</ele>
        <time>2023-10-11T14:32:18Z</time>
      </trkpt>
      <trkpt lat="49.14324" lon="-0.21342">
        <ele>7.8</ele>
        <time>2023-10-11T14:32:19Z</time>
      </trkpt>
      <trkpt lat="49.14329" lon="-0.21352">
        <ele>7.8</ele>
        <time>2023-10-11T14:32:20Z</time>
      </trkpt>
      <trkpt lat="49.14334" lon="-0.21362">
        <ele>7.9</ele>
        <time>2023-10-11T14:32:21Z</time>
      </trkpt>
      <trkpt lat="49.14339" lon="-0.21372">
        <ele>7.9</ele>
        <time>2023-10-11T14:32:22Z</time>
      </trkpt>
      <trkpt lat="49.14344" lon="-0.21381">
        <ele>8</ele>
        <time>2023-10-11T14:32:23Z</time>
      </trkpt>
      <trkpt lat="49.14349" lon="-0.21391">
        <ele>8</ele>
        <time>2023-10-11T14:32:24Z</time>
      </trkpt>
      <trkpt lat="49.14354" lon="-0.21401">
        <ele>8.1</ele>
        <time>2023-10-11T14:32:25Z</time>
      </trkpt>
      <trkpt lat="49.14359" lon="-0.2141">
        <ele>8.2</ele>
        <time>2023-10-11T14:32:26Z</time>
      </trkpt>
      <trkpt lat="49.14364" lon="-0.2142">
        <ele>8.2</ele>
        <time>2023-10-11T14:32:27Z</time>
      </trkpt>
      <trkpt lat="49.14369" lon="-0.21429">
        <ele>8.3</ele>
        <time>2023-10-11T14:32:28Z</time>
      </trkpt>
      <trkpt lat="49.14373" lon="-0.21438">
        <ele>8.4</ele>
        <time>2023-10-11T14:32:29Z</time>
      </trkpt>
      <trkpt lat="49.14378" lon="-0.21447">
        <ele>8.4</ele>
        <time>2023-10-11T14:32:30Z</time>
      </trkpt>
      <trkpt lat="49.14383" lon="-0.21456">
        <ele>8.5</ele>
        <time>2023-10-11T14:32:31Z</time>
      </trkpt>
      <trkpt lat="49.14387" lon="-0.21466">
        <ele>8.5</ele>
        <time>2023-10-11T14:32:32Z</time>
      </trkpt>
      <trkpt lat="49.14392" lon="-0.21475">
        <ele>8.5</ele>
        <time>2023-10-11T14:32:33Z</time>
      </trkpt>
      <trkpt lat="49.14397" lon="-0.21485">
        <ele>8.6</ele>
        <time>2023-10-11T14:32:34Z</time>
      </trkpt>
      <trkpt lat="49.14402" lon="-0.21496">
        <ele>8.6</ele>
        <time>2023-10-11T14:32:35Z</time>
      </trkpt>
      <trkpt lat="49.14407" lon="-0.21505">
        <ele>8.6</ele>
        <time>2023-10-11T14:32:36Z</time>
      </trkpt>
      <trkpt lat="49.14412" lon="-0.21515">
        <ele>8.5</ele>
        <time>2023-10-11T14:32:37Z</time>
      </trkpt>
      <trkpt lat="49.14417" lon="-0.21526">
        <ele>8.4</ele>
        <time>2023-10-11T14:32:38Z</time>
      </trkpt>
      <trkpt lat="49.14422" lon="-0.21537">
        <ele>8.2</ele>
        <time>2023-10-11T14:32:39Z</time>
      </trkpt>
      <trkpt lat="49.14428" lon="-0.21548">
        <ele>8.1</ele>
        <time>2023-10-11T14:32:40Z</time>
      </trkpt>
      <trkpt lat="49.14433" lon="-0.21558">
        <ele>8</ele>
        <time>2023-10-11T14:32:41Z</time>
      </trkpt>
      <trkpt lat="49.14439" lon="-0.21569">
        <ele>7.9</ele>
        <time>2023-10-11T14:32:42Z</time>
      </trkpt>
      <trkpt lat="49.14444" lon="-0.2158">
        <ele>7.8</ele>
        <time>2023-10-11T14:32:43Z</time>
      </trkpt>
      <trkpt lat="49.1445" lon="-0.2159">
        <ele>7.8</ele>
        <time>2023-10-11T14:32:44Z</time>
      </trkpt>
      <trkpt lat="49.14455" lon="-0.216">
        <ele>7.8</ele>
        <time>2023-10-11T14:32:45Z</time>
      </trkpt>
      <trkpt lat="49.1446" lon="-0.2161">
        <ele>7.8</ele>
        <time>2023-10-11T14:32:46Z</time>
      </trkpt>
      <trkpt lat="49.14465" lon="-0.2162">
        <ele>7.8</ele>
        <time>2023-10-11T14:32:47Z</time>
      </trkpt>
      <trkpt lat="49.14471" lon="-0.2163">
        <ele>7.8</ele>
        <time>2023-10-11T14:32:48Z</time>
      </trkpt>
      <trkpt lat="49.14476" lon="-0.2164">
        <ele>7.7</ele>
        <time>2023-10-11T14:32:49Z</time>
      </trkpt>
      <trkpt lat="49.14482" lon="-0.21648">
        <ele>7.7</ele>
        <time>2023-10-11T14:32:50Z</time>
      </trkpt>
      <trkpt lat="49.14488" lon="-0.21657">
        <ele>7.7</ele>
        <time>2023-10-11T14:32:51Z</time>
      </trkpt>
      <trkpt lat="49.14494" lon="-0.21664">
        <ele>7.6</ele>
        <time>2023-10-11T14:32:52Z</time>
      </trkpt>
      <trkpt lat="49.14502" lon="-0.21671">
        <ele>7.5</ele>
        <time>2023-10-11T14:32:53Z</time>
      </trkpt>
      <trkpt lat="49.1451" lon="-0.21677">
        <ele>7.4</ele>
        <time>2023-10-11T14:32:54Z</time>
      </trkpt>
      <trkpt lat="49.14518" lon="-0.21682">
        <ele>7.4</ele>
        <time>2023-10-11T14:32:55Z</time>
      </trkpt>
      <trkpt lat="49.14526" lon="-0.21687">
        <ele>7.3</ele>
        <time>2023-10-11T14:32:56Z</time>
      </trkpt>
      <trkpt lat="49.14535" lon="-0.21693">
        <ele>7.3</ele>
        <time>2023-10-11T14:32:57Z</time>
      </trkpt>
      <trkpt lat="49.14543" lon="-0.21698">
        <ele>7.3</ele>
        <time>2023-10-11T14:32:58Z</time>
      </trkpt>
      <trkpt lat="49.14552" lon="-0.21704">
        <ele>7.3</ele>
        <time>2023-10-11T14:32:59Z</time>
      </trkpt>
      <trkpt lat="49.1456" lon="-0.21709">
        <ele>7.3</ele>
        <time>2023-10-11T14:33:00Z</time>
      </trkpt>
      <trkpt lat="49.14568" lon="-0.21715">
        <ele>7.3</ele>
        <time>2023-10-11T14:33:01Z</time>
      </trkpt>
      <trkpt lat="49.14577" lon="-0.2172">
        <ele>7.3</ele>
        <time>2023-10-11T14:33:02Z</time>
      </trkpt>
      <trkpt lat="49.14585" lon="-0.21726">
        <ele>7.3</ele>
        <time>2023-10-11T14:33:03Z</time>
      </trkpt>
      <trkpt lat="49.14593" lon="-0.21731">
        <ele>7.4</ele>
        <time>2023-10-11T14:33:04Z</time>
      </trkpt>
      <trkpt lat="49.14602" lon="-0.21737">
        <ele>7.4</ele>
        <time>2023-10-11T14:33:05Z</time>
      </trkpt>
      <trkpt lat="49.1461" lon="-0.21742">
        <ele>7.4</ele>
        <time>2023-10-11T14:33:06Z</time>
      </trkpt>
      <trkpt lat="49.14618" lon="-0.21747">
        <ele>7.5</ele>
        <time>2023-10-11T14:33:07Z</time>
      </trkpt>
      <trkpt lat="49.14626" lon="-0.21752">
        <ele>7.5</ele>
        <time>2023-10-11T14:33:08Z</time>
      </trkpt>
      <trkpt lat="49.14635" lon="-0.21758">
        <ele>7.6</ele>
        <time>2023-10-11T14:33:09Z</time>
      </trkpt>
      <trkpt lat="49.14642" lon="-0.21763">
        <ele>7.7</ele>
        <time>2023-10-11T14:33:10Z</time>
      </trkpt>
      <trkpt lat="49.14651" lon="-0.21768">
        <ele>7.8</ele>
        <time>2023-10-11T14:33:11Z</time>
      </trkpt>
      <trkpt lat="49.14659" lon="-0.21774">
        <ele>7.9</ele>
        <time>2023-10-11T14:33:12Z</time>
      </trkpt>
      <trkpt lat="49.14667" lon="-0.21779">
        <ele>7.9</ele>
        <time>2023-10-11T14:33:13Z</time>
      </trkpt>
      <trkpt lat="49.14675" lon="-0.21785">
        <ele>8</ele>
        <time>2023-10-11T14:33:14Z</time>
      </trkpt>
      <trkpt lat="49.14683" lon="-0.2179">
        <ele>8.1</ele>
        <time>2023-10-11T14:33:15Z</time>
      </trkpt>
      <trkpt lat="49.14691" lon="-0.21796">
        <ele>8.2</ele>
        <time>2023-10-11T14:33:16Z</time>
      </trkpt>
      <trkpt lat="49.14699" lon="-0.21803">
        <ele>8.2</ele>
        <time>2023-10-11T14:33:17Z</time>
      </trkpt>
      <trkpt lat="49.14706" lon="-0.21811">
        <ele>8.3</ele>
        <time>2023-10-11T14:33:18Z</time>
      </trkpt>
      <trkpt lat="49.14713" lon="-0.2182">
        <ele>8.4</ele>
        <time>2023-10-11T14:33:19Z</time>
      </trkpt>
      <trkpt lat="49.14718" lon="-0.21831">
        <ele>8.5</ele>
        <time>2023-10-11T14:33:20Z</time>
      </trkpt>
      <trkpt lat="49.14723" lon="-0.21842">
        <ele>8.6</ele>
        <time>2023-10-11T14:33:21Z</time>
      </trkpt>
      <trkpt lat="49.14728" lon="-0.21853">
        <ele>8.7</ele>
        <time>2023-10-11T14:33:22Z</time>
      </trkpt>
      <trkpt lat="49.14733" lon="-0.21864">
        <ele>8.8</ele>
        <time>2023-10-11T14:33:23Z</time>
      </trkpt>
      <trkpt lat="49.14738" lon="-0.21874">
        <ele>8.9</ele>
        <time>2023-10-11T14:33:24Z</time>
      </trkpt>
      <trkpt lat="49.14743" lon="-0.21885">
        <ele>8.9</ele>
        <time>2023-10-11T14:33:25Z</time>
      </trkpt>
      <trkpt lat="49.14748" lon="-0.21895">
        <ele>8.9</ele>
        <time>2023-10-11T14:33:26Z</time>
      </trkpt>
      <trkpt lat="49.14753" lon="-0.21906">
        <ele>9</ele>
        <time>2023-10-11T14:33:27Z</time>
      </trkpt>
      <trkpt lat="49.14758" lon="-0.21916">
        <ele>9</ele>
        <time>2023-10-11T14:33:28Z</time>
      </trkpt>
      <trkpt lat="49.14763" lon="-0.21927">
        <ele>9</ele>
        <time>2023-10-11T14:33:29Z</time>
      </trkpt>
      <trkpt lat="49.14768" lon="-0.21937">
        <ele>9.1</ele>
        <time>2023-10-11T14:33:30Z</time>
      </trkpt>
      <trkpt lat="49.14773" lon="-0.21948">
        <ele>9.1</ele>
        <time>2023-10-11T14:33:31Z</time>
      </trkpt>
      <trkpt lat="49.14778" lon="-0.21959">
        <ele>9.2</ele>
        <time>2023-10-11T14:33:32Z</time>
      </trkpt>
      <trkpt lat="49.14783" lon="-0.2197">
        <ele>9.2</ele>
        <time>2023-10-11T14:33:33Z</time>
      </trkpt>
      <trkpt lat="49.14787" lon="-0.21981">
        <ele>9.3</ele>
        <time>2023-10-11T14:33:34Z</time>
      </trkpt>
      <trkpt lat="49.14792" lon="-0.21992">
        <ele>9.3</ele>
        <time>2023-10-11T14:33:35Z</time>
      </trkpt>
      <trkpt lat="49.14797" lon="-0.22002">
        <ele>9.4</ele>
        <time>2023-10-11T14:33:36Z</time>
      </trkpt>
      <trkpt lat="49.14801" lon="-0.22014">
        <ele>9.4</ele>
        <time>2023-10-11T14:33:37Z</time>
      </trkpt>
      <trkpt lat="49.14805" lon="-0.22026">
        <ele>9.4</ele>
        <time>2023-10-11T14:33:38Z</time>
      </trkpt>
      <trkpt lat="49.14809" lon="-0.22038">
        <ele>9.4</ele>
        <time>2023-10-11T14:33:39Z</time>
      </trkpt>
      <trkpt lat="49.14812" lon="-0.2205">
        <ele>9.4</ele>
        <time>2023-10-11T14:33:40Z</time>
      </trkpt>
      <trkpt lat="49.14816" lon="-0.22062">
        <ele>9.4</ele>
        <time>2023-10-11T14:33:41Z</time>
      </trkpt>
      <trkpt lat="49.14819" lon="-0.22074">
        <ele>9.3</ele>
        <time>2023-10-11T14:33:42Z</time>
      </trkpt>
      <trkpt lat="49.14823" lon="-0.22085">
        <ele>9.3</ele>
        <time>2023-10-11T14:33:43Z</time>
      </trkpt>
      <trkpt lat="49.14826" lon="-0.22097">
        <ele>9.2</ele>
        <time>2023-10-11T14:33:44Z</time>
      </trkpt>
      <trkpt lat="49.1483" lon="-0.22109">
        <ele>9.1</ele>
        <time>2023-10-11T14:33:45Z</time>
      </trkpt>
      <trkpt lat="49.14834" lon="-0.22121">
        <ele>9</ele>
        <time>2023-10-11T14:33:46Z</time>
      </trkpt>
      <trkpt lat="49.14838" lon="-0.22133">
        <ele>9</ele>
        <time>2023-10-11T14:33:47Z</time>
      </trkpt>
      <trkpt lat="49.14842" lon="-0.22145">
        <ele>8.9</ele>
        <time>2023-10-11T14:33:48Z</time>
      </trkpt>
      <trkpt lat="49.14846" lon="-0.22157">
        <ele>8.9</ele>
        <time>2023-10-11T14:33:49Z</time>
      </trkpt>
      <trkpt lat="49.1485" lon="-0.22168">
        <ele>8.9</ele>
        <time>2023-10-11T14:33:50Z</time>
      </trkpt>
      <trkpt lat="49.14854" lon="-0.22179">
        <ele>8.8</ele>
        <time>2023-10-11T14:33:51Z</time>
      </trkpt>
      <trkpt lat="49.14858" lon="-0.22191">
        <ele>8.8</ele>
        <time>2023-10-11T14:33:52Z</time>
      </trkpt>
      <trkpt lat="49.14862" lon="-0.22202">
        <ele>8.8</ele>
        <time>2023-10-11T14:33:53Z</time>
      </trkpt>
      <trkpt lat="49.14866" lon="-0.22214">
        <ele>8.8</ele>
        <time>2023-10-11T14:33:54Z</time>
      </trkpt>
      <trkpt lat="49.1487" lon="-0.22225">
        <ele>8.8</ele>
        <time>2023-10-11T14:33:55Z</time>
      </trkpt>
      <trkpt lat="49.14873" lon="-0.22237">
        <ele>8.8</ele>
        <time>2023-10-11T14:33:56Z</time>
      </trkpt>
      <trkpt lat="49.14876" lon="-0.22249">
        <ele>8.7</ele>
        <time>2023-10-11T14:33:57Z</time>
      </trkpt>
      <trkpt lat="49.14878" lon="-0.22261">
        <ele>8.6</ele>
        <time>2023-10-11T14:33:58Z</time>
      </trkpt>
      <trkpt lat="49.1488" lon="-0.22274">
        <ele>8.6</ele>
        <time>2023-10-11T14:33:59Z</time>
      </trkpt>
      <trkpt lat="49.14882" lon="-0.22286">
        <ele>8.6</ele>
        <time>2023-10-11T14:34:00Z</time>
      </trkpt>
      <trkpt lat="49.14885" lon="-0.22298">
        <ele>8.6</ele>
        <time>2023-10-11T14:34:01Z</time>
      </trkpt>
      <trkpt lat="49.14889" lon="-0.22309">
        <ele>8.6</ele>
        <time>2023-10-11T14:34:02Z</time>
      </trkpt>
      <trkpt lat="49.14893" lon="-0.22321">
        <ele>8.6</ele>
        <time>2023-10-11T14:34:03Z</time>
      </trkpt>
      <trkpt lat="49.14897" lon="-0.22331">
        <ele>8.6</ele>
        <time>2023-10-11T14:34:04Z</time>
      </trkpt>
      <trkpt lat="49.14902" lon="-0.22343">
        <ele>8.6</ele>
        <time>2023-10-11T14:34:05Z</time>
      </trkpt>
      <trkpt lat="49.14906" lon="-0.22354">
        <ele>8.6</ele>
        <time>2023-10-11T14:34:06Z</time>
      </trkpt>
      <trkpt lat="49.14911" lon="-0.22364">
        <ele>8.6</ele>
        <time>2023-10-11T14:34:07Z</time>
      </trkpt>
      <trkpt lat="49.14915" lon="-0.22375">
        <ele>8.7</ele>
        <time>2023-10-11T14:34:08Z</time>
      </trkpt>
      <trkpt lat="49.1492" lon="-0.22386">
        <ele>8.8</ele>
        <time>2023-10-11T14:34:09Z</time>
      </trkpt>
      <trkpt lat="49.14925" lon="-0.22396">
        <ele>8.8</ele>
        <time>2023-10-11T14:34:10Z</time>
      </trkpt>
      <trkpt lat="49.14929" lon="-0.22407">
        <ele>8.9</ele>
        <time>2023-10-11T14:34:11Z</time>
      </trkpt>
      <trkpt lat="49.14934" lon="-0.22417">
        <ele>8.9</ele>
        <time>2023-10-11T14:34:12Z</time>
      </trkpt>
      <trkpt lat="49.14938" lon="-0.22428">
        <ele>8.9</ele>
        <time>2023-10-11T14:34:13Z</time>
      </trkpt>
      <trkpt lat="49.14942" lon="-0.22439">
        <ele>8.9</ele>
        <time>2023-10-11T14:34:14Z</time>
      </trkpt>
      <trkpt lat="49.14945" lon="-0.22451">
        <ele>8.7</ele>
        <time>2023-10-11T14:34:15Z</time>
      </trkpt>
      <trkpt lat="49.14948" lon="-0.22462">
        <ele>8.7</ele>
        <time>2023-10-11T14:34:16Z</time>
      </trkpt>
      <trkpt lat="49.14951" lon="-0.22474">
        <ele>8.7</ele>
        <time>2023-10-11T14:34:17Z</time>
      </trkpt>
      <trkpt lat="49.14954" lon="-0.22486">
        <ele>8.7</ele>
        <time>2023-10-11T14:34:18Z</time>
      </trkpt>
      <trkpt lat="49.14957" lon="-0.22497">
        <ele>8.7</ele>
        <time>2023-10-11T14:34:19Z</time>
      </trkpt>
      <trkpt lat="49.1496" lon="-0.22509">
        <ele>8.7</ele>
        <time>2023-10-11T14:34:20Z</time>
      </trkpt>
      <trkpt lat="49.14963" lon="-0.2252">
        <ele>8.7</ele>
        <time>2023-10-11T14:34:21Z</time>
      </trkpt>
      <trkpt lat="49.14967" lon="-0.22531">
        <ele>8.8</ele>
        <time>2023-10-11T14:34:22Z</time>
      </trkpt>
      <trkpt lat="49.1497" lon="-0.22542">
        <ele>8.8</ele>
        <time>2023-10-11T14:34:23Z</time>
      </trkpt>
      <trkpt lat="49.14974" lon="-0.22553">
        <ele>8.9</ele>
        <time>2023-10-11T14:34:24Z</time>
      </trkpt>
      <trkpt lat="49.14978" lon="-0.22563">
        <ele>9</ele>
        <time>2023-10-11T14:34:25Z</time>
      </trkpt>
      <trkpt lat="49.14981" lon="-0.22573">
        <ele>9.1</ele>
        <time>2023-10-11T14:34:26Z</time>
      </trkpt>
      <trkpt lat="49.14985" lon="-0.22582">
        <ele>9.3</ele>
        <time>2023-10-11T14:34:27Z</time>
      </trkpt>
      <trkpt lat="49.14989" lon="-0.2259">
        <ele>9.4</ele>
        <time>2023-10-11T14:34:28Z</time>
      </trkpt>
      <trkpt lat="49.14994" lon="-0.22595">
        <ele>9.5</ele>
        <time>2023-10-11T14:34:29Z</time>
      </trkpt>
      <trkpt lat="49.15001" lon="-0.22596">
        <ele>9.5</ele>
        <time>2023-10-11T14:34:30Z</time>
      </trkpt>
      <trkpt lat="49.15007" lon="-0.22594">
        <ele>9.4</ele>
        <time>2023-10-11T14:34:31Z</time>
      </trkpt>
      <trkpt lat="49.15013" lon="-0.22588">
        <ele>9.4</ele>
        <time>2023-10-11T14:34:32Z</time>
      </trkpt>
      <trkpt lat="49.15019" lon="-0.22581">
        <ele>9.3</ele>
        <time>2023-10-11T14:34:33Z</time>
      </trkpt>
      <trkpt lat="49.15024" lon="-0.22575">
        <ele>9.3</ele>
        <time>2023-10-11T14:34:34Z</time>
      </trkpt>
      <trkpt lat="49.1503" lon="-0.22568">
        <ele>9.3</ele>
        <time>2023-10-11T14:34:35Z</time>
      </trkpt>
      <trkpt lat="49.15037" lon="-0.22563">
        <ele>9.3</ele>
        <time>2023-10-11T14:34:36Z</time>
      </trkpt>
      <trkpt lat="49.15044" lon="-0.22558">
        <ele>9.3</ele>
        <time>2023-10-11T14:34:37Z</time>
      </trkpt>
      <trkpt lat="49.15052" lon="-0.22556">
        <ele>9.3</ele>
        <time>2023-10-11T14:34:38Z</time>
      </trkpt>
      <trkpt lat="49.15059" lon="-0.22555">
        <ele>9.3</ele>
        <time>2023-10-11T14:34:39Z</time>
      </trkpt>
      <trkpt lat="49.15068" lon="-0.22556">
        <ele>9.2</ele>
        <time>2023-10-11T14:34:40Z</time>
      </trkpt>
      <trkpt lat="49.15075" lon="-0.22559">
        <ele>9.2</ele>
        <time>2023-10-11T14:34:41Z</time>
      </trkpt>
      <trkpt lat="49.15083" lon="-0.22562">
        <ele>9.1</ele>
        <time>2023-10-11T14:34:42Z</time>
      </trkpt>
      <trkpt lat="49.15091" lon="-0.22563">
        <ele>9.1</ele>
        <time>2023-10-11T14:34:43Z</time>
      </trkpt>
      <trkpt lat="49.15099" lon="-0.22562">
        <ele>9</ele>
        <time>2023-10-11T14:34:44Z</time>
      </trkpt>
      <trkpt lat="49.15107" lon="-0.2256">
        <ele>9</ele>
        <time>2023-10-11T14:34:45Z</time>
      </trkpt>
      <trkpt lat="49.15115" lon="-0.22557">
        <ele>8.9</ele>
        <time>2023-10-11T14:34:46Z</time>
      </trkpt>
      <trkpt lat="49.15123" lon="-0.22553">
        <ele>8.9</ele>
        <time>2023-10-11T14:34:47Z</time>
      </trkpt>
      <trkpt lat="49.15131" lon="-0.22548">
        <ele>8.9</ele>
        <time>2023-10-11T14:34:48Z</time>
      </trkpt>
      <trkpt lat="49.15139" lon="-0.22543">
        <ele>8.9</ele>
        <time>2023-10-11T14:34:49Z</time>
      </trkpt>
      <trkpt lat="49.15146" lon="-0.22537">
        <ele>8.8</ele>
        <time>2023-10-11T14:34:50Z</time>
      </trkpt>
      <trkpt lat="49.15154" lon="-0.22532">
        <ele>8.8</ele>
        <time>2023-10-11T14:34:51Z</time>
      </trkpt>
      <trkpt lat="49.15161" lon="-0.22526">
        <ele>8.8</ele>
        <time>2023-10-11T14:34:52Z</time>
      </trkpt>
      <trkpt lat="49.15168" lon="-0.22519">
        <ele>8.7</ele>
        <time>2023-10-11T14:34:53Z</time>
      </trkpt>
      <trkpt lat="49.15175" lon="-0.22513">
        <ele>8.7</ele>
        <time>2023-10-11T14:34:54Z</time>
      </trkpt>
      <trkpt lat="49.15182" lon="-0.22505">
        <ele>8.6</ele>
        <time>2023-10-11T14:34:55Z</time>
      </trkpt>
      <trkpt lat="49.15188" lon="-0.22496">
        <ele>8.6</ele>
        <time>2023-10-11T14:34:56Z</time>
      </trkpt>
      <trkpt lat="49.15194" lon="-0.22486">
        <ele>8.6</ele>
        <time>2023-10-11T14:34:57Z</time>
      </trkpt>
      <trkpt lat="49.15199" lon="-0.22475">
        <ele>8.5</ele>
        <time>2023-10-11T14:34:58Z</time>
      </trkpt>
      <trkpt lat="49.15204" lon="-0.22465">
        <ele>8.3</ele>
        <time>2023-10-11T14:34:59Z</time>
      </trkpt>
      <trkpt lat="49.1521" lon="-0.22454">
        <ele>8.1</ele>
        <time>2023-10-11T14:35:00Z</time>
      </trkpt>
      <trkpt lat="49.15216" lon="-0.22444">
        <ele>8</ele>
        <time>2023-10-11T14:35:01Z</time>
      </trkpt>
      <trkpt lat="49.15222" lon="-0.22434">
        <ele>7.9</ele>
        <time>2023-10-11T14:35:02Z</time>
      </trkpt>
      <trkpt lat="49.15228" lon="-0.22425">
        <ele>7.8</ele>
        <time>2023-10-11T14:35:03Z</time>
      </trkpt>
      <trkpt lat="49.15235" lon="-0.22415">
        <ele>7.7</ele>
        <time>2023-10-11T14:35:04Z</time>
      </trkpt>
      <trkpt lat="49.15242" lon="-0.22407">
        <ele>7.7</ele>
        <time>2023-10-11T14:35:05Z</time>
      </trkpt>
      <trkpt lat="49.15249" lon="-0.22398">
        <ele>7.7</ele>
        <time>2023-10-11T14:35:06Z</time>
      </trkpt>
      <trkpt lat="49.15257" lon="-0.2239">
        <ele>7.6</ele>
        <time>2023-10-11T14:35:07Z</time>
      </trkpt>
      <trkpt lat="49.15265" lon="-0.22382">
        <ele>7.7</ele>
        <time>2023-10-11T14:35:08Z</time>
      </trkpt>
      <trkpt lat="49.15272" lon="-0.22374">
        <ele>7.7</ele>
        <time>2023-10-11T14:35:09Z</time>
      </trkpt>
      <trkpt lat="49.15279" lon="-0.22366">
        <ele>7.8</ele>
        <time>2023-10-11T14:35:10Z</time>
      </trkpt>
      <trkpt lat="49.15285" lon="-0.22357">
        <ele>7.8</ele>
        <time>2023-10-11T14:35:11Z</time>
      </trkpt>
      <trkpt lat="49.1529" lon="-0.22346">
        <ele>7.8</ele>
        <time>2023-10-11T14:35:12Z</time>
      </trkpt>
      <trkpt lat="49.15294" lon="-0.22334">
        <ele>7.9</ele>
        <time>2023-10-11T14:35:13Z</time>
      </trkpt>
      <trkpt lat="49.15298" lon="-0.22321">
        <ele>7.9</ele>
        <time>2023-10-11T14:35:14Z</time>
      </trkpt>
      <trkpt lat="49.15301" lon="-0.22309">
        <ele>7.9</ele>
        <time>2023-10-11T14:35:15Z</time>
      </trkpt>
      <trkpt lat="49.15305" lon="-0.22298">
        <ele>7.9</ele>
        <time>2023-10-11T14:35:16Z</time>
      </trkpt>
      <trkpt lat="49.15309" lon="-0.22286">
        <ele>7.8</ele>
        <time>2023-10-11T14:35:17Z</time>
      </trkpt>
      <trkpt lat="49.15312" lon="-0.22275">
        <ele>7.8</ele>
        <time>2023-10-11T14:35:18Z</time>
      </trkpt>
      <trkpt lat="49.15316" lon="-0.22263">
        <ele>7.8</ele>
        <time>2023-10-11T14:35:19Z</time>
      </trkpt>
      <trkpt lat="49.15321" lon="-0.22252">
        <ele>7.7</ele>
        <time>2023-10-11T14:35:20Z</time>
      </trkpt>
      <trkpt lat="49.15327" lon="-0.22241">
        <ele>7.7</ele>
        <time>2023-10-11T14:35:21Z</time>
      </trkpt>
      <trkpt lat="49.15332" lon="-0.22231">
        <ele>7.7</ele>
        <time>2023-10-11T14:35:22Z</time>
      </trkpt>
      <trkpt lat="49.15338" lon="-0.22222">
        <ele>7.6</ele>
        <time>2023-10-11T14:35:23Z</time>
      </trkpt>
      <trkpt lat="49.15344" lon="-0.22213">
        <ele>7.5</ele>
        <time>2023-10-11T14:35:24Z</time>
      </trkpt>
      <trkpt lat="49.1535" lon="-0.22204">
        <ele>7.4</ele>
        <time>2023-10-11T14:35:25Z</time>
      </trkpt>
      <trkpt lat="49.15356" lon="-0.22194">
        <ele>7.3</ele>
        <time>2023-10-11T14:35:26Z</time>
      </trkpt>
      <trkpt lat="49.15362" lon="-0.22184">
        <ele>7.3</ele>
        <time>2023-10-11T14:35:27Z</time>
      </trkpt>
      <trkpt lat="49.15368" lon="-0.22175">
        <ele>7.3</ele>
        <time>2023-10-11T14:35:28Z</time>
      </trkpt>
      <trkpt lat="49.15374" lon="-0.22166">
        <ele>7.3</ele>
        <time>2023-10-11T14:35:29Z</time>
      </trkpt>
      <trkpt lat="49.15381" lon="-0.22157">
        <ele>7.3</ele>
        <time>2023-10-11T14:35:30Z</time>
      </trkpt>
      <trkpt lat="49.15387" lon="-0.22149">
        <ele>7.3</ele>
        <time>2023-10-11T14:35:31Z</time>
      </trkpt>
      <trkpt lat="49.15395" lon="-0.22141">
        <ele>7.3</ele>
        <time>2023-10-11T14:35:32Z</time>
      </trkpt>
      <trkpt lat="49.15403" lon="-0.22136">
        <ele>7.2</ele>
        <time>2023-10-11T14:35:33Z</time>
      </trkpt>
      <trkpt lat="49.15412" lon="-0.22133">
        <ele>7.2</ele>
        <time>2023-10-11T14:35:34Z</time>
      </trkpt>
      <trkpt lat="49.15421" lon="-0.22132">
        <ele>7.2</ele>
        <time>2023-10-11T14:35:35Z</time>
      </trkpt>
      <trkpt lat="49.1543" lon="-0.22132">
        <ele>7.2</ele>
        <time>2023-10-11T14:35:36Z</time>
      </trkpt>
      <trkpt lat="49.15439" lon="-0.22132">
        <ele>7.2</ele>
        <time>2023-10-11T14:35:37Z</time>
      </trkpt>
      <trkpt lat="49.15448" lon="-0.22132">
        <ele>7.2</ele>
        <time>2023-10-11T14:35:38Z</time>
      </trkpt>
      <trkpt lat="49.15458" lon="-0.22132">
        <ele>7.1</ele>
        <time>2023-10-11T14:35:39Z</time>
      </trkpt>
      <trkpt lat="49.15467" lon="-0.22133">
        <ele>7.1</ele>
        <time>2023-10-11T14:35:40Z</time>
      </trkpt>
      <trkpt lat="49.15477" lon="-0.22134">
        <ele>7.1</ele>
        <time>2023-10-11T14:35:41Z</time>
      </trkpt>
      <trkpt lat="49.15486" lon="-0.22135">
        <ele>7.1</ele>
        <time>2023-10-11T14:35:42Z</time>
      </trkpt>
      <trkpt lat="49.15495" lon="-0.22135">
        <ele>7.1</ele>
        <time>2023-10-11T14:35:43Z</time>
      </trkpt>
      <trkpt lat="49.15504" lon="-0.22136">
        <ele>7.2</ele>
        <time>2023-10-11T14:35:44Z</time>
      </trkpt>
      <trkpt lat="49.15513" lon="-0.22136">
        <ele>7.2</ele>
        <time>2023-10-11T14:35:45Z</time>
      </trkpt>
      <trkpt lat="49.15522" lon="-0.22136">
        <ele>7.2</ele>
        <time>2023-10-11T14:35:46Z</time>
      </trkpt>
      <trkpt lat="49.15531" lon="-0.22138">
        <ele>7.2</ele>
        <time>2023-10-11T14:35:47Z</time>
      </trkpt>
      <trkpt lat="49.15541" lon="-0.22138">
        <ele>7.2</ele>
        <time>2023-10-11T14:35:48Z</time>
      </trkpt>
      <trkpt lat="49.1555" lon="-0.22138">
        <ele>7.2</ele>
        <time>2023-10-11T14:35:49Z</time>
      </trkpt>
      <trkpt lat="49.15559" lon="-0.22139">
        <ele>7.2</ele>
        <time>2023-10-11T14:35:50Z</time>
      </trkpt>
      <trkpt lat="49.15568" lon="-0.2214">
        <ele>7.2</ele>
        <time>2023-10-11T14:35:51Z</time>
      </trkpt>
      <trkpt lat="49.15577" lon="-0.22142">
        <ele>7.3</ele>
        <time>2023-10-11T14:35:52Z</time>
      </trkpt>
      <trkpt lat="49.15586" lon="-0.22144">
        <ele>7.3</ele>
        <time>2023-10-11T14:35:53Z</time>
      </trkpt>
      <trkpt lat="49.15595" lon="-0.22146">
        <ele>7.3</ele>
        <time>2023-10-11T14:35:54Z</time>
      </trkpt>
      <trkpt lat="49.15604" lon="-0.22148">
        <ele>7.3</ele>
        <time>2023-10-11T14:35:55Z</time>
      </trkpt>
      <trkpt lat="49.15614" lon="-0.22151">
        <ele>7.4</ele>
        <time>2023-10-11T14:35:56Z</time>
      </trkpt>
      <trkpt lat="49.15623" lon="-0.22153">
        <ele>7.4</ele>
        <time>2023-10-11T14:35:57Z</time>
      </trkpt>
      <trkpt lat="49.15632" lon="-0.22154">
        <ele>7.5</ele>
        <time>2023-10-11T14:35:58Z</time>
      </trkpt>
      <trkpt lat="49.15641" lon="-0.22156">
        <ele>7.6</ele>
        <time>2023-10-11T14:35:59Z</time>
      </trkpt>
      <trkpt lat="49.1565" lon="-0.22158">
        <ele>7.6</ele>
        <time>2023-10-11T14:36:00Z</time>
      </trkpt>
      <trkpt lat="49.15659" lon="-0.22159">
        <ele>7.7</ele>
        <time>2023-10-11T14:36:01Z</time>
      </trkpt>
      <trkpt lat="49.15667" lon="-0.22162">
        <ele>7.8</ele>
        <time>2023-10-11T14:36:02Z</time>
      </trkpt>
      <trkpt lat="49.15676" lon="-0.22164">
        <ele>7.9</ele>
        <time>2023-10-11T14:36:03Z</time>
      </trkpt>
      <trkpt lat="49.15685" lon="-0.22166">
        <ele>8</ele>
        <time>2023-10-11T14:36:04Z</time>
      </trkpt>
      <trkpt lat="49.15694" lon="-0.22167">
        <ele>8.1</ele>
        <time>2023-10-11T14:36:05Z</time>
      </trkpt>
      <trkpt lat="49.15702" lon="-0.22169">
        <ele>8.2</ele>
        <time>2023-10-11T14:36:06Z</time>
      </trkpt>
      <trkpt lat="49.15711" lon="-0.22169">
        <ele>8.3</ele>
        <time>2023-10-11T14:36:07Z</time>
      </trkpt>
      <trkpt lat="49.15719" lon="-0.22169">
        <ele>8.5</ele>
        <time>2023-10-11T14:36:08Z</time>
      </trkpt>
      <trkpt lat="49.15728" lon="-0.22169">
        <ele>8.6</ele>
        <time>2023-10-11T14:36:09Z</time>
      </trkpt>
      <trkpt lat="49.15736" lon="-0.22168">
        <ele>8.7</ele>
        <time>2023-10-11T14:36:10Z</time>
      </trkpt>
      <trkpt lat="49.15744" lon="-0.22166">
        <ele>8.9</ele>
        <time>2023-10-11T14:36:11Z</time>
      </trkpt>
      <trkpt lat="49.15752" lon="-0.22164">
        <ele>9</ele>
        <time>2023-10-11T14:36:12Z</time>
      </trkpt>
      <trkpt lat="49.1576" lon="-0.22162">
        <ele>9.1</ele>
        <time>2023-10-11T14:36:13Z</time>
      </trkpt>
      <trkpt lat="49.15767" lon="-0.2216">
        <ele>9.3</ele>
        <time>2023-10-11T14:36:14Z</time>
      </trkpt>
      <trkpt lat="49.15775" lon="-0.22158">
        <ele>9.4</ele>
        <time>2023-10-11T14:36:15Z</time>
      </trkpt>
      <trkpt lat="49.15782" lon="-0.22156">
        <ele>9.6</ele>
        <time>2023-10-11T14:36:16Z</time>
      </trkpt>
      <trkpt lat="49.1579" lon="-0.22153">
        <ele>9.7</ele>
        <time>2023-10-11T14:36:17Z</time>
      </trkpt>
      <trkpt lat="49.15798" lon="-0.22151">
        <ele>9.8</ele>
        <time>2023-10-11T14:36:18Z</time>
      </trkpt>
      <trkpt lat="49.15806" lon="-0.22148">
        <ele>9.9</ele>
        <time>2023-10-11T14:36:19Z</time>
      </trkpt>
      <trkpt lat="49.15814" lon="-0.22146">
        <ele>10</ele>
        <time>2023-10-11T14:36:20Z</time>
      </trkpt>
      <trkpt lat="49.15822" lon="-0.22145">
        <ele>10.1</ele>
        <time>2023-10-11T14:36:21Z</time>
      </trkpt>
      <trkpt lat="49.15829" lon="-0.22143">
        <ele>10.2</ele>
        <time>2023-10-11T14:36:22Z</time>
      </trkpt>
      <trkpt lat="49.15838" lon="-0.22141">
        <ele>10.2</ele>
        <time>2023-10-11T14:36:23Z</time>
      </trkpt>
      <trkpt lat="49.15846" lon="-0.22138">
        <ele>10.3</ele>
        <time>2023-10-11T14:36:24Z</time>
      </trkpt>
      <trkpt lat="49.15854" lon="-0.22135">
        <ele>10.3</ele>
        <time>2023-10-11T14:36:25Z</time>
      </trkpt>
      <trkpt lat="49.15862" lon="-0.22132">
        <ele>10.2</ele>
        <time>2023-10-11T14:36:26Z</time>
      </trkpt>
      <trkpt lat="49.1587" lon="-0.22129">
        <ele>10.2</ele>
        <time>2023-10-11T14:36:27Z</time>
      </trkpt>
      <trkpt lat="49.15879" lon="-0.22125">
        <ele>10.1</ele>
        <time>2023-10-11T14:36:28Z</time>
      </trkpt>
      <trkpt lat="49.15888" lon="-0.22123">
        <ele>10.1</ele>
        <time>2023-10-11T14:36:29Z</time>
      </trkpt>
      <trkpt lat="49.15897" lon="-0.2212">
        <ele>10.1</ele>
        <time>2023-10-11T14:36:30Z</time>
      </trkpt>
      <trkpt lat="49.15905" lon="-0.22117">
        <ele>10</ele>
        <time>2023-10-11T14:36:31Z</time>
      </trkpt>
      <trkpt lat="49.15914" lon="-0.22114">
        <ele>9.9</ele>
        <time>2023-10-11T14:36:32Z</time>
      </trkpt>
      <trkpt lat="49.15923" lon="-0.22111">
        <ele>9.9</ele>
        <time>2023-10-11T14:36:33Z</time>
      </trkpt>
      <trkpt lat="49.15932" lon="-0.22108">
        <ele>9.8</ele>
        <time>2023-10-11T14:36:34Z</time>
      </trkpt>
      <trkpt lat="49.15941" lon="-0.22103">
        <ele>9.7</ele>
        <time>2023-10-11T14:36:35Z</time>
      </trkpt>
      <trkpt lat="49.1595" lon="-0.22097">
        <ele>9.6</ele>
        <time>2023-10-11T14:36:36Z</time>
      </trkpt>
      <trkpt lat="49.15959" lon="-0.22091">
        <ele>9.5</ele>
        <time>2023-10-11T14:36:37Z</time>
      </trkpt>
      <trkpt lat="49.15968" lon="-0.22084">
        <ele>9.4</ele>
        <time>2023-10-11T14:36:38Z</time>
      </trkpt>
      <trkpt lat="49.15977" lon="-0.22077">
        <ele>9.3</ele>
        <time>2023-10-11T14:36:39Z</time>
      </trkpt>
      <trkpt lat="49.15985" lon="-0.2207">
        <ele>9.1</ele>
        <time>2023-10-11T14:36:40Z</time>
      </trkpt>
      <trkpt lat="49.15994" lon="-0.22063">
        <ele>9</ele>
        <time>2023-10-11T14:36:41Z</time>
      </trkpt>
      <trkpt lat="49.16003" lon="-0.22057">
        <ele>8.8</ele>
        <time>2023-10-11T14:36:42Z</time>
      </trkpt>
      <trkpt lat="49.16011" lon="-0.2205">
        <ele>8.7</ele>
        <time>2023-10-11T14:36:43Z</time>
      </trkpt>
      <trkpt lat="49.1602" lon="-0.22043">
        <ele>8.6</ele>
        <time>2023-10-11T14:36:44Z</time>
      </trkpt>
      <trkpt lat="49.16029" lon="-0.22036">
        <ele>8.5</ele>
        <time>2023-10-11T14:36:45Z</time>
      </trkpt>
      <trkpt lat="49.16038" lon="-0.22029">
        <ele>8.4</ele>
        <time>2023-10-11T14:36:46Z</time>
      </trkpt>
      <trkpt lat="49.16046" lon="-0.22022">
        <ele>8.2</ele>
        <time>2023-10-11T14:36:47Z</time>
      </trkpt>
      <trkpt lat="49.16056" lon="-0.22015">
        <ele>8.1</ele>
        <time>2023-10-11T14:36:48Z</time>
      </trkpt>
      <trkpt lat="49.16065" lon="-0.22009">
        <ele>8</ele>
        <time>2023-10-11T14:36:49Z</time>
      </trkpt>
      <trkpt lat="49.16074" lon="-0.22003">
        <ele>7.9</ele>
        <time>2023-10-11T14:36:50Z</time>
      </trkpt>
      <trkpt lat="49.16082" lon="-0.21997">
        <ele>7.9</ele>
        <time>2023-10-11T14:36:51Z</time>
      </trkpt>
      <trkpt lat="49.16091" lon="-0.21991">
        <ele>7.9</ele>
        <time>2023-10-11T14:36:52Z</time>
      </trkpt>
      <trkpt lat="49.161" lon="-0.21985">
        <ele>7.9</ele>
        <time>2023-10-11T14:36:53Z</time>
      </trkpt>
      <trkpt lat="49.16109" lon="-0.2198">
        <ele>7.9</ele>
        <time>2023-10-11T14:36:54Z</time>
      </trkpt>
      <trkpt lat="49.16117" lon="-0.21975">
        <ele>7.9</ele>
        <time>2023-10-11T14:36:55Z</time>
      </trkpt>
      <trkpt lat="49.16126" lon="-0.2197">
        <ele>7.8</ele>
        <time>2023-10-11T14:36:56Z</time>
      </trkpt>
      <trkpt lat="49.16135" lon="-0.21964">
        <ele>7.8</ele>
        <time>2023-10-11T14:36:57Z</time>
      </trkpt>
      <trkpt lat="49.16143" lon="-0.21956">
        <ele>7.8</ele>
        <time>2023-10-11T14:36:58Z</time>
      </trkpt>
      <trkpt lat="49.1615" lon="-0.21946">
        <ele>7.8</ele>
        <time>2023-10-11T14:36:59Z</time>
      </trkpt>
      <trkpt lat="49.16155" lon="-0.21934">
        <ele>7.8</ele>
        <time>2023-10-11T14:37:00Z</time>
      </trkpt>
      <trkpt lat="49.16159" lon="-0.21921">
        <ele>7.8</ele>
        <time>2023-10-11T14:37:01Z</time>
      </trkpt>
      <trkpt lat="49.1616" lon="-0.21908">
        <ele>7.9</ele>
        <time>2023-10-11T14:37:02Z</time>
      </trkpt>
      <trkpt lat="49.16162" lon="-0.21895">
        <ele>7.9</ele>
        <time>2023-10-11T14:37:03Z</time>
      </trkpt>
      <trkpt lat="49.16163" lon="-0.21882">
        <ele>8</ele>
        <time>2023-10-11T14:37:04Z</time>
      </trkpt>
      <trkpt lat="49.16164" lon="-0.21869">
        <ele>8</ele>
        <time>2023-10-11T14:37:05Z</time>
      </trkpt>
      <trkpt lat="49.16164" lon="-0.21857">
        <ele>8.1</ele>
        <time>2023-10-11T14:37:06Z</time>
      </trkpt>
      <trkpt lat="49.16165" lon="-0.21846">
        <ele>8.2</ele>
        <time>2023-10-11T14:37:07Z</time>
      </trkpt>
      <trkpt lat="49.16166" lon="-0.21836">
        <ele>8.3</ele>
        <time>2023-10-11T14:37:08Z</time>
      </trkpt>
      <trkpt lat="49.16169" lon="-0.21826">
        <ele>8.5</ele>
        <time>2023-10-11T14:37:09Z</time>
      </trkpt>
      <trkpt lat="49.16174" lon="-0.2182">
        <ele>8.6</ele>
        <time>2023-10-11T14:37:10Z</time>
      </trkpt>
      <trkpt lat="49.1618" lon="-0.21817">
        <ele>8.6</ele>
        <time>2023-10-11T14:37:11Z</time>
      </trkpt>
      <trkpt lat="49.16186" lon="-0.21817">
        <ele>8.6</ele>
        <time>2023-10-11T14:37:12Z</time>
      </trkpt>
      <trkpt lat="49.16193" lon="-0.21818">
        <ele>8.6</ele>
        <time>2023-10-11T14:37:13Z</time>
      </trkpt>
      <trkpt lat="49.162" lon="-0.21819">
        <ele>8.6</ele>
        <time>2023-10-11T14:37:14Z</time>
      </trkpt>
      <trkpt lat="49.16206" lon="-0.2182">
        <ele>8.7</ele>
        <time>2023-10-11T14:37:15Z</time>
      </trkpt>
      <trkpt lat="49.16212" lon="-0.21821">
        <ele>8.7</ele>
        <time>2023-10-11T14:37:16Z</time>
      </trkpt>
      <trkpt lat="49.16218" lon="-0.21822">
        <ele>8.8</ele>
        <time>2023-10-11T14:37:17Z</time>
      </trkpt>
      <trkpt lat="49.16224" lon="-0.21823">
        <ele>8.9</ele>
        <time>2023-10-11T14:37:18Z</time>
      </trkpt>
      <trkpt lat="49.16231" lon="-0.21824">
        <ele>9.1</ele>
        <time>2023-10-11T14:37:19Z</time>
      </trkpt>
      <trkpt lat="49.16238" lon="-0.21825">
        <ele>9.2</ele>
        <time>2023-10-11T14:37:20Z</time>
      </trkpt>
      <trkpt lat="49.16245" lon="-0.21826">
        <ele>9.4</ele>
        <time>2023-10-11T14:37:21Z</time>
      </trkpt>
      <trkpt lat="49.16251" lon="-0.21827">
        <ele>9.5</ele>
        <time>2023-10-11T14:37:22Z</time>
      </trkpt>
      <trkpt lat="49.16259" lon="-0.21828">
        <ele>9.7</ele>
        <time>2023-10-11T14:37:23Z</time>
      </trkpt>
      <trkpt lat="49.16266" lon="-0.21829">
        <ele>9.8</ele>
        <time>2023-10-11T14:37:24Z</time>
      </trkpt>
      <trkpt lat="49.16273" lon="-0.2183">
        <ele>10</ele>
        <time>2023-10-11T14:37:25Z</time>
      </trkpt>
      <trkpt lat="49.16281" lon="-0.21832">
        <ele>10.1</ele>
        <time>2023-10-11T14:37:26Z</time>
      </trkpt>
      <trkpt lat="49.16288" lon="-0.21833">
        <ele>10.2</ele>
        <time>2023-10-11T14:37:27Z</time>
      </trkpt>
      <trkpt lat="49.16295" lon="-0.21835">
        <ele>10.3</ele>
        <time>2023-10-11T14:37:28Z</time>
      </trkpt>
      <trkpt lat="49.16302" lon="-0.21836">
        <ele>10.5</ele>
        <time>2023-10-11T14:37:29Z</time>
      </trkpt>
      <trkpt lat="49.16309" lon="-0.21837">
        <ele>10.6</ele>
        <time>2023-10-11T14:37:30Z</time>
      </trkpt>
      <trkpt lat="49.16316" lon="-0.21838">
        <ele>10.6</ele>
        <time>2023-10-11T14:37:31Z</time>
      </trkpt>
      <trkpt lat="49.16324" lon="-0.2184">
        <ele>10.7</ele>
        <time>2023-10-11T14:37:32Z</time>
      </trkpt>
      <trkpt lat="49.16331" lon="-0.21841">
        <ele>10.7</ele>
        <time>2023-10-11T14:37:33Z</time>
      </trkpt>
      <trkpt lat="49.16339" lon="-0.21842">
        <ele>10.7</ele>
        <time>2023-10-11T14:37:34Z</time>
      </trkpt>
      <trkpt lat="49.16347" lon="-0.21842">
        <ele>10.7</ele>
        <time>2023-10-11T14:37:35Z</time>
      </trkpt>
      <trkpt lat="49.16355" lon="-0.21843">
        <ele>10.7</ele>
        <time>2023-10-11T14:37:36Z</time>
      </trkpt>
      <trkpt lat="49.16363" lon="-0.21845">
        <ele>10.6</ele>
        <time>2023-10-11T14:37:37Z</time>
      </trkpt>
      <trkpt lat="49.16371" lon="-0.21847">
        <ele>10.6</ele>
        <time>2023-10-11T14:37:38Z</time>
      </trkpt>
      <trkpt lat="49.16379" lon="-0.21849">
        <ele>10.6</ele>
        <time>2023-10-11T14:37:39Z</time>
      </trkpt>
      <trkpt lat="49.16387" lon="-0.21849">
        <ele>10.6</ele>
        <time>2023-10-11T14:37:40Z</time>
      </trkpt>
      <trkpt lat="49.16396" lon="-0.2185">
        <ele>10.6</ele>
        <time>2023-10-11T14:37:41Z</time>
      </trkpt>
      <trkpt lat="49.16404" lon="-0.21851">
        <ele>10.6</ele>
        <time>2023-10-11T14:37:42Z</time>
      </trkpt>
      <trkpt lat="49.16413" lon="-0.21852">
        <ele>10.6</ele>
        <time>2023-10-11T14:37:43Z</time>
      </trkpt>
      <trkpt lat="49.16422" lon="-0.21853">
        <ele>10.6</ele>
        <time>2023-10-11T14:37:44Z</time>
      </trkpt>
      <trkpt lat="49.1643" lon="-0.21855">
        <ele>10.6</ele>
        <time>2023-10-11T14:37:45Z</time>
      </trkpt>
      <trkpt lat="49.16439" lon="-0.21856">
        <ele>10.5</ele>
        <time>2023-10-11T14:37:46Z</time>
      </trkpt>
      <trkpt lat="49.16448" lon="-0.21856">
        <ele>10.4</ele>
        <time>2023-10-11T14:37:47Z</time>
      </trkpt>
      <trkpt lat="49.16457" lon="-0.21858">
        <ele>10.4</ele>
        <time>2023-10-11T14:37:48Z</time>
      </trkpt>
      <trkpt lat="49.16466" lon="-0.21859">
        <ele>10.4</ele>
        <time>2023-10-11T14:37:49Z</time>
      </trkpt>
      <trkpt lat="49.16474" lon="-0.21861">
        <ele>10.4</ele>
        <time>2023-10-11T14:37:50Z</time>
      </trkpt>
      <trkpt lat="49.16483" lon="-0.21863">
        <ele>10.4</ele>
        <time>2023-10-11T14:37:51Z</time>
      </trkpt>
      <trkpt lat="49.16492" lon="-0.21864">
        <ele>10.3</ele>
        <time>2023-10-11T14:37:52Z</time>
      </trkpt>
      <trkpt lat="49.165" lon="-0.21866">
        <ele>10.4</ele>
        <time>2023-10-11T14:37:53Z</time>
      </trkpt>
      <trkpt lat="49.16509" lon="-0.21867">
        <ele>10.4</ele>
        <time>2023-10-11T14:37:54Z</time>
      </trkpt>
      <trkpt lat="49.16518" lon="-0.21868">
        <ele>10.4</ele>
        <time>2023-10-11T14:37:55Z</time>
      </trkpt>
      <trkpt lat="49.16527" lon="-0.2187">
        <ele>10.5</ele>
        <time>2023-10-11T14:37:56Z</time>
      </trkpt>
      <trkpt lat="49.16536" lon="-0.21871">
        <ele>10.6</ele>
        <time>2023-10-11T14:37:57Z</time>
      </trkpt>
      <trkpt lat="49.16544" lon="-0.21873">
        <ele>10.6</ele>
        <time>2023-10-11T14:37:58Z</time>
      </trkpt>
      <trkpt lat="49.16553" lon="-0.21874">
        <ele>10.7</ele>
        <time>2023-10-11T14:37:59Z</time>
      </trkpt>
      <trkpt lat="49.16562" lon="-0.21876">
        <ele>10.8</ele>
        <time>2023-10-11T14:38:00Z</time>
      </trkpt>
      <trkpt lat="49.1657" lon="-0.21877">
        <ele>10.9</ele>
        <time>2023-10-11T14:38:01Z</time>
      </trkpt>
      <trkpt lat="49.16578" lon="-0.21878">
        <ele>11</ele>
        <time>2023-10-11T14:38:02Z</time>
      </trkpt>
      <trkpt lat="49.16586" lon="-0.21879">
        <ele>11.1</ele>
        <time>2023-10-11T14:38:03Z</time>
      </trkpt>
      <trkpt lat="49.16594" lon="-0.2188">
        <ele>11.3</ele>
        <time>2023-10-11T14:38:04Z</time>
      </trkpt>
      <trkpt lat="49.16603" lon="-0.21881">
        <ele>11.4</ele>
        <time>2023-10-11T14:38:05Z</time>
      </trkpt>
      <trkpt lat="49.1661" lon="-0.21883">
        <ele>11.6</ele>
        <time>2023-10-11T14:38:06Z</time>
      </trkpt>
      <trkpt lat="49.16619" lon="-0.21886">
        <ele>11.8</ele>
        <time>2023-10-11T14:38:07Z</time>
      </trkpt>
      <trkpt lat="49.16627" lon="-0.21887">
        <ele>11.9</ele>
        <time>2023-10-11T14:38:08Z</time>
      </trkpt>
      <trkpt lat="49.16635" lon="-0.21888">
        <ele>12.1</ele>
        <time>2023-10-11T14:38:09Z</time>
      </trkpt>
      <trkpt lat="49.16644" lon="-0.2189">
        <ele>12.2</ele>
        <time>2023-10-11T14:38:10Z</time>
      </trkpt>
      <trkpt lat="49.16652" lon="-0.21892">
        <ele>12.3</ele>
        <time>2023-10-11T14:38:11Z</time>
      </trkpt>
      <trkpt lat="49.16661" lon="-0.21893">
        <ele>12.4</ele>
        <time>2023-10-11T14:38:12Z</time>
      </trkpt>
      <trkpt lat="49.16669" lon="-0.21894">
        <ele>12.6</ele>
        <time>2023-10-11T14:38:13Z</time>
      </trkpt>
      <trkpt lat="49.16677" lon="-0.21896">
        <ele>12.8</ele>
        <time>2023-10-11T14:38:14Z</time>
      </trkpt>
      <trkpt lat="49.16685" lon="-0.21897">
        <ele>12.9</ele>
        <time>2023-10-11T14:38:15Z</time>
      </trkpt>
      <trkpt lat="49.16693" lon="-0.21898">
        <ele>13.1</ele>
        <time>2023-10-11T14:38:16Z</time>
      </trkpt>
      <trkpt lat="49.16701" lon="-0.219">
        <ele>13.2</ele>
        <time>2023-10-11T14:38:17Z</time>
      </trkpt>
      <trkpt lat="49.1671" lon="-0.21902">
        <ele>13.3</ele>
        <time>2023-10-11T14:38:18Z</time>
      </trkpt>
      <trkpt lat="49.16718" lon="-0.21904">
        <ele>13.4</ele>
        <time>2023-10-11T14:38:19Z</time>
      </trkpt>
      <trkpt lat="49.16726" lon="-0.21907">
        <ele>13.5</ele>
        <time>2023-10-11T14:38:20Z</time>
      </trkpt>
      <trkpt lat="49.16734" lon="-0.21911">
        <ele>13.7</ele>
        <time>2023-10-11T14:38:21Z</time>
      </trkpt>
      <trkpt lat="49.16742" lon="-0.21916">
        <ele>13.8</ele>
        <time>2023-10-11T14:38:22Z</time>
      </trkpt>
      <trkpt lat="49.1675" lon="-0.21923">
        <ele>13.9</ele>
        <time>2023-10-11T14:38:23Z</time>
      </trkpt>
      <trkpt lat="49.16757" lon="-0.21929">
        <ele>14</ele>
        <time>2023-10-11T14:38:24Z</time>
      </trkpt>
      <trkpt lat="49.16764" lon="-0.21936">
        <ele>14.2</ele>
        <time>2023-10-11T14:38:25Z</time>
      </trkpt>
      <trkpt lat="49.16771" lon="-0.21944">
        <ele>14.4</ele>
        <time>2023-10-11T14:38:26Z</time>
      </trkpt>
      <trkpt lat="49.16778" lon="-0.21951">
        <ele>14.6</ele>
        <time>2023-10-11T14:38:27Z</time>
      </trkpt>
      <trkpt lat="49.16785" lon="-0.21957">
        <ele>14.9</ele>
        <time>2023-10-11T14:38:28Z</time>
      </trkpt>
      <trkpt lat="49.16792" lon="-0.21963">
        <ele>15</ele>
        <time>2023-10-11T14:38:29Z</time>
      </trkpt>
      <trkpt lat="49.16799" lon="-0.21968">
        <ele>15.2</ele>
        <time>2023-10-11T14:38:30Z</time>
      </trkpt>
      <trkpt lat="49.16807" lon="-0.21972">
        <ele>15.5</ele>
        <time>2023-10-11T14:38:31Z</time>
      </trkpt>
      <trkpt lat="49.16814" lon="-0.21976">
        <ele>15.7</ele>
        <time>2023-10-11T14:38:32Z</time>
      </trkpt>
      <trkpt lat="49.16822" lon="-0.2198">
        <ele>16.1</ele>
        <time>2023-10-11T14:38:33Z</time>
      </trkpt>
      <trkpt lat="49.16829" lon="-0.21983">
        <ele>16.3</ele>
        <time>2023-10-11T14:38:34Z</time>
      </trkpt>
      <trkpt lat="49.16836" lon="-0.21987">
        <ele>16.6</ele>
        <time>2023-10-11T14:38:35Z</time>
      </trkpt>
      <trkpt lat="49.16843" lon="-0.21991">
        <ele>17</ele>
        <time>2023-10-11T14:38:36Z</time>
      </trkpt>
      <trkpt lat="49.1685" lon="-0.21994">
        <ele>17.3</ele>
        <time>2023-10-11T14:38:37Z</time>
      </trkpt>
      <trkpt lat="49.16857" lon="-0.21998">
        <ele>17.6</ele>
        <time>2023-10-11T14:38:38Z</time>
      </trkpt>
      <trkpt lat="49.16864" lon="-0.22001">
        <ele>17.8</ele>
        <time>2023-10-11T14:38:39Z</time>
      </trkpt>
      <trkpt lat="49.16871" lon="-0.22004">
        <ele>18.1</ele>
        <time>2023-10-11T14:38:40Z</time>
      </trkpt>
      <trkpt lat="49.16878" lon="-0.22008">
        <ele>18.3</ele>
        <time>2023-10-11T14:38:41Z</time>
      </trkpt>
      <trkpt lat="49.16886" lon="-0.22011">
        <ele>18.5</ele>
        <time>2023-10-11T14:38:42Z</time>
      </trkpt>
      <trkpt lat="49.16893" lon="-0.22014">
        <ele>18.7</ele>
        <time>2023-10-11T14:38:43Z</time>
      </trkpt>
      <trkpt lat="49.16901" lon="-0.22018">
        <ele>18.8</ele>
        <time>2023-10-11T14:38:44Z</time>
      </trkpt>
      <trkpt lat="49.16908" lon="-0.22021">
        <ele>18.9</ele>
        <time>2023-10-11T14:38:45Z</time>
      </trkpt>
      <trkpt lat="49.16916" lon="-0.22025">
        <ele>18.9</ele>
        <time>2023-10-11T14:38:46Z</time>
      </trkpt>
      <trkpt lat="49.16923" lon="-0.22028">
        <ele>18.9</ele>
        <time>2023-10-11T14:38:47Z</time>
      </trkpt>
      <trkpt lat="49.16931" lon="-0.22032">
        <ele>18.8</ele>
        <time>2023-10-11T14:38:48Z</time>
      </trkpt>
      <trkpt lat="49.16939" lon="-0.22036">
        <ele>18.8</ele>
        <time>2023-10-11T14:38:49Z</time>
      </trkpt>
      <trkpt lat="49.16946" lon="-0.22039">
        <ele>18.7</ele>
        <time>2023-10-11T14:38:50Z</time>
      </trkpt>
      <trkpt lat="49.16954" lon="-0.22043">
        <ele>18.5</ele>
        <time>2023-10-11T14:38:51Z</time>
      </trkpt>
      <trkpt lat="49.16961" lon="-0.22046">
        <ele>18.4</ele>
        <time>2023-10-11T14:38:52Z</time>
      </trkpt>
      <trkpt lat="49.16969" lon="-0.22049">
        <ele>18.3</ele>
        <time>2023-10-11T14:38:53Z</time>
      </trkpt>
      <trkpt lat="49.16977" lon="-0.22051">
        <ele>18.1</ele>
        <time>2023-10-11T14:38:54Z</time>
      </trkpt>
      <trkpt lat="49.16986" lon="-0.22052">
        <ele>17.9</ele>
        <time>2023-10-11T14:38:55Z</time>
      </trkpt>
      <trkpt lat="49.16994" lon="-0.22052">
        <ele>17.7</ele>
        <time>2023-10-11T14:38:56Z</time>
      </trkpt>
      <trkpt lat="49.17003" lon="-0.22052">
        <ele>17.4</ele>
        <time>2023-10-11T14:38:57Z</time>
      </trkpt>
      <trkpt lat="49.17012" lon="-0.22052">
        <ele>17.1</ele>
        <time>2023-10-11T14:38:58Z</time>
      </trkpt>
      <trkpt lat="49.17021" lon="-0.22051">
        <ele>16.8</ele>
        <time>2023-10-11T14:38:59Z</time>
      </trkpt>
      <trkpt lat="49.17031" lon="-0.22049">
        <ele>16.5</ele>
        <time>2023-10-11T14:39:00Z</time>
      </trkpt>
      <trkpt lat="49.1704" lon="-0.22047">
        <ele>16.2</ele>
        <time>2023-10-11T14:39:01Z</time>
      </trkpt>
      <trkpt lat="49.17049" lon="-0.22044">
        <ele>15.9</ele>
        <time>2023-10-11T14:39:02Z</time>
      </trkpt>
      <trkpt lat="49.17059" lon="-0.22042">
        <ele>15.7</ele>
        <time>2023-10-11T14:39:03Z</time>
      </trkpt>
      <trkpt lat="49.17068" lon="-0.2204">
        <ele>15.5</ele>
        <time>2023-10-11T14:39:04Z</time>
      </trkpt>
      <trkpt lat="49.17077" lon="-0.22038">
        <ele>15.3</ele>
        <time>2023-10-11T14:39:05Z</time>
      </trkpt>
      <trkpt lat="49.17086" lon="-0.22036">
        <ele>15.1</ele>
        <time>2023-10-11T14:39:06Z</time>
      </trkpt>
      <trkpt lat="49.17095" lon="-0.22035">
        <ele>14.9</ele>
        <time>2023-10-11T14:39:07Z</time>
      </trkpt>
      <trkpt lat="49.17105" lon="-0.22035">
        <ele>14.8</ele>
        <time>2023-10-11T14:39:08Z</time>
      </trkpt>
      <trkpt lat="49.17114" lon="-0.22036">
        <ele>14.6</ele>
        <time>2023-10-11T14:39:09Z</time>
      </trkpt>
      <trkpt lat="49.17123" lon="-0.22038">
        <ele>14.4</ele>
        <time>2023-10-11T14:39:10Z</time>
      </trkpt>
      <trkpt lat="49.17132" lon="-0.22041">
        <ele>14.3</ele>
        <time>2023-10-11T14:39:11Z</time>
      </trkpt>
      <trkpt lat="49.17141" lon="-0.22043">
        <ele>14.2</ele>
        <time>2023-10-11T14:39:12Z</time>
      </trkpt>
      <trkpt lat="49.1715" lon="-0.22046">
        <ele>14.1</ele>
        <time>2023-10-11T14:39:13Z</time>
      </trkpt>
      <trkpt lat="49.17159" lon="-0.22049">
        <ele>14</ele>
        <time>2023-10-11T14:39:14Z</time>
      </trkpt>
      <trkpt lat="49.17168" lon="-0.22052">
        <ele>14</ele>
        <time>2023-10-11T14:39:15Z</time>
      </trkpt>
      <trkpt lat="49.17177" lon="-0.22055">
        <ele>14</ele>
        <time>2023-10-11T14:39:16Z</time>
      </trkpt>
      <trkpt lat="49.17186" lon="-0.22058">
        <ele>14</ele>
        <time>2023-10-11T14:39:17Z</time>
      </trkpt>
      <trkpt lat="49.17195" lon="-0.22061">
        <ele>14.1</ele>
        <time>2023-10-11T14:39:18Z</time>
      </trkpt>
      <trkpt lat="49.17204" lon="-0.22064">
        <ele>14.1</ele>
        <time>2023-10-11T14:39:19Z</time>
      </trkpt>
      <trkpt lat="49.17213" lon="-0.22068">
        <ele>14.1</ele>
        <time>2023-10-11T14:39:20Z</time>
      </trkpt>
      <trkpt lat="49.17221" lon="-0.22072">
        <ele>14.2</ele>
        <time>2023-10-11T14:39:21Z</time>
      </trkpt>
      <trkpt lat="49.17229" lon="-0.22075">
        <ele>14.2</ele>
        <time>2023-10-11T14:39:22Z</time>
      </trkpt>
      <trkpt lat="49.17238" lon="-0.22078">
        <ele>14.2</ele>
        <time>2023-10-11T14:39:23Z</time>
      </trkpt>
      <trkpt lat="49.17246" lon="-0.22081">
        <ele>14.2</ele>
        <time>2023-10-11T14:39:24Z</time>
      </trkpt>
      <trkpt lat="49.17255" lon="-0.22084">
        <ele>14.2</ele>
        <time>2023-10-11T14:39:25Z</time>
      </trkpt>
      <trkpt lat="49.17263" lon="-0.22087">
        <ele>14.2</ele>
        <time>2023-10-11T14:39:26Z</time>
      </trkpt>
      <trkpt lat="49.17271" lon="-0.22089">
        <ele>14.2</ele>
        <time>2023-10-11T14:39:27Z</time>
      </trkpt>
      <trkpt lat="49.1728" lon="-0.22092">
        <ele>14.2</ele>
        <time>2023-10-11T14:39:28Z</time>
      </trkpt>
      <trkpt lat="49.17288" lon="-0.22095">
        <ele>14.2</ele>
        <time>2023-10-11T14:39:29Z</time>
      </trkpt>
      <trkpt lat="49.17296" lon="-0.22098">
        <ele>14.2</ele>
        <time>2023-10-11T14:39:30Z</time>
      </trkpt>
      <trkpt lat="49.17305" lon="-0.22101">
        <ele>14.1</ele>
        <time>2023-10-11T14:39:31Z</time>
      </trkpt>
      <trkpt lat="49.17313" lon="-0.22104">
        <ele>14.1</ele>
        <time>2023-10-11T14:39:32Z</time>
      </trkpt>
      <trkpt lat="49.17322" lon="-0.22108">
        <ele>14</ele>
        <time>2023-10-11T14:39:33Z</time>
      </trkpt>
      <trkpt lat="49.17331" lon="-0.22112">
        <ele>14</ele>
        <time>2023-10-11T14:39:34Z</time>
      </trkpt>
      <trkpt lat="49.1734" lon="-0.22115">
        <ele>14</ele>
        <time>2023-10-11T14:39:35Z</time>
      </trkpt>
      <trkpt lat="49.17349" lon="-0.22119">
        <ele>13.9</ele>
        <time>2023-10-11T14:39:36Z</time>
      </trkpt>
      <trkpt lat="49.17358" lon="-0.22122">
        <ele>13.9</ele>
        <time>2023-10-11T14:39:37Z</time>
      </trkpt>
      <trkpt lat="49.17367" lon="-0.22125">
        <ele>13.9</ele>
        <time>2023-10-11T14:39:38Z</time>
      </trkpt>
      <trkpt lat="49.17376" lon="-0.22129">
        <ele>13.9</ele>
        <time>2023-10-11T14:39:39Z</time>
      </trkpt>
      <trkpt lat="49.17385" lon="-0.22132">
        <ele>13.9</ele>
        <time>2023-10-11T14:39:40Z</time>
      </trkpt>
      <trkpt lat="49.17393" lon="-0.22135">
        <ele>13.8</ele>
        <time>2023-10-11T14:39:41Z</time>
      </trkpt>
      <trkpt lat="49.17402" lon="-0.22138">
        <ele>13.8</ele>
        <time>2023-10-11T14:39:42Z</time>
      </trkpt>
      <trkpt lat="49.1741" lon="-0.22141">
        <ele>13.8</ele>
        <time>2023-10-11T14:39:43Z</time>
      </trkpt>
      <trkpt lat="49.17419" lon="-0.22144">
        <ele>13.8</ele>
        <time>2023-10-11T14:39:44Z</time>
      </trkpt>
      <trkpt lat="49.17427" lon="-0.22147">
        <ele>13.8</ele>
        <time>2023-10-11T14:39:45Z</time>
      </trkpt>
      <trkpt lat="49.17435" lon="-0.2215">
        <ele>13.7</ele>
        <time>2023-10-11T14:39:46Z</time>
      </trkpt>
      <trkpt lat="49.17444" lon="-0.22153">
        <ele>13.7</ele>
        <time>2023-10-11T14:39:47Z</time>
      </trkpt>
      <trkpt lat="49.17452" lon="-0.22156">
        <ele>13.6</ele>
        <time>2023-10-11T14:39:48Z</time>
      </trkpt>
      <trkpt lat="49.1746" lon="-0.22158">
        <ele>13.5</ele>
        <time>2023-10-11T14:39:49Z</time>
      </trkpt>
      <trkpt lat="49.17469" lon="-0.22161">
        <ele>13.5</ele>
        <time>2023-10-11T14:39:50Z</time>
      </trkpt>
      <trkpt lat="49.17477" lon="-0.22162">
        <ele>13.4</ele>
        <time>2023-10-11T14:39:51Z</time>
      </trkpt>
      <trkpt lat="49.17485" lon="-0.22162">
        <ele>13.3</ele>
        <time>2023-10-11T14:39:52Z</time>
      </trkpt>
      <trkpt lat="49.17493" lon="-0.22159">
        <ele>13.1</ele>
        <time>2023-10-11T14:39:53Z</time>
      </trkpt>
      <trkpt lat="49.17501" lon="-0.22154">
        <ele>13</ele>
        <time>2023-10-11T14:39:54Z</time>
      </trkpt>
      <trkpt lat="49.17508" lon="-0.22145">
        <ele>12.8</ele>
        <time>2023-10-11T14:39:55Z</time>
      </trkpt>
      <trkpt lat="49.17513" lon="-0.22134">
        <ele>12.6</ele>
        <time>2023-10-11T14:39:56Z</time>
      </trkpt>
      <trkpt lat="49.17517" lon="-0.22121">
        <ele>12.4</ele>
        <time>2023-10-11T14:39:57Z</time>
      </trkpt>
      <trkpt lat="49.1752" lon="-0.22107">
        <ele>12.3</ele>
        <time>2023-10-11T14:39:58Z</time>
      </trkpt>
      <trkpt lat="49.17521" lon="-0.22092">
        <ele>12.2</ele>
        <time>2023-10-11T14:39:59Z</time>
      </trkpt>
      <trkpt lat="49.17523" lon="-0.22076">
        <ele>12.1</ele>
        <time>2023-10-11T14:40:00Z</time>
      </trkpt>
      <trkpt lat="49.17526" lon="-0.22062">
        <ele>12.1</ele>
        <time>2023-10-11T14:40:01Z</time>
      </trkpt>
      <trkpt lat="49.17531" lon="-0.22051">
        <ele>12.1</ele>
        <time>2023-10-11T14:40:02Z</time>
      </trkpt>
      <trkpt lat="49.17539" lon="-0.22046">
        <ele>11.9</ele>
        <time>2023-10-11T14:40:03Z</time>
      </trkpt>
      <trkpt lat="49.17547" lon="-0.22046">
        <ele>11.7</ele>
        <time>2023-10-11T14:40:04Z</time>
      </trkpt>
      <trkpt lat="49.17555" lon="-0.22047">
        <ele>11.6</ele>
        <time>2023-10-11T14:40:05Z</time>
      </trkpt>
      <trkpt lat="49.17563" lon="-0.22049">
        <ele>11.5</ele>
        <time>2023-10-11T14:40:06Z</time>
      </trkpt>
      <trkpt lat="49.17571" lon="-0.22053">
        <ele>11.4</ele>
        <time>2023-10-11T14:40:07Z</time>
      </trkpt>
      <trkpt lat="49.1758" lon="-0.22057">
        <ele>11.4</ele>
        <time>2023-10-11T14:40:08Z</time>
      </trkpt>
      <trkpt lat="49.17589" lon="-0.22061">
        <ele>11.4</ele>
        <time>2023-10-11T14:40:09Z</time>
      </trkpt>
      <trkpt lat="49.17598" lon="-0.22065">
        <ele>11.5</ele>
        <time>2023-10-11T14:40:10Z</time>
      </trkpt>
      <trkpt lat="49.17607" lon="-0.22069">
        <ele>11.5</ele>
        <time>2023-10-11T14:40:11Z</time>
      </trkpt>
      <trkpt lat="49.17615" lon="-0.22073">
        <ele>11.5</ele>
        <time>2023-10-11T14:40:12Z</time>
      </trkpt>
      <trkpt lat="49.17624" lon="-0.22076">
        <ele>11.5</ele>
        <time>2023-10-11T14:40:13Z</time>
      </trkpt>
      <trkpt lat="49.17632" lon="-0.22078">
        <ele>11.5</ele>
        <time>2023-10-11T14:40:14Z</time>
      </trkpt>
      <trkpt lat="49.17641" lon="-0.22079">
        <ele>11.5</ele>
        <time>2023-10-11T14:40:15Z</time>
      </trkpt>
      <trkpt lat="49.1765" lon="-0.22078">
        <ele>11.5</ele>
        <time>2023-10-11T14:40:16Z</time>
      </trkpt>
      <trkpt lat="49.17659" lon="-0.22077">
        <ele>11.5</ele>
        <time>2023-10-11T14:40:17Z</time>
      </trkpt>
      <trkpt lat="49.17667" lon="-0.22075">
        <ele>11.4</ele>
        <time>2023-10-11T14:40:18Z</time>
      </trkpt>
      <trkpt lat="49.17675" lon="-0.22073">
        <ele>11.4</ele>
        <time>2023-10-11T14:40:19Z</time>
      </trkpt>
      <trkpt lat="49.17683" lon="-0.2207">
        <ele>11.4</ele>
        <time>2023-10-11T14:40:20Z</time>
      </trkpt>
      <trkpt lat="49.17691" lon="-0.22068">
        <ele>11.4</ele>
        <time>2023-10-11T14:40:21Z</time>
      </trkpt>
      <trkpt lat="49.17699" lon="-0.22065">
        <ele>11.4</ele>
        <time>2023-10-11T14:40:22Z</time>
      </trkpt>
      <trkpt lat="49.17707" lon="-0.22063">
        <ele>11.4</ele>
        <time>2023-10-11T14:40:23Z</time>
      </trkpt>
      <trkpt lat="49.17715" lon="-0.22062">
        <ele>11.4</ele>
        <time>2023-10-11T14:40:24Z</time>
      </trkpt>
      <trkpt lat="49.17722" lon="-0.22062">
        <ele>11.4</ele>
        <time>2023-10-11T14:40:25Z</time>
      </trkpt>
      <trkpt lat="49.1773" lon="-0.22062">
        <ele>11.4</ele>
        <time>2023-10-11T14:40:26Z</time>
      </trkpt>
      <trkpt lat="49.17738" lon="-0.22063">
        <ele>11.5</ele>
        <time>2023-10-11T14:40:27Z</time>
      </trkpt>
      <trkpt lat="49.17746" lon="-0.22063">
        <ele>11.5</ele>
        <time>2023-10-11T14:40:28Z</time>
      </trkpt>
      <trkpt lat="49.17754" lon="-0.22064">
        <ele>11.6</ele>
        <time>2023-10-11T14:40:29Z</time>
      </trkpt>
      <trkpt lat="49.17761" lon="-0.22065">
        <ele>11.7</ele>
        <time>2023-10-11T14:40:30Z</time>
      </trkpt>
      <trkpt lat="49.17768" lon="-0.22065">
        <ele>11.9</ele>
        <time>2023-10-11T14:40:31Z</time>
      </trkpt>
      <trkpt lat="49.17774" lon="-0.22066">
        <ele>12.1</ele>
        <time>2023-10-11T14:40:32Z</time>
      </trkpt>
      <trkpt lat="49.17778" lon="-0.22066">
        <ele>12.2</ele>
        <time>2023-10-11T14:40:33Z</time>
      </trkpt>
      <trkpt lat="49.17781" lon="-0.22067">
        <ele>12.2</ele>
        <time>2023-10-11T14:40:34Z</time>
      </trkpt>
      <trkpt lat="49.17783" lon="-0.22067">
        <ele>12.2</ele>
        <time>2023-10-11T14:40:35Z</time>
      </trkpt>
      <trkpt lat="49.17784" lon="-0.22067">
        <ele>12.3</ele>
        <time>2023-10-11T14:40:36Z</time>
      </trkpt>
      <trkpt lat="49.17787" lon="-0.22068">
        <ele>12.3</ele>
        <time>2023-10-11T14:40:37Z</time>
      </trkpt>
      <trkpt lat="49.17789" lon="-0.22068">
        <ele>12.3</ele>
        <time>2023-10-11T14:40:38Z</time>
      </trkpt>
      <trkpt lat="49.17792" lon="-0.22068">
        <ele>12.4</ele>
        <time>2023-10-11T14:40:39Z</time>
      </trkpt>
      <trkpt lat="49.17793" lon="-0.22068">
        <ele>12.4</ele>
        <time>2023-10-11T14:40:40Z</time>
      </trkpt>
      <trkpt lat="49.17794" lon="-0.22069">
        <ele>12.4</ele>
        <time>2023-10-11T14:40:41Z</time>
      </trkpt>
      <trkpt lat="49.17795" lon="-0.22069">
        <ele>12.4</ele>
        <time>2023-10-11T14:40:42Z</time>
      </trkpt>
      <trkpt lat="49.17796" lon="-0.2207">
        <ele>12.4</ele>
        <time>2023-10-11T14:40:43Z</time>
      </trkpt>
      <trkpt lat="49.17796" lon="-0.2207">
        <ele>12.5</ele>
        <time>2023-10-11T14:40:44Z</time>
      </trkpt>
      <trkpt lat="49.17797" lon="-0.2207">
        <ele>12.5</ele>
        <time>2023-10-11T14:40:45Z</time>
      </trkpt>
      <trkpt lat="49.178" lon="-0.22072">
        <ele>12.5</ele>
        <time>2023-10-11T14:40:46Z</time>
      </trkpt>
      <trkpt lat="49.17803" lon="-0.22074">
        <ele>12.6</ele>
        <time>2023-10-11T14:40:47Z</time>
      </trkpt>
      <trkpt lat="49.17806" lon="-0.22075">
        <ele>12.6</ele>
        <time>2023-10-11T14:40:48Z</time>
      </trkpt>
      <trkpt lat="49.17809" lon="-0.22076">
        <ele>12.7</ele>
        <time>2023-10-11T14:40:49Z</time>
      </trkpt>
      <trkpt lat="49.17813" lon="-0.22077">
        <ele>12.7</ele>
        <time>2023-10-11T14:40:50Z</time>
      </trkpt>
      <trkpt lat="49.17816" lon="-0.22079">
        <ele>12.7</ele>
        <time>2023-10-11T14:40:51Z</time>
      </trkpt>
      <trkpt lat="49.1782" lon="-0.22081">
        <ele>12.8</ele>
        <time>2023-10-11T14:40:52Z</time>
      </trkpt>
      <trkpt lat="49.17823" lon="-0.22083">
        <ele>12.8</ele>
        <time>2023-10-11T14:40:53Z</time>
      </trkpt>
      <trkpt lat="49.17827" lon="-0.22084">
        <ele>12.8</ele>
        <time>2023-10-11T14:40:54Z</time>
      </trkpt>
      <trkpt lat="49.1783" lon="-0.22084">
        <ele>12.9</ele>
        <time>2023-10-11T14:40:55Z</time>
      </trkpt>
      <trkpt lat="49.17833" lon="-0.22085">
        <ele>12.9</ele>
        <time>2023-10-11T14:40:56Z</time>
      </trkpt>
      <trkpt lat="49.17836" lon="-0.22086">
        <ele>12.9</ele>
        <time>2023-10-11T14:40:57Z</time>
      </trkpt>
      <trkpt lat="49.1784" lon="-0.22087">
        <ele>13</ele>
        <time>2023-10-11T14:40:58Z</time>
      </trkpt>
      <trkpt lat="49.17844" lon="-0.22088">
        <ele>13</ele>
        <time>2023-10-11T14:40:59Z</time>
      </trkpt>
      <trkpt lat="49.17848" lon="-0.22088">
        <ele>13.1</ele>
        <time>2023-10-11T14:41:00Z</time>
      </trkpt>
      <trkpt lat="49.17851" lon="-0.22089">
        <ele>13.2</ele>
        <time>2023-10-11T14:41:01Z</time>
      </trkpt>
      <trkpt lat="49.17854" lon="-0.22091">
        <ele>13.2</ele>
        <time>2023-10-11T14:41:02Z</time>
      </trkpt>
      <trkpt lat="49.17858" lon="-0.22092">
        <ele>13.3</ele>
        <time>2023-10-11T14:41:03Z</time>
      </trkpt>
      <trkpt lat="49.17862" lon="-0.22093">
        <ele>13.3</ele>
        <time>2023-10-11T14:41:04Z</time>
      </trkpt>
      <trkpt lat="49.17866" lon="-0.22093">
        <ele>13.4</ele>
        <time>2023-10-11T14:41:05Z</time>
      </trkpt>
      <trkpt lat="49.17871" lon="-0.22094">
        <ele>13.4</ele>
        <time>2023-10-11T14:41:06Z</time>
      </trkpt>
      <trkpt lat="49.17875" lon="-0.22096">
        <ele>13.5</ele>
        <time>2023-10-11T14:41:07Z</time>
      </trkpt>
      <trkpt lat="49.17878" lon="-0.22097">
        <ele>13.6</ele>
        <time>2023-10-11T14:41:08Z</time>
      </trkpt>
      <trkpt lat="49.17882" lon="-0.22098">
        <ele>13.7</ele>
        <time>2023-10-11T14:41:09Z</time>
      </trkpt>
      <trkpt lat="49.17886" lon="-0.22098">
        <ele>13.7</ele>
        <time>2023-10-11T14:41:10Z</time>
      </trkpt>
      <trkpt lat="49.1789" lon="-0.22099">
        <ele>13.8</ele>
        <time>2023-10-11T14:41:11Z</time>
      </trkpt>
      <trkpt lat="49.17893" lon="-0.221">
        <ele>13.9</ele>
        <time>2023-10-11T14:41:12Z</time>
      </trkpt>
      <trkpt lat="49.17897" lon="-0.22101">
        <ele>14</ele>
        <time>2023-10-11T14:41:13Z</time>
      </trkpt>
      <trkpt lat="49.179" lon="-0.22102">
        <ele>14.1</ele>
        <time>2023-10-11T14:41:14Z</time>
      </trkpt>
      <trkpt lat="49.17904" lon="-0.22102">
        <ele>14.1</ele>
        <time>2023-10-11T14:41:15Z</time>
      </trkpt>
      <trkpt lat="49.17906" lon="-0.22102">
        <ele>14.2</ele>
        <time>2023-10-11T14:41:16Z</time>
      </trkpt>
      <trkpt lat="49.17909" lon="-0.22101">
        <ele>14.3</ele>
        <time>2023-10-11T14:41:17Z</time>
      </trkpt>
      <trkpt lat="49.17912" lon="-0.221">
        <ele>14.4</ele>
        <time>2023-10-11T14:41:18Z</time>
      </trkpt>
      <trkpt lat="49.17915" lon="-0.22101">
        <ele>14.4</ele>
        <time>2023-10-11T14:41:19Z</time>
      </trkpt>
      <trkpt lat="49.17916" lon="-0.22102">
        <ele>14.5</ele>
        <time>2023-10-11T14:41:20Z</time>
      </trkpt>
      <trkpt lat="49.17918" lon="-0.22107">
        <ele>14.5</ele>
        <time>2023-10-11T14:41:21Z</time>
      </trkpt>
      <trkpt lat="49.17919" lon="-0.22109">
        <ele>14.6</ele>
        <time>2023-10-11T14:41:22Z</time>
      </trkpt>
      <trkpt lat="49.17919" lon="-0.22114">
        <ele>14.6</ele>
        <time>2023-10-11T14:41:23Z</time>
      </trkpt>
      <trkpt lat="49.1792" lon="-0.22119">
        <ele>14.6</ele>
        <time>2023-10-11T14:41:24Z</time>
      </trkpt>
      <trkpt lat="49.1792" lon="-0.22124">
        <ele>14.7</ele>
        <time>2023-10-11T14:41:25Z</time>
      </trkpt>
      <trkpt lat="49.1792" lon="-0.22129">
        <ele>14.7</ele>
        <time>2023-10-11T14:41:26Z</time>
      </trkpt>
      <trkpt lat="49.1792" lon="-0.22135">
        <ele>14.8</ele>
        <time>2023-10-11T14:41:27Z</time>
      </trkpt>
      <trkpt lat="49.1792" lon="-0.22141">
        <ele>14.8</ele>
        <time>2023-10-11T14:41:28Z</time>
      </trkpt>
      <trkpt lat="49.17921" lon="-0.22149">
        <ele>14.9</ele>
        <time>2023-10-11T14:41:29Z</time>
      </trkpt>
      <trkpt lat="49.1792" lon="-0.22156">
        <ele>14.9</ele>
        <time>2023-10-11T14:41:30Z</time>
      </trkpt>
      <trkpt lat="49.1792" lon="-0.22163">
        <ele>15</ele>
        <time>2023-10-11T14:41:31Z</time>
      </trkpt>
      <trkpt lat="49.17919" lon="-0.2217">
        <ele>15</ele>
        <time>2023-10-11T14:41:32Z</time>
      </trkpt>
      <trkpt lat="49.17919" lon="-0.22177">
        <ele>15</ele>
        <time>2023-10-11T14:41:33Z</time>
      </trkpt>
      <trkpt lat="49.17918" lon="-0.22183">
        <ele>15.1</ele>
        <time>2023-10-11T14:41:34Z</time>
      </trkpt>
      <trkpt lat="49.17917" lon="-0.22189">
        <ele>15.1</ele>
        <time>2023-10-11T14:41:35Z</time>
      </trkpt>
      <trkpt lat="49.17916" lon="-0.22194">
        <ele>15.2</ele>
        <time>2023-10-11T14:41:36Z</time>
      </trkpt>
      <trkpt lat="49.17914" lon="-0.22199">
        <ele>15.2</ele>
        <time>2023-10-11T14:41:37Z</time>
      </trkpt>
      <trkpt lat="49.17914" lon="-0.22201">
        <ele>15.2</ele>
        <time>2023-10-11T14:41:38Z</time>
      </trkpt>
      <trkpt lat="49.17914" lon="-0.22203">
        <ele>15.3</ele>
        <time>2023-10-11T14:41:39Z</time>
      </trkpt>
      <trkpt lat="49.17914" lon="-0.22206">
        <ele>15.6</ele>
        <time>2023-10-11T14:41:40Z</time>
      </trkpt>
      <trkpt lat="49.17917" lon="-0.22209">
        <ele>15.7</ele>
        <time>2023-10-11T14:41:41Z</time>
      </trkpt>
      <trkpt lat="49.17919" lon="-0.2221">
        <ele>15.7</ele>
        <time>2023-10-11T14:41:42Z</time>
      </trkpt>
      <trkpt lat="49.17922" lon="-0.2221">
        <ele>15.8</ele>
        <time>2023-10-11T14:41:43Z</time>
      </trkpt>
      <trkpt lat="49.17927" lon="-0.22209">
        <ele>15.8</ele>
        <time>2023-10-11T14:41:44Z</time>
      </trkpt>
      <trkpt lat="49.17931" lon="-0.22209">
        <ele>15.9</ele>
        <time>2023-10-11T14:41:45Z</time>
      </trkpt>
      <trkpt lat="49.17936" lon="-0.22209">
        <ele>16</ele>
        <time>2023-10-11T14:41:46Z</time>
      </trkpt>
      <trkpt lat="49.17942" lon="-0.22208">
        <ele>16</ele>
        <time>2023-10-11T14:41:47Z</time>
      </trkpt>
      <trkpt lat="49.17948" lon="-0.22207">
        <ele>16.1</ele>
        <time>2023-10-11T14:41:48Z</time>
      </trkpt>
      <trkpt lat="49.17953" lon="-0.22207">
        <ele>16.1</ele>
        <time>2023-10-11T14:41:49Z</time>
      </trkpt>
      <trkpt lat="49.17959" lon="-0.22207">
        <ele>16.1</ele>
        <time>2023-10-11T14:41:50Z</time>
      </trkpt>
      <trkpt lat="49.17966" lon="-0.22207">
        <ele>16.2</ele>
        <time>2023-10-11T14:41:51Z</time>
      </trkpt>
      <trkpt lat="49.17973" lon="-0.22206">
        <ele>16.2</ele>
        <time>2023-10-11T14:41:52Z</time>
      </trkpt>
      <trkpt lat="49.1798" lon="-0.22206">
        <ele>16.2</ele>
        <time>2023-10-11T14:41:53Z</time>
      </trkpt>
      <trkpt lat="49.17986" lon="-0.22205">
        <ele>16.2</ele>
        <time>2023-10-11T14:41:54Z</time>
      </trkpt>
      <trkpt lat="49.17993" lon="-0.22205">
        <ele>16.2</ele>
        <time>2023-10-11T14:41:55Z</time>
      </trkpt>
      <trkpt lat="49.18" lon="-0.22205">
        <ele>16.3</ele>
        <time>2023-10-11T14:41:56Z</time>
      </trkpt>
      <trkpt lat="49.18006" lon="-0.22205">
        <ele>16.3</ele>
        <time>2023-10-11T14:41:57Z</time>
      </trkpt>
      <trkpt lat="49.18013" lon="-0.22205">
        <ele>16.3</ele>
        <time>2023-10-11T14:41:58Z</time>
      </trkpt>
      <trkpt lat="49.18021" lon="-0.22205">
        <ele>16.3</ele>
        <time>2023-10-11T14:41:59Z</time>
      </trkpt>
      <trkpt lat="49.18028" lon="-0.22204">
        <ele>16.3</ele>
        <time>2023-10-11T14:42:00Z</time>
      </trkpt>
      <trkpt lat="49.18035" lon="-0.22204">
        <ele>16.3</ele>
        <time>2023-10-11T14:42:01Z</time>
      </trkpt>
      <trkpt lat="49.18042" lon="-0.22204">
        <ele>16.3</ele>
        <time>2023-10-11T14:42:02Z</time>
      </trkpt>
      <trkpt lat="49.1805" lon="-0.22204">
        <ele>16.4</ele>
        <time>2023-10-11T14:42:03Z</time>
      </trkpt>
      <trkpt lat="49.18057" lon="-0.22204">
        <ele>16.4</ele>
        <time>2023-10-11T14:42:04Z</time>
      </trkpt>
      <trkpt lat="49.18065" lon="-0.22203">
        <ele>16.3</ele>
        <time>2023-10-11T14:42:05Z</time>
      </trkpt>
      <trkpt lat="49.18073" lon="-0.22204">
        <ele>16.3</ele>
        <time>2023-10-11T14:42:06Z</time>
      </trkpt>
      <trkpt lat="49.1808" lon="-0.22204">
        <ele>16.3</ele>
        <time>2023-10-11T14:42:07Z</time>
      </trkpt>
      <trkpt lat="49.18088" lon="-0.22204">
        <ele>16.2</ele>
        <time>2023-10-11T14:42:08Z</time>
      </trkpt>
      <trkpt lat="49.18096" lon="-0.22204">
        <ele>16.2</ele>
        <time>2023-10-11T14:42:09Z</time>
      </trkpt>
      <trkpt lat="49.18105" lon="-0.22204">
        <ele>16.1</ele>
        <time>2023-10-11T14:42:10Z</time>
      </trkpt>
      <trkpt lat="49.18113" lon="-0.22205">
        <ele>16.1</ele>
        <time>2023-10-11T14:42:11Z</time>
      </trkpt>
      <trkpt lat="49.18121" lon="-0.22207">
        <ele>16</ele>
        <time>2023-10-11T14:42:12Z</time>
      </trkpt>
      <trkpt lat="49.18129" lon="-0.22208">
        <ele>16</ele>
        <time>2023-10-11T14:42:13Z</time>
      </trkpt>
      <trkpt lat="49.18138" lon="-0.2221">
        <ele>15.9</ele>
        <time>2023-10-11T14:42:14Z</time>
      </trkpt>
      <trkpt lat="49.18146" lon="-0.22212">
        <ele>15.8</ele>
        <time>2023-10-11T14:42:15Z</time>
      </trkpt>
      <trkpt lat="49.18154" lon="-0.22216">
        <ele>15.8</ele>
        <time>2023-10-11T14:42:16Z</time>
      </trkpt>
      <trkpt lat="49.18162" lon="-0.2222">
        <ele>15.7</ele>
        <time>2023-10-11T14:42:17Z</time>
      </trkpt>
      <trkpt lat="49.18169" lon="-0.22224">
        <ele>15.7</ele>
        <time>2023-10-11T14:42:18Z</time>
      </trkpt>
      <trkpt lat="49.18177" lon="-0.22228">
        <ele>15.6</ele>
        <time>2023-10-11T14:42:19Z</time>
      </trkpt>
      <trkpt lat="49.18185" lon="-0.22233">
        <ele>15.6</ele>
        <time>2023-10-11T14:42:20Z</time>
      </trkpt>
      <trkpt lat="49.18193" lon="-0.22238">
        <ele>15.5</ele>
        <time>2023-10-11T14:42:21Z</time>
      </trkpt>
      <trkpt lat="49.18201" lon="-0.22245">
        <ele>15.4</ele>
        <time>2023-10-11T14:42:22Z</time>
      </trkpt>
      <trkpt lat="49.18208" lon="-0.22251">
        <ele>15.4</ele>
        <time>2023-10-11T14:42:23Z</time>
      </trkpt>
      <trkpt lat="49.18216" lon="-0.22258">
        <ele>15.3</ele>
        <time>2023-10-11T14:42:24Z</time>
      </trkpt>
      <trkpt lat="49.18223" lon="-0.22265">
        <ele>15.3</ele>
        <time>2023-10-11T14:42:25Z</time>
      </trkpt>
      <trkpt lat="49.18231" lon="-0.22272">
        <ele>15.2</ele>
        <time>2023-10-11T14:42:26Z</time>
      </trkpt>
      <trkpt lat="49.18238" lon="-0.22278">
        <ele>15.1</ele>
        <time>2023-10-11T14:42:27Z</time>
      </trkpt>
      <trkpt lat="49.18245" lon="-0.22285">
        <ele>15.1</ele>
        <time>2023-10-11T14:42:28Z</time>
      </trkpt>
      <trkpt lat="49.18252" lon="-0.22292">
        <ele>15</ele>
        <time>2023-10-11T14:42:29Z</time>
      </trkpt>
      <trkpt lat="49.18259" lon="-0.22298">
        <ele>15</ele>
        <time>2023-10-11T14:42:30Z</time>
      </trkpt>
      <trkpt lat="49.18265" lon="-0.22305">
        <ele>14.9</ele>
        <time>2023-10-11T14:42:31Z</time>
      </trkpt>
      <trkpt lat="49.1827" lon="-0.22313">
        <ele>14.9</ele>
        <time>2023-10-11T14:42:32Z</time>
      </trkpt>
      <trkpt lat="49.18274" lon="-0.22322">
        <ele>14.8</ele>
        <time>2023-10-11T14:42:33Z</time>
      </trkpt>
      <trkpt lat="49.18277" lon="-0.22331">
        <ele>14.8</ele>
        <time>2023-10-11T14:42:34Z</time>
      </trkpt>
      <trkpt lat="49.18281" lon="-0.2234">
        <ele>14.8</ele>
        <time>2023-10-11T14:42:35Z</time>
      </trkpt>
      <trkpt lat="49.18285" lon="-0.22348">
        <ele>14.8</ele>
        <time>2023-10-11T14:42:36Z</time>
      </trkpt>
      <trkpt lat="49.18291" lon="-0.22353">
        <ele>14.6</ele>
        <time>2023-10-11T14:42:37Z</time>
      </trkpt>
      <trkpt lat="49.18299" lon="-0.22356">
        <ele>14.5</ele>
        <time>2023-10-11T14:42:38Z</time>
      </trkpt>
      <trkpt lat="49.18308" lon="-0.22358">
        <ele>14.4</ele>
        <time>2023-10-11T14:42:39Z</time>
      </trkpt>
      <trkpt lat="49.18316" lon="-0.22359">
        <ele>14.2</ele>
        <time>2023-10-11T14:42:40Z</time>
      </trkpt>
      <trkpt lat="49.18325" lon="-0.22362">
        <ele>14.1</ele>
        <time>2023-10-11T14:42:41Z</time>
      </trkpt>
      <trkpt lat="49.18334" lon="-0.22365">
        <ele>13.9</ele>
        <time>2023-10-11T14:42:42Z</time>
      </trkpt>
      <trkpt lat="49.18343" lon="-0.22368">
        <ele>13.8</ele>
        <time>2023-10-11T14:42:43Z</time>
      </trkpt>
      <trkpt lat="49.18353" lon="-0.22369">
        <ele>13.8</ele>
        <time>2023-10-11T14:42:44Z</time>
      </trkpt>
      <trkpt lat="49.18363" lon="-0.2237">
        <ele>13.7</ele>
        <time>2023-10-11T14:42:45Z</time>
      </trkpt>
      <trkpt lat="49.18372" lon="-0.2237">
        <ele>13.6</ele>
        <time>2023-10-11T14:42:46Z</time>
      </trkpt>
      <trkpt lat="49.18382" lon="-0.2237">
        <ele>13.6</ele>
        <time>2023-10-11T14:42:47Z</time>
      </trkpt>
      <trkpt lat="49.18391" lon="-0.2237">
        <ele>13.6</ele>
        <time>2023-10-11T14:42:48Z</time>
      </trkpt>
      <trkpt lat="49.184" lon="-0.2237">
        <ele>13.6</ele>
        <time>2023-10-11T14:42:49Z</time>
      </trkpt>
      <trkpt lat="49.18408" lon="-0.2237">
        <ele>13.6</ele>
        <time>2023-10-11T14:42:50Z</time>
      </trkpt>
      <trkpt lat="49.18417" lon="-0.2237">
        <ele>13.6</ele>
        <time>2023-10-11T14:42:51Z</time>
      </trkpt>
      <trkpt lat="49.18426" lon="-0.2237">
        <ele>13.6</ele>
        <time>2023-10-11T14:42:52Z</time>
      </trkpt>
      <trkpt lat="49.18435" lon="-0.2237">
        <ele>13.7</ele>
        <time>2023-10-11T14:42:53Z</time>
      </trkpt>
      <trkpt lat="49.18444" lon="-0.2237">
        <ele>13.7</ele>
        <time>2023-10-11T14:42:54Z</time>
      </trkpt>
      <trkpt lat="49.18453" lon="-0.2237">
        <ele>13.7</ele>
        <time>2023-10-11T14:42:55Z</time>
      </trkpt>
      <trkpt lat="49.18461" lon="-0.2237">
        <ele>13.7</ele>
        <time>2023-10-11T14:42:56Z</time>
      </trkpt>
      <trkpt lat="49.1847" lon="-0.22371">
        <ele>13.7</ele>
        <time>2023-10-11T14:42:57Z</time>
      </trkpt>
      <trkpt lat="49.18479" lon="-0.22371">
        <ele>13.7</ele>
        <time>2023-10-11T14:42:58Z</time>
      </trkpt>
      <trkpt lat="49.18488" lon="-0.22372">
        <ele>13.7</ele>
        <time>2023-10-11T14:42:59Z</time>
      </trkpt>
      <trkpt lat="49.18498" lon="-0.22373">
        <ele>13.8</ele>
        <time>2023-10-11T14:43:00Z</time>
      </trkpt>
      <trkpt lat="49.18506" lon="-0.22375">
        <ele>13.8</ele>
        <time>2023-10-11T14:43:01Z</time>
      </trkpt>
      <trkpt lat="49.18515" lon="-0.22379">
        <ele>13.8</ele>
        <time>2023-10-11T14:43:02Z</time>
      </trkpt>
      <trkpt lat="49.18523" lon="-0.22382">
        <ele>13.9</ele>
        <time>2023-10-11T14:43:03Z</time>
      </trkpt>
      <trkpt lat="49.18531" lon="-0.22387">
        <ele>13.9</ele>
        <time>2023-10-11T14:43:04Z</time>
      </trkpt>
      <trkpt lat="49.18539" lon="-0.22392">
        <ele>13.9</ele>
        <time>2023-10-11T14:43:05Z</time>
      </trkpt>
      <trkpt lat="49.18548" lon="-0.22398">
        <ele>13.9</ele>
        <time>2023-10-11T14:43:06Z</time>
      </trkpt>
      <trkpt lat="49.18556" lon="-0.22403">
        <ele>13.9</ele>
        <time>2023-10-11T14:43:07Z</time>
      </trkpt>
      <trkpt lat="49.18564" lon="-0.22408">
        <ele>13.9</ele>
        <time>2023-10-11T14:43:08Z</time>
      </trkpt>
      <trkpt lat="49.18573" lon="-0.22412">
        <ele>13.9</ele>
        <time>2023-10-11T14:43:09Z</time>
      </trkpt>
      <trkpt lat="49.18582" lon="-0.22415">
        <ele>13.9</ele>
        <time>2023-10-11T14:43:10Z</time>
      </trkpt>
      <trkpt lat="49.18591" lon="-0.22419">
        <ele>13.9</ele>
        <time>2023-10-11T14:43:11Z</time>
      </trkpt>
      <trkpt lat="49.186" lon="-0.22423">
        <ele>13.8</ele>
        <time>2023-10-11T14:43:12Z</time>
      </trkpt>
      <trkpt lat="49.18609" lon="-0.22426">
        <ele>13.8</ele>
        <time>2023-10-11T14:43:13Z</time>
      </trkpt>
      <trkpt lat="49.18618" lon="-0.22429">
        <ele>13.8</ele>
        <time>2023-10-11T14:43:14Z</time>
      </trkpt>
      <trkpt lat="49.18627" lon="-0.22432">
        <ele>13.7</ele>
        <time>2023-10-11T14:43:15Z</time>
      </trkpt>
      <trkpt lat="49.18636" lon="-0.22435">
        <ele>13.7</ele>
        <time>2023-10-11T14:43:16Z</time>
      </trkpt>
      <trkpt lat="49.18644" lon="-0.22438">
        <ele>13.6</ele>
        <time>2023-10-11T14:43:17Z</time>
      </trkpt>
      <trkpt lat="49.18653" lon="-0.22443">
        <ele>13.6</ele>
        <time>2023-10-11T14:43:18Z</time>
      </trkpt>
      <trkpt lat="49.18662" lon="-0.22447">
        <ele>13.5</ele>
        <time>2023-10-11T14:43:19Z</time>
      </trkpt>
      <trkpt lat="49.18671" lon="-0.22451">
        <ele>13.5</ele>
        <time>2023-10-11T14:43:20Z</time>
      </trkpt>
      <trkpt lat="49.1868" lon="-0.22455">
        <ele>13.5</ele>
        <time>2023-10-11T14:43:21Z</time>
      </trkpt>
      <trkpt lat="49.18689" lon="-0.2246">
        <ele>13.4</ele>
        <time>2023-10-11T14:43:22Z</time>
      </trkpt>
      <trkpt lat="49.18697" lon="-0.22465">
        <ele>13.5</ele>
        <time>2023-10-11T14:43:23Z</time>
      </trkpt>
      <trkpt lat="49.18705" lon="-0.2247">
        <ele>13.5</ele>
        <time>2023-10-11T14:43:24Z</time>
      </trkpt>
      <trkpt lat="49.18713" lon="-0.22476">
        <ele>13.6</ele>
        <time>2023-10-11T14:43:25Z</time>
      </trkpt>
      <trkpt lat="49.18721" lon="-0.22482">
        <ele>13.6</ele>
        <time>2023-10-11T14:43:26Z</time>
      </trkpt>
      <trkpt lat="49.1873" lon="-0.22486">
        <ele>13.7</ele>
        <time>2023-10-11T14:43:27Z</time>
      </trkpt>
      <trkpt lat="49.18738" lon="-0.22491">
        <ele>13.7</ele>
        <time>2023-10-11T14:43:28Z</time>
      </trkpt>
      <trkpt lat="49.18746" lon="-0.22496">
        <ele>13.8</ele>
        <time>2023-10-11T14:43:29Z</time>
      </trkpt>
      <trkpt lat="49.18754" lon="-0.225">
        <ele>13.9</ele>
        <time>2023-10-11T14:43:30Z</time>
      </trkpt>
      <trkpt lat="49.18763" lon="-0.22505">
        <ele>14</ele>
        <time>2023-10-11T14:43:31Z</time>
      </trkpt>
      <trkpt lat="49.18771" lon="-0.2251">
        <ele>14.1</ele>
        <time>2023-10-11T14:43:32Z</time>
      </trkpt>
      <trkpt lat="49.18779" lon="-0.22514">
        <ele>14.2</ele>
        <time>2023-10-11T14:43:33Z</time>
      </trkpt>
      <trkpt lat="49.18787" lon="-0.22519">
        <ele>14.3</ele>
        <time>2023-10-11T14:43:34Z</time>
      </trkpt>
      <trkpt lat="49.18795" lon="-0.22523">
        <ele>14.4</ele>
        <time>2023-10-11T14:43:35Z</time>
      </trkpt>
      <trkpt lat="49.18803" lon="-0.22528">
        <ele>14.5</ele>
        <time>2023-10-11T14:43:36Z</time>
      </trkpt>
      <trkpt lat="49.1881" lon="-0.22533">
        <ele>14.6</ele>
        <time>2023-10-11T14:43:37Z</time>
      </trkpt>
      <trkpt lat="49.18818" lon="-0.22538">
        <ele>14.8</ele>
        <time>2023-10-11T14:43:38Z</time>
      </trkpt>
      <trkpt lat="49.18826" lon="-0.22542">
        <ele>14.9</ele>
        <time>2023-10-11T14:43:39Z</time>
      </trkpt>
      <trkpt lat="49.18834" lon="-0.22546">
        <ele>15</ele>
        <time>2023-10-11T14:43:40Z</time>
      </trkpt>
      <trkpt lat="49.18842" lon="-0.2255">
        <ele>15</ele>
        <time>2023-10-11T14:43:41Z</time>
      </trkpt>
      <trkpt lat="49.18849" lon="-0.22555">
        <ele>15.1</ele>
        <time>2023-10-11T14:43:42Z</time>
      </trkpt>
      <trkpt lat="49.18857" lon="-0.2256">
        <ele>15.2</ele>
        <time>2023-10-11T14:43:43Z</time>
      </trkpt>
      <trkpt lat="49.18864" lon="-0.22564">
        <ele>15.4</ele>
        <time>2023-10-11T14:43:44Z</time>
      </trkpt>
      <trkpt lat="49.18872" lon="-0.22569">
        <ele>15.5</ele>
        <time>2023-10-11T14:43:45Z</time>
      </trkpt>
      <trkpt lat="49.18879" lon="-0.22574">
        <ele>15.6</ele>
        <time>2023-10-11T14:43:46Z</time>
      </trkpt>
      <trkpt lat="49.18887" lon="-0.22578">
        <ele>15.8</ele>
        <time>2023-10-11T14:43:47Z</time>
      </trkpt>
      <trkpt lat="49.18894" lon="-0.22582">
        <ele>15.9</ele>
        <time>2023-10-11T14:43:48Z</time>
      </trkpt>
      <trkpt lat="49.18902" lon="-0.22586">
        <ele>16</ele>
        <time>2023-10-11T14:43:49Z</time>
      </trkpt>
      <trkpt lat="49.1891" lon="-0.22588">
        <ele>16.1</ele>
        <time>2023-10-11T14:43:50Z</time>
      </trkpt>
      <trkpt lat="49.18918" lon="-0.22589">
        <ele>16.2</ele>
        <time>2023-10-11T14:43:51Z</time>
      </trkpt>
      <trkpt lat="49.18926" lon="-0.22589">
        <ele>16.2</ele>
        <time>2023-10-11T14:43:52Z</time>
      </trkpt>
      <trkpt lat="49.18934" lon="-0.22588">
        <ele>16.4</ele>
        <time>2023-10-11T14:43:53Z</time>
      </trkpt>
      <trkpt lat="49.18942" lon="-0.22585">
        <ele>16.4</ele>
        <time>2023-10-11T14:43:54Z</time>
      </trkpt>
      <trkpt lat="49.1895" lon="-0.22583">
        <ele>16.5</ele>
        <time>2023-10-11T14:43:55Z</time>
      </trkpt>
      <trkpt lat="49.18959" lon="-0.2258">
        <ele>16.5</ele>
        <time>2023-10-11T14:43:56Z</time>
      </trkpt>
      <trkpt lat="49.18967" lon="-0.22577">
        <ele>16.5</ele>
        <time>2023-10-11T14:43:57Z</time>
      </trkpt>
      <trkpt lat="49.18975" lon="-0.22574">
        <ele>16.5</ele>
        <time>2023-10-11T14:43:58Z</time>
      </trkpt>
      <trkpt lat="49.18982" lon="-0.22571">
        <ele>16.5</ele>
        <time>2023-10-11T14:43:59Z</time>
      </trkpt>
      <trkpt lat="49.1899" lon="-0.22569">
        <ele>16.5</ele>
        <time>2023-10-11T14:44:00Z</time>
      </trkpt>
      <trkpt lat="49.18997" lon="-0.22567">
        <ele>16.5</ele>
        <time>2023-10-11T14:44:01Z</time>
      </trkpt>
      <trkpt lat="49.19005" lon="-0.22565">
        <ele>16.5</ele>
        <time>2023-10-11T14:44:02Z</time>
      </trkpt>
      <trkpt lat="49.19013" lon="-0.22563">
        <ele>16.5</ele>
        <time>2023-10-11T14:44:03Z</time>
      </trkpt>
      <trkpt lat="49.1902" lon="-0.2256">
        <ele>16.4</ele>
        <time>2023-10-11T14:44:04Z</time>
      </trkpt>
      <trkpt lat="49.19027" lon="-0.22558">
        <ele>16.3</ele>
        <time>2023-10-11T14:44:05Z</time>
      </trkpt>
      <trkpt lat="49.19034" lon="-0.22555">
        <ele>16.3</ele>
        <time>2023-10-11T14:44:06Z</time>
      </trkpt>
      <trkpt lat="49.19041" lon="-0.22553">
        <ele>16.2</ele>
        <time>2023-10-11T14:44:07Z</time>
      </trkpt>
      <trkpt lat="49.19048" lon="-0.22551">
        <ele>16.1</ele>
        <time>2023-10-11T14:44:08Z</time>
      </trkpt>
      <trkpt lat="49.19055" lon="-0.22549">
        <ele>16.1</ele>
        <time>2023-10-11T14:44:09Z</time>
      </trkpt>
      <trkpt lat="49.19062" lon="-0.22547">
        <ele>16</ele>
        <time>2023-10-11T14:44:10Z</time>
      </trkpt>
      <trkpt lat="49.19069" lon="-0.22545">
        <ele>15.9</ele>
        <time>2023-10-11T14:44:11Z</time>
      </trkpt>
      <trkpt lat="49.19076" lon="-0.22544">
        <ele>15.9</ele>
        <time>2023-10-11T14:44:12Z</time>
      </trkpt>
      <trkpt lat="49.19083" lon="-0.22545">
        <ele>15.9</ele>
        <time>2023-10-11T14:44:13Z</time>
      </trkpt>
      <trkpt lat="49.19089" lon="-0.22548">
        <ele>15.9</ele>
        <time>2023-10-11T14:44:14Z</time>
      </trkpt>
      <trkpt lat="49.19095" lon="-0.22552">
        <ele>15.9</ele>
        <time>2023-10-11T14:44:15Z</time>
      </trkpt>
      <trkpt lat="49.19101" lon="-0.22557">
        <ele>15.9</ele>
        <time>2023-10-11T14:44:16Z</time>
      </trkpt>
      <trkpt lat="49.19106" lon="-0.22563">
        <ele>15.9</ele>
        <time>2023-10-11T14:44:17Z</time>
      </trkpt>
      <trkpt lat="49.19111" lon="-0.2257">
        <ele>16</ele>
        <time>2023-10-11T14:44:18Z</time>
      </trkpt>
      <trkpt lat="49.19114" lon="-0.22578">
        <ele>16.1</ele>
        <time>2023-10-11T14:44:19Z</time>
      </trkpt>
      <trkpt lat="49.19117" lon="-0.22587">
        <ele>16.1</ele>
        <time>2023-10-11T14:44:20Z</time>
      </trkpt>
      <trkpt lat="49.1912" lon="-0.22596">
        <ele>16.2</ele>
        <time>2023-10-11T14:44:21Z</time>
      </trkpt>
      <trkpt lat="49.19123" lon="-0.22605">
        <ele>16.2</ele>
        <time>2023-10-11T14:44:22Z</time>
      </trkpt>
      <trkpt lat="49.19126" lon="-0.22615">
        <ele>16.3</ele>
        <time>2023-10-11T14:44:23Z</time>
      </trkpt>
      <trkpt lat="49.19129" lon="-0.22624">
        <ele>16.3</ele>
        <time>2023-10-11T14:44:24Z</time>
      </trkpt>
      <trkpt lat="49.19132" lon="-0.22635">
        <ele>16.5</ele>
        <time>2023-10-11T14:44:25Z</time>
      </trkpt>
      <trkpt lat="49.19135" lon="-0.22645">
        <ele>16.6</ele>
        <time>2023-10-11T14:44:26Z</time>
      </trkpt>
      <trkpt lat="49.19138" lon="-0.22655">
        <ele>16.7</ele>
        <time>2023-10-11T14:44:27Z</time>
      </trkpt>
      <trkpt lat="49.19141" lon="-0.22665">
        <ele>16.9</ele>
        <time>2023-10-11T14:44:28Z</time>
      </trkpt>
      <trkpt lat="49.19144" lon="-0.22674">
        <ele>17</ele>
        <time>2023-10-11T14:44:29Z</time>
      </trkpt>
      <trkpt lat="49.19147" lon="-0.22683">
        <ele>17.2</ele>
        <time>2023-10-11T14:44:30Z</time>
      </trkpt>
      <trkpt lat="49.19151" lon="-0.22693">
        <ele>17.4</ele>
        <time>2023-10-11T14:44:31Z</time>
      </trkpt>
      <trkpt lat="49.19155" lon="-0.22701">
        <ele>17.5</ele>
        <time>2023-10-11T14:44:32Z</time>
      </trkpt>
      <trkpt lat="49.19159" lon="-0.2271">
        <ele>17.7</ele>
        <time>2023-10-11T14:44:33Z</time>
      </trkpt>
      <trkpt lat="49.19163" lon="-0.22719">
        <ele>17.8</ele>
        <time>2023-10-11T14:44:34Z</time>
      </trkpt>
      <trkpt lat="49.19168" lon="-0.22726">
        <ele>18.1</ele>
        <time>2023-10-11T14:44:35Z</time>
      </trkpt>
      <trkpt lat="49.19174" lon="-0.22733">
        <ele>18.3</ele>
        <time>2023-10-11T14:44:36Z</time>
      </trkpt>
      <trkpt lat="49.19179" lon="-0.22739">
        <ele>18.6</ele>
        <time>2023-10-11T14:44:37Z</time>
      </trkpt>
      <trkpt lat="49.19185" lon="-0.22744">
        <ele>18.9</ele>
        <time>2023-10-11T14:44:38Z</time>
      </trkpt>
      <trkpt lat="49.1919" lon="-0.2275">
        <ele>19.1</ele>
        <time>2023-10-11T14:44:39Z</time>
      </trkpt>
      <trkpt lat="49.19197" lon="-0.22755">
        <ele>19.3</ele>
        <time>2023-10-11T14:44:40Z</time>
      </trkpt>
      <trkpt lat="49.19203" lon="-0.2276">
        <ele>19.6</ele>
        <time>2023-10-11T14:44:41Z</time>
      </trkpt>
      <trkpt lat="49.1921" lon="-0.22765">
        <ele>19.8</ele>
        <time>2023-10-11T14:44:42Z</time>
      </trkpt>
      <trkpt lat="49.19216" lon="-0.2277">
        <ele>20</ele>
        <time>2023-10-11T14:44:43Z</time>
      </trkpt>
      <trkpt lat="49.19223" lon="-0.22776">
        <ele>20.2</ele>
        <time>2023-10-11T14:44:44Z</time>
      </trkpt>
      <trkpt lat="49.19229" lon="-0.22781">
        <ele>20.4</ele>
        <time>2023-10-11T14:44:45Z</time>
      </trkpt>
      <trkpt lat="49.19235" lon="-0.22787">
        <ele>20.7</ele>
        <time>2023-10-11T14:44:46Z</time>
      </trkpt>
      <trkpt lat="49.19241" lon="-0.22792">
        <ele>20.9</ele>
        <time>2023-10-11T14:44:47Z</time>
      </trkpt>
      <trkpt lat="49.19247" lon="-0.22798">
        <ele>21.1</ele>
        <time>2023-10-11T14:44:48Z</time>
      </trkpt>
      <trkpt lat="49.19253" lon="-0.22804">
        <ele>21.3</ele>
        <time>2023-10-11T14:44:49Z</time>
      </trkpt>
      <trkpt lat="49.19259" lon="-0.22809">
        <ele>21.6</ele>
        <time>2023-10-11T14:44:50Z</time>
      </trkpt>
      <trkpt lat="49.19265" lon="-0.22815">
        <ele>21.8</ele>
        <time>2023-10-11T14:44:51Z</time>
      </trkpt>
      <trkpt lat="49.19271" lon="-0.22821">
        <ele>22</ele>
        <time>2023-10-11T14:44:52Z</time>
      </trkpt>
      <trkpt lat="49.19277" lon="-0.22828">
        <ele>22.2</ele>
        <time>2023-10-11T14:44:53Z</time>
      </trkpt>
      <trkpt lat="49.19283" lon="-0.22834">
        <ele>22.4</ele>
        <time>2023-10-11T14:44:54Z</time>
      </trkpt>
      <trkpt lat="49.19289" lon="-0.22841">
        <ele>22.6</ele>
        <time>2023-10-11T14:44:55Z</time>
      </trkpt>
      <trkpt lat="49.19295" lon="-0.22848">
        <ele>22.8</ele>
        <time>2023-10-11T14:44:56Z</time>
      </trkpt>
      <trkpt lat="49.193" lon="-0.22855">
        <ele>23</ele>
        <time>2023-10-11T14:44:57Z</time>
      </trkpt>
      <trkpt lat="49.19306" lon="-0.22861">
        <ele>23.2</ele>
        <time>2023-10-11T14:44:58Z</time>
      </trkpt>
      <trkpt lat="49.19312" lon="-0.22868">
        <ele>23.4</ele>
        <time>2023-10-11T14:44:59Z</time>
      </trkpt>
      <trkpt lat="49.19318" lon="-0.22874">
        <ele>23.6</ele>
        <time>2023-10-11T14:45:00Z</time>
      </trkpt>
      <trkpt lat="49.19324" lon="-0.22881">
        <ele>23.7</ele>
        <time>2023-10-11T14:45:01Z</time>
      </trkpt>
      <trkpt lat="49.1933" lon="-0.22887">
        <ele>23.9</ele>
        <time>2023-10-11T14:45:02Z</time>
      </trkpt>
      <trkpt lat="49.19336" lon="-0.22894">
        <ele>24</ele>
        <time>2023-10-11T14:45:03Z</time>
      </trkpt>
      <trkpt lat="49.19342" lon="-0.22901">
        <ele>24.1</ele>
        <time>2023-10-11T14:45:04Z</time>
      </trkpt>
      <trkpt lat="49.19348" lon="-0.22908">
        <ele>24.3</ele>
        <time>2023-10-11T14:45:05Z</time>
      </trkpt>
      <trkpt lat="49.19354" lon="-0.22916">
        <ele>24.4</ele>
        <time>2023-10-11T14:45:06Z</time>
      </trkpt>
      <trkpt lat="49.19361" lon="-0.22923">
        <ele>24.6</ele>
        <time>2023-10-11T14:45:07Z</time>
      </trkpt>
      <trkpt lat="49.19367" lon="-0.2293">
        <ele>24.8</ele>
        <time>2023-10-11T14:45:08Z</time>
      </trkpt>
      <trkpt lat="49.19373" lon="-0.22937">
        <ele>25</ele>
        <time>2023-10-11T14:45:09Z</time>
      </trkpt>
      <trkpt lat="49.19379" lon="-0.22944">
        <ele>25.2</ele>
        <time>2023-10-11T14:45:10Z</time>
      </trkpt>
      <trkpt lat="49.19385" lon="-0.22951">
        <ele>25.3</ele>
        <time>2023-10-11T14:45:11Z</time>
      </trkpt>
      <trkpt lat="49.19391" lon="-0.22958">
        <ele>25.5</ele>
        <time>2023-10-11T14:45:12Z</time>
      </trkpt>
      <trkpt lat="49.19397" lon="-0.22964">
        <ele>25.8</ele>
        <time>2023-10-11T14:45:13Z</time>
      </trkpt>
      <trkpt lat="49.19403" lon="-0.22971">
        <ele>26</ele>
        <time>2023-10-11T14:45:14Z</time>
      </trkpt>
      <trkpt lat="49.19409" lon="-0.22977">
        <ele>26.2</ele>
        <time>2023-10-11T14:45:15Z</time>
      </trkpt>
      <trkpt lat="49.19414" lon="-0.22983">
        <ele>26.4</ele>
        <time>2023-10-11T14:45:16Z</time>
      </trkpt>
      <trkpt lat="49.1942" lon="-0.22988">
        <ele>26.6</ele>
        <time>2023-10-11T14:45:17Z</time>
      </trkpt>
      <trkpt lat="49.19425" lon="-0.22994">
        <ele>26.7</ele>
        <time>2023-10-11T14:45:18Z</time>
      </trkpt>
      <trkpt lat="49.1943" lon="-0.22999">
        <ele>26.9</ele>
        <time>2023-10-11T14:45:19Z</time>
      </trkpt>
      <trkpt lat="49.19436" lon="-0.23005">
        <ele>27</ele>
        <time>2023-10-11T14:45:20Z</time>
      </trkpt>
      <trkpt lat="49.19441" lon="-0.2301">
        <ele>27.2</ele>
        <time>2023-10-11T14:45:21Z</time>
      </trkpt>
      <trkpt lat="49.19447" lon="-0.23015">
        <ele>27.3</ele>
        <time>2023-10-11T14:45:22Z</time>
      </trkpt>
      <trkpt lat="49.19452" lon="-0.2302">
        <ele>27.5</ele>
        <time>2023-10-11T14:45:23Z</time>
      </trkpt>
      <trkpt lat="49.19458" lon="-0.23026">
        <ele>27.6</ele>
        <time>2023-10-11T14:45:24Z</time>
      </trkpt>
      <trkpt lat="49.19463" lon="-0.23031">
        <ele>27.7</ele>
        <time>2023-10-11T14:45:25Z</time>
      </trkpt>
      <trkpt lat="49.19469" lon="-0.23037">
        <ele>27.8</ele>
        <time>2023-10-11T14:45:26Z</time>
      </trkpt>
      <trkpt lat="49.19475" lon="-0.23042">
        <ele>27.9</ele>
        <time>2023-10-11T14:45:27Z</time>
      </trkpt>
      <trkpt lat="49.19481" lon="-0.23047">
        <ele>28</ele>
        <time>2023-10-11T14:45:28Z</time>
      </trkpt>
      <trkpt lat="49.19488" lon="-0.23053">
        <ele>28.1</ele>
        <time>2023-10-11T14:45:29Z</time>
      </trkpt>
      <trkpt lat="49.19494" lon="-0.23058">
        <ele>28.2</ele>
        <time>2023-10-11T14:45:30Z</time>
      </trkpt>
      <trkpt lat="49.19501" lon="-0.23064">
        <ele>28.3</ele>
        <time>2023-10-11T14:45:31Z</time>
      </trkpt>
      <trkpt lat="49.19507" lon="-0.2307">
        <ele>28.3</ele>
        <time>2023-10-11T14:45:32Z</time>
      </trkpt>
      <trkpt lat="49.19514" lon="-0.23076">
        <ele>28.4</ele>
        <time>2023-10-11T14:45:33Z</time>
      </trkpt>
      <trkpt lat="49.1952" lon="-0.23082">
        <ele>28.4</ele>
        <time>2023-10-11T14:45:34Z</time>
      </trkpt>
      <trkpt lat="49.19527" lon="-0.23088">
        <ele>28.4</ele>
        <time>2023-10-11T14:45:35Z</time>
      </trkpt>
      <trkpt lat="49.19533" lon="-0.23094">
        <ele>28.4</ele>
        <time>2023-10-11T14:45:36Z</time>
      </trkpt>
      <trkpt lat="49.1954" lon="-0.231">
        <ele>28.4</ele>
        <time>2023-10-11T14:45:37Z</time>
      </trkpt>
      <trkpt lat="49.19547" lon="-0.23106">
        <ele>28.3</ele>
        <time>2023-10-11T14:45:38Z</time>
      </trkpt>
      <trkpt lat="49.19554" lon="-0.23112">
        <ele>28.3</ele>
        <time>2023-10-11T14:45:39Z</time>
      </trkpt>
      <trkpt lat="49.19561" lon="-0.23119">
        <ele>28.2</ele>
        <time>2023-10-11T14:45:40Z</time>
      </trkpt>
      <trkpt lat="49.19569" lon="-0.23125">
        <ele>28.2</ele>
        <time>2023-10-11T14:45:41Z</time>
      </trkpt>
      <trkpt lat="49.19576" lon="-0.23131">
        <ele>28.2</ele>
        <time>2023-10-11T14:45:42Z</time>
      </trkpt>
      <trkpt lat="49.19584" lon="-0.23137">
        <ele>28.2</ele>
        <time>2023-10-11T14:45:43Z</time>
      </trkpt>
      <trkpt lat="49.19592" lon="-0.23143">
        <ele>28.1</ele>
        <time>2023-10-11T14:45:44Z</time>
      </trkpt>
      <trkpt lat="49.196" lon="-0.23148">
        <ele>28.1</ele>
        <time>2023-10-11T14:45:45Z</time>
      </trkpt>
      <trkpt lat="49.19608" lon="-0.23154">
        <ele>28.1</ele>
        <time>2023-10-11T14:45:46Z</time>
      </trkpt>
      <trkpt lat="49.19616" lon="-0.23159">
        <ele>28.1</ele>
        <time>2023-10-11T14:45:47Z</time>
      </trkpt>
      <trkpt lat="49.19624" lon="-0.23164">
        <ele>28.1</ele>
        <time>2023-10-11T14:45:48Z</time>
      </trkpt>
      <trkpt lat="49.19633" lon="-0.23169">
        <ele>28.1</ele>
        <time>2023-10-11T14:45:49Z</time>
      </trkpt>
      <trkpt lat="49.19641" lon="-0.23174">
        <ele>28.1</ele>
        <time>2023-10-11T14:45:50Z</time>
      </trkpt>
      <trkpt lat="49.19649" lon="-0.23178">
        <ele>28.2</ele>
        <time>2023-10-11T14:45:51Z</time>
      </trkpt>
      <trkpt lat="49.19657" lon="-0.23183">
        <ele>28.2</ele>
        <time>2023-10-11T14:45:52Z</time>
      </trkpt>
      <trkpt lat="49.19665" lon="-0.23187">
        <ele>28.2</ele>
        <time>2023-10-11T14:45:53Z</time>
      </trkpt>
      <trkpt lat="49.19674" lon="-0.23191">
        <ele>28.3</ele>
        <time>2023-10-11T14:45:54Z</time>
      </trkpt>
      <trkpt lat="49.19682" lon="-0.23196">
        <ele>28.4</ele>
        <time>2023-10-11T14:45:55Z</time>
      </trkpt>
      <trkpt lat="49.1969" lon="-0.23201">
        <ele>28.5</ele>
        <time>2023-10-11T14:45:56Z</time>
      </trkpt>
      <trkpt lat="49.19698" lon="-0.23206">
        <ele>28.6</ele>
        <time>2023-10-11T14:45:57Z</time>
      </trkpt>
      <trkpt lat="49.19707" lon="-0.2321">
        <ele>28.7</ele>
        <time>2023-10-11T14:45:58Z</time>
      </trkpt>
      <trkpt lat="49.19715" lon="-0.23215">
        <ele>28.8</ele>
        <time>2023-10-11T14:45:59Z</time>
      </trkpt>
      <trkpt lat="49.19723" lon="-0.2322">
        <ele>28.9</ele>
        <time>2023-10-11T14:46:00Z</time>
      </trkpt>
      <trkpt lat="49.19731" lon="-0.23225">
        <ele>29</ele>
        <time>2023-10-11T14:46:01Z</time>
      </trkpt>
      <trkpt lat="49.19739" lon="-0.2323">
        <ele>29.1</ele>
        <time>2023-10-11T14:46:02Z</time>
      </trkpt>
      <trkpt lat="49.19747" lon="-0.23235">
        <ele>29.2</ele>
        <time>2023-10-11T14:46:03Z</time>
      </trkpt>
      <trkpt lat="49.19755" lon="-0.2324">
        <ele>29.3</ele>
        <time>2023-10-11T14:46:04Z</time>
      </trkpt>
      <trkpt lat="49.19763" lon="-0.23245">
        <ele>29.5</ele>
        <time>2023-10-11T14:46:05Z</time>
      </trkpt>
      <trkpt lat="49.1977" lon="-0.2325">
        <ele>29.6</ele>
        <time>2023-10-11T14:46:06Z</time>
      </trkpt>
      <trkpt lat="49.19778" lon="-0.23255">
        <ele>29.7</ele>
        <time>2023-10-11T14:46:07Z</time>
      </trkpt>
      <trkpt lat="49.19785" lon="-0.2326">
        <ele>29.8</ele>
        <time>2023-10-11T14:46:08Z</time>
      </trkpt>
      <trkpt lat="49.19793" lon="-0.23265">
        <ele>29.8</ele>
        <time>2023-10-11T14:46:09Z</time>
      </trkpt>
      <trkpt lat="49.198" lon="-0.2327">
        <ele>29.9</ele>
        <time>2023-10-11T14:46:10Z</time>
      </trkpt>
      <trkpt lat="49.19807" lon="-0.23276">
        <ele>30</ele>
        <time>2023-10-11T14:46:11Z</time>
      </trkpt>
      <trkpt lat="49.19815" lon="-0.23281">
        <ele>30.1</ele>
        <time>2023-10-11T14:46:12Z</time>
      </trkpt>
      <trkpt lat="49.19822" lon="-0.23287">
        <ele>30.2</ele>
        <time>2023-10-11T14:46:13Z</time>
      </trkpt>
      <trkpt lat="49.1983" lon="-0.23293">
        <ele>30.3</ele>
        <time>2023-10-11T14:46:14Z</time>
      </trkpt>
      <trkpt lat="49.19838" lon="-0.23299">
        <ele>30.4</ele>
        <time>2023-10-11T14:46:15Z</time>
      </trkpt>
      <trkpt lat="49.19845" lon="-0.23305">
        <ele>30.5</ele>
        <time>2023-10-11T14:46:16Z</time>
      </trkpt>
      <trkpt lat="49.19853" lon="-0.2331">
        <ele>30.6</ele>
        <time>2023-10-11T14:46:17Z</time>
      </trkpt>
      <trkpt lat="49.19861" lon="-0.23316">
        <ele>30.7</ele>
        <time>2023-10-11T14:46:18Z</time>
      </trkpt>
      <trkpt lat="49.19868" lon="-0.23322">
        <ele>30.7</ele>
        <time>2023-10-11T14:46:19Z</time>
      </trkpt>
      <trkpt lat="49.19876" lon="-0.23328">
        <ele>30.8</ele>
        <time>2023-10-11T14:46:20Z</time>
      </trkpt>
      <trkpt lat="49.19883" lon="-0.23334">
        <ele>30.8</ele>
        <time>2023-10-11T14:46:21Z</time>
      </trkpt>
      <trkpt lat="49.1989" lon="-0.23339">
        <ele>30.9</ele>
        <time>2023-10-11T14:46:22Z</time>
      </trkpt>
      <trkpt lat="49.19898" lon="-0.23345">
        <ele>31</ele>
        <time>2023-10-11T14:46:23Z</time>
      </trkpt>
      <trkpt lat="49.19905" lon="-0.23351">
        <ele>31</ele>
        <time>2023-10-11T14:46:24Z</time>
      </trkpt>
      <trkpt lat="49.19913" lon="-0.23357">
        <ele>31.1</ele>
        <time>2023-10-11T14:46:25Z</time>
      </trkpt>
      <trkpt lat="49.1992" lon="-0.23362">
        <ele>31.1</ele>
        <time>2023-10-11T14:46:26Z</time>
      </trkpt>
      <trkpt lat="49.19928" lon="-0.23368">
        <ele>31.2</ele>
        <time>2023-10-11T14:46:27Z</time>
      </trkpt>
      <trkpt lat="49.19936" lon="-0.23374">
        <ele>31.3</ele>
        <time>2023-10-11T14:46:28Z</time>
      </trkpt>
      <trkpt lat="49.19944" lon="-0.2338">
        <ele>31.3</ele>
        <time>2023-10-11T14:46:29Z</time>
      </trkpt>
      <trkpt lat="49.19952" lon="-0.23385">
        <ele>31.4</ele>
        <time>2023-10-11T14:46:30Z</time>
      </trkpt>
      <trkpt lat="49.1996" lon="-0.23391">
        <ele>31.5</ele>
        <time>2023-10-11T14:46:31Z</time>
      </trkpt>
      <trkpt lat="49.19968" lon="-0.23396">
        <ele>31.5</ele>
        <time>2023-10-11T14:46:32Z</time>
      </trkpt>
      <trkpt lat="49.19976" lon="-0.23401">
        <ele>31.6</ele>
        <time>2023-10-11T14:46:33Z</time>
      </trkpt>
      <trkpt lat="49.19984" lon="-0.23405">
        <ele>31.7</ele>
        <time>2023-10-11T14:46:34Z</time>
      </trkpt>
      <trkpt lat="49.19992" lon="-0.2341">
        <ele>31.8</ele>
        <time>2023-10-11T14:46:35Z</time>
      </trkpt>
      <trkpt lat="49.20001" lon="-0.23414">
        <ele>31.9</ele>
        <time>2023-10-11T14:46:36Z</time>
      </trkpt>
      <trkpt lat="49.20009" lon="-0.23418">
        <ele>31.9</ele>
        <time>2023-10-11T14:46:37Z</time>
      </trkpt>
      <trkpt lat="49.20017" lon="-0.23422">
        <ele>32</ele>
        <time>2023-10-11T14:46:38Z</time>
      </trkpt>
      <trkpt lat="49.20025" lon="-0.23425">
        <ele>32</ele>
        <time>2023-10-11T14:46:39Z</time>
      </trkpt>
      <trkpt lat="49.20033" lon="-0.23428">
        <ele>32</ele>
        <time>2023-10-11T14:46:40Z</time>
      </trkpt>
      <trkpt lat="49.20041" lon="-0.23431">
        <ele>32.1</ele>
        <time>2023-10-11T14:46:41Z</time>
      </trkpt>
      <trkpt lat="49.2005" lon="-0.23434">
        <ele>32.1</ele>
        <time>2023-10-11T14:46:42Z</time>
      </trkpt>
      <trkpt lat="49.20058" lon="-0.23436">
        <ele>32.2</ele>
        <time>2023-10-11T14:46:43Z</time>
      </trkpt>
      <trkpt lat="49.20066" lon="-0.23439">
        <ele>32.2</ele>
        <time>2023-10-11T14:46:44Z</time>
      </trkpt>
      <trkpt lat="49.20074" lon="-0.23442">
        <ele>32.3</ele>
        <time>2023-10-11T14:46:45Z</time>
      </trkpt>
      <trkpt lat="49.20082" lon="-0.23445">
        <ele>32.3</ele>
        <time>2023-10-11T14:46:46Z</time>
      </trkpt>
      <trkpt lat="49.2009" lon="-0.23447">
        <ele>32.4</ele>
        <time>2023-10-11T14:46:47Z</time>
      </trkpt>
      <trkpt lat="49.20099" lon="-0.2345">
        <ele>32.5</ele>
        <time>2023-10-11T14:46:48Z</time>
      </trkpt>
      <trkpt lat="49.20107" lon="-0.23452">
        <ele>32.5</ele>
        <time>2023-10-11T14:46:49Z</time>
      </trkpt>
      <trkpt lat="49.20116" lon="-0.23455">
        <ele>32.6</ele>
        <time>2023-10-11T14:46:50Z</time>
      </trkpt>
      <trkpt lat="49.20124" lon="-0.23457">
        <ele>32.6</ele>
        <time>2023-10-11T14:46:51Z</time>
      </trkpt>
      <trkpt lat="49.20133" lon="-0.2346">
        <ele>32.7</ele>
        <time>2023-10-11T14:46:52Z</time>
      </trkpt>
      <trkpt lat="49.20141" lon="-0.23463">
        <ele>32.8</ele>
        <time>2023-10-11T14:46:53Z</time>
      </trkpt>
      <trkpt lat="49.2015" lon="-0.23465">
        <ele>32.9</ele>
        <time>2023-10-11T14:46:54Z</time>
      </trkpt>
      <trkpt lat="49.20158" lon="-0.23468">
        <ele>32.9</ele>
        <time>2023-10-11T14:46:55Z</time>
      </trkpt>
      <trkpt lat="49.20166" lon="-0.23473">
        <ele>33</ele>
        <time>2023-10-11T14:46:56Z</time>
      </trkpt>
      <trkpt lat="49.20174" lon="-0.23478">
        <ele>33.1</ele>
        <time>2023-10-11T14:46:57Z</time>
      </trkpt>
      <trkpt lat="49.20181" lon="-0.23485">
        <ele>33.1</ele>
        <time>2023-10-11T14:46:58Z</time>
      </trkpt>
      <trkpt lat="49.20188" lon="-0.23491">
        <ele>33</ele>
        <time>2023-10-11T14:46:59Z</time>
      </trkpt>
      <trkpt lat="49.20195" lon="-0.23499">
        <ele>33</ele>
        <time>2023-10-11T14:47:00Z</time>
      </trkpt>
      <trkpt lat="49.20203" lon="-0.23506">
        <ele>33</ele>
        <time>2023-10-11T14:47:01Z</time>
      </trkpt>
      <trkpt lat="49.2021" lon="-0.23514">
        <ele>32.9</ele>
        <time>2023-10-11T14:47:02Z</time>
      </trkpt>
      <trkpt lat="49.20217" lon="-0.23521">
        <ele>32.9</ele>
        <time>2023-10-11T14:47:03Z</time>
      </trkpt>
      <trkpt lat="49.20224" lon="-0.23528">
        <ele>32.9</ele>
        <time>2023-10-11T14:47:04Z</time>
      </trkpt>
      <trkpt lat="49.20231" lon="-0.23536">
        <ele>32.9</ele>
        <time>2023-10-11T14:47:05Z</time>
      </trkpt>
      <trkpt lat="49.20238" lon="-0.23544">
        <ele>32.9</ele>
        <time>2023-10-11T14:47:06Z</time>
      </trkpt>
      <trkpt lat="49.20245" lon="-0.23552">
        <ele>32.9</ele>
        <time>2023-10-11T14:47:07Z</time>
      </trkpt>
      <trkpt lat="49.20252" lon="-0.2356">
        <ele>32.9</ele>
        <time>2023-10-11T14:47:08Z</time>
      </trkpt>
      <trkpt lat="49.20259" lon="-0.23568">
        <ele>32.9</ele>
        <time>2023-10-11T14:47:09Z</time>
      </trkpt>
      <trkpt lat="49.20266" lon="-0.23576">
        <ele>32.8</ele>
        <time>2023-10-11T14:47:10Z</time>
      </trkpt>
      <trkpt lat="49.20273" lon="-0.23584">
        <ele>32.8</ele>
        <time>2023-10-11T14:47:11Z</time>
      </trkpt>
      <trkpt lat="49.2028" lon="-0.23592">
        <ele>32.7</ele>
        <time>2023-10-11T14:47:12Z</time>
      </trkpt>
      <trkpt lat="49.20287" lon="-0.236">
        <ele>32.7</ele>
        <time>2023-10-11T14:47:13Z</time>
      </trkpt>
      <trkpt lat="49.20295" lon="-0.23609">
        <ele>32.6</ele>
        <time>2023-10-11T14:47:14Z</time>
      </trkpt>
      <trkpt lat="49.20302" lon="-0.23617">
        <ele>32.6</ele>
        <time>2023-10-11T14:47:15Z</time>
      </trkpt>
      <trkpt lat="49.20309" lon="-0.23625">
        <ele>32.5</ele>
        <time>2023-10-11T14:47:16Z</time>
      </trkpt>
      <trkpt lat="49.20317" lon="-0.23634">
        <ele>32.4</ele>
        <time>2023-10-11T14:47:17Z</time>
      </trkpt>
      <trkpt lat="49.20324" lon="-0.23642">
        <ele>32.3</ele>
        <time>2023-10-11T14:47:18Z</time>
      </trkpt>
      <trkpt lat="49.20332" lon="-0.23651">
        <ele>32.1</ele>
        <time>2023-10-11T14:47:19Z</time>
      </trkpt>
      <trkpt lat="49.2034" lon="-0.23659">
        <ele>32</ele>
        <time>2023-10-11T14:47:20Z</time>
      </trkpt>
      <trkpt lat="49.20348" lon="-0.23668">
        <ele>31.9</ele>
        <time>2023-10-11T14:47:21Z</time>
      </trkpt>
      <trkpt lat="49.20356" lon="-0.23676">
        <ele>31.8</ele>
        <time>2023-10-11T14:47:22Z</time>
      </trkpt>
      <trkpt lat="49.20364" lon="-0.23685">
        <ele>31.7</ele>
        <time>2023-10-11T14:47:23Z</time>
      </trkpt>
      <trkpt lat="49.20372" lon="-0.23694">
        <ele>31.5</ele>
        <time>2023-10-11T14:47:24Z</time>
      </trkpt>
      <trkpt lat="49.2038" lon="-0.23703">
        <ele>31.3</ele>
        <time>2023-10-11T14:47:25Z</time>
      </trkpt>
      <trkpt lat="49.20388" lon="-0.23712">
        <ele>31.1</ele>
        <time>2023-10-11T14:47:26Z</time>
      </trkpt>
      <trkpt lat="49.20396" lon="-0.23721">
        <ele>31</ele>
        <time>2023-10-11T14:47:27Z</time>
      </trkpt>
      <trkpt lat="49.20404" lon="-0.2373">
        <ele>30.8</ele>
        <time>2023-10-11T14:47:28Z</time>
      </trkpt>
      <trkpt lat="49.20413" lon="-0.23739">
        <ele>30.6</ele>
        <time>2023-10-11T14:47:29Z</time>
      </trkpt>
      <trkpt lat="49.20421" lon="-0.23748">
        <ele>30.4</ele>
        <time>2023-10-11T14:47:30Z</time>
      </trkpt>
      <trkpt lat="49.20429" lon="-0.23757">
        <ele>30.1</ele>
        <time>2023-10-11T14:47:31Z</time>
      </trkpt>
      <trkpt lat="49.20438" lon="-0.23766">
        <ele>29.9</ele>
        <time>2023-10-11T14:47:32Z</time>
      </trkpt>
      <trkpt lat="49.20446" lon="-0.23776">
        <ele>29.7</ele>
        <time>2023-10-11T14:47:33Z</time>
      </trkpt>
      <trkpt lat="49.20455" lon="-0.23785">
        <ele>29.5</ele>
        <time>2023-10-11T14:47:34Z</time>
      </trkpt>
      <trkpt lat="49.20463" lon="-0.23795">
        <ele>29.3</ele>
        <time>2023-10-11T14:47:35Z</time>
      </trkpt>
      <trkpt lat="49.20472" lon="-0.23805">
        <ele>29</ele>
        <time>2023-10-11T14:47:36Z</time>
      </trkpt>
      <trkpt lat="49.2048" lon="-0.23815">
        <ele>28.7</ele>
        <time>2023-10-11T14:47:37Z</time>
      </trkpt>
      <trkpt lat="49.20489" lon="-0.23824">
        <ele>28.5</ele>
        <time>2023-10-11T14:47:38Z</time>
      </trkpt>
      <trkpt lat="49.20497" lon="-0.23833">
        <ele>28.1</ele>
        <time>2023-10-11T14:47:39Z</time>
      </trkpt>
      <trkpt lat="49.20505" lon="-0.23843">
        <ele>27.8</ele>
        <time>2023-10-11T14:47:40Z</time>
      </trkpt>
      <trkpt lat="49.20514" lon="-0.23852">
        <ele>27.4</ele>
        <time>2023-10-11T14:47:41Z</time>
      </trkpt>
      <trkpt lat="49.20523" lon="-0.23862">
        <ele>27.1</ele>
        <time>2023-10-11T14:47:42Z</time>
      </trkpt>
      <trkpt lat="49.20531" lon="-0.23871">
        <ele>26.9</ele>
        <time>2023-10-11T14:47:43Z</time>
      </trkpt>
      <trkpt lat="49.20538" lon="-0.2388">
        <ele>26.8</ele>
        <time>2023-10-11T14:47:44Z</time>
      </trkpt>
      <trkpt lat="49.20545" lon="-0.23886">
        <ele>26.8</ele>
        <time>2023-10-11T14:47:45Z</time>
      </trkpt>
      <trkpt lat="49.20551" lon="-0.2389">
        <ele>26.8</ele>
        <time>2023-10-11T14:47:46Z</time>
      </trkpt>
      <trkpt lat="49.20555" lon="-0.23892">
        <ele>26.8</ele>
        <time>2023-10-11T14:47:47Z</time>
      </trkpt>
      <trkpt lat="49.20559" lon="-0.23895">
        <ele>26.7</ele>
        <time>2023-10-11T14:47:48Z</time>
      </trkpt>
      <trkpt lat="49.20563" lon="-0.23898">
        <ele>26.6</ele>
        <time>2023-10-11T14:47:49Z</time>
      </trkpt>
      <trkpt lat="49.20567" lon="-0.23902">
        <ele>26.5</ele>
        <time>2023-10-11T14:47:50Z</time>
      </trkpt>
      <trkpt lat="49.20572" lon="-0.23905">
        <ele>26.4</ele>
        <time>2023-10-11T14:47:51Z</time>
      </trkpt>
      <trkpt lat="49.20576" lon="-0.23907">
        <ele>26.2</ele>
        <time>2023-10-11T14:47:52Z</time>
      </trkpt>
      <trkpt lat="49.20581" lon="-0.23907">
        <ele>26.1</ele>
        <time>2023-10-11T14:47:53Z</time>
      </trkpt>
      <trkpt lat="49.20586" lon="-0.23906">
        <ele>26</ele>
        <time>2023-10-11T14:47:54Z</time>
      </trkpt>
      <trkpt lat="49.20591" lon="-0.23905">
        <ele>25.9</ele>
        <time>2023-10-11T14:47:55Z</time>
      </trkpt>
      <trkpt lat="49.20596" lon="-0.23904">
        <ele>25.8</ele>
        <time>2023-10-11T14:47:56Z</time>
      </trkpt>
      <trkpt lat="49.20602" lon="-0.23903">
        <ele>25.7</ele>
        <time>2023-10-11T14:47:57Z</time>
      </trkpt>
      <trkpt lat="49.20608" lon="-0.23902">
        <ele>25.6</ele>
        <time>2023-10-11T14:47:58Z</time>
      </trkpt>
      <trkpt lat="49.20614" lon="-0.23902">
        <ele>25.5</ele>
        <time>2023-10-11T14:47:59Z</time>
      </trkpt>
      <trkpt lat="49.2062" lon="-0.23902">
        <ele>25.4</ele>
        <time>2023-10-11T14:48:00Z</time>
      </trkpt>
      <trkpt lat="49.20626" lon="-0.23901">
        <ele>25.3</ele>
        <time>2023-10-11T14:48:01Z</time>
      </trkpt>
      <trkpt lat="49.20632" lon="-0.239">
        <ele>25.2</ele>
        <time>2023-10-11T14:48:02Z</time>
      </trkpt>
      <trkpt lat="49.20638" lon="-0.23899">
        <ele>25.2</ele>
        <time>2023-10-11T14:48:03Z</time>
      </trkpt>
      <trkpt lat="49.20643" lon="-0.23899">
        <ele>25.1</ele>
        <time>2023-10-11T14:48:04Z</time>
      </trkpt>
      <trkpt lat="49.20649" lon="-0.23898">
        <ele>25</ele>
        <time>2023-10-11T14:48:05Z</time>
      </trkpt>
      <trkpt lat="49.20655" lon="-0.23898">
        <ele>24.9</ele>
        <time>2023-10-11T14:48:06Z</time>
      </trkpt>
      <trkpt lat="49.20661" lon="-0.23897">
        <ele>24.8</ele>
        <time>2023-10-11T14:48:07Z</time>
      </trkpt>
      <trkpt lat="49.20667" lon="-0.23895">
        <ele>24.8</ele>
        <time>2023-10-11T14:48:08Z</time>
      </trkpt>
      <trkpt lat="49.20673" lon="-0.23894">
        <ele>24.7</ele>
        <time>2023-10-11T14:48:09Z</time>
      </trkpt>
      <trkpt lat="49.20678" lon="-0.23894">
        <ele>24.7</ele>
        <time>2023-10-11T14:48:10Z</time>
      </trkpt>
      <trkpt lat="49.20684" lon="-0.23893">
        <ele>24.6</ele>
        <time>2023-10-11T14:48:11Z</time>
      </trkpt>
      <trkpt lat="49.2069" lon="-0.23892">
        <ele>24.5</ele>
        <time>2023-10-11T14:48:12Z</time>
      </trkpt>
      <trkpt lat="49.20695" lon="-0.23892">
        <ele>24.5</ele>
        <time>2023-10-11T14:48:13Z</time>
      </trkpt>
      <trkpt lat="49.20701" lon="-0.23892">
        <ele>24.5</ele>
        <time>2023-10-11T14:48:14Z</time>
      </trkpt>
      <trkpt lat="49.20707" lon="-0.23891">
        <ele>24.4</ele>
        <time>2023-10-11T14:48:15Z</time>
      </trkpt>
      <trkpt lat="49.20712" lon="-0.2389">
        <ele>24.4</ele>
        <time>2023-10-11T14:48:16Z</time>
      </trkpt>
      <trkpt lat="49.20718" lon="-0.23889">
        <ele>24.3</ele>
        <time>2023-10-11T14:48:17Z</time>
      </trkpt>
      <trkpt lat="49.20724" lon="-0.23889">
        <ele>24.3</ele>
        <time>2023-10-11T14:48:18Z</time>
      </trkpt>
      <trkpt lat="49.20729" lon="-0.23888">
        <ele>24.2</ele>
        <time>2023-10-11T14:48:19Z</time>
      </trkpt>
      <trkpt lat="49.20735" lon="-0.23887">
        <ele>24.2</ele>
        <time>2023-10-11T14:48:20Z</time>
      </trkpt>
      <trkpt lat="49.2074" lon="-0.23887">
        <ele>24.2</ele>
        <time>2023-10-11T14:48:21Z</time>
      </trkpt>
      <trkpt lat="49.20746" lon="-0.23886">
        <ele>24.1</ele>
        <time>2023-10-11T14:48:22Z</time>
      </trkpt>
      <trkpt lat="49.20752" lon="-0.23885">
        <ele>24.1</ele>
        <time>2023-10-11T14:48:23Z</time>
      </trkpt>
      <trkpt lat="49.20757" lon="-0.23884">
        <ele>24.1</ele>
        <time>2023-10-11T14:48:24Z</time>
      </trkpt>
      <trkpt lat="49.20763" lon="-0.23883">
        <ele>24</ele>
        <time>2023-10-11T14:48:25Z</time>
      </trkpt>
      <trkpt lat="49.20768" lon="-0.23882">
        <ele>24</ele>
        <time>2023-10-11T14:48:26Z</time>
      </trkpt>
      <trkpt lat="49.20773" lon="-0.23881">
        <ele>23.9</ele>
        <time>2023-10-11T14:48:27Z</time>
      </trkpt>
      <trkpt lat="49.20779" lon="-0.2388">
        <ele>23.9</ele>
        <time>2023-10-11T14:48:28Z</time>
      </trkpt>
      <trkpt lat="49.20784" lon="-0.23879">
        <ele>23.8</ele>
        <time>2023-10-11T14:48:29Z</time>
      </trkpt>
      <trkpt lat="49.2079" lon="-0.23877">
        <ele>23.8</ele>
        <time>2023-10-11T14:48:30Z</time>
      </trkpt>
      <trkpt lat="49.20795" lon="-0.23877">
        <ele>23.7</ele>
        <time>2023-10-11T14:48:31Z</time>
      </trkpt>
      <trkpt lat="49.208" lon="-0.23876">
        <ele>23.7</ele>
        <time>2023-10-11T14:48:32Z</time>
      </trkpt>
      <trkpt lat="49.20805" lon="-0.23875">
        <ele>23.7</ele>
        <time>2023-10-11T14:48:33Z</time>
      </trkpt>
      <trkpt lat="49.2081" lon="-0.23875">
        <ele>23.6</ele>
        <time>2023-10-11T14:48:34Z</time>
      </trkpt>
      <trkpt lat="49.20815" lon="-0.23874">
        <ele>23.6</ele>
        <time>2023-10-11T14:48:35Z</time>
      </trkpt>
      <trkpt lat="49.20821" lon="-0.23873">
        <ele>23.6</ele>
        <time>2023-10-11T14:48:36Z</time>
      </trkpt>
      <trkpt lat="49.20826" lon="-0.23873">
        <ele>23.5</ele>
        <time>2023-10-11T14:48:37Z</time>
      </trkpt>
      <trkpt lat="49.2083" lon="-0.23872">
        <ele>23.5</ele>
        <time>2023-10-11T14:48:38Z</time>
      </trkpt>
      <trkpt lat="49.20836" lon="-0.23872">
        <ele>23.4</ele>
        <time>2023-10-11T14:48:39Z</time>
      </trkpt>
      <trkpt lat="49.20841" lon="-0.23871">
        <ele>23.4</ele>
        <time>2023-10-11T14:48:40Z</time>
      </trkpt>
      <trkpt lat="49.20846" lon="-0.2387">
        <ele>23.3</ele>
        <time>2023-10-11T14:48:41Z</time>
      </trkpt>
      <trkpt lat="49.20851" lon="-0.2387">
        <ele>23.3</ele>
        <time>2023-10-11T14:48:42Z</time>
      </trkpt>
      <trkpt lat="49.20856" lon="-0.23869">
        <ele>23.2</ele>
        <time>2023-10-11T14:48:43Z</time>
      </trkpt>
      <trkpt lat="49.20861" lon="-0.23869">
        <ele>23.2</ele>
        <time>2023-10-11T14:48:44Z</time>
      </trkpt>
      <trkpt lat="49.20866" lon="-0.23868">
        <ele>23.1</ele>
        <time>2023-10-11T14:48:45Z</time>
      </trkpt>
      <trkpt lat="49.20872" lon="-0.23867">
        <ele>23</ele>
        <time>2023-10-11T14:48:46Z</time>
      </trkpt>
      <trkpt lat="49.20878" lon="-0.23866">
        <ele>23</ele>
        <time>2023-10-11T14:48:47Z</time>
      </trkpt>
      <trkpt lat="49.20885" lon="-0.23865">
        <ele>22.9</ele>
        <time>2023-10-11T14:48:48Z</time>
      </trkpt>
      <trkpt lat="49.20892" lon="-0.23863">
        <ele>22.8</ele>
        <time>2023-10-11T14:48:49Z</time>
      </trkpt>
      <trkpt lat="49.20899" lon="-0.23862">
        <ele>22.7</ele>
        <time>2023-10-11T14:48:50Z</time>
      </trkpt>
      <trkpt lat="49.20907" lon="-0.23862">
        <ele>22.6</ele>
        <time>2023-10-11T14:48:51Z</time>
      </trkpt>
      <trkpt lat="49.20915" lon="-0.23861">
        <ele>22.5</ele>
        <time>2023-10-11T14:48:52Z</time>
      </trkpt>
      <trkpt lat="49.20923" lon="-0.23861">
        <ele>22.3</ele>
        <time>2023-10-11T14:48:53Z</time>
      </trkpt>
      <trkpt lat="49.20931" lon="-0.2386">
        <ele>22.2</ele>
        <time>2023-10-11T14:48:54Z</time>
      </trkpt>
      <trkpt lat="49.20939" lon="-0.23859">
        <ele>22</ele>
        <time>2023-10-11T14:48:55Z</time>
      </trkpt>
      <trkpt lat="49.20947" lon="-0.23859">
        <ele>21.8</ele>
        <time>2023-10-11T14:48:56Z</time>
      </trkpt>
      <trkpt lat="49.20955" lon="-0.23858">
        <ele>21.6</ele>
        <time>2023-10-11T14:48:57Z</time>
      </trkpt>
      <trkpt lat="49.20963" lon="-0.23857">
        <ele>21.3</ele>
        <time>2023-10-11T14:48:58Z</time>
      </trkpt>
      <trkpt lat="49.20971" lon="-0.23855">
        <ele>21.1</ele>
        <time>2023-10-11T14:48:59Z</time>
      </trkpt>
      <trkpt lat="49.20979" lon="-0.23854">
        <ele>20.9</ele>
        <time>2023-10-11T14:49:00Z</time>
      </trkpt>
      <trkpt lat="49.20988" lon="-0.23852">
        <ele>20.7</ele>
        <time>2023-10-11T14:49:01Z</time>
      </trkpt>
      <trkpt lat="49.20996" lon="-0.23851">
        <ele>20.5</ele>
        <time>2023-10-11T14:49:02Z</time>
      </trkpt>
      <trkpt lat="49.21004" lon="-0.23851">
        <ele>20.2</ele>
        <time>2023-10-11T14:49:03Z</time>
      </trkpt>
      <trkpt lat="49.21012" lon="-0.2385">
        <ele>20</ele>
        <time>2023-10-11T14:49:04Z</time>
      </trkpt>
      <trkpt lat="49.21021" lon="-0.23848">
        <ele>19.8</ele>
        <time>2023-10-11T14:49:05Z</time>
      </trkpt>
      <trkpt lat="49.21029" lon="-0.23846">
        <ele>19.5</ele>
        <time>2023-10-11T14:49:06Z</time>
      </trkpt>
      <trkpt lat="49.21037" lon="-0.23845">
        <ele>19.3</ele>
        <time>2023-10-11T14:49:07Z</time>
      </trkpt>
      <trkpt lat="49.21046" lon="-0.23844">
        <ele>19.2</ele>
        <time>2023-10-11T14:49:08Z</time>
      </trkpt>
      <trkpt lat="49.21054" lon="-0.23843">
        <ele>19</ele>
        <time>2023-10-11T14:49:09Z</time>
      </trkpt>
      <trkpt lat="49.21062" lon="-0.23842">
        <ele>18.8</ele>
        <time>2023-10-11T14:49:10Z</time>
      </trkpt>
      <trkpt lat="49.21069" lon="-0.23842">
        <ele>18.7</ele>
        <time>2023-10-11T14:49:11Z</time>
      </trkpt>
      <trkpt lat="49.21074" lon="-0.23842">
        <ele>18.6</ele>
        <time>2023-10-11T14:49:12Z</time>
      </trkpt>
      <trkpt lat="49.21078" lon="-0.23843">
        <ele>18.6</ele>
        <time>2023-10-11T14:49:13Z</time>
      </trkpt>
      <trkpt lat="49.21081" lon="-0.23849">
        <ele>18.5</ele>
        <time>2023-10-11T14:49:14Z</time>
      </trkpt>
      <trkpt lat="49.21081" lon="-0.23857">
        <ele>18.2</ele>
        <time>2023-10-11T14:49:15Z</time>
      </trkpt>
      <trkpt lat="49.21081" lon="-0.23865">
        <ele>18.1</ele>
        <time>2023-10-11T14:49:16Z</time>
      </trkpt>
      <trkpt lat="49.21081" lon="-0.23873">
        <ele>17.9</ele>
        <time>2023-10-11T14:49:17Z</time>
      </trkpt>
      <trkpt lat="49.21081" lon="-0.23881">
        <ele>17.8</ele>
        <time>2023-10-11T14:49:18Z</time>
      </trkpt>
      <trkpt lat="49.21081" lon="-0.2389">
        <ele>17.6</ele>
        <time>2023-10-11T14:49:19Z</time>
      </trkpt>
      <trkpt lat="49.21081" lon="-0.23899">
        <ele>17.5</ele>
        <time>2023-10-11T14:49:20Z</time>
      </trkpt>
      <trkpt lat="49.2108" lon="-0.23908">
        <ele>17.4</ele>
        <time>2023-10-11T14:49:21Z</time>
      </trkpt>
      <trkpt lat="49.2108" lon="-0.23918">
        <ele>17.3</ele>
        <time>2023-10-11T14:49:22Z</time>
      </trkpt>
      <trkpt lat="49.2108" lon="-0.23927">
        <ele>17.2</ele>
        <time>2023-10-11T14:49:23Z</time>
      </trkpt>
      <trkpt lat="49.2108" lon="-0.23938">
        <ele>17.2</ele>
        <time>2023-10-11T14:49:24Z</time>
      </trkpt>
      <trkpt lat="49.21079" lon="-0.23948">
        <ele>17.1</ele>
        <time>2023-10-11T14:49:25Z</time>
      </trkpt>
      <trkpt lat="49.21079" lon="-0.23958">
        <ele>17.1</ele>
        <time>2023-10-11T14:49:26Z</time>
      </trkpt>
      <trkpt lat="49.21079" lon="-0.23969">
        <ele>17.1</ele>
        <time>2023-10-11T14:49:27Z</time>
      </trkpt>
      <trkpt lat="49.21078" lon="-0.23979">
        <ele>17.1</ele>
        <time>2023-10-11T14:49:28Z</time>
      </trkpt>
      <trkpt lat="49.21078" lon="-0.2399">
        <ele>17.1</ele>
        <time>2023-10-11T14:49:29Z</time>
      </trkpt>
      <trkpt lat="49.21078" lon="-0.24001">
        <ele>17.1</ele>
        <time>2023-10-11T14:49:30Z</time>
      </trkpt>
      <trkpt lat="49.21077" lon="-0.24012">
        <ele>17.2</ele>
        <time>2023-10-11T14:49:31Z</time>
      </trkpt>
      <trkpt lat="49.21077" lon="-0.24023">
        <ele>17.2</ele>
        <time>2023-10-11T14:49:32Z</time>
      </trkpt>
      <trkpt lat="49.21076" lon="-0.24034">
        <ele>17.3</ele>
        <time>2023-10-11T14:49:33Z</time>
      </trkpt>
      <trkpt lat="49.21076" lon="-0.24045">
        <ele>17.4</ele>
        <time>2023-10-11T14:49:34Z</time>
      </trkpt>
      <trkpt lat="49.21075" lon="-0.24056">
        <ele>17.4</ele>
        <time>2023-10-11T14:49:35Z</time>
      </trkpt>
      <trkpt lat="49.21075" lon="-0.24066">
        <ele>17.5</ele>
        <time>2023-10-11T14:49:36Z</time>
      </trkpt>
      <trkpt lat="49.21075" lon="-0.24077">
        <ele>17.5</ele>
        <time>2023-10-11T14:49:37Z</time>
      </trkpt>
      <trkpt lat="49.21074" lon="-0.24088">
        <ele>17.5</ele>
        <time>2023-10-11T14:49:38Z</time>
      </trkpt>
      <trkpt lat="49.21074" lon="-0.24099">
        <ele>17.6</ele>
        <time>2023-10-11T14:49:39Z</time>
      </trkpt>
      <trkpt lat="49.21075" lon="-0.2411">
        <ele>17.6</ele>
        <time>2023-10-11T14:49:40Z</time>
      </trkpt>
      <trkpt lat="49.21075" lon="-0.24121">
        <ele>17.6</ele>
        <time>2023-10-11T14:49:41Z</time>
      </trkpt>
      <trkpt lat="49.21076" lon="-0.24132">
        <ele>17.7</ele>
        <time>2023-10-11T14:49:42Z</time>
      </trkpt>
      <trkpt lat="49.21078" lon="-0.24142">
        <ele>17.7</ele>
        <time>2023-10-11T14:49:43Z</time>
      </trkpt>
      <trkpt lat="49.2108" lon="-0.24152">
        <ele>17.8</ele>
        <time>2023-10-11T14:49:44Z</time>
      </trkpt>
      <trkpt lat="49.21082" lon="-0.24163">
        <ele>17.8</ele>
        <time>2023-10-11T14:49:45Z</time>
      </trkpt>
      <trkpt lat="49.21085" lon="-0.24173">
        <ele>17.9</ele>
        <time>2023-10-11T14:49:46Z</time>
      </trkpt>
      <trkpt lat="49.21088" lon="-0.24183">
        <ele>17.9</ele>
        <time>2023-10-11T14:49:47Z</time>
      </trkpt>
      <trkpt lat="49.21091" lon="-0.24192">
        <ele>18</ele>
        <time>2023-10-11T14:49:48Z</time>
      </trkpt>
      <trkpt lat="49.21094" lon="-0.24202">
        <ele>18.1</ele>
        <time>2023-10-11T14:49:49Z</time>
      </trkpt>
      <trkpt lat="49.21097" lon="-0.24212">
        <ele>18.1</ele>
        <time>2023-10-11T14:49:50Z</time>
      </trkpt>
      <trkpt lat="49.21101" lon="-0.24222">
        <ele>18.2</ele>
        <time>2023-10-11T14:49:51Z</time>
      </trkpt>
      <trkpt lat="49.21104" lon="-0.24232">
        <ele>18.3</ele>
        <time>2023-10-11T14:49:52Z</time>
      </trkpt>
      <trkpt lat="49.21106" lon="-0.24242">
        <ele>18.4</ele>
        <time>2023-10-11T14:49:53Z</time>
      </trkpt>
      <trkpt lat="49.21109" lon="-0.24252">
        <ele>18.5</ele>
        <time>2023-10-11T14:49:54Z</time>
      </trkpt>
      <trkpt lat="49.21112" lon="-0.24262">
        <ele>18.6</ele>
        <time>2023-10-11T14:49:55Z</time>
      </trkpt>
      <trkpt lat="49.21114" lon="-0.24272">
        <ele>18.7</ele>
        <time>2023-10-11T14:49:56Z</time>
      </trkpt>
      <trkpt lat="49.21117" lon="-0.24282">
        <ele>18.8</ele>
        <time>2023-10-11T14:49:57Z</time>
      </trkpt>
      <trkpt lat="49.21119" lon="-0.24292">
        <ele>19</ele>
        <time>2023-10-11T14:49:58Z</time>
      </trkpt>
      <trkpt lat="49.21121" lon="-0.24302">
        <ele>19.1</ele>
        <time>2023-10-11T14:49:59Z</time>
      </trkpt>
      <trkpt lat="49.21124" lon="-0.24312">
        <ele>19.2</ele>
        <time>2023-10-11T14:50:00Z</time>
      </trkpt>
      <trkpt lat="49.21126" lon="-0.24322">
        <ele>19.4</ele>
        <time>2023-10-11T14:50:01Z</time>
      </trkpt>
      <trkpt lat="49.2113" lon="-0.24331">
        <ele>19.5</ele>
        <time>2023-10-11T14:50:02Z</time>
      </trkpt>
      <trkpt lat="49.21134" lon="-0.24339">
        <ele>19.6</ele>
        <time>2023-10-11T14:50:03Z</time>
      </trkpt>
      <trkpt lat="49.21138" lon="-0.24346">
        <ele>19.7</ele>
        <time>2023-10-11T14:50:04Z</time>
      </trkpt>
      <trkpt lat="49.21143" lon="-0.24352">
        <ele>19.7</ele>
        <time>2023-10-11T14:50:05Z</time>
      </trkpt>
      <trkpt lat="49.21149" lon="-0.24357">
        <ele>19.8</ele>
        <time>2023-10-11T14:50:06Z</time>
      </trkpt>
      <trkpt lat="49.21155" lon="-0.2436">
        <ele>19.9</ele>
        <time>2023-10-11T14:50:07Z</time>
      </trkpt>
      <trkpt lat="49.21162" lon="-0.24363">
        <ele>19.9</ele>
        <time>2023-10-11T14:50:08Z</time>
      </trkpt>
      <trkpt lat="49.21169" lon="-0.24365">
        <ele>19.9</ele>
        <time>2023-10-11T14:50:09Z</time>
      </trkpt>
      <trkpt lat="49.21176" lon="-0.24367">
        <ele>20</ele>
        <time>2023-10-11T14:50:10Z</time>
      </trkpt>
      <trkpt lat="49.21183" lon="-0.24367">
        <ele>19.9</ele>
        <time>2023-10-11T14:50:11Z</time>
      </trkpt>
      <trkpt lat="49.2119" lon="-0.24367">
        <ele>19.9</ele>
        <time>2023-10-11T14:50:12Z</time>
      </trkpt>
      <trkpt lat="49.21197" lon="-0.24367">
        <ele>19.8</ele>
        <time>2023-10-11T14:50:13Z</time>
      </trkpt>
      <trkpt lat="49.21205" lon="-0.24367">
        <ele>19.7</ele>
        <time>2023-10-11T14:50:14Z</time>
      </trkpt>
      <trkpt lat="49.21212" lon="-0.24367">
        <ele>19.6</ele>
        <time>2023-10-11T14:50:15Z</time>
      </trkpt>
      <trkpt lat="49.2122" lon="-0.24367">
        <ele>19.4</ele>
        <time>2023-10-11T14:50:16Z</time>
      </trkpt>
      <trkpt lat="49.21228" lon="-0.24367">
        <ele>19.3</ele>
        <time>2023-10-11T14:50:17Z</time>
      </trkpt>
      <trkpt lat="49.21236" lon="-0.24367">
        <ele>19.1</ele>
        <time>2023-10-11T14:50:18Z</time>
      </trkpt>
      <trkpt lat="49.21245" lon="-0.24368">
        <ele>18.9</ele>
        <time>2023-10-11T14:50:19Z</time>
      </trkpt>
      <trkpt lat="49.21253" lon="-0.24368">
        <ele>18.7</ele>
        <time>2023-10-11T14:50:20Z</time>
      </trkpt>
      <trkpt lat="49.21262" lon="-0.24369">
        <ele>18.5</ele>
        <time>2023-10-11T14:50:21Z</time>
      </trkpt>
      <trkpt lat="49.21271" lon="-0.24369">
        <ele>18.3</ele>
        <time>2023-10-11T14:50:22Z</time>
      </trkpt>
      <trkpt lat="49.21279" lon="-0.2437">
        <ele>18</ele>
        <time>2023-10-11T14:50:23Z</time>
      </trkpt>
      <trkpt lat="49.21288" lon="-0.24371">
        <ele>17.8</ele>
        <time>2023-10-11T14:50:24Z</time>
      </trkpt>
      <trkpt lat="49.21297" lon="-0.24372">
        <ele>17.6</ele>
        <time>2023-10-11T14:50:25Z</time>
      </trkpt>
      <trkpt lat="49.21307" lon="-0.24372">
        <ele>17.4</ele>
        <time>2023-10-11T14:50:26Z</time>
      </trkpt>
      <trkpt lat="49.21316" lon="-0.24372">
        <ele>17.2</ele>
        <time>2023-10-11T14:50:27Z</time>
      </trkpt>
      <trkpt lat="49.21325" lon="-0.24372">
        <ele>17</ele>
        <time>2023-10-11T14:50:28Z</time>
      </trkpt>
      <trkpt lat="49.21334" lon="-0.24372">
        <ele>16.9</ele>
        <time>2023-10-11T14:50:29Z</time>
      </trkpt>
      <trkpt lat="49.21344" lon="-0.24373">
        <ele>16.7</ele>
        <time>2023-10-11T14:50:30Z</time>
      </trkpt>
      <trkpt lat="49.21353" lon="-0.24373">
        <ele>16.6</ele>
        <time>2023-10-11T14:50:31Z</time>
      </trkpt>
      <trkpt lat="49.21362" lon="-0.24374">
        <ele>16.4</ele>
        <time>2023-10-11T14:50:32Z</time>
      </trkpt>
      <trkpt lat="49.21372" lon="-0.24376">
        <ele>16.3</ele>
        <time>2023-10-11T14:50:33Z</time>
      </trkpt>
      <trkpt lat="49.21381" lon="-0.24378">
        <ele>16.2</ele>
        <time>2023-10-11T14:50:34Z</time>
      </trkpt>
      <trkpt lat="49.2139" lon="-0.24381">
        <ele>16.1</ele>
        <time>2023-10-11T14:50:35Z</time>
      </trkpt>
      <trkpt lat="49.21399" lon="-0.24385">
        <ele>16.1</ele>
        <time>2023-10-11T14:50:36Z</time>
      </trkpt>
      <trkpt lat="49.21407" lon="-0.24391">
        <ele>16</ele>
        <time>2023-10-11T14:50:37Z</time>
      </trkpt>
      <trkpt lat="49.21416" lon="-0.24396">
        <ele>16</ele>
        <time>2023-10-11T14:50:38Z</time>
      </trkpt>
      <trkpt lat="49.21424" lon="-0.24402">
        <ele>16.1</ele>
        <time>2023-10-11T14:50:39Z</time>
      </trkpt>
      <trkpt lat="49.21432" lon="-0.24408">
        <ele>16.1</ele>
        <time>2023-10-11T14:50:40Z</time>
      </trkpt>
      <trkpt lat="49.2144" lon="-0.24414">
        <ele>16.1</ele>
        <time>2023-10-11T14:50:41Z</time>
      </trkpt>
      <trkpt lat="49.21448" lon="-0.2442">
        <ele>16.2</ele>
        <time>2023-10-11T14:50:42Z</time>
      </trkpt>
      <trkpt lat="49.21457" lon="-0.24426">
        <ele>16.3</ele>
        <time>2023-10-11T14:50:43Z</time>
      </trkpt>
      <trkpt lat="49.21465" lon="-0.24432">
        <ele>16.4</ele>
        <time>2023-10-11T14:50:44Z</time>
      </trkpt>
      <trkpt lat="49.21473" lon="-0.24438">
        <ele>16.5</ele>
        <time>2023-10-11T14:50:45Z</time>
      </trkpt>
      <trkpt lat="49.2148" lon="-0.24443">
        <ele>16.7</ele>
        <time>2023-10-11T14:50:46Z</time>
      </trkpt>
      <trkpt lat="49.21488" lon="-0.24448">
        <ele>16.9</ele>
        <time>2023-10-11T14:50:47Z</time>
      </trkpt>
      <trkpt lat="49.21496" lon="-0.24453">
        <ele>17</ele>
        <time>2023-10-11T14:50:48Z</time>
      </trkpt>
      <trkpt lat="49.21504" lon="-0.24458">
        <ele>17.1</ele>
        <time>2023-10-11T14:50:49Z</time>
      </trkpt>
      <trkpt lat="49.21511" lon="-0.24463">
        <ele>17.3</ele>
        <time>2023-10-11T14:50:50Z</time>
      </trkpt>
      <trkpt lat="49.21519" lon="-0.24468">
        <ele>17.5</ele>
        <time>2023-10-11T14:50:51Z</time>
      </trkpt>
      <trkpt lat="49.21526" lon="-0.24472">
        <ele>17.7</ele>
        <time>2023-10-11T14:50:52Z</time>
      </trkpt>
      <trkpt lat="49.21534" lon="-0.24476">
        <ele>17.9</ele>
        <time>2023-10-11T14:50:53Z</time>
      </trkpt>
      <trkpt lat="49.21541" lon="-0.2448">
        <ele>18.1</ele>
        <time>2023-10-11T14:50:54Z</time>
      </trkpt>
      <trkpt lat="49.21548" lon="-0.24484">
        <ele>18.3</ele>
        <time>2023-10-11T14:50:55Z</time>
      </trkpt>
      <trkpt lat="49.21556" lon="-0.24487">
        <ele>18.5</ele>
        <time>2023-10-11T14:50:56Z</time>
      </trkpt>
      <trkpt lat="49.21563" lon="-0.24491">
        <ele>18.6</ele>
        <time>2023-10-11T14:50:57Z</time>
      </trkpt>
      <trkpt lat="49.2157" lon="-0.24494">
        <ele>18.7</ele>
        <time>2023-10-11T14:50:58Z</time>
      </trkpt>
      <trkpt lat="49.21578" lon="-0.24498">
        <ele>18.8</ele>
        <time>2023-10-11T14:50:59Z</time>
      </trkpt>
      <trkpt lat="49.21585" lon="-0.24501">
        <ele>18.8</ele>
        <time>2023-10-11T14:51:00Z</time>
      </trkpt>
      <trkpt lat="49.21593" lon="-0.24505">
        <ele>18.7</ele>
        <time>2023-10-11T14:51:01Z</time>
      </trkpt>
      <trkpt lat="49.216" lon="-0.24508">
        <ele>18.7</ele>
        <time>2023-10-11T14:51:02Z</time>
      </trkpt>
      <trkpt lat="49.21608" lon="-0.24512">
        <ele>18.6</ele>
        <time>2023-10-11T14:51:03Z</time>
      </trkpt>
      <trkpt lat="49.21615" lon="-0.24515">
        <ele>18.4</ele>
        <time>2023-10-11T14:51:04Z</time>
      </trkpt>
      <trkpt lat="49.21623" lon="-0.24519">
        <ele>18.3</ele>
        <time>2023-10-11T14:51:05Z</time>
      </trkpt>
      <trkpt lat="49.2163" lon="-0.24522">
        <ele>18.2</ele>
        <time>2023-10-11T14:51:06Z</time>
      </trkpt>
      <trkpt lat="49.21638" lon="-0.24526">
        <ele>18</ele>
        <time>2023-10-11T14:51:07Z</time>
      </trkpt>
      <trkpt lat="49.21646" lon="-0.24531">
        <ele>17.8</ele>
        <time>2023-10-11T14:51:08Z</time>
      </trkpt>
      <trkpt lat="49.21654" lon="-0.24535">
        <ele>17.5</ele>
        <time>2023-10-11T14:51:09Z</time>
      </trkpt>
      <trkpt lat="49.21662" lon="-0.24539">
        <ele>17.2</ele>
        <time>2023-10-11T14:51:10Z</time>
      </trkpt>
      <trkpt lat="49.21671" lon="-0.24543">
        <ele>16.6</ele>
        <time>2023-10-11T14:51:11Z</time>
      </trkpt>
      <trkpt lat="49.2168" lon="-0.24548">
        <ele>16.1</ele>
        <time>2023-10-11T14:51:12Z</time>
      </trkpt>
      <trkpt lat="49.21689" lon="-0.24552">
        <ele>15.6</ele>
        <time>2023-10-11T14:51:13Z</time>
      </trkpt>
      <trkpt lat="49.21699" lon="-0.24557">
        <ele>15.1</ele>
        <time>2023-10-11T14:51:14Z</time>
      </trkpt>
      <trkpt lat="49.21708" lon="-0.24563">
        <ele>14.6</ele>
        <time>2023-10-11T14:51:15Z</time>
      </trkpt>
      <trkpt lat="49.21718" lon="-0.2457">
        <ele>14.3</ele>
        <time>2023-10-11T14:51:16Z</time>
      </trkpt>
      <trkpt lat="49.21728" lon="-0.24576">
        <ele>14</ele>
        <time>2023-10-11T14:51:17Z</time>
      </trkpt>
      <trkpt lat="49.21737" lon="-0.24583">
        <ele>13.8</ele>
        <time>2023-10-11T14:51:18Z</time>
      </trkpt>
      <trkpt lat="49.21747" lon="-0.2459">
        <ele>13.7</ele>
        <time>2023-10-11T14:51:19Z</time>
      </trkpt>
      <trkpt lat="49.21755" lon="-0.24598">
        <ele>13.6</ele>
        <time>2023-10-11T14:51:20Z</time>
      </trkpt>
      <trkpt lat="49.21763" lon="-0.24606">
        <ele>13.6</ele>
        <time>2023-10-11T14:51:21Z</time>
      </trkpt>
      <trkpt lat="49.21772" lon="-0.24614">
        <ele>13.5</ele>
        <time>2023-10-11T14:51:22Z</time>
      </trkpt>
      <trkpt lat="49.2178" lon="-0.2462">
        <ele>13.5</ele>
        <time>2023-10-11T14:51:23Z</time>
      </trkpt>
      <trkpt lat="49.21787" lon="-0.24627">
        <ele>13.4</ele>
        <time>2023-10-11T14:51:24Z</time>
      </trkpt>
      <trkpt lat="49.21795" lon="-0.24633">
        <ele>13.4</ele>
        <time>2023-10-11T14:51:25Z</time>
      </trkpt>
      <trkpt lat="49.21802" lon="-0.24639">
        <ele>13.3</ele>
        <time>2023-10-11T14:51:26Z</time>
      </trkpt>
      <trkpt lat="49.21809" lon="-0.24646">
        <ele>13.3</ele>
        <time>2023-10-11T14:51:27Z</time>
      </trkpt>
      <trkpt lat="49.21816" lon="-0.24652">
        <ele>13.2</ele>
        <time>2023-10-11T14:51:28Z</time>
      </trkpt>
      <trkpt lat="49.21822" lon="-0.24659">
        <ele>13.1</ele>
        <time>2023-10-11T14:51:29Z</time>
      </trkpt>
      <trkpt lat="49.21829" lon="-0.24664">
        <ele>13.1</ele>
        <time>2023-10-11T14:51:30Z</time>
      </trkpt>
      <trkpt lat="49.21835" lon="-0.2467">
        <ele>13.1</ele>
        <time>2023-10-11T14:51:31Z</time>
      </trkpt>
      <trkpt lat="49.21841" lon="-0.24676">
        <ele>13.1</ele>
        <time>2023-10-11T14:51:32Z</time>
      </trkpt>
      <trkpt lat="49.21846" lon="-0.24681">
        <ele>13.1</ele>
        <time>2023-10-11T14:51:33Z</time>
      </trkpt>
      <trkpt lat="49.2185" lon="-0.24686">
        <ele>13.1</ele>
        <time>2023-10-11T14:51:34Z</time>
      </trkpt>
      <trkpt lat="49.21853" lon="-0.24689">
        <ele>13.1</ele>
        <time>2023-10-11T14:51:35Z</time>
      </trkpt>
      <trkpt lat="49.21856" lon="-0.24692">
        <ele>13.1</ele>
        <time>2023-10-11T14:51:36Z</time>
      </trkpt>
      <trkpt lat="49.21858" lon="-0.24693">
        <ele>13.1</ele>
        <time>2023-10-11T14:51:37Z</time>
      </trkpt>
      <trkpt lat="49.21862" lon="-0.24693">
        <ele>13</ele>
        <time>2023-10-11T14:51:38Z</time>
      </trkpt>
      <trkpt lat="49.21865" lon="-0.24691">
        <ele>12.9</ele>
        <time>2023-10-11T14:51:39Z</time>
      </trkpt>
      <trkpt lat="49.21869" lon="-0.24687">
        <ele>12.9</ele>
        <time>2023-10-11T14:51:40Z</time>
      </trkpt>
      <trkpt lat="49.21872" lon="-0.24681">
        <ele>12.8</ele>
        <time>2023-10-11T14:51:41Z</time>
      </trkpt>
      <trkpt lat="49.21876" lon="-0.24676">
        <ele>12.7</ele>
        <time>2023-10-11T14:51:42Z</time>
      </trkpt>
      <trkpt lat="49.2188" lon="-0.2467">
        <ele>12.7</ele>
        <time>2023-10-11T14:51:43Z</time>
      </trkpt>
      <trkpt lat="49.21883" lon="-0.24665">
        <ele>12.6</ele>
        <time>2023-10-11T14:51:44Z</time>
      </trkpt>
      <trkpt lat="49.21887" lon="-0.2466">
        <ele>12.6</ele>
        <time>2023-10-11T14:51:45Z</time>
      </trkpt>
      <trkpt lat="49.21891" lon="-0.24655">
        <ele>12.5</ele>
        <time>2023-10-11T14:51:46Z</time>
      </trkpt>
      <trkpt lat="49.21895" lon="-0.24649">
        <ele>12.5</ele>
        <time>2023-10-11T14:51:47Z</time>
      </trkpt>
      <trkpt lat="49.21898" lon="-0.24642">
        <ele>12.4</ele>
        <time>2023-10-11T14:51:48Z</time>
      </trkpt>
      <trkpt lat="49.21901" lon="-0.24635">
        <ele>12.4</ele>
        <time>2023-10-11T14:51:49Z</time>
      </trkpt>
      <trkpt lat="49.21904" lon="-0.24628">
        <ele>12.4</ele>
        <time>2023-10-11T14:51:50Z</time>
      </trkpt>
      <trkpt lat="49.21906" lon="-0.24622">
        <ele>12.3</ele>
        <time>2023-10-11T14:51:51Z</time>
      </trkpt>
      <trkpt lat="49.21909" lon="-0.24616">
        <ele>12.3</ele>
        <time>2023-10-11T14:51:52Z</time>
      </trkpt>
      <trkpt lat="49.21912" lon="-0.2461">
        <ele>12.3</ele>
        <time>2023-10-11T14:51:53Z</time>
      </trkpt>
      <trkpt lat="49.21914" lon="-0.24602">
        <ele>12.3</ele>
        <time>2023-10-11T14:51:54Z</time>
      </trkpt>
      <trkpt lat="49.21917" lon="-0.24595">
        <ele>12.3</ele>
        <time>2023-10-11T14:51:55Z</time>
      </trkpt>
      <trkpt lat="49.21919" lon="-0.24587">
        <ele>12.2</ele>
        <time>2023-10-11T14:51:56Z</time>
      </trkpt>
      <trkpt lat="49.21922" lon="-0.24579">
        <ele>12.2</ele>
        <time>2023-10-11T14:51:57Z</time>
      </trkpt>
      <trkpt lat="49.21924" lon="-0.24572">
        <ele>12.2</ele>
        <time>2023-10-11T14:51:58Z</time>
      </trkpt>
      <trkpt lat="49.21927" lon="-0.24564">
        <ele>12.1</ele>
        <time>2023-10-11T14:51:59Z</time>
      </trkpt>
      <trkpt lat="49.2193" lon="-0.24556">
        <ele>12.1</ele>
        <time>2023-10-11T14:52:00Z</time>
      </trkpt>
      <trkpt lat="49.21933" lon="-0.24549">
        <ele>12.1</ele>
        <time>2023-10-11T14:52:01Z</time>
      </trkpt>
      <trkpt lat="49.21936" lon="-0.24541">
        <ele>12.1</ele>
        <time>2023-10-11T14:52:02Z</time>
      </trkpt>
      <trkpt lat="49.21939" lon="-0.24533">
        <ele>12.1</ele>
        <time>2023-10-11T14:52:03Z</time>
      </trkpt>
      <trkpt lat="49.21942" lon="-0.24525">
        <ele>12.1</ele>
        <time>2023-10-11T14:52:04Z</time>
      </trkpt>
      <trkpt lat="49.21944" lon="-0.24517">
        <ele>12.1</ele>
        <time>2023-10-11T14:52:05Z</time>
      </trkpt>
      <trkpt lat="49.21947" lon="-0.24508">
        <ele>12.1</ele>
        <time>2023-10-11T14:52:06Z</time>
      </trkpt>
      <trkpt lat="49.2195" lon="-0.245">
        <ele>12.1</ele>
        <time>2023-10-11T14:52:07Z</time>
      </trkpt>
      <trkpt lat="49.21953" lon="-0.24491">
        <ele>12.1</ele>
        <time>2023-10-11T14:52:08Z</time>
      </trkpt>
      <trkpt lat="49.21956" lon="-0.24483">
        <ele>12.1</ele>
        <time>2023-10-11T14:52:09Z</time>
      </trkpt>
      <trkpt lat="49.21958" lon="-0.24475">
        <ele>12.1</ele>
        <time>2023-10-11T14:52:10Z</time>
      </trkpt>
      <trkpt lat="49.21961" lon="-0.24467">
        <ele>12.2</ele>
        <time>2023-10-11T14:52:11Z</time>
      </trkpt>
      <trkpt lat="49.21964" lon="-0.2446">
        <ele>12.2</ele>
        <time>2023-10-11T14:52:12Z</time>
      </trkpt>
      <trkpt lat="49.21966" lon="-0.24452">
        <ele>12.2</ele>
        <time>2023-10-11T14:52:13Z</time>
      </trkpt>
      <trkpt lat="49.21968" lon="-0.24444">
        <ele>12.2</ele>
        <time>2023-10-11T14:52:14Z</time>
      </trkpt>
      <trkpt lat="49.2197" lon="-0.24436">
        <ele>12.2</ele>
        <time>2023-10-11T14:52:15Z</time>
      </trkpt>
      <trkpt lat="49.21973" lon="-0.24429">
        <ele>12.2</ele>
        <time>2023-10-11T14:52:16Z</time>
      </trkpt>
      <trkpt lat="49.21975" lon="-0.24423">
        <ele>12.2</ele>
        <time>2023-10-11T14:52:17Z</time>
      </trkpt>
      <trkpt lat="49.21977" lon="-0.24417">
        <ele>12.2</ele>
        <time>2023-10-11T14:52:18Z</time>
      </trkpt>
      <trkpt lat="49.21979" lon="-0.24411">
        <ele>12.3</ele>
        <time>2023-10-11T14:52:19Z</time>
      </trkpt>
      <trkpt lat="49.21981" lon="-0.24405">
        <ele>12.3</ele>
        <time>2023-10-11T14:52:20Z</time>
      </trkpt>
      <trkpt lat="49.21983" lon="-0.24399">
        <ele>12.4</ele>
        <time>2023-10-11T14:52:21Z</time>
      </trkpt>
      <trkpt lat="49.21985" lon="-0.24393">
        <ele>12.4</ele>
        <time>2023-10-11T14:52:22Z</time>
      </trkpt>
      <trkpt lat="49.21987" lon="-0.24387">
        <ele>12.5</ele>
        <time>2023-10-11T14:52:23Z</time>
      </trkpt>
      <trkpt lat="49.21989" lon="-0.2438">
        <ele>12.6</ele>
        <time>2023-10-11T14:52:24Z</time>
      </trkpt>
      <trkpt lat="49.21992" lon="-0.24374">
        <ele>12.7</ele>
        <time>2023-10-11T14:52:25Z</time>
      </trkpt>
      <trkpt lat="49.21996" lon="-0.2437">
        <ele>12.8</ele>
        <time>2023-10-11T14:52:26Z</time>
      </trkpt>
      <trkpt lat="49.21999" lon="-0.24369">
        <ele>12.8</ele>
        <time>2023-10-11T14:52:27Z</time>
      </trkpt>
      <trkpt lat="49.22003" lon="-0.2437">
        <ele>12.8</ele>
        <time>2023-10-11T14:52:28Z</time>
      </trkpt>
      <trkpt lat="49.22007" lon="-0.24373">
        <ele>12.9</ele>
        <time>2023-10-11T14:52:29Z</time>
      </trkpt>
      <trkpt lat="49.22012" lon="-0.24377">
        <ele>12.9</ele>
        <time>2023-10-11T14:52:30Z</time>
      </trkpt>
      <trkpt lat="49.22016" lon="-0.24382">
        <ele>12.9</ele>
        <time>2023-10-11T14:52:31Z</time>
      </trkpt>
      <trkpt lat="49.2202" lon="-0.24389">
        <ele>12.9</ele>
        <time>2023-10-11T14:52:32Z</time>
      </trkpt>
      <trkpt lat="49.22024" lon="-0.24396">
        <ele>12.9</ele>
        <time>2023-10-11T14:52:33Z</time>
      </trkpt>
      <trkpt lat="49.22028" lon="-0.24403">
        <ele>12.9</ele>
        <time>2023-10-11T14:52:34Z</time>
      </trkpt>
      <trkpt lat="49.22032" lon="-0.24409">
        <ele>12.8</ele>
        <time>2023-10-11T14:52:35Z</time>
      </trkpt>
      <trkpt lat="49.22035" lon="-0.24416">
        <ele>12.8</ele>
        <time>2023-10-11T14:52:36Z</time>
      </trkpt>
      <trkpt lat="49.22039" lon="-0.24423">
        <ele>12.8</ele>
        <time>2023-10-11T14:52:37Z</time>
      </trkpt>
      <trkpt lat="49.22043" lon="-0.2443">
        <ele>12.7</ele>
        <time>2023-10-11T14:52:38Z</time>
      </trkpt>
      <trkpt lat="49.22046" lon="-0.24438">
        <ele>12.6</ele>
        <time>2023-10-11T14:52:39Z</time>
      </trkpt>
      <trkpt lat="49.22049" lon="-0.24446">
        <ele>12.6</ele>
        <time>2023-10-11T14:52:40Z</time>
      </trkpt>
      <trkpt lat="49.22053" lon="-0.24454">
        <ele>12.5</ele>
        <time>2023-10-11T14:52:41Z</time>
      </trkpt>
      <trkpt lat="49.22057" lon="-0.24462">
        <ele>12.5</ele>
        <time>2023-10-11T14:52:42Z</time>
      </trkpt>
      <trkpt lat="49.22061" lon="-0.2447">
        <ele>12.5</ele>
        <time>2023-10-11T14:52:43Z</time>
      </trkpt>
      <trkpt lat="49.22066" lon="-0.24478">
        <ele>12.5</ele>
        <time>2023-10-11T14:52:44Z</time>
      </trkpt>
      <trkpt lat="49.22071" lon="-0.24486">
        <ele>12.5</ele>
        <time>2023-10-11T14:52:45Z</time>
      </trkpt>
      <trkpt lat="49.22076" lon="-0.24493">
        <ele>12.4</ele>
        <time>2023-10-11T14:52:46Z</time>
      </trkpt>
      <trkpt lat="49.22083" lon="-0.24499">
        <ele>12.4</ele>
        <time>2023-10-11T14:52:47Z</time>
      </trkpt>
      <trkpt lat="49.22089" lon="-0.24503">
        <ele>12.4</ele>
        <time>2023-10-11T14:52:48Z</time>
      </trkpt>
      <trkpt lat="49.22096" lon="-0.24506">
        <ele>12.4</ele>
        <time>2023-10-11T14:52:49Z</time>
      </trkpt>
      <trkpt lat="49.22102" lon="-0.24507">
        <ele>12.4</ele>
        <time>2023-10-11T14:52:50Z</time>
      </trkpt>
      <trkpt lat="49.22109" lon="-0.24508">
        <ele>12.4</ele>
        <time>2023-10-11T14:52:51Z</time>
      </trkpt>
      <trkpt lat="49.22116" lon="-0.24508">
        <ele>12.4</ele>
        <time>2023-10-11T14:52:52Z</time>
      </trkpt>
      <trkpt lat="49.22123" lon="-0.24508">
        <ele>12.4</ele>
        <time>2023-10-11T14:52:53Z</time>
      </trkpt>
      <trkpt lat="49.2213" lon="-0.24507">
        <ele>12.4</ele>
        <time>2023-10-11T14:52:54Z</time>
      </trkpt>
      <trkpt lat="49.22137" lon="-0.24507">
        <ele>12.4</ele>
        <time>2023-10-11T14:52:55Z</time>
      </trkpt>
      <trkpt lat="49.22144" lon="-0.24506">
        <ele>12.4</ele>
        <time>2023-10-11T14:52:56Z</time>
      </trkpt>
      <trkpt lat="49.22151" lon="-0.24506">
        <ele>12.4</ele>
        <time>2023-10-11T14:52:57Z</time>
      </trkpt>
      <trkpt lat="49.22158" lon="-0.24506">
        <ele>12.4</ele>
        <time>2023-10-11T14:52:58Z</time>
      </trkpt>
      <trkpt lat="49.22165" lon="-0.24506">
        <ele>12.4</ele>
        <time>2023-10-11T14:52:59Z</time>
      </trkpt>
      <trkpt lat="49.22172" lon="-0.24506">
        <ele>12.4</ele>
        <time>2023-10-11T14:53:00Z</time>
      </trkpt>
      <trkpt lat="49.2218" lon="-0.24505">
        <ele>12.4</ele>
        <time>2023-10-11T14:53:01Z</time>
      </trkpt>
      <trkpt lat="49.22187" lon="-0.24503">
        <ele>12.4</ele>
        <time>2023-10-11T14:53:02Z</time>
      </trkpt>
      <trkpt lat="49.22195" lon="-0.245">
        <ele>12.5</ele>
        <time>2023-10-11T14:53:03Z</time>
      </trkpt>
      <trkpt lat="49.22202" lon="-0.24498">
        <ele>12.5</ele>
        <time>2023-10-11T14:53:04Z</time>
      </trkpt>
      <trkpt lat="49.2221" lon="-0.24496">
        <ele>12.5</ele>
        <time>2023-10-11T14:53:05Z</time>
      </trkpt>
      <trkpt lat="49.22218" lon="-0.24493">
        <ele>12.5</ele>
        <time>2023-10-11T14:53:06Z</time>
      </trkpt>
      <trkpt lat="49.22225" lon="-0.24491">
        <ele>12.6</ele>
        <time>2023-10-11T14:53:07Z</time>
      </trkpt>
      <trkpt lat="49.22233" lon="-0.24489">
        <ele>12.6</ele>
        <time>2023-10-11T14:53:08Z</time>
      </trkpt>
      <trkpt lat="49.2224" lon="-0.24487">
        <ele>12.7</ele>
        <time>2023-10-11T14:53:09Z</time>
      </trkpt>
      <trkpt lat="49.22248" lon="-0.24485">
        <ele>12.7</ele>
        <time>2023-10-11T14:53:10Z</time>
      </trkpt>
      <trkpt lat="49.22256" lon="-0.24484">
        <ele>12.7</ele>
        <time>2023-10-11T14:53:11Z</time>
      </trkpt>
      <trkpt lat="49.22264" lon="-0.24482">
        <ele>12.7</ele>
        <time>2023-10-11T14:53:12Z</time>
      </trkpt>
      <trkpt lat="49.22272" lon="-0.24482">
        <ele>12.8</ele>
        <time>2023-10-11T14:53:13Z</time>
      </trkpt>
      <trkpt lat="49.22279" lon="-0.24483">
        <ele>12.8</ele>
        <time>2023-10-11T14:53:14Z</time>
      </trkpt>
      <trkpt lat="49.22287" lon="-0.24483">
        <ele>12.8</ele>
        <time>2023-10-11T14:53:15Z</time>
      </trkpt>
      <trkpt lat="49.22295" lon="-0.24484">
        <ele>12.8</ele>
        <time>2023-10-11T14:53:16Z</time>
      </trkpt>
      <trkpt lat="49.22303" lon="-0.24485">
        <ele>12.8</ele>
        <time>2023-10-11T14:53:17Z</time>
      </trkpt>
      <trkpt lat="49.22311" lon="-0.24485">
        <ele>12.8</ele>
        <time>2023-10-11T14:53:18Z</time>
      </trkpt>
      <trkpt lat="49.22318" lon="-0.24486">
        <ele>12.8</ele>
        <time>2023-10-11T14:53:19Z</time>
      </trkpt>
      <trkpt lat="49.22326" lon="-0.24486">
        <ele>12.8</ele>
        <time>2023-10-11T14:53:20Z</time>
      </trkpt>
      <trkpt lat="49.22333" lon="-0.24486">
        <ele>12.8</ele>
        <time>2023-10-11T14:53:21Z</time>
      </trkpt>
      <trkpt lat="49.22341" lon="-0.24487">
        <ele>12.8</ele>
        <time>2023-10-11T14:53:22Z</time>
      </trkpt>
      <trkpt lat="49.22348" lon="-0.24487">
        <ele>12.8</ele>
        <time>2023-10-11T14:53:23Z</time>
      </trkpt>
      <trkpt lat="49.22356" lon="-0.24489">
        <ele>12.8</ele>
        <time>2023-10-11T14:53:24Z</time>
      </trkpt>
      <trkpt lat="49.22363" lon="-0.2449">
        <ele>12.7</ele>
        <time>2023-10-11T14:53:25Z</time>
      </trkpt>
      <trkpt lat="49.22371" lon="-0.24492">
        <ele>12.7</ele>
        <time>2023-10-11T14:53:26Z</time>
      </trkpt>
      <trkpt lat="49.22378" lon="-0.24494">
        <ele>12.6</ele>
        <time>2023-10-11T14:53:27Z</time>
      </trkpt>
      <trkpt lat="49.22386" lon="-0.24497">
        <ele>12.6</ele>
        <time>2023-10-11T14:53:28Z</time>
      </trkpt>
      <trkpt lat="49.22394" lon="-0.245">
        <ele>12.5</ele>
        <time>2023-10-11T14:53:29Z</time>
      </trkpt>
      <trkpt lat="49.22402" lon="-0.24503">
        <ele>12.5</ele>
        <time>2023-10-11T14:53:30Z</time>
      </trkpt>
      <trkpt lat="49.2241" lon="-0.24507">
        <ele>12.4</ele>
        <time>2023-10-11T14:53:31Z</time>
      </trkpt>
      <trkpt lat="49.22418" lon="-0.24512">
        <ele>12.3</ele>
        <time>2023-10-11T14:53:32Z</time>
      </trkpt>
      <trkpt lat="49.22426" lon="-0.24516">
        <ele>12.3</ele>
        <time>2023-10-11T14:53:33Z</time>
      </trkpt>
      <trkpt lat="49.22433" lon="-0.24522">
        <ele>12.2</ele>
        <time>2023-10-11T14:53:34Z</time>
      </trkpt>
      <trkpt lat="49.22441" lon="-0.24527">
        <ele>12.1</ele>
        <time>2023-10-11T14:53:35Z</time>
      </trkpt>
      <trkpt lat="49.22449" lon="-0.24532">
        <ele>12.1</ele>
        <time>2023-10-11T14:53:36Z</time>
      </trkpt>
      <trkpt lat="49.22456" lon="-0.24538">
        <ele>12</ele>
        <time>2023-10-11T14:53:37Z</time>
      </trkpt>
      <trkpt lat="49.22463" lon="-0.24545">
        <ele>11.9</ele>
        <time>2023-10-11T14:53:38Z</time>
      </trkpt>
      <trkpt lat="49.2247" lon="-0.24551">
        <ele>11.8</ele>
        <time>2023-10-11T14:53:39Z</time>
      </trkpt>
      <trkpt lat="49.22477" lon="-0.24557">
        <ele>11.7</ele>
        <time>2023-10-11T14:53:40Z</time>
      </trkpt>
      <trkpt lat="49.22484" lon="-0.24563">
        <ele>11.6</ele>
        <time>2023-10-11T14:53:41Z</time>
      </trkpt>
      <trkpt lat="49.22492" lon="-0.24569">
        <ele>11.5</ele>
        <time>2023-10-11T14:53:42Z</time>
      </trkpt>
      <trkpt lat="49.225" lon="-0.24574">
        <ele>11.4</ele>
        <time>2023-10-11T14:53:43Z</time>
      </trkpt>
      <trkpt lat="49.22508" lon="-0.24578">
        <ele>11.4</ele>
        <time>2023-10-11T14:53:44Z</time>
      </trkpt>
      <trkpt lat="49.22517" lon="-0.24581">
        <ele>11.4</ele>
        <time>2023-10-11T14:53:45Z</time>
      </trkpt>
      <trkpt lat="49.22526" lon="-0.24583">
        <ele>11.3</ele>
        <time>2023-10-11T14:53:46Z</time>
      </trkpt>
      <trkpt lat="49.22535" lon="-0.24585">
        <ele>11.3</ele>
        <time>2023-10-11T14:53:47Z</time>
      </trkpt>
      <trkpt lat="49.22543" lon="-0.24586">
        <ele>11.3</ele>
        <time>2023-10-11T14:53:48Z</time>
      </trkpt>
      <trkpt lat="49.22552" lon="-0.24586">
        <ele>11.2</ele>
        <time>2023-10-11T14:53:49Z</time>
      </trkpt>
      <trkpt lat="49.2256" lon="-0.24587">
        <ele>11.1</ele>
        <time>2023-10-11T14:53:50Z</time>
      </trkpt>
      <trkpt lat="49.22569" lon="-0.24587">
        <ele>11</ele>
        <time>2023-10-11T14:53:51Z</time>
      </trkpt>
      <trkpt lat="49.22577" lon="-0.24587">
        <ele>11</ele>
        <time>2023-10-11T14:53:52Z</time>
      </trkpt>
      <trkpt lat="49.22585" lon="-0.24586">
        <ele>10.9</ele>
        <time>2023-10-11T14:53:53Z</time>
      </trkpt>
      <trkpt lat="49.22593" lon="-0.24586">
        <ele>10.8</ele>
        <time>2023-10-11T14:53:54Z</time>
      </trkpt>
      <trkpt lat="49.22602" lon="-0.24586">
        <ele>10.7</ele>
        <time>2023-10-11T14:53:55Z</time>
      </trkpt>
      <trkpt lat="49.2261" lon="-0.24585">
        <ele>10.6</ele>
        <time>2023-10-11T14:53:56Z</time>
      </trkpt>
      <trkpt lat="49.22619" lon="-0.24585">
        <ele>10.5</ele>
        <time>2023-10-11T14:53:57Z</time>
      </trkpt>
      <trkpt lat="49.22627" lon="-0.24584">
        <ele>10.4</ele>
        <time>2023-10-11T14:53:58Z</time>
      </trkpt>
      <trkpt lat="49.22636" lon="-0.24584">
        <ele>10.3</ele>
        <time>2023-10-11T14:53:59Z</time>
      </trkpt>
      <trkpt lat="49.22645" lon="-0.24583">
        <ele>10.2</ele>
        <time>2023-10-11T14:54:00Z</time>
      </trkpt>
      <trkpt lat="49.22655" lon="-0.24581">
        <ele>10.1</ele>
        <time>2023-10-11T14:54:01Z</time>
      </trkpt>
      <trkpt lat="49.22663" lon="-0.24578">
        <ele>9.9</ele>
        <time>2023-10-11T14:54:02Z</time>
      </trkpt>
      <trkpt lat="49.22672" lon="-0.24573">
        <ele>9.8</ele>
        <time>2023-10-11T14:54:03Z</time>
      </trkpt>
      <trkpt lat="49.2268" lon="-0.24566">
        <ele>9.7</ele>
        <time>2023-10-11T14:54:04Z</time>
      </trkpt>
      <trkpt lat="49.22688" lon="-0.2456">
        <ele>9.7</ele>
        <time>2023-10-11T14:54:05Z</time>
      </trkpt>
      <trkpt lat="49.22696" lon="-0.24554">
        <ele>9.6</ele>
        <time>2023-10-11T14:54:06Z</time>
      </trkpt>
      <trkpt lat="49.22704" lon="-0.24549">
        <ele>9.5</ele>
        <time>2023-10-11T14:54:07Z</time>
      </trkpt>
      <trkpt lat="49.22712" lon="-0.24544">
        <ele>9.4</ele>
        <time>2023-10-11T14:54:08Z</time>
      </trkpt>
      <trkpt lat="49.2272" lon="-0.24539">
        <ele>9.3</ele>
        <time>2023-10-11T14:54:09Z</time>
      </trkpt>
      <trkpt lat="49.22728" lon="-0.24534">
        <ele>9.2</ele>
        <time>2023-10-11T14:54:10Z</time>
      </trkpt>
      <trkpt lat="49.22737" lon="-0.2453">
        <ele>9.1</ele>
        <time>2023-10-11T14:54:11Z</time>
      </trkpt>
      <trkpt lat="49.22745" lon="-0.24525">
        <ele>8.9</ele>
        <time>2023-10-11T14:54:12Z</time>
      </trkpt>
      <trkpt lat="49.22753" lon="-0.2452">
        <ele>8.7</ele>
        <time>2023-10-11T14:54:13Z</time>
      </trkpt>
      <trkpt lat="49.22761" lon="-0.24514">
        <ele>8.6</ele>
        <time>2023-10-11T14:54:14Z</time>
      </trkpt>
      <trkpt lat="49.22769" lon="-0.24507">
        <ele>8.4</ele>
        <time>2023-10-11T14:54:15Z</time>
      </trkpt>
      <trkpt lat="49.22776" lon="-0.24501">
        <ele>8.3</ele>
        <time>2023-10-11T14:54:16Z</time>
      </trkpt>
      <trkpt lat="49.22784" lon="-0.24494">
        <ele>8.2</ele>
        <time>2023-10-11T14:54:17Z</time>
      </trkpt>
      <trkpt lat="49.22791" lon="-0.24487">
        <ele>8.1</ele>
        <time>2023-10-11T14:54:18Z</time>
      </trkpt>
      <trkpt lat="49.22799" lon="-0.2448">
        <ele>8</ele>
        <time>2023-10-11T14:54:19Z</time>
      </trkpt>
      <trkpt lat="49.22806" lon="-0.24473">
        <ele>8</ele>
        <time>2023-10-11T14:54:20Z</time>
      </trkpt>
      <trkpt lat="49.22813" lon="-0.24466">
        <ele>8</ele>
        <time>2023-10-11T14:54:21Z</time>
      </trkpt>
      <trkpt lat="49.2282" lon="-0.24459">
        <ele>8</ele>
        <time>2023-10-11T14:54:22Z</time>
      </trkpt>
      <trkpt lat="49.22826" lon="-0.24453">
        <ele>8.1</ele>
        <time>2023-10-11T14:54:23Z</time>
      </trkpt>
      <trkpt lat="49.22833" lon="-0.24446">
        <ele>8.1</ele>
        <time>2023-10-11T14:54:24Z</time>
      </trkpt>
      <trkpt lat="49.22839" lon="-0.2444">
        <ele>8.2</ele>
        <time>2023-10-11T14:54:25Z</time>
      </trkpt>
      <trkpt lat="49.22844" lon="-0.24435">
        <ele>8.3</ele>
        <time>2023-10-11T14:54:26Z</time>
      </trkpt>
      <trkpt lat="49.22848" lon="-0.24431">
        <ele>8.4</ele>
        <time>2023-10-11T14:54:27Z</time>
      </trkpt>
      <trkpt lat="49.22851" lon="-0.24428">
        <ele>8.5</ele>
        <time>2023-10-11T14:54:28Z</time>
      </trkpt>
      <trkpt lat="49.22854" lon="-0.24425">
        <ele>8.6</ele>
        <time>2023-10-11T14:54:29Z</time>
      </trkpt>
      <trkpt lat="49.22857" lon="-0.24421">
        <ele>8.6</ele>
        <time>2023-10-11T14:54:30Z</time>
      </trkpt>
      <trkpt lat="49.22858" lon="-0.2442">
        <ele>8.7</ele>
        <time>2023-10-11T14:54:31Z</time>
      </trkpt>
      <trkpt lat="49.22859" lon="-0.24419">
        <ele>8.7</ele>
        <time>2023-10-11T14:54:32Z</time>
      </trkpt>
      <trkpt lat="49.2286" lon="-0.24418">
        <ele>8.7</ele>
        <time>2023-10-11T14:54:33Z</time>
      </trkpt>
      <trkpt lat="49.2286" lon="-0.24418">
        <ele>8.7</ele>
        <time>2023-10-11T14:54:34Z</time>
      </trkpt>
      <trkpt lat="49.2286" lon="-0.24418">
        <ele>8.7</ele>
        <time>2023-10-11T14:54:35Z</time>
      </trkpt>
      <trkpt lat="49.2286" lon="-0.24417">
        <ele>8.7</ele>
        <time>2023-10-11T14:54:36Z</time>
      </trkpt>
      <trkpt lat="49.22861" lon="-0.24417">
        <ele>8.7</ele>
        <time>2023-10-11T14:54:37Z</time>
      </trkpt>
      <trkpt lat="49.22861" lon="-0.24416">
        <ele>8.7</ele>
        <time>2023-10-11T14:54:38Z</time>
      </trkpt>
      <trkpt lat="49.22861" lon="-0.24416">
        <ele>8.7</ele>
        <time>2023-10-11T14:54:39Z</time>
      </trkpt>
      <trkpt lat="49.22861" lon="-0.24416">
        <ele>8.8</ele>
        <time>2023-10-11T14:54:40Z</time>
      </trkpt>
      <trkpt lat="49.22862" lon="-0.24415">
        <ele>8.8</ele>
        <time>2023-10-11T14:54:41Z</time>
      </trkpt>
      <trkpt lat="49.22862" lon="-0.24415">
        <ele>8.8</ele>
        <time>2023-10-11T14:54:42Z</time>
      </trkpt>
      <trkpt lat="49.22862" lon="-0.24415">
        <ele>8.8</ele>
        <time>2023-10-11T14:54:43Z</time>
      </trkpt>
      <trkpt lat="49.22862" lon="-0.24414">
        <ele>8.8</ele>
        <time>2023-10-11T14:54:44Z</time>
      </trkpt>
      <trkpt lat="49.22863" lon="-0.24414">
        <ele>8.8</ele>
        <time>2023-10-11T14:54:53Z</time>
      </trkpt>
      <trkpt lat="49.22863" lon="-0.24414">
        <ele>8.8</ele>
        <time>2023-10-11T14:54:54Z</time>
      </trkpt>
      <trkpt lat="49.22863" lon="-0.24413">
        <ele>8.8</ele>
        <time>2023-10-11T14:54:55Z</time>
      </trkpt>
      <trkpt lat="49.22866" lon="-0.2441">
        <ele>8.8</ele>
        <time>2023-10-11T14:54:56Z</time>
      </trkpt>
      <trkpt lat="49.22867" lon="-0.24409">
        <ele>8.8</ele>
        <time>2023-10-11T14:54:57Z</time>
      </trkpt>
      <trkpt lat="49.22869" lon="-0.24407">
        <ele>8.9</ele>
        <time>2023-10-11T14:54:58Z</time>
      </trkpt>
      <trkpt lat="49.22871" lon="-0.24404">
        <ele>8.9</ele>
        <time>2023-10-11T14:54:59Z</time>
      </trkpt>
      <trkpt lat="49.22874" lon="-0.24402">
        <ele>8.9</ele>
        <time>2023-10-11T14:55:00Z</time>
      </trkpt>
      <trkpt lat="49.22876" lon="-0.24398">
        <ele>8.9</ele>
        <time>2023-10-11T14:55:01Z</time>
      </trkpt>
      <trkpt lat="49.22878" lon="-0.24394">
        <ele>9</ele>
        <time>2023-10-11T14:55:02Z</time>
      </trkpt>
      <trkpt lat="49.22881" lon="-0.2439">
        <ele>9.1</ele>
        <time>2023-10-11T14:55:03Z</time>
      </trkpt>
      <trkpt lat="49.22884" lon="-0.24385">
        <ele>9.1</ele>
        <time>2023-10-11T14:55:04Z</time>
      </trkpt>
      <trkpt lat="49.22887" lon="-0.2438">
        <ele>9.2</ele>
        <time>2023-10-11T14:55:05Z</time>
      </trkpt>
      <trkpt lat="49.2289" lon="-0.24375">
        <ele>9.3</ele>
        <time>2023-10-11T14:55:06Z</time>
      </trkpt>
      <trkpt lat="49.22894" lon="-0.24369">
        <ele>9.4</ele>
        <time>2023-10-11T14:55:07Z</time>
      </trkpt>
      <trkpt lat="49.22898" lon="-0.24364">
        <ele>9.5</ele>
        <time>2023-10-11T14:55:08Z</time>
      </trkpt>
      <trkpt lat="49.22902" lon="-0.24359">
        <ele>9.6</ele>
        <time>2023-10-11T14:55:09Z</time>
      </trkpt>
      <trkpt lat="49.22906" lon="-0.24353">
        <ele>9.7</ele>
        <time>2023-10-11T14:55:10Z</time>
      </trkpt>
      <trkpt lat="49.2291" lon="-0.24346">
        <ele>9.9</ele>
        <time>2023-10-11T14:55:11Z</time>
      </trkpt>
      <trkpt lat="49.22915" lon="-0.2434">
        <ele>10</ele>
        <time>2023-10-11T14:55:12Z</time>
      </trkpt>
      <trkpt lat="49.22919" lon="-0.24334">
        <ele>10.2</ele>
        <time>2023-10-11T14:55:13Z</time>
      </trkpt>
      <trkpt lat="49.22924" lon="-0.24328">
        <ele>10.4</ele>
        <time>2023-10-11T14:55:14Z</time>
      </trkpt>
      <trkpt lat="49.22929" lon="-0.24322">
        <ele>10.5</ele>
        <time>2023-10-11T14:55:15Z</time>
      </trkpt>
      <trkpt lat="49.22935" lon="-0.24316">
        <ele>10.6</ele>
        <time>2023-10-11T14:55:16Z</time>
      </trkpt>
      <trkpt lat="49.2294" lon="-0.2431">
        <ele>10.8</ele>
        <time>2023-10-11T14:55:17Z</time>
      </trkpt>
      <trkpt lat="49.22946" lon="-0.24305">
        <ele>10.9</ele>
        <time>2023-10-11T14:55:18Z</time>
      </trkpt>
      <trkpt lat="49.22952" lon="-0.24299">
        <ele>11</ele>
        <time>2023-10-11T14:55:19Z</time>
      </trkpt>
      <trkpt lat="49.22958" lon="-0.24295">
        <ele>11.1</ele>
        <time>2023-10-11T14:55:20Z</time>
      </trkpt>
      <trkpt lat="49.22964" lon="-0.2429">
        <ele>11.1</ele>
        <time>2023-10-11T14:55:21Z</time>
      </trkpt>
      <trkpt lat="49.2297" lon="-0.24287">
        <ele>11.1</ele>
        <time>2023-10-11T14:55:22Z</time>
      </trkpt>
      <trkpt lat="49.22977" lon="-0.24283">
        <ele>11.1</ele>
        <time>2023-10-11T14:55:23Z</time>
      </trkpt>
      <trkpt lat="49.22983" lon="-0.2428">
        <ele>11</ele>
        <time>2023-10-11T14:55:24Z</time>
      </trkpt>
      <trkpt lat="49.22989" lon="-0.24277">
        <ele>11</ele>
        <time>2023-10-11T14:55:25Z</time>
      </trkpt>
      <trkpt lat="49.22996" lon="-0.24273">
        <ele>10.9</ele>
        <time>2023-10-11T14:55:26Z</time>
      </trkpt>
      <trkpt lat="49.23003" lon="-0.24269">
        <ele>10.8</ele>
        <time>2023-10-11T14:55:27Z</time>
      </trkpt>
      <trkpt lat="49.2301" lon="-0.24266">
        <ele>10.6</ele>
        <time>2023-10-11T14:55:28Z</time>
      </trkpt>
      <trkpt lat="49.23017" lon="-0.24262">
        <ele>10.5</ele>
        <time>2023-10-11T14:55:29Z</time>
      </trkpt>
      <trkpt lat="49.23024" lon="-0.24258">
        <ele>10.3</ele>
        <time>2023-10-11T14:55:30Z</time>
      </trkpt>
      <trkpt lat="49.23032" lon="-0.24254">
        <ele>10.1</ele>
        <time>2023-10-11T14:55:31Z</time>
      </trkpt>
      <trkpt lat="49.2304" lon="-0.24251">
        <ele>9.9</ele>
        <time>2023-10-11T14:55:32Z</time>
      </trkpt>
      <trkpt lat="49.23048" lon="-0.24247">
        <ele>9.7</ele>
        <time>2023-10-11T14:55:33Z</time>
      </trkpt>
      <trkpt lat="49.23057" lon="-0.24243">
        <ele>9.5</ele>
        <time>2023-10-11T14:55:34Z</time>
      </trkpt>
      <trkpt lat="49.23065" lon="-0.24238">
        <ele>9.3</ele>
        <time>2023-10-11T14:55:35Z</time>
      </trkpt>
      <trkpt lat="49.23073" lon="-0.24234">
        <ele>9.1</ele>
        <time>2023-10-11T14:55:36Z</time>
      </trkpt>
      <trkpt lat="49.23081" lon="-0.24229">
        <ele>8.9</ele>
        <time>2023-10-11T14:55:37Z</time>
      </trkpt>
      <trkpt lat="49.2309" lon="-0.24225">
        <ele>8.8</ele>
        <time>2023-10-11T14:55:38Z</time>
      </trkpt>
      <trkpt lat="49.23098" lon="-0.24221">
        <ele>8.6</ele>
        <time>2023-10-11T14:55:39Z</time>
      </trkpt>
      <trkpt lat="49.23107" lon="-0.24216">
        <ele>8.5</ele>
        <time>2023-10-11T14:55:40Z</time>
      </trkpt>
      <trkpt lat="49.23115" lon="-0.24212">
        <ele>8.4</ele>
        <time>2023-10-11T14:55:41Z</time>
      </trkpt>
      <trkpt lat="49.23124" lon="-0.24208">
        <ele>8.4</ele>
        <time>2023-10-11T14:55:42Z</time>
      </trkpt>
      <trkpt lat="49.23132" lon="-0.24204">
        <ele>8.4</ele>
        <time>2023-10-11T14:55:43Z</time>
      </trkpt>
      <trkpt lat="49.23141" lon="-0.242">
        <ele>8.3</ele>
        <time>2023-10-11T14:55:44Z</time>
      </trkpt>
      <trkpt lat="49.23149" lon="-0.24196">
        <ele>8.3</ele>
        <time>2023-10-11T14:55:45Z</time>
      </trkpt>
      <trkpt lat="49.23157" lon="-0.24191">
        <ele>8.3</ele>
        <time>2023-10-11T14:55:46Z</time>
      </trkpt>
      <trkpt lat="49.23165" lon="-0.24187">
        <ele>8.3</ele>
        <time>2023-10-11T14:55:47Z</time>
      </trkpt>
      <trkpt lat="49.23173" lon="-0.24182">
        <ele>8.3</ele>
        <time>2023-10-11T14:55:48Z</time>
      </trkpt>
      <trkpt lat="49.2318" lon="-0.24176">
        <ele>8.3</ele>
        <time>2023-10-11T14:55:49Z</time>
      </trkpt>
      <trkpt lat="49.23188" lon="-0.2417">
        <ele>8.4</ele>
        <time>2023-10-11T14:55:50Z</time>
      </trkpt>
      <trkpt lat="49.23195" lon="-0.24163">
        <ele>8.5</ele>
        <time>2023-10-11T14:55:51Z</time>
      </trkpt>
      <trkpt lat="49.23202" lon="-0.24156">
        <ele>8.6</ele>
        <time>2023-10-11T14:55:52Z</time>
      </trkpt>
      <trkpt lat="49.23208" lon="-0.24149">
        <ele>8.7</ele>
        <time>2023-10-11T14:55:53Z</time>
      </trkpt>
      <trkpt lat="49.23215" lon="-0.24141">
        <ele>8.8</ele>
        <time>2023-10-11T14:55:54Z</time>
      </trkpt>
      <trkpt lat="49.23221" lon="-0.24132">
        <ele>8.9</ele>
        <time>2023-10-11T14:55:55Z</time>
      </trkpt>
      <trkpt lat="49.23227" lon="-0.24124">
        <ele>9.1</ele>
        <time>2023-10-11T14:55:56Z</time>
      </trkpt>
      <trkpt lat="49.23233" lon="-0.24115">
        <ele>9.2</ele>
        <time>2023-10-11T14:55:57Z</time>
      </trkpt>
      <trkpt lat="49.2324" lon="-0.24107">
        <ele>9.4</ele>
        <time>2023-10-11T14:55:58Z</time>
      </trkpt>
      <trkpt lat="49.23246" lon="-0.241">
        <ele>9.6</ele>
        <time>2023-10-11T14:55:59Z</time>
      </trkpt>
      <trkpt lat="49.23252" lon="-0.24092">
        <ele>9.8</ele>
        <time>2023-10-11T14:56:00Z</time>
      </trkpt>
      <trkpt lat="49.23258" lon="-0.24085">
        <ele>10</ele>
        <time>2023-10-11T14:56:01Z</time>
      </trkpt>
      <trkpt lat="49.23264" lon="-0.24077">
        <ele>10.2</ele>
        <time>2023-10-11T14:56:02Z</time>
      </trkpt>
      <trkpt lat="49.2327" lon="-0.2407">
        <ele>10.4</ele>
        <time>2023-10-11T14:56:03Z</time>
      </trkpt>
      <trkpt lat="49.23277" lon="-0.24062">
        <ele>10.6</ele>
        <time>2023-10-11T14:56:04Z</time>
      </trkpt>
      <trkpt lat="49.23282" lon="-0.24055">
        <ele>10.7</ele>
        <time>2023-10-11T14:56:05Z</time>
      </trkpt>
      <trkpt lat="49.23288" lon="-0.24048">
        <ele>10.9</ele>
        <time>2023-10-11T14:56:06Z</time>
      </trkpt>
      <trkpt lat="49.23295" lon="-0.2404">
        <ele>11.1</ele>
        <time>2023-10-11T14:56:07Z</time>
      </trkpt>
      <trkpt lat="49.23301" lon="-0.24033">
        <ele>11.3</ele>
        <time>2023-10-11T14:56:08Z</time>
      </trkpt>
      <trkpt lat="49.23307" lon="-0.24026">
        <ele>11.5</ele>
        <time>2023-10-11T14:56:09Z</time>
      </trkpt>
      <trkpt lat="49.23314" lon="-0.24018">
        <ele>11.8</ele>
        <time>2023-10-11T14:56:10Z</time>
      </trkpt>
      <trkpt lat="49.2332" lon="-0.2401">
        <ele>12.1</ele>
        <time>2023-10-11T14:56:11Z</time>
      </trkpt>
      <trkpt lat="49.23327" lon="-0.24003">
        <ele>12.4</ele>
        <time>2023-10-11T14:56:12Z</time>
      </trkpt>
      <trkpt lat="49.23333" lon="-0.23995">
        <ele>12.7</ele>
        <time>2023-10-11T14:56:13Z</time>
      </trkpt>
      <trkpt lat="49.2334" lon="-0.23988">
        <ele>13</ele>
        <time>2023-10-11T14:56:14Z</time>
      </trkpt>
      <trkpt lat="49.23346" lon="-0.23981">
        <ele>13.3</ele>
        <time>2023-10-11T14:56:15Z</time>
      </trkpt>
      <trkpt lat="49.23353" lon="-0.23975">
        <ele>13.6</ele>
        <time>2023-10-11T14:56:16Z</time>
      </trkpt>
      <trkpt lat="49.2336" lon="-0.23969">
        <ele>13.9</ele>
        <time>2023-10-11T14:56:17Z</time>
      </trkpt>
      <trkpt lat="49.23366" lon="-0.23963">
        <ele>14.2</ele>
        <time>2023-10-11T14:56:18Z</time>
      </trkpt>
      <trkpt lat="49.23374" lon="-0.23959">
        <ele>14.4</ele>
        <time>2023-10-11T14:56:19Z</time>
      </trkpt>
      <trkpt lat="49.23381" lon="-0.23954">
        <ele>14.7</ele>
        <time>2023-10-11T14:56:20Z</time>
      </trkpt>
      <trkpt lat="49.23389" lon="-0.2395">
        <ele>14.9</ele>
        <time>2023-10-11T14:56:21Z</time>
      </trkpt>
      <trkpt lat="49.23397" lon="-0.23946">
        <ele>15.2</ele>
        <time>2023-10-11T14:56:22Z</time>
      </trkpt>
      <trkpt lat="49.23404" lon="-0.23942">
        <ele>15.4</ele>
        <time>2023-10-11T14:56:23Z</time>
      </trkpt>
      <trkpt lat="49.23412" lon="-0.23938">
        <ele>15.7</ele>
        <time>2023-10-11T14:56:24Z</time>
      </trkpt>
      <trkpt lat="49.2342" lon="-0.23934">
        <ele>16</ele>
        <time>2023-10-11T14:56:25Z</time>
      </trkpt>
      <trkpt lat="49.23427" lon="-0.2393">
        <ele>16.2</ele>
        <time>2023-10-11T14:56:26Z</time>
      </trkpt>
      <trkpt lat="49.23435" lon="-0.23925">
        <ele>16.5</ele>
        <time>2023-10-11T14:56:27Z</time>
      </trkpt>
      <trkpt lat="49.23442" lon="-0.23919">
        <ele>16.7</ele>
        <time>2023-10-11T14:56:28Z</time>
      </trkpt>
      <trkpt lat="49.2345" lon="-0.23914">
        <ele>17</ele>
        <time>2023-10-11T14:56:29Z</time>
      </trkpt>
      <trkpt lat="49.23457" lon="-0.23908">
        <ele>17.2</ele>
        <time>2023-10-11T14:56:30Z</time>
      </trkpt>
      <trkpt lat="49.23465" lon="-0.23902">
        <ele>17.4</ele>
        <time>2023-10-11T14:56:31Z</time>
      </trkpt>
      <trkpt lat="49.23472" lon="-0.23896">
        <ele>17.7</ele>
        <time>2023-10-11T14:56:32Z</time>
      </trkpt>
      <trkpt lat="49.23479" lon="-0.2389">
        <ele>17.9</ele>
        <time>2023-10-11T14:56:33Z</time>
      </trkpt>
      <trkpt lat="49.23486" lon="-0.23884">
        <ele>18.1</ele>
        <time>2023-10-11T14:56:34Z</time>
      </trkpt>
      <trkpt lat="49.23494" lon="-0.23878">
        <ele>18.3</ele>
        <time>2023-10-11T14:56:35Z</time>
      </trkpt>
      <trkpt lat="49.23501" lon="-0.23871">
        <ele>18.5</ele>
        <time>2023-10-11T14:56:36Z</time>
      </trkpt>
      <trkpt lat="49.23508" lon="-0.23866">
        <ele>18.7</ele>
        <time>2023-10-11T14:56:37Z</time>
      </trkpt>
      <trkpt lat="49.23515" lon="-0.2386">
        <ele>18.9</ele>
        <time>2023-10-11T14:56:38Z</time>
      </trkpt>
      <trkpt lat="49.23523" lon="-0.23855">
        <ele>19.1</ele>
        <time>2023-10-11T14:56:39Z</time>
      </trkpt>
      <trkpt lat="49.2353" lon="-0.2385">
        <ele>19.3</ele>
        <time>2023-10-11T14:56:40Z</time>
      </trkpt>
      <trkpt lat="49.23538" lon="-0.23845">
        <ele>19.5</ele>
        <time>2023-10-11T14:56:41Z</time>
      </trkpt>
      <trkpt lat="49.23545" lon="-0.23841">
        <ele>19.7</ele>
        <time>2023-10-11T14:56:42Z</time>
      </trkpt>
      <trkpt lat="49.23552" lon="-0.23837">
        <ele>19.9</ele>
        <time>2023-10-11T14:56:43Z</time>
      </trkpt>
      <trkpt lat="49.23559" lon="-0.23832">
        <ele>20.1</ele>
        <time>2023-10-11T14:56:44Z</time>
      </trkpt>
      <trkpt lat="49.23566" lon="-0.23828">
        <ele>20.3</ele>
        <time>2023-10-11T14:56:45Z</time>
      </trkpt>
      <trkpt lat="49.23573" lon="-0.23824">
        <ele>20.5</ele>
        <time>2023-10-11T14:56:46Z</time>
      </trkpt>
      <trkpt lat="49.2358" lon="-0.2382">
        <ele>20.7</ele>
        <time>2023-10-11T14:56:47Z</time>
      </trkpt>
      <trkpt lat="49.23586" lon="-0.23817">
        <ele>20.9</ele>
        <time>2023-10-11T14:56:48Z</time>
      </trkpt>
      <trkpt lat="49.23593" lon="-0.23814">
        <ele>21.1</ele>
        <time>2023-10-11T14:56:49Z</time>
      </trkpt>
      <trkpt lat="49.23599" lon="-0.23811">
        <ele>21.3</ele>
        <time>2023-10-11T14:56:50Z</time>
      </trkpt>
      <trkpt lat="49.23605" lon="-0.23809">
        <ele>21.5</ele>
        <time>2023-10-11T14:56:51Z</time>
      </trkpt>
      <trkpt lat="49.23611" lon="-0.23807">
        <ele>21.7</ele>
        <time>2023-10-11T14:56:52Z</time>
      </trkpt>
      <trkpt lat="49.23617" lon="-0.23806">
        <ele>21.9</ele>
        <time>2023-10-11T14:56:53Z</time>
      </trkpt>
      <trkpt lat="49.23623" lon="-0.23805">
        <ele>22</ele>
        <time>2023-10-11T14:56:54Z</time>
      </trkpt>
      <trkpt lat="49.23628" lon="-0.23803">
        <ele>22.2</ele>
        <time>2023-10-11T14:56:55Z</time>
      </trkpt>
      <trkpt lat="49.23632" lon="-0.23798">
        <ele>22.3</ele>
        <time>2023-10-11T14:56:56Z</time>
      </trkpt>
      <trkpt lat="49.23635" lon="-0.2379">
        <ele>22.3</ele>
        <time>2023-10-11T14:56:57Z</time>
      </trkpt>
      <trkpt lat="49.23636" lon="-0.23781">
        <ele>22.3</ele>
        <time>2023-10-11T14:56:58Z</time>
      </trkpt>
      <trkpt lat="49.23637" lon="-0.23772">
        <ele>22.2</ele>
        <time>2023-10-11T14:56:59Z</time>
      </trkpt>
      <trkpt lat="49.23639" lon="-0.23763">
        <ele>22.2</ele>
        <time>2023-10-11T14:57:00Z</time>
      </trkpt>
      <trkpt lat="49.23641" lon="-0.23754">
        <ele>22.2</ele>
        <time>2023-10-11T14:57:01Z</time>
      </trkpt>
      <trkpt lat="49.23643" lon="-0.23744">
        <ele>22.2</ele>
        <time>2023-10-11T14:57:02Z</time>
      </trkpt>
      <trkpt lat="49.23645" lon="-0.23735">
        <ele>22.1</ele>
        <time>2023-10-11T14:57:03Z</time>
      </trkpt>
      <trkpt lat="49.23647" lon="-0.23725">
        <ele>22.1</ele>
        <time>2023-10-11T14:57:04Z</time>
      </trkpt>
      <trkpt lat="49.2365" lon="-0.23715">
        <ele>22.1</ele>
        <time>2023-10-11T14:57:05Z</time>
      </trkpt>
      <trkpt lat="49.23652" lon="-0.23706">
        <ele>22.1</ele>
        <time>2023-10-11T14:57:06Z</time>
      </trkpt>
      <trkpt lat="49.23654" lon="-0.23696">
        <ele>22.1</ele>
        <time>2023-10-11T14:57:07Z</time>
      </trkpt>
      <trkpt lat="49.23656" lon="-0.23686">
        <ele>22.1</ele>
        <time>2023-10-11T14:57:08Z</time>
      </trkpt>
      <trkpt lat="49.23658" lon="-0.23676">
        <ele>22.1</ele>
        <time>2023-10-11T14:57:09Z</time>
      </trkpt>
      <trkpt lat="49.2366" lon="-0.23666">
        <ele>22.2</ele>
        <time>2023-10-11T14:57:10Z</time>
      </trkpt>
      <trkpt lat="49.23662" lon="-0.23655">
        <ele>22.3</ele>
        <time>2023-10-11T14:57:11Z</time>
      </trkpt>
      <trkpt lat="49.23664" lon="-0.23645">
        <ele>22.3</ele>
        <time>2023-10-11T14:57:12Z</time>
      </trkpt>
      <trkpt lat="49.23666" lon="-0.23634">
        <ele>22.4</ele>
        <time>2023-10-11T14:57:13Z</time>
      </trkpt>
      <trkpt lat="49.23667" lon="-0.23623">
        <ele>22.5</ele>
        <time>2023-10-11T14:57:14Z</time>
      </trkpt>
      <trkpt lat="49.23669" lon="-0.23613">
        <ele>22.6</ele>
        <time>2023-10-11T14:57:15Z</time>
      </trkpt>
      <trkpt lat="49.23671" lon="-0.23602">
        <ele>22.7</ele>
        <time>2023-10-11T14:57:16Z</time>
      </trkpt>
      <trkpt lat="49.23673" lon="-0.23591">
        <ele>22.8</ele>
        <time>2023-10-11T14:57:17Z</time>
      </trkpt>
      <trkpt lat="49.23674" lon="-0.23581">
        <ele>22.9</ele>
        <time>2023-10-11T14:57:18Z</time>
      </trkpt>
      <trkpt lat="49.23676" lon="-0.2357">
        <ele>23</ele>
        <time>2023-10-11T14:57:19Z</time>
      </trkpt>
      <trkpt lat="49.23678" lon="-0.2356">
        <ele>23.1</ele>
        <time>2023-10-11T14:57:20Z</time>
      </trkpt>
      <trkpt lat="49.2368" lon="-0.23549">
        <ele>23.2</ele>
        <time>2023-10-11T14:57:21Z</time>
      </trkpt>
      <trkpt lat="49.23682" lon="-0.23539">
        <ele>23.3</ele>
        <time>2023-10-11T14:57:22Z</time>
      </trkpt>
      <trkpt lat="49.23684" lon="-0.23529">
        <ele>23.5</ele>
        <time>2023-10-11T14:57:23Z</time>
      </trkpt>
      <trkpt lat="49.23686" lon="-0.23519">
        <ele>23.6</ele>
        <time>2023-10-11T14:57:24Z</time>
      </trkpt>
      <trkpt lat="49.23689" lon="-0.23508">
        <ele>23.8</ele>
        <time>2023-10-11T14:57:25Z</time>
      </trkpt>
      <trkpt lat="49.23691" lon="-0.23498">
        <ele>23.9</ele>
        <time>2023-10-11T14:57:26Z</time>
      </trkpt>
      <trkpt lat="49.23694" lon="-0.23488">
        <ele>24.1</ele>
        <time>2023-10-11T14:57:27Z</time>
      </trkpt>
      <trkpt lat="49.23697" lon="-0.23479">
        <ele>24.2</ele>
        <time>2023-10-11T14:57:28Z</time>
      </trkpt>
      <trkpt lat="49.23699" lon="-0.23469">
        <ele>24.4</ele>
        <time>2023-10-11T14:57:29Z</time>
      </trkpt>
      <trkpt lat="49.23702" lon="-0.2346">
        <ele>24.6</ele>
        <time>2023-10-11T14:57:30Z</time>
      </trkpt>
      <trkpt lat="49.23705" lon="-0.2345">
        <ele>24.8</ele>
        <time>2023-10-11T14:57:31Z</time>
      </trkpt>
      <trkpt lat="49.23708" lon="-0.2344">
        <ele>25</ele>
        <time>2023-10-11T14:57:32Z</time>
      </trkpt>
      <trkpt lat="49.2371" lon="-0.2343">
        <ele>25.1</ele>
        <time>2023-10-11T14:57:33Z</time>
      </trkpt>
      <trkpt lat="49.23714" lon="-0.2342">
        <ele>25.3</ele>
        <time>2023-10-11T14:57:34Z</time>
      </trkpt>
      <trkpt lat="49.23717" lon="-0.23411">
        <ele>25.5</ele>
        <time>2023-10-11T14:57:35Z</time>
      </trkpt>
      <trkpt lat="49.2372" lon="-0.23401">
        <ele>25.6</ele>
        <time>2023-10-11T14:57:36Z</time>
      </trkpt>
      <trkpt lat="49.23724" lon="-0.23392">
        <ele>25.8</ele>
        <time>2023-10-11T14:57:37Z</time>
      </trkpt>
      <trkpt lat="49.23727" lon="-0.23383">
        <ele>26</ele>
        <time>2023-10-11T14:57:38Z</time>
      </trkpt>
      <trkpt lat="49.23731" lon="-0.23373">
        <ele>26.2</ele>
        <time>2023-10-11T14:57:39Z</time>
      </trkpt>
      <trkpt lat="49.23734" lon="-0.23364">
        <ele>26.4</ele>
        <time>2023-10-11T14:57:40Z</time>
      </trkpt>
      <trkpt lat="49.23738" lon="-0.23355">
        <ele>26.6</ele>
        <time>2023-10-11T14:57:41Z</time>
      </trkpt>
      <trkpt lat="49.23741" lon="-0.23346">
        <ele>26.7</ele>
        <time>2023-10-11T14:57:42Z</time>
      </trkpt>
      <trkpt lat="49.23744" lon="-0.23337">
        <ele>26.9</ele>
        <time>2023-10-11T14:57:43Z</time>
      </trkpt>
      <trkpt lat="49.23747" lon="-0.23327">
        <ele>27</ele>
        <time>2023-10-11T14:57:44Z</time>
      </trkpt>
      <trkpt lat="49.2375" lon="-0.23317">
        <ele>27.1</ele>
        <time>2023-10-11T14:57:45Z</time>
      </trkpt>
      <trkpt lat="49.23753" lon="-0.23307">
        <ele>27.2</ele>
        <time>2023-10-11T14:57:46Z</time>
      </trkpt>
      <trkpt lat="49.23755" lon="-0.23296">
        <ele>27.3</ele>
        <time>2023-10-11T14:57:47Z</time>
      </trkpt>
      <trkpt lat="49.23757" lon="-0.23286">
        <ele>27.4</ele>
        <time>2023-10-11T14:57:48Z</time>
      </trkpt>
      <trkpt lat="49.23759" lon="-0.23275">
        <ele>27.5</ele>
        <time>2023-10-11T14:57:49Z</time>
      </trkpt>
      <trkpt lat="49.23761" lon="-0.23265">
        <ele>27.6</ele>
        <time>2023-10-11T14:57:50Z</time>
      </trkpt>
      <trkpt lat="49.23762" lon="-0.23255">
        <ele>27.8</ele>
        <time>2023-10-11T14:57:51Z</time>
      </trkpt>
      <trkpt lat="49.23764" lon="-0.23245">
        <ele>27.9</ele>
        <time>2023-10-11T14:57:52Z</time>
      </trkpt>
      <trkpt lat="49.23765" lon="-0.23235">
        <ele>28</ele>
        <time>2023-10-11T14:57:53Z</time>
      </trkpt>
      <trkpt lat="49.23766" lon="-0.23225">
        <ele>28.1</ele>
        <time>2023-10-11T14:57:54Z</time>
      </trkpt>
      <trkpt lat="49.23767" lon="-0.23214">
        <ele>28.3</ele>
        <time>2023-10-11T14:57:55Z</time>
      </trkpt>
      <trkpt lat="49.23768" lon="-0.23204">
        <ele>28.4</ele>
        <time>2023-10-11T14:57:56Z</time>
      </trkpt>
      <trkpt lat="49.23769" lon="-0.23194">
        <ele>28.5</ele>
        <time>2023-10-11T14:57:57Z</time>
      </trkpt>
      <trkpt lat="49.23771" lon="-0.23183">
        <ele>28.6</ele>
        <time>2023-10-11T14:57:58Z</time>
      </trkpt>
      <trkpt lat="49.23772" lon="-0.23173">
        <ele>28.7</ele>
        <time>2023-10-11T14:57:59Z</time>
      </trkpt>
      <trkpt lat="49.23774" lon="-0.23163">
        <ele>28.8</ele>
        <time>2023-10-11T14:58:00Z</time>
      </trkpt>
      <trkpt lat="49.23776" lon="-0.23152">
        <ele>28.9</ele>
        <time>2023-10-11T14:58:01Z</time>
      </trkpt>
      <trkpt lat="49.23777" lon="-0.23142">
        <ele>29</ele>
        <time>2023-10-11T14:58:02Z</time>
      </trkpt>
      <trkpt lat="49.23779" lon="-0.23132">
        <ele>29.1</ele>
        <time>2023-10-11T14:58:03Z</time>
      </trkpt>
      <trkpt lat="49.23781" lon="-0.23122">
        <ele>29.2</ele>
        <time>2023-10-11T14:58:04Z</time>
      </trkpt>
      <trkpt lat="49.23783" lon="-0.23112">
        <ele>29.3</ele>
        <time>2023-10-11T14:58:05Z</time>
      </trkpt>
      <trkpt lat="49.23786" lon="-0.23102">
        <ele>29.4</ele>
        <time>2023-10-11T14:58:06Z</time>
      </trkpt>
      <trkpt lat="49.23789" lon="-0.23092">
        <ele>29.6</ele>
        <time>2023-10-11T14:58:07Z</time>
      </trkpt>
      <trkpt lat="49.23792" lon="-0.23083">
        <ele>29.7</ele>
        <time>2023-10-11T14:58:08Z</time>
      </trkpt>
      <trkpt lat="49.23795" lon="-0.23074">
        <ele>29.9</ele>
        <time>2023-10-11T14:58:09Z</time>
      </trkpt>
      <trkpt lat="49.23798" lon="-0.23065">
        <ele>30</ele>
        <time>2023-10-11T14:58:10Z</time>
      </trkpt>
      <trkpt lat="49.23802" lon="-0.23056">
        <ele>30.2</ele>
        <time>2023-10-11T14:58:11Z</time>
      </trkpt>
      <trkpt lat="49.23806" lon="-0.23048">
        <ele>30.3</ele>
        <time>2023-10-11T14:58:12Z</time>
      </trkpt>
      <trkpt lat="49.23809" lon="-0.23039">
        <ele>30.5</ele>
        <time>2023-10-11T14:58:13Z</time>
      </trkpt>
      <trkpt lat="49.23812" lon="-0.23031">
        <ele>30.7</ele>
        <time>2023-10-11T14:58:14Z</time>
      </trkpt>
      <trkpt lat="49.23815" lon="-0.23022">
        <ele>30.9</ele>
        <time>2023-10-11T14:58:15Z</time>
      </trkpt>
      <trkpt lat="49.23817" lon="-0.23013">
        <ele>31.1</ele>
        <time>2023-10-11T14:58:16Z</time>
      </trkpt>
      <trkpt lat="49.2382" lon="-0.23003">
        <ele>31.3</ele>
        <time>2023-10-11T14:58:17Z</time>
      </trkpt>
      <trkpt lat="49.23822" lon="-0.22994">
        <ele>31.5</ele>
        <time>2023-10-11T14:58:18Z</time>
      </trkpt>
      <trkpt lat="49.23823" lon="-0.22985">
        <ele>31.7</ele>
        <time>2023-10-11T14:58:19Z</time>
      </trkpt>
      <trkpt lat="49.23825" lon="-0.22975">
        <ele>32</ele>
        <time>2023-10-11T14:58:20Z</time>
      </trkpt>
      <trkpt lat="49.23826" lon="-0.22965">
        <ele>32.3</ele>
        <time>2023-10-11T14:58:21Z</time>
      </trkpt>
      <trkpt lat="49.23827" lon="-0.22956">
        <ele>32.7</ele>
        <time>2023-10-11T14:58:22Z</time>
      </trkpt>
      <trkpt lat="49.23828" lon="-0.22947">
        <ele>33</ele>
        <time>2023-10-11T14:58:23Z</time>
      </trkpt>
      <trkpt lat="49.2383" lon="-0.22938">
        <ele>33.3</ele>
        <time>2023-10-11T14:58:24Z</time>
      </trkpt>
      <trkpt lat="49.23831" lon="-0.22929">
        <ele>33.7</ele>
        <time>2023-10-11T14:58:25Z</time>
      </trkpt>
      <trkpt lat="49.23832" lon="-0.22921">
        <ele>34</ele>
        <time>2023-10-11T14:58:26Z</time>
      </trkpt>
      <trkpt lat="49.23834" lon="-0.22912">
        <ele>34.4</ele>
        <time>2023-10-11T14:58:27Z</time>
      </trkpt>
      <trkpt lat="49.23836" lon="-0.22904">
        <ele>34.8</ele>
        <time>2023-10-11T14:58:28Z</time>
      </trkpt>
      <trkpt lat="49.23838" lon="-0.22897">
        <ele>35.2</ele>
        <time>2023-10-11T14:58:29Z</time>
      </trkpt>
      <trkpt lat="49.2384" lon="-0.22889">
        <ele>35.5</ele>
        <time>2023-10-11T14:58:30Z</time>
      </trkpt>
      <trkpt lat="49.23842" lon="-0.22881">
        <ele>35.9</ele>
        <time>2023-10-11T14:58:31Z</time>
      </trkpt>
      <trkpt lat="49.23844" lon="-0.22874">
        <ele>36.3</ele>
        <time>2023-10-11T14:58:32Z</time>
      </trkpt>
      <trkpt lat="49.23847" lon="-0.22867">
        <ele>36.7</ele>
        <time>2023-10-11T14:58:33Z</time>
      </trkpt>
      <trkpt lat="49.23849" lon="-0.2286">
        <ele>37.1</ele>
        <time>2023-10-11T14:58:34Z</time>
      </trkpt>
      <trkpt lat="49.23851" lon="-0.22853">
        <ele>37.5</ele>
        <time>2023-10-11T14:58:35Z</time>
      </trkpt>
      <trkpt lat="49.23854" lon="-0.22846">
        <ele>37.9</ele>
        <time>2023-10-11T14:58:36Z</time>
      </trkpt>
      <trkpt lat="49.23856" lon="-0.2284">
        <ele>38.2</ele>
        <time>2023-10-11T14:58:37Z</time>
      </trkpt>
      <trkpt lat="49.23859" lon="-0.22834">
        <ele>38.7</ele>
        <time>2023-10-11T14:58:38Z</time>
      </trkpt>
      <trkpt lat="49.23862" lon="-0.22828">
        <ele>39.1</ele>
        <time>2023-10-11T14:58:39Z</time>
      </trkpt>
      <trkpt lat="49.23865" lon="-0.22823">
        <ele>39.5</ele>
        <time>2023-10-11T14:58:40Z</time>
      </trkpt>
      <trkpt lat="49.23868" lon="-0.22818">
        <ele>40</ele>
        <time>2023-10-11T14:58:41Z</time>
      </trkpt>
      <trkpt lat="49.2387" lon="-0.22814">
        <ele>40.4</ele>
        <time>2023-10-11T14:58:42Z</time>
      </trkpt>
      <trkpt lat="49.23873" lon="-0.22809">
        <ele>40.8</ele>
        <time>2023-10-11T14:58:43Z</time>
      </trkpt>
      <trkpt lat="49.23875" lon="-0.22805">
        <ele>41.2</ele>
        <time>2023-10-11T14:58:44Z</time>
      </trkpt>
      <trkpt lat="49.23878" lon="-0.22801">
        <ele>41.6</ele>
        <time>2023-10-11T14:58:45Z</time>
      </trkpt>
      <trkpt lat="49.23882" lon="-0.22796">
        <ele>42.1</ele>
        <time>2023-10-11T14:58:46Z</time>
      </trkpt>
      <trkpt lat="49.23885" lon="-0.22792">
        <ele>42.5</ele>
        <time>2023-10-11T14:58:47Z</time>
      </trkpt>
      <trkpt lat="49.23888" lon="-0.22788">
        <ele>42.9</ele>
        <time>2023-10-11T14:58:48Z</time>
      </trkpt>
      <trkpt lat="49.23891" lon="-0.22785">
        <ele>43.3</ele>
        <time>2023-10-11T14:58:49Z</time>
      </trkpt>
      <trkpt lat="49.23894" lon="-0.22781">
        <ele>43.8</ele>
        <time>2023-10-11T14:58:50Z</time>
      </trkpt>
      <trkpt lat="49.23897" lon="-0.22777">
        <ele>44.2</ele>
        <time>2023-10-11T14:58:51Z</time>
      </trkpt>
      <trkpt lat="49.23901" lon="-0.22773">
        <ele>44.7</ele>
        <time>2023-10-11T14:58:52Z</time>
      </trkpt>
      <trkpt lat="49.23904" lon="-0.22769">
        <ele>45.1</ele>
        <time>2023-10-11T14:58:53Z</time>
      </trkpt>
      <trkpt lat="49.23908" lon="-0.22765">
        <ele>45.5</ele>
        <time>2023-10-11T14:58:54Z</time>
      </trkpt>
      <trkpt lat="49.23911" lon="-0.22761">
        <ele>45.9</ele>
        <time>2023-10-11T14:58:55Z</time>
      </trkpt>
      <trkpt lat="49.23914" lon="-0.22757">
        <ele>46.4</ele>
        <time>2023-10-11T14:58:56Z</time>
      </trkpt>
      <trkpt lat="49.23918" lon="-0.22753">
        <ele>46.8</ele>
        <time>2023-10-11T14:58:57Z</time>
      </trkpt>
      <trkpt lat="49.23921" lon="-0.22749">
        <ele>47.2</ele>
        <time>2023-10-11T14:58:58Z</time>
      </trkpt>
      <trkpt lat="49.23925" lon="-0.22746">
        <ele>47.6</ele>
        <time>2023-10-11T14:58:59Z</time>
      </trkpt>
      <trkpt lat="49.23928" lon="-0.22742">
        <ele>48</ele>
        <time>2023-10-11T14:59:00Z</time>
      </trkpt>
      <trkpt lat="49.23931" lon="-0.22738">
        <ele>48.4</ele>
        <time>2023-10-11T14:59:01Z</time>
      </trkpt>
      <trkpt lat="49.23934" lon="-0.22735">
        <ele>48.8</ele>
        <time>2023-10-11T14:59:02Z</time>
      </trkpt>
      <trkpt lat="49.23937" lon="-0.22731">
        <ele>49.1</ele>
        <time>2023-10-11T14:59:03Z</time>
      </trkpt>
      <trkpt lat="49.2394" lon="-0.22727">
        <ele>49.5</ele>
        <time>2023-10-11T14:59:04Z</time>
      </trkpt>
      <trkpt lat="49.23942" lon="-0.22724">
        <ele>49.8</ele>
        <time>2023-10-11T14:59:05Z</time>
      </trkpt>
      <trkpt lat="49.23945" lon="-0.2272">
        <ele>50.2</ele>
        <time>2023-10-11T14:59:06Z</time>
      </trkpt>
      <trkpt lat="49.23948" lon="-0.22717">
        <ele>50.5</ele>
        <time>2023-10-11T14:59:07Z</time>
      </trkpt>
      <trkpt lat="49.23951" lon="-0.22713">
        <ele>50.8</ele>
        <time>2023-10-11T14:59:08Z</time>
      </trkpt>
      <trkpt lat="49.23954" lon="-0.22708">
        <ele>51.2</ele>
        <time>2023-10-11T14:59:09Z</time>
      </trkpt>
      <trkpt lat="49.23957" lon="-0.22704">
        <ele>51.5</ele>
        <time>2023-10-11T14:59:10Z</time>
      </trkpt>
      <trkpt lat="49.2396" lon="-0.22699">
        <ele>51.9</ele>
        <time>2023-10-11T14:59:11Z</time>
      </trkpt>
      <trkpt lat="49.23964" lon="-0.22695">
        <ele>52.3</ele>
        <time>2023-10-11T14:59:12Z</time>
      </trkpt>
      <trkpt lat="49.23967" lon="-0.2269">
        <ele>52.6</ele>
        <time>2023-10-11T14:59:13Z</time>
      </trkpt>
      <trkpt lat="49.2397" lon="-0.22686">
        <ele>52.9</ele>
        <time>2023-10-11T14:59:14Z</time>
      </trkpt>
      <trkpt lat="49.23972" lon="-0.22682">
        <ele>53.2</ele>
        <time>2023-10-11T14:59:15Z</time>
      </trkpt>
      <trkpt lat="49.23975" lon="-0.22677">
        <ele>53.5</ele>
        <time>2023-10-11T14:59:16Z</time>
      </trkpt>
      <trkpt lat="49.23978" lon="-0.22672">
        <ele>53.7</ele>
        <time>2023-10-11T14:59:17Z</time>
      </trkpt>
      <trkpt lat="49.2398" lon="-0.22667">
        <ele>54</ele>
        <time>2023-10-11T14:59:18Z</time>
      </trkpt>
      <trkpt lat="49.23983" lon="-0.22661">
        <ele>54.3</ele>
        <time>2023-10-11T14:59:19Z</time>
      </trkpt>
      <trkpt lat="49.23987" lon="-0.22656">
        <ele>54.4</ele>
        <time>2023-10-11T14:59:20Z</time>
      </trkpt>
      <trkpt lat="49.2399" lon="-0.2265">
        <ele>54.6</ele>
        <time>2023-10-11T14:59:21Z</time>
      </trkpt>
      <trkpt lat="49.23994" lon="-0.22645">
        <ele>54.8</ele>
        <time>2023-10-11T14:59:22Z</time>
      </trkpt>
      <trkpt lat="49.23997" lon="-0.2264">
        <ele>55</ele>
        <time>2023-10-11T14:59:23Z</time>
      </trkpt>
      <trkpt lat="49.24001" lon="-0.22635">
        <ele>55.1</ele>
        <time>2023-10-11T14:59:24Z</time>
      </trkpt>
      <trkpt lat="49.24004" lon="-0.2263">
        <ele>55.2</ele>
        <time>2023-10-11T14:59:25Z</time>
      </trkpt>
      <trkpt lat="49.24008" lon="-0.22626">
        <ele>55.4</ele>
        <time>2023-10-11T14:59:26Z</time>
      </trkpt>
      <trkpt lat="49.24011" lon="-0.22621">
        <ele>55.5</ele>
        <time>2023-10-11T14:59:27Z</time>
      </trkpt>
      <trkpt lat="49.24015" lon="-0.22616">
        <ele>55.6</ele>
        <time>2023-10-11T14:59:28Z</time>
      </trkpt>
      <trkpt lat="49.24019" lon="-0.22611">
        <ele>55.7</ele>
        <time>2023-10-11T14:59:29Z</time>
      </trkpt>
      <trkpt lat="49.24023" lon="-0.22606">
        <ele>55.7</ele>
        <time>2023-10-11T14:59:30Z</time>
      </trkpt>
      <trkpt lat="49.24028" lon="-0.226">
        <ele>55.8</ele>
        <time>2023-10-11T14:59:31Z</time>
      </trkpt>
      <trkpt lat="49.24032" lon="-0.22595">
        <ele>55.8</ele>
        <time>2023-10-11T14:59:32Z</time>
      </trkpt>
      <trkpt lat="49.24037" lon="-0.22589">
        <ele>55.8</ele>
        <time>2023-10-11T14:59:33Z</time>
      </trkpt>
      <trkpt lat="49.24041" lon="-0.22583">
        <ele>55.9</ele>
        <time>2023-10-11T14:59:34Z</time>
      </trkpt>
      <trkpt lat="49.24046" lon="-0.22576">
        <ele>55.9</ele>
        <time>2023-10-11T14:59:35Z</time>
      </trkpt>
      <trkpt lat="49.2405" lon="-0.22569">
        <ele>55.9</ele>
        <time>2023-10-11T14:59:36Z</time>
      </trkpt>
      <trkpt lat="49.24054" lon="-0.22562">
        <ele>55.9</ele>
        <time>2023-10-11T14:59:37Z</time>
      </trkpt>
      <trkpt lat="49.24059" lon="-0.22555">
        <ele>55.9</ele>
        <time>2023-10-11T14:59:38Z</time>
      </trkpt>
      <trkpt lat="49.24064" lon="-0.22549">
        <ele>55.9</ele>
        <time>2023-10-11T14:59:39Z</time>
      </trkpt>
      <trkpt lat="49.24069" lon="-0.22542">
        <ele>55.9</ele>
        <time>2023-10-11T14:59:40Z</time>
      </trkpt>
      <trkpt lat="49.24073" lon="-0.22535">
        <ele>55.9</ele>
        <time>2023-10-11T14:59:41Z</time>
      </trkpt>
      <trkpt lat="49.24078" lon="-0.22528">
        <ele>55.9</ele>
        <time>2023-10-11T14:59:42Z</time>
      </trkpt>
      <trkpt lat="49.24082" lon="-0.2252">
        <ele>55.9</ele>
        <time>2023-10-11T14:59:43Z</time>
      </trkpt>
      <trkpt lat="49.24086" lon="-0.22514">
        <ele>55.9</ele>
        <time>2023-10-11T14:59:44Z</time>
      </trkpt>
      <trkpt lat="49.24089" lon="-0.22507">
        <ele>55.8</ele>
        <time>2023-10-11T14:59:45Z</time>
      </trkpt>
      <trkpt lat="49.24093" lon="-0.225">
        <ele>55.8</ele>
        <time>2023-10-11T14:59:46Z</time>
      </trkpt>
      <trkpt lat="49.24096" lon="-0.22493">
        <ele>55.8</ele>
        <time>2023-10-11T14:59:47Z</time>
      </trkpt>
      <trkpt lat="49.241" lon="-0.22486">
        <ele>55.8</ele>
        <time>2023-10-11T14:59:48Z</time>
      </trkpt>
      <trkpt lat="49.24103" lon="-0.22479">
        <ele>55.7</ele>
        <time>2023-10-11T14:59:49Z</time>
      </trkpt>
      <trkpt lat="49.24105" lon="-0.22472">
        <ele>55.7</ele>
        <time>2023-10-11T14:59:50Z</time>
      </trkpt>
      <trkpt lat="49.24107" lon="-0.22465">
        <ele>55.6</ele>
        <time>2023-10-11T14:59:51Z</time>
      </trkpt>
      <trkpt lat="49.24109" lon="-0.22459">
        <ele>55.6</ele>
        <time>2023-10-11T14:59:52Z</time>
      </trkpt>
      <trkpt lat="49.24111" lon="-0.22454">
        <ele>55.6</ele>
        <time>2023-10-11T14:59:53Z</time>
      </trkpt>
      <trkpt lat="49.24113" lon="-0.2245">
        <ele>55.5</ele>
        <time>2023-10-11T14:59:54Z</time>
      </trkpt>
      <trkpt lat="49.24117" lon="-0.2245">
        <ele>55.5</ele>
        <time>2023-10-11T14:59:55Z</time>
      </trkpt>
      <trkpt lat="49.24118" lon="-0.2245">
        <ele>55.7</ele>
        <time>2023-10-11T14:59:56Z</time>
      </trkpt>
      <trkpt lat="49.24122" lon="-0.22452">
        <ele>55.7</ele>
        <time>2023-10-11T14:59:57Z</time>
      </trkpt>
      <trkpt lat="49.24123" lon="-0.22453">
        <ele>55.7</ele>
        <time>2023-10-11T14:59:58Z</time>
      </trkpt>
      <trkpt lat="49.24125" lon="-0.22455">
        <ele>55.6</ele>
        <time>2023-10-11T14:59:59Z</time>
      </trkpt>
      <trkpt lat="49.24126" lon="-0.22455">
        <ele>55.6</ele>
        <time>2023-10-11T15:00:00Z</time>
      </trkpt>
      <trkpt lat="49.24128" lon="-0.22456">
        <ele>55.6</ele>
        <time>2023-10-11T15:00:01Z</time>
      </trkpt>
      <trkpt lat="49.24129" lon="-0.22457">
        <ele>55.6</ele>
        <time>2023-10-11T15:00:02Z</time>
      </trkpt>
      <trkpt lat="49.2413" lon="-0.22458">
        <ele>55.6</ele>
        <time>2023-10-11T15:00:03Z</time>
      </trkpt>
      <trkpt lat="49.24131" lon="-0.22458">
        <ele>55.6</ele>
        <time>2023-10-11T15:00:04Z</time>
      </trkpt>
      <trkpt lat="49.24131" lon="-0.22459">
        <ele>55.6</ele>
        <time>2023-10-11T15:00:05Z</time>
      </trkpt>
      <trkpt lat="49.24132" lon="-0.22459">
        <ele>55.6</ele>
        <time>2023-10-11T15:00:06Z</time>
      </trkpt>
      <trkpt lat="49.24132" lon="-0.2246">
        <ele>55.6</ele>
        <time>2023-10-11T15:00:07Z</time>
      </trkpt>
      <trkpt lat="49.24133" lon="-0.2246">
        <ele>55.6</ele>
        <time>2023-10-11T15:00:08Z</time>
      </trkpt>
      <trkpt lat="49.24133" lon="-0.22461">
        <ele>55.6</ele>
        <time>2023-10-11T15:00:09Z</time>
      </trkpt>
      <trkpt lat="49.24133" lon="-0.22462">
        <ele>55.6</ele>
        <time>2023-10-11T15:00:10Z</time>
      </trkpt>
      <trkpt lat="49.24134" lon="-0.22462">
        <ele>55.6</ele>
        <time>2023-10-11T15:00:12Z</time>
      </trkpt>
      <trkpt lat="49.24134" lon="-0.22463">
        <ele>55.6</ele>
        <time>2023-10-11T15:00:13Z</time>
      </trkpt>
      <trkpt lat="49.24135" lon="-0.22463">
        <ele>55.6</ele>
        <time>2023-10-11T15:00:14Z</time>
      </trkpt>
      <trkpt lat="49.24135" lon="-0.22464">
        <ele>55.5</ele>
        <time>2023-10-11T15:00:40Z</time>
      </trkpt>
      <trkpt lat="49.24136" lon="-0.22464">
        <ele>55.5</ele>
        <time>2023-10-11T15:00:41Z</time>
      </trkpt>
      <trkpt lat="49.24136" lon="-0.22465">
        <ele>55.5</ele>
        <time>2023-10-11T15:00:42Z</time>
      </trkpt>
      <trkpt lat="49.24138" lon="-0.22468">
        <ele>55.5</ele>
        <time>2023-10-11T15:00:43Z</time>
      </trkpt>
      <trkpt lat="49.2414" lon="-0.22472">
        <ele>55.5</ele>
        <time>2023-10-11T15:00:44Z</time>
      </trkpt>
      <trkpt lat="49.24143" lon="-0.22476">
        <ele>55.5</ele>
        <time>2023-10-11T15:00:45Z</time>
      </trkpt>
      <trkpt lat="49.24145" lon="-0.22481">
        <ele>55.4</ele>
        <time>2023-10-11T15:00:46Z</time>
      </trkpt>
      <trkpt lat="49.24147" lon="-0.22487">
        <ele>55.4</ele>
        <time>2023-10-11T15:00:47Z</time>
      </trkpt>
      <trkpt lat="49.24148" lon="-0.22494">
        <ele>55.4</ele>
        <time>2023-10-11T15:00:48Z</time>
      </trkpt>
      <trkpt lat="49.2415" lon="-0.22502">
        <ele>55.3</ele>
        <time>2023-10-11T15:00:49Z</time>
      </trkpt>
      <trkpt lat="49.24151" lon="-0.2251">
        <ele>55.2</ele>
        <time>2023-10-11T15:00:50Z</time>
      </trkpt>
      <trkpt lat="49.24153" lon="-0.22518">
        <ele>55.1</ele>
        <time>2023-10-11T15:00:51Z</time>
      </trkpt>
      <trkpt lat="49.24154" lon="-0.22527">
        <ele>55</ele>
        <time>2023-10-11T15:00:52Z</time>
      </trkpt>
      <trkpt lat="49.24155" lon="-0.22535">
        <ele>55</ele>
        <time>2023-10-11T15:00:53Z</time>
      </trkpt>
      <trkpt lat="49.24156" lon="-0.22543">
        <ele>54.9</ele>
        <time>2023-10-11T15:00:54Z</time>
      </trkpt>
      <trkpt lat="49.24158" lon="-0.22551">
        <ele>54.8</ele>
        <time>2023-10-11T15:00:55Z</time>
      </trkpt>
      <trkpt lat="49.24159" lon="-0.2256">
        <ele>54.7</ele>
        <time>2023-10-11T15:00:56Z</time>
      </trkpt>
      <trkpt lat="49.2416" lon="-0.22568">
        <ele>54.7</ele>
        <time>2023-10-11T15:00:57Z</time>
      </trkpt>
      <trkpt lat="49.24161" lon="-0.22575">
        <ele>54.6</ele>
        <time>2023-10-11T15:00:58Z</time>
      </trkpt>
      <trkpt lat="49.24162" lon="-0.22583">
        <ele>54.5</ele>
        <time>2023-10-11T15:00:59Z</time>
      </trkpt>
      <trkpt lat="49.24163" lon="-0.22589">
        <ele>54.5</ele>
        <time>2023-10-11T15:01:00Z</time>
      </trkpt>
      <trkpt lat="49.24164" lon="-0.22594">
        <ele>54.4</ele>
        <time>2023-10-11T15:01:01Z</time>
      </trkpt>
      <trkpt lat="49.24166" lon="-0.22598">
        <ele>54.3</ele>
        <time>2023-10-11T15:01:02Z</time>
      </trkpt>
      <trkpt lat="49.24169" lon="-0.22601">
        <ele>54.3</ele>
        <time>2023-10-11T15:01:03Z</time>
      </trkpt>
      <trkpt lat="49.24172" lon="-0.22602">
        <ele>54.2</ele>
        <time>2023-10-11T15:01:04Z</time>
      </trkpt>
      <trkpt lat="49.24177" lon="-0.22603">
        <ele>54.2</ele>
        <time>2023-10-11T15:01:05Z</time>
      </trkpt>
      <trkpt lat="49.24181" lon="-0.22603">
        <ele>54.1</ele>
        <time>2023-10-11T15:01:06Z</time>
      </trkpt>
      <trkpt lat="49.24186" lon="-0.22603">
        <ele>54.1</ele>
        <time>2023-10-11T15:01:07Z</time>
      </trkpt>
      <trkpt lat="49.24191" lon="-0.22603">
        <ele>54.1</ele>
        <time>2023-10-11T15:01:08Z</time>
      </trkpt>
      <trkpt lat="49.24197" lon="-0.22602">
        <ele>54.1</ele>
        <time>2023-10-11T15:01:09Z</time>
      </trkpt>
      <trkpt lat="49.24202" lon="-0.22602">
        <ele>54.1</ele>
        <time>2023-10-11T15:01:10Z</time>
      </trkpt>
      <trkpt lat="49.24207" lon="-0.22601">
        <ele>54.1</ele>
        <time>2023-10-11T15:01:11Z</time>
      </trkpt>
      <trkpt lat="49.24212" lon="-0.22599">
        <ele>54.2</ele>
        <time>2023-10-11T15:01:12Z</time>
      </trkpt>
      <trkpt lat="49.24217" lon="-0.22598">
        <ele>54.3</ele>
        <time>2023-10-11T15:01:13Z</time>
      </trkpt>
      <trkpt lat="49.24222" lon="-0.22595">
        <ele>54.4</ele>
        <time>2023-10-11T15:01:14Z</time>
      </trkpt>
      <trkpt lat="49.24227" lon="-0.22592">
        <ele>54.5</ele>
        <time>2023-10-11T15:01:15Z</time>
      </trkpt>
      <trkpt lat="49.24232" lon="-0.22589">
        <ele>54.6</ele>
        <time>2023-10-11T15:01:16Z</time>
      </trkpt>
      <trkpt lat="49.24238" lon="-0.22585">
        <ele>54.7</ele>
        <time>2023-10-11T15:01:17Z</time>
      </trkpt>
      <trkpt lat="49.24243" lon="-0.22582">
        <ele>54.9</ele>
        <time>2023-10-11T15:01:18Z</time>
      </trkpt>
      <trkpt lat="49.24248" lon="-0.22578">
        <ele>55</ele>
        <time>2023-10-11T15:01:19Z</time>
      </trkpt>
      <trkpt lat="49.24253" lon="-0.22575">
        <ele>55.1</ele>
        <time>2023-10-11T15:01:20Z</time>
      </trkpt>
      <trkpt lat="49.24258" lon="-0.22572">
        <ele>55.1</ele>
        <time>2023-10-11T15:01:21Z</time>
      </trkpt>
      <trkpt lat="49.24262" lon="-0.22569">
        <ele>55.2</ele>
        <time>2023-10-11T15:01:22Z</time>
      </trkpt>
      <trkpt lat="49.24267" lon="-0.22567">
        <ele>55.3</ele>
        <time>2023-10-11T15:01:23Z</time>
      </trkpt>
      <trkpt lat="49.24271" lon="-0.22563">
        <ele>55.3</ele>
        <time>2023-10-11T15:01:24Z</time>
      </trkpt>
      <trkpt lat="49.24276" lon="-0.2256">
        <ele>55.3</ele>
        <time>2023-10-11T15:01:25Z</time>
      </trkpt>
      <trkpt lat="49.24281" lon="-0.22556">
        <ele>55.4</ele>
        <time>2023-10-11T15:01:26Z</time>
      </trkpt>
      <trkpt lat="49.24286" lon="-0.22553">
        <ele>55.4</ele>
        <time>2023-10-11T15:01:27Z</time>
      </trkpt>
      <trkpt lat="49.2429" lon="-0.22549">
        <ele>55.5</ele>
        <time>2023-10-11T15:01:28Z</time>
      </trkpt>
      <trkpt lat="49.24295" lon="-0.22546">
        <ele>55.5</ele>
        <time>2023-10-11T15:01:29Z</time>
      </trkpt>
      <trkpt lat="49.24299" lon="-0.22543">
        <ele>55.6</ele>
        <time>2023-10-11T15:01:30Z</time>
      </trkpt>
      <trkpt lat="49.24304" lon="-0.2254">
        <ele>55.6</ele>
        <time>2023-10-11T15:01:31Z</time>
      </trkpt>
      <trkpt lat="49.24308" lon="-0.22537">
        <ele>55.6</ele>
        <time>2023-10-11T15:01:32Z</time>
      </trkpt>
      <trkpt lat="49.24312" lon="-0.22534">
        <ele>55.7</ele>
        <time>2023-10-11T15:01:33Z</time>
      </trkpt>
      <trkpt lat="49.24316" lon="-0.22531">
        <ele>55.7</ele>
        <time>2023-10-11T15:01:34Z</time>
      </trkpt>
      <trkpt lat="49.24319" lon="-0.22527">
        <ele>55.7</ele>
        <time>2023-10-11T15:01:35Z</time>
      </trkpt>
      <trkpt lat="49.2432" lon="-0.22522">
        <ele>55.7</ele>
        <time>2023-10-11T15:01:36Z</time>
      </trkpt>
      <trkpt lat="49.2432" lon="-0.22516">
        <ele>55.7</ele>
        <time>2023-10-11T15:01:37Z</time>
      </trkpt>
      <trkpt lat="49.24319" lon="-0.2251">
        <ele>55.7</ele>
        <time>2023-10-11T15:01:38Z</time>
      </trkpt>
      <trkpt lat="49.24317" lon="-0.22504">
        <ele>55.6</ele>
        <time>2023-10-11T15:01:39Z</time>
      </trkpt>
      <trkpt lat="49.24315" lon="-0.22498">
        <ele>55.5</ele>
        <time>2023-10-11T15:01:40Z</time>
      </trkpt>
      <trkpt lat="49.24313" lon="-0.22492">
        <ele>55.5</ele>
        <time>2023-10-11T15:01:41Z</time>
      </trkpt>
      <trkpt lat="49.24311" lon="-0.22486">
        <ele>55.4</ele>
        <time>2023-10-11T15:01:42Z</time>
      </trkpt>
      <trkpt lat="49.24308" lon="-0.22481">
        <ele>55.4</ele>
        <time>2023-10-11T15:01:43Z</time>
      </trkpt>
      <trkpt lat="49.24307" lon="-0.22475">
        <ele>55.3</ele>
        <time>2023-10-11T15:01:44Z</time>
      </trkpt>
      <trkpt lat="49.24305" lon="-0.2247">
        <ele>55.3</ele>
        <time>2023-10-11T15:01:45Z</time>
      </trkpt>
      <trkpt lat="49.24303" lon="-0.22464">
        <ele>55.3</ele>
        <time>2023-10-11T15:01:46Z</time>
      </trkpt>
      <trkpt lat="49.24301" lon="-0.22459">
        <ele>55.2</ele>
        <time>2023-10-11T15:01:47Z</time>
      </trkpt>
      <trkpt lat="49.24299" lon="-0.22454">
        <ele>55.2</ele>
        <time>2023-10-11T15:01:48Z</time>
      </trkpt>
      <trkpt lat="49.24298" lon="-0.2245">
        <ele>55.2</ele>
        <time>2023-10-11T15:01:49Z</time>
      </trkpt>
      <trkpt lat="49.24297" lon="-0.22445">
        <ele>55.2</ele>
        <time>2023-10-11T15:01:50Z</time>
      </trkpt>
      <trkpt lat="49.24296" lon="-0.22443">
        <ele>55.2</ele>
        <time>2023-10-11T15:01:51Z</time>
      </trkpt>
      <trkpt lat="49.24297" lon="-0.22438">
        <ele>55.2</ele>
        <time>2023-10-11T15:01:52Z</time>
      </trkpt>
      <trkpt lat="49.24297" lon="-0.22437">
        <ele>55.2</ele>
        <time>2023-10-11T15:01:53Z</time>
      </trkpt>
      <trkpt lat="49.243" lon="-0.22435">
        <ele>55.2</ele>
        <time>2023-10-11T15:01:54Z</time>
      </trkpt>
      <trkpt lat="49.243" lon="-0.22435">
        <ele>55.2</ele>
        <time>2023-10-11T15:01:55Z</time>
      </trkpt>
      <trkpt lat="49.24301" lon="-0.22434">
        <ele>55.2</ele>
        <time>2023-10-11T15:01:56Z</time>
      </trkpt>
      <trkpt lat="49.24301" lon="-0.22435">
        <ele>55.2</ele>
        <time>2023-10-11T15:01:57Z</time>
      </trkpt>
      <trkpt lat="49.24301" lon="-0.22435">
        <ele>55.2</ele>
        <time>2023-10-11T15:01:58Z</time>
      </trkpt>
      <trkpt lat="49.24301" lon="-0.22434">
        <ele>55.2</ele>
        <time>2023-10-11T15:01:59Z</time>
      </trkpt>
      <trkpt lat="49.24301" lon="-0.22434">
        <ele>55.2</ele>
        <time>2023-10-11T15:02:00Z</time>
      </trkpt>
      <trkpt lat="49.24301" lon="-0.22435">
        <ele>55.2</ele>
        <time>2023-10-11T15:02:01Z</time>
      </trkpt>
      <trkpt lat="49.24301" lon="-0.22435">
        <ele>55.2</ele>
        <time>2023-10-11T15:02:02Z</time>
      </trkpt>
      <trkpt lat="49.24301" lon="-0.22435">
        <ele>55.2</ele>
        <time>2023-10-11T15:02:03Z</time>
      </trkpt>
      <trkpt lat="49.24301" lon="-0.22435">
        <ele>55.2</ele>
        <time>2023-10-11T15:02:04Z</time>
      </trkpt>
      <trkpt lat="49.24301" lon="-0.22435">
        <ele>55.2</ele>
        <time>2023-10-11T15:02:05Z</time>
      </trkpt>
      <trkpt lat="49.24301" lon="-0.22435">
        <ele>55.2</ele>
        <time>2023-10-11T15:02:06Z</time>
      </trkpt>
      <trkpt lat="49.24301" lon="-0.22435">
        <ele>55.2</ele>
        <time>2023-10-11T15:02:07Z</time>
      </trkpt>
      <trkpt lat="49.24303" lon="-0.22432">
        <ele>55.2</ele>
        <time>2023-10-11T15:02:20Z</time>
      </trkpt>
      <trkpt lat="49.24303" lon="-0.22431">
        <ele>55.2</ele>
        <time>2023-10-11T15:02:21Z</time>
      </trkpt>
      <trkpt lat="49.24303" lon="-0.2243">
        <ele>55.2</ele>
        <time>2023-10-11T15:02:22Z</time>
      </trkpt>
      <trkpt lat="49.24303" lon="-0.22429">
        <ele>55.2</ele>
        <time>2023-10-11T15:02:23Z</time>
      </trkpt>
      <trkpt lat="49.24303" lon="-0.22429">
        <ele>55.2</ele>
        <time>2023-10-11T15:02:24Z</time>
      </trkpt>
      <trkpt lat="49.24303" lon="-0.22429">
        <ele>55.2</ele>
        <time>2023-10-11T15:02:25Z</time>
      </trkpt>
      <trkpt lat="49.24303" lon="-0.22429">
        <ele>55.2</ele>
        <time>2023-10-11T15:02:26Z</time>
      </trkpt>
      <trkpt lat="49.24303" lon="-0.22429">
        <ele>55.2</ele>
        <time>2023-10-11T15:02:27Z</time>
      </trkpt>
      <trkpt lat="49.24303" lon="-0.22429">
        <ele>55.2</ele>
        <time>2023-10-11T15:02:28Z</time>
      </trkpt>
      <trkpt lat="49.24303" lon="-0.22429">
        <ele>55.2</ele>
        <time>2023-10-11T15:02:29Z</time>
      </trkpt>
      <trkpt lat="49.24303" lon="-0.22429">
        <ele>55.2</ele>
        <time>2023-10-11T15:02:30Z</time>
      </trkpt>
      <trkpt lat="49.24303" lon="-0.22429">
        <ele>55.2</ele>
        <time>2023-10-11T15:02:31Z</time>
      </trkpt>
      <trkpt lat="49.24303" lon="-0.22429">
        <ele>55.2</ele>
        <time>2023-10-11T15:02:32Z</time>
      </trkpt>
      <trkpt lat="49.24303" lon="-0.22429">
        <ele>55.2</ele>
        <time>2023-10-11T15:02:33Z</time>
      </trkpt>
      <trkpt lat="49.24305" lon="-0.22428">
        <ele>55.2</ele>
        <time>2023-10-11T15:02:37Z</time>
      </trkpt>
      <trkpt lat="49.24305" lon="-0.22428">
        <ele>55.2</ele>
        <time>2023-10-11T15:02:38Z</time>
      </trkpt>
      <trkpt lat="49.24306" lon="-0.22428">
        <ele>55.2</ele>
        <time>2023-10-11T15:02:39Z</time>
      </trkpt>
      <trkpt lat="49.24306" lon="-0.22428">
        <ele>55.2</ele>
        <time>2023-10-11T15:02:40Z</time>
      </trkpt>
      <trkpt lat="49.24306" lon="-0.22428">
        <ele>55.2</ele>
        <time>2023-10-11T15:02:41Z</time>
      </trkpt>
      <trkpt lat="49.24305" lon="-0.22428">
        <ele>55.2</ele>
        <time>2023-10-11T15:02:42Z</time>
      </trkpt>
      <trkpt lat="49.24305" lon="-0.22428">
        <ele>55.2</ele>
        <time>2023-10-11T15:02:43Z</time>
      </trkpt>
      <trkpt lat="49.24305" lon="-0.22428">
        <ele>55.2</ele>
        <time>2023-10-11T15:02:44Z</time>
      </trkpt>
      <trkpt lat="49.24305" lon="-0.22428">
        <ele>55.2</ele>
        <time>2023-10-11T15:02:45Z</time>
      </trkpt>
      <trkpt lat="49.24305" lon="-0.22428">
        <ele>55.2</ele>
        <time>2023-10-11T15:02:46Z</time>
      </trkpt>
      <trkpt lat="49.24305" lon="-0.22428">
        <ele>55.2</ele>
        <time>2023-10-11T15:02:47Z</time>
      </trkpt>
      <trkpt lat="49.24305" lon="-0.22428">
        <ele>55.2</ele>
        <time>2023-10-11T15:02:48Z</time>
      </trkpt>
      <trkpt lat="49.24308" lon="-0.22427">
        <ele>55.2</ele>
        <time>2023-10-11T15:03:27Z</time>
      </trkpt>
      <trkpt lat="49.24308" lon="-0.22427">
        <ele>55.2</ele>
        <time>2023-10-11T15:03:28Z</time>
      </trkpt>
      <trkpt lat="49.24309" lon="-0.22426">
        <ele>55.2</ele>
        <time>2023-10-11T15:03:29Z</time>
      </trkpt>
      <trkpt lat="49.2431" lon="-0.22426">
        <ele>55.2</ele>
        <time>2023-10-11T15:03:30Z</time>
      </trkpt>
      <trkpt lat="49.2431" lon="-0.22426">
        <ele>55.2</ele>
        <time>2023-10-11T15:03:31Z</time>
      </trkpt>
      <trkpt lat="49.24311" lon="-0.22426">
        <ele>55.2</ele>
        <time>2023-10-11T15:03:32Z</time>
      </trkpt>
      <trkpt lat="49.24311" lon="-0.22427">
        <ele>55.2</ele>
        <time>2023-10-11T15:03:33Z</time>
      </trkpt>
      <trkpt lat="49.24311" lon="-0.22427">
        <ele>55.2</ele>
        <time>2023-10-11T15:03:34Z</time>
      </trkpt>
      <trkpt lat="49.24312" lon="-0.22428">
        <ele>55.2</ele>
        <time>2023-10-11T15:03:35Z</time>
      </trkpt>
      <trkpt lat="49.24312" lon="-0.22429">
        <ele>55.2</ele>
        <time>2023-10-11T15:03:36Z</time>
      </trkpt>
      <trkpt lat="49.24312" lon="-0.22429">
        <ele>55.2</ele>
        <time>2023-10-11T15:03:37Z</time>
      </trkpt>
      <trkpt lat="49.24312" lon="-0.2243">
        <ele>55.2</ele>
        <time>2023-10-11T15:03:38Z</time>
      </trkpt>
      <trkpt lat="49.24313" lon="-0.22431">
        <ele>55.2</ele>
        <time>2023-10-11T15:03:39Z</time>
      </trkpt>
      <trkpt lat="49.24313" lon="-0.22431">
        <ele>55.2</ele>
        <time>2023-10-11T15:03:40Z</time>
      </trkpt>
      <trkpt lat="49.24313" lon="-0.22432">
        <ele>55.2</ele>
        <time>2023-10-11T15:03:41Z</time>
      </trkpt>
      <trkpt lat="49.24313" lon="-0.22433">
        <ele>55.2</ele>
        <time>2023-10-11T15:03:42Z</time>
      </trkpt>
      <trkpt lat="49.24313" lon="-0.22434">
        <ele>55.2</ele>
        <time>2023-10-11T15:03:43Z</time>
      </trkpt>
      <trkpt lat="49.24313" lon="-0.22435">
        <ele>55.2</ele>
        <time>2023-10-11T15:03:44Z</time>
      </trkpt>
      <trkpt lat="49.24313" lon="-0.22435">
        <ele>55.2</ele>
        <time>2023-10-11T15:03:45Z</time>
      </trkpt>
      <trkpt lat="49.24313" lon="-0.22436">
        <ele>55.2</ele>
        <time>2023-10-11T15:03:46Z</time>
      </trkpt>
      <trkpt lat="49.24313" lon="-0.22436">
        <ele>55.2</ele>
        <time>2023-10-11T15:03:47Z</time>
      </trkpt>
      <trkpt lat="49.2431" lon="-0.22431">
        <ele>55.2</ele>
        <time>2023-10-11T15:30:36Z</time>
      </trkpt>
      <trkpt lat="49.2431" lon="-0.2243">
        <ele>55.2</ele>
        <time>2023-10-11T15:30:37Z</time>
      </trkpt>
      <trkpt lat="49.2431" lon="-0.22429">
        <ele>55.2</ele>
        <time>2023-10-11T15:30:38Z</time>
      </trkpt>
      <trkpt lat="49.2431" lon="-0.22428">
        <ele>55.2</ele>
        <time>2023-10-11T15:30:39Z</time>
      </trkpt>
      <trkpt lat="49.2431" lon="-0.22428">
        <ele>55.2</ele>
        <time>2023-10-11T15:30:40Z</time>
      </trkpt>
      <trkpt lat="49.2431" lon="-0.22428">
        <ele>55.2</ele>
        <time>2023-10-11T15:30:41Z</time>
      </trkpt>
      <trkpt lat="49.24309" lon="-0.22429">
        <ele>55.2</ele>
        <time>2023-10-11T15:30:42Z</time>
      </trkpt>
      <trkpt lat="49.24309" lon="-0.22429">
        <ele>55.2</ele>
        <time>2023-10-11T15:30:43Z</time>
      </trkpt>
      <trkpt lat="49.24309" lon="-0.22429">
        <ele>55.2</ele>
        <time>2023-10-11T15:30:44Z</time>
      </trkpt>
      <trkpt lat="49.24309" lon="-0.22429">
        <ele>55.2</ele>
        <time>2023-10-11T15:30:45Z</time>
      </trkpt>
      <trkpt lat="49.24309" lon="-0.22429">
        <ele>55.2</ele>
        <time>2023-10-11T15:30:46Z</time>
      </trkpt>
      <trkpt lat="49.24309" lon="-0.22429">
        <ele>55.2</ele>
        <time>2023-10-11T15:30:47Z</time>
      </trkpt>
      <trkpt lat="49.24309" lon="-0.22429">
        <ele>55.2</ele>
        <time>2023-10-11T15:30:48Z</time>
      </trkpt>
      <trkpt lat="49.24309" lon="-0.22429">
        <ele>55.2</ele>
        <time>2023-10-11T15:30:49Z</time>
      </trkpt>
      <trkpt lat="49.24309" lon="-0.22428">
        <ele>55.2</ele>
        <time>2023-10-11T15:30:50Z</time>
      </trkpt>
      <trkpt lat="49.24308" lon="-0.22427">
        <ele>55.2</ele>
        <time>2023-10-11T15:30:51Z</time>
      </trkpt>
      <trkpt lat="49.24308" lon="-0.22426">
        <ele>55.2</ele>
        <time>2023-10-11T15:30:52Z</time>
      </trkpt>
      <trkpt lat="49.24307" lon="-0.22425">
        <ele>55.2</ele>
        <time>2023-10-11T15:30:53Z</time>
      </trkpt>
      <trkpt lat="49.24308" lon="-0.22424">
        <ele>55.2</ele>
        <time>2023-10-11T15:30:54Z</time>
      </trkpt>
      <trkpt lat="49.24309" lon="-0.22423">
        <ele>55.2</ele>
        <time>2023-10-11T15:30:55Z</time>
      </trkpt>
      <trkpt lat="49.24309" lon="-0.22422">
        <ele>55.2</ele>
        <time>2023-10-11T15:30:56Z</time>
      </trkpt>
      <trkpt lat="49.2431" lon="-0.22421">
        <ele>55.2</ele>
        <time>2023-10-11T15:30:57Z</time>
      </trkpt>
      <trkpt lat="49.24311" lon="-0.22421">
        <ele>55.2</ele>
        <time>2023-10-11T15:30:58Z</time>
      </trkpt>
      <trkpt lat="49.24311" lon="-0.2242">
        <ele>55.2</ele>
        <time>2023-10-11T15:30:59Z</time>
      </trkpt>
      <trkpt lat="49.24311" lon="-0.2242">
        <ele>55.2</ele>
        <time>2023-10-11T15:31:00Z</time>
      </trkpt>
      <trkpt lat="49.24311" lon="-0.2242">
        <ele>55.2</ele>
        <time>2023-10-11T15:31:01Z</time>
      </trkpt>
      <trkpt lat="49.24312" lon="-0.22419">
        <ele>55.2</ele>
        <time>2023-10-11T15:31:02Z</time>
      </trkpt>
      <trkpt lat="49.24313" lon="-0.22419">
        <ele>55.2</ele>
        <time>2023-10-11T15:31:03Z</time>
      </trkpt>
      <trkpt lat="49.24313" lon="-0.22418">
        <ele>55.2</ele>
        <time>2023-10-11T15:31:04Z</time>
      </trkpt>
      <trkpt lat="49.24314" lon="-0.22418">
        <ele>55.2</ele>
        <time>2023-10-11T15:31:05Z</time>
      </trkpt>
      <trkpt lat="49.24314" lon="-0.22418">
        <ele>55.2</ele>
        <time>2023-10-11T15:31:06Z</time>
      </trkpt>
      <trkpt lat="49.24314" lon="-0.22418">
        <ele>55.2</ele>
        <time>2023-10-11T15:31:07Z</time>
      </trkpt>
      <trkpt lat="49.24314" lon="-0.22418">
        <ele>55.2</ele>
        <time>2023-10-11T15:31:08Z</time>
      </trkpt>
      <trkpt lat="49.24314" lon="-0.22418">
        <ele>55.2</ele>
        <time>2023-10-11T15:31:09Z</time>
      </trkpt>
      <trkpt lat="49.24314" lon="-0.22418">
        <ele>55.2</ele>
        <time>2023-10-11T15:31:10Z</time>
      </trkpt>
      <trkpt lat="49.24314" lon="-0.22418">
        <ele>55.2</ele>
        <time>2023-10-11T15:31:11Z</time>
      </trkpt>
      <trkpt lat="49.24314" lon="-0.22418">
        <ele>55.2</ele>
        <time>2023-10-11T15:31:12Z</time>
      </trkpt>
      <trkpt lat="49.24314" lon="-0.22418">
        <ele>55.2</ele>
        <time>2023-10-11T15:31:13Z</time>
      </trkpt>
      <trkpt lat="49.24314" lon="-0.22419">
        <ele>55.2</ele>
        <time>2023-10-11T15:31:14Z</time>
      </trkpt>
      <trkpt lat="49.24315" lon="-0.22419">
        <ele>55.2</ele>
        <time>2023-10-11T15:31:15Z</time>
      </trkpt>
      <trkpt lat="49.24315" lon="-0.22419">
        <ele>55.2</ele>
        <time>2023-10-11T15:31:16Z</time>
      </trkpt>
      <trkpt lat="49.24315" lon="-0.22419">
        <ele>55.2</ele>
        <time>2023-10-11T15:31:17Z</time>
      </trkpt>
      <trkpt lat="49.24315" lon="-0.22419">
        <ele>55.2</ele>
        <time>2023-10-11T15:31:18Z</time>
      </trkpt>
      <trkpt lat="49.24314" lon="-0.22419">
        <ele>55.2</ele>
        <time>2023-10-11T15:31:19Z</time>
      </trkpt>
      <trkpt lat="49.24314" lon="-0.22419">
        <ele>55.2</ele>
        <time>2023-10-11T15:31:20Z</time>
      </trkpt>
      <trkpt lat="49.24314" lon="-0.22419">
        <ele>55.2</ele>
        <time>2023-10-11T15:31:21Z</time>
      </trkpt>
      <trkpt lat="49.24314" lon="-0.22419">
        <ele>55.2</ele>
        <time>2023-10-11T15:31:22Z</time>
      </trkpt>
      <trkpt lat="49.24314" lon="-0.22419">
        <ele>55.2</ele>
        <time>2023-10-11T15:31:23Z</time>
      </trkpt>
      <trkpt lat="49.2431" lon="-0.22421">
        <ele>55.2</ele>
        <time>2023-10-11T15:32:13Z</time>
      </trkpt>
      <trkpt lat="49.2431" lon="-0.22422">
        <ele>55.2</ele>
        <time>2023-10-11T15:32:14Z</time>
      </trkpt>
      <trkpt lat="49.2431" lon="-0.22423">
        <ele>55.2</ele>
        <time>2023-10-11T15:32:15Z</time>
      </trkpt>
      <trkpt lat="49.24309" lon="-0.22424">
        <ele>55.2</ele>
        <time>2023-10-11T15:32:16Z</time>
      </trkpt>
      <trkpt lat="49.24309" lon="-0.22424">
        <ele>55.2</ele>
        <time>2023-10-11T15:32:17Z</time>
      </trkpt>
      <trkpt lat="49.24309" lon="-0.22424">
        <ele>55.2</ele>
        <time>2023-10-11T15:32:18Z</time>
      </trkpt>
      <trkpt lat="49.24309" lon="-0.22424">
        <ele>55.2</ele>
        <time>2023-10-11T15:32:19Z</time>
      </trkpt>
      <trkpt lat="49.24309" lon="-0.22424">
        <ele>55.2</ele>
        <time>2023-10-11T15:32:20Z</time>
      </trkpt>
      <trkpt lat="49.24309" lon="-0.22424">
        <ele>55.2</ele>
        <time>2023-10-11T15:32:21Z</time>
      </trkpt>
      <trkpt lat="49.24309" lon="-0.22424">
        <ele>55.2</ele>
        <time>2023-10-11T15:32:22Z</time>
      </trkpt>
      <trkpt lat="49.24309" lon="-0.22424">
        <ele>55.2</ele>
        <time>2023-10-11T15:32:23Z</time>
      </trkpt>
      <trkpt lat="49.24308" lon="-0.22425">
        <ele>55.2</ele>
        <time>2023-10-11T15:32:24Z</time>
      </trkpt>
      <trkpt lat="49.24308" lon="-0.22425">
        <ele>55.2</ele>
        <time>2023-10-11T15:32:25Z</time>
      </trkpt>
      <trkpt lat="49.24308" lon="-0.22426">
        <ele>55.2</ele>
        <time>2023-10-11T15:32:26Z</time>
      </trkpt>
      <trkpt lat="49.24305" lon="-0.22432">
        <ele>55.2</ele>
        <time>2023-10-11T15:33:01Z</time>
      </trkpt>
      <trkpt lat="49.24305" lon="-0.22432">
        <ele>55.2</ele>
        <time>2023-10-11T15:33:02Z</time>
      </trkpt>
      <trkpt lat="49.24304" lon="-0.22432">
        <ele>55.2</ele>
        <time>2023-10-11T15:33:03Z</time>
      </trkpt>
      <trkpt lat="49.24304" lon="-0.22432">
        <ele>55.2</ele>
        <time>2023-10-11T15:33:04Z</time>
      </trkpt>
      <trkpt lat="49.24303" lon="-0.22432">
        <ele>55.2</ele>
        <time>2023-10-11T15:33:05Z</time>
      </trkpt>
      <trkpt lat="49.24303" lon="-0.22432">
        <ele>55.2</ele>
        <time>2023-10-11T15:33:06Z</time>
      </trkpt>
      <trkpt lat="49.24302" lon="-0.22433">
        <ele>55.2</ele>
        <time>2023-10-11T15:33:07Z</time>
      </trkpt>
      <trkpt lat="49.24301" lon="-0.22435">
        <ele>55.2</ele>
        <time>2023-10-11T15:33:08Z</time>
      </trkpt>
      <trkpt lat="49.243" lon="-0.22437">
        <ele>55.2</ele>
        <time>2023-10-11T15:33:09Z</time>
      </trkpt>
      <trkpt lat="49.24299" lon="-0.22441">
        <ele>55.2</ele>
        <time>2023-10-11T15:33:10Z</time>
      </trkpt>
      <trkpt lat="49.24299" lon="-0.22443">
        <ele>55.2</ele>
        <time>2023-10-11T15:33:11Z</time>
      </trkpt>
      <trkpt lat="49.243" lon="-0.22447">
        <ele>55.2</ele>
        <time>2023-10-11T15:33:12Z</time>
      </trkpt>
      <trkpt lat="49.24301" lon="-0.22451">
        <ele>55.2</ele>
        <time>2023-10-11T15:33:13Z</time>
      </trkpt>
      <trkpt lat="49.24302" lon="-0.22456">
        <ele>55.2</ele>
        <time>2023-10-11T15:33:14Z</time>
      </trkpt>
      <trkpt lat="49.24304" lon="-0.22461">
        <ele>55.2</ele>
        <time>2023-10-11T15:33:15Z</time>
      </trkpt>
      <trkpt lat="49.24306" lon="-0.22467">
        <ele>55.3</ele>
        <time>2023-10-11T15:33:16Z</time>
      </trkpt>
      <trkpt lat="49.24307" lon="-0.22473">
        <ele>55.3</ele>
        <time>2023-10-11T15:33:17Z</time>
      </trkpt>
      <trkpt lat="49.24309" lon="-0.22479">
        <ele>55.4</ele>
        <time>2023-10-11T15:33:18Z</time>
      </trkpt>
      <trkpt lat="49.24311" lon="-0.22485">
        <ele>55.4</ele>
        <time>2023-10-11T15:33:19Z</time>
      </trkpt>
      <trkpt lat="49.24313" lon="-0.22491">
        <ele>55.5</ele>
        <time>2023-10-11T15:33:20Z</time>
      </trkpt>
      <trkpt lat="49.24316" lon="-0.22497">
        <ele>55.5</ele>
        <time>2023-10-11T15:33:21Z</time>
      </trkpt>
      <trkpt lat="49.24318" lon="-0.22503">
        <ele>55.6</ele>
        <time>2023-10-11T15:33:22Z</time>
      </trkpt>
      <trkpt lat="49.2432" lon="-0.2251">
        <ele>55.7</ele>
        <time>2023-10-11T15:33:23Z</time>
      </trkpt>
      <trkpt lat="49.24319" lon="-0.22518">
        <ele>55.7</ele>
        <time>2023-10-11T15:33:24Z</time>
      </trkpt>
      <trkpt lat="49.24316" lon="-0.22527">
        <ele>55.7</ele>
        <time>2023-10-11T15:33:25Z</time>
      </trkpt>
      <trkpt lat="49.24311" lon="-0.22533">
        <ele>55.7</ele>
        <time>2023-10-11T15:33:26Z</time>
      </trkpt>
      <trkpt lat="49.24305" lon="-0.22538">
        <ele>55.6</ele>
        <time>2023-10-11T15:33:27Z</time>
      </trkpt>
      <trkpt lat="49.24299" lon="-0.22542">
        <ele>55.6</ele>
        <time>2023-10-11T15:33:28Z</time>
      </trkpt>
      <trkpt lat="49.24293" lon="-0.22545">
        <ele>55.5</ele>
        <time>2023-10-11T15:33:29Z</time>
      </trkpt>
      <trkpt lat="49.24288" lon="-0.22549">
        <ele>55.5</ele>
        <time>2023-10-11T15:33:30Z</time>
      </trkpt>
      <trkpt lat="49.24283" lon="-0.22553">
        <ele>55.4</ele>
        <time>2023-10-11T15:33:31Z</time>
      </trkpt>
      <trkpt lat="49.24278" lon="-0.22556">
        <ele>55.4</ele>
        <time>2023-10-11T15:33:32Z</time>
      </trkpt>
      <trkpt lat="49.24273" lon="-0.22557">
        <ele>55.3</ele>
        <time>2023-10-11T15:33:33Z</time>
      </trkpt>
      <trkpt lat="49.24268" lon="-0.22556">
        <ele>55.3</ele>
        <time>2023-10-11T15:33:34Z</time>
      </trkpt>
      <trkpt lat="49.24264" lon="-0.22551">
        <ele>55.3</ele>
        <time>2023-10-11T15:33:35Z</time>
      </trkpt>
      <trkpt lat="49.24261" lon="-0.22545">
        <ele>55.3</ele>
        <time>2023-10-11T15:33:36Z</time>
      </trkpt>
      <trkpt lat="49.24259" lon="-0.22538">
        <ele>55.3</ele>
        <time>2023-10-11T15:33:37Z</time>
      </trkpt>
      <trkpt lat="49.24256" lon="-0.22531">
        <ele>55.4</ele>
        <time>2023-10-11T15:33:38Z</time>
      </trkpt>
      <trkpt lat="49.24254" lon="-0.22524">
        <ele>55.4</ele>
        <time>2023-10-11T15:33:39Z</time>
      </trkpt>
      <trkpt lat="49.24252" lon="-0.22516">
        <ele>55.5</ele>
        <time>2023-10-11T15:33:40Z</time>
      </trkpt>
      <trkpt lat="49.2425" lon="-0.22508">
        <ele>55.5</ele>
        <time>2023-10-11T15:33:41Z</time>
      </trkpt>
      <trkpt lat="49.24248" lon="-0.22501">
        <ele>55.5</ele>
        <time>2023-10-11T15:33:42Z</time>
      </trkpt>
      <trkpt lat="49.24246" lon="-0.22493">
        <ele>55.5</ele>
        <time>2023-10-11T15:33:43Z</time>
      </trkpt>
      <trkpt lat="49.24243" lon="-0.22485">
        <ele>55.6</ele>
        <time>2023-10-11T15:33:44Z</time>
      </trkpt>
      <trkpt lat="49.24241" lon="-0.22478">
        <ele>55.6</ele>
        <time>2023-10-11T15:33:45Z</time>
      </trkpt>
      <trkpt lat="49.24238" lon="-0.22471">
        <ele>55.6</ele>
        <time>2023-10-11T15:33:46Z</time>
      </trkpt>
      <trkpt lat="49.24235" lon="-0.22463">
        <ele>55.6</ele>
        <time>2023-10-11T15:33:47Z</time>
      </trkpt>
      <trkpt lat="49.24233" lon="-0.22456">
        <ele>55.6</ele>
        <time>2023-10-11T15:33:48Z</time>
      </trkpt>
      <trkpt lat="49.2423" lon="-0.22449">
        <ele>55.7</ele>
        <time>2023-10-11T15:33:49Z</time>
      </trkpt>
      <trkpt lat="49.24227" lon="-0.22442">
        <ele>55.7</ele>
        <time>2023-10-11T15:33:50Z</time>
      </trkpt>
      <trkpt lat="49.24225" lon="-0.22435">
        <ele>55.6</ele>
        <time>2023-10-11T15:33:51Z</time>
      </trkpt>
      <trkpt lat="49.24223" lon="-0.22427">
        <ele>55.5</ele>
        <time>2023-10-11T15:33:52Z</time>
      </trkpt>
      <trkpt lat="49.2422" lon="-0.2242">
        <ele>55.3</ele>
        <time>2023-10-11T15:33:53Z</time>
      </trkpt>
      <trkpt lat="49.24217" lon="-0.22413">
        <ele>55.2</ele>
        <time>2023-10-11T15:33:54Z</time>
      </trkpt>
      <trkpt lat="49.24213" lon="-0.22406">
        <ele>55</ele>
        <time>2023-10-11T15:33:55Z</time>
      </trkpt>
      <trkpt lat="49.24209" lon="-0.22401">
        <ele>54.8</ele>
        <time>2023-10-11T15:33:56Z</time>
      </trkpt>
      <trkpt lat="49.24205" lon="-0.22397">
        <ele>54.8</ele>
        <time>2023-10-11T15:33:57Z</time>
      </trkpt>
      <trkpt lat="49.242" lon="-0.22393">
        <ele>54.8</ele>
        <time>2023-10-11T15:33:58Z</time>
      </trkpt>
      <trkpt lat="49.24196" lon="-0.22388">
        <ele>54.7</ele>
        <time>2023-10-11T15:33:59Z</time>
      </trkpt>
      <trkpt lat="49.24192" lon="-0.22383">
        <ele>54.7</ele>
        <time>2023-10-11T15:34:00Z</time>
      </trkpt>
      <trkpt lat="49.24188" lon="-0.22378">
        <ele>54.7</ele>
        <time>2023-10-11T15:34:01Z</time>
      </trkpt>
      <trkpt lat="49.24183" lon="-0.22373">
        <ele>54.7</ele>
        <time>2023-10-11T15:34:02Z</time>
      </trkpt>
      <trkpt lat="49.2418" lon="-0.22368">
        <ele>54.6</ele>
        <time>2023-10-11T15:34:03Z</time>
      </trkpt>
      <trkpt lat="49.24176" lon="-0.22363">
        <ele>54.6</ele>
        <time>2023-10-11T15:34:04Z</time>
      </trkpt>
      <trkpt lat="49.24172" lon="-0.22358">
        <ele>54.6</ele>
        <time>2023-10-11T15:34:05Z</time>
      </trkpt>
      <trkpt lat="49.24168" lon="-0.22354">
        <ele>54.5</ele>
        <time>2023-10-11T15:34:06Z</time>
      </trkpt>
      <trkpt lat="49.24164" lon="-0.22351">
        <ele>54.5</ele>
        <time>2023-10-11T15:34:07Z</time>
      </trkpt>
      <trkpt lat="49.2416" lon="-0.22348">
        <ele>54.5</ele>
        <time>2023-10-11T15:34:08Z</time>
      </trkpt>
      <trkpt lat="49.24157" lon="-0.22346">
        <ele>54.5</ele>
        <time>2023-10-11T15:34:09Z</time>
      </trkpt>
      <trkpt lat="49.24154" lon="-0.22343">
        <ele>54.5</ele>
        <time>2023-10-11T15:34:10Z</time>
      </trkpt>
      <trkpt lat="49.24154" lon="-0.22341">
        <ele>54.5</ele>
        <time>2023-10-11T15:34:11Z</time>
      </trkpt>
      <trkpt lat="49.24152" lon="-0.22337">
        <ele>54.6</ele>
        <time>2023-10-11T15:34:12Z</time>
      </trkpt>
      <trkpt lat="49.24152" lon="-0.22335">
        <ele>54.6</ele>
        <time>2023-10-11T15:34:13Z</time>
      </trkpt>
      <trkpt lat="49.24152" lon="-0.22329">
        <ele>54.6</ele>
        <time>2023-10-11T15:34:14Z</time>
      </trkpt>
      <trkpt lat="49.24153" lon="-0.22323">
        <ele>54.5</ele>
        <time>2023-10-11T15:34:15Z</time>
      </trkpt>
      <trkpt lat="49.24155" lon="-0.22317">
        <ele>54.5</ele>
        <time>2023-10-11T15:34:16Z</time>
      </trkpt>
      <trkpt lat="49.24158" lon="-0.22311">
        <ele>54.5</ele>
        <time>2023-10-11T15:34:17Z</time>
      </trkpt>
      <trkpt lat="49.2416" lon="-0.22304">
        <ele>54.4</ele>
        <time>2023-10-11T15:34:18Z</time>
      </trkpt>
      <trkpt lat="49.24163" lon="-0.22297">
        <ele>54.4</ele>
        <time>2023-10-11T15:34:19Z</time>
      </trkpt>
      <trkpt lat="49.24165" lon="-0.2229">
        <ele>54.3</ele>
        <time>2023-10-11T15:34:20Z</time>
      </trkpt>
      <trkpt lat="49.24168" lon="-0.22283">
        <ele>54.3</ele>
        <time>2023-10-11T15:34:21Z</time>
      </trkpt>
      <trkpt lat="49.24171" lon="-0.22275">
        <ele>54.2</ele>
        <time>2023-10-11T15:34:22Z</time>
      </trkpt>
      <trkpt lat="49.24174" lon="-0.22267">
        <ele>54.2</ele>
        <time>2023-10-11T15:34:23Z</time>
      </trkpt>
      <trkpt lat="49.24177" lon="-0.22259">
        <ele>54.1</ele>
        <time>2023-10-11T15:34:24Z</time>
      </trkpt>
      <trkpt lat="49.2418" lon="-0.2225">
        <ele>54</ele>
        <time>2023-10-11T15:34:25Z</time>
      </trkpt>
      <trkpt lat="49.24183" lon="-0.22241">
        <ele>54</ele>
        <time>2023-10-11T15:34:26Z</time>
      </trkpt>
      <trkpt lat="49.24187" lon="-0.22232">
        <ele>53.9</ele>
        <time>2023-10-11T15:34:27Z</time>
      </trkpt>
      <trkpt lat="49.2419" lon="-0.22223">
        <ele>53.9</ele>
        <time>2023-10-11T15:34:28Z</time>
      </trkpt>
      <trkpt lat="49.24193" lon="-0.22213">
        <ele>53.8</ele>
        <time>2023-10-11T15:34:29Z</time>
      </trkpt>
      <trkpt lat="49.24195" lon="-0.22202">
        <ele>53.8</ele>
        <time>2023-10-11T15:34:30Z</time>
      </trkpt>
      <trkpt lat="49.24198" lon="-0.2219">
        <ele>53.8</ele>
        <time>2023-10-11T15:34:31Z</time>
      </trkpt>
      <trkpt lat="49.24201" lon="-0.22179">
        <ele>53.7</ele>
        <time>2023-10-11T15:34:32Z</time>
      </trkpt>
      <trkpt lat="49.24203" lon="-0.22168">
        <ele>53.7</ele>
        <time>2023-10-11T15:34:33Z</time>
      </trkpt>
      <trkpt lat="49.24206" lon="-0.22157">
        <ele>53.7</ele>
        <time>2023-10-11T15:34:34Z</time>
      </trkpt>
      <trkpt lat="49.24208" lon="-0.22146">
        <ele>53.8</ele>
        <time>2023-10-11T15:34:35Z</time>
      </trkpt>
      <trkpt lat="49.2421" lon="-0.22136">
        <ele>53.8</ele>
        <time>2023-10-11T15:34:36Z</time>
      </trkpt>
      <trkpt lat="49.24213" lon="-0.22126">
        <ele>53.9</ele>
        <time>2023-10-11T15:34:37Z</time>
      </trkpt>
      <trkpt lat="49.24217" lon="-0.22115">
        <ele>54</ele>
        <time>2023-10-11T15:34:38Z</time>
      </trkpt>
      <trkpt lat="49.2422" lon="-0.22105">
        <ele>54</ele>
        <time>2023-10-11T15:34:39Z</time>
      </trkpt>
      <trkpt lat="49.24224" lon="-0.22095">
        <ele>54</ele>
        <time>2023-10-11T15:34:40Z</time>
      </trkpt>
      <trkpt lat="49.24228" lon="-0.22085">
        <ele>54</ele>
        <time>2023-10-11T15:34:41Z</time>
      </trkpt>
      <trkpt lat="49.24233" lon="-0.22075">
        <ele>54</ele>
        <time>2023-10-11T15:34:42Z</time>
      </trkpt>
      <trkpt lat="49.24238" lon="-0.22065">
        <ele>54</ele>
        <time>2023-10-11T15:34:43Z</time>
      </trkpt>
      <trkpt lat="49.24243" lon="-0.22056">
        <ele>54.1</ele>
        <time>2023-10-11T15:34:44Z</time>
      </trkpt>
      <trkpt lat="49.24248" lon="-0.22046">
        <ele>54.1</ele>
        <time>2023-10-11T15:34:45Z</time>
      </trkpt>
      <trkpt lat="49.24253" lon="-0.22037">
        <ele>54.2</ele>
        <time>2023-10-11T15:34:46Z</time>
      </trkpt>
      <trkpt lat="49.24257" lon="-0.22028">
        <ele>54.2</ele>
        <time>2023-10-11T15:34:47Z</time>
      </trkpt>
      <trkpt lat="49.24262" lon="-0.22018">
        <ele>54.2</ele>
        <time>2023-10-11T15:34:48Z</time>
      </trkpt>
      <trkpt lat="49.24267" lon="-0.22009">
        <ele>54.2</ele>
        <time>2023-10-11T15:34:49Z</time>
      </trkpt>
      <trkpt lat="49.24272" lon="-0.21999">
        <ele>54.2</ele>
        <time>2023-10-11T15:34:50Z</time>
      </trkpt>
      <trkpt lat="49.24277" lon="-0.21989">
        <ele>54.2</ele>
        <time>2023-10-11T15:34:51Z</time>
      </trkpt>
      <trkpt lat="49.24282" lon="-0.21979">
        <ele>54.2</ele>
        <time>2023-10-11T15:34:52Z</time>
      </trkpt>
      <trkpt lat="49.24287" lon="-0.21969">
        <ele>54.1</ele>
        <time>2023-10-11T15:34:53Z</time>
      </trkpt>
      <trkpt lat="49.24291" lon="-0.21959">
        <ele>54.1</ele>
        <time>2023-10-11T15:34:54Z</time>
      </trkpt>
      <trkpt lat="49.24296" lon="-0.2195">
        <ele>54.1</ele>
        <time>2023-10-11T15:34:55Z</time>
      </trkpt>
      <trkpt lat="49.243" lon="-0.21941">
        <ele>54</ele>
        <time>2023-10-11T15:34:56Z</time>
      </trkpt>
      <trkpt lat="49.24304" lon="-0.21932">
        <ele>53.9</ele>
        <time>2023-10-11T15:34:57Z</time>
      </trkpt>
      <trkpt lat="49.24309" lon="-0.21923">
        <ele>53.8</ele>
        <time>2023-10-11T15:34:58Z</time>
      </trkpt>
      <trkpt lat="49.24313" lon="-0.21914">
        <ele>53.7</ele>
        <time>2023-10-11T15:34:59Z</time>
      </trkpt>
      <trkpt lat="49.24318" lon="-0.21906">
        <ele>53.7</ele>
        <time>2023-10-11T15:35:00Z</time>
      </trkpt>
      <trkpt lat="49.24322" lon="-0.21897">
        <ele>53.5</ele>
        <time>2023-10-11T15:35:01Z</time>
      </trkpt>
      <trkpt lat="49.24326" lon="-0.21889">
        <ele>53.4</ele>
        <time>2023-10-11T15:35:02Z</time>
      </trkpt>
      <trkpt lat="49.24331" lon="-0.21881">
        <ele>53.3</ele>
        <time>2023-10-11T15:35:03Z</time>
      </trkpt>
      <trkpt lat="49.24335" lon="-0.21873">
        <ele>53.2</ele>
        <time>2023-10-11T15:35:04Z</time>
      </trkpt>
      <trkpt lat="49.24339" lon="-0.21865">
        <ele>53.1</ele>
        <time>2023-10-11T15:35:05Z</time>
      </trkpt>
      <trkpt lat="49.24343" lon="-0.21858">
        <ele>53</ele>
        <time>2023-10-11T15:35:06Z</time>
      </trkpt>
      <trkpt lat="49.24348" lon="-0.2185">
        <ele>52.9</ele>
        <time>2023-10-11T15:35:07Z</time>
      </trkpt>
      <trkpt lat="49.24352" lon="-0.21842">
        <ele>52.7</ele>
        <time>2023-10-11T15:35:08Z</time>
      </trkpt>
      <trkpt lat="49.24356" lon="-0.21834">
        <ele>52.6</ele>
        <time>2023-10-11T15:35:09Z</time>
      </trkpt>
      <trkpt lat="49.2436" lon="-0.21826">
        <ele>52.4</ele>
        <time>2023-10-11T15:35:10Z</time>
      </trkpt>
      <trkpt lat="49.24364" lon="-0.21817">
        <ele>52.2</ele>
        <time>2023-10-11T15:35:11Z</time>
      </trkpt>
      <trkpt lat="49.24369" lon="-0.21809">
        <ele>52.1</ele>
        <time>2023-10-11T15:35:12Z</time>
      </trkpt>
      <trkpt lat="49.24373" lon="-0.21801">
        <ele>51.9</ele>
        <time>2023-10-11T15:35:13Z</time>
      </trkpt>
      <trkpt lat="49.24378" lon="-0.21792">
        <ele>51.6</ele>
        <time>2023-10-11T15:35:14Z</time>
      </trkpt>
      <trkpt lat="49.24383" lon="-0.21784">
        <ele>51.4</ele>
        <time>2023-10-11T15:35:15Z</time>
      </trkpt>
      <trkpt lat="49.24387" lon="-0.21775">
        <ele>51.1</ele>
        <time>2023-10-11T15:35:16Z</time>
      </trkpt>
      <trkpt lat="49.24392" lon="-0.21766">
        <ele>50.9</ele>
        <time>2023-10-11T15:35:17Z</time>
      </trkpt>
      <trkpt lat="49.24397" lon="-0.21757">
        <ele>50.6</ele>
        <time>2023-10-11T15:35:18Z</time>
      </trkpt>
      <trkpt lat="49.24401" lon="-0.21748">
        <ele>50.4</ele>
        <time>2023-10-11T15:35:19Z</time>
      </trkpt>
      <trkpt lat="49.24406" lon="-0.21738">
        <ele>50.1</ele>
        <time>2023-10-11T15:35:20Z</time>
      </trkpt>
      <trkpt lat="49.24411" lon="-0.21729">
        <ele>49.8</ele>
        <time>2023-10-11T15:35:21Z</time>
      </trkpt>
      <trkpt lat="49.24416" lon="-0.21719">
        <ele>49.5</ele>
        <time>2023-10-11T15:35:22Z</time>
      </trkpt>
      <trkpt lat="49.24421" lon="-0.21709">
        <ele>49.2</ele>
        <time>2023-10-11T15:35:23Z</time>
      </trkpt>
      <trkpt lat="49.24426" lon="-0.21699">
        <ele>48.9</ele>
        <time>2023-10-11T15:35:24Z</time>
      </trkpt>
      <trkpt lat="49.24431" lon="-0.21689">
        <ele>48.6</ele>
        <time>2023-10-11T15:35:25Z</time>
      </trkpt>
      <trkpt lat="49.24436" lon="-0.21679">
        <ele>48.3</ele>
        <time>2023-10-11T15:35:26Z</time>
      </trkpt>
      <trkpt lat="49.24442" lon="-0.21669">
        <ele>47.9</ele>
        <time>2023-10-11T15:35:27Z</time>
      </trkpt>
      <trkpt lat="49.24447" lon="-0.21659">
        <ele>47.7</ele>
        <time>2023-10-11T15:35:28Z</time>
      </trkpt>
      <trkpt lat="49.24453" lon="-0.21649">
        <ele>47.4</ele>
        <time>2023-10-11T15:35:29Z</time>
      </trkpt>
      <trkpt lat="49.24459" lon="-0.21639">
        <ele>47.1</ele>
        <time>2023-10-11T15:35:30Z</time>
      </trkpt>
      <trkpt lat="49.24464" lon="-0.21628">
        <ele>46.9</ele>
        <time>2023-10-11T15:35:31Z</time>
      </trkpt>
      <trkpt lat="49.2447" lon="-0.21617">
        <ele>46.7</ele>
        <time>2023-10-11T15:35:32Z</time>
      </trkpt>
      <trkpt lat="49.24476" lon="-0.21606">
        <ele>46.4</ele>
        <time>2023-10-11T15:35:33Z</time>
      </trkpt>
      <trkpt lat="49.24481" lon="-0.21595">
        <ele>46.2</ele>
        <time>2023-10-11T15:35:34Z</time>
      </trkpt>
      <trkpt lat="49.24487" lon="-0.21584">
        <ele>46</ele>
        <time>2023-10-11T15:35:35Z</time>
      </trkpt>
      <trkpt lat="49.24493" lon="-0.21573">
        <ele>45.8</ele>
        <time>2023-10-11T15:35:36Z</time>
      </trkpt>
      <trkpt lat="49.24498" lon="-0.21562">
        <ele>45.7</ele>
        <time>2023-10-11T15:35:37Z</time>
      </trkpt>
      <trkpt lat="49.24504" lon="-0.21552">
        <ele>45.5</ele>
        <time>2023-10-11T15:35:38Z</time>
      </trkpt>
      <trkpt lat="49.24509" lon="-0.21541">
        <ele>45.4</ele>
        <time>2023-10-11T15:35:39Z</time>
      </trkpt>
      <trkpt lat="49.24515" lon="-0.21531">
        <ele>45.2</ele>
        <time>2023-10-11T15:35:40Z</time>
      </trkpt>
      <trkpt lat="49.2452" lon="-0.2152">
        <ele>45.1</ele>
        <time>2023-10-11T15:35:41Z</time>
      </trkpt>
      <trkpt lat="49.24526" lon="-0.2151">
        <ele>45</ele>
        <time>2023-10-11T15:35:42Z</time>
      </trkpt>
      <trkpt lat="49.24531" lon="-0.215">
        <ele>44.9</ele>
        <time>2023-10-11T15:35:43Z</time>
      </trkpt>
      <trkpt lat="49.24536" lon="-0.21489">
        <ele>44.8</ele>
        <time>2023-10-11T15:35:44Z</time>
      </trkpt>
      <trkpt lat="49.24541" lon="-0.21479">
        <ele>44.7</ele>
        <time>2023-10-11T15:35:45Z</time>
      </trkpt>
      <trkpt lat="49.24547" lon="-0.21469">
        <ele>44.7</ele>
        <time>2023-10-11T15:35:46Z</time>
      </trkpt>
      <trkpt lat="49.24551" lon="-0.21459">
        <ele>44.6</ele>
        <time>2023-10-11T15:35:47Z</time>
      </trkpt>
      <trkpt lat="49.24556" lon="-0.2145">
        <ele>44.5</ele>
        <time>2023-10-11T15:35:48Z</time>
      </trkpt>
      <trkpt lat="49.24561" lon="-0.2144">
        <ele>44.4</ele>
        <time>2023-10-11T15:35:49Z</time>
      </trkpt>
      <trkpt lat="49.24566" lon="-0.21431">
        <ele>44.2</ele>
        <time>2023-10-11T15:35:50Z</time>
      </trkpt>
      <trkpt lat="49.24571" lon="-0.21421">
        <ele>44.1</ele>
        <time>2023-10-11T15:35:51Z</time>
      </trkpt>
      <trkpt lat="49.24576" lon="-0.21412">
        <ele>44</ele>
        <time>2023-10-11T15:35:52Z</time>
      </trkpt>
      <trkpt lat="49.2458" lon="-0.21402">
        <ele>43.9</ele>
        <time>2023-10-11T15:35:53Z</time>
      </trkpt>
      <trkpt lat="49.24585" lon="-0.21393">
        <ele>43.8</ele>
        <time>2023-10-11T15:35:54Z</time>
      </trkpt>
      <trkpt lat="49.2459" lon="-0.21383">
        <ele>43.7</ele>
        <time>2023-10-11T15:35:55Z</time>
      </trkpt>
      <trkpt lat="49.24595" lon="-0.21374">
        <ele>43.6</ele>
        <time>2023-10-11T15:35:56Z</time>
      </trkpt>
      <trkpt lat="49.24599" lon="-0.21365">
        <ele>43.5</ele>
        <time>2023-10-11T15:35:57Z</time>
      </trkpt>
      <trkpt lat="49.24604" lon="-0.21356">
        <ele>43.4</ele>
        <time>2023-10-11T15:35:58Z</time>
      </trkpt>
      <trkpt lat="49.24608" lon="-0.21347">
        <ele>43.4</ele>
        <time>2023-10-11T15:35:59Z</time>
      </trkpt>
      <trkpt lat="49.24613" lon="-0.21338">
        <ele>43.3</ele>
        <time>2023-10-11T15:36:00Z</time>
      </trkpt>
      <trkpt lat="49.24618" lon="-0.21329">
        <ele>43.2</ele>
        <time>2023-10-11T15:36:01Z</time>
      </trkpt>
      <trkpt lat="49.24622" lon="-0.21321">
        <ele>43.1</ele>
        <time>2023-10-11T15:36:02Z</time>
      </trkpt>
      <trkpt lat="49.24627" lon="-0.21312">
        <ele>43</ele>
        <time>2023-10-11T15:36:03Z</time>
      </trkpt>
      <trkpt lat="49.24632" lon="-0.21304">
        <ele>42.9</ele>
        <time>2023-10-11T15:36:04Z</time>
      </trkpt>
      <trkpt lat="49.24637" lon="-0.21295">
        <ele>42.8</ele>
        <time>2023-10-11T15:36:05Z</time>
      </trkpt>
      <trkpt lat="49.24642" lon="-0.21287">
        <ele>42.7</ele>
        <time>2023-10-11T15:36:06Z</time>
      </trkpt>
      <trkpt lat="49.24648" lon="-0.21279">
        <ele>42.6</ele>
        <time>2023-10-11T15:36:07Z</time>
      </trkpt>
      <trkpt lat="49.24655" lon="-0.21271">
        <ele>42.5</ele>
        <time>2023-10-11T15:36:08Z</time>
      </trkpt>
      <trkpt lat="49.24662" lon="-0.21264">
        <ele>42.3</ele>
        <time>2023-10-11T15:36:09Z</time>
      </trkpt>
      <trkpt lat="49.24669" lon="-0.21257">
        <ele>42.2</ele>
        <time>2023-10-11T15:36:10Z</time>
      </trkpt>
      <trkpt lat="49.24677" lon="-0.21251">
        <ele>42</ele>
        <time>2023-10-11T15:36:11Z</time>
      </trkpt>
      <trkpt lat="49.24685" lon="-0.21246">
        <ele>41.7</ele>
        <time>2023-10-11T15:36:12Z</time>
      </trkpt>
      <trkpt lat="49.24693" lon="-0.21241">
        <ele>41.5</ele>
        <time>2023-10-11T15:36:13Z</time>
      </trkpt>
      <trkpt lat="49.24701" lon="-0.21236">
        <ele>41.3</ele>
        <time>2023-10-11T15:36:14Z</time>
      </trkpt>
      <trkpt lat="49.24708" lon="-0.2123">
        <ele>41</ele>
        <time>2023-10-11T15:36:15Z</time>
      </trkpt>
      <trkpt lat="49.24716" lon="-0.21225">
        <ele>40.8</ele>
        <time>2023-10-11T15:36:16Z</time>
      </trkpt>
      <trkpt lat="49.24723" lon="-0.2122">
        <ele>40.6</ele>
        <time>2023-10-11T15:36:17Z</time>
      </trkpt>
      <trkpt lat="49.24731" lon="-0.21214">
        <ele>40.3</ele>
        <time>2023-10-11T15:36:18Z</time>
      </trkpt>
      <trkpt lat="49.24739" lon="-0.21208">
        <ele>40</ele>
        <time>2023-10-11T15:36:19Z</time>
      </trkpt>
      <trkpt lat="49.24747" lon="-0.21203">
        <ele>39.8</ele>
        <time>2023-10-11T15:36:20Z</time>
      </trkpt>
      <trkpt lat="49.24755" lon="-0.21197">
        <ele>39.5</ele>
        <time>2023-10-11T15:36:21Z</time>
      </trkpt>
      <trkpt lat="49.24763" lon="-0.21192">
        <ele>39.2</ele>
        <time>2023-10-11T15:36:22Z</time>
      </trkpt>
      <trkpt lat="49.24771" lon="-0.21186">
        <ele>38.9</ele>
        <time>2023-10-11T15:36:23Z</time>
      </trkpt>
      <trkpt lat="49.24778" lon="-0.21181">
        <ele>38.7</ele>
        <time>2023-10-11T15:36:24Z</time>
      </trkpt>
      <trkpt lat="49.24786" lon="-0.21175">
        <ele>38.5</ele>
        <time>2023-10-11T15:36:25Z</time>
      </trkpt>
      <trkpt lat="49.24794" lon="-0.21169">
        <ele>38.4</ele>
        <time>2023-10-11T15:36:26Z</time>
      </trkpt>
      <trkpt lat="49.24802" lon="-0.21164">
        <ele>38.3</ele>
        <time>2023-10-11T15:36:27Z</time>
      </trkpt>
      <trkpt lat="49.24809" lon="-0.21159">
        <ele>38.2</ele>
        <time>2023-10-11T15:36:28Z</time>
      </trkpt>
      <trkpt lat="49.24816" lon="-0.21154">
        <ele>38</ele>
        <time>2023-10-11T15:36:29Z</time>
      </trkpt>
      <trkpt lat="49.24823" lon="-0.21149">
        <ele>38</ele>
        <time>2023-10-11T15:36:30Z</time>
      </trkpt>
      <trkpt lat="49.2483" lon="-0.21145">
        <ele>37.9</ele>
        <time>2023-10-11T15:36:31Z</time>
      </trkpt>
      <trkpt lat="49.24838" lon="-0.2114">
        <ele>37.8</ele>
        <time>2023-10-11T15:36:32Z</time>
      </trkpt>
      <trkpt lat="49.24845" lon="-0.21136">
        <ele>37.7</ele>
        <time>2023-10-11T15:36:33Z</time>
      </trkpt>
      <trkpt lat="49.24852" lon="-0.21131">
        <ele>37.7</ele>
        <time>2023-10-11T15:36:34Z</time>
      </trkpt>
      <trkpt lat="49.24859" lon="-0.21127">
        <ele>37.6</ele>
        <time>2023-10-11T15:36:35Z</time>
      </trkpt>
      <trkpt lat="49.24867" lon="-0.21123">
        <ele>37.6</ele>
        <time>2023-10-11T15:36:36Z</time>
      </trkpt>
      <trkpt lat="49.24874" lon="-0.21119">
        <ele>37.6</ele>
        <time>2023-10-11T15:36:37Z</time>
      </trkpt>
      <trkpt lat="49.24882" lon="-0.21116">
        <ele>37.6</ele>
        <time>2023-10-11T15:36:38Z</time>
      </trkpt>
      <trkpt lat="49.24889" lon="-0.21112">
        <ele>37.6</ele>
        <time>2023-10-11T15:36:39Z</time>
      </trkpt>
      <trkpt lat="49.24897" lon="-0.21107">
        <ele>37.5</ele>
        <time>2023-10-11T15:36:40Z</time>
      </trkpt>
      <trkpt lat="49.24905" lon="-0.21103">
        <ele>37.5</ele>
        <time>2023-10-11T15:36:41Z</time>
      </trkpt>
      <trkpt lat="49.24913" lon="-0.21099">
        <ele>37.4</ele>
        <time>2023-10-11T15:36:42Z</time>
      </trkpt>
      <trkpt lat="49.24922" lon="-0.21095">
        <ele>37.4</ele>
        <time>2023-10-11T15:36:43Z</time>
      </trkpt>
      <trkpt lat="49.2493" lon="-0.21091">
        <ele>37.3</ele>
        <time>2023-10-11T15:36:44Z</time>
      </trkpt>
      <trkpt lat="49.24939" lon="-0.21086">
        <ele>37.3</ele>
        <time>2023-10-11T15:36:45Z</time>
      </trkpt>
      <trkpt lat="49.24948" lon="-0.21081">
        <ele>37.2</ele>
        <time>2023-10-11T15:36:46Z</time>
      </trkpt>
      <trkpt lat="49.24957" lon="-0.21075">
        <ele>37.2</ele>
        <time>2023-10-11T15:36:47Z</time>
      </trkpt>
      <trkpt lat="49.24965" lon="-0.21069">
        <ele>37.1</ele>
        <time>2023-10-11T15:36:48Z</time>
      </trkpt>
      <trkpt lat="49.24973" lon="-0.21062">
        <ele>37.1</ele>
        <time>2023-10-11T15:36:49Z</time>
      </trkpt>
      <trkpt lat="49.24981" lon="-0.21054">
        <ele>37</ele>
        <time>2023-10-11T15:36:50Z</time>
      </trkpt>
      <trkpt lat="49.24989" lon="-0.21047">
        <ele>37</ele>
        <time>2023-10-11T15:36:51Z</time>
      </trkpt>
      <trkpt lat="49.24996" lon="-0.21039">
        <ele>36.9</ele>
        <time>2023-10-11T15:36:52Z</time>
      </trkpt>
      <trkpt lat="49.25003" lon="-0.21031">
        <ele>36.9</ele>
        <time>2023-10-11T15:36:53Z</time>
      </trkpt>
      <trkpt lat="49.25011" lon="-0.21023">
        <ele>36.8</ele>
        <time>2023-10-11T15:36:54Z</time>
      </trkpt>
      <trkpt lat="49.25018" lon="-0.21015">
        <ele>36.7</ele>
        <time>2023-10-11T15:36:55Z</time>
      </trkpt>
      <trkpt lat="49.25026" lon="-0.21008">
        <ele>36.7</ele>
        <time>2023-10-11T15:36:56Z</time>
      </trkpt>
      <trkpt lat="49.25034" lon="-0.21">
        <ele>36.6</ele>
        <time>2023-10-11T15:36:57Z</time>
      </trkpt>
      <trkpt lat="49.25042" lon="-0.20994">
        <ele>36.5</ele>
        <time>2023-10-11T15:36:58Z</time>
      </trkpt>
      <trkpt lat="49.2505" lon="-0.20987">
        <ele>36.5</ele>
        <time>2023-10-11T15:36:59Z</time>
      </trkpt>
      <trkpt lat="49.25058" lon="-0.2098">
        <ele>36.4</ele>
        <time>2023-10-11T15:37:00Z</time>
      </trkpt>
      <trkpt lat="49.25067" lon="-0.20974">
        <ele>36.2</ele>
        <time>2023-10-11T15:37:01Z</time>
      </trkpt>
      <trkpt lat="49.25075" lon="-0.20968">
        <ele>36.1</ele>
        <time>2023-10-11T15:37:02Z</time>
      </trkpt>
      <trkpt lat="49.25084" lon="-0.20962">
        <ele>36</ele>
        <time>2023-10-11T15:37:03Z</time>
      </trkpt>
      <trkpt lat="49.25092" lon="-0.20956">
        <ele>35.9</ele>
        <time>2023-10-11T15:37:04Z</time>
      </trkpt>
      <trkpt lat="49.251" lon="-0.2095">
        <ele>35.7</ele>
        <time>2023-10-11T15:37:05Z</time>
      </trkpt>
      <trkpt lat="49.25109" lon="-0.20944">
        <ele>35.6</ele>
        <time>2023-10-11T15:37:06Z</time>
      </trkpt>
      <trkpt lat="49.25117" lon="-0.20938">
        <ele>35.5</ele>
        <time>2023-10-11T15:37:07Z</time>
      </trkpt>
      <trkpt lat="49.25126" lon="-0.20933">
        <ele>35.3</ele>
        <time>2023-10-11T15:37:08Z</time>
      </trkpt>
      <trkpt lat="49.25134" lon="-0.20927">
        <ele>35.2</ele>
        <time>2023-10-11T15:37:09Z</time>
      </trkpt>
      <trkpt lat="49.25143" lon="-0.20922">
        <ele>35.1</ele>
        <time>2023-10-11T15:37:10Z</time>
      </trkpt>
      <trkpt lat="49.25151" lon="-0.20917">
        <ele>34.9</ele>
        <time>2023-10-11T15:37:11Z</time>
      </trkpt>
      <trkpt lat="49.2516" lon="-0.20911">
        <ele>34.8</ele>
        <time>2023-10-11T15:37:12Z</time>
      </trkpt>
      <trkpt lat="49.25169" lon="-0.20906">
        <ele>34.6</ele>
        <time>2023-10-11T15:37:13Z</time>
      </trkpt>
      <trkpt lat="49.25178" lon="-0.20901">
        <ele>34.5</ele>
        <time>2023-10-11T15:37:14Z</time>
      </trkpt>
      <trkpt lat="49.25187" lon="-0.20896">
        <ele>34.4</ele>
        <time>2023-10-11T15:37:15Z</time>
      </trkpt>
      <trkpt lat="49.25195" lon="-0.2089">
        <ele>34.4</ele>
        <time>2023-10-11T15:37:16Z</time>
      </trkpt>
      <trkpt lat="49.25204" lon="-0.20885">
        <ele>34.3</ele>
        <time>2023-10-11T15:37:17Z</time>
      </trkpt>
      <trkpt lat="49.25213" lon="-0.2088">
        <ele>34.2</ele>
        <time>2023-10-11T15:37:18Z</time>
      </trkpt>
      <trkpt lat="49.25222" lon="-0.20875">
        <ele>34.1</ele>
        <time>2023-10-11T15:37:19Z</time>
      </trkpt>
      <trkpt lat="49.25231" lon="-0.2087">
        <ele>34</ele>
        <time>2023-10-11T15:37:20Z</time>
      </trkpt>
      <trkpt lat="49.2524" lon="-0.20865">
        <ele>34</ele>
        <time>2023-10-11T15:37:21Z</time>
      </trkpt>
      <trkpt lat="49.25248" lon="-0.2086">
        <ele>33.9</ele>
        <time>2023-10-11T15:37:22Z</time>
      </trkpt>
      <trkpt lat="49.25257" lon="-0.20855">
        <ele>33.8</ele>
        <time>2023-10-11T15:37:23Z</time>
      </trkpt>
      <trkpt lat="49.25266" lon="-0.2085">
        <ele>33.7</ele>
        <time>2023-10-11T15:37:24Z</time>
      </trkpt>
      <trkpt lat="49.25274" lon="-0.20845">
        <ele>33.6</ele>
        <time>2023-10-11T15:37:25Z</time>
      </trkpt>
      <trkpt lat="49.25283" lon="-0.20841">
        <ele>33.5</ele>
        <time>2023-10-11T15:37:26Z</time>
      </trkpt>
      <trkpt lat="49.25292" lon="-0.20836">
        <ele>33.5</ele>
        <time>2023-10-11T15:37:27Z</time>
      </trkpt>
      <trkpt lat="49.25301" lon="-0.20832">
        <ele>33.4</ele>
        <time>2023-10-11T15:37:28Z</time>
      </trkpt>
      <trkpt lat="49.2531" lon="-0.20827">
        <ele>33.3</ele>
        <time>2023-10-11T15:37:29Z</time>
      </trkpt>
      <trkpt lat="49.25318" lon="-0.20823">
        <ele>33.2</ele>
        <time>2023-10-11T15:37:30Z</time>
      </trkpt>
      <trkpt lat="49.25327" lon="-0.20819">
        <ele>33.2</ele>
        <time>2023-10-11T15:37:31Z</time>
      </trkpt>
      <trkpt lat="49.25336" lon="-0.20814">
        <ele>33.1</ele>
        <time>2023-10-11T15:37:32Z</time>
      </trkpt>
      <trkpt lat="49.25345" lon="-0.20809">
        <ele>33.1</ele>
        <time>2023-10-11T15:37:33Z</time>
      </trkpt>
      <trkpt lat="49.25354" lon="-0.20804">
        <ele>33</ele>
        <time>2023-10-11T15:37:34Z</time>
      </trkpt>
      <trkpt lat="49.25363" lon="-0.20799">
        <ele>32.9</ele>
        <time>2023-10-11T15:37:35Z</time>
      </trkpt>
      <trkpt lat="49.25372" lon="-0.20794">
        <ele>32.8</ele>
        <time>2023-10-11T15:37:36Z</time>
      </trkpt>
      <trkpt lat="49.2538" lon="-0.20788">
        <ele>32.7</ele>
        <time>2023-10-11T15:37:37Z</time>
      </trkpt>
      <trkpt lat="49.25389" lon="-0.20782">
        <ele>32.6</ele>
        <time>2023-10-11T15:37:38Z</time>
      </trkpt>
      <trkpt lat="49.25398" lon="-0.20776">
        <ele>32.4</ele>
        <time>2023-10-11T15:37:39Z</time>
      </trkpt>
      <trkpt lat="49.25407" lon="-0.2077">
        <ele>32.3</ele>
        <time>2023-10-11T15:37:40Z</time>
      </trkpt>
      <trkpt lat="49.25415" lon="-0.20763">
        <ele>32.2</ele>
        <time>2023-10-11T15:37:41Z</time>
      </trkpt>
      <trkpt lat="49.25424" lon="-0.20756">
        <ele>32.1</ele>
        <time>2023-10-11T15:37:42Z</time>
      </trkpt>
      <trkpt lat="49.25432" lon="-0.20749">
        <ele>32</ele>
        <time>2023-10-11T15:37:43Z</time>
      </trkpt>
      <trkpt lat="49.2544" lon="-0.20742">
        <ele>31.9</ele>
        <time>2023-10-11T15:37:44Z</time>
      </trkpt>
      <trkpt lat="49.25449" lon="-0.20736">
        <ele>31.8</ele>
        <time>2023-10-11T15:37:45Z</time>
      </trkpt>
      <trkpt lat="49.25457" lon="-0.2073">
        <ele>31.7</ele>
        <time>2023-10-11T15:37:46Z</time>
      </trkpt>
      <trkpt lat="49.25466" lon="-0.20724">
        <ele>31.6</ele>
        <time>2023-10-11T15:37:47Z</time>
      </trkpt>
      <trkpt lat="49.25475" lon="-0.20718">
        <ele>31.5</ele>
        <time>2023-10-11T15:37:48Z</time>
      </trkpt>
      <trkpt lat="49.25483" lon="-0.20711">
        <ele>31.3</ele>
        <time>2023-10-11T15:37:49Z</time>
      </trkpt>
      <trkpt lat="49.25492" lon="-0.20704">
        <ele>31.2</ele>
        <time>2023-10-11T15:37:50Z</time>
      </trkpt>
      <trkpt lat="49.25501" lon="-0.20698">
        <ele>31.1</ele>
        <time>2023-10-11T15:37:51Z</time>
      </trkpt>
      <trkpt lat="49.25509" lon="-0.2069">
        <ele>31</ele>
        <time>2023-10-11T15:37:52Z</time>
      </trkpt>
      <trkpt lat="49.25517" lon="-0.20681">
        <ele>30.8</ele>
        <time>2023-10-11T15:37:53Z</time>
      </trkpt>
      <trkpt lat="49.25525" lon="-0.20672">
        <ele>30.7</ele>
        <time>2023-10-11T15:37:54Z</time>
      </trkpt>
      <trkpt lat="49.25532" lon="-0.20662">
        <ele>30.6</ele>
        <time>2023-10-11T15:37:55Z</time>
      </trkpt>
      <trkpt lat="49.25539" lon="-0.20653">
        <ele>30.4</ele>
        <time>2023-10-11T15:37:56Z</time>
      </trkpt>
      <trkpt lat="49.25547" lon="-0.20643">
        <ele>30.3</ele>
        <time>2023-10-11T15:37:57Z</time>
      </trkpt>
      <trkpt lat="49.25554" lon="-0.20633">
        <ele>30.1</ele>
        <time>2023-10-11T15:37:58Z</time>
      </trkpt>
      <trkpt lat="49.25561" lon="-0.20624">
        <ele>29.9</ele>
        <time>2023-10-11T15:37:59Z</time>
      </trkpt>
      <trkpt lat="49.25569" lon="-0.20614">
        <ele>29.8</ele>
        <time>2023-10-11T15:38:00Z</time>
      </trkpt>
      <trkpt lat="49.25576" lon="-0.20604">
        <ele>29.6</ele>
        <time>2023-10-11T15:38:01Z</time>
      </trkpt>
      <trkpt lat="49.25584" lon="-0.20595">
        <ele>29.4</ele>
        <time>2023-10-11T15:38:02Z</time>
      </trkpt>
      <trkpt lat="49.25592" lon="-0.20586">
        <ele>29.3</ele>
        <time>2023-10-11T15:38:03Z</time>
      </trkpt>
      <trkpt lat="49.256" lon="-0.20578">
        <ele>29.1</ele>
        <time>2023-10-11T15:38:04Z</time>
      </trkpt>
      <trkpt lat="49.25609" lon="-0.2057">
        <ele>28.9</ele>
        <time>2023-10-11T15:38:05Z</time>
      </trkpt>
      <trkpt lat="49.25617" lon="-0.20562">
        <ele>28.8</ele>
        <time>2023-10-11T15:38:06Z</time>
      </trkpt>
      <trkpt lat="49.25626" lon="-0.20554">
        <ele>28.6</ele>
        <time>2023-10-11T15:38:07Z</time>
      </trkpt>
      <trkpt lat="49.25635" lon="-0.20546">
        <ele>28.3</ele>
        <time>2023-10-11T15:38:08Z</time>
      </trkpt>
      <trkpt lat="49.25643" lon="-0.20538">
        <ele>28.1</ele>
        <time>2023-10-11T15:38:09Z</time>
      </trkpt>
      <trkpt lat="49.25652" lon="-0.2053">
        <ele>27.9</ele>
        <time>2023-10-11T15:38:10Z</time>
      </trkpt>
      <trkpt lat="49.2566" lon="-0.20522">
        <ele>27.7</ele>
        <time>2023-10-11T15:38:11Z</time>
      </trkpt>
      <trkpt lat="49.25668" lon="-0.20512">
        <ele>27.4</ele>
        <time>2023-10-11T15:38:12Z</time>
      </trkpt>
      <trkpt lat="49.25677" lon="-0.20503">
        <ele>27.2</ele>
        <time>2023-10-11T15:38:13Z</time>
      </trkpt>
      <trkpt lat="49.25685" lon="-0.20493">
        <ele>26.9</ele>
        <time>2023-10-11T15:38:14Z</time>
      </trkpt>
      <trkpt lat="49.25693" lon="-0.20483">
        <ele>26.7</ele>
        <time>2023-10-11T15:38:15Z</time>
      </trkpt>
      <trkpt lat="49.25701" lon="-0.20473">
        <ele>26.5</ele>
        <time>2023-10-11T15:38:16Z</time>
      </trkpt>
      <trkpt lat="49.2571" lon="-0.20463">
        <ele>26.2</ele>
        <time>2023-10-11T15:38:17Z</time>
      </trkpt>
      <trkpt lat="49.25718" lon="-0.20452">
        <ele>26</ele>
        <time>2023-10-11T15:38:18Z</time>
      </trkpt>
      <trkpt lat="49.25726" lon="-0.20442">
        <ele>25.8</ele>
        <time>2023-10-11T15:38:19Z</time>
      </trkpt>
      <trkpt lat="49.25735" lon="-0.20432">
        <ele>25.5</ele>
        <time>2023-10-11T15:38:20Z</time>
      </trkpt>
      <trkpt lat="49.25743" lon="-0.20422">
        <ele>25.3</ele>
        <time>2023-10-11T15:38:21Z</time>
      </trkpt>
      <trkpt lat="49.25751" lon="-0.20412">
        <ele>25.1</ele>
        <time>2023-10-11T15:38:22Z</time>
      </trkpt>
      <trkpt lat="49.25759" lon="-0.20402">
        <ele>24.9</ele>
        <time>2023-10-11T15:38:23Z</time>
      </trkpt>
      <trkpt lat="49.25766" lon="-0.20392">
        <ele>24.7</ele>
        <time>2023-10-11T15:38:24Z</time>
      </trkpt>
      <trkpt lat="49.25774" lon="-0.20383">
        <ele>24.5</ele>
        <time>2023-10-11T15:38:25Z</time>
      </trkpt>
      <trkpt lat="49.25782" lon="-0.20374">
        <ele>24.4</ele>
        <time>2023-10-11T15:38:26Z</time>
      </trkpt>
      <trkpt lat="49.2579" lon="-0.20364">
        <ele>24.2</ele>
        <time>2023-10-11T15:38:27Z</time>
      </trkpt>
      <trkpt lat="49.25798" lon="-0.20354">
        <ele>24.1</ele>
        <time>2023-10-11T15:38:28Z</time>
      </trkpt>
      <trkpt lat="49.25805" lon="-0.20345">
        <ele>23.9</ele>
        <time>2023-10-11T15:38:29Z</time>
      </trkpt>
      <trkpt lat="49.25813" lon="-0.20335">
        <ele>23.8</ele>
        <time>2023-10-11T15:38:30Z</time>
      </trkpt>
      <trkpt lat="49.25821" lon="-0.20325">
        <ele>23.7</ele>
        <time>2023-10-11T15:38:31Z</time>
      </trkpt>
      <trkpt lat="49.25829" lon="-0.20316">
        <ele>23.5</ele>
        <time>2023-10-11T15:38:32Z</time>
      </trkpt>
      <trkpt lat="49.25837" lon="-0.20306">
        <ele>23.3</ele>
        <time>2023-10-11T15:38:33Z</time>
      </trkpt>
      <trkpt lat="49.25845" lon="-0.20296">
        <ele>23.1</ele>
        <time>2023-10-11T15:38:34Z</time>
      </trkpt>
      <trkpt lat="49.25852" lon="-0.20286">
        <ele>23</ele>
        <time>2023-10-11T15:38:35Z</time>
      </trkpt>
      <trkpt lat="49.2586" lon="-0.20276">
        <ele>22.8</ele>
        <time>2023-10-11T15:38:36Z</time>
      </trkpt>
      <trkpt lat="49.25868" lon="-0.20266">
        <ele>22.6</ele>
        <time>2023-10-11T15:38:37Z</time>
      </trkpt>
      <trkpt lat="49.25877" lon="-0.20257">
        <ele>22.4</ele>
        <time>2023-10-11T15:38:38Z</time>
      </trkpt>
      <trkpt lat="49.25885" lon="-0.20247">
        <ele>22.1</ele>
        <time>2023-10-11T15:38:39Z</time>
      </trkpt>
      <trkpt lat="49.25893" lon="-0.20237">
        <ele>21.9</ele>
        <time>2023-10-11T15:38:40Z</time>
      </trkpt>
      <trkpt lat="49.25902" lon="-0.20228">
        <ele>21.7</ele>
        <time>2023-10-11T15:38:41Z</time>
      </trkpt>
      <trkpt lat="49.2591" lon="-0.20218">
        <ele>21.5</ele>
        <time>2023-10-11T15:38:42Z</time>
      </trkpt>
      <trkpt lat="49.25918" lon="-0.20208">
        <ele>21.2</ele>
        <time>2023-10-11T15:38:43Z</time>
      </trkpt>
      <trkpt lat="49.25926" lon="-0.20197">
        <ele>21</ele>
        <time>2023-10-11T15:38:44Z</time>
      </trkpt>
      <trkpt lat="49.25934" lon="-0.20187">
        <ele>20.8</ele>
        <time>2023-10-11T15:38:45Z</time>
      </trkpt>
      <trkpt lat="49.25941" lon="-0.20177">
        <ele>20.5</ele>
        <time>2023-10-11T15:38:46Z</time>
      </trkpt>
      <trkpt lat="49.25949" lon="-0.20167">
        <ele>20.3</ele>
        <time>2023-10-11T15:38:47Z</time>
      </trkpt>
      <trkpt lat="49.25957" lon="-0.20157">
        <ele>20</ele>
        <time>2023-10-11T15:38:48Z</time>
      </trkpt>
      <trkpt lat="49.25964" lon="-0.20146">
        <ele>19.7</ele>
        <time>2023-10-11T15:38:49Z</time>
      </trkpt>
      <trkpt lat="49.25972" lon="-0.20136">
        <ele>19.5</ele>
        <time>2023-10-11T15:38:50Z</time>
      </trkpt>
      <trkpt lat="49.2598" lon="-0.20126">
        <ele>19.2</ele>
        <time>2023-10-11T15:38:51Z</time>
      </trkpt>
      <trkpt lat="49.25987" lon="-0.20116">
        <ele>19</ele>
        <time>2023-10-11T15:38:52Z</time>
      </trkpt>
      <trkpt lat="49.25995" lon="-0.20106">
        <ele>18.8</ele>
        <time>2023-10-11T15:38:53Z</time>
      </trkpt>
      <trkpt lat="49.26003" lon="-0.20096">
        <ele>18.6</ele>
        <time>2023-10-11T15:38:54Z</time>
      </trkpt>
      <trkpt lat="49.2601" lon="-0.20086">
        <ele>18.3</ele>
        <time>2023-10-11T15:38:55Z</time>
      </trkpt>
      <trkpt lat="49.26018" lon="-0.20075">
        <ele>18.1</ele>
        <time>2023-10-11T15:38:56Z</time>
      </trkpt>
      <trkpt lat="49.26025" lon="-0.20065">
        <ele>17.9</ele>
        <time>2023-10-11T15:38:57Z</time>
      </trkpt>
      <trkpt lat="49.26032" lon="-0.20054">
        <ele>17.7</ele>
        <time>2023-10-11T15:38:58Z</time>
      </trkpt>
      <trkpt lat="49.26039" lon="-0.20042">
        <ele>17.5</ele>
        <time>2023-10-11T15:38:59Z</time>
      </trkpt>
      <trkpt lat="49.26046" lon="-0.2003">
        <ele>17.3</ele>
        <time>2023-10-11T15:39:00Z</time>
      </trkpt>
      <trkpt lat="49.26053" lon="-0.20018">
        <ele>17.2</ele>
        <time>2023-10-11T15:39:01Z</time>
      </trkpt>
      <trkpt lat="49.2606" lon="-0.20005">
        <ele>17.1</ele>
        <time>2023-10-11T15:39:02Z</time>
      </trkpt>
      <trkpt lat="49.26068" lon="-0.19993">
        <ele>17</ele>
        <time>2023-10-11T15:39:03Z</time>
      </trkpt>
      <trkpt lat="49.26075" lon="-0.19981">
        <ele>16.9</ele>
        <time>2023-10-11T15:39:04Z</time>
      </trkpt>
      <trkpt lat="49.26082" lon="-0.19969">
        <ele>16.9</ele>
        <time>2023-10-11T15:39:05Z</time>
      </trkpt>
      <trkpt lat="49.26089" lon="-0.19957">
        <ele>17</ele>
        <time>2023-10-11T15:39:06Z</time>
      </trkpt>
      <trkpt lat="49.26097" lon="-0.19945">
        <ele>17.1</ele>
        <time>2023-10-11T15:39:07Z</time>
      </trkpt>
      <trkpt lat="49.26104" lon="-0.19934">
        <ele>17.2</ele>
        <time>2023-10-11T15:39:08Z</time>
      </trkpt>
      <trkpt lat="49.26111" lon="-0.19922">
        <ele>17.4</ele>
        <time>2023-10-11T15:39:09Z</time>
      </trkpt>
      <trkpt lat="49.26118" lon="-0.19911">
        <ele>17.6</ele>
        <time>2023-10-11T15:39:10Z</time>
      </trkpt>
      <trkpt lat="49.26125" lon="-0.199">
        <ele>17.8</ele>
        <time>2023-10-11T15:39:11Z</time>
      </trkpt>
      <trkpt lat="49.26131" lon="-0.19889">
        <ele>18</ele>
        <time>2023-10-11T15:39:12Z</time>
      </trkpt>
      <trkpt lat="49.26138" lon="-0.19879">
        <ele>18.2</ele>
        <time>2023-10-11T15:39:13Z</time>
      </trkpt>
      <trkpt lat="49.26145" lon="-0.19868">
        <ele>18.4</ele>
        <time>2023-10-11T15:39:14Z</time>
      </trkpt>
      <trkpt lat="49.26152" lon="-0.19857">
        <ele>18.6</ele>
        <time>2023-10-11T15:39:15Z</time>
      </trkpt>
      <trkpt lat="49.26158" lon="-0.19847">
        <ele>18.8</ele>
        <time>2023-10-11T15:39:16Z</time>
      </trkpt>
      <trkpt lat="49.26165" lon="-0.19837">
        <ele>18.9</ele>
        <time>2023-10-11T15:39:17Z</time>
      </trkpt>
      <trkpt lat="49.26172" lon="-0.19826">
        <ele>19</ele>
        <time>2023-10-11T15:39:18Z</time>
      </trkpt>
      <trkpt lat="49.26179" lon="-0.19816">
        <ele>19</ele>
        <time>2023-10-11T15:39:19Z</time>
      </trkpt>
      <trkpt lat="49.26186" lon="-0.19806">
        <ele>19.1</ele>
        <time>2023-10-11T15:39:20Z</time>
      </trkpt>
      <trkpt lat="49.26194" lon="-0.19797">
        <ele>19.2</ele>
        <time>2023-10-11T15:39:21Z</time>
      </trkpt>
      <trkpt lat="49.26201" lon="-0.19787">
        <ele>19.2</ele>
        <time>2023-10-11T15:39:22Z</time>
      </trkpt>
      <trkpt lat="49.26209" lon="-0.19779">
        <ele>19.3</ele>
        <time>2023-10-11T15:39:23Z</time>
      </trkpt>
      <trkpt lat="49.26218" lon="-0.19771">
        <ele>19.3</ele>
        <time>2023-10-11T15:39:24Z</time>
      </trkpt>
      <trkpt lat="49.26226" lon="-0.19763">
        <ele>19.3</ele>
        <time>2023-10-11T15:39:25Z</time>
      </trkpt>
      <trkpt lat="49.26235" lon="-0.19756">
        <ele>19.2</ele>
        <time>2023-10-11T15:39:26Z</time>
      </trkpt>
      <trkpt lat="49.26244" lon="-0.19748">
        <ele>19</ele>
        <time>2023-10-11T15:39:27Z</time>
      </trkpt>
      <trkpt lat="49.26253" lon="-0.1974">
        <ele>18.9</ele>
        <time>2023-10-11T15:39:28Z</time>
      </trkpt>
      <trkpt lat="49.26262" lon="-0.19732">
        <ele>18.8</ele>
        <time>2023-10-11T15:39:29Z</time>
      </trkpt>
      <trkpt lat="49.26272" lon="-0.19724">
        <ele>18.6</ele>
        <time>2023-10-11T15:39:30Z</time>
      </trkpt>
      <trkpt lat="49.26281" lon="-0.19716">
        <ele>18.4</ele>
        <time>2023-10-11T15:39:31Z</time>
      </trkpt>
      <trkpt lat="49.2629" lon="-0.19709">
        <ele>18.2</ele>
        <time>2023-10-11T15:39:32Z</time>
      </trkpt>
      <trkpt lat="49.263" lon="-0.19703">
        <ele>18</ele>
        <time>2023-10-11T15:39:33Z</time>
      </trkpt>
      <trkpt lat="49.2631" lon="-0.19698">
        <ele>17.8</ele>
        <time>2023-10-11T15:39:34Z</time>
      </trkpt>
      <trkpt lat="49.2632" lon="-0.19693">
        <ele>17.6</ele>
        <time>2023-10-11T15:39:35Z</time>
      </trkpt>
      <trkpt lat="49.2633" lon="-0.19687">
        <ele>17.4</ele>
        <time>2023-10-11T15:39:36Z</time>
      </trkpt>
      <trkpt lat="49.2634" lon="-0.19683">
        <ele>17.2</ele>
        <time>2023-10-11T15:39:37Z</time>
      </trkpt>
      <trkpt lat="49.2635" lon="-0.19678">
        <ele>17</ele>
        <time>2023-10-11T15:39:38Z</time>
      </trkpt>
      <trkpt lat="49.2636" lon="-0.19674">
        <ele>16.8</ele>
        <time>2023-10-11T15:39:39Z</time>
      </trkpt>
      <trkpt lat="49.2637" lon="-0.19669">
        <ele>16.6</ele>
        <time>2023-10-11T15:39:40Z</time>
      </trkpt>
      <trkpt lat="49.26379" lon="-0.19665">
        <ele>16.4</ele>
        <time>2023-10-11T15:39:41Z</time>
      </trkpt>
      <trkpt lat="49.26389" lon="-0.1966">
        <ele>16.2</ele>
        <time>2023-10-11T15:39:42Z</time>
      </trkpt>
      <trkpt lat="49.26399" lon="-0.19656">
        <ele>16.1</ele>
        <time>2023-10-11T15:39:43Z</time>
      </trkpt>
      <trkpt lat="49.26409" lon="-0.1965">
        <ele>16</ele>
        <time>2023-10-11T15:39:44Z</time>
      </trkpt>
      <trkpt lat="49.26419" lon="-0.19645">
        <ele>15.8</ele>
        <time>2023-10-11T15:39:45Z</time>
      </trkpt>
      <trkpt lat="49.26429" lon="-0.19639">
        <ele>15.6</ele>
        <time>2023-10-11T15:39:46Z</time>
      </trkpt>
      <trkpt lat="49.26438" lon="-0.19633">
        <ele>15.5</ele>
        <time>2023-10-11T15:39:47Z</time>
      </trkpt>
      <trkpt lat="49.26448" lon="-0.19628">
        <ele>15.4</ele>
        <time>2023-10-11T15:39:48Z</time>
      </trkpt>
      <trkpt lat="49.26458" lon="-0.19622">
        <ele>15.3</ele>
        <time>2023-10-11T15:39:49Z</time>
      </trkpt>
      <trkpt lat="49.26468" lon="-0.19617">
        <ele>15.2</ele>
        <time>2023-10-11T15:39:50Z</time>
      </trkpt>
      <trkpt lat="49.26477" lon="-0.19611">
        <ele>15</ele>
        <time>2023-10-11T15:39:51Z</time>
      </trkpt>
      <trkpt lat="49.26487" lon="-0.19605">
        <ele>14.9</ele>
        <time>2023-10-11T15:39:52Z</time>
      </trkpt>
      <trkpt lat="49.26497" lon="-0.19599">
        <ele>14.8</ele>
        <time>2023-10-11T15:39:53Z</time>
      </trkpt>
      <trkpt lat="49.26507" lon="-0.19593">
        <ele>14.7</ele>
        <time>2023-10-11T15:39:54Z</time>
      </trkpt>
      <trkpt lat="49.26517" lon="-0.19586">
        <ele>14.6</ele>
        <time>2023-10-11T15:39:55Z</time>
      </trkpt>
      <trkpt lat="49.26526" lon="-0.19579">
        <ele>14.5</ele>
        <time>2023-10-11T15:39:56Z</time>
      </trkpt>
      <trkpt lat="49.26535" lon="-0.1957">
        <ele>14.4</ele>
        <time>2023-10-11T15:39:57Z</time>
      </trkpt>
      <trkpt lat="49.26544" lon="-0.19561">
        <ele>14.3</ele>
        <time>2023-10-11T15:39:58Z</time>
      </trkpt>
      <trkpt lat="49.26552" lon="-0.19551">
        <ele>14.2</ele>
        <time>2023-10-11T15:39:59Z</time>
      </trkpt>
      <trkpt lat="49.2656" lon="-0.19541">
        <ele>14.2</ele>
        <time>2023-10-11T15:40:00Z</time>
      </trkpt>
      <trkpt lat="49.26568" lon="-0.19531">
        <ele>14.1</ele>
        <time>2023-10-11T15:40:01Z</time>
      </trkpt>
      <trkpt lat="49.26577" lon="-0.19521">
        <ele>14</ele>
        <time>2023-10-11T15:40:02Z</time>
      </trkpt>
      <trkpt lat="49.26585" lon="-0.19511">
        <ele>14</ele>
        <time>2023-10-11T15:40:03Z</time>
      </trkpt>
      <trkpt lat="49.26593" lon="-0.19501">
        <ele>13.9</ele>
        <time>2023-10-11T15:40:04Z</time>
      </trkpt>
      <trkpt lat="49.26601" lon="-0.19492">
        <ele>13.9</ele>
        <time>2023-10-11T15:40:05Z</time>
      </trkpt>
      <trkpt lat="49.2661" lon="-0.19482">
        <ele>13.8</ele>
        <time>2023-10-11T15:40:06Z</time>
      </trkpt>
      <trkpt lat="49.26618" lon="-0.19473">
        <ele>13.8</ele>
        <time>2023-10-11T15:40:07Z</time>
      </trkpt>
      <trkpt lat="49.26627" lon="-0.19465">
        <ele>13.8</ele>
        <time>2023-10-11T15:40:08Z</time>
      </trkpt>
      <trkpt lat="49.26636" lon="-0.19457">
        <ele>13.8</ele>
        <time>2023-10-11T15:40:09Z</time>
      </trkpt>
      <trkpt lat="49.26645" lon="-0.19449">
        <ele>13.8</ele>
        <time>2023-10-11T15:40:10Z</time>
      </trkpt>
      <trkpt lat="49.26654" lon="-0.19442">
        <ele>13.9</ele>
        <time>2023-10-11T15:40:11Z</time>
      </trkpt>
      <trkpt lat="49.26663" lon="-0.19434">
        <ele>13.9</ele>
        <time>2023-10-11T15:40:12Z</time>
      </trkpt>
      <trkpt lat="49.26672" lon="-0.19427">
        <ele>14</ele>
        <time>2023-10-11T15:40:13Z</time>
      </trkpt>
      <trkpt lat="49.26681" lon="-0.1942">
        <ele>14.1</ele>
        <time>2023-10-11T15:40:14Z</time>
      </trkpt>
      <trkpt lat="49.2669" lon="-0.19414">
        <ele>14.1</ele>
        <time>2023-10-11T15:40:15Z</time>
      </trkpt>
      <trkpt lat="49.26699" lon="-0.19407">
        <ele>14.2</ele>
        <time>2023-10-11T15:40:16Z</time>
      </trkpt>
      <trkpt lat="49.26708" lon="-0.194">
        <ele>14.2</ele>
        <time>2023-10-11T15:40:17Z</time>
      </trkpt>
      <trkpt lat="49.26716" lon="-0.19393">
        <ele>14.3</ele>
        <time>2023-10-11T15:40:18Z</time>
      </trkpt>
      <trkpt lat="49.26725" lon="-0.19386">
        <ele>14.3</ele>
        <time>2023-10-11T15:40:19Z</time>
      </trkpt>
      <trkpt lat="49.26733" lon="-0.1938">
        <ele>14.4</ele>
        <time>2023-10-11T15:40:20Z</time>
      </trkpt>
      <trkpt lat="49.26742" lon="-0.19373">
        <ele>14.5</ele>
        <time>2023-10-11T15:40:21Z</time>
      </trkpt>
      <trkpt lat="49.2675" lon="-0.19367">
        <ele>14.5</ele>
        <time>2023-10-11T15:40:22Z</time>
      </trkpt>
      <trkpt lat="49.26758" lon="-0.1936">
        <ele>14.6</ele>
        <time>2023-10-11T15:40:23Z</time>
      </trkpt>
      <trkpt lat="49.26767" lon="-0.19354">
        <ele>14.6</ele>
        <time>2023-10-11T15:40:24Z</time>
      </trkpt>
      <trkpt lat="49.26776" lon="-0.19348">
        <ele>14.6</ele>
        <time>2023-10-11T15:40:25Z</time>
      </trkpt>
      <trkpt lat="49.26784" lon="-0.19342">
        <ele>14.6</ele>
        <time>2023-10-11T15:40:26Z</time>
      </trkpt>
      <trkpt lat="49.26793" lon="-0.19335">
        <ele>14.7</ele>
        <time>2023-10-11T15:40:27Z</time>
      </trkpt>
      <trkpt lat="49.26801" lon="-0.19329">
        <ele>14.7</ele>
        <time>2023-10-11T15:40:28Z</time>
      </trkpt>
      <trkpt lat="49.2681" lon="-0.19322">
        <ele>14.7</ele>
        <time>2023-10-11T15:40:29Z</time>
      </trkpt>
      <trkpt lat="49.26818" lon="-0.19316">
        <ele>14.7</ele>
        <time>2023-10-11T15:40:30Z</time>
      </trkpt>
      <trkpt lat="49.26827" lon="-0.1931">
        <ele>14.7</ele>
        <time>2023-10-11T15:40:31Z</time>
      </trkpt>
      <trkpt lat="49.26835" lon="-0.19304">
        <ele>14.6</ele>
        <time>2023-10-11T15:40:32Z</time>
      </trkpt>
      <trkpt lat="49.26844" lon="-0.19297">
        <ele>14.6</ele>
        <time>2023-10-11T15:40:33Z</time>
      </trkpt>
      <trkpt lat="49.26852" lon="-0.19291">
        <ele>14.6</ele>
        <time>2023-10-11T15:40:34Z</time>
      </trkpt>
      <trkpt lat="49.2686" lon="-0.19284">
        <ele>14.6</ele>
        <time>2023-10-11T15:40:35Z</time>
      </trkpt>
      <trkpt lat="49.26869" lon="-0.19278">
        <ele>14.6</ele>
        <time>2023-10-11T15:40:36Z</time>
      </trkpt>
      <trkpt lat="49.26877" lon="-0.19272">
        <ele>14.6</ele>
        <time>2023-10-11T15:40:37Z</time>
      </trkpt>
      <trkpt lat="49.26885" lon="-0.19266">
        <ele>14.6</ele>
        <time>2023-10-11T15:40:38Z</time>
      </trkpt>
      <trkpt lat="49.26894" lon="-0.19259">
        <ele>14.6</ele>
        <time>2023-10-11T15:40:39Z</time>
      </trkpt>
      <trkpt lat="49.26902" lon="-0.19253">
        <ele>14.5</ele>
        <time>2023-10-11T15:40:40Z</time>
      </trkpt>
      <trkpt lat="49.2691" lon="-0.19246">
        <ele>14.5</ele>
        <time>2023-10-11T15:40:41Z</time>
      </trkpt>
      <trkpt lat="49.26917" lon="-0.19238">
        <ele>14.5</ele>
        <time>2023-10-11T15:40:42Z</time>
      </trkpt>
      <trkpt lat="49.26925" lon="-0.19231">
        <ele>14.4</ele>
        <time>2023-10-11T15:40:43Z</time>
      </trkpt>
      <trkpt lat="49.26933" lon="-0.19223">
        <ele>14.3</ele>
        <time>2023-10-11T15:40:44Z</time>
      </trkpt>
      <trkpt lat="49.26941" lon="-0.19215">
        <ele>14.3</ele>
        <time>2023-10-11T15:40:45Z</time>
      </trkpt>
      <trkpt lat="49.26949" lon="-0.19208">
        <ele>14.2</ele>
        <time>2023-10-11T15:40:46Z</time>
      </trkpt>
      <trkpt lat="49.26957" lon="-0.19201">
        <ele>14.1</ele>
        <time>2023-10-11T15:40:47Z</time>
      </trkpt>
      <trkpt lat="49.26965" lon="-0.19195">
        <ele>14</ele>
        <time>2023-10-11T15:40:48Z</time>
      </trkpt>
      <trkpt lat="49.26973" lon="-0.19188">
        <ele>14</ele>
        <time>2023-10-11T15:40:49Z</time>
      </trkpt>
      <trkpt lat="49.26981" lon="-0.19181">
        <ele>13.8</ele>
        <time>2023-10-11T15:40:50Z</time>
      </trkpt>
      <trkpt lat="49.2699" lon="-0.19175">
        <ele>13.7</ele>
        <time>2023-10-11T15:40:51Z</time>
      </trkpt>
      <trkpt lat="49.26998" lon="-0.19168">
        <ele>13.6</ele>
        <time>2023-10-11T15:40:52Z</time>
      </trkpt>
      <trkpt lat="49.27006" lon="-0.19162">
        <ele>13.5</ele>
        <time>2023-10-11T15:40:53Z</time>
      </trkpt>
      <trkpt lat="49.27015" lon="-0.19156">
        <ele>13.4</ele>
        <time>2023-10-11T15:40:54Z</time>
      </trkpt>
      <trkpt lat="49.27023" lon="-0.1915">
        <ele>13.2</ele>
        <time>2023-10-11T15:40:55Z</time>
      </trkpt>
      <trkpt lat="49.27032" lon="-0.19143">
        <ele>13.1</ele>
        <time>2023-10-11T15:40:56Z</time>
      </trkpt>
      <trkpt lat="49.2704" lon="-0.19137">
        <ele>12.9</ele>
        <time>2023-10-11T15:40:57Z</time>
      </trkpt>
      <trkpt lat="49.27048" lon="-0.1913">
        <ele>12.7</ele>
        <time>2023-10-11T15:40:58Z</time>
      </trkpt>
      <trkpt lat="49.27057" lon="-0.19124">
        <ele>12.5</ele>
        <time>2023-10-11T15:40:59Z</time>
      </trkpt>
      <trkpt lat="49.27066" lon="-0.19118">
        <ele>12.3</ele>
        <time>2023-10-11T15:41:00Z</time>
      </trkpt>
      <trkpt lat="49.27075" lon="-0.19112">
        <ele>12.1</ele>
        <time>2023-10-11T15:41:01Z</time>
      </trkpt>
      <trkpt lat="49.27083" lon="-0.19105">
        <ele>11.9</ele>
        <time>2023-10-11T15:41:02Z</time>
      </trkpt>
      <trkpt lat="49.27091" lon="-0.19098">
        <ele>11.7</ele>
        <time>2023-10-11T15:41:03Z</time>
      </trkpt>
      <trkpt lat="49.27099" lon="-0.19091">
        <ele>11.5</ele>
        <time>2023-10-11T15:41:04Z</time>
      </trkpt>
      <trkpt lat="49.27107" lon="-0.19084">
        <ele>11.4</ele>
        <time>2023-10-11T15:41:05Z</time>
      </trkpt>
      <trkpt lat="49.27115" lon="-0.19078">
        <ele>11.2</ele>
        <time>2023-10-11T15:41:06Z</time>
      </trkpt>
      <trkpt lat="49.27123" lon="-0.19072">
        <ele>11.1</ele>
        <time>2023-10-11T15:41:07Z</time>
      </trkpt>
      <trkpt lat="49.27132" lon="-0.19068">
        <ele>10.9</ele>
        <time>2023-10-11T15:41:08Z</time>
      </trkpt>
      <trkpt lat="49.2714" lon="-0.19064">
        <ele>10.7</ele>
        <time>2023-10-11T15:41:09Z</time>
      </trkpt>
      <trkpt lat="49.27147" lon="-0.19059">
        <ele>10.4</ele>
        <time>2023-10-11T15:41:10Z</time>
      </trkpt>
      <trkpt lat="49.27154" lon="-0.19053">
        <ele>10.2</ele>
        <time>2023-10-11T15:41:11Z</time>
      </trkpt>
      <trkpt lat="49.27162" lon="-0.19046">
        <ele>9.9</ele>
        <time>2023-10-11T15:41:12Z</time>
      </trkpt>
      <trkpt lat="49.2717" lon="-0.1904">
        <ele>9.6</ele>
        <time>2023-10-11T15:41:13Z</time>
      </trkpt>
      <trkpt lat="49.27177" lon="-0.19033">
        <ele>9.4</ele>
        <time>2023-10-11T15:41:14Z</time>
      </trkpt>
      <trkpt lat="49.27185" lon="-0.19026">
        <ele>9.1</ele>
        <time>2023-10-11T15:41:15Z</time>
      </trkpt>
      <trkpt lat="49.27194" lon="-0.19018">
        <ele>8.8</ele>
        <time>2023-10-11T15:41:16Z</time>
      </trkpt>
      <trkpt lat="49.27202" lon="-0.1901">
        <ele>8.5</ele>
        <time>2023-10-11T15:41:17Z</time>
      </trkpt>
      <trkpt lat="49.27211" lon="-0.19002">
        <ele>8.1</ele>
        <time>2023-10-11T15:41:18Z</time>
      </trkpt>
      <trkpt lat="49.27221" lon="-0.18993">
        <ele>7.8</ele>
        <time>2023-10-11T15:41:19Z</time>
      </trkpt>
      <trkpt lat="49.2723" lon="-0.18984">
        <ele>7.5</ele>
        <time>2023-10-11T15:41:20Z</time>
      </trkpt>
      <trkpt lat="49.27239" lon="-0.18976">
        <ele>7.2</ele>
        <time>2023-10-11T15:41:21Z</time>
      </trkpt>
      <trkpt lat="49.27248" lon="-0.18968">
        <ele>6.9</ele>
        <time>2023-10-11T15:41:22Z</time>
      </trkpt>
      <trkpt lat="49.27257" lon="-0.18959">
        <ele>6.6</ele>
        <time>2023-10-11T15:41:23Z</time>
      </trkpt>
      <trkpt lat="49.27266" lon="-0.18951">
        <ele>6.3</ele>
        <time>2023-10-11T15:41:24Z</time>
      </trkpt>
      <trkpt lat="49.27275" lon="-0.18942">
        <ele>6.1</ele>
        <time>2023-10-11T15:41:25Z</time>
      </trkpt>
      <trkpt lat="49.27284" lon="-0.18933">
        <ele>5.8</ele>
        <time>2023-10-11T15:41:26Z</time>
      </trkpt>
      <trkpt lat="49.27293" lon="-0.18924">
        <ele>5.6</ele>
        <time>2023-10-11T15:41:27Z</time>
      </trkpt>
      <trkpt lat="49.27302" lon="-0.18915">
        <ele>5.4</ele>
        <time>2023-10-11T15:41:28Z</time>
      </trkpt>
      <trkpt lat="49.27312" lon="-0.18906">
        <ele>5.2</ele>
        <time>2023-10-11T15:41:29Z</time>
      </trkpt>
      <trkpt lat="49.27321" lon="-0.18897">
        <ele>5.1</ele>
        <time>2023-10-11T15:41:30Z</time>
      </trkpt>
      <trkpt lat="49.2733" lon="-0.18888">
        <ele>4.9</ele>
        <time>2023-10-11T15:41:31Z</time>
      </trkpt>
      <trkpt lat="49.27339" lon="-0.18879">
        <ele>4.8</ele>
        <time>2023-10-11T15:41:32Z</time>
      </trkpt>
      <trkpt lat="49.27348" lon="-0.1887">
        <ele>4.6</ele>
        <time>2023-10-11T15:41:33Z</time>
      </trkpt>
      <trkpt lat="49.27357" lon="-0.18861">
        <ele>4.5</ele>
        <time>2023-10-11T15:41:34Z</time>
      </trkpt>
      <trkpt lat="49.27366" lon="-0.18852">
        <ele>4.4</ele>
        <time>2023-10-11T15:41:35Z</time>
      </trkpt>
      <trkpt lat="49.27376" lon="-0.18843">
        <ele>4.3</ele>
        <time>2023-10-11T15:41:36Z</time>
      </trkpt>
      <trkpt lat="49.27385" lon="-0.18834">
        <ele>4.2</ele>
        <time>2023-10-11T15:41:37Z</time>
      </trkpt>
      <trkpt lat="49.27394" lon="-0.18825">
        <ele>4</ele>
        <time>2023-10-11T15:41:38Z</time>
      </trkpt>
      <trkpt lat="49.27403" lon="-0.18816">
        <ele>4</ele>
        <time>2023-10-11T15:41:39Z</time>
      </trkpt>
      <trkpt lat="49.27413" lon="-0.18807">
        <ele>4</ele>
        <time>2023-10-11T15:41:40Z</time>
      </trkpt>
      <trkpt lat="49.27422" lon="-0.18798">
        <ele>3.9</ele>
        <time>2023-10-11T15:41:41Z</time>
      </trkpt>
      <trkpt lat="49.27431" lon="-0.18789">
        <ele>3.9</ele>
        <time>2023-10-11T15:41:42Z</time>
      </trkpt>
      <trkpt lat="49.2744" lon="-0.18781">
        <ele>3.9</ele>
        <time>2023-10-11T15:41:43Z</time>
      </trkpt>
      <trkpt lat="49.27449" lon="-0.18772">
        <ele>3.9</ele>
        <time>2023-10-11T15:41:44Z</time>
      </trkpt>
      <trkpt lat="49.27458" lon="-0.18763">
        <ele>3.9</ele>
        <time>2023-10-11T15:41:45Z</time>
      </trkpt>
      <trkpt lat="49.27467" lon="-0.18755">
        <ele>3.9</ele>
        <time>2023-10-11T15:41:46Z</time>
      </trkpt>
      <trkpt lat="49.27476" lon="-0.18746">
        <ele>4</ele>
        <time>2023-10-11T15:41:47Z</time>
      </trkpt>
      <trkpt lat="49.27485" lon="-0.18738">
        <ele>4</ele>
        <time>2023-10-11T15:41:48Z</time>
      </trkpt>
      <trkpt lat="49.27494" lon="-0.18729">
        <ele>4</ele>
        <time>2023-10-11T15:41:49Z</time>
      </trkpt>
      <trkpt lat="49.27503" lon="-0.1872">
        <ele>4</ele>
        <time>2023-10-11T15:41:50Z</time>
      </trkpt>
      <trkpt lat="49.27512" lon="-0.18711">
        <ele>3.9</ele>
        <time>2023-10-11T15:41:51Z</time>
      </trkpt>
      <trkpt lat="49.27521" lon="-0.18702">
        <ele>3.9</ele>
        <time>2023-10-11T15:41:52Z</time>
      </trkpt>
      <trkpt lat="49.2753" lon="-0.18693">
        <ele>3.8</ele>
        <time>2023-10-11T15:41:53Z</time>
      </trkpt>
      <trkpt lat="49.27539" lon="-0.18685">
        <ele>3.9</ele>
        <time>2023-10-11T15:41:54Z</time>
      </trkpt>
      <trkpt lat="49.27548" lon="-0.18677">
        <ele>3.9</ele>
        <time>2023-10-11T15:41:55Z</time>
      </trkpt>
      <trkpt lat="49.27556" lon="-0.18668">
        <ele>4</ele>
        <time>2023-10-11T15:41:56Z</time>
      </trkpt>
      <trkpt lat="49.27565" lon="-0.1866">
        <ele>4</ele>
        <time>2023-10-11T15:41:57Z</time>
      </trkpt>
      <trkpt lat="49.27574" lon="-0.18651">
        <ele>4</ele>
        <time>2023-10-11T15:41:58Z</time>
      </trkpt>
      <trkpt lat="49.27583" lon="-0.18643">
        <ele>4</ele>
        <time>2023-10-11T15:41:59Z</time>
      </trkpt>
      <trkpt lat="49.27592" lon="-0.18635">
        <ele>4</ele>
        <time>2023-10-11T15:42:00Z</time>
      </trkpt>
      <trkpt lat="49.27601" lon="-0.18627">
        <ele>4</ele>
        <time>2023-10-11T15:42:01Z</time>
      </trkpt>
      <trkpt lat="49.2761" lon="-0.18619">
        <ele>4</ele>
        <time>2023-10-11T15:42:02Z</time>
      </trkpt>
      <trkpt lat="49.27618" lon="-0.18611">
        <ele>4</ele>
        <time>2023-10-11T15:42:03Z</time>
      </trkpt>
      <trkpt lat="49.27627" lon="-0.18603">
        <ele>4</ele>
        <time>2023-10-11T15:42:04Z</time>
      </trkpt>
      <trkpt lat="49.27636" lon="-0.18595">
        <ele>4</ele>
        <time>2023-10-11T15:42:05Z</time>
      </trkpt>
      <trkpt lat="49.27645" lon="-0.18587">
        <ele>4</ele>
        <time>2023-10-11T15:42:06Z</time>
      </trkpt>
      <trkpt lat="49.27654" lon="-0.18579">
        <ele>4</ele>
        <time>2023-10-11T15:42:07Z</time>
      </trkpt>
      <trkpt lat="49.27662" lon="-0.18571">
        <ele>4</ele>
        <time>2023-10-11T15:42:08Z</time>
      </trkpt>
      <trkpt lat="49.27671" lon="-0.18562">
        <ele>4</ele>
        <time>2023-10-11T15:42:09Z</time>
      </trkpt>
      <trkpt lat="49.2768" lon="-0.18553">
        <ele>4.1</ele>
        <time>2023-10-11T15:42:10Z</time>
      </trkpt>
      <trkpt lat="49.27688" lon="-0.18545">
        <ele>4.1</ele>
        <time>2023-10-11T15:42:11Z</time>
      </trkpt>
      <trkpt lat="49.27696" lon="-0.18536">
        <ele>4.2</ele>
        <time>2023-10-11T15:42:12Z</time>
      </trkpt>
      <trkpt lat="49.27705" lon="-0.18527">
        <ele>4.2</ele>
        <time>2023-10-11T15:42:13Z</time>
      </trkpt>
      <trkpt lat="49.27713" lon="-0.18519">
        <ele>4.2</ele>
        <time>2023-10-11T15:42:14Z</time>
      </trkpt>
      <trkpt lat="49.27721" lon="-0.1851">
        <ele>4.2</ele>
        <time>2023-10-11T15:42:15Z</time>
      </trkpt>
      <trkpt lat="49.2773" lon="-0.18502">
        <ele>4.2</ele>
        <time>2023-10-11T15:42:16Z</time>
      </trkpt>
      <trkpt lat="49.27738" lon="-0.18493">
        <ele>4.2</ele>
        <time>2023-10-11T15:42:17Z</time>
      </trkpt>
      <trkpt lat="49.27747" lon="-0.18485">
        <ele>4.3</ele>
        <time>2023-10-11T15:42:18Z</time>
      </trkpt>
      <trkpt lat="49.27755" lon="-0.18477">
        <ele>4.3</ele>
        <time>2023-10-11T15:42:19Z</time>
      </trkpt>
      <trkpt lat="49.27764" lon="-0.18469">
        <ele>4.3</ele>
        <time>2023-10-11T15:42:20Z</time>
      </trkpt>
      <trkpt lat="49.27772" lon="-0.18461">
        <ele>4.2</ele>
        <time>2023-10-11T15:42:21Z</time>
      </trkpt>
      <trkpt lat="49.2778" lon="-0.18452">
        <ele>4.2</ele>
        <time>2023-10-11T15:42:22Z</time>
      </trkpt>
      <trkpt lat="49.27789" lon="-0.18443">
        <ele>4.2</ele>
        <time>2023-10-11T15:42:23Z</time>
      </trkpt>
      <trkpt lat="49.27798" lon="-0.18435">
        <ele>4.2</ele>
        <time>2023-10-11T15:42:24Z</time>
      </trkpt>
      <trkpt lat="49.27807" lon="-0.18426">
        <ele>4.2</ele>
        <time>2023-10-11T15:42:25Z</time>
      </trkpt>
      <trkpt lat="49.27816" lon="-0.18418">
        <ele>4.2</ele>
        <time>2023-10-11T15:42:26Z</time>
      </trkpt>
      <trkpt lat="49.27824" lon="-0.1841">
        <ele>4.3</ele>
        <time>2023-10-11T15:42:27Z</time>
      </trkpt>
      <trkpt lat="49.27833" lon="-0.18402">
        <ele>4.3</ele>
        <time>2023-10-11T15:42:28Z</time>
      </trkpt>
      <trkpt lat="49.27842" lon="-0.18394">
        <ele>4.3</ele>
        <time>2023-10-11T15:42:29Z</time>
      </trkpt>
      <trkpt lat="49.27851" lon="-0.18385">
        <ele>4.2</ele>
        <time>2023-10-11T15:42:30Z</time>
      </trkpt>
      <trkpt lat="49.27859" lon="-0.18377">
        <ele>4.2</ele>
        <time>2023-10-11T15:42:31Z</time>
      </trkpt>
      <trkpt lat="49.27868" lon="-0.18369">
        <ele>4.2</ele>
        <time>2023-10-11T15:42:32Z</time>
      </trkpt>
      <trkpt lat="49.27876" lon="-0.1836">
        <ele>4.2</ele>
        <time>2023-10-11T15:42:33Z</time>
      </trkpt>
      <trkpt lat="49.27885" lon="-0.18352">
        <ele>4.1</ele>
        <time>2023-10-11T15:42:34Z</time>
      </trkpt>
      <trkpt lat="49.27893" lon="-0.18344">
        <ele>4.1</ele>
        <time>2023-10-11T15:42:35Z</time>
      </trkpt>
      <trkpt lat="49.27902" lon="-0.18335">
        <ele>4.1</ele>
        <time>2023-10-11T15:42:36Z</time>
      </trkpt>
      <trkpt lat="49.2791" lon="-0.18327">
        <ele>4.1</ele>
        <time>2023-10-11T15:42:37Z</time>
      </trkpt>
      <trkpt lat="49.27919" lon="-0.18319">
        <ele>4.1</ele>
        <time>2023-10-11T15:42:38Z</time>
      </trkpt>
      <trkpt lat="49.27927" lon="-0.18311">
        <ele>4.2</ele>
        <time>2023-10-11T15:42:39Z</time>
      </trkpt>
      <trkpt lat="49.27935" lon="-0.18303">
        <ele>4.2</ele>
        <time>2023-10-11T15:42:40Z</time>
      </trkpt>
      <trkpt lat="49.27944" lon="-0.18295">
        <ele>4.3</ele>
        <time>2023-10-11T15:42:41Z</time>
      </trkpt>
      <trkpt lat="49.27952" lon="-0.18288">
        <ele>4.4</ele>
        <time>2023-10-11T15:42:42Z</time>
      </trkpt>
      <trkpt lat="49.2796" lon="-0.1828">
        <ele>4.4</ele>
        <time>2023-10-11T15:42:43Z</time>
      </trkpt>
      <trkpt lat="49.27968" lon="-0.18272">
        <ele>4.4</ele>
        <time>2023-10-11T15:42:44Z</time>
      </trkpt>
      <trkpt lat="49.27976" lon="-0.18264">
        <ele>4.4</ele>
        <time>2023-10-11T15:42:45Z</time>
      </trkpt>
      <trkpt lat="49.27985" lon="-0.18256">
        <ele>4.4</ele>
        <time>2023-10-11T15:42:46Z</time>
      </trkpt>
      <trkpt lat="49.27993" lon="-0.18248">
        <ele>4.4</ele>
        <time>2023-10-11T15:42:47Z</time>
      </trkpt>
      <trkpt lat="49.28001" lon="-0.1824">
        <ele>4.5</ele>
        <time>2023-10-11T15:42:48Z</time>
      </trkpt>
      <trkpt lat="49.28009" lon="-0.18232">
        <ele>4.5</ele>
        <time>2023-10-11T15:42:49Z</time>
      </trkpt>
      <trkpt lat="49.28017" lon="-0.18225">
        <ele>4.5</ele>
        <time>2023-10-11T15:42:50Z</time>
      </trkpt>
      <trkpt lat="49.28025" lon="-0.18217">
        <ele>4.5</ele>
        <time>2023-10-11T15:42:51Z</time>
      </trkpt>
      <trkpt lat="49.28033" lon="-0.1821">
        <ele>4.4</ele>
        <time>2023-10-11T15:42:52Z</time>
      </trkpt>
      <trkpt lat="49.28041" lon="-0.18201">
        <ele>4.4</ele>
        <time>2023-10-11T15:42:53Z</time>
      </trkpt>
      <trkpt lat="49.28049" lon="-0.18193">
        <ele>4.3</ele>
        <time>2023-10-11T15:42:54Z</time>
      </trkpt>
      <trkpt lat="49.28057" lon="-0.18185">
        <ele>4.3</ele>
        <time>2023-10-11T15:42:55Z</time>
      </trkpt>
      <trkpt lat="49.28066" lon="-0.18177">
        <ele>4.2</ele>
        <time>2023-10-11T15:42:56Z</time>
      </trkpt>
      <trkpt lat="49.28074" lon="-0.18169">
        <ele>4.1</ele>
        <time>2023-10-11T15:42:57Z</time>
      </trkpt>
      <trkpt lat="49.28082" lon="-0.18162">
        <ele>4.1</ele>
        <time>2023-10-11T15:42:58Z</time>
      </trkpt>
      <trkpt lat="49.2809" lon="-0.18154">
        <ele>4</ele>
        <time>2023-10-11T15:42:59Z</time>
      </trkpt>
      <trkpt lat="49.28099" lon="-0.18146">
        <ele>4</ele>
        <time>2023-10-11T15:43:00Z</time>
      </trkpt>
      <trkpt lat="49.28107" lon="-0.18138">
        <ele>4</ele>
        <time>2023-10-11T15:43:01Z</time>
      </trkpt>
      <trkpt lat="49.28116" lon="-0.18131">
        <ele>4</ele>
        <time>2023-10-11T15:43:02Z</time>
      </trkpt>
      <trkpt lat="49.28124" lon="-0.18123">
        <ele>3.9</ele>
        <time>2023-10-11T15:43:03Z</time>
      </trkpt>
      <trkpt lat="49.28132" lon="-0.18115">
        <ele>3.9</ele>
        <time>2023-10-11T15:43:04Z</time>
      </trkpt>
      <trkpt lat="49.2814" lon="-0.18107">
        <ele>3.9</ele>
        <time>2023-10-11T15:43:05Z</time>
      </trkpt>
      <trkpt lat="49.28149" lon="-0.18099">
        <ele>3.8</ele>
        <time>2023-10-11T15:43:06Z</time>
      </trkpt>
      <trkpt lat="49.28157" lon="-0.18091">
        <ele>3.8</ele>
        <time>2023-10-11T15:43:07Z</time>
      </trkpt>
      <trkpt lat="49.28165" lon="-0.18082">
        <ele>3.8</ele>
        <time>2023-10-11T15:43:08Z</time>
      </trkpt>
      <trkpt lat="49.28173" lon="-0.18075">
        <ele>3.8</ele>
        <time>2023-10-11T15:43:09Z</time>
      </trkpt>
      <trkpt lat="49.28181" lon="-0.18067">
        <ele>3.8</ele>
        <time>2023-10-11T15:43:10Z</time>
      </trkpt>
      <trkpt lat="49.28189" lon="-0.18059">
        <ele>3.8</ele>
        <time>2023-10-11T15:43:11Z</time>
      </trkpt>
      <trkpt lat="49.28197" lon="-0.18051">
        <ele>3.8</ele>
        <time>2023-10-11T15:43:12Z</time>
      </trkpt>
      <trkpt lat="49.28205" lon="-0.18043">
        <ele>3.8</ele>
        <time>2023-10-11T15:43:13Z</time>
      </trkpt>
      <trkpt lat="49.28213" lon="-0.18036">
        <ele>3.8</ele>
        <time>2023-10-11T15:43:14Z</time>
      </trkpt>
      <trkpt lat="49.28221" lon="-0.18028">
        <ele>3.7</ele>
        <time>2023-10-11T15:43:15Z</time>
      </trkpt>
      <trkpt lat="49.28229" lon="-0.1802">
        <ele>3.7</ele>
        <time>2023-10-11T15:43:16Z</time>
      </trkpt>
      <trkpt lat="49.28238" lon="-0.18012">
        <ele>3.7</ele>
        <time>2023-10-11T15:43:17Z</time>
      </trkpt>
      <trkpt lat="49.28246" lon="-0.18004">
        <ele>3.6</ele>
        <time>2023-10-11T15:43:18Z</time>
      </trkpt>
      <trkpt lat="49.28254" lon="-0.17996">
        <ele>3.7</ele>
        <time>2023-10-11T15:43:19Z</time>
      </trkpt>
      <trkpt lat="49.28262" lon="-0.17988">
        <ele>3.7</ele>
        <time>2023-10-11T15:43:20Z</time>
      </trkpt>
      <trkpt lat="49.28271" lon="-0.1798">
        <ele>3.7</ele>
        <time>2023-10-11T15:43:21Z</time>
      </trkpt>
      <trkpt lat="49.28279" lon="-0.17972">
        <ele>3.7</ele>
        <time>2023-10-11T15:43:22Z</time>
      </trkpt>
      <trkpt lat="49.28288" lon="-0.17964">
        <ele>3.7</ele>
        <time>2023-10-11T15:43:23Z</time>
      </trkpt>
      <trkpt lat="49.28296" lon="-0.17956">
        <ele>3.8</ele>
        <time>2023-10-11T15:43:24Z</time>
      </trkpt>
      <trkpt lat="49.28305" lon="-0.17948">
        <ele>3.8</ele>
        <time>2023-10-11T15:43:25Z</time>
      </trkpt>
      <trkpt lat="49.28314" lon="-0.1794">
        <ele>3.8</ele>
        <time>2023-10-11T15:43:26Z</time>
      </trkpt>
      <trkpt lat="49.28323" lon="-0.17932">
        <ele>3.8</ele>
        <time>2023-10-11T15:43:27Z</time>
      </trkpt>
      <trkpt lat="49.28332" lon="-0.17924">
        <ele>3.8</ele>
        <time>2023-10-11T15:43:28Z</time>
      </trkpt>
      <trkpt lat="49.2834" lon="-0.17915">
        <ele>3.7</ele>
        <time>2023-10-11T15:43:29Z</time>
      </trkpt>
      <trkpt lat="49.28349" lon="-0.17907">
        <ele>3.7</ele>
        <time>2023-10-11T15:43:30Z</time>
      </trkpt>
      <trkpt lat="49.28358" lon="-0.17899">
        <ele>3.7</ele>
        <time>2023-10-11T15:43:31Z</time>
      </trkpt>
      <trkpt lat="49.28367" lon="-0.1789">
        <ele>3.7</ele>
        <time>2023-10-11T15:43:32Z</time>
      </trkpt>
      <trkpt lat="49.28375" lon="-0.17882">
        <ele>3.8</ele>
        <time>2023-10-11T15:43:33Z</time>
      </trkpt>
      <trkpt lat="49.28384" lon="-0.17874">
        <ele>3.8</ele>
        <time>2023-10-11T15:43:34Z</time>
      </trkpt>
      <trkpt lat="49.28392" lon="-0.17866">
        <ele>3.9</ele>
        <time>2023-10-11T15:43:35Z</time>
      </trkpt>
      <trkpt lat="49.28401" lon="-0.17857">
        <ele>4</ele>
        <time>2023-10-11T15:43:36Z</time>
      </trkpt>
      <trkpt lat="49.28409" lon="-0.17849">
        <ele>4</ele>
        <time>2023-10-11T15:43:37Z</time>
      </trkpt>
      <trkpt lat="49.28418" lon="-0.17841">
        <ele>4.1</ele>
        <time>2023-10-11T15:43:38Z</time>
      </trkpt>
      <trkpt lat="49.28426" lon="-0.17833">
        <ele>4.2</ele>
        <time>2023-10-11T15:43:39Z</time>
      </trkpt>
      <trkpt lat="49.28435" lon="-0.17825">
        <ele>4.3</ele>
        <time>2023-10-11T15:43:40Z</time>
      </trkpt>
      <trkpt lat="49.28443" lon="-0.17817">
        <ele>4.5</ele>
        <time>2023-10-11T15:43:41Z</time>
      </trkpt>
      <trkpt lat="49.28451" lon="-0.17809">
        <ele>4.8</ele>
        <time>2023-10-11T15:43:42Z</time>
      </trkpt>
      <trkpt lat="49.28459" lon="-0.17803">
        <ele>4.9</ele>
        <time>2023-10-11T15:43:43Z</time>
      </trkpt>
      <trkpt lat="49.28467" lon="-0.17796">
        <ele>5.1</ele>
        <time>2023-10-11T15:43:44Z</time>
      </trkpt>
      <trkpt lat="49.28473" lon="-0.17788">
        <ele>5.3</ele>
        <time>2023-10-11T15:43:45Z</time>
      </trkpt>
      <trkpt lat="49.28478" lon="-0.17777">
        <ele>5.2</ele>
        <time>2023-10-11T15:43:46Z</time>
      </trkpt>
      <trkpt lat="49.2848" lon="-0.17766">
        <ele>5.2</ele>
        <time>2023-10-11T15:43:47Z</time>
      </trkpt>
      <trkpt lat="49.28482" lon="-0.17753">
        <ele>5.2</ele>
        <time>2023-10-11T15:43:48Z</time>
      </trkpt>
      <trkpt lat="49.28483" lon="-0.17742">
        <ele>5.2</ele>
        <time>2023-10-11T15:43:49Z</time>
      </trkpt>
      <trkpt lat="49.28484" lon="-0.17731">
        <ele>5.2</ele>
        <time>2023-10-11T15:43:50Z</time>
      </trkpt>
      <trkpt lat="49.28486" lon="-0.1772">
        <ele>5.2</ele>
        <time>2023-10-11T15:43:51Z</time>
      </trkpt>
      <trkpt lat="49.28487" lon="-0.17709">
        <ele>5.2</ele>
        <time>2023-10-11T15:43:52Z</time>
      </trkpt>
      <trkpt lat="49.28488" lon="-0.17698">
        <ele>5.2</ele>
        <time>2023-10-11T15:43:53Z</time>
      </trkpt>
      <trkpt lat="49.2849" lon="-0.17687">
        <ele>5.2</ele>
        <time>2023-10-11T15:43:54Z</time>
      </trkpt>
      <trkpt lat="49.28491" lon="-0.17676">
        <ele>5.2</ele>
        <time>2023-10-11T15:43:55Z</time>
      </trkpt>
      <trkpt lat="49.28492" lon="-0.17666">
        <ele>5.2</ele>
        <time>2023-10-11T15:43:56Z</time>
      </trkpt>
      <trkpt lat="49.28493" lon="-0.17655">
        <ele>5.3</ele>
        <time>2023-10-11T15:43:57Z</time>
      </trkpt>
      <trkpt lat="49.28494" lon="-0.17644">
        <ele>5.3</ele>
        <time>2023-10-11T15:43:58Z</time>
      </trkpt>
      <trkpt lat="49.28494" lon="-0.17632">
        <ele>5.3</ele>
        <time>2023-10-11T15:43:59Z</time>
      </trkpt>
      <trkpt lat="49.28493" lon="-0.17621">
        <ele>5.3</ele>
        <time>2023-10-11T15:44:00Z</time>
      </trkpt>
      <trkpt lat="49.28493" lon="-0.17609">
        <ele>5.3</ele>
        <time>2023-10-11T15:44:01Z</time>
      </trkpt>
      <trkpt lat="49.28492" lon="-0.17597">
        <ele>5.4</ele>
        <time>2023-10-11T15:44:02Z</time>
      </trkpt>
      <trkpt lat="49.28491" lon="-0.17586">
        <ele>5.4</ele>
        <time>2023-10-11T15:44:03Z</time>
      </trkpt>
      <trkpt lat="49.2849" lon="-0.17574">
        <ele>5.4</ele>
        <time>2023-10-11T15:44:04Z</time>
      </trkpt>
      <trkpt lat="49.28489" lon="-0.17563">
        <ele>5.3</ele>
        <time>2023-10-11T15:44:05Z</time>
      </trkpt>
      <trkpt lat="49.28487" lon="-0.17551">
        <ele>5.3</ele>
        <time>2023-10-11T15:44:06Z</time>
      </trkpt>
      <trkpt lat="49.28486" lon="-0.1754">
        <ele>5.2</ele>
        <time>2023-10-11T15:44:07Z</time>
      </trkpt>
      <trkpt lat="49.28485" lon="-0.17529">
        <ele>5.2</ele>
        <time>2023-10-11T15:44:08Z</time>
      </trkpt>
      <trkpt lat="49.28484" lon="-0.17518">
        <ele>5.2</ele>
        <time>2023-10-11T15:44:09Z</time>
      </trkpt>
      <trkpt lat="49.28482" lon="-0.17506">
        <ele>5.1</ele>
        <time>2023-10-11T15:44:10Z</time>
      </trkpt>
      <trkpt lat="49.28481" lon="-0.17495">
        <ele>5.1</ele>
        <time>2023-10-11T15:44:11Z</time>
      </trkpt>
      <trkpt lat="49.28479" lon="-0.17484">
        <ele>5.1</ele>
        <time>2023-10-11T15:44:12Z</time>
      </trkpt>
      <trkpt lat="49.28478" lon="-0.17473">
        <ele>5.1</ele>
        <time>2023-10-11T15:44:13Z</time>
      </trkpt>
      <trkpt lat="49.28477" lon="-0.17463">
        <ele>5.1</ele>
        <time>2023-10-11T15:44:14Z</time>
      </trkpt>
      <trkpt lat="49.28476" lon="-0.17452">
        <ele>5</ele>
        <time>2023-10-11T15:44:15Z</time>
      </trkpt>
      <trkpt lat="49.28474" lon="-0.17441">
        <ele>5</ele>
        <time>2023-10-11T15:44:16Z</time>
      </trkpt>
      <trkpt lat="49.28473" lon="-0.17429">
        <ele>4.9</ele>
        <time>2023-10-11T15:44:17Z</time>
      </trkpt>
      <trkpt lat="49.28472" lon="-0.17418">
        <ele>4.9</ele>
        <time>2023-10-11T15:44:18Z</time>
      </trkpt>
      <trkpt lat="49.2847" lon="-0.17407">
        <ele>4.9</ele>
        <time>2023-10-11T15:44:19Z</time>
      </trkpt>
      <trkpt lat="49.28468" lon="-0.17395">
        <ele>4.9</ele>
        <time>2023-10-11T15:44:20Z</time>
      </trkpt>
      <trkpt lat="49.28467" lon="-0.17384">
        <ele>4.9</ele>
        <time>2023-10-11T15:44:21Z</time>
      </trkpt>
      <trkpt lat="49.28465" lon="-0.17372">
        <ele>4.9</ele>
        <time>2023-10-11T15:44:22Z</time>
      </trkpt>
      <trkpt lat="49.28464" lon="-0.1736">
        <ele>4.8</ele>
        <time>2023-10-11T15:44:23Z</time>
      </trkpt>
      <trkpt lat="49.28463" lon="-0.17348">
        <ele>4.8</ele>
        <time>2023-10-11T15:44:24Z</time>
      </trkpt>
      <trkpt lat="49.28461" lon="-0.17336">
        <ele>4.8</ele>
        <time>2023-10-11T15:44:25Z</time>
      </trkpt>
      <trkpt lat="49.2846" lon="-0.17324">
        <ele>4.8</ele>
        <time>2023-10-11T15:44:26Z</time>
      </trkpt>
      <trkpt lat="49.28458" lon="-0.17313">
        <ele>4.8</ele>
        <time>2023-10-11T15:44:27Z</time>
      </trkpt>
      <trkpt lat="49.28457" lon="-0.17301">
        <ele>4.8</ele>
        <time>2023-10-11T15:44:28Z</time>
      </trkpt>
      <trkpt lat="49.28456" lon="-0.1729">
        <ele>4.8</ele>
        <time>2023-10-11T15:44:29Z</time>
      </trkpt>
      <trkpt lat="49.28454" lon="-0.17278">
        <ele>4.8</ele>
        <time>2023-10-11T15:44:30Z</time>
      </trkpt>
      <trkpt lat="49.28453" lon="-0.17266">
        <ele>4.8</ele>
        <time>2023-10-11T15:44:31Z</time>
      </trkpt>
      <trkpt lat="49.28451" lon="-0.17254">
        <ele>4.8</ele>
        <time>2023-10-11T15:44:32Z</time>
      </trkpt>
      <trkpt lat="49.2845" lon="-0.17242">
        <ele>4.8</ele>
        <time>2023-10-11T15:44:33Z</time>
      </trkpt>
      <trkpt lat="49.28448" lon="-0.17229">
        <ele>4.7</ele>
        <time>2023-10-11T15:44:34Z</time>
      </trkpt>
      <trkpt lat="49.28447" lon="-0.17217">
        <ele>4.7</ele>
        <time>2023-10-11T15:44:35Z</time>
      </trkpt>
      <trkpt lat="49.28445" lon="-0.17205">
        <ele>4.7</ele>
        <time>2023-10-11T15:44:36Z</time>
      </trkpt>
      <trkpt lat="49.28444" lon="-0.17192">
        <ele>4.7</ele>
        <time>2023-10-11T15:44:37Z</time>
      </trkpt>
      <trkpt lat="49.28443" lon="-0.1718">
        <ele>4.7</ele>
        <time>2023-10-11T15:44:38Z</time>
      </trkpt>
      <trkpt lat="49.28441" lon="-0.17168">
        <ele>4.7</ele>
        <time>2023-10-11T15:44:39Z</time>
      </trkpt>
      <trkpt lat="49.2844" lon="-0.17155">
        <ele>4.7</ele>
        <time>2023-10-11T15:44:40Z</time>
      </trkpt>
      <trkpt lat="49.28439" lon="-0.17143">
        <ele>4.8</ele>
        <time>2023-10-11T15:44:41Z</time>
      </trkpt>
      <trkpt lat="49.28438" lon="-0.17131">
        <ele>4.8</ele>
        <time>2023-10-11T15:44:42Z</time>
      </trkpt>
      <trkpt lat="49.28437" lon="-0.17119">
        <ele>4.8</ele>
        <time>2023-10-11T15:44:43Z</time>
      </trkpt>
      <trkpt lat="49.28436" lon="-0.17107">
        <ele>4.8</ele>
        <time>2023-10-11T15:44:44Z</time>
      </trkpt>
      <trkpt lat="49.28435" lon="-0.17096">
        <ele>4.8</ele>
        <time>2023-10-11T15:44:45Z</time>
      </trkpt>
      <trkpt lat="49.28435" lon="-0.17084">
        <ele>4.7</ele>
        <time>2023-10-11T15:44:46Z</time>
      </trkpt>
      <trkpt lat="49.28434" lon="-0.17073">
        <ele>4.7</ele>
        <time>2023-10-11T15:44:47Z</time>
      </trkpt>
      <trkpt lat="49.28433" lon="-0.17062">
        <ele>4.7</ele>
        <time>2023-10-11T15:44:48Z</time>
      </trkpt>
      <trkpt lat="49.28432" lon="-0.17051">
        <ele>4.7</ele>
        <time>2023-10-11T15:44:49Z</time>
      </trkpt>
      <trkpt lat="49.28432" lon="-0.1704">
        <ele>4.7</ele>
        <time>2023-10-11T15:44:50Z</time>
      </trkpt>
      <trkpt lat="49.28431" lon="-0.1703">
        <ele>4.7</ele>
        <time>2023-10-11T15:44:51Z</time>
      </trkpt>
      <trkpt lat="49.28431" lon="-0.17019">
        <ele>4.7</ele>
        <time>2023-10-11T15:44:52Z</time>
      </trkpt>
      <trkpt lat="49.2843" lon="-0.17009">
        <ele>4.7</ele>
        <time>2023-10-11T15:44:53Z</time>
      </trkpt>
      <trkpt lat="49.2843" lon="-0.16999">
        <ele>4.7</ele>
        <time>2023-10-11T15:44:54Z</time>
      </trkpt>
      <trkpt lat="49.2843" lon="-0.16989">
        <ele>4.7</ele>
        <time>2023-10-11T15:44:55Z</time>
      </trkpt>
      <trkpt lat="49.2843" lon="-0.16979">
        <ele>4.8</ele>
        <time>2023-10-11T15:44:56Z</time>
      </trkpt>
      <trkpt lat="49.2843" lon="-0.16969">
        <ele>4.8</ele>
        <time>2023-10-11T15:44:57Z</time>
      </trkpt>
      <trkpt lat="49.28431" lon="-0.16958">
        <ele>4.8</ele>
        <time>2023-10-11T15:44:58Z</time>
      </trkpt>
      <trkpt lat="49.28432" lon="-0.16948">
        <ele>4.8</ele>
        <time>2023-10-11T15:44:59Z</time>
      </trkpt>
      <trkpt lat="49.28433" lon="-0.16938">
        <ele>4.9</ele>
        <time>2023-10-11T15:45:00Z</time>
      </trkpt>
      <trkpt lat="49.28434" lon="-0.16928">
        <ele>4.9</ele>
        <time>2023-10-11T15:45:01Z</time>
      </trkpt>
      <trkpt lat="49.28435" lon="-0.16917">
        <ele>4.9</ele>
        <time>2023-10-11T15:45:02Z</time>
      </trkpt>
      <trkpt lat="49.28436" lon="-0.16906">
        <ele>4.9</ele>
        <time>2023-10-11T15:45:03Z</time>
      </trkpt>
      <trkpt lat="49.28438" lon="-0.16895">
        <ele>4.9</ele>
        <time>2023-10-11T15:45:04Z</time>
      </trkpt>
      <trkpt lat="49.28439" lon="-0.16884">
        <ele>4.9</ele>
        <time>2023-10-11T15:45:05Z</time>
      </trkpt>
      <trkpt lat="49.2844" lon="-0.16872">
        <ele>4.9</ele>
        <time>2023-10-11T15:45:06Z</time>
      </trkpt>
      <trkpt lat="49.28441" lon="-0.1686">
        <ele>4.9</ele>
        <time>2023-10-11T15:45:07Z</time>
      </trkpt>
      <trkpt lat="49.28442" lon="-0.16848">
        <ele>4.9</ele>
        <time>2023-10-11T15:45:08Z</time>
      </trkpt>
      <trkpt lat="49.28444" lon="-0.16837">
        <ele>4.9</ele>
        <time>2023-10-11T15:45:09Z</time>
      </trkpt>
      <trkpt lat="49.28445" lon="-0.16825">
        <ele>4.9</ele>
        <time>2023-10-11T15:45:10Z</time>
      </trkpt>
      <trkpt lat="49.28446" lon="-0.16814">
        <ele>5</ele>
        <time>2023-10-11T15:45:11Z</time>
      </trkpt>
      <trkpt lat="49.28447" lon="-0.16802">
        <ele>5</ele>
        <time>2023-10-11T15:45:12Z</time>
      </trkpt>
      <trkpt lat="49.28448" lon="-0.16789">
        <ele>5</ele>
        <time>2023-10-11T15:45:13Z</time>
      </trkpt>
      <trkpt lat="49.28449" lon="-0.16777">
        <ele>5.1</ele>
        <time>2023-10-11T15:45:14Z</time>
      </trkpt>
      <trkpt lat="49.2845" lon="-0.16765">
        <ele>5.1</ele>
        <time>2023-10-11T15:45:15Z</time>
      </trkpt>
      <trkpt lat="49.2845" lon="-0.16753">
        <ele>5.1</ele>
        <time>2023-10-11T15:45:16Z</time>
      </trkpt>
      <trkpt lat="49.28451" lon="-0.16741">
        <ele>5.2</ele>
        <time>2023-10-11T15:45:17Z</time>
      </trkpt>
      <trkpt lat="49.2845" lon="-0.16729">
        <ele>5.2</ele>
        <time>2023-10-11T15:45:18Z</time>
      </trkpt>
      <trkpt lat="49.2845" lon="-0.16716">
        <ele>5.2</ele>
        <time>2023-10-11T15:45:19Z</time>
      </trkpt>
      <trkpt lat="49.28449" lon="-0.16704">
        <ele>5.2</ele>
        <time>2023-10-11T15:45:20Z</time>
      </trkpt>
      <trkpt lat="49.28449" lon="-0.16692">
        <ele>5.3</ele>
        <time>2023-10-11T15:45:21Z</time>
      </trkpt>
      <trkpt lat="49.28448" lon="-0.1668">
        <ele>5.3</ele>
        <time>2023-10-11T15:45:22Z</time>
      </trkpt>
      <trkpt lat="49.28447" lon="-0.16668">
        <ele>5.3</ele>
        <time>2023-10-11T15:45:23Z</time>
      </trkpt>
      <trkpt lat="49.28446" lon="-0.16656">
        <ele>5.3</ele>
        <time>2023-10-11T15:45:24Z</time>
      </trkpt>
      <trkpt lat="49.28445" lon="-0.16643">
        <ele>5.4</ele>
        <time>2023-10-11T15:45:25Z</time>
      </trkpt>
      <trkpt lat="49.28444" lon="-0.16631">
        <ele>5.3</ele>
        <time>2023-10-11T15:45:26Z</time>
      </trkpt>
      <trkpt lat="49.28444" lon="-0.16619">
        <ele>5.3</ele>
        <time>2023-10-11T15:45:27Z</time>
      </trkpt>
      <trkpt lat="49.28444" lon="-0.16607">
        <ele>5.3</ele>
        <time>2023-10-11T15:45:28Z</time>
      </trkpt>
      <trkpt lat="49.28444" lon="-0.16594">
        <ele>5.3</ele>
        <time>2023-10-11T15:45:29Z</time>
      </trkpt>
      <trkpt lat="49.28444" lon="-0.16581">
        <ele>5.3</ele>
        <time>2023-10-11T15:45:30Z</time>
      </trkpt>
      <trkpt lat="49.28444" lon="-0.16569">
        <ele>5.3</ele>
        <time>2023-10-11T15:45:31Z</time>
      </trkpt>
      <trkpt lat="49.28445" lon="-0.16556">
        <ele>5.3</ele>
        <time>2023-10-11T15:45:32Z</time>
      </trkpt>
      <trkpt lat="49.28445" lon="-0.16544">
        <ele>5.3</ele>
        <time>2023-10-11T15:45:33Z</time>
      </trkpt>
      <trkpt lat="49.28445" lon="-0.16531">
        <ele>5.3</ele>
        <time>2023-10-11T15:45:34Z</time>
      </trkpt>
      <trkpt lat="49.28446" lon="-0.16517">
        <ele>5.2</ele>
        <time>2023-10-11T15:45:35Z</time>
      </trkpt>
      <trkpt lat="49.28447" lon="-0.16504">
        <ele>5.2</ele>
        <time>2023-10-11T15:45:36Z</time>
      </trkpt>
      <trkpt lat="49.28448" lon="-0.16492">
        <ele>5.2</ele>
        <time>2023-10-11T15:45:37Z</time>
      </trkpt>
      <trkpt lat="49.28449" lon="-0.16479">
        <ele>5.2</ele>
        <time>2023-10-11T15:45:38Z</time>
      </trkpt>
      <trkpt lat="49.28449" lon="-0.16466">
        <ele>5.2</ele>
        <time>2023-10-11T15:45:39Z</time>
      </trkpt>
      <trkpt lat="49.2845" lon="-0.16454">
        <ele>5.2</ele>
        <time>2023-10-11T15:45:40Z</time>
      </trkpt>
      <trkpt lat="49.28451" lon="-0.16441">
        <ele>5.2</ele>
        <time>2023-10-11T15:45:41Z</time>
      </trkpt>
      <trkpt lat="49.28452" lon="-0.16429">
        <ele>5.2</ele>
        <time>2023-10-11T15:45:42Z</time>
      </trkpt>
      <trkpt lat="49.28453" lon="-0.16416">
        <ele>5.1</ele>
        <time>2023-10-11T15:45:43Z</time>
      </trkpt>
      <trkpt lat="49.28454" lon="-0.16403">
        <ele>5.1</ele>
        <time>2023-10-11T15:45:44Z</time>
      </trkpt>
      <trkpt lat="49.28455" lon="-0.1639">
        <ele>5.1</ele>
        <time>2023-10-11T15:45:45Z</time>
      </trkpt>
      <trkpt lat="49.28456" lon="-0.16376">
        <ele>5.1</ele>
        <time>2023-10-11T15:45:46Z</time>
      </trkpt>
      <trkpt lat="49.28457" lon="-0.16363">
        <ele>5.1</ele>
        <time>2023-10-11T15:45:47Z</time>
      </trkpt>
      <trkpt lat="49.28459" lon="-0.1635">
        <ele>5.1</ele>
        <time>2023-10-11T15:45:48Z</time>
      </trkpt>
      <trkpt lat="49.28461" lon="-0.16338">
        <ele>5</ele>
        <time>2023-10-11T15:45:49Z</time>
      </trkpt>
      <trkpt lat="49.28463" lon="-0.16324">
        <ele>5</ele>
        <time>2023-10-11T15:45:50Z</time>
      </trkpt>
      <trkpt lat="49.28464" lon="-0.16311">
        <ele>5</ele>
        <time>2023-10-11T15:45:51Z</time>
      </trkpt>
      <trkpt lat="49.28466" lon="-0.16298">
        <ele>5</ele>
        <time>2023-10-11T15:45:52Z</time>
      </trkpt>
      <trkpt lat="49.28468" lon="-0.16285">
        <ele>5</ele>
        <time>2023-10-11T15:45:53Z</time>
      </trkpt>
      <trkpt lat="49.2847" lon="-0.16272">
        <ele>5</ele>
        <time>2023-10-11T15:45:54Z</time>
      </trkpt>
      <trkpt lat="49.28472" lon="-0.16259">
        <ele>5</ele>
        <time>2023-10-11T15:45:55Z</time>
      </trkpt>
      <trkpt lat="49.28473" lon="-0.16246">
        <ele>4.9</ele>
        <time>2023-10-11T15:45:56Z</time>
      </trkpt>
      <trkpt lat="49.28474" lon="-0.16233">
        <ele>4.9</ele>
        <time>2023-10-11T15:45:57Z</time>
      </trkpt>
      <trkpt lat="49.28475" lon="-0.16219">
        <ele>4.9</ele>
        <time>2023-10-11T15:45:58Z</time>
      </trkpt>
      <trkpt lat="49.28475" lon="-0.16206">
        <ele>4.9</ele>
        <time>2023-10-11T15:45:59Z</time>
      </trkpt>
      <trkpt lat="49.28475" lon="-0.16193">
        <ele>4.9</ele>
        <time>2023-10-11T15:46:00Z</time>
      </trkpt>
      <trkpt lat="49.28475" lon="-0.1618">
        <ele>4.9</ele>
        <time>2023-10-11T15:46:01Z</time>
      </trkpt>
      <trkpt lat="49.28474" lon="-0.16167">
        <ele>4.9</ele>
        <time>2023-10-11T15:46:02Z</time>
      </trkpt>
      <trkpt lat="49.28473" lon="-0.16155">
        <ele>4.9</ele>
        <time>2023-10-11T15:46:03Z</time>
      </trkpt>
      <trkpt lat="49.28471" lon="-0.16142">
        <ele>4.9</ele>
        <time>2023-10-11T15:46:04Z</time>
      </trkpt>
      <trkpt lat="49.28469" lon="-0.16128">
        <ele>4.8</ele>
        <time>2023-10-11T15:46:05Z</time>
      </trkpt>
      <trkpt lat="49.28468" lon="-0.16115">
        <ele>4.8</ele>
        <time>2023-10-11T15:46:06Z</time>
      </trkpt>
      <trkpt lat="49.28468" lon="-0.16102">
        <ele>4.8</ele>
        <time>2023-10-11T15:46:07Z</time>
      </trkpt>
      <trkpt lat="49.28467" lon="-0.16089">
        <ele>4.8</ele>
        <time>2023-10-11T15:46:08Z</time>
      </trkpt>
      <trkpt lat="49.28466" lon="-0.16075">
        <ele>4.8</ele>
        <time>2023-10-11T15:46:09Z</time>
      </trkpt>
      <trkpt lat="49.28465" lon="-0.16062">
        <ele>4.8</ele>
        <time>2023-10-11T15:46:10Z</time>
      </trkpt>
      <trkpt lat="49.28464" lon="-0.16049">
        <ele>4.8</ele>
        <time>2023-10-11T15:46:11Z</time>
      </trkpt>
      <trkpt lat="49.28464" lon="-0.16036">
        <ele>4.8</ele>
        <time>2023-10-11T15:46:12Z</time>
      </trkpt>
      <trkpt lat="49.28464" lon="-0.16023">
        <ele>4.8</ele>
        <time>2023-10-11T15:46:13Z</time>
      </trkpt>
      <trkpt lat="49.28463" lon="-0.1601">
        <ele>4.8</ele>
        <time>2023-10-11T15:46:14Z</time>
      </trkpt>
      <trkpt lat="49.28462" lon="-0.15997">
        <ele>4.8</ele>
        <time>2023-10-11T15:46:15Z</time>
      </trkpt>
      <trkpt lat="49.28462" lon="-0.15983">
        <ele>4.8</ele>
        <time>2023-10-11T15:46:16Z</time>
      </trkpt>
      <trkpt lat="49.28461" lon="-0.1597">
        <ele>4.8</ele>
        <time>2023-10-11T15:46:17Z</time>
      </trkpt>
      <trkpt lat="49.2846" lon="-0.15956">
        <ele>4.8</ele>
        <time>2023-10-11T15:46:18Z</time>
      </trkpt>
      <trkpt lat="49.28459" lon="-0.15943">
        <ele>4.9</ele>
        <time>2023-10-11T15:46:19Z</time>
      </trkpt>
      <trkpt lat="49.28459" lon="-0.1593">
        <ele>4.9</ele>
        <time>2023-10-11T15:46:20Z</time>
      </trkpt>
      <trkpt lat="49.28458" lon="-0.15917">
        <ele>4.9</ele>
        <time>2023-10-11T15:46:21Z</time>
      </trkpt>
      <trkpt lat="49.28458" lon="-0.15904">
        <ele>4.9</ele>
        <time>2023-10-11T15:46:22Z</time>
      </trkpt>
      <trkpt lat="49.28457" lon="-0.15891">
        <ele>4.9</ele>
        <time>2023-10-11T15:46:23Z</time>
      </trkpt>
      <trkpt lat="49.28457" lon="-0.15878">
        <ele>4.9</ele>
        <time>2023-10-11T15:46:24Z</time>
      </trkpt>
      <trkpt lat="49.28457" lon="-0.15865">
        <ele>4.9</ele>
        <time>2023-10-11T15:46:25Z</time>
      </trkpt>
      <trkpt lat="49.28456" lon="-0.15852">
        <ele>4.9</ele>
        <time>2023-10-11T15:46:26Z</time>
      </trkpt>
      <trkpt lat="49.28455" lon="-0.15839">
        <ele>4.9</ele>
        <time>2023-10-11T15:46:27Z</time>
      </trkpt>
      <trkpt lat="49.28455" lon="-0.15826">
        <ele>4.9</ele>
        <time>2023-10-11T15:46:28Z</time>
      </trkpt>
      <trkpt lat="49.28454" lon="-0.15813">
        <ele>4.9</ele>
        <time>2023-10-11T15:46:29Z</time>
      </trkpt>
      <trkpt lat="49.28453" lon="-0.158">
        <ele>4.9</ele>
        <time>2023-10-11T15:46:30Z</time>
      </trkpt>
      <trkpt lat="49.28452" lon="-0.15787">
        <ele>4.9</ele>
        <time>2023-10-11T15:46:31Z</time>
      </trkpt>
      <trkpt lat="49.28451" lon="-0.15774">
        <ele>4.9</ele>
        <time>2023-10-11T15:46:32Z</time>
      </trkpt>
      <trkpt lat="49.2845" lon="-0.15761">
        <ele>4.9</ele>
        <time>2023-10-11T15:46:33Z</time>
      </trkpt>
      <trkpt lat="49.2845" lon="-0.15747">
        <ele>4.9</ele>
        <time>2023-10-11T15:46:34Z</time>
      </trkpt>
      <trkpt lat="49.28449" lon="-0.15734">
        <ele>4.9</ele>
        <time>2023-10-11T15:46:35Z</time>
      </trkpt>
      <trkpt lat="49.28449" lon="-0.1572">
        <ele>4.9</ele>
        <time>2023-10-11T15:46:36Z</time>
      </trkpt>
      <trkpt lat="49.28449" lon="-0.15707">
        <ele>4.9</ele>
        <time>2023-10-11T15:46:37Z</time>
      </trkpt>
      <trkpt lat="49.28448" lon="-0.15694">
        <ele>4.8</ele>
        <time>2023-10-11T15:46:38Z</time>
      </trkpt>
      <trkpt lat="49.28448" lon="-0.1568">
        <ele>4.8</ele>
        <time>2023-10-11T15:46:39Z</time>
      </trkpt>
      <trkpt lat="49.28447" lon="-0.15667">
        <ele>4.8</ele>
        <time>2023-10-11T15:46:40Z</time>
      </trkpt>
      <trkpt lat="49.28447" lon="-0.15653">
        <ele>4.8</ele>
        <time>2023-10-11T15:46:41Z</time>
      </trkpt>
      <trkpt lat="49.28446" lon="-0.15639">
        <ele>4.8</ele>
        <time>2023-10-11T15:46:42Z</time>
      </trkpt>
      <trkpt lat="49.28446" lon="-0.15626">
        <ele>4.7</ele>
        <time>2023-10-11T15:46:43Z</time>
      </trkpt>
      <trkpt lat="49.28445" lon="-0.15612">
        <ele>4.7</ele>
        <time>2023-10-11T15:46:44Z</time>
      </trkpt>
      <trkpt lat="49.28445" lon="-0.15599">
        <ele>4.7</ele>
        <time>2023-10-11T15:46:45Z</time>
      </trkpt>
      <trkpt lat="49.28445" lon="-0.15585">
        <ele>4.6</ele>
        <time>2023-10-11T15:46:46Z</time>
      </trkpt>
      <trkpt lat="49.28444" lon="-0.15572">
        <ele>4.6</ele>
        <time>2023-10-11T15:46:47Z</time>
      </trkpt>
      <trkpt lat="49.28444" lon="-0.15559">
        <ele>4.6</ele>
        <time>2023-10-11T15:46:48Z</time>
      </trkpt>
      <trkpt lat="49.28443" lon="-0.15545">
        <ele>4.6</ele>
        <time>2023-10-11T15:46:49Z</time>
      </trkpt>
      <trkpt lat="49.28443" lon="-0.15532">
        <ele>4.6</ele>
        <time>2023-10-11T15:46:50Z</time>
      </trkpt>
      <trkpt lat="49.28442" lon="-0.15519">
        <ele>4.6</ele>
        <time>2023-10-11T15:46:51Z</time>
      </trkpt>
      <trkpt lat="49.28442" lon="-0.15506">
        <ele>4.6</ele>
        <time>2023-10-11T15:46:52Z</time>
      </trkpt>
      <trkpt lat="49.28442" lon="-0.15493">
        <ele>4.6</ele>
        <time>2023-10-11T15:46:53Z</time>
      </trkpt>
      <trkpt lat="49.28441" lon="-0.15479">
        <ele>4.5</ele>
        <time>2023-10-11T15:46:54Z</time>
      </trkpt>
      <trkpt lat="49.2844" lon="-0.15466">
        <ele>4.5</ele>
        <time>2023-10-11T15:46:55Z</time>
      </trkpt>
      <trkpt lat="49.2844" lon="-0.15453">
        <ele>4.4</ele>
        <time>2023-10-11T15:46:56Z</time>
      </trkpt>
      <trkpt lat="49.28439" lon="-0.1544">
        <ele>4.4</ele>
        <time>2023-10-11T15:46:57Z</time>
      </trkpt>
      <trkpt lat="49.28439" lon="-0.15426">
        <ele>4.3</ele>
        <time>2023-10-11T15:46:58Z</time>
      </trkpt>
      <trkpt lat="49.28438" lon="-0.15413">
        <ele>4.3</ele>
        <time>2023-10-11T15:46:59Z</time>
      </trkpt>
      <trkpt lat="49.28438" lon="-0.154">
        <ele>4.3</ele>
        <time>2023-10-11T15:47:00Z</time>
      </trkpt>
      <trkpt lat="49.28438" lon="-0.15387">
        <ele>4.3</ele>
        <time>2023-10-11T15:47:01Z</time>
      </trkpt>
      <trkpt lat="49.28438" lon="-0.15373">
        <ele>4.3</ele>
        <time>2023-10-11T15:47:02Z</time>
      </trkpt>
      <trkpt lat="49.28437" lon="-0.1536">
        <ele>4.3</ele>
        <time>2023-10-11T15:47:03Z</time>
      </trkpt>
      <trkpt lat="49.28437" lon="-0.15346">
        <ele>4.2</ele>
        <time>2023-10-11T15:47:04Z</time>
      </trkpt>
      <trkpt lat="49.28437" lon="-0.15331">
        <ele>4.2</ele>
        <time>2023-10-11T15:47:05Z</time>
      </trkpt>
      <trkpt lat="49.28436" lon="-0.15316">
        <ele>4.3</ele>
        <time>2023-10-11T15:47:06Z</time>
      </trkpt>
      <trkpt lat="49.28436" lon="-0.15301">
        <ele>4.3</ele>
        <time>2023-10-11T15:47:07Z</time>
      </trkpt>
      <trkpt lat="49.28435" lon="-0.15286">
        <ele>4.3</ele>
        <time>2023-10-11T15:47:08Z</time>
      </trkpt>
      <trkpt lat="49.28435" lon="-0.15272">
        <ele>4.4</ele>
        <time>2023-10-11T15:47:09Z</time>
      </trkpt>
      <trkpt lat="49.28435" lon="-0.15258">
        <ele>4.4</ele>
        <time>2023-10-11T15:47:10Z</time>
      </trkpt>
      <trkpt lat="49.28434" lon="-0.15244">
        <ele>4.5</ele>
        <time>2023-10-11T15:47:11Z</time>
      </trkpt>
      <trkpt lat="49.28434" lon="-0.1523">
        <ele>4.5</ele>
        <time>2023-10-11T15:47:12Z</time>
      </trkpt>
      <trkpt lat="49.28434" lon="-0.15216">
        <ele>4.5</ele>
        <time>2023-10-11T15:47:13Z</time>
      </trkpt>
      <trkpt lat="49.28434" lon="-0.15202">
        <ele>4.6</ele>
        <time>2023-10-11T15:47:14Z</time>
      </trkpt>
      <trkpt lat="49.28433" lon="-0.15188">
        <ele>4.6</ele>
        <time>2023-10-11T15:47:15Z</time>
      </trkpt>
      <trkpt lat="49.28433" lon="-0.15174">
        <ele>4.6</ele>
        <time>2023-10-11T15:47:16Z</time>
      </trkpt>
      <trkpt lat="49.28433" lon="-0.1516">
        <ele>4.6</ele>
        <time>2023-10-11T15:47:17Z</time>
      </trkpt>
      <trkpt lat="49.28433" lon="-0.15147">
        <ele>4.6</ele>
        <time>2023-10-11T15:47:18Z</time>
      </trkpt>
      <trkpt lat="49.28433" lon="-0.15133">
        <ele>4.6</ele>
        <time>2023-10-11T15:47:19Z</time>
      </trkpt>
      <trkpt lat="49.28432" lon="-0.1512">
        <ele>4.6</ele>
        <time>2023-10-11T15:47:20Z</time>
      </trkpt>
      <trkpt lat="49.28432" lon="-0.15106">
        <ele>4.6</ele>
        <time>2023-10-11T15:47:21Z</time>
      </trkpt>
      <trkpt lat="49.28432" lon="-0.15091">
        <ele>4.6</ele>
        <time>2023-10-11T15:47:22Z</time>
      </trkpt>
      <trkpt lat="49.28433" lon="-0.15077">
        <ele>4.6</ele>
        <time>2023-10-11T15:47:23Z</time>
      </trkpt>
      <trkpt lat="49.28434" lon="-0.15064">
        <ele>4.5</ele>
        <time>2023-10-11T15:47:24Z</time>
      </trkpt>
      <trkpt lat="49.28435" lon="-0.1505">
        <ele>4.5</ele>
        <time>2023-10-11T15:47:25Z</time>
      </trkpt>
      <trkpt lat="49.28436" lon="-0.15036">
        <ele>4.5</ele>
        <time>2023-10-11T15:47:26Z</time>
      </trkpt>
      <trkpt lat="49.28436" lon="-0.15022">
        <ele>4.5</ele>
        <time>2023-10-11T15:47:27Z</time>
      </trkpt>
      <trkpt lat="49.28437" lon="-0.15008">
        <ele>4.5</ele>
        <time>2023-10-11T15:47:28Z</time>
      </trkpt>
      <trkpt lat="49.28439" lon="-0.14994">
        <ele>4.5</ele>
        <time>2023-10-11T15:47:29Z</time>
      </trkpt>
      <trkpt lat="49.28439" lon="-0.14981">
        <ele>4.5</ele>
        <time>2023-10-11T15:47:30Z</time>
      </trkpt>
      <trkpt lat="49.2844" lon="-0.14967">
        <ele>4.4</ele>
        <time>2023-10-11T15:47:31Z</time>
      </trkpt>
      <trkpt lat="49.28441" lon="-0.14954">
        <ele>4.4</ele>
        <time>2023-10-11T15:47:32Z</time>
      </trkpt>
      <trkpt lat="49.28441" lon="-0.1494">
        <ele>4.4</ele>
        <time>2023-10-11T15:47:33Z</time>
      </trkpt>
      <trkpt lat="49.28442" lon="-0.14926">
        <ele>4.4</ele>
        <time>2023-10-11T15:47:34Z</time>
      </trkpt>
      <trkpt lat="49.28443" lon="-0.14912">
        <ele>4.4</ele>
        <time>2023-10-11T15:47:35Z</time>
      </trkpt>
      <trkpt lat="49.28444" lon="-0.14898">
        <ele>4.4</ele>
        <time>2023-10-11T15:47:36Z</time>
      </trkpt>
      <trkpt lat="49.28445" lon="-0.14884">
        <ele>4.4</ele>
        <time>2023-10-11T15:47:37Z</time>
      </trkpt>
      <trkpt lat="49.28446" lon="-0.1487">
        <ele>4.4</ele>
        <time>2023-10-11T15:47:38Z</time>
      </trkpt>
      <trkpt lat="49.28447" lon="-0.14856">
        <ele>4.4</ele>
        <time>2023-10-11T15:47:39Z</time>
      </trkpt>
      <trkpt lat="49.28447" lon="-0.14842">
        <ele>4.4</ele>
        <time>2023-10-11T15:47:40Z</time>
      </trkpt>
      <trkpt lat="49.28448" lon="-0.14827">
        <ele>4.4</ele>
        <time>2023-10-11T15:47:41Z</time>
      </trkpt>
      <trkpt lat="49.28449" lon="-0.14813">
        <ele>4.5</ele>
        <time>2023-10-11T15:47:42Z</time>
      </trkpt>
      <trkpt lat="49.28451" lon="-0.14799">
        <ele>4.5</ele>
        <time>2023-10-11T15:47:43Z</time>
      </trkpt>
      <trkpt lat="49.28451" lon="-0.14785">
        <ele>4.5</ele>
        <time>2023-10-11T15:47:44Z</time>
      </trkpt>
      <trkpt lat="49.28452" lon="-0.14772">
        <ele>4.5</ele>
        <time>2023-10-11T15:47:45Z</time>
      </trkpt>
      <trkpt lat="49.28453" lon="-0.14758">
        <ele>4.5</ele>
        <time>2023-10-11T15:47:46Z</time>
      </trkpt>
      <trkpt lat="49.28454" lon="-0.14745">
        <ele>4.5</ele>
        <time>2023-10-11T15:47:47Z</time>
      </trkpt>
      <trkpt lat="49.28455" lon="-0.14731">
        <ele>4.5</ele>
        <time>2023-10-11T15:47:48Z</time>
      </trkpt>
      <trkpt lat="49.28456" lon="-0.14717">
        <ele>4.5</ele>
        <time>2023-10-11T15:47:49Z</time>
      </trkpt>
      <trkpt lat="49.28457" lon="-0.14703">
        <ele>4.5</ele>
        <time>2023-10-11T15:47:50Z</time>
      </trkpt>
      <trkpt lat="49.28458" lon="-0.1469">
        <ele>4.5</ele>
        <time>2023-10-11T15:47:51Z</time>
      </trkpt>
      <trkpt lat="49.28459" lon="-0.14676">
        <ele>4.5</ele>
        <time>2023-10-11T15:47:52Z</time>
      </trkpt>
      <trkpt lat="49.2846" lon="-0.14663">
        <ele>4.5</ele>
        <time>2023-10-11T15:47:53Z</time>
      </trkpt>
      <trkpt lat="49.28461" lon="-0.14649">
        <ele>4.5</ele>
        <time>2023-10-11T15:47:54Z</time>
      </trkpt>
      <trkpt lat="49.28461" lon="-0.14635">
        <ele>4.5</ele>
        <time>2023-10-11T15:47:55Z</time>
      </trkpt>
      <trkpt lat="49.28462" lon="-0.14622">
        <ele>4.5</ele>
        <time>2023-10-11T15:47:56Z</time>
      </trkpt>
      <trkpt lat="49.28463" lon="-0.14608">
        <ele>4.5</ele>
        <time>2023-10-11T15:47:57Z</time>
      </trkpt>
      <trkpt lat="49.28464" lon="-0.14594">
        <ele>4.5</ele>
        <time>2023-10-11T15:47:58Z</time>
      </trkpt>
      <trkpt lat="49.28465" lon="-0.14579">
        <ele>4.5</ele>
        <time>2023-10-11T15:47:59Z</time>
      </trkpt>
      <trkpt lat="49.28466" lon="-0.14565">
        <ele>4.5</ele>
        <time>2023-10-11T15:48:00Z</time>
      </trkpt>
      <trkpt lat="49.28468" lon="-0.14552">
        <ele>4.6</ele>
        <time>2023-10-11T15:48:01Z</time>
      </trkpt>
      <trkpt lat="49.28469" lon="-0.14538">
        <ele>4.6</ele>
        <time>2023-10-11T15:48:02Z</time>
      </trkpt>
      <trkpt lat="49.28471" lon="-0.14525">
        <ele>4.6</ele>
        <time>2023-10-11T15:48:03Z</time>
      </trkpt>
      <trkpt lat="49.28474" lon="-0.14512">
        <ele>4.6</ele>
        <time>2023-10-11T15:48:04Z</time>
      </trkpt>
      <trkpt lat="49.28477" lon="-0.14498">
        <ele>4.6</ele>
        <time>2023-10-11T15:48:05Z</time>
      </trkpt>
      <trkpt lat="49.2848" lon="-0.14485">
        <ele>4.6</ele>
        <time>2023-10-11T15:48:06Z</time>
      </trkpt>
      <trkpt lat="49.28483" lon="-0.14472">
        <ele>4.6</ele>
        <time>2023-10-11T15:48:07Z</time>
      </trkpt>
      <trkpt lat="49.28485" lon="-0.14459">
        <ele>4.6</ele>
        <time>2023-10-11T15:48:08Z</time>
      </trkpt>
      <trkpt lat="49.28488" lon="-0.14446">
        <ele>4.7</ele>
        <time>2023-10-11T15:48:09Z</time>
      </trkpt>
      <trkpt lat="49.28492" lon="-0.14433">
        <ele>4.7</ele>
        <time>2023-10-11T15:48:10Z</time>
      </trkpt>
      <trkpt lat="49.28494" lon="-0.14419">
        <ele>4.7</ele>
        <time>2023-10-11T15:48:11Z</time>
      </trkpt>
      <trkpt lat="49.28498" lon="-0.14406">
        <ele>4.7</ele>
        <time>2023-10-11T15:48:12Z</time>
      </trkpt>
      <trkpt lat="49.285" lon="-0.14393">
        <ele>4.7</ele>
        <time>2023-10-11T15:48:13Z</time>
      </trkpt>
      <trkpt lat="49.28503" lon="-0.1438">
        <ele>4.8</ele>
        <time>2023-10-11T15:48:14Z</time>
      </trkpt>
      <trkpt lat="49.28505" lon="-0.14366">
        <ele>4.8</ele>
        <time>2023-10-11T15:48:15Z</time>
      </trkpt>
      <trkpt lat="49.28507" lon="-0.14353">
        <ele>4.8</ele>
        <time>2023-10-11T15:48:16Z</time>
      </trkpt>
      <trkpt lat="49.28509" lon="-0.14339">
        <ele>4.8</ele>
        <time>2023-10-11T15:48:17Z</time>
      </trkpt>
      <trkpt lat="49.28511" lon="-0.14325">
        <ele>4.8</ele>
        <time>2023-10-11T15:48:18Z</time>
      </trkpt>
      <trkpt lat="49.28513" lon="-0.14311">
        <ele>4.8</ele>
        <time>2023-10-11T15:48:19Z</time>
      </trkpt>
      <trkpt lat="49.28514" lon="-0.14297">
        <ele>4.8</ele>
        <time>2023-10-11T15:48:20Z</time>
      </trkpt>
      <trkpt lat="49.28516" lon="-0.14283">
        <ele>4.8</ele>
        <time>2023-10-11T15:48:21Z</time>
      </trkpt>
      <trkpt lat="49.28518" lon="-0.14269">
        <ele>4.9</ele>
        <time>2023-10-11T15:48:22Z</time>
      </trkpt>
      <trkpt lat="49.2852" lon="-0.14256">
        <ele>4.9</ele>
        <time>2023-10-11T15:48:23Z</time>
      </trkpt>
      <trkpt lat="49.28522" lon="-0.14242">
        <ele>4.9</ele>
        <time>2023-10-11T15:48:24Z</time>
      </trkpt>
      <trkpt lat="49.28524" lon="-0.14228">
        <ele>4.9</ele>
        <time>2023-10-11T15:48:25Z</time>
      </trkpt>
      <trkpt lat="49.28525" lon="-0.14214">
        <ele>4.9</ele>
        <time>2023-10-11T15:48:26Z</time>
      </trkpt>
      <trkpt lat="49.28527" lon="-0.142">
        <ele>4.9</ele>
        <time>2023-10-11T15:48:27Z</time>
      </trkpt>
      <trkpt lat="49.28529" lon="-0.14186">
        <ele>4.9</ele>
        <time>2023-10-11T15:48:28Z</time>
      </trkpt>
      <trkpt lat="49.28531" lon="-0.14173">
        <ele>4.9</ele>
        <time>2023-10-11T15:48:29Z</time>
      </trkpt>
      <trkpt lat="49.28533" lon="-0.14159">
        <ele>4.9</ele>
        <time>2023-10-11T15:48:30Z</time>
      </trkpt>
      <trkpt lat="49.28535" lon="-0.14145">
        <ele>4.9</ele>
        <time>2023-10-11T15:48:31Z</time>
      </trkpt>
      <trkpt lat="49.28536" lon="-0.14131">
        <ele>4.9</ele>
        <time>2023-10-11T15:48:32Z</time>
      </trkpt>
      <trkpt lat="49.28538" lon="-0.14118">
        <ele>4.8</ele>
        <time>2023-10-11T15:48:33Z</time>
      </trkpt>
      <trkpt lat="49.28541" lon="-0.14104">
        <ele>4.8</ele>
        <time>2023-10-11T15:48:34Z</time>
      </trkpt>
      <trkpt lat="49.28542" lon="-0.14091">
        <ele>4.8</ele>
        <time>2023-10-11T15:48:35Z</time>
      </trkpt>
      <trkpt lat="49.28544" lon="-0.14078">
        <ele>4.8</ele>
        <time>2023-10-11T15:48:36Z</time>
      </trkpt>
      <trkpt lat="49.28545" lon="-0.14065">
        <ele>4.7</ele>
        <time>2023-10-11T15:48:37Z</time>
      </trkpt>
      <trkpt lat="49.28546" lon="-0.14052">
        <ele>4.7</ele>
        <time>2023-10-11T15:48:38Z</time>
      </trkpt>
      <trkpt lat="49.28546" lon="-0.14039">
        <ele>4.7</ele>
        <time>2023-10-11T15:48:39Z</time>
      </trkpt>
      <trkpt lat="49.28546" lon="-0.14026">
        <ele>4.7</ele>
        <time>2023-10-11T15:48:40Z</time>
      </trkpt>
      <trkpt lat="49.28546" lon="-0.14012">
        <ele>4.8</ele>
        <time>2023-10-11T15:48:41Z</time>
      </trkpt>
      <trkpt lat="49.28547" lon="-0.13999">
        <ele>4.8</ele>
        <time>2023-10-11T15:48:42Z</time>
      </trkpt>
      <trkpt lat="49.28546" lon="-0.13986">
        <ele>4.8</ele>
        <time>2023-10-11T15:48:43Z</time>
      </trkpt>
      <trkpt lat="49.28546" lon="-0.13974">
        <ele>4.8</ele>
        <time>2023-10-11T15:48:44Z</time>
      </trkpt>
      <trkpt lat="49.28546" lon="-0.13961">
        <ele>4.8</ele>
        <time>2023-10-11T15:48:45Z</time>
      </trkpt>
      <trkpt lat="49.28546" lon="-0.13948">
        <ele>4.7</ele>
        <time>2023-10-11T15:48:46Z</time>
      </trkpt>
      <trkpt lat="49.28547" lon="-0.13936">
        <ele>4.7</ele>
        <time>2023-10-11T15:48:47Z</time>
      </trkpt>
      <trkpt lat="49.28548" lon="-0.13924">
        <ele>4.7</ele>
        <time>2023-10-11T15:48:48Z</time>
      </trkpt>
      <trkpt lat="49.28549" lon="-0.13911">
        <ele>4.7</ele>
        <time>2023-10-11T15:48:49Z</time>
      </trkpt>
      <trkpt lat="49.28551" lon="-0.13899">
        <ele>4.7</ele>
        <time>2023-10-11T15:48:50Z</time>
      </trkpt>
      <trkpt lat="49.28553" lon="-0.13886">
        <ele>4.8</ele>
        <time>2023-10-11T15:48:51Z</time>
      </trkpt>
      <trkpt lat="49.28554" lon="-0.13873">
        <ele>4.8</ele>
        <time>2023-10-11T15:48:52Z</time>
      </trkpt>
      <trkpt lat="49.28556" lon="-0.1386">
        <ele>4.8</ele>
        <time>2023-10-11T15:48:53Z</time>
      </trkpt>
      <trkpt lat="49.28558" lon="-0.13847">
        <ele>4.8</ele>
        <time>2023-10-11T15:48:54Z</time>
      </trkpt>
      <trkpt lat="49.28559" lon="-0.13834">
        <ele>4.9</ele>
        <time>2023-10-11T15:48:55Z</time>
      </trkpt>
      <trkpt lat="49.28561" lon="-0.13821">
        <ele>5</ele>
        <time>2023-10-11T15:48:56Z</time>
      </trkpt>
      <trkpt lat="49.28563" lon="-0.13808">
        <ele>5</ele>
        <time>2023-10-11T15:48:57Z</time>
      </trkpt>
      <trkpt lat="49.28565" lon="-0.13795">
        <ele>5.1</ele>
        <time>2023-10-11T15:48:58Z</time>
      </trkpt>
      <trkpt lat="49.28566" lon="-0.13781">
        <ele>5.1</ele>
        <time>2023-10-11T15:48:59Z</time>
      </trkpt>
      <trkpt lat="49.28568" lon="-0.13768">
        <ele>5.1</ele>
        <time>2023-10-11T15:49:00Z</time>
      </trkpt>
      <trkpt lat="49.2857" lon="-0.13755">
        <ele>5.2</ele>
        <time>2023-10-11T15:49:01Z</time>
      </trkpt>
      <trkpt lat="49.28572" lon="-0.13741">
        <ele>5.2</ele>
        <time>2023-10-11T15:49:02Z</time>
      </trkpt>
      <trkpt lat="49.28573" lon="-0.13728">
        <ele>5.2</ele>
        <time>2023-10-11T15:49:03Z</time>
      </trkpt>
      <trkpt lat="49.28575" lon="-0.13715">
        <ele>5.3</ele>
        <time>2023-10-11T15:49:04Z</time>
      </trkpt>
      <trkpt lat="49.28577" lon="-0.13702">
        <ele>5.3</ele>
        <time>2023-10-11T15:49:05Z</time>
      </trkpt>
      <trkpt lat="49.28579" lon="-0.13689">
        <ele>5.3</ele>
        <time>2023-10-11T15:49:06Z</time>
      </trkpt>
      <trkpt lat="49.2858" lon="-0.13676">
        <ele>5.3</ele>
        <time>2023-10-11T15:49:07Z</time>
      </trkpt>
      <trkpt lat="49.28582" lon="-0.13662">
        <ele>5.4</ele>
        <time>2023-10-11T15:49:08Z</time>
      </trkpt>
      <trkpt lat="49.28584" lon="-0.13649">
        <ele>5.4</ele>
        <time>2023-10-11T15:49:09Z</time>
      </trkpt>
      <trkpt lat="49.28586" lon="-0.13635">
        <ele>5.4</ele>
        <time>2023-10-11T15:49:10Z</time>
      </trkpt>
      <trkpt lat="49.28587" lon="-0.13622">
        <ele>5.4</ele>
        <time>2023-10-11T15:49:11Z</time>
      </trkpt>
      <trkpt lat="49.28589" lon="-0.13609">
        <ele>5.5</ele>
        <time>2023-10-11T15:49:12Z</time>
      </trkpt>
      <trkpt lat="49.28591" lon="-0.13596">
        <ele>5.5</ele>
        <time>2023-10-11T15:49:13Z</time>
      </trkpt>
      <trkpt lat="49.28592" lon="-0.13583">
        <ele>5.5</ele>
        <time>2023-10-11T15:49:14Z</time>
      </trkpt>
      <trkpt lat="49.28594" lon="-0.1357">
        <ele>5.6</ele>
        <time>2023-10-11T15:49:15Z</time>
      </trkpt>
      <trkpt lat="49.28596" lon="-0.13557">
        <ele>5.6</ele>
        <time>2023-10-11T15:49:16Z</time>
      </trkpt>
      <trkpt lat="49.28598" lon="-0.13545">
        <ele>5.6</ele>
        <time>2023-10-11T15:49:17Z</time>
      </trkpt>
      <trkpt lat="49.28599" lon="-0.13532">
        <ele>5.6</ele>
        <time>2023-10-11T15:49:18Z</time>
      </trkpt>
      <trkpt lat="49.28601" lon="-0.13519">
        <ele>5.6</ele>
        <time>2023-10-11T15:49:19Z</time>
      </trkpt>
      <trkpt lat="49.28602" lon="-0.13506">
        <ele>5.6</ele>
        <time>2023-10-11T15:49:20Z</time>
      </trkpt>
      <trkpt lat="49.28604" lon="-0.13493">
        <ele>5.6</ele>
        <time>2023-10-11T15:49:21Z</time>
      </trkpt>
      <trkpt lat="49.28606" lon="-0.13481">
        <ele>5.6</ele>
        <time>2023-10-11T15:49:22Z</time>
      </trkpt>
      <trkpt lat="49.28607" lon="-0.13468">
        <ele>5.6</ele>
        <time>2023-10-11T15:49:23Z</time>
      </trkpt>
      <trkpt lat="49.28609" lon="-0.13456">
        <ele>5.6</ele>
        <time>2023-10-11T15:49:24Z</time>
      </trkpt>
      <trkpt lat="49.2861" lon="-0.13443">
        <ele>5.6</ele>
        <time>2023-10-11T15:49:25Z</time>
      </trkpt>
      <trkpt lat="49.28612" lon="-0.1343">
        <ele>5.6</ele>
        <time>2023-10-11T15:49:26Z</time>
      </trkpt>
      <trkpt lat="49.28614" lon="-0.13417">
        <ele>5.6</ele>
        <time>2023-10-11T15:49:27Z</time>
      </trkpt>
      <trkpt lat="49.28616" lon="-0.13404">
        <ele>5.6</ele>
        <time>2023-10-11T15:49:28Z</time>
      </trkpt>
      <trkpt lat="49.28618" lon="-0.13391">
        <ele>5.6</ele>
        <time>2023-10-11T15:49:29Z</time>
      </trkpt>
      <trkpt lat="49.28619" lon="-0.13377">
        <ele>5.6</ele>
        <time>2023-10-11T15:49:30Z</time>
      </trkpt>
      <trkpt lat="49.28621" lon="-0.13364">
        <ele>5.6</ele>
        <time>2023-10-11T15:49:31Z</time>
      </trkpt>
      <trkpt lat="49.28623" lon="-0.1335">
        <ele>5.6</ele>
        <time>2023-10-11T15:49:32Z</time>
      </trkpt>
      <trkpt lat="49.28625" lon="-0.13337">
        <ele>5.5</ele>
        <time>2023-10-11T15:49:33Z</time>
      </trkpt>
      <trkpt lat="49.28627" lon="-0.13323">
        <ele>5.5</ele>
        <time>2023-10-11T15:49:34Z</time>
      </trkpt>
      <trkpt lat="49.28629" lon="-0.13309">
        <ele>5.5</ele>
        <time>2023-10-11T15:49:35Z</time>
      </trkpt>
      <trkpt lat="49.28631" lon="-0.13295">
        <ele>5.5</ele>
        <time>2023-10-11T15:49:36Z</time>
      </trkpt>
      <trkpt lat="49.28633" lon="-0.1328">
        <ele>5.5</ele>
        <time>2023-10-11T15:49:37Z</time>
      </trkpt>
      <trkpt lat="49.28634" lon="-0.13266">
        <ele>5.4</ele>
        <time>2023-10-11T15:49:38Z</time>
      </trkpt>
      <trkpt lat="49.28636" lon="-0.13252">
        <ele>5.4</ele>
        <time>2023-10-11T15:49:39Z</time>
      </trkpt>
      <trkpt lat="49.28638" lon="-0.13237">
        <ele>5.4</ele>
        <time>2023-10-11T15:49:40Z</time>
      </trkpt>
      <trkpt lat="49.2864" lon="-0.13223">
        <ele>5.4</ele>
        <time>2023-10-11T15:49:41Z</time>
      </trkpt>
      <trkpt lat="49.28642" lon="-0.13209">
        <ele>5.4</ele>
        <time>2023-10-11T15:49:42Z</time>
      </trkpt>
      <trkpt lat="49.28644" lon="-0.13194">
        <ele>5.4</ele>
        <time>2023-10-11T15:49:43Z</time>
      </trkpt>
      <trkpt lat="49.28646" lon="-0.13179">
        <ele>5.4</ele>
        <time>2023-10-11T15:49:44Z</time>
      </trkpt>
      <trkpt lat="49.28648" lon="-0.13164">
        <ele>5.3</ele>
        <time>2023-10-11T15:49:45Z</time>
      </trkpt>
      <trkpt lat="49.2865" lon="-0.13149">
        <ele>5.3</ele>
        <time>2023-10-11T15:49:46Z</time>
      </trkpt>
      <trkpt lat="49.28652" lon="-0.13134">
        <ele>5.2</ele>
        <time>2023-10-11T15:49:47Z</time>
      </trkpt>
      <trkpt lat="49.28653" lon="-0.13119">
        <ele>5.2</ele>
        <time>2023-10-11T15:49:48Z</time>
      </trkpt>
      <trkpt lat="49.28655" lon="-0.13104">
        <ele>5.2</ele>
        <time>2023-10-11T15:49:49Z</time>
      </trkpt>
      <trkpt lat="49.28658" lon="-0.1309">
        <ele>5.2</ele>
        <time>2023-10-11T15:49:50Z</time>
      </trkpt>
      <trkpt lat="49.2866" lon="-0.13075">
        <ele>5.2</ele>
        <time>2023-10-11T15:49:51Z</time>
      </trkpt>
      <trkpt lat="49.28662" lon="-0.1306">
        <ele>5.1</ele>
        <time>2023-10-11T15:49:52Z</time>
      </trkpt>
      <trkpt lat="49.28664" lon="-0.13045">
        <ele>5.1</ele>
        <time>2023-10-11T15:49:53Z</time>
      </trkpt>
      <trkpt lat="49.28666" lon="-0.1303">
        <ele>5.1</ele>
        <time>2023-10-11T15:49:54Z</time>
      </trkpt>
      <trkpt lat="49.28668" lon="-0.13014">
        <ele>5</ele>
        <time>2023-10-11T15:49:55Z</time>
      </trkpt>
      <trkpt lat="49.2867" lon="-0.12998">
        <ele>5</ele>
        <time>2023-10-11T15:49:56Z</time>
      </trkpt>
      <trkpt lat="49.28672" lon="-0.12983">
        <ele>5</ele>
        <time>2023-10-11T15:49:57Z</time>
      </trkpt>
      <trkpt lat="49.28674" lon="-0.12967">
        <ele>5</ele>
        <time>2023-10-11T15:49:58Z</time>
      </trkpt>
      <trkpt lat="49.28675" lon="-0.12952">
        <ele>5</ele>
        <time>2023-10-11T15:49:59Z</time>
      </trkpt>
      <trkpt lat="49.28677" lon="-0.12936">
        <ele>5</ele>
        <time>2023-10-11T15:50:00Z</time>
      </trkpt>
      <trkpt lat="49.2868" lon="-0.12921">
        <ele>5.1</ele>
        <time>2023-10-11T15:50:01Z</time>
      </trkpt>
      <trkpt lat="49.28682" lon="-0.12905">
        <ele>5.1</ele>
        <time>2023-10-11T15:50:02Z</time>
      </trkpt>
      <trkpt lat="49.28684" lon="-0.1289">
        <ele>5.1</ele>
        <time>2023-10-11T15:50:03Z</time>
      </trkpt>
      <trkpt lat="49.28686" lon="-0.12874">
        <ele>5.1</ele>
        <time>2023-10-11T15:50:04Z</time>
      </trkpt>
      <trkpt lat="49.28688" lon="-0.12859">
        <ele>5.1</ele>
        <time>2023-10-11T15:50:05Z</time>
      </trkpt>
      <trkpt lat="49.2869" lon="-0.12844">
        <ele>5.2</ele>
        <time>2023-10-11T15:50:06Z</time>
      </trkpt>
      <trkpt lat="49.28692" lon="-0.12829">
        <ele>5.2</ele>
        <time>2023-10-11T15:50:07Z</time>
      </trkpt>
      <trkpt lat="49.28693" lon="-0.12815">
        <ele>5.2</ele>
        <time>2023-10-11T15:50:08Z</time>
      </trkpt>
      <trkpt lat="49.28695" lon="-0.12801">
        <ele>5.2</ele>
        <time>2023-10-11T15:50:09Z</time>
      </trkpt>
      <trkpt lat="49.28697" lon="-0.12788">
        <ele>5.2</ele>
        <time>2023-10-11T15:50:10Z</time>
      </trkpt>
      <trkpt lat="49.28699" lon="-0.12775">
        <ele>5.2</ele>
        <time>2023-10-11T15:50:11Z</time>
      </trkpt>
      <trkpt lat="49.287" lon="-0.12761">
        <ele>5.3</ele>
        <time>2023-10-11T15:50:12Z</time>
      </trkpt>
      <trkpt lat="49.28702" lon="-0.12748">
        <ele>5.3</ele>
        <time>2023-10-11T15:50:13Z</time>
      </trkpt>
      <trkpt lat="49.28704" lon="-0.12735">
        <ele>5.3</ele>
        <time>2023-10-11T15:50:14Z</time>
      </trkpt>
      <trkpt lat="49.28705" lon="-0.12722">
        <ele>5.3</ele>
        <time>2023-10-11T15:50:15Z</time>
      </trkpt>
      <trkpt lat="49.28707" lon="-0.1271">
        <ele>5.3</ele>
        <time>2023-10-11T15:50:16Z</time>
      </trkpt>
      <trkpt lat="49.28709" lon="-0.12697">
        <ele>5.3</ele>
        <time>2023-10-11T15:50:17Z</time>
      </trkpt>
      <trkpt lat="49.2871" lon="-0.12685">
        <ele>5.3</ele>
        <time>2023-10-11T15:50:18Z</time>
      </trkpt>
      <trkpt lat="49.28712" lon="-0.12674">
        <ele>5.3</ele>
        <time>2023-10-11T15:50:19Z</time>
      </trkpt>
      <trkpt lat="49.28713" lon="-0.12662">
        <ele>5.3</ele>
        <time>2023-10-11T15:50:20Z</time>
      </trkpt>
      <trkpt lat="49.28715" lon="-0.12652">
        <ele>5.3</ele>
        <time>2023-10-11T15:50:21Z</time>
      </trkpt>
      <trkpt lat="49.28716" lon="-0.12642">
        <ele>5.3</ele>
        <time>2023-10-11T15:50:22Z</time>
      </trkpt>
      <trkpt lat="49.28715" lon="-0.12631">
        <ele>5.3</ele>
        <time>2023-10-11T15:50:23Z</time>
      </trkpt>
      <trkpt lat="49.28712" lon="-0.12622">
        <ele>5.3</ele>
        <time>2023-10-11T15:50:24Z</time>
      </trkpt>
      <trkpt lat="49.28706" lon="-0.12616">
        <ele>5.2</ele>
        <time>2023-10-11T15:50:25Z</time>
      </trkpt>
      <trkpt lat="49.28698" lon="-0.12613">
        <ele>5.2</ele>
        <time>2023-10-11T15:50:26Z</time>
      </trkpt>
      <trkpt lat="49.28691" lon="-0.1261">
        <ele>5.1</ele>
        <time>2023-10-11T15:50:27Z</time>
      </trkpt>
      <trkpt lat="49.28683" lon="-0.12608">
        <ele>5</ele>
        <time>2023-10-11T15:50:28Z</time>
      </trkpt>
      <trkpt lat="49.28676" lon="-0.12606">
        <ele>5</ele>
        <time>2023-10-11T15:50:29Z</time>
      </trkpt>
      <trkpt lat="49.28668" lon="-0.12604">
        <ele>4.9</ele>
        <time>2023-10-11T15:50:30Z</time>
      </trkpt>
      <trkpt lat="49.28661" lon="-0.12601">
        <ele>4.9</ele>
        <time>2023-10-11T15:50:31Z</time>
      </trkpt>
      <trkpt lat="49.28653" lon="-0.12599">
        <ele>4.8</ele>
        <time>2023-10-11T15:50:32Z</time>
      </trkpt>
      <trkpt lat="49.28646" lon="-0.12597">
        <ele>4.8</ele>
        <time>2023-10-11T15:50:33Z</time>
      </trkpt>
      <trkpt lat="49.28639" lon="-0.12594">
        <ele>4.7</ele>
        <time>2023-10-11T15:50:34Z</time>
      </trkpt>
      <trkpt lat="49.28632" lon="-0.12592">
        <ele>4.7</ele>
        <time>2023-10-11T15:50:35Z</time>
      </trkpt>
      <trkpt lat="49.28625" lon="-0.1259">
        <ele>4.7</ele>
        <time>2023-10-11T15:50:36Z</time>
      </trkpt>
      <trkpt lat="49.28619" lon="-0.12588">
        <ele>4.6</ele>
        <time>2023-10-11T15:50:37Z</time>
      </trkpt>
      <trkpt lat="49.28612" lon="-0.12586">
        <ele>4.6</ele>
        <time>2023-10-11T15:50:38Z</time>
      </trkpt>
      <trkpt lat="49.28606" lon="-0.12585">
        <ele>4.6</ele>
        <time>2023-10-11T15:50:39Z</time>
      </trkpt>
      <trkpt lat="49.286" lon="-0.12583">
        <ele>4.5</ele>
        <time>2023-10-11T15:50:40Z</time>
      </trkpt>
      <trkpt lat="49.28594" lon="-0.12581">
        <ele>4.5</ele>
        <time>2023-10-11T15:50:41Z</time>
      </trkpt>
      <trkpt lat="49.28588" lon="-0.12579">
        <ele>4.4</ele>
        <time>2023-10-11T15:50:42Z</time>
      </trkpt>
      <trkpt lat="49.28582" lon="-0.12577">
        <ele>4.4</ele>
        <time>2023-10-11T15:50:43Z</time>
      </trkpt>
      <trkpt lat="49.28577" lon="-0.12576">
        <ele>4.4</ele>
        <time>2023-10-11T15:50:44Z</time>
      </trkpt>
      <trkpt lat="49.28571" lon="-0.12574">
        <ele>4.4</ele>
        <time>2023-10-11T15:50:45Z</time>
      </trkpt>
      <trkpt lat="49.28566" lon="-0.12572">
        <ele>4.3</ele>
        <time>2023-10-11T15:50:46Z</time>
      </trkpt>
      <trkpt lat="49.28561" lon="-0.12572">
        <ele>4.3</ele>
        <time>2023-10-11T15:50:47Z</time>
      </trkpt>
      <trkpt lat="49.28556" lon="-0.12573">
        <ele>4.3</ele>
        <time>2023-10-11T15:50:48Z</time>
      </trkpt>
      <trkpt lat="49.28551" lon="-0.12574">
        <ele>4.3</ele>
        <time>2023-10-11T15:50:49Z</time>
      </trkpt>
      <trkpt lat="49.28546" lon="-0.12576">
        <ele>4.3</ele>
        <time>2023-10-11T15:50:50Z</time>
      </trkpt>
      <trkpt lat="49.28541" lon="-0.12579">
        <ele>4.3</ele>
        <time>2023-10-11T15:50:51Z</time>
      </trkpt>
      <trkpt lat="49.28536" lon="-0.12581">
        <ele>4.3</ele>
        <time>2023-10-11T15:50:52Z</time>
      </trkpt>
      <trkpt lat="49.28531" lon="-0.1258">
        <ele>4.3</ele>
        <time>2023-10-11T15:50:53Z</time>
      </trkpt>
      <trkpt lat="49.28526" lon="-0.12578">
        <ele>4.3</ele>
        <time>2023-10-11T15:50:54Z</time>
      </trkpt>
      <trkpt lat="49.28522" lon="-0.12572">
        <ele>4.4</ele>
        <time>2023-10-11T15:50:55Z</time>
      </trkpt>
      <trkpt lat="49.2852" lon="-0.12564">
        <ele>4.4</ele>
        <time>2023-10-11T15:50:56Z</time>
      </trkpt>
      <trkpt lat="49.2852" lon="-0.12554">
        <ele>4.4</ele>
        <time>2023-10-11T15:50:57Z</time>
      </trkpt>
      <trkpt lat="49.28522" lon="-0.12545">
        <ele>4.4</ele>
        <time>2023-10-11T15:50:58Z</time>
      </trkpt>
      <trkpt lat="49.28526" lon="-0.12537">
        <ele>4.5</ele>
        <time>2023-10-11T15:50:59Z</time>
      </trkpt>
      <trkpt lat="49.2853" lon="-0.1253">
        <ele>4.5</ele>
        <time>2023-10-11T15:51:00Z</time>
      </trkpt>
      <trkpt lat="49.28535" lon="-0.12523">
        <ele>4.4</ele>
        <time>2023-10-11T15:51:01Z</time>
      </trkpt>
      <trkpt lat="49.2854" lon="-0.12516">
        <ele>4.4</ele>
        <time>2023-10-11T15:51:02Z</time>
      </trkpt>
      <trkpt lat="49.28544" lon="-0.12508">
        <ele>4.4</ele>
        <time>2023-10-11T15:51:03Z</time>
      </trkpt>
      <trkpt lat="49.28547" lon="-0.12499">
        <ele>4.3</ele>
        <time>2023-10-11T15:51:04Z</time>
      </trkpt>
      <trkpt lat="49.28548" lon="-0.12488">
        <ele>4.3</ele>
        <time>2023-10-11T15:51:05Z</time>
      </trkpt>
      <trkpt lat="49.2855" lon="-0.12478">
        <ele>4.3</ele>
        <time>2023-10-11T15:51:06Z</time>
      </trkpt>
      <trkpt lat="49.28551" lon="-0.12467">
        <ele>4.3</ele>
        <time>2023-10-11T15:51:07Z</time>
      </trkpt>
      <trkpt lat="49.28553" lon="-0.12457">
        <ele>4.3</ele>
        <time>2023-10-11T15:51:08Z</time>
      </trkpt>
      <trkpt lat="49.28555" lon="-0.12447">
        <ele>4.3</ele>
        <time>2023-10-11T15:51:09Z</time>
      </trkpt>
      <trkpt lat="49.28558" lon="-0.12437">
        <ele>4.3</ele>
        <time>2023-10-11T15:51:10Z</time>
      </trkpt>
      <trkpt lat="49.2856" lon="-0.12426">
        <ele>4.3</ele>
        <time>2023-10-11T15:51:11Z</time>
      </trkpt>
      <trkpt lat="49.28562" lon="-0.12414">
        <ele>4.3</ele>
        <time>2023-10-11T15:51:12Z</time>
      </trkpt>
      <trkpt lat="49.28564" lon="-0.12403">
        <ele>4.3</ele>
        <time>2023-10-11T15:51:13Z</time>
      </trkpt>
      <trkpt lat="49.28566" lon="-0.12391">
        <ele>4.3</ele>
        <time>2023-10-11T15:51:14Z</time>
      </trkpt>
      <trkpt lat="49.28569" lon="-0.12379">
        <ele>4.3</ele>
        <time>2023-10-11T15:51:15Z</time>
      </trkpt>
      <trkpt lat="49.28571" lon="-0.12368">
        <ele>4.3</ele>
        <time>2023-10-11T15:51:16Z</time>
      </trkpt>
      <trkpt lat="49.28574" lon="-0.12357">
        <ele>4.4</ele>
        <time>2023-10-11T15:51:17Z</time>
      </trkpt>
      <trkpt lat="49.28576" lon="-0.12345">
        <ele>4.4</ele>
        <time>2023-10-11T15:51:18Z</time>
      </trkpt>
      <trkpt lat="49.28578" lon="-0.12334">
        <ele>4.4</ele>
        <time>2023-10-11T15:51:19Z</time>
      </trkpt>
      <trkpt lat="49.2858" lon="-0.12324">
        <ele>4.4</ele>
        <time>2023-10-11T15:51:20Z</time>
      </trkpt>
      <trkpt lat="49.28582" lon="-0.12313">
        <ele>4.5</ele>
        <time>2023-10-11T15:51:21Z</time>
      </trkpt>
      <trkpt lat="49.28584" lon="-0.12302">
        <ele>4.5</ele>
        <time>2023-10-11T15:51:22Z</time>
      </trkpt>
      <trkpt lat="49.28586" lon="-0.12292">
        <ele>4.5</ele>
        <time>2023-10-11T15:51:23Z</time>
      </trkpt>
      <trkpt lat="49.28588" lon="-0.12281">
        <ele>4.5</ele>
        <time>2023-10-11T15:51:24Z</time>
      </trkpt>
      <trkpt lat="49.2859" lon="-0.1227">
        <ele>4.6</ele>
        <time>2023-10-11T15:51:25Z</time>
      </trkpt>
      <trkpt lat="49.28593" lon="-0.12259">
        <ele>4.6</ele>
        <time>2023-10-11T15:51:26Z</time>
      </trkpt>
      <trkpt lat="49.28595" lon="-0.12247">
        <ele>4.5</ele>
        <time>2023-10-11T15:51:27Z</time>
      </trkpt>
      <trkpt lat="49.28597" lon="-0.12235">
        <ele>4.5</ele>
        <time>2023-10-11T15:51:28Z</time>
      </trkpt>
      <trkpt lat="49.286" lon="-0.12224">
        <ele>4.5</ele>
        <time>2023-10-11T15:51:29Z</time>
      </trkpt>
      <trkpt lat="49.28602" lon="-0.12213">
        <ele>4.4</ele>
        <time>2023-10-11T15:51:30Z</time>
      </trkpt>
      <trkpt lat="49.28604" lon="-0.12201">
        <ele>4.4</ele>
        <time>2023-10-11T15:51:31Z</time>
      </trkpt>
      <trkpt lat="49.28606" lon="-0.12191">
        <ele>4.4</ele>
        <time>2023-10-11T15:51:32Z</time>
      </trkpt>
      <trkpt lat="49.28609" lon="-0.1218">
        <ele>4.4</ele>
        <time>2023-10-11T15:51:33Z</time>
      </trkpt>
      <trkpt lat="49.28611" lon="-0.1217">
        <ele>4.3</ele>
        <time>2023-10-11T15:51:34Z</time>
      </trkpt>
      <trkpt lat="49.28613" lon="-0.12159">
        <ele>4.3</ele>
        <time>2023-10-11T15:51:35Z</time>
      </trkpt>
      <trkpt lat="49.28615" lon="-0.12148">
        <ele>4.3</ele>
        <time>2023-10-11T15:51:36Z</time>
      </trkpt>
      <trkpt lat="49.28617" lon="-0.12137">
        <ele>4.3</ele>
        <time>2023-10-11T15:51:37Z</time>
      </trkpt>
      <trkpt lat="49.28619" lon="-0.12126">
        <ele>4.4</ele>
        <time>2023-10-11T15:51:38Z</time>
      </trkpt>
      <trkpt lat="49.28622" lon="-0.12116">
        <ele>4.4</ele>
        <time>2023-10-11T15:51:39Z</time>
      </trkpt>
      <trkpt lat="49.28623" lon="-0.12105">
        <ele>4.4</ele>
        <time>2023-10-11T15:51:40Z</time>
      </trkpt>
      <trkpt lat="49.28625" lon="-0.12094">
        <ele>4.4</ele>
        <time>2023-10-11T15:51:41Z</time>
      </trkpt>
      <trkpt lat="49.28627" lon="-0.12084">
        <ele>4.4</ele>
        <time>2023-10-11T15:51:42Z</time>
      </trkpt>
      <trkpt lat="49.28629" lon="-0.12074">
        <ele>4.4</ele>
        <time>2023-10-11T15:51:43Z</time>
      </trkpt>
      <trkpt lat="49.28631" lon="-0.12064">
        <ele>4.4</ele>
        <time>2023-10-11T15:51:44Z</time>
      </trkpt>
      <trkpt lat="49.28632" lon="-0.12054">
        <ele>4.4</ele>
        <time>2023-10-11T15:51:45Z</time>
      </trkpt>
      <trkpt lat="49.28634" lon="-0.12045">
        <ele>4.4</ele>
        <time>2023-10-11T15:51:46Z</time>
      </trkpt>
      <trkpt lat="49.28636" lon="-0.12037">
        <ele>4.4</ele>
        <time>2023-10-11T15:51:47Z</time>
      </trkpt>
      <trkpt lat="49.28638" lon="-0.12028">
        <ele>4.4</ele>
        <time>2023-10-11T15:51:48Z</time>
      </trkpt>
      <trkpt lat="49.28639" lon="-0.12021">
        <ele>4.4</ele>
        <time>2023-10-11T15:51:49Z</time>
      </trkpt>
      <trkpt lat="49.28641" lon="-0.12012">
        <ele>4.4</ele>
        <time>2023-10-11T15:51:50Z</time>
      </trkpt>
      <trkpt lat="49.28642" lon="-0.12005">
        <ele>4.4</ele>
        <time>2023-10-11T15:51:51Z</time>
      </trkpt>
      <trkpt lat="49.28644" lon="-0.11998">
        <ele>4.5</ele>
        <time>2023-10-11T15:51:52Z</time>
      </trkpt>
      <trkpt lat="49.28645" lon="-0.11991">
        <ele>4.5</ele>
        <time>2023-10-11T15:51:53Z</time>
      </trkpt>
      <trkpt lat="49.28646" lon="-0.11985">
        <ele>4.5</ele>
        <time>2023-10-11T15:51:54Z</time>
      </trkpt>
      <trkpt lat="49.28647" lon="-0.1198">
        <ele>4.5</ele>
        <time>2023-10-11T15:51:55Z</time>
      </trkpt>
      <trkpt lat="49.28648" lon="-0.11975">
        <ele>4.5</ele>
        <time>2023-10-11T15:51:56Z</time>
      </trkpt>
      <trkpt lat="49.28649" lon="-0.1197">
        <ele>4.5</ele>
        <time>2023-10-11T15:51:57Z</time>
      </trkpt>
      <trkpt lat="49.2865" lon="-0.11965">
        <ele>4.5</ele>
        <time>2023-10-11T15:51:58Z</time>
      </trkpt>
      <trkpt lat="49.2865" lon="-0.11961">
        <ele>4.5</ele>
        <time>2023-10-11T15:51:59Z</time>
      </trkpt>
      <trkpt lat="49.28651" lon="-0.11957">
        <ele>4.6</ele>
        <time>2023-10-11T15:52:00Z</time>
      </trkpt>
      <trkpt lat="49.28652" lon="-0.11951">
        <ele>4.6</ele>
        <time>2023-10-11T15:52:01Z</time>
      </trkpt>
      <trkpt lat="49.28652" lon="-0.11949">
        <ele>4.6</ele>
        <time>2023-10-11T15:52:02Z</time>
      </trkpt>
      <trkpt lat="49.28653" lon="-0.11944">
        <ele>4.6</ele>
        <time>2023-10-11T15:52:03Z</time>
      </trkpt>
      <trkpt lat="49.28653" lon="-0.11942">
        <ele>4.6</ele>
        <time>2023-10-11T15:52:04Z</time>
      </trkpt>
      <trkpt lat="49.28654" lon="-0.11938">
        <ele>4.6</ele>
        <time>2023-10-11T15:52:05Z</time>
      </trkpt>
      <trkpt lat="49.28654" lon="-0.11937">
        <ele>4.6</ele>
        <time>2023-10-11T15:52:06Z</time>
      </trkpt>
      <trkpt lat="49.28655" lon="-0.11934">
        <ele>4.6</ele>
        <time>2023-10-11T15:52:07Z</time>
      </trkpt>
      <trkpt lat="49.28655" lon="-0.11932">
        <ele>4.6</ele>
        <time>2023-10-11T15:52:08Z</time>
      </trkpt>
      <trkpt lat="49.28656" lon="-0.11929">
        <ele>4.6</ele>
        <time>2023-10-11T15:52:09Z</time>
      </trkpt>
      <trkpt lat="49.28657" lon="-0.11927">
        <ele>4.6</ele>
        <time>2023-10-11T15:52:10Z</time>
      </trkpt>
      <trkpt lat="49.28657" lon="-0.11926">
        <ele>4.6</ele>
        <time>2023-10-11T15:52:11Z</time>
      </trkpt>
      <trkpt lat="49.28656" lon="-0.11926">
        <ele>4.6</ele>
        <time>2023-10-11T15:52:12Z</time>
      </trkpt>
      <trkpt lat="49.28656" lon="-0.11926">
        <ele>4.6</ele>
        <time>2023-10-11T15:52:13Z</time>
      </trkpt>
      <trkpt lat="49.28656" lon="-0.11926">
        <ele>4.6</ele>
        <time>2023-10-11T15:52:14Z</time>
      </trkpt>
      <trkpt lat="49.28656" lon="-0.11926">
        <ele>4.6</ele>
        <time>2023-10-11T15:52:15Z</time>
      </trkpt>
      <trkpt lat="49.28656" lon="-0.11927">
        <ele>4.6</ele>
        <time>2023-10-11T15:52:16Z</time>
      </trkpt>
      <trkpt lat="49.28656" lon="-0.11927">
        <ele>4.6</ele>
        <time>2023-10-11T15:52:17Z</time>
      </trkpt>
      <trkpt lat="49.28656" lon="-0.11927">
        <ele>4.6</ele>
        <time>2023-10-11T15:52:18Z</time>
      </trkpt>
      <trkpt lat="49.28656" lon="-0.11927">
        <ele>4.6</ele>
        <time>2023-10-11T15:52:19Z</time>
      </trkpt>
      <trkpt lat="49.28656" lon="-0.11927">
        <ele>4.6</ele>
        <time>2023-10-11T15:52:20Z</time>
      </trkpt>
      <trkpt lat="49.28656" lon="-0.11927">
        <ele>4.6</ele>
        <time>2023-10-11T15:52:21Z</time>
      </trkpt>
      <trkpt lat="49.28656" lon="-0.11927">
        <ele>4.6</ele>
        <time>2023-10-11T15:52:22Z</time>
      </trkpt>
      <trkpt lat="49.28654" lon="-0.11926">
        <ele>4.6</ele>
        <time>2023-10-11T15:52:51Z</time>
      </trkpt>
      <trkpt lat="49.28653" lon="-0.11927">
        <ele>4.6</ele>
        <time>2023-10-11T15:52:52Z</time>
      </trkpt>
      <trkpt lat="49.28653" lon="-0.11929">
        <ele>4.6</ele>
        <time>2023-10-11T15:52:53Z</time>
      </trkpt>
      <trkpt lat="49.28653" lon="-0.11931">
        <ele>4.6</ele>
        <time>2023-10-11T15:52:54Z</time>
      </trkpt>
      <trkpt lat="49.28653" lon="-0.11934">
        <ele>4.6</ele>
        <time>2023-10-11T15:52:55Z</time>
      </trkpt>
      <trkpt lat="49.28653" lon="-0.11935">
        <ele>4.6</ele>
        <time>2023-10-11T15:52:56Z</time>
      </trkpt>
      <trkpt lat="49.28653" lon="-0.11937">
        <ele>4.6</ele>
        <time>2023-10-11T15:52:57Z</time>
      </trkpt>
      <trkpt lat="49.28653" lon="-0.11939">
        <ele>4.6</ele>
        <time>2023-10-11T15:52:58Z</time>
      </trkpt>
      <trkpt lat="49.28653" lon="-0.1194">
        <ele>4.6</ele>
        <time>2023-10-11T15:52:59Z</time>
      </trkpt>
      <trkpt lat="49.28652" lon="-0.1194">
        <ele>4.6</ele>
        <time>2023-10-11T15:53:00Z</time>
      </trkpt>
      <trkpt lat="49.28652" lon="-0.11941">
        <ele>4.6</ele>
        <time>2023-10-11T15:53:01Z</time>
      </trkpt>
      <trkpt lat="49.28652" lon="-0.1194">
        <ele>4.6</ele>
        <time>2023-10-11T15:53:02Z</time>
      </trkpt>
      <trkpt lat="49.28652" lon="-0.1194">
        <ele>4.6</ele>
        <time>2023-10-11T15:53:03Z</time>
      </trkpt>
      <trkpt lat="49.28652" lon="-0.1194">
        <ele>4.6</ele>
        <time>2023-10-11T15:53:04Z</time>
      </trkpt>
      <trkpt lat="49.28652" lon="-0.1194">
        <ele>4.6</ele>
        <time>2023-10-11T15:53:05Z</time>
      </trkpt>
      <trkpt lat="49.28652" lon="-0.1194">
        <ele>4.6</ele>
        <time>2023-10-11T15:53:06Z</time>
      </trkpt>
      <trkpt lat="49.28652" lon="-0.1194">
        <ele>4.6</ele>
        <time>2023-10-11T15:53:07Z</time>
      </trkpt>
      <trkpt lat="49.28652" lon="-0.1194">
        <ele>4.6</ele>
        <time>2023-10-11T15:53:08Z</time>
      </trkpt>
      <trkpt lat="49.28652" lon="-0.1194">
        <ele>4.6</ele>
        <time>2023-10-11T15:53:09Z</time>
      </trkpt>
      <trkpt lat="49.28652" lon="-0.1194">
        <ele>4.6</ele>
        <time>2023-10-11T15:53:10Z</time>
      </trkpt>
      <trkpt lat="49.28652" lon="-0.1194">
        <ele>4.6</ele>
        <time>2023-10-11T15:53:11Z</time>
      </trkpt>
      <trkpt lat="49.28652" lon="-0.1194">
        <ele>4.6</ele>
        <time>2023-10-11T15:53:12Z</time>
      </trkpt>
      <trkpt lat="49.28652" lon="-0.1194">
        <ele>4.6</ele>
        <time>2023-10-11T15:53:13Z</time>
      </trkpt>
    </trkseg>
  </trk>
</gpx>